<?xml version="1.0" encoding="UTF-8" standalone="no" ?>
<gpx xmlns="http://www.topografix.com/GPX/1/1" xmlns:xsi="http://www.w3.org/2001/XMLSchema-instance" xsi:schemaLocation="http://www.topografix.com/GPX/1/1 http://www.topografix.com/GPX/1/1/gpx.xsd" version="1.1" creator="VisuGPX - https://www.visugpx.com">
  <metadata>
    <name>2017-06-28 Bike ride-Amberieux-Rance O 37</name>
    <desc><![CDATA[2017-06-28 Bike ride-Amberieux-Rance O 37]]></desc>
  </metadata>
  <wpt lat="45.92467" lon="4.7369">
    <ele>174</ele>
    <name><![CDATA[2017-06-28 09:59 (Start)]]></name>
  </wpt>
  <wpt lat="45.92462" lon="4.7371">
    <ele>174</ele>
    <name><![CDATA[2017-06-28 09:59 (End)]]></name>
    <desc><![CDATA[Created by Google My Tracks on Android  Name: 2017-06-28 09:59 Activity type: biking Description: - Total distance: 36.81 km (22.9 mi) Total time: 1:54:17 Moving time: 1:45:20 Average speed: 19.32 km/h (12.0 mi/h) Average moving speed: 20.97 km/h (13.0 mi/h) Max speed: 48.63 km/h (30.2 mi/h) Average pace: 3:06 min/km (4:60 min/mi) Average moving pace: 2:52 min/km (4:36 min/mi) Fastest pace: 1:14 min/km (1:59 min/mi) Max elevation: 294 m (965 ft) Min elevation: 159 m (522 ft) Elevation gain: 561 m (1840 ft) Max grade: 22 % Min grade: -19 % Recorded: 28/06/2017 09:59]]></desc>
  </wpt>
  <trk>
    <name><![CDATA[2017-06-28 09:59]]></name>
    <trkseg>
      <trkpt lat="45.92467" lon="4.7369">
        <ele>174</ele>
        <time>2017-06-28T07:59:53.806Z</time>
      </trkpt>
      <trkpt lat="45.92467" lon="4.73691">
        <ele>174</ele>
        <time>2017-06-28T08:00:32Z</time>
      </trkpt>
      <trkpt lat="45.92461" lon="4.73701">
        <ele>174</ele>
        <time>2017-06-28T08:00:33Z</time>
      </trkpt>
      <trkpt lat="45.92468" lon="4.73695">
        <ele>174</ele>
        <time>2017-06-28T08:01:08Z</time>
      </trkpt>
      <trkpt lat="45.92468" lon="4.73692">
        <ele>174</ele>
        <time>2017-06-28T08:01:09Z</time>
      </trkpt>
      <trkpt lat="45.92469" lon="4.73681">
        <ele>174</ele>
        <time>2017-06-28T08:01:12Z</time>
      </trkpt>
      <trkpt lat="45.9247" lon="4.73677">
        <ele>174</ele>
        <time>2017-06-28T08:01:13Z</time>
      </trkpt>
      <trkpt lat="45.92471" lon="4.73669">
        <ele>174</ele>
        <time>2017-06-28T08:01:15Z</time>
      </trkpt>
      <trkpt lat="45.92472" lon="4.73665">
        <ele>174</ele>
        <time>2017-06-28T08:01:16Z</time>
      </trkpt>
      <trkpt lat="45.92473" lon="4.73655">
        <ele>174</ele>
        <time>2017-06-28T08:01:18Z</time>
      </trkpt>
      <trkpt lat="45.92474" lon="4.7365">
        <ele>174</ele>
        <time>2017-06-28T08:01:19Z</time>
      </trkpt>
      <trkpt lat="45.92478" lon="4.73642">
        <ele>174</ele>
        <time>2017-06-28T08:01:21Z</time>
      </trkpt>
      <trkpt lat="45.9248" lon="4.7364">
        <ele>174</ele>
        <time>2017-06-28T08:01:22Z</time>
      </trkpt>
      <trkpt lat="45.92488" lon="4.73639">
        <ele>174</ele>
        <time>2017-06-28T08:01:24Z</time>
      </trkpt>
      <trkpt lat="45.92492" lon="4.73639">
        <ele>174</ele>
        <time>2017-06-28T08:01:25Z</time>
      </trkpt>
      <trkpt lat="45.925" lon="4.73639">
        <ele>174</ele>
        <time>2017-06-28T08:01:27Z</time>
      </trkpt>
      <trkpt lat="45.92505" lon="4.73639">
        <ele>174</ele>
        <time>2017-06-28T08:01:28Z</time>
      </trkpt>
      <trkpt lat="45.9251" lon="4.73638">
        <ele>174</ele>
        <time>2017-06-28T08:01:29Z</time>
      </trkpt>
      <trkpt lat="45.92514" lon="4.73639">
        <ele>173</ele>
        <time>2017-06-28T08:01:30Z</time>
      </trkpt>
      <trkpt lat="45.92519" lon="4.73639">
        <ele>173</ele>
        <time>2017-06-28T08:01:31Z</time>
      </trkpt>
      <trkpt lat="45.92524" lon="4.73639">
        <ele>173</ele>
        <time>2017-06-28T08:01:32Z</time>
      </trkpt>
      <trkpt lat="45.92528" lon="4.73639">
        <ele>173</ele>
        <time>2017-06-28T08:01:33Z</time>
      </trkpt>
      <trkpt lat="45.92533" lon="4.73638">
        <ele>173</ele>
        <time>2017-06-28T08:01:34Z</time>
      </trkpt>
      <trkpt lat="45.92538" lon="4.73637">
        <ele>173</ele>
        <time>2017-06-28T08:01:35Z</time>
      </trkpt>
      <trkpt lat="45.92543" lon="4.73636">
        <ele>173</ele>
        <time>2017-06-28T08:01:36Z</time>
      </trkpt>
      <trkpt lat="45.92547" lon="4.73636">
        <ele>173</ele>
        <time>2017-06-28T08:01:37Z</time>
      </trkpt>
      <trkpt lat="45.92552" lon="4.73634">
        <ele>173</ele>
        <time>2017-06-28T08:01:38Z</time>
      </trkpt>
      <trkpt lat="45.92556" lon="4.73634">
        <ele>173</ele>
        <time>2017-06-28T08:01:39Z</time>
      </trkpt>
      <trkpt lat="45.92561" lon="4.73633">
        <ele>173</ele>
        <time>2017-06-28T08:01:40Z</time>
      </trkpt>
      <trkpt lat="45.92566" lon="4.73631">
        <ele>173</ele>
        <time>2017-06-28T08:01:41Z</time>
      </trkpt>
      <trkpt lat="45.9257" lon="4.7363">
        <ele>173</ele>
        <time>2017-06-28T08:01:42Z</time>
      </trkpt>
      <trkpt lat="45.92575" lon="4.73628">
        <ele>173</ele>
        <time>2017-06-28T08:01:43Z</time>
      </trkpt>
      <trkpt lat="45.9258" lon="4.73628">
        <ele>173</ele>
        <time>2017-06-28T08:01:44Z</time>
      </trkpt>
      <trkpt lat="45.92585" lon="4.73628">
        <ele>172</ele>
        <time>2017-06-28T08:01:45Z</time>
      </trkpt>
      <trkpt lat="45.9259" lon="4.73628">
        <ele>172</ele>
        <time>2017-06-28T08:01:46Z</time>
      </trkpt>
      <trkpt lat="45.92595" lon="4.73629">
        <ele>172</ele>
        <time>2017-06-28T08:01:47Z</time>
      </trkpt>
      <trkpt lat="45.926" lon="4.73629">
        <ele>172</ele>
        <time>2017-06-28T08:01:48Z</time>
      </trkpt>
      <trkpt lat="45.92605" lon="4.7363">
        <ele>173</ele>
        <time>2017-06-28T08:01:49Z</time>
      </trkpt>
      <trkpt lat="45.92611" lon="4.73632">
        <ele>173</ele>
        <time>2017-06-28T08:01:50Z</time>
      </trkpt>
      <trkpt lat="45.92616" lon="4.73635">
        <ele>173</ele>
        <time>2017-06-28T08:01:51Z</time>
      </trkpt>
      <trkpt lat="45.9262" lon="4.73639">
        <ele>173</ele>
        <time>2017-06-28T08:01:52Z</time>
      </trkpt>
      <trkpt lat="45.92624" lon="4.73644">
        <ele>173</ele>
        <time>2017-06-28T08:01:53Z</time>
      </trkpt>
      <trkpt lat="45.92627" lon="4.73649">
        <ele>173</ele>
        <time>2017-06-28T08:01:54Z</time>
      </trkpt>
      <trkpt lat="45.92629" lon="4.73654">
        <ele>173</ele>
        <time>2017-06-28T08:01:55Z</time>
      </trkpt>
      <trkpt lat="45.92632" lon="4.7366">
        <ele>173</ele>
        <time>2017-06-28T08:01:56Z</time>
      </trkpt>
      <trkpt lat="45.92635" lon="4.73667">
        <ele>173</ele>
        <time>2017-06-28T08:01:57Z</time>
      </trkpt>
      <trkpt lat="45.92638" lon="4.73673">
        <ele>173</ele>
        <time>2017-06-28T08:01:58Z</time>
      </trkpt>
      <trkpt lat="45.92641" lon="4.7368">
        <ele>173</ele>
        <time>2017-06-28T08:01:59Z</time>
      </trkpt>
      <trkpt lat="45.92645" lon="4.73686">
        <ele>173</ele>
        <time>2017-06-28T08:02:00Z</time>
      </trkpt>
      <trkpt lat="45.9265" lon="4.73692">
        <ele>173</ele>
        <time>2017-06-28T08:02:01Z</time>
      </trkpt>
      <trkpt lat="45.92654" lon="4.73696">
        <ele>173</ele>
        <time>2017-06-28T08:02:02Z</time>
      </trkpt>
      <trkpt lat="45.92659" lon="4.737">
        <ele>173</ele>
        <time>2017-06-28T08:02:03Z</time>
      </trkpt>
      <trkpt lat="45.92664" lon="4.73704">
        <ele>173</ele>
        <time>2017-06-28T08:02:04Z</time>
      </trkpt>
      <trkpt lat="45.92669" lon="4.73706">
        <ele>174</ele>
        <time>2017-06-28T08:02:05Z</time>
      </trkpt>
      <trkpt lat="45.92674" lon="4.73709">
        <ele>174</ele>
        <time>2017-06-28T08:02:06Z</time>
      </trkpt>
      <trkpt lat="45.92679" lon="4.73711">
        <ele>173</ele>
        <time>2017-06-28T08:02:07Z</time>
      </trkpt>
      <trkpt lat="45.92685" lon="4.73713">
        <ele>173</ele>
        <time>2017-06-28T08:02:08Z</time>
      </trkpt>
      <trkpt lat="45.92689" lon="4.73715">
        <ele>173</ele>
        <time>2017-06-28T08:02:09Z</time>
      </trkpt>
      <trkpt lat="45.92694" lon="4.73716">
        <ele>173</ele>
        <time>2017-06-28T08:02:10Z</time>
      </trkpt>
      <trkpt lat="45.927" lon="4.73717">
        <ele>173</ele>
        <time>2017-06-28T08:02:11Z</time>
      </trkpt>
      <trkpt lat="45.92706" lon="4.73719">
        <ele>173</ele>
        <time>2017-06-28T08:02:12Z</time>
      </trkpt>
      <trkpt lat="45.92711" lon="4.73719">
        <ele>173</ele>
        <time>2017-06-28T08:02:13Z</time>
      </trkpt>
      <trkpt lat="45.92716" lon="4.73719">
        <ele>173</ele>
        <time>2017-06-28T08:02:14Z</time>
      </trkpt>
      <trkpt lat="45.92721" lon="4.7372">
        <ele>173</ele>
        <time>2017-06-28T08:02:15Z</time>
      </trkpt>
      <trkpt lat="45.92726" lon="4.73721">
        <ele>173</ele>
        <time>2017-06-28T08:02:16Z</time>
      </trkpt>
      <trkpt lat="45.92731" lon="4.73723">
        <ele>173</ele>
        <time>2017-06-28T08:02:17Z</time>
      </trkpt>
      <trkpt lat="45.92737" lon="4.73725">
        <ele>173</ele>
        <time>2017-06-28T08:02:18Z</time>
      </trkpt>
      <trkpt lat="45.92742" lon="4.73727">
        <ele>173</ele>
        <time>2017-06-28T08:02:19Z</time>
      </trkpt>
      <trkpt lat="45.92747" lon="4.73729">
        <ele>173</ele>
        <time>2017-06-28T08:02:20Z</time>
      </trkpt>
      <trkpt lat="45.92752" lon="4.73731">
        <ele>172</ele>
        <time>2017-06-28T08:02:21Z</time>
      </trkpt>
      <trkpt lat="45.92757" lon="4.73733">
        <ele>172</ele>
        <time>2017-06-28T08:02:22Z</time>
      </trkpt>
      <trkpt lat="45.92761" lon="4.73735">
        <ele>172</ele>
        <time>2017-06-28T08:02:23Z</time>
      </trkpt>
      <trkpt lat="45.92766" lon="4.73737">
        <ele>172</ele>
        <time>2017-06-28T08:02:24Z</time>
      </trkpt>
      <trkpt lat="45.92774" lon="4.73741">
        <ele>172</ele>
        <time>2017-06-28T08:02:26Z</time>
      </trkpt>
      <trkpt lat="45.92776" lon="4.73743">
        <ele>172</ele>
        <time>2017-06-28T08:02:27Z</time>
      </trkpt>
      <trkpt lat="45.92781" lon="4.7375">
        <ele>172</ele>
        <time>2017-06-28T08:02:29Z</time>
      </trkpt>
      <trkpt lat="45.92783" lon="4.73752">
        <ele>173</ele>
        <time>2017-06-28T08:02:30Z</time>
      </trkpt>
      <trkpt lat="45.9279" lon="4.73759">
        <ele>173</ele>
        <time>2017-06-28T08:02:32Z</time>
      </trkpt>
      <trkpt lat="45.92794" lon="4.73761">
        <ele>173</ele>
        <time>2017-06-28T08:02:33Z</time>
      </trkpt>
      <trkpt lat="45.92798" lon="4.73764">
        <ele>173</ele>
        <time>2017-06-28T08:02:34Z</time>
      </trkpt>
      <trkpt lat="45.92803" lon="4.73768">
        <ele>173</ele>
        <time>2017-06-28T08:02:35Z</time>
      </trkpt>
      <trkpt lat="45.92808" lon="4.73771">
        <ele>173</ele>
        <time>2017-06-28T08:02:36Z</time>
      </trkpt>
      <trkpt lat="45.92812" lon="4.73774">
        <ele>173</ele>
        <time>2017-06-28T08:02:37Z</time>
      </trkpt>
      <trkpt lat="45.92817" lon="4.73778">
        <ele>173</ele>
        <time>2017-06-28T08:02:38Z</time>
      </trkpt>
      <trkpt lat="45.92823" lon="4.73782">
        <ele>173</ele>
        <time>2017-06-28T08:02:39Z</time>
      </trkpt>
      <trkpt lat="45.92828" lon="4.73786">
        <ele>173</ele>
        <time>2017-06-28T08:02:40Z</time>
      </trkpt>
      <trkpt lat="45.92833" lon="4.7379">
        <ele>173</ele>
        <time>2017-06-28T08:02:41Z</time>
      </trkpt>
      <trkpt lat="45.92839" lon="4.73794">
        <ele>173</ele>
        <time>2017-06-28T08:02:42Z</time>
      </trkpt>
      <trkpt lat="45.92844" lon="4.73797">
        <ele>173</ele>
        <time>2017-06-28T08:02:43Z</time>
      </trkpt>
      <trkpt lat="45.92849" lon="4.73803">
        <ele>173</ele>
        <time>2017-06-28T08:02:44Z</time>
      </trkpt>
      <trkpt lat="45.92853" lon="4.7381">
        <ele>173</ele>
        <time>2017-06-28T08:02:45Z</time>
      </trkpt>
      <trkpt lat="45.92855" lon="4.73816">
        <ele>173</ele>
        <time>2017-06-28T08:02:46Z</time>
      </trkpt>
      <trkpt lat="45.92857" lon="4.73824">
        <ele>173</ele>
        <time>2017-06-28T08:02:47Z</time>
      </trkpt>
      <trkpt lat="45.9286" lon="4.73831">
        <ele>173</ele>
        <time>2017-06-28T08:02:48Z</time>
      </trkpt>
      <trkpt lat="45.92862" lon="4.73838">
        <ele>173</ele>
        <time>2017-06-28T08:02:49Z</time>
      </trkpt>
      <trkpt lat="45.92864" lon="4.73846">
        <ele>173</ele>
        <time>2017-06-28T08:02:50Z</time>
      </trkpt>
      <trkpt lat="45.92866" lon="4.73853">
        <ele>173</ele>
        <time>2017-06-28T08:02:51Z</time>
      </trkpt>
      <trkpt lat="45.92868" lon="4.73861">
        <ele>173</ele>
        <time>2017-06-28T08:02:52Z</time>
      </trkpt>
      <trkpt lat="45.9287" lon="4.73867">
        <ele>173</ele>
        <time>2017-06-28T08:02:53Z</time>
      </trkpt>
      <trkpt lat="45.92871" lon="4.73874">
        <ele>173</ele>
        <time>2017-06-28T08:02:54Z</time>
      </trkpt>
      <trkpt lat="45.92872" lon="4.73882">
        <ele>173</ele>
        <time>2017-06-28T08:02:55Z</time>
      </trkpt>
      <trkpt lat="45.92875" lon="4.73889">
        <ele>173</ele>
        <time>2017-06-28T08:02:56Z</time>
      </trkpt>
      <trkpt lat="45.92878" lon="4.73897">
        <ele>173</ele>
        <time>2017-06-28T08:02:57Z</time>
      </trkpt>
      <trkpt lat="45.92879" lon="4.73906">
        <ele>173</ele>
        <time>2017-06-28T08:02:58Z</time>
      </trkpt>
      <trkpt lat="45.92879" lon="4.73915">
        <ele>173</ele>
        <time>2017-06-28T08:02:59Z</time>
      </trkpt>
      <trkpt lat="45.9288" lon="4.73923">
        <ele>172</ele>
        <time>2017-06-28T08:03:00Z</time>
      </trkpt>
      <trkpt lat="45.9288" lon="4.73932">
        <ele>172</ele>
        <time>2017-06-28T08:03:01Z</time>
      </trkpt>
      <trkpt lat="45.92881" lon="4.73941">
        <ele>172</ele>
        <time>2017-06-28T08:03:02Z</time>
      </trkpt>
      <trkpt lat="45.92881" lon="4.73949">
        <ele>172</ele>
        <time>2017-06-28T08:03:03Z</time>
      </trkpt>
      <trkpt lat="45.92881" lon="4.73958">
        <ele>172</ele>
        <time>2017-06-28T08:03:04Z</time>
      </trkpt>
      <trkpt lat="45.92881" lon="4.73966">
        <ele>172</ele>
        <time>2017-06-28T08:03:05Z</time>
      </trkpt>
      <trkpt lat="45.9288" lon="4.73974">
        <ele>172</ele>
        <time>2017-06-28T08:03:06Z</time>
      </trkpt>
      <trkpt lat="45.9288" lon="4.73983">
        <ele>172</ele>
        <time>2017-06-28T08:03:07Z</time>
      </trkpt>
      <trkpt lat="45.92878" lon="4.73991">
        <ele>172</ele>
        <time>2017-06-28T08:03:08Z</time>
      </trkpt>
      <trkpt lat="45.92876" lon="4.73998">
        <ele>172</ele>
        <time>2017-06-28T08:03:09Z</time>
      </trkpt>
      <trkpt lat="45.92875" lon="4.74006">
        <ele>172</ele>
        <time>2017-06-28T08:03:10Z</time>
      </trkpt>
      <trkpt lat="45.92873" lon="4.74013">
        <ele>172</ele>
        <time>2017-06-28T08:03:11Z</time>
      </trkpt>
      <trkpt lat="45.92872" lon="4.74021">
        <ele>172</ele>
        <time>2017-06-28T08:03:12Z</time>
      </trkpt>
      <trkpt lat="45.92871" lon="4.74028">
        <ele>172</ele>
        <time>2017-06-28T08:03:13Z</time>
      </trkpt>
      <trkpt lat="45.92869" lon="4.74036">
        <ele>172</ele>
        <time>2017-06-28T08:03:14Z</time>
      </trkpt>
      <trkpt lat="45.92866" lon="4.74043">
        <ele>172</ele>
        <time>2017-06-28T08:03:15Z</time>
      </trkpt>
      <trkpt lat="45.92863" lon="4.74049">
        <ele>172</ele>
        <time>2017-06-28T08:03:16Z</time>
      </trkpt>
      <trkpt lat="45.92859" lon="4.74055">
        <ele>172</ele>
        <time>2017-06-28T08:03:17Z</time>
      </trkpt>
      <trkpt lat="45.92854" lon="4.74061">
        <ele>172</ele>
        <time>2017-06-28T08:03:18Z</time>
      </trkpt>
      <trkpt lat="45.92849" lon="4.74067">
        <ele>172</ele>
        <time>2017-06-28T08:03:19Z</time>
      </trkpt>
      <trkpt lat="45.92844" lon="4.74072">
        <ele>172</ele>
        <time>2017-06-28T08:03:20Z</time>
      </trkpt>
      <trkpt lat="45.9284" lon="4.74077">
        <ele>171</ele>
        <time>2017-06-28T08:03:21Z</time>
      </trkpt>
      <trkpt lat="45.92836" lon="4.74083">
        <ele>171</ele>
        <time>2017-06-28T08:03:22Z</time>
      </trkpt>
      <trkpt lat="45.92832" lon="4.74088">
        <ele>171</ele>
        <time>2017-06-28T08:03:23Z</time>
      </trkpt>
      <trkpt lat="45.92828" lon="4.74093">
        <ele>171</ele>
        <time>2017-06-28T08:03:24Z</time>
      </trkpt>
      <trkpt lat="45.92823" lon="4.74098">
        <ele>171</ele>
        <time>2017-06-28T08:03:25Z</time>
      </trkpt>
      <trkpt lat="45.92819" lon="4.74104">
        <ele>171</ele>
        <time>2017-06-28T08:03:26Z</time>
      </trkpt>
      <trkpt lat="45.92814" lon="4.74109">
        <ele>172</ele>
        <time>2017-06-28T08:03:27Z</time>
      </trkpt>
      <trkpt lat="45.9281" lon="4.74114">
        <ele>172</ele>
        <time>2017-06-28T08:03:28Z</time>
      </trkpt>
      <trkpt lat="45.92805" lon="4.74119">
        <ele>172</ele>
        <time>2017-06-28T08:03:29Z</time>
      </trkpt>
      <trkpt lat="45.92801" lon="4.74124">
        <ele>172</ele>
        <time>2017-06-28T08:03:30Z</time>
      </trkpt>
      <trkpt lat="45.92796" lon="4.74129">
        <ele>172</ele>
        <time>2017-06-28T08:03:31Z</time>
      </trkpt>
      <trkpt lat="45.92792" lon="4.74134">
        <ele>172</ele>
        <time>2017-06-28T08:03:32Z</time>
      </trkpt>
      <trkpt lat="45.92787" lon="4.74138">
        <ele>172</ele>
        <time>2017-06-28T08:03:33Z</time>
      </trkpt>
      <trkpt lat="45.92783" lon="4.74143">
        <ele>172</ele>
        <time>2017-06-28T08:03:34Z</time>
      </trkpt>
      <trkpt lat="45.92778" lon="4.74147">
        <ele>172</ele>
        <time>2017-06-28T08:03:35Z</time>
      </trkpt>
      <trkpt lat="45.92773" lon="4.74152">
        <ele>172</ele>
        <time>2017-06-28T08:03:36Z</time>
      </trkpt>
      <trkpt lat="45.92769" lon="4.74157">
        <ele>172</ele>
        <time>2017-06-28T08:03:37Z</time>
      </trkpt>
      <trkpt lat="45.92764" lon="4.74163">
        <ele>172</ele>
        <time>2017-06-28T08:03:38Z</time>
      </trkpt>
      <trkpt lat="45.9276" lon="4.74167">
        <ele>172</ele>
        <time>2017-06-28T08:03:39Z</time>
      </trkpt>
      <trkpt lat="45.92755" lon="4.74173">
        <ele>172</ele>
        <time>2017-06-28T08:03:40Z</time>
      </trkpt>
      <trkpt lat="45.9275" lon="4.74178">
        <ele>172</ele>
        <time>2017-06-28T08:03:41Z</time>
      </trkpt>
      <trkpt lat="45.92746" lon="4.74183">
        <ele>172</ele>
        <time>2017-06-28T08:03:42Z</time>
      </trkpt>
      <trkpt lat="45.92742" lon="4.74188">
        <ele>172</ele>
        <time>2017-06-28T08:03:43Z</time>
      </trkpt>
      <trkpt lat="45.92738" lon="4.74193">
        <ele>171</ele>
        <time>2017-06-28T08:03:44Z</time>
      </trkpt>
      <trkpt lat="45.92735" lon="4.74198">
        <ele>171</ele>
        <time>2017-06-28T08:03:45Z</time>
      </trkpt>
      <trkpt lat="45.92731" lon="4.74203">
        <ele>171</ele>
        <time>2017-06-28T08:03:46Z</time>
      </trkpt>
      <trkpt lat="45.92727" lon="4.74208">
        <ele>171</ele>
        <time>2017-06-28T08:03:47Z</time>
      </trkpt>
      <trkpt lat="45.92724" lon="4.74214">
        <ele>171</ele>
        <time>2017-06-28T08:03:48Z</time>
      </trkpt>
      <trkpt lat="45.9272" lon="4.7422">
        <ele>171</ele>
        <time>2017-06-28T08:03:49Z</time>
      </trkpt>
      <trkpt lat="45.92716" lon="4.74226">
        <ele>171</ele>
        <time>2017-06-28T08:03:50Z</time>
      </trkpt>
      <trkpt lat="45.92713" lon="4.74232">
        <ele>171</ele>
        <time>2017-06-28T08:03:51Z</time>
      </trkpt>
      <trkpt lat="45.92709" lon="4.74239">
        <ele>171</ele>
        <time>2017-06-28T08:03:52Z</time>
      </trkpt>
      <trkpt lat="45.92705" lon="4.74245">
        <ele>171</ele>
        <time>2017-06-28T08:03:53Z</time>
      </trkpt>
      <trkpt lat="45.92701" lon="4.74252">
        <ele>171</ele>
        <time>2017-06-28T08:03:54Z</time>
      </trkpt>
      <trkpt lat="45.92697" lon="4.74258">
        <ele>171</ele>
        <time>2017-06-28T08:03:55Z</time>
      </trkpt>
      <trkpt lat="45.92693" lon="4.74264">
        <ele>171</ele>
        <time>2017-06-28T08:03:56Z</time>
      </trkpt>
      <trkpt lat="45.92689" lon="4.74271">
        <ele>171</ele>
        <time>2017-06-28T08:03:57Z</time>
      </trkpt>
      <trkpt lat="45.92685" lon="4.74277">
        <ele>171</ele>
        <time>2017-06-28T08:03:58Z</time>
      </trkpt>
      <trkpt lat="45.92682" lon="4.74283">
        <ele>171</ele>
        <time>2017-06-28T08:03:59Z</time>
      </trkpt>
      <trkpt lat="45.92678" lon="4.74289">
        <ele>171</ele>
        <time>2017-06-28T08:04:00Z</time>
      </trkpt>
      <trkpt lat="45.92675" lon="4.74295">
        <ele>171</ele>
        <time>2017-06-28T08:04:01Z</time>
      </trkpt>
      <trkpt lat="45.92672" lon="4.743">
        <ele>171</ele>
        <time>2017-06-28T08:04:02Z</time>
      </trkpt>
      <trkpt lat="45.92668" lon="4.74306">
        <ele>171</ele>
        <time>2017-06-28T08:04:03Z</time>
      </trkpt>
      <trkpt lat="45.92665" lon="4.74312">
        <ele>171</ele>
        <time>2017-06-28T08:04:04Z</time>
      </trkpt>
      <trkpt lat="45.92661" lon="4.74319">
        <ele>171</ele>
        <time>2017-06-28T08:04:05Z</time>
      </trkpt>
      <trkpt lat="45.92658" lon="4.74325">
        <ele>171</ele>
        <time>2017-06-28T08:04:06Z</time>
      </trkpt>
      <trkpt lat="45.92654" lon="4.74332">
        <ele>171</ele>
        <time>2017-06-28T08:04:07Z</time>
      </trkpt>
      <trkpt lat="45.92651" lon="4.74338">
        <ele>171</ele>
        <time>2017-06-28T08:04:08Z</time>
      </trkpt>
      <trkpt lat="45.92647" lon="4.74345">
        <ele>171</ele>
        <time>2017-06-28T08:04:09Z</time>
      </trkpt>
      <trkpt lat="45.92643" lon="4.74352">
        <ele>171</ele>
        <time>2017-06-28T08:04:10Z</time>
      </trkpt>
      <trkpt lat="45.92639" lon="4.74359">
        <ele>171</ele>
        <time>2017-06-28T08:04:11Z</time>
      </trkpt>
      <trkpt lat="45.92636" lon="4.74365">
        <ele>171</ele>
        <time>2017-06-28T08:04:12Z</time>
      </trkpt>
      <trkpt lat="45.92632" lon="4.74372">
        <ele>171</ele>
        <time>2017-06-28T08:04:13Z</time>
      </trkpt>
      <trkpt lat="45.92628" lon="4.74379">
        <ele>170</ele>
        <time>2017-06-28T08:04:14Z</time>
      </trkpt>
      <trkpt lat="45.92624" lon="4.74385">
        <ele>170</ele>
        <time>2017-06-28T08:04:15Z</time>
      </trkpt>
      <trkpt lat="45.92621" lon="4.74391">
        <ele>170</ele>
        <time>2017-06-28T08:04:16Z</time>
      </trkpt>
      <trkpt lat="45.92617" lon="4.74398">
        <ele>170</ele>
        <time>2017-06-28T08:04:17Z</time>
      </trkpt>
      <trkpt lat="45.92614" lon="4.74405">
        <ele>170</ele>
        <time>2017-06-28T08:04:18Z</time>
      </trkpt>
      <trkpt lat="45.9261" lon="4.74412">
        <ele>170</ele>
        <time>2017-06-28T08:04:19Z</time>
      </trkpt>
      <trkpt lat="45.92606" lon="4.74418">
        <ele>170</ele>
        <time>2017-06-28T08:04:20Z</time>
      </trkpt>
      <trkpt lat="45.92602" lon="4.74426">
        <ele>170</ele>
        <time>2017-06-28T08:04:21Z</time>
      </trkpt>
      <trkpt lat="45.92598" lon="4.74433">
        <ele>170</ele>
        <time>2017-06-28T08:04:22Z</time>
      </trkpt>
      <trkpt lat="45.92594" lon="4.7444">
        <ele>170</ele>
        <time>2017-06-28T08:04:23Z</time>
      </trkpt>
      <trkpt lat="45.9259" lon="4.74448">
        <ele>170</ele>
        <time>2017-06-28T08:04:24Z</time>
      </trkpt>
      <trkpt lat="45.92586" lon="4.74455">
        <ele>170</ele>
        <time>2017-06-28T08:04:25Z</time>
      </trkpt>
      <trkpt lat="45.92582" lon="4.74462">
        <ele>170</ele>
        <time>2017-06-28T08:04:26Z</time>
      </trkpt>
      <trkpt lat="45.92579" lon="4.74469">
        <ele>170</ele>
        <time>2017-06-28T08:04:27Z</time>
      </trkpt>
      <trkpt lat="45.92575" lon="4.74476">
        <ele>170</ele>
        <time>2017-06-28T08:04:28Z</time>
      </trkpt>
      <trkpt lat="45.92572" lon="4.74482">
        <ele>170</ele>
        <time>2017-06-28T08:04:29Z</time>
      </trkpt>
      <trkpt lat="45.92568" lon="4.74488">
        <ele>170</ele>
        <time>2017-06-28T08:04:30Z</time>
      </trkpt>
      <trkpt lat="45.92565" lon="4.74495">
        <ele>170</ele>
        <time>2017-06-28T08:04:31Z</time>
      </trkpt>
      <trkpt lat="45.92561" lon="4.74501">
        <ele>170</ele>
        <time>2017-06-28T08:04:32Z</time>
      </trkpt>
      <trkpt lat="45.92558" lon="4.74508">
        <ele>170</ele>
        <time>2017-06-28T08:04:33Z</time>
      </trkpt>
      <trkpt lat="45.92554" lon="4.74514">
        <ele>170</ele>
        <time>2017-06-28T08:04:34Z</time>
      </trkpt>
      <trkpt lat="45.9255" lon="4.74521">
        <ele>170</ele>
        <time>2017-06-28T08:04:35Z</time>
      </trkpt>
      <trkpt lat="45.92547" lon="4.74528">
        <ele>170</ele>
        <time>2017-06-28T08:04:36Z</time>
      </trkpt>
      <trkpt lat="45.92543" lon="4.74535">
        <ele>170</ele>
        <time>2017-06-28T08:04:37Z</time>
      </trkpt>
      <trkpt lat="45.92539" lon="4.74541">
        <ele>171</ele>
        <time>2017-06-28T08:04:38Z</time>
      </trkpt>
      <trkpt lat="45.92535" lon="4.74548">
        <ele>171</ele>
        <time>2017-06-28T08:04:39Z</time>
      </trkpt>
      <trkpt lat="45.9253" lon="4.74555">
        <ele>171</ele>
        <time>2017-06-28T08:04:40Z</time>
      </trkpt>
      <trkpt lat="45.92526" lon="4.74561">
        <ele>171</ele>
        <time>2017-06-28T08:04:41Z</time>
      </trkpt>
      <trkpt lat="45.92521" lon="4.74567">
        <ele>171</ele>
        <time>2017-06-28T08:04:42Z</time>
      </trkpt>
      <trkpt lat="45.92516" lon="4.74573">
        <ele>171</ele>
        <time>2017-06-28T08:04:43Z</time>
      </trkpt>
      <trkpt lat="45.92511" lon="4.74578">
        <ele>171</ele>
        <time>2017-06-28T08:04:44Z</time>
      </trkpt>
      <trkpt lat="45.92506" lon="4.74583">
        <ele>171</ele>
        <time>2017-06-28T08:04:45Z</time>
      </trkpt>
      <trkpt lat="45.92502" lon="4.74589">
        <ele>171</ele>
        <time>2017-06-28T08:04:46Z</time>
      </trkpt>
      <trkpt lat="45.92498" lon="4.74594">
        <ele>171</ele>
        <time>2017-06-28T08:04:47Z</time>
      </trkpt>
      <trkpt lat="45.92493" lon="4.74599">
        <ele>171</ele>
        <time>2017-06-28T08:04:48Z</time>
      </trkpt>
      <trkpt lat="45.92489" lon="4.74604">
        <ele>171</ele>
        <time>2017-06-28T08:04:49Z</time>
      </trkpt>
      <trkpt lat="45.92485" lon="4.7461">
        <ele>171</ele>
        <time>2017-06-28T08:04:50Z</time>
      </trkpt>
      <trkpt lat="45.92481" lon="4.74615">
        <ele>171</ele>
        <time>2017-06-28T08:04:51Z</time>
      </trkpt>
      <trkpt lat="45.92477" lon="4.74621">
        <ele>171</ele>
        <time>2017-06-28T08:04:52Z</time>
      </trkpt>
      <trkpt lat="45.92473" lon="4.74627">
        <ele>171</ele>
        <time>2017-06-28T08:04:53Z</time>
      </trkpt>
      <trkpt lat="45.92469" lon="4.74633">
        <ele>171</ele>
        <time>2017-06-28T08:04:54Z</time>
      </trkpt>
      <trkpt lat="45.92465" lon="4.74639">
        <ele>171</ele>
        <time>2017-06-28T08:04:55Z</time>
      </trkpt>
      <trkpt lat="45.92462" lon="4.74646">
        <ele>171</ele>
        <time>2017-06-28T08:04:56Z</time>
      </trkpt>
      <trkpt lat="45.92458" lon="4.74653">
        <ele>171</ele>
        <time>2017-06-28T08:04:57Z</time>
      </trkpt>
      <trkpt lat="45.92454" lon="4.74659">
        <ele>171</ele>
        <time>2017-06-28T08:04:58Z</time>
      </trkpt>
      <trkpt lat="45.92451" lon="4.74665">
        <ele>171</ele>
        <time>2017-06-28T08:04:59Z</time>
      </trkpt>
      <trkpt lat="45.92448" lon="4.74671">
        <ele>171</ele>
        <time>2017-06-28T08:05:00Z</time>
      </trkpt>
      <trkpt lat="45.92445" lon="4.74677">
        <ele>171</ele>
        <time>2017-06-28T08:05:01Z</time>
      </trkpt>
      <trkpt lat="45.92441" lon="4.74683">
        <ele>171</ele>
        <time>2017-06-28T08:05:02Z</time>
      </trkpt>
      <trkpt lat="45.92438" lon="4.74689">
        <ele>171</ele>
        <time>2017-06-28T08:05:03Z</time>
      </trkpt>
      <trkpt lat="45.92436" lon="4.74696">
        <ele>171</ele>
        <time>2017-06-28T08:05:04Z</time>
      </trkpt>
      <trkpt lat="45.92433" lon="4.74703">
        <ele>171</ele>
        <time>2017-06-28T08:05:05Z</time>
      </trkpt>
      <trkpt lat="45.9243" lon="4.7471">
        <ele>171</ele>
        <time>2017-06-28T08:05:06Z</time>
      </trkpt>
      <trkpt lat="45.92427" lon="4.74718">
        <ele>171</ele>
        <time>2017-06-28T08:05:07Z</time>
      </trkpt>
      <trkpt lat="45.92424" lon="4.74726">
        <ele>171</ele>
        <time>2017-06-28T08:05:08Z</time>
      </trkpt>
      <trkpt lat="45.92421" lon="4.74734">
        <ele>171</ele>
        <time>2017-06-28T08:05:09Z</time>
      </trkpt>
      <trkpt lat="45.92419" lon="4.74743">
        <ele>172</ele>
        <time>2017-06-28T08:05:10Z</time>
      </trkpt>
      <trkpt lat="45.92416" lon="4.74751">
        <ele>172</ele>
        <time>2017-06-28T08:05:11Z</time>
      </trkpt>
      <trkpt lat="45.92414" lon="4.74759">
        <ele>172</ele>
        <time>2017-06-28T08:05:12Z</time>
      </trkpt>
      <trkpt lat="45.92411" lon="4.74768">
        <ele>172</ele>
        <time>2017-06-28T08:05:13Z</time>
      </trkpt>
      <trkpt lat="45.92409" lon="4.74776">
        <ele>171</ele>
        <time>2017-06-28T08:05:14Z</time>
      </trkpt>
      <trkpt lat="45.92407" lon="4.74785">
        <ele>171</ele>
        <time>2017-06-28T08:05:15Z</time>
      </trkpt>
      <trkpt lat="45.92405" lon="4.74793">
        <ele>171</ele>
        <time>2017-06-28T08:05:16Z</time>
      </trkpt>
      <trkpt lat="45.92403" lon="4.74801">
        <ele>171</ele>
        <time>2017-06-28T08:05:17Z</time>
      </trkpt>
      <trkpt lat="45.92402" lon="4.7481">
        <ele>171</ele>
        <time>2017-06-28T08:05:18Z</time>
      </trkpt>
      <trkpt lat="45.924" lon="4.74819">
        <ele>171</ele>
        <time>2017-06-28T08:05:19Z</time>
      </trkpt>
      <trkpt lat="45.92398" lon="4.74828">
        <ele>171</ele>
        <time>2017-06-28T08:05:20Z</time>
      </trkpt>
      <trkpt lat="45.92396" lon="4.74837">
        <ele>171</ele>
        <time>2017-06-28T08:05:21Z</time>
      </trkpt>
      <trkpt lat="45.92393" lon="4.74846">
        <ele>171</ele>
        <time>2017-06-28T08:05:22Z</time>
      </trkpt>
      <trkpt lat="45.92391" lon="4.74855">
        <ele>171</ele>
        <time>2017-06-28T08:05:23Z</time>
      </trkpt>
      <trkpt lat="45.92389" lon="4.74864">
        <ele>171</ele>
        <time>2017-06-28T08:05:24Z</time>
      </trkpt>
      <trkpt lat="45.92386" lon="4.74873">
        <ele>171</ele>
        <time>2017-06-28T08:05:25Z</time>
      </trkpt>
      <trkpt lat="45.92383" lon="4.74881">
        <ele>171</ele>
        <time>2017-06-28T08:05:26Z</time>
      </trkpt>
      <trkpt lat="45.9238" lon="4.74889">
        <ele>171</ele>
        <time>2017-06-28T08:05:27Z</time>
      </trkpt>
      <trkpt lat="45.92377" lon="4.74897">
        <ele>171</ele>
        <time>2017-06-28T08:05:28Z</time>
      </trkpt>
      <trkpt lat="45.92374" lon="4.74904">
        <ele>171</ele>
        <time>2017-06-28T08:05:29Z</time>
      </trkpt>
      <trkpt lat="45.92371" lon="4.74911">
        <ele>171</ele>
        <time>2017-06-28T08:05:30Z</time>
      </trkpt>
      <trkpt lat="45.92369" lon="4.74918">
        <ele>170</ele>
        <time>2017-06-28T08:05:31Z</time>
      </trkpt>
      <trkpt lat="45.92366" lon="4.74925">
        <ele>170</ele>
        <time>2017-06-28T08:05:32Z</time>
      </trkpt>
      <trkpt lat="45.92364" lon="4.74932">
        <ele>170</ele>
        <time>2017-06-28T08:05:33Z</time>
      </trkpt>
      <trkpt lat="45.92361" lon="4.74938">
        <ele>170</ele>
        <time>2017-06-28T08:05:34Z</time>
      </trkpt>
      <trkpt lat="45.92358" lon="4.74945">
        <ele>170</ele>
        <time>2017-06-28T08:05:35Z</time>
      </trkpt>
      <trkpt lat="45.92355" lon="4.74953">
        <ele>170</ele>
        <time>2017-06-28T08:05:36Z</time>
      </trkpt>
      <trkpt lat="45.92352" lon="4.7496">
        <ele>170</ele>
        <time>2017-06-28T08:05:37Z</time>
      </trkpt>
      <trkpt lat="45.92349" lon="4.74968">
        <ele>170</ele>
        <time>2017-06-28T08:05:38Z</time>
      </trkpt>
      <trkpt lat="45.92346" lon="4.74976">
        <ele>170</ele>
        <time>2017-06-28T08:05:39Z</time>
      </trkpt>
      <trkpt lat="45.92343" lon="4.74984">
        <ele>170</ele>
        <time>2017-06-28T08:05:40Z</time>
      </trkpt>
      <trkpt lat="45.92339" lon="4.74992">
        <ele>170</ele>
        <time>2017-06-28T08:05:41Z</time>
      </trkpt>
      <trkpt lat="45.92336" lon="4.75">
        <ele>170</ele>
        <time>2017-06-28T08:05:42Z</time>
      </trkpt>
      <trkpt lat="45.92333" lon="4.75009">
        <ele>171</ele>
        <time>2017-06-28T08:05:43Z</time>
      </trkpt>
      <trkpt lat="45.92329" lon="4.75017">
        <ele>171</ele>
        <time>2017-06-28T08:05:44Z</time>
      </trkpt>
      <trkpt lat="45.92326" lon="4.75025">
        <ele>171</ele>
        <time>2017-06-28T08:05:45Z</time>
      </trkpt>
      <trkpt lat="45.92322" lon="4.75032">
        <ele>171</ele>
        <time>2017-06-28T08:05:46Z</time>
      </trkpt>
      <trkpt lat="45.92318" lon="4.75038">
        <ele>171</ele>
        <time>2017-06-28T08:05:47Z</time>
      </trkpt>
      <trkpt lat="45.92315" lon="4.75045">
        <ele>172</ele>
        <time>2017-06-28T08:05:48Z</time>
      </trkpt>
      <trkpt lat="45.92311" lon="4.75052">
        <ele>172</ele>
        <time>2017-06-28T08:05:49Z</time>
      </trkpt>
      <trkpt lat="45.92307" lon="4.75058">
        <ele>172</ele>
        <time>2017-06-28T08:05:50Z</time>
      </trkpt>
      <trkpt lat="45.92302" lon="4.75064">
        <ele>172</ele>
        <time>2017-06-28T08:05:51Z</time>
      </trkpt>
      <trkpt lat="45.92298" lon="4.7507">
        <ele>172</ele>
        <time>2017-06-28T08:05:52Z</time>
      </trkpt>
      <trkpt lat="45.92293" lon="4.75075">
        <ele>172</ele>
        <time>2017-06-28T08:05:53Z</time>
      </trkpt>
      <trkpt lat="45.92288" lon="4.7508">
        <ele>172</ele>
        <time>2017-06-28T08:05:54Z</time>
      </trkpt>
      <trkpt lat="45.92283" lon="4.75085">
        <ele>173</ele>
        <time>2017-06-28T08:05:55Z</time>
      </trkpt>
      <trkpt lat="45.92278" lon="4.7509">
        <ele>173</ele>
        <time>2017-06-28T08:05:56Z</time>
      </trkpt>
      <trkpt lat="45.92273" lon="4.75095">
        <ele>173</ele>
        <time>2017-06-28T08:05:57Z</time>
      </trkpt>
      <trkpt lat="45.92268" lon="4.751">
        <ele>173</ele>
        <time>2017-06-28T08:05:58Z</time>
      </trkpt>
      <trkpt lat="45.92263" lon="4.75106">
        <ele>174</ele>
        <time>2017-06-28T08:05:59Z</time>
      </trkpt>
      <trkpt lat="45.92259" lon="4.75112">
        <ele>174</ele>
        <time>2017-06-28T08:06:00Z</time>
      </trkpt>
      <trkpt lat="45.92254" lon="4.75117">
        <ele>174</ele>
        <time>2017-06-28T08:06:01Z</time>
      </trkpt>
      <trkpt lat="45.92249" lon="4.75123">
        <ele>174</ele>
        <time>2017-06-28T08:06:02Z</time>
      </trkpt>
      <trkpt lat="45.92244" lon="4.75128">
        <ele>174</ele>
        <time>2017-06-28T08:06:03Z</time>
      </trkpt>
      <trkpt lat="45.9224" lon="4.75133">
        <ele>174</ele>
        <time>2017-06-28T08:06:04Z</time>
      </trkpt>
      <trkpt lat="45.92236" lon="4.75139">
        <ele>174</ele>
        <time>2017-06-28T08:06:05Z</time>
      </trkpt>
      <trkpt lat="45.92232" lon="4.75145">
        <ele>174</ele>
        <time>2017-06-28T08:06:06Z</time>
      </trkpt>
      <trkpt lat="45.92229" lon="4.75151">
        <ele>174</ele>
        <time>2017-06-28T08:06:07Z</time>
      </trkpt>
      <trkpt lat="45.92226" lon="4.75157">
        <ele>174</ele>
        <time>2017-06-28T08:06:08Z</time>
      </trkpt>
      <trkpt lat="45.92222" lon="4.75164">
        <ele>174</ele>
        <time>2017-06-28T08:06:09Z</time>
      </trkpt>
      <trkpt lat="45.9222" lon="4.75171">
        <ele>175</ele>
        <time>2017-06-28T08:06:10Z</time>
      </trkpt>
      <trkpt lat="45.92217" lon="4.75177">
        <ele>175</ele>
        <time>2017-06-28T08:06:11Z</time>
      </trkpt>
      <trkpt lat="45.92215" lon="4.75184">
        <ele>175</ele>
        <time>2017-06-28T08:06:12Z</time>
      </trkpt>
      <trkpt lat="45.92214" lon="4.75192">
        <ele>175</ele>
        <time>2017-06-28T08:06:13Z</time>
      </trkpt>
      <trkpt lat="45.92212" lon="4.75199">
        <ele>175</ele>
        <time>2017-06-28T08:06:14Z</time>
      </trkpt>
      <trkpt lat="45.92211" lon="4.75206">
        <ele>175</ele>
        <time>2017-06-28T08:06:15Z</time>
      </trkpt>
      <trkpt lat="45.9221" lon="4.75214">
        <ele>175</ele>
        <time>2017-06-28T08:06:16Z</time>
      </trkpt>
      <trkpt lat="45.92209" lon="4.75221">
        <ele>175</ele>
        <time>2017-06-28T08:06:17Z</time>
      </trkpt>
      <trkpt lat="45.92209" lon="4.75229">
        <ele>175</ele>
        <time>2017-06-28T08:06:18Z</time>
      </trkpt>
      <trkpt lat="45.92209" lon="4.75237">
        <ele>175</ele>
        <time>2017-06-28T08:06:19Z</time>
      </trkpt>
      <trkpt lat="45.92209" lon="4.75246">
        <ele>175</ele>
        <time>2017-06-28T08:06:20Z</time>
      </trkpt>
      <trkpt lat="45.92209" lon="4.75254">
        <ele>175</ele>
        <time>2017-06-28T08:06:21Z</time>
      </trkpt>
      <trkpt lat="45.92209" lon="4.75262">
        <ele>176</ele>
        <time>2017-06-28T08:06:22Z</time>
      </trkpt>
      <trkpt lat="45.92208" lon="4.7527">
        <ele>176</ele>
        <time>2017-06-28T08:06:23Z</time>
      </trkpt>
      <trkpt lat="45.92208" lon="4.75278">
        <ele>176</ele>
        <time>2017-06-28T08:06:24Z</time>
      </trkpt>
      <trkpt lat="45.92208" lon="4.75286">
        <ele>176</ele>
        <time>2017-06-28T08:06:25Z</time>
      </trkpt>
      <trkpt lat="45.92208" lon="4.75294">
        <ele>176</ele>
        <time>2017-06-28T08:06:26Z</time>
      </trkpt>
      <trkpt lat="45.92207" lon="4.75302">
        <ele>176</ele>
        <time>2017-06-28T08:06:27Z</time>
      </trkpt>
      <trkpt lat="45.92207" lon="4.75309">
        <ele>176</ele>
        <time>2017-06-28T08:06:28Z</time>
      </trkpt>
      <trkpt lat="45.92207" lon="4.75317">
        <ele>176</ele>
        <time>2017-06-28T08:06:29Z</time>
      </trkpt>
      <trkpt lat="45.92204" lon="4.75325">
        <ele>176</ele>
        <time>2017-06-28T08:06:30Z</time>
      </trkpt>
      <trkpt lat="45.92203" lon="4.75332">
        <ele>176</ele>
        <time>2017-06-28T08:06:31Z</time>
      </trkpt>
      <trkpt lat="45.92202" lon="4.7534">
        <ele>177</ele>
        <time>2017-06-28T08:06:32Z</time>
      </trkpt>
      <trkpt lat="45.92201" lon="4.75347">
        <ele>177</ele>
        <time>2017-06-28T08:06:33Z</time>
      </trkpt>
      <trkpt lat="45.92199" lon="4.75354">
        <ele>177</ele>
        <time>2017-06-28T08:06:34Z</time>
      </trkpt>
      <trkpt lat="45.92196" lon="4.7536">
        <ele>177</ele>
        <time>2017-06-28T08:06:35Z</time>
      </trkpt>
      <trkpt lat="45.92194" lon="4.75367">
        <ele>177</ele>
        <time>2017-06-28T08:06:36Z</time>
      </trkpt>
      <trkpt lat="45.92192" lon="4.75374">
        <ele>177</ele>
        <time>2017-06-28T08:06:37Z</time>
      </trkpt>
      <trkpt lat="45.9219" lon="4.75381">
        <ele>177</ele>
        <time>2017-06-28T08:06:38Z</time>
      </trkpt>
      <trkpt lat="45.92187" lon="4.75388">
        <ele>177</ele>
        <time>2017-06-28T08:06:39Z</time>
      </trkpt>
      <trkpt lat="45.92184" lon="4.75395">
        <ele>177</ele>
        <time>2017-06-28T08:06:40Z</time>
      </trkpt>
      <trkpt lat="45.92182" lon="4.75402">
        <ele>177</ele>
        <time>2017-06-28T08:06:41Z</time>
      </trkpt>
      <trkpt lat="45.92179" lon="4.75409">
        <ele>177</ele>
        <time>2017-06-28T08:06:42Z</time>
      </trkpt>
      <trkpt lat="45.92176" lon="4.75415">
        <ele>178</ele>
        <time>2017-06-28T08:06:43Z</time>
      </trkpt>
      <trkpt lat="45.92174" lon="4.75422">
        <ele>177</ele>
        <time>2017-06-28T08:06:44Z</time>
      </trkpt>
      <trkpt lat="45.92172" lon="4.75429">
        <ele>177</ele>
        <time>2017-06-28T08:06:45Z</time>
      </trkpt>
      <trkpt lat="45.92169" lon="4.75435">
        <ele>177</ele>
        <time>2017-06-28T08:06:46Z</time>
      </trkpt>
      <trkpt lat="45.92167" lon="4.75441">
        <ele>177</ele>
        <time>2017-06-28T08:06:47Z</time>
      </trkpt>
      <trkpt lat="45.92165" lon="4.75447">
        <ele>177</ele>
        <time>2017-06-28T08:06:48Z</time>
      </trkpt>
      <trkpt lat="45.92162" lon="4.75452">
        <ele>176</ele>
        <time>2017-06-28T08:06:49Z</time>
      </trkpt>
      <trkpt lat="45.9216" lon="4.75459">
        <ele>176</ele>
        <time>2017-06-28T08:06:50Z</time>
      </trkpt>
      <trkpt lat="45.92157" lon="4.75466">
        <ele>176</ele>
        <time>2017-06-28T08:06:51Z</time>
      </trkpt>
      <trkpt lat="45.92154" lon="4.75472">
        <ele>176</ele>
        <time>2017-06-28T08:06:52Z</time>
      </trkpt>
      <trkpt lat="45.92151" lon="4.75479">
        <ele>176</ele>
        <time>2017-06-28T08:06:53Z</time>
      </trkpt>
      <trkpt lat="45.92147" lon="4.75487">
        <ele>176</ele>
        <time>2017-06-28T08:06:54Z</time>
      </trkpt>
      <trkpt lat="45.92144" lon="4.75495">
        <ele>175</ele>
        <time>2017-06-28T08:06:55Z</time>
      </trkpt>
      <trkpt lat="45.9214" lon="4.75502">
        <ele>174</ele>
        <time>2017-06-28T08:06:56Z</time>
      </trkpt>
      <trkpt lat="45.92136" lon="4.75509">
        <ele>174</ele>
        <time>2017-06-28T08:06:57Z</time>
      </trkpt>
      <trkpt lat="45.92133" lon="4.75516">
        <ele>174</ele>
        <time>2017-06-28T08:06:58Z</time>
      </trkpt>
      <trkpt lat="45.9213" lon="4.75522">
        <ele>174</ele>
        <time>2017-06-28T08:06:59Z</time>
      </trkpt>
      <trkpt lat="45.92126" lon="4.75529">
        <ele>174</ele>
        <time>2017-06-28T08:07:00Z</time>
      </trkpt>
      <trkpt lat="45.92123" lon="4.75535">
        <ele>174</ele>
        <time>2017-06-28T08:07:01Z</time>
      </trkpt>
      <trkpt lat="45.92119" lon="4.75542">
        <ele>174</ele>
        <time>2017-06-28T08:07:02Z</time>
      </trkpt>
      <trkpt lat="45.92116" lon="4.75549">
        <ele>174</ele>
        <time>2017-06-28T08:07:03Z</time>
      </trkpt>
      <trkpt lat="45.92112" lon="4.75556">
        <ele>174</ele>
        <time>2017-06-28T08:07:04Z</time>
      </trkpt>
      <trkpt lat="45.92109" lon="4.75563">
        <ele>174</ele>
        <time>2017-06-28T08:07:05Z</time>
      </trkpt>
      <trkpt lat="45.92108" lon="4.75571">
        <ele>174</ele>
        <time>2017-06-28T08:07:06Z</time>
      </trkpt>
      <trkpt lat="45.92107" lon="4.75578">
        <ele>174</ele>
        <time>2017-06-28T08:07:07Z</time>
      </trkpt>
      <trkpt lat="45.92109" lon="4.75585">
        <ele>174</ele>
        <time>2017-06-28T08:07:08Z</time>
      </trkpt>
      <trkpt lat="45.92112" lon="4.75591">
        <ele>174</ele>
        <time>2017-06-28T08:07:09Z</time>
      </trkpt>
      <trkpt lat="45.92117" lon="4.75596">
        <ele>174</ele>
        <time>2017-06-28T08:07:10Z</time>
      </trkpt>
      <trkpt lat="45.92121" lon="4.756">
        <ele>174</ele>
        <time>2017-06-28T08:07:11Z</time>
      </trkpt>
      <trkpt lat="45.92126" lon="4.75604">
        <ele>174</ele>
        <time>2017-06-28T08:07:12Z</time>
      </trkpt>
      <trkpt lat="45.9213" lon="4.75608">
        <ele>174</ele>
        <time>2017-06-28T08:07:13Z</time>
      </trkpt>
      <trkpt lat="45.92135" lon="4.75612">
        <ele>174</ele>
        <time>2017-06-28T08:07:14Z</time>
      </trkpt>
      <trkpt lat="45.9214" lon="4.75615">
        <ele>174</ele>
        <time>2017-06-28T08:07:15Z</time>
      </trkpt>
      <trkpt lat="45.92144" lon="4.7562">
        <ele>174</ele>
        <time>2017-06-28T08:07:16Z</time>
      </trkpt>
      <trkpt lat="45.92149" lon="4.75625">
        <ele>174</ele>
        <time>2017-06-28T08:07:17Z</time>
      </trkpt>
      <trkpt lat="45.92154" lon="4.7563">
        <ele>174</ele>
        <time>2017-06-28T08:07:18Z</time>
      </trkpt>
      <trkpt lat="45.92159" lon="4.75635">
        <ele>174</ele>
        <time>2017-06-28T08:07:19Z</time>
      </trkpt>
      <trkpt lat="45.92164" lon="4.7564">
        <ele>174</ele>
        <time>2017-06-28T08:07:20Z</time>
      </trkpt>
      <trkpt lat="45.92169" lon="4.75645">
        <ele>174</ele>
        <time>2017-06-28T08:07:21Z</time>
      </trkpt>
      <trkpt lat="45.92174" lon="4.7565">
        <ele>174</ele>
        <time>2017-06-28T08:07:22Z</time>
      </trkpt>
      <trkpt lat="45.92179" lon="4.75655">
        <ele>174</ele>
        <time>2017-06-28T08:07:23Z</time>
      </trkpt>
      <trkpt lat="45.92184" lon="4.7566">
        <ele>174</ele>
        <time>2017-06-28T08:07:24Z</time>
      </trkpt>
      <trkpt lat="45.92189" lon="4.75665">
        <ele>174</ele>
        <time>2017-06-28T08:07:25Z</time>
      </trkpt>
      <trkpt lat="45.92194" lon="4.75669">
        <ele>174</ele>
        <time>2017-06-28T08:07:26Z</time>
      </trkpt>
      <trkpt lat="45.92199" lon="4.75674">
        <ele>174</ele>
        <time>2017-06-28T08:07:27Z</time>
      </trkpt>
      <trkpt lat="45.92203" lon="4.75679">
        <ele>174</ele>
        <time>2017-06-28T08:07:28Z</time>
      </trkpt>
      <trkpt lat="45.92208" lon="4.75684">
        <ele>174</ele>
        <time>2017-06-28T08:07:29Z</time>
      </trkpt>
      <trkpt lat="45.92211" lon="4.75689">
        <ele>174</ele>
        <time>2017-06-28T08:07:30Z</time>
      </trkpt>
      <trkpt lat="45.92216" lon="4.75693">
        <ele>174</ele>
        <time>2017-06-28T08:07:31Z</time>
      </trkpt>
      <trkpt lat="45.9222" lon="4.75697">
        <ele>174</ele>
        <time>2017-06-28T08:07:32Z</time>
      </trkpt>
      <trkpt lat="45.92225" lon="4.75701">
        <ele>174</ele>
        <time>2017-06-28T08:07:33Z</time>
      </trkpt>
      <trkpt lat="45.9223" lon="4.75707">
        <ele>174</ele>
        <time>2017-06-28T08:07:34Z</time>
      </trkpt>
      <trkpt lat="45.92234" lon="4.75713">
        <ele>174</ele>
        <time>2017-06-28T08:07:35Z</time>
      </trkpt>
      <trkpt lat="45.92237" lon="4.7572">
        <ele>174</ele>
        <time>2017-06-28T08:07:36Z</time>
      </trkpt>
      <trkpt lat="45.92239" lon="4.75727">
        <ele>174</ele>
        <time>2017-06-28T08:07:37Z</time>
      </trkpt>
      <trkpt lat="45.92242" lon="4.75734">
        <ele>174</ele>
        <time>2017-06-28T08:07:38Z</time>
      </trkpt>
      <trkpt lat="45.92244" lon="4.75741">
        <ele>174</ele>
        <time>2017-06-28T08:07:39Z</time>
      </trkpt>
      <trkpt lat="45.92245" lon="4.75748">
        <ele>174</ele>
        <time>2017-06-28T08:07:40Z</time>
      </trkpt>
      <trkpt lat="45.92247" lon="4.75755">
        <ele>174</ele>
        <time>2017-06-28T08:07:41Z</time>
      </trkpt>
      <trkpt lat="45.92248" lon="4.75762">
        <ele>174</ele>
        <time>2017-06-28T08:07:42Z</time>
      </trkpt>
      <trkpt lat="45.92249" lon="4.75769">
        <ele>174</ele>
        <time>2017-06-28T08:07:43Z</time>
      </trkpt>
      <trkpt lat="45.92251" lon="4.75777">
        <ele>174</ele>
        <time>2017-06-28T08:07:44Z</time>
      </trkpt>
      <trkpt lat="45.92252" lon="4.75784">
        <ele>174</ele>
        <time>2017-06-28T08:07:45Z</time>
      </trkpt>
      <trkpt lat="45.92254" lon="4.75791">
        <ele>174</ele>
        <time>2017-06-28T08:07:46Z</time>
      </trkpt>
      <trkpt lat="45.92256" lon="4.75798">
        <ele>174</ele>
        <time>2017-06-28T08:07:47Z</time>
      </trkpt>
      <trkpt lat="45.92258" lon="4.75805">
        <ele>174</ele>
        <time>2017-06-28T08:07:48Z</time>
      </trkpt>
      <trkpt lat="45.92261" lon="4.75812">
        <ele>174</ele>
        <time>2017-06-28T08:07:49Z</time>
      </trkpt>
      <trkpt lat="45.92264" lon="4.75817">
        <ele>174</ele>
        <time>2017-06-28T08:07:50Z</time>
      </trkpt>
      <trkpt lat="45.92268" lon="4.75822">
        <ele>174</ele>
        <time>2017-06-28T08:07:51Z</time>
      </trkpt>
      <trkpt lat="45.92272" lon="4.75827">
        <ele>174</ele>
        <time>2017-06-28T08:07:52Z</time>
      </trkpt>
      <trkpt lat="45.92276" lon="4.75832">
        <ele>174</ele>
        <time>2017-06-28T08:07:53Z</time>
      </trkpt>
      <trkpt lat="45.92281" lon="4.75836">
        <ele>173</ele>
        <time>2017-06-28T08:07:54Z</time>
      </trkpt>
      <trkpt lat="45.92286" lon="4.7584">
        <ele>173</ele>
        <time>2017-06-28T08:07:55Z</time>
      </trkpt>
      <trkpt lat="45.92292" lon="4.75843">
        <ele>173</ele>
        <time>2017-06-28T08:07:56Z</time>
      </trkpt>
      <trkpt lat="45.92297" lon="4.75845">
        <ele>173</ele>
        <time>2017-06-28T08:07:57Z</time>
      </trkpt>
      <trkpt lat="45.92302" lon="4.75849">
        <ele>173</ele>
        <time>2017-06-28T08:07:58Z</time>
      </trkpt>
      <trkpt lat="45.92308" lon="4.75852">
        <ele>173</ele>
        <time>2017-06-28T08:07:59Z</time>
      </trkpt>
      <trkpt lat="45.92312" lon="4.75855">
        <ele>173</ele>
        <time>2017-06-28T08:08:00Z</time>
      </trkpt>
      <trkpt lat="45.92317" lon="4.75859">
        <ele>173</ele>
        <time>2017-06-28T08:08:01Z</time>
      </trkpt>
      <trkpt lat="45.92322" lon="4.75863">
        <ele>173</ele>
        <time>2017-06-28T08:08:02Z</time>
      </trkpt>
      <trkpt lat="45.92328" lon="4.75867">
        <ele>173</ele>
        <time>2017-06-28T08:08:03Z</time>
      </trkpt>
      <trkpt lat="45.92333" lon="4.7587">
        <ele>173</ele>
        <time>2017-06-28T08:08:04Z</time>
      </trkpt>
      <trkpt lat="45.92339" lon="4.75874">
        <ele>173</ele>
        <time>2017-06-28T08:08:05Z</time>
      </trkpt>
      <trkpt lat="45.92345" lon="4.75877">
        <ele>173</ele>
        <time>2017-06-28T08:08:06Z</time>
      </trkpt>
      <trkpt lat="45.9235" lon="4.75881">
        <ele>173</ele>
        <time>2017-06-28T08:08:07Z</time>
      </trkpt>
      <trkpt lat="45.92356" lon="4.75884">
        <ele>173</ele>
        <time>2017-06-28T08:08:08Z</time>
      </trkpt>
      <trkpt lat="45.92361" lon="4.75888">
        <ele>173</ele>
        <time>2017-06-28T08:08:09Z</time>
      </trkpt>
      <trkpt lat="45.92367" lon="4.75891">
        <ele>173</ele>
        <time>2017-06-28T08:08:10Z</time>
      </trkpt>
      <trkpt lat="45.92372" lon="4.75894">
        <ele>173</ele>
        <time>2017-06-28T08:08:11Z</time>
      </trkpt>
      <trkpt lat="45.92377" lon="4.75898">
        <ele>173</ele>
        <time>2017-06-28T08:08:12Z</time>
      </trkpt>
      <trkpt lat="45.92382" lon="4.75901">
        <ele>173</ele>
        <time>2017-06-28T08:08:13Z</time>
      </trkpt>
      <trkpt lat="45.92386" lon="4.75904">
        <ele>173</ele>
        <time>2017-06-28T08:08:14Z</time>
      </trkpt>
      <trkpt lat="45.92391" lon="4.75907">
        <ele>173</ele>
        <time>2017-06-28T08:08:15Z</time>
      </trkpt>
      <trkpt lat="45.92396" lon="4.7591">
        <ele>173</ele>
        <time>2017-06-28T08:08:16Z</time>
      </trkpt>
      <trkpt lat="45.92401" lon="4.75914">
        <ele>172</ele>
        <time>2017-06-28T08:08:17Z</time>
      </trkpt>
      <trkpt lat="45.92405" lon="4.75917">
        <ele>172</ele>
        <time>2017-06-28T08:08:18Z</time>
      </trkpt>
      <trkpt lat="45.9241" lon="4.75921">
        <ele>172</ele>
        <time>2017-06-28T08:08:19Z</time>
      </trkpt>
      <trkpt lat="45.92415" lon="4.75924">
        <ele>172</ele>
        <time>2017-06-28T08:08:20Z</time>
      </trkpt>
      <trkpt lat="45.9242" lon="4.75928">
        <ele>172</ele>
        <time>2017-06-28T08:08:21Z</time>
      </trkpt>
      <trkpt lat="45.92425" lon="4.75932">
        <ele>172</ele>
        <time>2017-06-28T08:08:22Z</time>
      </trkpt>
      <trkpt lat="45.9243" lon="4.75936">
        <ele>172</ele>
        <time>2017-06-28T08:08:23Z</time>
      </trkpt>
      <trkpt lat="45.92435" lon="4.75939">
        <ele>172</ele>
        <time>2017-06-28T08:08:24Z</time>
      </trkpt>
      <trkpt lat="45.9244" lon="4.75944">
        <ele>172</ele>
        <time>2017-06-28T08:08:25Z</time>
      </trkpt>
      <trkpt lat="45.92444" lon="4.75948">
        <ele>172</ele>
        <time>2017-06-28T08:08:26Z</time>
      </trkpt>
      <trkpt lat="45.92449" lon="4.75952">
        <ele>172</ele>
        <time>2017-06-28T08:08:27Z</time>
      </trkpt>
      <trkpt lat="45.92455" lon="4.75957">
        <ele>172</ele>
        <time>2017-06-28T08:08:28Z</time>
      </trkpt>
      <trkpt lat="45.9246" lon="4.75961">
        <ele>172</ele>
        <time>2017-06-28T08:08:29Z</time>
      </trkpt>
      <trkpt lat="45.92465" lon="4.75965">
        <ele>172</ele>
        <time>2017-06-28T08:08:30Z</time>
      </trkpt>
      <trkpt lat="45.92471" lon="4.75969">
        <ele>172</ele>
        <time>2017-06-28T08:08:31Z</time>
      </trkpt>
      <trkpt lat="45.92476" lon="4.75973">
        <ele>172</ele>
        <time>2017-06-28T08:08:32Z</time>
      </trkpt>
      <trkpt lat="45.92481" lon="4.75977">
        <ele>172</ele>
        <time>2017-06-28T08:08:33Z</time>
      </trkpt>
      <trkpt lat="45.92485" lon="4.75981">
        <ele>172</ele>
        <time>2017-06-28T08:08:34Z</time>
      </trkpt>
      <trkpt lat="45.9249" lon="4.75984">
        <ele>172</ele>
        <time>2017-06-28T08:08:35Z</time>
      </trkpt>
      <trkpt lat="45.92495" lon="4.75988">
        <ele>172</ele>
        <time>2017-06-28T08:08:36Z</time>
      </trkpt>
      <trkpt lat="45.925" lon="4.75992">
        <ele>172</ele>
        <time>2017-06-28T08:08:37Z</time>
      </trkpt>
      <trkpt lat="45.92505" lon="4.75996">
        <ele>172</ele>
        <time>2017-06-28T08:08:38Z</time>
      </trkpt>
      <trkpt lat="45.9251" lon="4.75999">
        <ele>172</ele>
        <time>2017-06-28T08:08:39Z</time>
      </trkpt>
      <trkpt lat="45.92514" lon="4.76003">
        <ele>172</ele>
        <time>2017-06-28T08:08:40Z</time>
      </trkpt>
      <trkpt lat="45.92519" lon="4.76007">
        <ele>172</ele>
        <time>2017-06-28T08:08:41Z</time>
      </trkpt>
      <trkpt lat="45.92523" lon="4.7601">
        <ele>172</ele>
        <time>2017-06-28T08:08:42Z</time>
      </trkpt>
      <trkpt lat="45.92527" lon="4.76013">
        <ele>172</ele>
        <time>2017-06-28T08:08:43Z</time>
      </trkpt>
      <trkpt lat="45.92532" lon="4.76016">
        <ele>172</ele>
        <time>2017-06-28T08:08:44Z</time>
      </trkpt>
      <trkpt lat="45.92536" lon="4.7602">
        <ele>172</ele>
        <time>2017-06-28T08:08:45Z</time>
      </trkpt>
      <trkpt lat="45.9254" lon="4.76023">
        <ele>172</ele>
        <time>2017-06-28T08:08:46Z</time>
      </trkpt>
      <trkpt lat="45.92544" lon="4.76025">
        <ele>172</ele>
        <time>2017-06-28T08:08:47Z</time>
      </trkpt>
      <trkpt lat="45.92548" lon="4.76028">
        <ele>172</ele>
        <time>2017-06-28T08:08:48Z</time>
      </trkpt>
      <trkpt lat="45.92552" lon="4.76031">
        <ele>172</ele>
        <time>2017-06-28T08:08:49Z</time>
      </trkpt>
      <trkpt lat="45.92556" lon="4.76034">
        <ele>172</ele>
        <time>2017-06-28T08:08:50Z</time>
      </trkpt>
      <trkpt lat="45.9256" lon="4.76038">
        <ele>172</ele>
        <time>2017-06-28T08:08:51Z</time>
      </trkpt>
      <trkpt lat="45.92565" lon="4.76041">
        <ele>172</ele>
        <time>2017-06-28T08:08:52Z</time>
      </trkpt>
      <trkpt lat="45.9257" lon="4.76044">
        <ele>171</ele>
        <time>2017-06-28T08:08:53Z</time>
      </trkpt>
      <trkpt lat="45.92575" lon="4.76047">
        <ele>171</ele>
        <time>2017-06-28T08:08:54Z</time>
      </trkpt>
      <trkpt lat="45.9258" lon="4.76051">
        <ele>171</ele>
        <time>2017-06-28T08:08:55Z</time>
      </trkpt>
      <trkpt lat="45.92585" lon="4.76055">
        <ele>171</ele>
        <time>2017-06-28T08:08:56Z</time>
      </trkpt>
      <trkpt lat="45.9259" lon="4.76058">
        <ele>171</ele>
        <time>2017-06-28T08:08:57Z</time>
      </trkpt>
      <trkpt lat="45.92595" lon="4.76062">
        <ele>171</ele>
        <time>2017-06-28T08:08:58Z</time>
      </trkpt>
      <trkpt lat="45.926" lon="4.76066">
        <ele>171</ele>
        <time>2017-06-28T08:08:59Z</time>
      </trkpt>
      <trkpt lat="45.92606" lon="4.76069">
        <ele>171</ele>
        <time>2017-06-28T08:09:00Z</time>
      </trkpt>
      <trkpt lat="45.92611" lon="4.76073">
        <ele>171</ele>
        <time>2017-06-28T08:09:01Z</time>
      </trkpt>
      <trkpt lat="45.92617" lon="4.76077">
        <ele>171</ele>
        <time>2017-06-28T08:09:02Z</time>
      </trkpt>
      <trkpt lat="45.92623" lon="4.76081">
        <ele>171</ele>
        <time>2017-06-28T08:09:03Z</time>
      </trkpt>
      <trkpt lat="45.92629" lon="4.76085">
        <ele>170</ele>
        <time>2017-06-28T08:09:04Z</time>
      </trkpt>
      <trkpt lat="45.92635" lon="4.76089">
        <ele>170</ele>
        <time>2017-06-28T08:09:05Z</time>
      </trkpt>
      <trkpt lat="45.92641" lon="4.76093">
        <ele>170</ele>
        <time>2017-06-28T08:09:06Z</time>
      </trkpt>
      <trkpt lat="45.92648" lon="4.76097">
        <ele>170</ele>
        <time>2017-06-28T08:09:07Z</time>
      </trkpt>
      <trkpt lat="45.92654" lon="4.76101">
        <ele>170</ele>
        <time>2017-06-28T08:09:08Z</time>
      </trkpt>
      <trkpt lat="45.92661" lon="4.76106">
        <ele>170</ele>
        <time>2017-06-28T08:09:09Z</time>
      </trkpt>
      <trkpt lat="45.92668" lon="4.7611">
        <ele>169</ele>
        <time>2017-06-28T08:09:10Z</time>
      </trkpt>
      <trkpt lat="45.92675" lon="4.76115">
        <ele>169</ele>
        <time>2017-06-28T08:09:11Z</time>
      </trkpt>
      <trkpt lat="45.92683" lon="4.76119">
        <ele>169</ele>
        <time>2017-06-28T08:09:12Z</time>
      </trkpt>
      <trkpt lat="45.9269" lon="4.76124">
        <ele>169</ele>
        <time>2017-06-28T08:09:13Z</time>
      </trkpt>
      <trkpt lat="45.92697" lon="4.76128">
        <ele>169</ele>
        <time>2017-06-28T08:09:14Z</time>
      </trkpt>
      <trkpt lat="45.92705" lon="4.76134">
        <ele>169</ele>
        <time>2017-06-28T08:09:15Z</time>
      </trkpt>
      <trkpt lat="45.92712" lon="4.76139">
        <ele>168</ele>
        <time>2017-06-28T08:09:16Z</time>
      </trkpt>
      <trkpt lat="45.92719" lon="4.76144">
        <ele>168</ele>
        <time>2017-06-28T08:09:17Z</time>
      </trkpt>
      <trkpt lat="45.92726" lon="4.76149">
        <ele>168</ele>
        <time>2017-06-28T08:09:18Z</time>
      </trkpt>
      <trkpt lat="45.92733" lon="4.76154">
        <ele>168</ele>
        <time>2017-06-28T08:09:19Z</time>
      </trkpt>
      <trkpt lat="45.9274" lon="4.76159">
        <ele>168</ele>
        <time>2017-06-28T08:09:20Z</time>
      </trkpt>
      <trkpt lat="45.92747" lon="4.76164">
        <ele>167</ele>
        <time>2017-06-28T08:09:21Z</time>
      </trkpt>
      <trkpt lat="45.92753" lon="4.76169">
        <ele>167</ele>
        <time>2017-06-28T08:09:22Z</time>
      </trkpt>
      <trkpt lat="45.9276" lon="4.76174">
        <ele>167</ele>
        <time>2017-06-28T08:09:23Z</time>
      </trkpt>
      <trkpt lat="45.92766" lon="4.76179">
        <ele>167</ele>
        <time>2017-06-28T08:09:24Z</time>
      </trkpt>
      <trkpt lat="45.92772" lon="4.76185">
        <ele>167</ele>
        <time>2017-06-28T08:09:25Z</time>
      </trkpt>
      <trkpt lat="45.92778" lon="4.7619">
        <ele>168</ele>
        <time>2017-06-28T08:09:26Z</time>
      </trkpt>
      <trkpt lat="45.92783" lon="4.76195">
        <ele>168</ele>
        <time>2017-06-28T08:09:27Z</time>
      </trkpt>
      <trkpt lat="45.92789" lon="4.762">
        <ele>168</ele>
        <time>2017-06-28T08:09:28Z</time>
      </trkpt>
      <trkpt lat="45.92795" lon="4.76206">
        <ele>168</ele>
        <time>2017-06-28T08:09:29Z</time>
      </trkpt>
      <trkpt lat="45.928" lon="4.76211">
        <ele>168</ele>
        <time>2017-06-28T08:09:30Z</time>
      </trkpt>
      <trkpt lat="45.92806" lon="4.76216">
        <ele>168</ele>
        <time>2017-06-28T08:09:31Z</time>
      </trkpt>
      <trkpt lat="45.92812" lon="4.76222">
        <ele>168</ele>
        <time>2017-06-28T08:09:32Z</time>
      </trkpt>
      <trkpt lat="45.92817" lon="4.76228">
        <ele>168</ele>
        <time>2017-06-28T08:09:33Z</time>
      </trkpt>
      <trkpt lat="45.92823" lon="4.76234">
        <ele>168</ele>
        <time>2017-06-28T08:09:34Z</time>
      </trkpt>
      <trkpt lat="45.92829" lon="4.76239">
        <ele>169</ele>
        <time>2017-06-28T08:09:35Z</time>
      </trkpt>
      <trkpt lat="45.92834" lon="4.76244">
        <ele>169</ele>
        <time>2017-06-28T08:09:36Z</time>
      </trkpt>
      <trkpt lat="45.92839" lon="4.76248">
        <ele>169</ele>
        <time>2017-06-28T08:09:37Z</time>
      </trkpt>
      <trkpt lat="45.92844" lon="4.76253">
        <ele>169</ele>
        <time>2017-06-28T08:09:38Z</time>
      </trkpt>
      <trkpt lat="45.92849" lon="4.76257">
        <ele>169</ele>
        <time>2017-06-28T08:09:39Z</time>
      </trkpt>
      <trkpt lat="45.92854" lon="4.76261">
        <ele>169</ele>
        <time>2017-06-28T08:09:40Z</time>
      </trkpt>
      <trkpt lat="45.92858" lon="4.76266">
        <ele>169</ele>
        <time>2017-06-28T08:09:41Z</time>
      </trkpt>
      <trkpt lat="45.92863" lon="4.7627">
        <ele>169</ele>
        <time>2017-06-28T08:09:42Z</time>
      </trkpt>
      <trkpt lat="45.92867" lon="4.76275">
        <ele>169</ele>
        <time>2017-06-28T08:09:43Z</time>
      </trkpt>
      <trkpt lat="45.92872" lon="4.7628">
        <ele>169</ele>
        <time>2017-06-28T08:09:44Z</time>
      </trkpt>
      <trkpt lat="45.92877" lon="4.76285">
        <ele>169</ele>
        <time>2017-06-28T08:09:45Z</time>
      </trkpt>
      <trkpt lat="45.92881" lon="4.7629">
        <ele>169</ele>
        <time>2017-06-28T08:09:46Z</time>
      </trkpt>
      <trkpt lat="45.92886" lon="4.76295">
        <ele>169</ele>
        <time>2017-06-28T08:09:47Z</time>
      </trkpt>
      <trkpt lat="45.9289" lon="4.76299">
        <ele>169</ele>
        <time>2017-06-28T08:09:48Z</time>
      </trkpt>
      <trkpt lat="45.92894" lon="4.76305">
        <ele>169</ele>
        <time>2017-06-28T08:09:49Z</time>
      </trkpt>
      <trkpt lat="45.92899" lon="4.7631">
        <ele>169</ele>
        <time>2017-06-28T08:09:50Z</time>
      </trkpt>
      <trkpt lat="45.92904" lon="4.76314">
        <ele>169</ele>
        <time>2017-06-28T08:09:51Z</time>
      </trkpt>
      <trkpt lat="45.92908" lon="4.76319">
        <ele>169</ele>
        <time>2017-06-28T08:09:52Z</time>
      </trkpt>
      <trkpt lat="45.92913" lon="4.76324">
        <ele>169</ele>
        <time>2017-06-28T08:09:53Z</time>
      </trkpt>
      <trkpt lat="45.92918" lon="4.76329">
        <ele>169</ele>
        <time>2017-06-28T08:09:54Z</time>
      </trkpt>
      <trkpt lat="45.92923" lon="4.76335">
        <ele>169</ele>
        <time>2017-06-28T08:09:55Z</time>
      </trkpt>
      <trkpt lat="45.92928" lon="4.7634">
        <ele>169</ele>
        <time>2017-06-28T08:09:56Z</time>
      </trkpt>
      <trkpt lat="45.92934" lon="4.76346">
        <ele>169</ele>
        <time>2017-06-28T08:09:57Z</time>
      </trkpt>
      <trkpt lat="45.92939" lon="4.76352">
        <ele>169</ele>
        <time>2017-06-28T08:09:58Z</time>
      </trkpt>
      <trkpt lat="45.92944" lon="4.76357">
        <ele>169</ele>
        <time>2017-06-28T08:09:59Z</time>
      </trkpt>
      <trkpt lat="45.9295" lon="4.76364">
        <ele>169</ele>
        <time>2017-06-28T08:10:00Z</time>
      </trkpt>
      <trkpt lat="45.92956" lon="4.7637">
        <ele>169</ele>
        <time>2017-06-28T08:10:01Z</time>
      </trkpt>
      <trkpt lat="45.92962" lon="4.76375">
        <ele>169</ele>
        <time>2017-06-28T08:10:02Z</time>
      </trkpt>
      <trkpt lat="45.92968" lon="4.76381">
        <ele>169</ele>
        <time>2017-06-28T08:10:03Z</time>
      </trkpt>
      <trkpt lat="45.92973" lon="4.76385">
        <ele>169</ele>
        <time>2017-06-28T08:10:04Z</time>
      </trkpt>
      <trkpt lat="45.92978" lon="4.7639">
        <ele>169</ele>
        <time>2017-06-28T08:10:05Z</time>
      </trkpt>
      <trkpt lat="45.92983" lon="4.76395">
        <ele>169</ele>
        <time>2017-06-28T08:10:06Z</time>
      </trkpt>
      <trkpt lat="45.92988" lon="4.76399">
        <ele>169</ele>
        <time>2017-06-28T08:10:07Z</time>
      </trkpt>
      <trkpt lat="45.92992" lon="4.76404">
        <ele>169</ele>
        <time>2017-06-28T08:10:08Z</time>
      </trkpt>
      <trkpt lat="45.92997" lon="4.76409">
        <ele>169</ele>
        <time>2017-06-28T08:10:09Z</time>
      </trkpt>
      <trkpt lat="45.93001" lon="4.76414">
        <ele>169</ele>
        <time>2017-06-28T08:10:10Z</time>
      </trkpt>
      <trkpt lat="45.93005" lon="4.76418">
        <ele>169</ele>
        <time>2017-06-28T08:10:11Z</time>
      </trkpt>
      <trkpt lat="45.93009" lon="4.76422">
        <ele>169</ele>
        <time>2017-06-28T08:10:12Z</time>
      </trkpt>
      <trkpt lat="45.93014" lon="4.76427">
        <ele>169</ele>
        <time>2017-06-28T08:10:13Z</time>
      </trkpt>
      <trkpt lat="45.93019" lon="4.76432">
        <ele>169</ele>
        <time>2017-06-28T08:10:14Z</time>
      </trkpt>
      <trkpt lat="45.93024" lon="4.76437">
        <ele>169</ele>
        <time>2017-06-28T08:10:15Z</time>
      </trkpt>
      <trkpt lat="45.93028" lon="4.76442">
        <ele>169</ele>
        <time>2017-06-28T08:10:16Z</time>
      </trkpt>
      <trkpt lat="45.93033" lon="4.76447">
        <ele>169</ele>
        <time>2017-06-28T08:10:17Z</time>
      </trkpt>
      <trkpt lat="45.93038" lon="4.76452">
        <ele>169</ele>
        <time>2017-06-28T08:10:18Z</time>
      </trkpt>
      <trkpt lat="45.93042" lon="4.76456">
        <ele>169</ele>
        <time>2017-06-28T08:10:19Z</time>
      </trkpt>
      <trkpt lat="45.93047" lon="4.76461">
        <ele>169</ele>
        <time>2017-06-28T08:10:20Z</time>
      </trkpt>
      <trkpt lat="45.93051" lon="4.76465">
        <ele>169</ele>
        <time>2017-06-28T08:10:21Z</time>
      </trkpt>
      <trkpt lat="45.93055" lon="4.76468">
        <ele>169</ele>
        <time>2017-06-28T08:10:22Z</time>
      </trkpt>
      <trkpt lat="45.9306" lon="4.76472">
        <ele>169</ele>
        <time>2017-06-28T08:10:23Z</time>
      </trkpt>
      <trkpt lat="45.93064" lon="4.76476">
        <ele>169</ele>
        <time>2017-06-28T08:10:24Z</time>
      </trkpt>
      <trkpt lat="45.93068" lon="4.7648">
        <ele>169</ele>
        <time>2017-06-28T08:10:25Z</time>
      </trkpt>
      <trkpt lat="45.93073" lon="4.76485">
        <ele>169</ele>
        <time>2017-06-28T08:10:26Z</time>
      </trkpt>
      <trkpt lat="45.93077" lon="4.76489">
        <ele>170</ele>
        <time>2017-06-28T08:10:27Z</time>
      </trkpt>
      <trkpt lat="45.93081" lon="4.76493">
        <ele>170</ele>
        <time>2017-06-28T08:10:28Z</time>
      </trkpt>
      <trkpt lat="45.93085" lon="4.76496">
        <ele>170</ele>
        <time>2017-06-28T08:10:29Z</time>
      </trkpt>
      <trkpt lat="45.93092" lon="4.76504">
        <ele>170</ele>
        <time>2017-06-28T08:10:31Z</time>
      </trkpt>
      <trkpt lat="45.93096" lon="4.76508">
        <ele>170</ele>
        <time>2017-06-28T08:10:32Z</time>
      </trkpt>
      <trkpt lat="45.93099" lon="4.76512">
        <ele>170</ele>
        <time>2017-06-28T08:10:33Z</time>
      </trkpt>
      <trkpt lat="45.93104" lon="4.76516">
        <ele>170</ele>
        <time>2017-06-28T08:10:34Z</time>
      </trkpt>
      <trkpt lat="45.93108" lon="4.76521">
        <ele>170</ele>
        <time>2017-06-28T08:10:35Z</time>
      </trkpt>
      <trkpt lat="45.93113" lon="4.76525">
        <ele>170</ele>
        <time>2017-06-28T08:10:36Z</time>
      </trkpt>
      <trkpt lat="45.93116" lon="4.76529">
        <ele>170</ele>
        <time>2017-06-28T08:10:37Z</time>
      </trkpt>
      <trkpt lat="45.9312" lon="4.76533">
        <ele>170</ele>
        <time>2017-06-28T08:10:38Z</time>
      </trkpt>
      <trkpt lat="45.93128" lon="4.76539">
        <ele>170</ele>
        <time>2017-06-28T08:10:40Z</time>
      </trkpt>
      <trkpt lat="45.93131" lon="4.76542">
        <ele>170</ele>
        <time>2017-06-28T08:10:41Z</time>
      </trkpt>
      <trkpt lat="45.93137" lon="4.76547">
        <ele>170</ele>
        <time>2017-06-28T08:10:43Z</time>
      </trkpt>
      <trkpt lat="45.9314" lon="4.7655">
        <ele>170</ele>
        <time>2017-06-28T08:10:44Z</time>
      </trkpt>
      <trkpt lat="45.93147" lon="4.76558">
        <ele>170</ele>
        <time>2017-06-28T08:10:46Z</time>
      </trkpt>
      <trkpt lat="45.9315" lon="4.76562">
        <ele>170</ele>
        <time>2017-06-28T08:10:47Z</time>
      </trkpt>
      <trkpt lat="45.93154" lon="4.76565">
        <ele>170</ele>
        <time>2017-06-28T08:10:48Z</time>
      </trkpt>
      <trkpt lat="45.93158" lon="4.76569">
        <ele>170</ele>
        <time>2017-06-28T08:10:49Z</time>
      </trkpt>
      <trkpt lat="45.93162" lon="4.76574">
        <ele>171</ele>
        <time>2017-06-28T08:10:50Z</time>
      </trkpt>
      <trkpt lat="45.93167" lon="4.76579">
        <ele>171</ele>
        <time>2017-06-28T08:10:51Z</time>
      </trkpt>
      <trkpt lat="45.93172" lon="4.76584">
        <ele>171</ele>
        <time>2017-06-28T08:10:52Z</time>
      </trkpt>
      <trkpt lat="45.93176" lon="4.76588">
        <ele>171</ele>
        <time>2017-06-28T08:10:53Z</time>
      </trkpt>
      <trkpt lat="45.93181" lon="4.76594">
        <ele>171</ele>
        <time>2017-06-28T08:10:54Z</time>
      </trkpt>
      <trkpt lat="45.93186" lon="4.76598">
        <ele>171</ele>
        <time>2017-06-28T08:10:55Z</time>
      </trkpt>
      <trkpt lat="45.9319" lon="4.76603">
        <ele>171</ele>
        <time>2017-06-28T08:10:56Z</time>
      </trkpt>
      <trkpt lat="45.93195" lon="4.76608">
        <ele>170</ele>
        <time>2017-06-28T08:10:57Z</time>
      </trkpt>
      <trkpt lat="45.932" lon="4.76613">
        <ele>170</ele>
        <time>2017-06-28T08:10:58Z</time>
      </trkpt>
      <trkpt lat="45.93204" lon="4.76618">
        <ele>170</ele>
        <time>2017-06-28T08:10:59Z</time>
      </trkpt>
      <trkpt lat="45.93209" lon="4.76623">
        <ele>170</ele>
        <time>2017-06-28T08:11:00Z</time>
      </trkpt>
      <trkpt lat="45.93214" lon="4.76628">
        <ele>170</ele>
        <time>2017-06-28T08:11:01Z</time>
      </trkpt>
      <trkpt lat="45.93221" lon="4.76633">
        <ele>171</ele>
        <time>2017-06-28T08:11:02Z</time>
      </trkpt>
      <trkpt lat="45.93226" lon="4.76638">
        <ele>171</ele>
        <time>2017-06-28T08:11:03Z</time>
      </trkpt>
      <trkpt lat="45.93231" lon="4.76644">
        <ele>171</ele>
        <time>2017-06-28T08:11:04Z</time>
      </trkpt>
      <trkpt lat="45.93236" lon="4.76651">
        <ele>171</ele>
        <time>2017-06-28T08:11:05Z</time>
      </trkpt>
      <trkpt lat="45.93241" lon="4.76657">
        <ele>171</ele>
        <time>2017-06-28T08:11:06Z</time>
      </trkpt>
      <trkpt lat="45.93246" lon="4.76662">
        <ele>172</ele>
        <time>2017-06-28T08:11:07Z</time>
      </trkpt>
      <trkpt lat="45.93251" lon="4.76668">
        <ele>172</ele>
        <time>2017-06-28T08:11:08Z</time>
      </trkpt>
      <trkpt lat="45.93256" lon="4.76672">
        <ele>172</ele>
        <time>2017-06-28T08:11:09Z</time>
      </trkpt>
      <trkpt lat="45.93261" lon="4.76677">
        <ele>172</ele>
        <time>2017-06-28T08:11:10Z</time>
      </trkpt>
      <trkpt lat="45.93266" lon="4.76682">
        <ele>172</ele>
        <time>2017-06-28T08:11:11Z</time>
      </trkpt>
      <trkpt lat="45.93271" lon="4.76687">
        <ele>172</ele>
        <time>2017-06-28T08:11:12Z</time>
      </trkpt>
      <trkpt lat="45.93275" lon="4.76692">
        <ele>172</ele>
        <time>2017-06-28T08:11:13Z</time>
      </trkpt>
      <trkpt lat="45.9328" lon="4.76697">
        <ele>172</ele>
        <time>2017-06-28T08:11:14Z</time>
      </trkpt>
      <trkpt lat="45.93284" lon="4.76701">
        <ele>172</ele>
        <time>2017-06-28T08:11:15Z</time>
      </trkpt>
      <trkpt lat="45.93288" lon="4.76705">
        <ele>172</ele>
        <time>2017-06-28T08:11:16Z</time>
      </trkpt>
      <trkpt lat="45.93292" lon="4.7671">
        <ele>172</ele>
        <time>2017-06-28T08:11:17Z</time>
      </trkpt>
      <trkpt lat="45.93296" lon="4.76714">
        <ele>172</ele>
        <time>2017-06-28T08:11:18Z</time>
      </trkpt>
      <trkpt lat="45.93301" lon="4.76718">
        <ele>172</ele>
        <time>2017-06-28T08:11:19Z</time>
      </trkpt>
      <trkpt lat="45.93306" lon="4.76722">
        <ele>172</ele>
        <time>2017-06-28T08:11:20Z</time>
      </trkpt>
      <trkpt lat="45.93311" lon="4.76727">
        <ele>172</ele>
        <time>2017-06-28T08:11:21Z</time>
      </trkpt>
      <trkpt lat="45.93316" lon="4.76732">
        <ele>172</ele>
        <time>2017-06-28T08:11:22Z</time>
      </trkpt>
      <trkpt lat="45.93321" lon="4.76737">
        <ele>172</ele>
        <time>2017-06-28T08:11:23Z</time>
      </trkpt>
      <trkpt lat="45.93326" lon="4.76742">
        <ele>173</ele>
        <time>2017-06-28T08:11:24Z</time>
      </trkpt>
      <trkpt lat="45.93331" lon="4.76747">
        <ele>173</ele>
        <time>2017-06-28T08:11:25Z</time>
      </trkpt>
      <trkpt lat="45.93337" lon="4.76752">
        <ele>173</ele>
        <time>2017-06-28T08:11:26Z</time>
      </trkpt>
      <trkpt lat="45.93343" lon="4.76757">
        <ele>172</ele>
        <time>2017-06-28T08:11:27Z</time>
      </trkpt>
      <trkpt lat="45.93348" lon="4.76763">
        <ele>172</ele>
        <time>2017-06-28T08:11:28Z</time>
      </trkpt>
      <trkpt lat="45.93354" lon="4.76768">
        <ele>172</ele>
        <time>2017-06-28T08:11:29Z</time>
      </trkpt>
      <trkpt lat="45.93359" lon="4.76774">
        <ele>172</ele>
        <time>2017-06-28T08:11:30Z</time>
      </trkpt>
      <trkpt lat="45.93364" lon="4.76779">
        <ele>172</ele>
        <time>2017-06-28T08:11:31Z</time>
      </trkpt>
      <trkpt lat="45.93369" lon="4.76784">
        <ele>172</ele>
        <time>2017-06-28T08:11:32Z</time>
      </trkpt>
      <trkpt lat="45.93374" lon="4.76789">
        <ele>172</ele>
        <time>2017-06-28T08:11:33Z</time>
      </trkpt>
      <trkpt lat="45.93379" lon="4.76794">
        <ele>172</ele>
        <time>2017-06-28T08:11:34Z</time>
      </trkpt>
      <trkpt lat="45.93384" lon="4.76799">
        <ele>172</ele>
        <time>2017-06-28T08:11:35Z</time>
      </trkpt>
      <trkpt lat="45.93388" lon="4.76804">
        <ele>172</ele>
        <time>2017-06-28T08:11:36Z</time>
      </trkpt>
      <trkpt lat="45.93392" lon="4.7681">
        <ele>172</ele>
        <time>2017-06-28T08:11:37Z</time>
      </trkpt>
      <trkpt lat="45.93395" lon="4.76815">
        <ele>172</ele>
        <time>2017-06-28T08:11:38Z</time>
      </trkpt>
      <trkpt lat="45.93399" lon="4.76821">
        <ele>172</ele>
        <time>2017-06-28T08:11:39Z</time>
      </trkpt>
      <trkpt lat="45.93403" lon="4.76827">
        <ele>172</ele>
        <time>2017-06-28T08:11:40Z</time>
      </trkpt>
      <trkpt lat="45.93407" lon="4.76834">
        <ele>172</ele>
        <time>2017-06-28T08:11:41Z</time>
      </trkpt>
      <trkpt lat="45.93411" lon="4.76841">
        <ele>172</ele>
        <time>2017-06-28T08:11:42Z</time>
      </trkpt>
      <trkpt lat="45.93415" lon="4.76848">
        <ele>172</ele>
        <time>2017-06-28T08:11:43Z</time>
      </trkpt>
      <trkpt lat="45.93418" lon="4.76856">
        <ele>171</ele>
        <time>2017-06-28T08:11:44Z</time>
      </trkpt>
      <trkpt lat="45.93422" lon="4.76864">
        <ele>171</ele>
        <time>2017-06-28T08:11:45Z</time>
      </trkpt>
      <trkpt lat="45.93426" lon="4.76872">
        <ele>171</ele>
        <time>2017-06-28T08:11:46Z</time>
      </trkpt>
      <trkpt lat="45.93429" lon="4.7688">
        <ele>171</ele>
        <time>2017-06-28T08:11:47Z</time>
      </trkpt>
      <trkpt lat="45.93432" lon="4.76888">
        <ele>171</ele>
        <time>2017-06-28T08:11:48Z</time>
      </trkpt>
      <trkpt lat="45.93434" lon="4.76896">
        <ele>171</ele>
        <time>2017-06-28T08:11:49Z</time>
      </trkpt>
      <trkpt lat="45.93437" lon="4.76904">
        <ele>171</ele>
        <time>2017-06-28T08:11:50Z</time>
      </trkpt>
      <trkpt lat="45.93439" lon="4.76911">
        <ele>171</ele>
        <time>2017-06-28T08:11:51Z</time>
      </trkpt>
      <trkpt lat="45.93441" lon="4.76919">
        <ele>170</ele>
        <time>2017-06-28T08:11:52Z</time>
      </trkpt>
      <trkpt lat="45.93442" lon="4.76926">
        <ele>170</ele>
        <time>2017-06-28T08:11:53Z</time>
      </trkpt>
      <trkpt lat="45.93444" lon="4.76933">
        <ele>170</ele>
        <time>2017-06-28T08:11:54Z</time>
      </trkpt>
      <trkpt lat="45.93446" lon="4.76941">
        <ele>170</ele>
        <time>2017-06-28T08:11:55Z</time>
      </trkpt>
      <trkpt lat="45.93447" lon="4.76949">
        <ele>170</ele>
        <time>2017-06-28T08:11:56Z</time>
      </trkpt>
      <trkpt lat="45.93448" lon="4.76957">
        <ele>170</ele>
        <time>2017-06-28T08:11:57Z</time>
      </trkpt>
      <trkpt lat="45.9345" lon="4.76964">
        <ele>170</ele>
        <time>2017-06-28T08:11:58Z</time>
      </trkpt>
      <trkpt lat="45.93451" lon="4.76972">
        <ele>170</ele>
        <time>2017-06-28T08:11:59Z</time>
      </trkpt>
      <trkpt lat="45.93452" lon="4.76979">
        <ele>170</ele>
        <time>2017-06-28T08:12:00Z</time>
      </trkpt>
      <trkpt lat="45.93452" lon="4.76986">
        <ele>170</ele>
        <time>2017-06-28T08:12:01Z</time>
      </trkpt>
      <trkpt lat="45.93453" lon="4.76993">
        <ele>170</ele>
        <time>2017-06-28T08:12:02Z</time>
      </trkpt>
      <trkpt lat="45.93454" lon="4.77001">
        <ele>170</ele>
        <time>2017-06-28T08:12:03Z</time>
      </trkpt>
      <trkpt lat="45.93455" lon="4.77009">
        <ele>170</ele>
        <time>2017-06-28T08:12:04Z</time>
      </trkpt>
      <trkpt lat="45.93457" lon="4.77017">
        <ele>170</ele>
        <time>2017-06-28T08:12:05Z</time>
      </trkpt>
      <trkpt lat="45.93458" lon="4.77026">
        <ele>170</ele>
        <time>2017-06-28T08:12:06Z</time>
      </trkpt>
      <trkpt lat="45.9346" lon="4.77034">
        <ele>170</ele>
        <time>2017-06-28T08:12:07Z</time>
      </trkpt>
      <trkpt lat="45.93461" lon="4.77042">
        <ele>170</ele>
        <time>2017-06-28T08:12:08Z</time>
      </trkpt>
      <trkpt lat="45.93462" lon="4.7705">
        <ele>170</ele>
        <time>2017-06-28T08:12:09Z</time>
      </trkpt>
      <trkpt lat="45.93464" lon="4.77058">
        <ele>170</ele>
        <time>2017-06-28T08:12:10Z</time>
      </trkpt>
      <trkpt lat="45.93465" lon="4.77066">
        <ele>170</ele>
        <time>2017-06-28T08:12:11Z</time>
      </trkpt>
      <trkpt lat="45.93467" lon="4.77074">
        <ele>170</ele>
        <time>2017-06-28T08:12:12Z</time>
      </trkpt>
      <trkpt lat="45.93469" lon="4.77082">
        <ele>170</ele>
        <time>2017-06-28T08:12:13Z</time>
      </trkpt>
      <trkpt lat="45.9347" lon="4.77089">
        <ele>170</ele>
        <time>2017-06-28T08:12:14Z</time>
      </trkpt>
      <trkpt lat="45.93472" lon="4.77096">
        <ele>169</ele>
        <time>2017-06-28T08:12:15Z</time>
      </trkpt>
      <trkpt lat="45.93473" lon="4.77102">
        <ele>169</ele>
        <time>2017-06-28T08:12:16Z</time>
      </trkpt>
      <trkpt lat="45.93474" lon="4.7711">
        <ele>169</ele>
        <time>2017-06-28T08:12:17Z</time>
      </trkpt>
      <trkpt lat="45.93476" lon="4.77118">
        <ele>169</ele>
        <time>2017-06-28T08:12:18Z</time>
      </trkpt>
      <trkpt lat="45.93477" lon="4.77126">
        <ele>169</ele>
        <time>2017-06-28T08:12:19Z</time>
      </trkpt>
      <trkpt lat="45.93479" lon="4.77135">
        <ele>169</ele>
        <time>2017-06-28T08:12:20Z</time>
      </trkpt>
      <trkpt lat="45.93481" lon="4.77143">
        <ele>169</ele>
        <time>2017-06-28T08:12:21Z</time>
      </trkpt>
      <trkpt lat="45.93483" lon="4.77152">
        <ele>169</ele>
        <time>2017-06-28T08:12:22Z</time>
      </trkpt>
      <trkpt lat="45.93484" lon="4.7716">
        <ele>169</ele>
        <time>2017-06-28T08:12:23Z</time>
      </trkpt>
      <trkpt lat="45.93486" lon="4.77168">
        <ele>169</ele>
        <time>2017-06-28T08:12:24Z</time>
      </trkpt>
      <trkpt lat="45.93487" lon="4.77176">
        <ele>169</ele>
        <time>2017-06-28T08:12:25Z</time>
      </trkpt>
      <trkpt lat="45.93489" lon="4.77184">
        <ele>169</ele>
        <time>2017-06-28T08:12:26Z</time>
      </trkpt>
      <trkpt lat="45.93491" lon="4.77191">
        <ele>169</ele>
        <time>2017-06-28T08:12:27Z</time>
      </trkpt>
      <trkpt lat="45.93492" lon="4.77198">
        <ele>169</ele>
        <time>2017-06-28T08:12:28Z</time>
      </trkpt>
      <trkpt lat="45.93494" lon="4.77205">
        <ele>169</ele>
        <time>2017-06-28T08:12:29Z</time>
      </trkpt>
      <trkpt lat="45.93495" lon="4.77212">
        <ele>169</ele>
        <time>2017-06-28T08:12:30Z</time>
      </trkpt>
      <trkpt lat="45.93497" lon="4.77219">
        <ele>169</ele>
        <time>2017-06-28T08:12:31Z</time>
      </trkpt>
      <trkpt lat="45.93498" lon="4.77226">
        <ele>170</ele>
        <time>2017-06-28T08:12:32Z</time>
      </trkpt>
      <trkpt lat="45.935" lon="4.77233">
        <ele>170</ele>
        <time>2017-06-28T08:12:33Z</time>
      </trkpt>
      <trkpt lat="45.93501" lon="4.7724">
        <ele>170</ele>
        <time>2017-06-28T08:12:34Z</time>
      </trkpt>
      <trkpt lat="45.93503" lon="4.77247">
        <ele>170</ele>
        <time>2017-06-28T08:12:35Z</time>
      </trkpt>
      <trkpt lat="45.93505" lon="4.77253">
        <ele>170</ele>
        <time>2017-06-28T08:12:36Z</time>
      </trkpt>
      <trkpt lat="45.93506" lon="4.7726">
        <ele>170</ele>
        <time>2017-06-28T08:12:37Z</time>
      </trkpt>
      <trkpt lat="45.93507" lon="4.77267">
        <ele>170</ele>
        <time>2017-06-28T08:12:38Z</time>
      </trkpt>
      <trkpt lat="45.93508" lon="4.77274">
        <ele>170</ele>
        <time>2017-06-28T08:12:39Z</time>
      </trkpt>
      <trkpt lat="45.9351" lon="4.77281">
        <ele>170</ele>
        <time>2017-06-28T08:12:40Z</time>
      </trkpt>
      <trkpt lat="45.93511" lon="4.77288">
        <ele>170</ele>
        <time>2017-06-28T08:12:41Z</time>
      </trkpt>
      <trkpt lat="45.93513" lon="4.77296">
        <ele>170</ele>
        <time>2017-06-28T08:12:42Z</time>
      </trkpt>
      <trkpt lat="45.93515" lon="4.77304">
        <ele>170</ele>
        <time>2017-06-28T08:12:43Z</time>
      </trkpt>
      <trkpt lat="45.93516" lon="4.77311">
        <ele>170</ele>
        <time>2017-06-28T08:12:44Z</time>
      </trkpt>
      <trkpt lat="45.93518" lon="4.77319">
        <ele>170</ele>
        <time>2017-06-28T08:12:45Z</time>
      </trkpt>
      <trkpt lat="45.9352" lon="4.77327">
        <ele>170</ele>
        <time>2017-06-28T08:12:46Z</time>
      </trkpt>
      <trkpt lat="45.93522" lon="4.77334">
        <ele>170</ele>
        <time>2017-06-28T08:12:47Z</time>
      </trkpt>
      <trkpt lat="45.93523" lon="4.77341">
        <ele>170</ele>
        <time>2017-06-28T08:12:48Z</time>
      </trkpt>
      <trkpt lat="45.93525" lon="4.77349">
        <ele>170</ele>
        <time>2017-06-28T08:12:49Z</time>
      </trkpt>
      <trkpt lat="45.93526" lon="4.77356">
        <ele>170</ele>
        <time>2017-06-28T08:12:50Z</time>
      </trkpt>
      <trkpt lat="45.93528" lon="4.77362">
        <ele>170</ele>
        <time>2017-06-28T08:12:51Z</time>
      </trkpt>
      <trkpt lat="45.93529" lon="4.7737">
        <ele>170</ele>
        <time>2017-06-28T08:12:52Z</time>
      </trkpt>
      <trkpt lat="45.9353" lon="4.77377">
        <ele>170</ele>
        <time>2017-06-28T08:12:53Z</time>
      </trkpt>
      <trkpt lat="45.93532" lon="4.77385">
        <ele>170</ele>
        <time>2017-06-28T08:12:54Z</time>
      </trkpt>
      <trkpt lat="45.93533" lon="4.77393">
        <ele>170</ele>
        <time>2017-06-28T08:12:55Z</time>
      </trkpt>
      <trkpt lat="45.93535" lon="4.77401">
        <ele>170</ele>
        <time>2017-06-28T08:12:56Z</time>
      </trkpt>
      <trkpt lat="45.93537" lon="4.7741">
        <ele>170</ele>
        <time>2017-06-28T08:12:57Z</time>
      </trkpt>
      <trkpt lat="45.9354" lon="4.77418">
        <ele>170</ele>
        <time>2017-06-28T08:12:58Z</time>
      </trkpt>
      <trkpt lat="45.93542" lon="4.77427">
        <ele>169</ele>
        <time>2017-06-28T08:12:59Z</time>
      </trkpt>
      <trkpt lat="45.93543" lon="4.77436">
        <ele>169</ele>
        <time>2017-06-28T08:13:00Z</time>
      </trkpt>
      <trkpt lat="45.93545" lon="4.77445">
        <ele>169</ele>
        <time>2017-06-28T08:13:01Z</time>
      </trkpt>
      <trkpt lat="45.93547" lon="4.77453">
        <ele>169</ele>
        <time>2017-06-28T08:13:02Z</time>
      </trkpt>
      <trkpt lat="45.93549" lon="4.77462">
        <ele>169</ele>
        <time>2017-06-28T08:13:03Z</time>
      </trkpt>
      <trkpt lat="45.93551" lon="4.7747">
        <ele>169</ele>
        <time>2017-06-28T08:13:04Z</time>
      </trkpt>
      <trkpt lat="45.93553" lon="4.77478">
        <ele>169</ele>
        <time>2017-06-28T08:13:05Z</time>
      </trkpt>
      <trkpt lat="45.93555" lon="4.77486">
        <ele>169</ele>
        <time>2017-06-28T08:13:06Z</time>
      </trkpt>
      <trkpt lat="45.93556" lon="4.77494">
        <ele>169</ele>
        <time>2017-06-28T08:13:07Z</time>
      </trkpt>
      <trkpt lat="45.93558" lon="4.775">
        <ele>169</ele>
        <time>2017-06-28T08:13:08Z</time>
      </trkpt>
      <trkpt lat="45.9356" lon="4.77507">
        <ele>169</ele>
        <time>2017-06-28T08:13:09Z</time>
      </trkpt>
      <trkpt lat="45.93561" lon="4.77514">
        <ele>169</ele>
        <time>2017-06-28T08:13:10Z</time>
      </trkpt>
      <trkpt lat="45.93563" lon="4.77521">
        <ele>169</ele>
        <time>2017-06-28T08:13:11Z</time>
      </trkpt>
      <trkpt lat="45.93565" lon="4.77529">
        <ele>169</ele>
        <time>2017-06-28T08:13:12Z</time>
      </trkpt>
      <trkpt lat="45.93567" lon="4.77537">
        <ele>169</ele>
        <time>2017-06-28T08:13:13Z</time>
      </trkpt>
      <trkpt lat="45.93569" lon="4.77545">
        <ele>169</ele>
        <time>2017-06-28T08:13:14Z</time>
      </trkpt>
      <trkpt lat="45.93571" lon="4.77553">
        <ele>169</ele>
        <time>2017-06-28T08:13:15Z</time>
      </trkpt>
      <trkpt lat="45.93573" lon="4.77561">
        <ele>169</ele>
        <time>2017-06-28T08:13:16Z</time>
      </trkpt>
      <trkpt lat="45.93576" lon="4.77569">
        <ele>170</ele>
        <time>2017-06-28T08:13:17Z</time>
      </trkpt>
      <trkpt lat="45.93579" lon="4.77577">
        <ele>170</ele>
        <time>2017-06-28T08:13:18Z</time>
      </trkpt>
      <trkpt lat="45.93581" lon="4.77585">
        <ele>170</ele>
        <time>2017-06-28T08:13:19Z</time>
      </trkpt>
      <trkpt lat="45.93583" lon="4.77592">
        <ele>170</ele>
        <time>2017-06-28T08:13:20Z</time>
      </trkpt>
      <trkpt lat="45.93585" lon="4.776">
        <ele>170</ele>
        <time>2017-06-28T08:13:21Z</time>
      </trkpt>
      <trkpt lat="45.93588" lon="4.77607">
        <ele>170</ele>
        <time>2017-06-28T08:13:22Z</time>
      </trkpt>
      <trkpt lat="45.9359" lon="4.77614">
        <ele>170</ele>
        <time>2017-06-28T08:13:23Z</time>
      </trkpt>
      <trkpt lat="45.93592" lon="4.7762">
        <ele>170</ele>
        <time>2017-06-28T08:13:24Z</time>
      </trkpt>
      <trkpt lat="45.93595" lon="4.77627">
        <ele>169</ele>
        <time>2017-06-28T08:13:25Z</time>
      </trkpt>
      <trkpt lat="45.93597" lon="4.77634">
        <ele>169</ele>
        <time>2017-06-28T08:13:26Z</time>
      </trkpt>
      <trkpt lat="45.936" lon="4.77641">
        <ele>169</ele>
        <time>2017-06-28T08:13:27Z</time>
      </trkpt>
      <trkpt lat="45.93602" lon="4.77647">
        <ele>169</ele>
        <time>2017-06-28T08:13:28Z</time>
      </trkpt>
      <trkpt lat="45.93605" lon="4.77653">
        <ele>169</ele>
        <time>2017-06-28T08:13:29Z</time>
      </trkpt>
      <trkpt lat="45.93608" lon="4.77659">
        <ele>169</ele>
        <time>2017-06-28T08:13:30Z</time>
      </trkpt>
      <trkpt lat="45.9361" lon="4.77665">
        <ele>169</ele>
        <time>2017-06-28T08:13:31Z</time>
      </trkpt>
      <trkpt lat="45.93613" lon="4.7767">
        <ele>169</ele>
        <time>2017-06-28T08:13:32Z</time>
      </trkpt>
      <trkpt lat="45.93616" lon="4.77677">
        <ele>169</ele>
        <time>2017-06-28T08:13:33Z</time>
      </trkpt>
      <trkpt lat="45.9362" lon="4.77684">
        <ele>169</ele>
        <time>2017-06-28T08:13:34Z</time>
      </trkpt>
      <trkpt lat="45.93623" lon="4.7769">
        <ele>169</ele>
        <time>2017-06-28T08:13:35Z</time>
      </trkpt>
      <trkpt lat="45.93626" lon="4.77696">
        <ele>169</ele>
        <time>2017-06-28T08:13:36Z</time>
      </trkpt>
      <trkpt lat="45.9363" lon="4.77703">
        <ele>169</ele>
        <time>2017-06-28T08:13:37Z</time>
      </trkpt>
      <trkpt lat="45.93633" lon="4.7771">
        <ele>170</ele>
        <time>2017-06-28T08:13:38Z</time>
      </trkpt>
      <trkpt lat="45.93637" lon="4.77717">
        <ele>170</ele>
        <time>2017-06-28T08:13:39Z</time>
      </trkpt>
      <trkpt lat="45.9364" lon="4.77723">
        <ele>170</ele>
        <time>2017-06-28T08:13:40Z</time>
      </trkpt>
      <trkpt lat="45.93644" lon="4.7773">
        <ele>170</ele>
        <time>2017-06-28T08:13:41Z</time>
      </trkpt>
      <trkpt lat="45.93649" lon="4.77736">
        <ele>170</ele>
        <time>2017-06-28T08:13:42Z</time>
      </trkpt>
      <trkpt lat="45.93653" lon="4.77742">
        <ele>170</ele>
        <time>2017-06-28T08:13:43Z</time>
      </trkpt>
      <trkpt lat="45.93657" lon="4.77749">
        <ele>170</ele>
        <time>2017-06-28T08:13:44Z</time>
      </trkpt>
      <trkpt lat="45.93661" lon="4.77755">
        <ele>171</ele>
        <time>2017-06-28T08:13:45Z</time>
      </trkpt>
      <trkpt lat="45.93665" lon="4.77761">
        <ele>171</ele>
        <time>2017-06-28T08:13:46Z</time>
      </trkpt>
      <trkpt lat="45.93669" lon="4.77767">
        <ele>170</ele>
        <time>2017-06-28T08:13:47Z</time>
      </trkpt>
      <trkpt lat="45.93674" lon="4.77773">
        <ele>170</ele>
        <time>2017-06-28T08:13:48Z</time>
      </trkpt>
      <trkpt lat="45.93678" lon="4.77779">
        <ele>170</ele>
        <time>2017-06-28T08:13:49Z</time>
      </trkpt>
      <trkpt lat="45.93682" lon="4.77784">
        <ele>170</ele>
        <time>2017-06-28T08:13:50Z</time>
      </trkpt>
      <trkpt lat="45.93686" lon="4.7779">
        <ele>170</ele>
        <time>2017-06-28T08:13:51Z</time>
      </trkpt>
      <trkpt lat="45.9369" lon="4.77796">
        <ele>169</ele>
        <time>2017-06-28T08:13:52Z</time>
      </trkpt>
      <trkpt lat="45.93694" lon="4.77801">
        <ele>169</ele>
        <time>2017-06-28T08:13:53Z</time>
      </trkpt>
      <trkpt lat="45.93698" lon="4.77806">
        <ele>169</ele>
        <time>2017-06-28T08:13:54Z</time>
      </trkpt>
      <trkpt lat="45.93702" lon="4.77811">
        <ele>169</ele>
        <time>2017-06-28T08:13:55Z</time>
      </trkpt>
      <trkpt lat="45.93706" lon="4.77816">
        <ele>169</ele>
        <time>2017-06-28T08:13:56Z</time>
      </trkpt>
      <trkpt lat="45.9371" lon="4.77821">
        <ele>169</ele>
        <time>2017-06-28T08:13:57Z</time>
      </trkpt>
      <trkpt lat="45.93713" lon="4.77826">
        <ele>169</ele>
        <time>2017-06-28T08:13:58Z</time>
      </trkpt>
      <trkpt lat="45.93717" lon="4.77831">
        <ele>168</ele>
        <time>2017-06-28T08:13:59Z</time>
      </trkpt>
      <trkpt lat="45.93724" lon="4.7784">
        <ele>167</ele>
        <time>2017-06-28T08:14:01Z</time>
      </trkpt>
      <trkpt lat="45.93727" lon="4.77844">
        <ele>167</ele>
        <time>2017-06-28T08:14:02Z</time>
      </trkpt>
      <trkpt lat="45.9373" lon="4.77849">
        <ele>167</ele>
        <time>2017-06-28T08:14:03Z</time>
      </trkpt>
      <trkpt lat="45.93734" lon="4.77854">
        <ele>167</ele>
        <time>2017-06-28T08:14:04Z</time>
      </trkpt>
      <trkpt lat="45.93738" lon="4.77859">
        <ele>167</ele>
        <time>2017-06-28T08:14:05Z</time>
      </trkpt>
      <trkpt lat="45.93742" lon="4.77864">
        <ele>167</ele>
        <time>2017-06-28T08:14:06Z</time>
      </trkpt>
      <trkpt lat="45.93746" lon="4.77869">
        <ele>167</ele>
        <time>2017-06-28T08:14:07Z</time>
      </trkpt>
      <trkpt lat="45.9375" lon="4.77875">
        <ele>166</ele>
        <time>2017-06-28T08:14:08Z</time>
      </trkpt>
      <trkpt lat="45.93754" lon="4.7788">
        <ele>166</ele>
        <time>2017-06-28T08:14:09Z</time>
      </trkpt>
      <trkpt lat="45.93758" lon="4.77885">
        <ele>166</ele>
        <time>2017-06-28T08:14:10Z</time>
      </trkpt>
      <trkpt lat="45.93761" lon="4.77891">
        <ele>166</ele>
        <time>2017-06-28T08:14:11Z</time>
      </trkpt>
      <trkpt lat="45.93764" lon="4.77896">
        <ele>166</ele>
        <time>2017-06-28T08:14:12Z</time>
      </trkpt>
      <trkpt lat="45.93768" lon="4.779">
        <ele>166</ele>
        <time>2017-06-28T08:14:13Z</time>
      </trkpt>
      <trkpt lat="45.93771" lon="4.77905">
        <ele>166</ele>
        <time>2017-06-28T08:14:14Z</time>
      </trkpt>
      <trkpt lat="45.93774" lon="4.77909">
        <ele>166</ele>
        <time>2017-06-28T08:14:15Z</time>
      </trkpt>
      <trkpt lat="45.93778" lon="4.77913">
        <ele>166</ele>
        <time>2017-06-28T08:14:16Z</time>
      </trkpt>
      <trkpt lat="45.93781" lon="4.77918">
        <ele>168</ele>
        <time>2017-06-28T08:14:17Z</time>
      </trkpt>
      <trkpt lat="45.93784" lon="4.77922">
        <ele>168</ele>
        <time>2017-06-28T08:14:18Z</time>
      </trkpt>
      <trkpt lat="45.93788" lon="4.77926">
        <ele>168</ele>
        <time>2017-06-28T08:14:19Z</time>
      </trkpt>
      <trkpt lat="45.93792" lon="4.77931">
        <ele>168</ele>
        <time>2017-06-28T08:14:20Z</time>
      </trkpt>
      <trkpt lat="45.93795" lon="4.77935">
        <ele>168</ele>
        <time>2017-06-28T08:14:21Z</time>
      </trkpt>
      <trkpt lat="45.93799" lon="4.77939">
        <ele>169</ele>
        <time>2017-06-28T08:14:22Z</time>
      </trkpt>
      <trkpt lat="45.93803" lon="4.77944">
        <ele>169</ele>
        <time>2017-06-28T08:14:23Z</time>
      </trkpt>
      <trkpt lat="45.93807" lon="4.77948">
        <ele>169</ele>
        <time>2017-06-28T08:14:24Z</time>
      </trkpt>
      <trkpt lat="45.9381" lon="4.77953">
        <ele>170</ele>
        <time>2017-06-28T08:14:25Z</time>
      </trkpt>
      <trkpt lat="45.93814" lon="4.77959">
        <ele>170</ele>
        <time>2017-06-28T08:14:26Z</time>
      </trkpt>
      <trkpt lat="45.93819" lon="4.77964">
        <ele>171</ele>
        <time>2017-06-28T08:14:27Z</time>
      </trkpt>
      <trkpt lat="45.93823" lon="4.77969">
        <ele>171</ele>
        <time>2017-06-28T08:14:28Z</time>
      </trkpt>
      <trkpt lat="45.93827" lon="4.77973">
        <ele>172</ele>
        <time>2017-06-28T08:14:29Z</time>
      </trkpt>
      <trkpt lat="45.93831" lon="4.77978">
        <ele>173</ele>
        <time>2017-06-28T08:14:30Z</time>
      </trkpt>
      <trkpt lat="45.93836" lon="4.77988">
        <ele>179</ele>
        <time>2017-06-28T08:14:32Z</time>
      </trkpt>
      <trkpt lat="45.93838" lon="4.77993">
        <ele>179</ele>
        <time>2017-06-28T08:14:33Z</time>
      </trkpt>
      <trkpt lat="45.9384" lon="4.78004">
        <ele>180</ele>
        <time>2017-06-28T08:14:35Z</time>
      </trkpt>
      <trkpt lat="45.93839" lon="4.7801">
        <ele>181</ele>
        <time>2017-06-28T08:14:36Z</time>
      </trkpt>
      <trkpt lat="45.93839" lon="4.78018">
        <ele>181</ele>
        <time>2017-06-28T08:14:37Z</time>
      </trkpt>
      <trkpt lat="45.9384" lon="4.78025">
        <ele>182</ele>
        <time>2017-06-28T08:14:38Z</time>
      </trkpt>
      <trkpt lat="45.93842" lon="4.78033">
        <ele>182</ele>
        <time>2017-06-28T08:14:39Z</time>
      </trkpt>
      <trkpt lat="45.93845" lon="4.7804">
        <ele>182</ele>
        <time>2017-06-28T08:14:40Z</time>
      </trkpt>
      <trkpt lat="45.93846" lon="4.78047">
        <ele>182</ele>
        <time>2017-06-28T08:14:41Z</time>
      </trkpt>
      <trkpt lat="45.93847" lon="4.78054">
        <ele>182</ele>
        <time>2017-06-28T08:14:42Z</time>
      </trkpt>
      <trkpt lat="45.93846" lon="4.78061">
        <ele>182</ele>
        <time>2017-06-28T08:14:43Z</time>
      </trkpt>
      <trkpt lat="45.93845" lon="4.78068">
        <ele>182</ele>
        <time>2017-06-28T08:14:44Z</time>
      </trkpt>
      <trkpt lat="45.93844" lon="4.78074">
        <ele>182</ele>
        <time>2017-06-28T08:14:45Z</time>
      </trkpt>
      <trkpt lat="45.93842" lon="4.7808">
        <ele>181</ele>
        <time>2017-06-28T08:14:46Z</time>
      </trkpt>
      <trkpt lat="45.93841" lon="4.78087">
        <ele>182</ele>
        <time>2017-06-28T08:14:47Z</time>
      </trkpt>
      <trkpt lat="45.9384" lon="4.78093">
        <ele>182</ele>
        <time>2017-06-28T08:14:48Z</time>
      </trkpt>
      <trkpt lat="45.93838" lon="4.78099">
        <ele>183</ele>
        <time>2017-06-28T08:14:49Z</time>
      </trkpt>
      <trkpt lat="45.93837" lon="4.78105">
        <ele>183</ele>
        <time>2017-06-28T08:14:50Z</time>
      </trkpt>
      <trkpt lat="45.93836" lon="4.78112">
        <ele>184</ele>
        <time>2017-06-28T08:14:51Z</time>
      </trkpt>
      <trkpt lat="45.93835" lon="4.78119">
        <ele>184</ele>
        <time>2017-06-28T08:14:52Z</time>
      </trkpt>
      <trkpt lat="45.93833" lon="4.78126">
        <ele>180</ele>
        <time>2017-06-28T08:14:53Z</time>
      </trkpt>
      <trkpt lat="45.93831" lon="4.78132">
        <ele>180</ele>
        <time>2017-06-28T08:14:54Z</time>
      </trkpt>
      <trkpt lat="45.93829" lon="4.78138">
        <ele>180</ele>
        <time>2017-06-28T08:14:55Z</time>
      </trkpt>
      <trkpt lat="45.93828" lon="4.78145">
        <ele>180</ele>
        <time>2017-06-28T08:14:56Z</time>
      </trkpt>
      <trkpt lat="45.93825" lon="4.78156">
        <ele>181</ele>
        <time>2017-06-28T08:14:58Z</time>
      </trkpt>
      <trkpt lat="45.93823" lon="4.78162">
        <ele>181</ele>
        <time>2017-06-28T08:14:59Z</time>
      </trkpt>
      <trkpt lat="45.9382" lon="4.78173">
        <ele>182</ele>
        <time>2017-06-28T08:15:01Z</time>
      </trkpt>
      <trkpt lat="45.93819" lon="4.78178">
        <ele>182</ele>
        <time>2017-06-28T08:15:02Z</time>
      </trkpt>
      <trkpt lat="45.93816" lon="4.7819">
        <ele>182</ele>
        <time>2017-06-28T08:15:04Z</time>
      </trkpt>
      <trkpt lat="45.93814" lon="4.78196">
        <ele>182</ele>
        <time>2017-06-28T08:15:05Z</time>
      </trkpt>
      <trkpt lat="45.93812" lon="4.78208">
        <ele>182</ele>
        <time>2017-06-28T08:15:07Z</time>
      </trkpt>
      <trkpt lat="45.9381" lon="4.78214">
        <ele>182</ele>
        <time>2017-06-28T08:15:08Z</time>
      </trkpt>
      <trkpt lat="45.93807" lon="4.78225">
        <ele>182</ele>
        <time>2017-06-28T08:15:10Z</time>
      </trkpt>
      <trkpt lat="45.93806" lon="4.7823">
        <ele>182</ele>
        <time>2017-06-28T08:15:11Z</time>
      </trkpt>
      <trkpt lat="45.93803" lon="4.78241">
        <ele>182</ele>
        <time>2017-06-28T08:15:13Z</time>
      </trkpt>
      <trkpt lat="45.938" lon="4.78248">
        <ele>182</ele>
        <time>2017-06-28T08:15:14Z</time>
      </trkpt>
      <trkpt lat="45.93797" lon="4.78255">
        <ele>183</ele>
        <time>2017-06-28T08:15:15Z</time>
      </trkpt>
      <trkpt lat="45.93794" lon="4.78262">
        <ele>183</ele>
        <time>2017-06-28T08:15:16Z</time>
      </trkpt>
      <trkpt lat="45.93792" lon="4.78269">
        <ele>183</ele>
        <time>2017-06-28T08:15:17Z</time>
      </trkpt>
      <trkpt lat="45.93789" lon="4.78277">
        <ele>183</ele>
        <time>2017-06-28T08:15:18Z</time>
      </trkpt>
      <trkpt lat="45.93787" lon="4.78283">
        <ele>183</ele>
        <time>2017-06-28T08:15:19Z</time>
      </trkpt>
      <trkpt lat="45.93785" lon="4.7829">
        <ele>183</ele>
        <time>2017-06-28T08:15:20Z</time>
      </trkpt>
      <trkpt lat="45.93783" lon="4.78296">
        <ele>183</ele>
        <time>2017-06-28T08:15:21Z</time>
      </trkpt>
      <trkpt lat="45.93782" lon="4.78302">
        <ele>183</ele>
        <time>2017-06-28T08:15:22Z</time>
      </trkpt>
      <trkpt lat="45.9378" lon="4.78309">
        <ele>183</ele>
        <time>2017-06-28T08:15:23Z</time>
      </trkpt>
      <trkpt lat="45.93778" lon="4.78316">
        <ele>183</ele>
        <time>2017-06-28T08:15:24Z</time>
      </trkpt>
      <trkpt lat="45.93776" lon="4.78323">
        <ele>183</ele>
        <time>2017-06-28T08:15:25Z</time>
      </trkpt>
      <trkpt lat="45.93774" lon="4.78331">
        <ele>183</ele>
        <time>2017-06-28T08:15:26Z</time>
      </trkpt>
      <trkpt lat="45.93772" lon="4.78339">
        <ele>183</ele>
        <time>2017-06-28T08:15:27Z</time>
      </trkpt>
      <trkpt lat="45.9377" lon="4.78346">
        <ele>183</ele>
        <time>2017-06-28T08:15:28Z</time>
      </trkpt>
      <trkpt lat="45.93768" lon="4.78354">
        <ele>183</ele>
        <time>2017-06-28T08:15:29Z</time>
      </trkpt>
      <trkpt lat="45.93766" lon="4.78362">
        <ele>183</ele>
        <time>2017-06-28T08:15:30Z</time>
      </trkpt>
      <trkpt lat="45.93765" lon="4.78369">
        <ele>183</ele>
        <time>2017-06-28T08:15:31Z</time>
      </trkpt>
      <trkpt lat="45.93763" lon="4.78377">
        <ele>183</ele>
        <time>2017-06-28T08:15:32Z</time>
      </trkpt>
      <trkpt lat="45.93761" lon="4.78385">
        <ele>183</ele>
        <time>2017-06-28T08:15:33Z</time>
      </trkpt>
      <trkpt lat="45.9376" lon="4.78393">
        <ele>183</ele>
        <time>2017-06-28T08:15:34Z</time>
      </trkpt>
      <trkpt lat="45.9376" lon="4.784">
        <ele>183</ele>
        <time>2017-06-28T08:15:35Z</time>
      </trkpt>
      <trkpt lat="45.93757" lon="4.78408">
        <ele>182</ele>
        <time>2017-06-28T08:15:36Z</time>
      </trkpt>
      <trkpt lat="45.93754" lon="4.78417">
        <ele>182</ele>
        <time>2017-06-28T08:15:37Z</time>
      </trkpt>
      <trkpt lat="45.93751" lon="4.78425">
        <ele>182</ele>
        <time>2017-06-28T08:15:38Z</time>
      </trkpt>
      <trkpt lat="45.93749" lon="4.78434">
        <ele>180</ele>
        <time>2017-06-28T08:15:39Z</time>
      </trkpt>
      <trkpt lat="45.93747" lon="4.78443">
        <ele>180</ele>
        <time>2017-06-28T08:15:40Z</time>
      </trkpt>
      <trkpt lat="45.93747" lon="4.78452">
        <ele>180</ele>
        <time>2017-06-28T08:15:41Z</time>
      </trkpt>
      <trkpt lat="45.93745" lon="4.78461">
        <ele>180</ele>
        <time>2017-06-28T08:15:42Z</time>
      </trkpt>
      <trkpt lat="45.93743" lon="4.78471">
        <ele>180</ele>
        <time>2017-06-28T08:15:43Z</time>
      </trkpt>
      <trkpt lat="45.93735" lon="4.78479">
        <ele>180</ele>
        <time>2017-06-28T08:15:44Z</time>
      </trkpt>
      <trkpt lat="45.93731" lon="4.78489">
        <ele>180</ele>
        <time>2017-06-28T08:15:45Z</time>
      </trkpt>
      <trkpt lat="45.93727" lon="4.78498">
        <ele>180</ele>
        <time>2017-06-28T08:15:46Z</time>
      </trkpt>
      <trkpt lat="45.93723" lon="4.78507">
        <ele>179</ele>
        <time>2017-06-28T08:15:47Z</time>
      </trkpt>
      <trkpt lat="45.93721" lon="4.78518">
        <ele>179</ele>
        <time>2017-06-28T08:15:48Z</time>
      </trkpt>
      <trkpt lat="45.93719" lon="4.78528">
        <ele>178</ele>
        <time>2017-06-28T08:15:49Z</time>
      </trkpt>
      <trkpt lat="45.93716" lon="4.78538">
        <ele>178</ele>
        <time>2017-06-28T08:15:50Z</time>
      </trkpt>
      <trkpt lat="45.93714" lon="4.78548">
        <ele>178</ele>
        <time>2017-06-28T08:15:51Z</time>
      </trkpt>
      <trkpt lat="45.93711" lon="4.78557">
        <ele>178</ele>
        <time>2017-06-28T08:15:52Z</time>
      </trkpt>
      <trkpt lat="45.93709" lon="4.78567">
        <ele>177</ele>
        <time>2017-06-28T08:15:53Z</time>
      </trkpt>
      <trkpt lat="45.93707" lon="4.78577">
        <ele>177</ele>
        <time>2017-06-28T08:15:54Z</time>
      </trkpt>
      <trkpt lat="45.93706" lon="4.78586">
        <ele>176</ele>
        <time>2017-06-28T08:15:55Z</time>
      </trkpt>
      <trkpt lat="45.93705" lon="4.78594">
        <ele>176</ele>
        <time>2017-06-28T08:15:56Z</time>
      </trkpt>
      <trkpt lat="45.93704" lon="4.78601">
        <ele>176</ele>
        <time>2017-06-28T08:15:57Z</time>
      </trkpt>
      <trkpt lat="45.93702" lon="4.78607">
        <ele>176</ele>
        <time>2017-06-28T08:15:58Z</time>
      </trkpt>
      <trkpt lat="45.93699" lon="4.78614">
        <ele>176</ele>
        <time>2017-06-28T08:15:59Z</time>
      </trkpt>
      <trkpt lat="45.93697" lon="4.78621">
        <ele>176</ele>
        <time>2017-06-28T08:16:00Z</time>
      </trkpt>
      <trkpt lat="45.93698" lon="4.78633">
        <ele>176</ele>
        <time>2017-06-28T08:16:02Z</time>
      </trkpt>
      <trkpt lat="45.93702" lon="4.78636">
        <ele>176</ele>
        <time>2017-06-28T08:16:03Z</time>
      </trkpt>
      <trkpt lat="45.93709" lon="4.78636">
        <ele>176</ele>
        <time>2017-06-28T08:16:05Z</time>
      </trkpt>
      <trkpt lat="45.93712" lon="4.78634">
        <ele>176</ele>
        <time>2017-06-28T08:16:06Z</time>
      </trkpt>
      <trkpt lat="45.93719" lon="4.78632">
        <ele>177</ele>
        <time>2017-06-28T08:16:08Z</time>
      </trkpt>
      <trkpt lat="45.93722" lon="4.78632">
        <ele>177</ele>
        <time>2017-06-28T08:16:09Z</time>
      </trkpt>
      <trkpt lat="45.93728" lon="4.7863">
        <ele>177</ele>
        <time>2017-06-28T08:16:11Z</time>
      </trkpt>
      <trkpt lat="45.93732" lon="4.78629">
        <ele>177</ele>
        <time>2017-06-28T08:16:12Z</time>
      </trkpt>
      <trkpt lat="45.9374" lon="4.78628">
        <ele>177</ele>
        <time>2017-06-28T08:16:14Z</time>
      </trkpt>
      <trkpt lat="45.93744" lon="4.78627">
        <ele>177</ele>
        <time>2017-06-28T08:16:15Z</time>
      </trkpt>
      <trkpt lat="45.9375" lon="4.78625">
        <ele>178</ele>
        <time>2017-06-28T08:16:17Z</time>
      </trkpt>
      <trkpt lat="45.93753" lon="4.78624">
        <ele>181</ele>
        <time>2017-06-28T08:16:18Z</time>
      </trkpt>
      <trkpt lat="45.9376" lon="4.78622">
        <ele>181</ele>
        <time>2017-06-28T08:16:20Z</time>
      </trkpt>
      <trkpt lat="45.93764" lon="4.78622">
        <ele>181</ele>
        <time>2017-06-28T08:16:21Z</time>
      </trkpt>
      <trkpt lat="45.93772" lon="4.78617">
        <ele>181</ele>
        <time>2017-06-28T08:16:23Z</time>
      </trkpt>
      <trkpt lat="45.93776" lon="4.78616">
        <ele>181</ele>
        <time>2017-06-28T08:16:24Z</time>
      </trkpt>
      <trkpt lat="45.93782" lon="4.78615">
        <ele>181</ele>
        <time>2017-06-28T08:16:26Z</time>
      </trkpt>
      <trkpt lat="45.93785" lon="4.78614">
        <ele>182</ele>
        <time>2017-06-28T08:16:27Z</time>
      </trkpt>
      <trkpt lat="45.93793" lon="4.78614">
        <ele>182</ele>
        <time>2017-06-28T08:16:29Z</time>
      </trkpt>
      <trkpt lat="45.93797" lon="4.78613">
        <ele>182</ele>
        <time>2017-06-28T08:16:30Z</time>
      </trkpt>
      <trkpt lat="45.93805" lon="4.78611">
        <ele>183</ele>
        <time>2017-06-28T08:16:32Z</time>
      </trkpt>
      <trkpt lat="45.93809" lon="4.7861">
        <ele>183</ele>
        <time>2017-06-28T08:16:33Z</time>
      </trkpt>
      <trkpt lat="45.93816" lon="4.78608">
        <ele>183</ele>
        <time>2017-06-28T08:16:35Z</time>
      </trkpt>
      <trkpt lat="45.93819" lon="4.78607">
        <ele>183</ele>
        <time>2017-06-28T08:16:36Z</time>
      </trkpt>
      <trkpt lat="45.93826" lon="4.78606">
        <ele>184</ele>
        <time>2017-06-28T08:16:38Z</time>
      </trkpt>
      <trkpt lat="45.93829" lon="4.78605">
        <ele>184</ele>
        <time>2017-06-28T08:16:39Z</time>
      </trkpt>
      <trkpt lat="45.93837" lon="4.78604">
        <ele>187</ele>
        <time>2017-06-28T08:16:42Z</time>
      </trkpt>
      <trkpt lat="45.93841" lon="4.78605">
        <ele>188</ele>
        <time>2017-06-28T08:16:43Z</time>
      </trkpt>
      <trkpt lat="45.93847" lon="4.78606">
        <ele>188</ele>
        <time>2017-06-28T08:16:45Z</time>
      </trkpt>
      <trkpt lat="45.9385" lon="4.78606">
        <ele>188</ele>
        <time>2017-06-28T08:16:46Z</time>
      </trkpt>
      <trkpt lat="45.93857" lon="4.78604">
        <ele>188</ele>
        <time>2017-06-28T08:16:48Z</time>
      </trkpt>
      <trkpt lat="45.9386" lon="4.78603">
        <ele>188</ele>
        <time>2017-06-28T08:16:49Z</time>
      </trkpt>
      <trkpt lat="45.93869" lon="4.78601">
        <ele>188</ele>
        <time>2017-06-28T08:16:52Z</time>
      </trkpt>
      <trkpt lat="45.93872" lon="4.78601">
        <ele>189</ele>
        <time>2017-06-28T08:16:53Z</time>
      </trkpt>
      <trkpt lat="45.93881" lon="4.786">
        <ele>189</ele>
        <time>2017-06-28T08:16:56Z</time>
      </trkpt>
      <trkpt lat="45.93884" lon="4.786">
        <ele>189</ele>
        <time>2017-06-28T08:16:57Z</time>
      </trkpt>
      <trkpt lat="45.93892" lon="4.78598">
        <ele>190</ele>
        <time>2017-06-28T08:17:00Z</time>
      </trkpt>
      <trkpt lat="45.93895" lon="4.78597">
        <ele>190</ele>
        <time>2017-06-28T08:17:01Z</time>
      </trkpt>
      <trkpt lat="45.93901" lon="4.78594">
        <ele>190</ele>
        <time>2017-06-28T08:17:03Z</time>
      </trkpt>
      <trkpt lat="45.93904" lon="4.78592">
        <ele>191</ele>
        <time>2017-06-28T08:17:04Z</time>
      </trkpt>
      <trkpt lat="45.93911" lon="4.78586">
        <ele>192</ele>
        <time>2017-06-28T08:17:06Z</time>
      </trkpt>
      <trkpt lat="45.93914" lon="4.78582">
        <ele>193</ele>
        <time>2017-06-28T08:17:07Z</time>
      </trkpt>
      <trkpt lat="45.93921" lon="4.78577">
        <ele>194</ele>
        <time>2017-06-28T08:17:09Z</time>
      </trkpt>
      <trkpt lat="45.93924" lon="4.78576">
        <ele>195</ele>
        <time>2017-06-28T08:17:10Z</time>
      </trkpt>
      <trkpt lat="45.9393" lon="4.78582">
        <ele>195</ele>
        <time>2017-06-28T08:17:14Z</time>
      </trkpt>
      <trkpt lat="45.93932" lon="4.78587">
        <ele>195</ele>
        <time>2017-06-28T08:17:15Z</time>
      </trkpt>
      <trkpt lat="45.93934" lon="4.78596">
        <ele>195</ele>
        <time>2017-06-28T08:17:17Z</time>
      </trkpt>
      <trkpt lat="45.93935" lon="4.78601">
        <ele>195</ele>
        <time>2017-06-28T08:17:18Z</time>
      </trkpt>
      <trkpt lat="45.93935" lon="4.78611">
        <ele>196</ele>
        <time>2017-06-28T08:17:20Z</time>
      </trkpt>
      <trkpt lat="45.93936" lon="4.78616">
        <ele>196</ele>
        <time>2017-06-28T08:17:21Z</time>
      </trkpt>
      <trkpt lat="45.93936" lon="4.78626">
        <ele>195</ele>
        <time>2017-06-28T08:17:23Z</time>
      </trkpt>
      <trkpt lat="45.93936" lon="4.78631">
        <ele>195</ele>
        <time>2017-06-28T08:17:24Z</time>
      </trkpt>
      <trkpt lat="45.93937" lon="4.78641">
        <ele>195</ele>
        <time>2017-06-28T08:17:26Z</time>
      </trkpt>
      <trkpt lat="45.93935" lon="4.78645">
        <ele>195</ele>
        <time>2017-06-28T08:17:27Z</time>
      </trkpt>
      <trkpt lat="45.93934" lon="4.78655">
        <ele>194</ele>
        <time>2017-06-28T08:17:29Z</time>
      </trkpt>
      <trkpt lat="45.93935" lon="4.78661">
        <ele>194</ele>
        <time>2017-06-28T08:17:30Z</time>
      </trkpt>
      <trkpt lat="45.93937" lon="4.78671">
        <ele>193</ele>
        <time>2017-06-28T08:17:32Z</time>
      </trkpt>
      <trkpt lat="45.93937" lon="4.78676">
        <ele>193</ele>
        <time>2017-06-28T08:17:33Z</time>
      </trkpt>
      <trkpt lat="45.93938" lon="4.78686">
        <ele>194</ele>
        <time>2017-06-28T08:17:35Z</time>
      </trkpt>
      <trkpt lat="45.93938" lon="4.78691">
        <ele>194</ele>
        <time>2017-06-28T08:17:36Z</time>
      </trkpt>
      <trkpt lat="45.93938" lon="4.78702">
        <ele>194</ele>
        <time>2017-06-28T08:17:38Z</time>
      </trkpt>
      <trkpt lat="45.93938" lon="4.78708">
        <ele>194</ele>
        <time>2017-06-28T08:17:39Z</time>
      </trkpt>
      <trkpt lat="45.93938" lon="4.78719">
        <ele>194</ele>
        <time>2017-06-28T08:17:41Z</time>
      </trkpt>
      <trkpt lat="45.93938" lon="4.78725">
        <ele>194</ele>
        <time>2017-06-28T08:17:42Z</time>
      </trkpt>
      <trkpt lat="45.93938" lon="4.78737">
        <ele>193</ele>
        <time>2017-06-28T08:17:44Z</time>
      </trkpt>
      <trkpt lat="45.93939" lon="4.78744">
        <ele>193</ele>
        <time>2017-06-28T08:17:45Z</time>
      </trkpt>
      <trkpt lat="45.93938" lon="4.78749">
        <ele>193</ele>
        <time>2017-06-28T08:17:46Z</time>
      </trkpt>
      <trkpt lat="45.93934" lon="4.78755">
        <ele>193</ele>
        <time>2017-06-28T08:17:47Z</time>
      </trkpt>
      <trkpt lat="45.93934" lon="4.78761">
        <ele>193</ele>
        <time>2017-06-28T08:17:48Z</time>
      </trkpt>
      <trkpt lat="45.93935" lon="4.78768">
        <ele>193</ele>
        <time>2017-06-28T08:17:49Z</time>
      </trkpt>
      <trkpt lat="45.93936" lon="4.78775">
        <ele>194</ele>
        <time>2017-06-28T08:17:50Z</time>
      </trkpt>
      <trkpt lat="45.93936" lon="4.78782">
        <ele>194</ele>
        <time>2017-06-28T08:17:51Z</time>
      </trkpt>
      <trkpt lat="45.93937" lon="4.78795">
        <ele>194</ele>
        <time>2017-06-28T08:17:53Z</time>
      </trkpt>
      <trkpt lat="45.93937" lon="4.78801">
        <ele>194</ele>
        <time>2017-06-28T08:17:54Z</time>
      </trkpt>
      <trkpt lat="45.93936" lon="4.78814">
        <ele>194</ele>
        <time>2017-06-28T08:17:56Z</time>
      </trkpt>
      <trkpt lat="45.93935" lon="4.78819">
        <ele>193</ele>
        <time>2017-06-28T08:17:57Z</time>
      </trkpt>
      <trkpt lat="45.93935" lon="4.7883">
        <ele>193</ele>
        <time>2017-06-28T08:17:59Z</time>
      </trkpt>
      <trkpt lat="45.93935" lon="4.78836">
        <ele>193</ele>
        <time>2017-06-28T08:18:00Z</time>
      </trkpt>
      <trkpt lat="45.93934" lon="4.78848">
        <ele>193</ele>
        <time>2017-06-28T08:18:02Z</time>
      </trkpt>
      <trkpt lat="45.93935" lon="4.78854">
        <ele>193</ele>
        <time>2017-06-28T08:18:03Z</time>
      </trkpt>
      <trkpt lat="45.93937" lon="4.78867">
        <ele>194</ele>
        <time>2017-06-28T08:18:05Z</time>
      </trkpt>
      <trkpt lat="45.93937" lon="4.78872">
        <ele>194</ele>
        <time>2017-06-28T08:18:06Z</time>
      </trkpt>
      <trkpt lat="45.93938" lon="4.78884">
        <ele>193</ele>
        <time>2017-06-28T08:18:08Z</time>
      </trkpt>
      <trkpt lat="45.93938" lon="4.7889">
        <ele>193</ele>
        <time>2017-06-28T08:18:09Z</time>
      </trkpt>
      <trkpt lat="45.93937" lon="4.78902">
        <ele>193</ele>
        <time>2017-06-28T08:18:11Z</time>
      </trkpt>
      <trkpt lat="45.93938" lon="4.78908">
        <ele>193</ele>
        <time>2017-06-28T08:18:12Z</time>
      </trkpt>
      <trkpt lat="45.93939" lon="4.78915">
        <ele>193</ele>
        <time>2017-06-28T08:18:13Z</time>
      </trkpt>
      <trkpt lat="45.9394" lon="4.78921">
        <ele>193</ele>
        <time>2017-06-28T08:18:14Z</time>
      </trkpt>
      <trkpt lat="45.93941" lon="4.78928">
        <ele>193</ele>
        <time>2017-06-28T08:18:15Z</time>
      </trkpt>
      <trkpt lat="45.93941" lon="4.78934">
        <ele>193</ele>
        <time>2017-06-28T08:18:16Z</time>
      </trkpt>
      <trkpt lat="45.93938" lon="4.78946">
        <ele>193</ele>
        <time>2017-06-28T08:18:18Z</time>
      </trkpt>
      <trkpt lat="45.93938" lon="4.78952">
        <ele>194</ele>
        <time>2017-06-28T08:18:19Z</time>
      </trkpt>
      <trkpt lat="45.93939" lon="4.78965">
        <ele>194</ele>
        <time>2017-06-28T08:18:21Z</time>
      </trkpt>
      <trkpt lat="45.93939" lon="4.78971">
        <ele>194</ele>
        <time>2017-06-28T08:18:22Z</time>
      </trkpt>
      <trkpt lat="45.9394" lon="4.78984">
        <ele>193</ele>
        <time>2017-06-28T08:18:24Z</time>
      </trkpt>
      <trkpt lat="45.9394" lon="4.7899">
        <ele>193</ele>
        <time>2017-06-28T08:18:25Z</time>
      </trkpt>
      <trkpt lat="45.93941" lon="4.78997">
        <ele>193</ele>
        <time>2017-06-28T08:18:26Z</time>
      </trkpt>
      <trkpt lat="45.93941" lon="4.79003">
        <ele>194</ele>
        <time>2017-06-28T08:18:27Z</time>
      </trkpt>
      <trkpt lat="45.93942" lon="4.7901">
        <ele>194</ele>
        <time>2017-06-28T08:18:28Z</time>
      </trkpt>
      <trkpt lat="45.93942" lon="4.79016">
        <ele>195</ele>
        <time>2017-06-28T08:18:29Z</time>
      </trkpt>
      <trkpt lat="45.93942" lon="4.79029">
        <ele>195</ele>
        <time>2017-06-28T08:18:31Z</time>
      </trkpt>
      <trkpt lat="45.93943" lon="4.79035">
        <ele>195</ele>
        <time>2017-06-28T08:18:32Z</time>
      </trkpt>
      <trkpt lat="45.93943" lon="4.79047">
        <ele>195</ele>
        <time>2017-06-28T08:18:34Z</time>
      </trkpt>
      <trkpt lat="45.93943" lon="4.79053">
        <ele>195</ele>
        <time>2017-06-28T08:18:35Z</time>
      </trkpt>
      <trkpt lat="45.93944" lon="4.79063">
        <ele>195</ele>
        <time>2017-06-28T08:18:37Z</time>
      </trkpt>
      <trkpt lat="45.93945" lon="4.79068">
        <ele>195</ele>
        <time>2017-06-28T08:18:38Z</time>
      </trkpt>
      <trkpt lat="45.93945" lon="4.79079">
        <ele>195</ele>
        <time>2017-06-28T08:18:40Z</time>
      </trkpt>
      <trkpt lat="45.93945" lon="4.79085">
        <ele>196</ele>
        <time>2017-06-28T08:18:41Z</time>
      </trkpt>
      <trkpt lat="45.93946" lon="4.79096">
        <ele>196</ele>
        <time>2017-06-28T08:18:43Z</time>
      </trkpt>
      <trkpt lat="45.93946" lon="4.79102">
        <ele>196</ele>
        <time>2017-06-28T08:18:44Z</time>
      </trkpt>
      <trkpt lat="45.93948" lon="4.79114">
        <ele>197</ele>
        <time>2017-06-28T08:18:46Z</time>
      </trkpt>
      <trkpt lat="45.9395" lon="4.79121">
        <ele>197</ele>
        <time>2017-06-28T08:18:47Z</time>
      </trkpt>
      <trkpt lat="45.93944" lon="4.79125">
        <ele>196</ele>
        <time>2017-06-28T08:18:48Z</time>
      </trkpt>
      <trkpt lat="45.93944" lon="4.79131">
        <ele>196</ele>
        <time>2017-06-28T08:18:49Z</time>
      </trkpt>
      <trkpt lat="45.93943" lon="4.79142">
        <ele>196</ele>
        <time>2017-06-28T08:18:51Z</time>
      </trkpt>
      <trkpt lat="45.93943" lon="4.79148">
        <ele>196</ele>
        <time>2017-06-28T08:18:52Z</time>
      </trkpt>
      <trkpt lat="45.93944" lon="4.79159">
        <ele>196</ele>
        <time>2017-06-28T08:18:54Z</time>
      </trkpt>
      <trkpt lat="45.93944" lon="4.79165">
        <ele>196</ele>
        <time>2017-06-28T08:18:55Z</time>
      </trkpt>
      <trkpt lat="45.93943" lon="4.79178">
        <ele>196</ele>
        <time>2017-06-28T08:18:57Z</time>
      </trkpt>
      <trkpt lat="45.93943" lon="4.79184">
        <ele>196</ele>
        <time>2017-06-28T08:18:58Z</time>
      </trkpt>
      <trkpt lat="45.93944" lon="4.79196">
        <ele>196</ele>
        <time>2017-06-28T08:19:00Z</time>
      </trkpt>
      <trkpt lat="45.93944" lon="4.79202">
        <ele>197</ele>
        <time>2017-06-28T08:19:01Z</time>
      </trkpt>
      <trkpt lat="45.93944" lon="4.79215">
        <ele>197</ele>
        <time>2017-06-28T08:19:03Z</time>
      </trkpt>
      <trkpt lat="45.93944" lon="4.7922">
        <ele>197</ele>
        <time>2017-06-28T08:19:04Z</time>
      </trkpt>
      <trkpt lat="45.93944" lon="4.79231">
        <ele>196</ele>
        <time>2017-06-28T08:19:06Z</time>
      </trkpt>
      <trkpt lat="45.93944" lon="4.79237">
        <ele>196</ele>
        <time>2017-06-28T08:19:07Z</time>
      </trkpt>
      <trkpt lat="45.93945" lon="4.79248">
        <ele>196</ele>
        <time>2017-06-28T08:19:09Z</time>
      </trkpt>
      <trkpt lat="45.93945" lon="4.79253">
        <ele>197</ele>
        <time>2017-06-28T08:19:10Z</time>
      </trkpt>
      <trkpt lat="45.93946" lon="4.79265">
        <ele>197</ele>
        <time>2017-06-28T08:19:12Z</time>
      </trkpt>
      <trkpt lat="45.93947" lon="4.79271">
        <ele>197</ele>
        <time>2017-06-28T08:19:13Z</time>
      </trkpt>
      <trkpt lat="45.93947" lon="4.79281">
        <ele>198</ele>
        <time>2017-06-28T08:19:15Z</time>
      </trkpt>
      <trkpt lat="45.93947" lon="4.79287">
        <ele>198</ele>
        <time>2017-06-28T08:19:16Z</time>
      </trkpt>
      <trkpt lat="45.93949" lon="4.79298">
        <ele>198</ele>
        <time>2017-06-28T08:19:18Z</time>
      </trkpt>
      <trkpt lat="45.93951" lon="4.79303">
        <ele>198</ele>
        <time>2017-06-28T08:19:19Z</time>
      </trkpt>
      <trkpt lat="45.93953" lon="4.79314">
        <ele>199</ele>
        <time>2017-06-28T08:19:21Z</time>
      </trkpt>
      <trkpt lat="45.93949" lon="4.79319">
        <ele>198</ele>
        <time>2017-06-28T08:19:22Z</time>
      </trkpt>
      <trkpt lat="45.93949" lon="4.7933">
        <ele>198</ele>
        <time>2017-06-28T08:19:24Z</time>
      </trkpt>
      <trkpt lat="45.9395" lon="4.79335">
        <ele>200</ele>
        <time>2017-06-28T08:19:25Z</time>
      </trkpt>
      <trkpt lat="45.9395" lon="4.79346">
        <ele>200</ele>
        <time>2017-06-28T08:19:27Z</time>
      </trkpt>
      <trkpt lat="45.93951" lon="4.79351">
        <ele>200</ele>
        <time>2017-06-28T08:19:28Z</time>
      </trkpt>
      <trkpt lat="45.9395" lon="4.79363">
        <ele>200</ele>
        <time>2017-06-28T08:19:30Z</time>
      </trkpt>
      <trkpt lat="45.9395" lon="4.79368">
        <ele>201</ele>
        <time>2017-06-28T08:19:31Z</time>
      </trkpt>
      <trkpt lat="45.93951" lon="4.7938">
        <ele>201</ele>
        <time>2017-06-28T08:19:33Z</time>
      </trkpt>
      <trkpt lat="45.93952" lon="4.79385">
        <ele>201</ele>
        <time>2017-06-28T08:19:34Z</time>
      </trkpt>
      <trkpt lat="45.93951" lon="4.79396">
        <ele>201</ele>
        <time>2017-06-28T08:19:36Z</time>
      </trkpt>
      <trkpt lat="45.93951" lon="4.79401">
        <ele>201</ele>
        <time>2017-06-28T08:19:37Z</time>
      </trkpt>
      <trkpt lat="45.93951" lon="4.79413">
        <ele>201</ele>
        <time>2017-06-28T08:19:39Z</time>
      </trkpt>
      <trkpt lat="45.93952" lon="4.79418">
        <ele>202</ele>
        <time>2017-06-28T08:19:40Z</time>
      </trkpt>
      <trkpt lat="45.93951" lon="4.79429">
        <ele>202</ele>
        <time>2017-06-28T08:19:42Z</time>
      </trkpt>
      <trkpt lat="45.93952" lon="4.79435">
        <ele>202</ele>
        <time>2017-06-28T08:19:43Z</time>
      </trkpt>
      <trkpt lat="45.93951" lon="4.79446">
        <ele>202</ele>
        <time>2017-06-28T08:19:45Z</time>
      </trkpt>
      <trkpt lat="45.93951" lon="4.79451">
        <ele>202</ele>
        <time>2017-06-28T08:19:46Z</time>
      </trkpt>
      <trkpt lat="45.93951" lon="4.79463">
        <ele>202</ele>
        <time>2017-06-28T08:19:48Z</time>
      </trkpt>
      <trkpt lat="45.9395" lon="4.7947">
        <ele>202</ele>
        <time>2017-06-28T08:19:49Z</time>
      </trkpt>
      <trkpt lat="45.9395" lon="4.79481">
        <ele>202</ele>
        <time>2017-06-28T08:19:51Z</time>
      </trkpt>
      <trkpt lat="45.9395" lon="4.79486">
        <ele>202</ele>
        <time>2017-06-28T08:19:52Z</time>
      </trkpt>
      <trkpt lat="45.9395" lon="4.79497">
        <ele>202</ele>
        <time>2017-06-28T08:19:54Z</time>
      </trkpt>
      <trkpt lat="45.93951" lon="4.79502">
        <ele>204</ele>
        <time>2017-06-28T08:19:55Z</time>
      </trkpt>
      <trkpt lat="45.93951" lon="4.79512">
        <ele>204</ele>
        <time>2017-06-28T08:19:57Z</time>
      </trkpt>
      <trkpt lat="45.93951" lon="4.79518">
        <ele>204</ele>
        <time>2017-06-28T08:19:58Z</time>
      </trkpt>
      <trkpt lat="45.93953" lon="4.79529">
        <ele>204</ele>
        <time>2017-06-28T08:20:00Z</time>
      </trkpt>
      <trkpt lat="45.93953" lon="4.79534">
        <ele>204</ele>
        <time>2017-06-28T08:20:01Z</time>
      </trkpt>
      <trkpt lat="45.93952" lon="4.79544">
        <ele>205</ele>
        <time>2017-06-28T08:20:03Z</time>
      </trkpt>
      <trkpt lat="45.93952" lon="4.79549">
        <ele>205</ele>
        <time>2017-06-28T08:20:04Z</time>
      </trkpt>
      <trkpt lat="45.93953" lon="4.79558">
        <ele>205</ele>
        <time>2017-06-28T08:20:06Z</time>
      </trkpt>
      <trkpt lat="45.93953" lon="4.79563">
        <ele>205</ele>
        <time>2017-06-28T08:20:07Z</time>
      </trkpt>
      <trkpt lat="45.93952" lon="4.79573">
        <ele>205</ele>
        <time>2017-06-28T08:20:09Z</time>
      </trkpt>
      <trkpt lat="45.93953" lon="4.79579">
        <ele>205</ele>
        <time>2017-06-28T08:20:10Z</time>
      </trkpt>
      <trkpt lat="45.93953" lon="4.79589">
        <ele>206</ele>
        <time>2017-06-28T08:20:12Z</time>
      </trkpt>
      <trkpt lat="45.93954" lon="4.79593">
        <ele>206</ele>
        <time>2017-06-28T08:20:13Z</time>
      </trkpt>
      <trkpt lat="45.93956" lon="4.79603">
        <ele>206</ele>
        <time>2017-06-28T08:20:15Z</time>
      </trkpt>
      <trkpt lat="45.93956" lon="4.79608">
        <ele>207</ele>
        <time>2017-06-28T08:20:16Z</time>
      </trkpt>
      <trkpt lat="45.93957" lon="4.79619">
        <ele>207</ele>
        <time>2017-06-28T08:20:18Z</time>
      </trkpt>
      <trkpt lat="45.93958" lon="4.79624">
        <ele>207</ele>
        <time>2017-06-28T08:20:19Z</time>
      </trkpt>
      <trkpt lat="45.93961" lon="4.79629">
        <ele>207</ele>
        <time>2017-06-28T08:20:20Z</time>
      </trkpt>
      <trkpt lat="45.93964" lon="4.79634">
        <ele>207</ele>
        <time>2017-06-28T08:20:21Z</time>
      </trkpt>
      <trkpt lat="45.93967" lon="4.79644">
        <ele>207</ele>
        <time>2017-06-28T08:20:23Z</time>
      </trkpt>
      <trkpt lat="45.93968" lon="4.79648">
        <ele>208</ele>
        <time>2017-06-28T08:20:24Z</time>
      </trkpt>
      <trkpt lat="45.9397" lon="4.79658">
        <ele>208</ele>
        <time>2017-06-28T08:20:26Z</time>
      </trkpt>
      <trkpt lat="45.9397" lon="4.79663">
        <ele>208</ele>
        <time>2017-06-28T08:20:27Z</time>
      </trkpt>
      <trkpt lat="45.9397" lon="4.79673">
        <ele>208</ele>
        <time>2017-06-28T08:20:29Z</time>
      </trkpt>
      <trkpt lat="45.9397" lon="4.79679">
        <ele>207</ele>
        <time>2017-06-28T08:20:30Z</time>
      </trkpt>
      <trkpt lat="45.9397" lon="4.7969">
        <ele>207</ele>
        <time>2017-06-28T08:20:32Z</time>
      </trkpt>
      <trkpt lat="45.9397" lon="4.79694">
        <ele>207</ele>
        <time>2017-06-28T08:20:33Z</time>
      </trkpt>
      <trkpt lat="45.93962" lon="4.79697">
        <ele>207</ele>
        <time>2017-06-28T08:20:34Z</time>
      </trkpt>
      <trkpt lat="45.93963" lon="4.79702">
        <ele>207</ele>
        <time>2017-06-28T08:20:35Z</time>
      </trkpt>
      <trkpt lat="45.93964" lon="4.79712">
        <ele>206</ele>
        <time>2017-06-28T08:20:37Z</time>
      </trkpt>
      <trkpt lat="45.93965" lon="4.79716">
        <ele>206</ele>
        <time>2017-06-28T08:20:38Z</time>
      </trkpt>
      <trkpt lat="45.93967" lon="4.79726">
        <ele>206</ele>
        <time>2017-06-28T08:20:40Z</time>
      </trkpt>
      <trkpt lat="45.93968" lon="4.79731">
        <ele>206</ele>
        <time>2017-06-28T08:20:41Z</time>
      </trkpt>
      <trkpt lat="45.9397" lon="4.79741">
        <ele>207</ele>
        <time>2017-06-28T08:20:43Z</time>
      </trkpt>
      <trkpt lat="45.93971" lon="4.79745">
        <ele>207</ele>
        <time>2017-06-28T08:20:44Z</time>
      </trkpt>
      <trkpt lat="45.9397" lon="4.79757">
        <ele>206</ele>
        <time>2017-06-28T08:20:47Z</time>
      </trkpt>
      <trkpt lat="45.9397" lon="4.79762">
        <ele>206</ele>
        <time>2017-06-28T08:20:48Z</time>
      </trkpt>
      <trkpt lat="45.93967" lon="4.79773">
        <ele>206</ele>
        <time>2017-06-28T08:20:50Z</time>
      </trkpt>
      <trkpt lat="45.93967" lon="4.79779">
        <ele>206</ele>
        <time>2017-06-28T08:20:51Z</time>
      </trkpt>
      <trkpt lat="45.93966" lon="4.79786">
        <ele>206</ele>
        <time>2017-06-28T08:20:52Z</time>
      </trkpt>
      <trkpt lat="45.93965" lon="4.79793">
        <ele>206</ele>
        <time>2017-06-28T08:20:53Z</time>
      </trkpt>
      <trkpt lat="45.93964" lon="4.79804">
        <ele>206</ele>
        <time>2017-06-28T08:20:55Z</time>
      </trkpt>
      <trkpt lat="45.93963" lon="4.79809">
        <ele>206</ele>
        <time>2017-06-28T08:20:56Z</time>
      </trkpt>
      <trkpt lat="45.93963" lon="4.79819">
        <ele>206</ele>
        <time>2017-06-28T08:20:58Z</time>
      </trkpt>
      <trkpt lat="45.93962" lon="4.79823">
        <ele>206</ele>
        <time>2017-06-28T08:20:59Z</time>
      </trkpt>
      <trkpt lat="45.93961" lon="4.79834">
        <ele>206</ele>
        <time>2017-06-28T08:21:01Z</time>
      </trkpt>
      <trkpt lat="45.93961" lon="4.79839">
        <ele>206</ele>
        <time>2017-06-28T08:21:02Z</time>
      </trkpt>
      <trkpt lat="45.93959" lon="4.79851">
        <ele>206</ele>
        <time>2017-06-28T08:21:04Z</time>
      </trkpt>
      <trkpt lat="45.93958" lon="4.79858">
        <ele>206</ele>
        <time>2017-06-28T08:21:05Z</time>
      </trkpt>
      <trkpt lat="45.93956" lon="4.7987">
        <ele>206</ele>
        <time>2017-06-28T08:21:07Z</time>
      </trkpt>
      <trkpt lat="45.93955" lon="4.79876">
        <ele>206</ele>
        <time>2017-06-28T08:21:08Z</time>
      </trkpt>
      <trkpt lat="45.93955" lon="4.79882">
        <ele>206</ele>
        <time>2017-06-28T08:21:09Z</time>
      </trkpt>
      <trkpt lat="45.93954" lon="4.79889">
        <ele>205</ele>
        <time>2017-06-28T08:21:10Z</time>
      </trkpt>
      <trkpt lat="45.93952" lon="4.79901">
        <ele>205</ele>
        <time>2017-06-28T08:21:12Z</time>
      </trkpt>
      <trkpt lat="45.93951" lon="4.79907">
        <ele>205</ele>
        <time>2017-06-28T08:21:13Z</time>
      </trkpt>
      <trkpt lat="45.93949" lon="4.79919">
        <ele>205</ele>
        <time>2017-06-28T08:21:15Z</time>
      </trkpt>
      <trkpt lat="45.93948" lon="4.79925">
        <ele>205</ele>
        <time>2017-06-28T08:21:16Z</time>
      </trkpt>
      <trkpt lat="45.93945" lon="4.79935">
        <ele>205</ele>
        <time>2017-06-28T08:21:18Z</time>
      </trkpt>
      <trkpt lat="45.93945" lon="4.7994">
        <ele>205</ele>
        <time>2017-06-28T08:21:19Z</time>
      </trkpt>
      <trkpt lat="45.93942" lon="4.79949">
        <ele>205</ele>
        <time>2017-06-28T08:21:21Z</time>
      </trkpt>
      <trkpt lat="45.93941" lon="4.79955">
        <ele>205</ele>
        <time>2017-06-28T08:21:22Z</time>
      </trkpt>
      <trkpt lat="45.9394" lon="4.79967">
        <ele>205</ele>
        <time>2017-06-28T08:21:24Z</time>
      </trkpt>
      <trkpt lat="45.9394" lon="4.79973">
        <ele>205</ele>
        <time>2017-06-28T08:21:25Z</time>
      </trkpt>
      <trkpt lat="45.93939" lon="4.79985">
        <ele>204</ele>
        <time>2017-06-28T08:21:27Z</time>
      </trkpt>
      <trkpt lat="45.93938" lon="4.79991">
        <ele>204</ele>
        <time>2017-06-28T08:21:28Z</time>
      </trkpt>
      <trkpt lat="45.93936" lon="4.80004">
        <ele>205</ele>
        <time>2017-06-28T08:21:30Z</time>
      </trkpt>
      <trkpt lat="45.93935" lon="4.8001">
        <ele>205</ele>
        <time>2017-06-28T08:21:31Z</time>
      </trkpt>
      <trkpt lat="45.93934" lon="4.80016">
        <ele>205</ele>
        <time>2017-06-28T08:21:32Z</time>
      </trkpt>
      <trkpt lat="45.93933" lon="4.80023">
        <ele>206</ele>
        <time>2017-06-28T08:21:33Z</time>
      </trkpt>
      <trkpt lat="45.93932" lon="4.80029">
        <ele>206</ele>
        <time>2017-06-28T08:21:34Z</time>
      </trkpt>
      <trkpt lat="45.93931" lon="4.80036">
        <ele>206</ele>
        <time>2017-06-28T08:21:35Z</time>
      </trkpt>
      <trkpt lat="45.93931" lon="4.80042">
        <ele>207</ele>
        <time>2017-06-28T08:21:36Z</time>
      </trkpt>
      <trkpt lat="45.9393" lon="4.80049">
        <ele>207</ele>
        <time>2017-06-28T08:21:37Z</time>
      </trkpt>
      <trkpt lat="45.9393" lon="4.80055">
        <ele>207</ele>
        <time>2017-06-28T08:21:38Z</time>
      </trkpt>
      <trkpt lat="45.9393" lon="4.80062">
        <ele>207</ele>
        <time>2017-06-28T08:21:39Z</time>
      </trkpt>
      <trkpt lat="45.9393" lon="4.80069">
        <ele>207</ele>
        <time>2017-06-28T08:21:40Z</time>
      </trkpt>
      <trkpt lat="45.93931" lon="4.80076">
        <ele>207</ele>
        <time>2017-06-28T08:21:41Z</time>
      </trkpt>
      <trkpt lat="45.93931" lon="4.80082">
        <ele>207</ele>
        <time>2017-06-28T08:21:42Z</time>
      </trkpt>
      <trkpt lat="45.93932" lon="4.80089">
        <ele>207</ele>
        <time>2017-06-28T08:21:43Z</time>
      </trkpt>
      <trkpt lat="45.93933" lon="4.80095">
        <ele>208</ele>
        <time>2017-06-28T08:21:44Z</time>
      </trkpt>
      <trkpt lat="45.93934" lon="4.80102">
        <ele>208</ele>
        <time>2017-06-28T08:21:45Z</time>
      </trkpt>
      <trkpt lat="45.93936" lon="4.80113">
        <ele>208</ele>
        <time>2017-06-28T08:21:47Z</time>
      </trkpt>
      <trkpt lat="45.93936" lon="4.80119">
        <ele>208</ele>
        <time>2017-06-28T08:21:48Z</time>
      </trkpt>
      <trkpt lat="45.93937" lon="4.80128">
        <ele>208</ele>
        <time>2017-06-28T08:21:50Z</time>
      </trkpt>
      <trkpt lat="45.93938" lon="4.80134">
        <ele>208</ele>
        <time>2017-06-28T08:21:51Z</time>
      </trkpt>
      <trkpt lat="45.93938" lon="4.80145">
        <ele>208</ele>
        <time>2017-06-28T08:21:53Z</time>
      </trkpt>
      <trkpt lat="45.93939" lon="4.80151">
        <ele>208</ele>
        <time>2017-06-28T08:21:54Z</time>
      </trkpt>
      <trkpt lat="45.9394" lon="4.80157">
        <ele>208</ele>
        <time>2017-06-28T08:21:55Z</time>
      </trkpt>
      <trkpt lat="45.93942" lon="4.80164">
        <ele>208</ele>
        <time>2017-06-28T08:21:56Z</time>
      </trkpt>
      <trkpt lat="45.93943" lon="4.80171">
        <ele>205</ele>
        <time>2017-06-28T08:21:57Z</time>
      </trkpt>
      <trkpt lat="45.93945" lon="4.80178">
        <ele>205</ele>
        <time>2017-06-28T08:21:58Z</time>
      </trkpt>
      <trkpt lat="45.93946" lon="4.80186">
        <ele>205</ele>
        <time>2017-06-28T08:21:59Z</time>
      </trkpt>
      <trkpt lat="45.93947" lon="4.80194">
        <ele>205</ele>
        <time>2017-06-28T08:22:00Z</time>
      </trkpt>
      <trkpt lat="45.93949" lon="4.80201">
        <ele>205</ele>
        <time>2017-06-28T08:22:01Z</time>
      </trkpt>
      <trkpt lat="45.93951" lon="4.80207">
        <ele>205</ele>
        <time>2017-06-28T08:22:02Z</time>
      </trkpt>
      <trkpt lat="45.93953" lon="4.80213">
        <ele>205</ele>
        <time>2017-06-28T08:22:03Z</time>
      </trkpt>
      <trkpt lat="45.93954" lon="4.8022">
        <ele>205</ele>
        <time>2017-06-28T08:22:04Z</time>
      </trkpt>
      <trkpt lat="45.93955" lon="4.80227">
        <ele>204</ele>
        <time>2017-06-28T08:22:05Z</time>
      </trkpt>
      <trkpt lat="45.93956" lon="4.80233">
        <ele>204</ele>
        <time>2017-06-28T08:22:06Z</time>
      </trkpt>
      <trkpt lat="45.9396" lon="4.80243">
        <ele>204</ele>
        <time>2017-06-28T08:22:08Z</time>
      </trkpt>
      <trkpt lat="45.93961" lon="4.80248">
        <ele>204</ele>
        <time>2017-06-28T08:22:09Z</time>
      </trkpt>
      <trkpt lat="45.93964" lon="4.80259">
        <ele>202</ele>
        <time>2017-06-28T08:22:11Z</time>
      </trkpt>
      <trkpt lat="45.93966" lon="4.80265">
        <ele>202</ele>
        <time>2017-06-28T08:22:12Z</time>
      </trkpt>
      <trkpt lat="45.93969" lon="4.80276">
        <ele>202</ele>
        <time>2017-06-28T08:22:14Z</time>
      </trkpt>
      <trkpt lat="45.93971" lon="4.80282">
        <ele>202</ele>
        <time>2017-06-28T08:22:15Z</time>
      </trkpt>
      <trkpt lat="45.93974" lon="4.80292">
        <ele>203</ele>
        <time>2017-06-28T08:22:17Z</time>
      </trkpt>
      <trkpt lat="45.93976" lon="4.80297">
        <ele>203</ele>
        <time>2017-06-28T08:22:18Z</time>
      </trkpt>
      <trkpt lat="45.93979" lon="4.80307">
        <ele>203</ele>
        <time>2017-06-28T08:22:20Z</time>
      </trkpt>
      <trkpt lat="45.93981" lon="4.80312">
        <ele>203</ele>
        <time>2017-06-28T08:22:21Z</time>
      </trkpt>
      <trkpt lat="45.93984" lon="4.80323">
        <ele>204</ele>
        <time>2017-06-28T08:22:23Z</time>
      </trkpt>
      <trkpt lat="45.93985" lon="4.80328">
        <ele>204</ele>
        <time>2017-06-28T08:22:24Z</time>
      </trkpt>
      <trkpt lat="45.93989" lon="4.80337">
        <ele>206</ele>
        <time>2017-06-28T08:22:26Z</time>
      </trkpt>
      <trkpt lat="45.93991" lon="4.80341">
        <ele>206</ele>
        <time>2017-06-28T08:22:27Z</time>
      </trkpt>
      <trkpt lat="45.93992" lon="4.8035">
        <ele>206</ele>
        <time>2017-06-28T08:22:29Z</time>
      </trkpt>
      <trkpt lat="45.93993" lon="4.80354">
        <ele>206</ele>
        <time>2017-06-28T08:22:30Z</time>
      </trkpt>
      <trkpt lat="45.93997" lon="4.80365">
        <ele>207</ele>
        <time>2017-06-28T08:22:33Z</time>
      </trkpt>
      <trkpt lat="45.93997" lon="4.80369">
        <ele>207</ele>
        <time>2017-06-28T08:22:34Z</time>
      </trkpt>
      <trkpt lat="45.94001" lon="4.80378">
        <ele>216</ele>
        <time>2017-06-28T08:22:37Z</time>
      </trkpt>
      <trkpt lat="45.94002" lon="4.80382">
        <ele>216</ele>
        <time>2017-06-28T08:22:38Z</time>
      </trkpt>
      <trkpt lat="45.94004" lon="4.80393">
        <ele>217</ele>
        <time>2017-06-28T08:22:41Z</time>
      </trkpt>
      <trkpt lat="45.94005" lon="4.80397">
        <ele>217</ele>
        <time>2017-06-28T08:22:42Z</time>
      </trkpt>
      <trkpt lat="45.94008" lon="4.80407">
        <ele>217</ele>
        <time>2017-06-28T08:22:45Z</time>
      </trkpt>
      <trkpt lat="45.94009" lon="4.80411">
        <ele>217</ele>
        <time>2017-06-28T08:22:46Z</time>
      </trkpt>
      <trkpt lat="45.94011" lon="4.80421">
        <ele>220</ele>
        <time>2017-06-28T08:22:49Z</time>
      </trkpt>
      <trkpt lat="45.94012" lon="4.80423">
        <ele>220</ele>
        <time>2017-06-28T08:22:50Z</time>
      </trkpt>
      <trkpt lat="45.94014" lon="4.80434">
        <ele>221</ele>
        <time>2017-06-28T08:22:53Z</time>
      </trkpt>
      <trkpt lat="45.94014" lon="4.80438">
        <ele>222</ele>
        <time>2017-06-28T08:22:54Z</time>
      </trkpt>
      <trkpt lat="45.94015" lon="4.80451">
        <ele>223</ele>
        <time>2017-06-28T08:22:57Z</time>
      </trkpt>
      <trkpt lat="45.94015" lon="4.80455">
        <ele>223</ele>
        <time>2017-06-28T08:22:58Z</time>
      </trkpt>
      <trkpt lat="45.94016" lon="4.80465">
        <ele>223</ele>
        <time>2017-06-28T08:23:00Z</time>
      </trkpt>
      <trkpt lat="45.94017" lon="4.80469">
        <ele>223</ele>
        <time>2017-06-28T08:23:01Z</time>
      </trkpt>
      <trkpt lat="45.94017" lon="4.80482">
        <ele>223</ele>
        <time>2017-06-28T08:23:04Z</time>
      </trkpt>
      <trkpt lat="45.94016" lon="4.80486">
        <ele>222</ele>
        <time>2017-06-28T08:23:05Z</time>
      </trkpt>
      <trkpt lat="45.94016" lon="4.80496">
        <ele>222</ele>
        <time>2017-06-28T08:23:08Z</time>
      </trkpt>
      <trkpt lat="45.94015" lon="4.80499">
        <ele>222</ele>
        <time>2017-06-28T08:23:09Z</time>
      </trkpt>
      <trkpt lat="45.94016" lon="4.80508">
        <ele>223</ele>
        <time>2017-06-28T08:23:12Z</time>
      </trkpt>
      <trkpt lat="45.94016" lon="4.80512">
        <ele>223</ele>
        <time>2017-06-28T08:23:13Z</time>
      </trkpt>
      <trkpt lat="45.94014" lon="4.80524">
        <ele>224</ele>
        <time>2017-06-28T08:23:16Z</time>
      </trkpt>
      <trkpt lat="45.94014" lon="4.80527">
        <ele>224</ele>
        <time>2017-06-28T08:23:17Z</time>
      </trkpt>
      <trkpt lat="45.94015" lon="4.80537">
        <ele>224</ele>
        <time>2017-06-28T08:23:20Z</time>
      </trkpt>
      <trkpt lat="45.94015" lon="4.8054">
        <ele>224</ele>
        <time>2017-06-28T08:23:21Z</time>
      </trkpt>
      <trkpt lat="45.94016" lon="4.80552">
        <ele>224</ele>
        <time>2017-06-28T08:23:24Z</time>
      </trkpt>
      <trkpt lat="45.94017" lon="4.80555">
        <ele>224</ele>
        <time>2017-06-28T08:23:25Z</time>
      </trkpt>
      <trkpt lat="45.94017" lon="4.80566">
        <ele>223</ele>
        <time>2017-06-28T08:23:28Z</time>
      </trkpt>
      <trkpt lat="45.94017" lon="4.80569">
        <ele>223</ele>
        <time>2017-06-28T08:23:29Z</time>
      </trkpt>
      <trkpt lat="45.94015" lon="4.80581">
        <ele>222</ele>
        <time>2017-06-28T08:23:33Z</time>
      </trkpt>
      <trkpt lat="45.94015" lon="4.80584">
        <ele>222</ele>
        <time>2017-06-28T08:23:34Z</time>
      </trkpt>
      <trkpt lat="45.94014" lon="4.80594">
        <ele>222</ele>
        <time>2017-06-28T08:23:37Z</time>
      </trkpt>
      <trkpt lat="45.94014" lon="4.80598">
        <ele>222</ele>
        <time>2017-06-28T08:23:38Z</time>
      </trkpt>
      <trkpt lat="45.94014" lon="4.80609">
        <ele>223</ele>
        <time>2017-06-28T08:23:41Z</time>
      </trkpt>
      <trkpt lat="45.94014" lon="4.80612">
        <ele>223</ele>
        <time>2017-06-28T08:23:42Z</time>
      </trkpt>
      <trkpt lat="45.94014" lon="4.80624">
        <ele>224</ele>
        <time>2017-06-28T08:23:46Z</time>
      </trkpt>
      <trkpt lat="45.94015" lon="4.80627">
        <ele>224</ele>
        <time>2017-06-28T08:23:47Z</time>
      </trkpt>
      <trkpt lat="45.94017" lon="4.80639">
        <ele>223</ele>
        <time>2017-06-28T08:23:51Z</time>
      </trkpt>
      <trkpt lat="45.94017" lon="4.80642">
        <ele>223</ele>
        <time>2017-06-28T08:23:52Z</time>
      </trkpt>
      <trkpt lat="45.94018" lon="4.80653">
        <ele>222</ele>
        <time>2017-06-28T08:23:56Z</time>
      </trkpt>
      <trkpt lat="45.94019" lon="4.80656">
        <ele>222</ele>
        <time>2017-06-28T08:23:57Z</time>
      </trkpt>
      <trkpt lat="45.9402" lon="4.80666">
        <ele>222</ele>
        <time>2017-06-28T08:23:59Z</time>
      </trkpt>
      <trkpt lat="45.94021" lon="4.8067">
        <ele>223</ele>
        <time>2017-06-28T08:24:00Z</time>
      </trkpt>
      <trkpt lat="45.94023" lon="4.80681">
        <ele>223</ele>
        <time>2017-06-28T08:24:03Z</time>
      </trkpt>
      <trkpt lat="45.94023" lon="4.80685">
        <ele>224</ele>
        <time>2017-06-28T08:24:04Z</time>
      </trkpt>
      <trkpt lat="45.94025" lon="4.80695">
        <ele>224</ele>
        <time>2017-06-28T08:24:07Z</time>
      </trkpt>
      <trkpt lat="45.94025" lon="4.80699">
        <ele>225</ele>
        <time>2017-06-28T08:24:08Z</time>
      </trkpt>
      <trkpt lat="45.94027" lon="4.80711">
        <ele>225</ele>
        <time>2017-06-28T08:24:11Z</time>
      </trkpt>
      <trkpt lat="45.94028" lon="4.80714">
        <ele>225</ele>
        <time>2017-06-28T08:24:12Z</time>
      </trkpt>
      <trkpt lat="45.94028" lon="4.80726">
        <ele>225</ele>
        <time>2017-06-28T08:24:16Z</time>
      </trkpt>
      <trkpt lat="45.94029" lon="4.80729">
        <ele>225</ele>
        <time>2017-06-28T08:24:17Z</time>
      </trkpt>
      <trkpt lat="45.9403" lon="4.80737">
        <ele>225</ele>
        <time>2017-06-28T08:24:19Z</time>
      </trkpt>
      <trkpt lat="45.9403" lon="4.80743">
        <ele>225</ele>
        <time>2017-06-28T08:24:20Z</time>
      </trkpt>
      <trkpt lat="45.94031" lon="4.80753">
        <ele>226</ele>
        <time>2017-06-28T08:24:22Z</time>
      </trkpt>
      <trkpt lat="45.94031" lon="4.80758">
        <ele>226</ele>
        <time>2017-06-28T08:24:23Z</time>
      </trkpt>
      <trkpt lat="45.94032" lon="4.80768">
        <ele>226</ele>
        <time>2017-06-28T08:24:25Z</time>
      </trkpt>
      <trkpt lat="45.94033" lon="4.80772">
        <ele>227</ele>
        <time>2017-06-28T08:24:26Z</time>
      </trkpt>
      <trkpt lat="45.94034" lon="4.80783">
        <ele>227</ele>
        <time>2017-06-28T08:24:29Z</time>
      </trkpt>
      <trkpt lat="45.94034" lon="4.80786">
        <ele>227</ele>
        <time>2017-06-28T08:24:30Z</time>
      </trkpt>
      <trkpt lat="45.94036" lon="4.80795">
        <ele>227</ele>
        <time>2017-06-28T08:24:33Z</time>
      </trkpt>
      <trkpt lat="45.94036" lon="4.80799">
        <ele>227</ele>
        <time>2017-06-28T08:24:34Z</time>
      </trkpt>
      <trkpt lat="45.94037" lon="4.80809">
        <ele>227</ele>
        <time>2017-06-28T08:24:37Z</time>
      </trkpt>
      <trkpt lat="45.94038" lon="4.80813">
        <ele>227</ele>
        <time>2017-06-28T08:24:38Z</time>
      </trkpt>
      <trkpt lat="45.9404" lon="4.80823">
        <ele>228</ele>
        <time>2017-06-28T08:24:41Z</time>
      </trkpt>
      <trkpt lat="45.94041" lon="4.80827">
        <ele>228</ele>
        <time>2017-06-28T08:24:42Z</time>
      </trkpt>
      <trkpt lat="45.94044" lon="4.80838">
        <ele>229</ele>
        <time>2017-06-28T08:24:45Z</time>
      </trkpt>
      <trkpt lat="45.94044" lon="4.80841">
        <ele>229</ele>
        <time>2017-06-28T08:24:46Z</time>
      </trkpt>
      <trkpt lat="45.94046" lon="4.80852">
        <ele>229</ele>
        <time>2017-06-28T08:24:49Z</time>
      </trkpt>
      <trkpt lat="45.94047" lon="4.80856">
        <ele>229</ele>
        <time>2017-06-28T08:24:50Z</time>
      </trkpt>
      <trkpt lat="45.94049" lon="4.80866">
        <ele>230</ele>
        <time>2017-06-28T08:24:53Z</time>
      </trkpt>
      <trkpt lat="45.9405" lon="4.8087">
        <ele>230</ele>
        <time>2017-06-28T08:24:54Z</time>
      </trkpt>
      <trkpt lat="45.94051" lon="4.8088">
        <ele>230</ele>
        <time>2017-06-28T08:24:57Z</time>
      </trkpt>
      <trkpt lat="45.94052" lon="4.80883">
        <ele>230</ele>
        <time>2017-06-28T08:24:58Z</time>
      </trkpt>
      <trkpt lat="45.94053" lon="4.80896">
        <ele>230</ele>
        <time>2017-06-28T08:25:01Z</time>
      </trkpt>
      <trkpt lat="45.94053" lon="4.809">
        <ele>230</ele>
        <time>2017-06-28T08:25:02Z</time>
      </trkpt>
      <trkpt lat="45.94056" lon="4.80911">
        <ele>231</ele>
        <time>2017-06-28T08:25:05Z</time>
      </trkpt>
      <trkpt lat="45.94057" lon="4.80914">
        <ele>231</ele>
        <time>2017-06-28T08:25:06Z</time>
      </trkpt>
      <trkpt lat="45.94059" lon="4.80924">
        <ele>232</ele>
        <time>2017-06-28T08:25:09Z</time>
      </trkpt>
      <trkpt lat="45.94059" lon="4.80927">
        <ele>232</ele>
        <time>2017-06-28T08:25:10Z</time>
      </trkpt>
      <trkpt lat="45.94061" lon="4.80936">
        <ele>232</ele>
        <time>2017-06-28T08:25:13Z</time>
      </trkpt>
      <trkpt lat="45.94062" lon="4.8094">
        <ele>232</ele>
        <time>2017-06-28T08:25:14Z</time>
      </trkpt>
      <trkpt lat="45.94063" lon="4.80952">
        <ele>232</ele>
        <time>2017-06-28T08:25:18Z</time>
      </trkpt>
      <trkpt lat="45.94064" lon="4.80955">
        <ele>232</ele>
        <time>2017-06-28T08:25:19Z</time>
      </trkpt>
      <trkpt lat="45.94065" lon="4.80966">
        <ele>232</ele>
        <time>2017-06-28T08:25:23Z</time>
      </trkpt>
      <trkpt lat="45.94065" lon="4.80969">
        <ele>232</ele>
        <time>2017-06-28T08:25:24Z</time>
      </trkpt>
      <trkpt lat="45.94065" lon="4.80979">
        <ele>233</ele>
        <time>2017-06-28T08:25:27Z</time>
      </trkpt>
      <trkpt lat="45.94066" lon="4.80983">
        <ele>233</ele>
        <time>2017-06-28T08:25:28Z</time>
      </trkpt>
      <trkpt lat="45.94068" lon="4.80994">
        <ele>235</ele>
        <time>2017-06-28T08:25:31Z</time>
      </trkpt>
      <trkpt lat="45.94069" lon="4.80997">
        <ele>235</ele>
        <time>2017-06-28T08:25:32Z</time>
      </trkpt>
      <trkpt lat="45.94071" lon="4.81007">
        <ele>236</ele>
        <time>2017-06-28T08:25:35Z</time>
      </trkpt>
      <trkpt lat="45.94072" lon="4.8101">
        <ele>235</ele>
        <time>2017-06-28T08:25:36Z</time>
      </trkpt>
      <trkpt lat="45.94075" lon="4.81021">
        <ele>235</ele>
        <time>2017-06-28T08:25:39Z</time>
      </trkpt>
      <trkpt lat="45.94076" lon="4.81024">
        <ele>234</ele>
        <time>2017-06-28T08:25:40Z</time>
      </trkpt>
      <trkpt lat="45.9408" lon="4.81034">
        <ele>234</ele>
        <time>2017-06-28T08:25:43Z</time>
      </trkpt>
      <trkpt lat="45.94081" lon="4.81037">
        <ele>234</ele>
        <time>2017-06-28T08:25:44Z</time>
      </trkpt>
      <trkpt lat="45.94084" lon="4.81046">
        <ele>243</ele>
        <time>2017-06-28T08:25:46Z</time>
      </trkpt>
      <trkpt lat="45.94085" lon="4.8105">
        <ele>243</ele>
        <time>2017-06-28T08:25:47Z</time>
      </trkpt>
      <trkpt lat="45.94088" lon="4.81059">
        <ele>242</ele>
        <time>2017-06-28T08:25:50Z</time>
      </trkpt>
      <trkpt lat="45.94089" lon="4.81063">
        <ele>242</ele>
        <time>2017-06-28T08:25:51Z</time>
      </trkpt>
      <trkpt lat="45.94092" lon="4.81072">
        <ele>241</ele>
        <time>2017-06-28T08:25:54Z</time>
      </trkpt>
      <trkpt lat="45.94093" lon="4.81075">
        <ele>241</ele>
        <time>2017-06-28T08:25:55Z</time>
      </trkpt>
      <trkpt lat="45.94098" lon="4.81082">
        <ele>241</ele>
        <time>2017-06-28T08:25:58Z</time>
      </trkpt>
      <trkpt lat="45.941" lon="4.81084">
        <ele>240</ele>
        <time>2017-06-28T08:25:59Z</time>
      </trkpt>
      <trkpt lat="45.94105" lon="4.8109">
        <ele>241</ele>
        <time>2017-06-28T08:26:02Z</time>
      </trkpt>
      <trkpt lat="45.94107" lon="4.81093">
        <ele>241</ele>
        <time>2017-06-28T08:26:03Z</time>
      </trkpt>
      <trkpt lat="45.94112" lon="4.81102">
        <ele>242</ele>
        <time>2017-06-28T08:26:07Z</time>
      </trkpt>
      <trkpt lat="45.94113" lon="4.81104">
        <ele>242</ele>
        <time>2017-06-28T08:26:08Z</time>
      </trkpt>
      <trkpt lat="45.94118" lon="4.81113">
        <ele>243</ele>
        <time>2017-06-28T08:26:12Z</time>
      </trkpt>
      <trkpt lat="45.94119" lon="4.81115">
        <ele>243</ele>
        <time>2017-06-28T08:26:13Z</time>
      </trkpt>
      <trkpt lat="45.94123" lon="4.81124">
        <ele>243</ele>
        <time>2017-06-28T08:26:16Z</time>
      </trkpt>
      <trkpt lat="45.94124" lon="4.81127">
        <ele>243</ele>
        <time>2017-06-28T08:26:17Z</time>
      </trkpt>
      <trkpt lat="45.94128" lon="4.81135">
        <ele>243</ele>
        <time>2017-06-28T08:26:20Z</time>
      </trkpt>
      <trkpt lat="45.94129" lon="4.8114">
        <ele>243</ele>
        <time>2017-06-28T08:26:21Z</time>
      </trkpt>
      <trkpt lat="45.94132" lon="4.81148">
        <ele>244</ele>
        <time>2017-06-28T08:26:23Z</time>
      </trkpt>
      <trkpt lat="45.94133" lon="4.81152">
        <ele>244</ele>
        <time>2017-06-28T08:26:24Z</time>
      </trkpt>
      <trkpt lat="45.94137" lon="4.81161">
        <ele>244</ele>
        <time>2017-06-28T08:26:27Z</time>
      </trkpt>
      <trkpt lat="45.94139" lon="4.81165">
        <ele>244</ele>
        <time>2017-06-28T08:26:28Z</time>
      </trkpt>
      <trkpt lat="45.94141" lon="4.81174">
        <ele>244</ele>
        <time>2017-06-28T08:26:31Z</time>
      </trkpt>
      <trkpt lat="45.94142" lon="4.81178">
        <ele>244</ele>
        <time>2017-06-28T08:26:32Z</time>
      </trkpt>
      <trkpt lat="45.94145" lon="4.81188">
        <ele>244</ele>
        <time>2017-06-28T08:26:35Z</time>
      </trkpt>
      <trkpt lat="45.94147" lon="4.81191">
        <ele>244</ele>
        <time>2017-06-28T08:26:36Z</time>
      </trkpt>
      <trkpt lat="45.9415" lon="4.81202">
        <ele>244</ele>
        <time>2017-06-28T08:26:39Z</time>
      </trkpt>
      <trkpt lat="45.94151" lon="4.81206">
        <ele>244</ele>
        <time>2017-06-28T08:26:40Z</time>
      </trkpt>
      <trkpt lat="45.94154" lon="4.81215">
        <ele>245</ele>
        <time>2017-06-28T08:26:43Z</time>
      </trkpt>
      <trkpt lat="45.94155" lon="4.81218">
        <ele>245</ele>
        <time>2017-06-28T08:26:44Z</time>
      </trkpt>
      <trkpt lat="45.94158" lon="4.81229">
        <ele>246</ele>
        <time>2017-06-28T08:26:47Z</time>
      </trkpt>
      <trkpt lat="45.94158" lon="4.81232">
        <ele>246</ele>
        <time>2017-06-28T08:26:48Z</time>
      </trkpt>
      <trkpt lat="45.9416" lon="4.81241">
        <ele>247</ele>
        <time>2017-06-28T08:26:51Z</time>
      </trkpt>
      <trkpt lat="45.94161" lon="4.81244">
        <ele>248</ele>
        <time>2017-06-28T08:26:52Z</time>
      </trkpt>
      <trkpt lat="45.94163" lon="4.81256">
        <ele>249</ele>
        <time>2017-06-28T08:26:56Z</time>
      </trkpt>
      <trkpt lat="45.94163" lon="4.81259">
        <ele>248</ele>
        <time>2017-06-28T08:26:57Z</time>
      </trkpt>
      <trkpt lat="45.94164" lon="4.81269">
        <ele>248</ele>
        <time>2017-06-28T08:27:00Z</time>
      </trkpt>
      <trkpt lat="45.94165" lon="4.81272">
        <ele>247</ele>
        <time>2017-06-28T08:27:01Z</time>
      </trkpt>
      <trkpt lat="45.94165" lon="4.81283">
        <ele>247</ele>
        <time>2017-06-28T08:27:04Z</time>
      </trkpt>
      <trkpt lat="45.94165" lon="4.81287">
        <ele>247</ele>
        <time>2017-06-28T08:27:05Z</time>
      </trkpt>
      <trkpt lat="45.94165" lon="4.81298">
        <ele>247</ele>
        <time>2017-06-28T08:27:08Z</time>
      </trkpt>
      <trkpt lat="45.94165" lon="4.81301">
        <ele>248</ele>
        <time>2017-06-28T08:27:09Z</time>
      </trkpt>
      <trkpt lat="45.94166" lon="4.81311">
        <ele>248</ele>
        <time>2017-06-28T08:27:13Z</time>
      </trkpt>
      <trkpt lat="45.94167" lon="4.81315">
        <ele>249</ele>
        <time>2017-06-28T08:27:14Z</time>
      </trkpt>
      <trkpt lat="45.94167" lon="4.81325">
        <ele>254</ele>
        <time>2017-06-28T08:27:17Z</time>
      </trkpt>
      <trkpt lat="45.94168" lon="4.81329">
        <ele>253</ele>
        <time>2017-06-28T08:27:18Z</time>
      </trkpt>
      <trkpt lat="45.94168" lon="4.81338">
        <ele>253</ele>
        <time>2017-06-28T08:27:21Z</time>
      </trkpt>
      <trkpt lat="45.94168" lon="4.81342">
        <ele>254</ele>
        <time>2017-06-28T08:27:22Z</time>
      </trkpt>
      <trkpt lat="45.94166" lon="4.81353">
        <ele>251</ele>
        <time>2017-06-28T08:27:26Z</time>
      </trkpt>
      <trkpt lat="45.94166" lon="4.81355">
        <ele>251</ele>
        <time>2017-06-28T08:27:27Z</time>
      </trkpt>
      <trkpt lat="45.94166" lon="4.81367">
        <ele>251</ele>
        <time>2017-06-28T08:27:31Z</time>
      </trkpt>
      <trkpt lat="45.94166" lon="4.81371">
        <ele>251</ele>
        <time>2017-06-28T08:27:32Z</time>
      </trkpt>
      <trkpt lat="45.94165" lon="4.81378">
        <ele>251</ele>
        <time>2017-06-28T08:27:34Z</time>
      </trkpt>
      <trkpt lat="45.94164" lon="4.81384">
        <ele>251</ele>
        <time>2017-06-28T08:27:35Z</time>
      </trkpt>
      <trkpt lat="45.94162" lon="4.81396">
        <ele>252</ele>
        <time>2017-06-28T08:27:39Z</time>
      </trkpt>
      <trkpt lat="45.94162" lon="4.814">
        <ele>253</ele>
        <time>2017-06-28T08:27:40Z</time>
      </trkpt>
      <trkpt lat="45.94161" lon="4.8141">
        <ele>254</ele>
        <time>2017-06-28T08:27:43Z</time>
      </trkpt>
      <trkpt lat="45.9416" lon="4.81413">
        <ele>254</ele>
        <time>2017-06-28T08:27:44Z</time>
      </trkpt>
      <trkpt lat="45.94158" lon="4.81424">
        <ele>256</ele>
        <time>2017-06-28T08:27:48Z</time>
      </trkpt>
      <trkpt lat="45.94158" lon="4.81427">
        <ele>256</ele>
        <time>2017-06-28T08:27:49Z</time>
      </trkpt>
      <trkpt lat="45.94157" lon="4.81439">
        <ele>256</ele>
        <time>2017-06-28T08:27:53Z</time>
      </trkpt>
      <trkpt lat="45.94157" lon="4.81442">
        <ele>256</ele>
        <time>2017-06-28T08:27:54Z</time>
      </trkpt>
      <trkpt lat="45.94155" lon="4.81452">
        <ele>257</ele>
        <time>2017-06-28T08:27:57Z</time>
      </trkpt>
      <trkpt lat="45.94154" lon="4.81455">
        <ele>257</ele>
        <time>2017-06-28T08:27:58Z</time>
      </trkpt>
      <trkpt lat="45.94153" lon="4.81465">
        <ele>258</ele>
        <time>2017-06-28T08:28:02Z</time>
      </trkpt>
      <trkpt lat="45.94153" lon="4.81468">
        <ele>258</ele>
        <time>2017-06-28T08:28:03Z</time>
      </trkpt>
      <trkpt lat="45.94153" lon="4.81481">
        <ele>259</ele>
        <time>2017-06-28T08:28:06Z</time>
      </trkpt>
      <trkpt lat="45.94153" lon="4.81487">
        <ele>259</ele>
        <time>2017-06-28T08:28:07Z</time>
      </trkpt>
      <trkpt lat="45.94153" lon="4.81499">
        <ele>260</ele>
        <time>2017-06-28T08:28:10Z</time>
      </trkpt>
      <trkpt lat="45.94153" lon="4.81503">
        <ele>263</ele>
        <time>2017-06-28T08:28:11Z</time>
      </trkpt>
      <trkpt lat="45.94154" lon="4.81516">
        <ele>263</ele>
        <time>2017-06-28T08:28:15Z</time>
      </trkpt>
      <trkpt lat="45.94154" lon="4.81518">
        <ele>263</ele>
        <time>2017-06-28T08:28:16Z</time>
      </trkpt>
      <trkpt lat="45.94156" lon="4.81529">
        <ele>264</ele>
        <time>2017-06-28T08:28:19Z</time>
      </trkpt>
      <trkpt lat="45.94157" lon="4.81531">
        <ele>264</ele>
        <time>2017-06-28T08:28:20Z</time>
      </trkpt>
      <trkpt lat="45.94159" lon="4.81541">
        <ele>264</ele>
        <time>2017-06-28T08:28:23Z</time>
      </trkpt>
      <trkpt lat="45.94158" lon="4.81545">
        <ele>264</ele>
        <time>2017-06-28T08:28:24Z</time>
      </trkpt>
      <trkpt lat="45.94158" lon="4.81555">
        <ele>265</ele>
        <time>2017-06-28T08:28:26Z</time>
      </trkpt>
      <trkpt lat="45.94158" lon="4.81559">
        <ele>265</ele>
        <time>2017-06-28T08:28:27Z</time>
      </trkpt>
      <trkpt lat="45.94159" lon="4.81567">
        <ele>265</ele>
        <time>2017-06-28T08:28:29Z</time>
      </trkpt>
      <trkpt lat="45.9416" lon="4.81571">
        <ele>266</ele>
        <time>2017-06-28T08:28:30Z</time>
      </trkpt>
      <trkpt lat="45.9416" lon="4.8158">
        <ele>266</ele>
        <time>2017-06-28T08:28:32Z</time>
      </trkpt>
      <trkpt lat="45.9416" lon="4.81585">
        <ele>267</ele>
        <time>2017-06-28T08:28:33Z</time>
      </trkpt>
      <trkpt lat="45.94161" lon="4.81593">
        <ele>267</ele>
        <time>2017-06-28T08:28:35Z</time>
      </trkpt>
      <trkpt lat="45.9416" lon="4.81599">
        <ele>267</ele>
        <time>2017-06-28T08:28:36Z</time>
      </trkpt>
      <trkpt lat="45.9416" lon="4.81609">
        <ele>267</ele>
        <time>2017-06-28T08:28:38Z</time>
      </trkpt>
      <trkpt lat="45.94161" lon="4.81613">
        <ele>267</ele>
        <time>2017-06-28T08:28:39Z</time>
      </trkpt>
      <trkpt lat="45.94163" lon="4.81622">
        <ele>268</ele>
        <time>2017-06-28T08:28:41Z</time>
      </trkpt>
      <trkpt lat="45.94163" lon="4.81625">
        <ele>268</ele>
        <time>2017-06-28T08:28:42Z</time>
      </trkpt>
      <trkpt lat="45.94165" lon="4.81634">
        <ele>268</ele>
        <time>2017-06-28T08:28:45Z</time>
      </trkpt>
      <trkpt lat="45.94166" lon="4.81638">
        <ele>268</ele>
        <time>2017-06-28T08:28:46Z</time>
      </trkpt>
      <trkpt lat="45.94168" lon="4.8165">
        <ele>268</ele>
        <time>2017-06-28T08:28:49Z</time>
      </trkpt>
      <trkpt lat="45.94169" lon="4.81654">
        <ele>268</ele>
        <time>2017-06-28T08:28:50Z</time>
      </trkpt>
      <trkpt lat="45.94172" lon="4.81666">
        <ele>269</ele>
        <time>2017-06-28T08:28:53Z</time>
      </trkpt>
      <trkpt lat="45.94174" lon="4.81669">
        <ele>268</ele>
        <time>2017-06-28T08:28:54Z</time>
      </trkpt>
      <trkpt lat="45.94175" lon="4.81678">
        <ele>268</ele>
        <time>2017-06-28T08:28:56Z</time>
      </trkpt>
      <trkpt lat="45.94176" lon="4.81682">
        <ele>268</ele>
        <time>2017-06-28T08:28:57Z</time>
      </trkpt>
      <trkpt lat="45.94179" lon="4.8169">
        <ele>267</ele>
        <time>2017-06-28T08:28:59Z</time>
      </trkpt>
      <trkpt lat="45.94181" lon="4.81694">
        <ele>267</ele>
        <time>2017-06-28T08:29:00Z</time>
      </trkpt>
      <trkpt lat="45.94185" lon="4.81705">
        <ele>267</ele>
        <time>2017-06-28T08:29:03Z</time>
      </trkpt>
      <trkpt lat="45.94186" lon="4.81709">
        <ele>267</ele>
        <time>2017-06-28T08:29:04Z</time>
      </trkpt>
      <trkpt lat="45.94189" lon="4.81719">
        <ele>267</ele>
        <time>2017-06-28T08:29:07Z</time>
      </trkpt>
      <trkpt lat="45.9419" lon="4.81723">
        <ele>267</ele>
        <time>2017-06-28T08:29:08Z</time>
      </trkpt>
      <trkpt lat="45.94193" lon="4.81732">
        <ele>267</ele>
        <time>2017-06-28T08:29:10Z</time>
      </trkpt>
      <trkpt lat="45.94193" lon="4.81735">
        <ele>267</ele>
        <time>2017-06-28T08:29:11Z</time>
      </trkpt>
      <trkpt lat="45.94197" lon="4.81747">
        <ele>266</ele>
        <time>2017-06-28T08:29:14Z</time>
      </trkpt>
      <trkpt lat="45.942" lon="4.8175">
        <ele>266</ele>
        <time>2017-06-28T08:29:15Z</time>
      </trkpt>
      <trkpt lat="45.94204" lon="4.81759">
        <ele>266</ele>
        <time>2017-06-28T08:29:17Z</time>
      </trkpt>
      <trkpt lat="45.94207" lon="4.81764">
        <ele>265</ele>
        <time>2017-06-28T08:29:18Z</time>
      </trkpt>
      <trkpt lat="45.9421" lon="4.81776">
        <ele>265</ele>
        <time>2017-06-28T08:29:21Z</time>
      </trkpt>
      <trkpt lat="45.9421" lon="4.8178">
        <ele>265</ele>
        <time>2017-06-28T08:29:22Z</time>
      </trkpt>
      <trkpt lat="45.9421" lon="4.81788">
        <ele>265</ele>
        <time>2017-06-28T08:29:24Z</time>
      </trkpt>
      <trkpt lat="45.94207" lon="4.81794">
        <ele>266</ele>
        <time>2017-06-28T08:29:25Z</time>
      </trkpt>
      <trkpt lat="45.94202" lon="4.81803">
        <ele>266</ele>
        <time>2017-06-28T08:29:27Z</time>
      </trkpt>
      <trkpt lat="45.94201" lon="4.81808">
        <ele>266</ele>
        <time>2017-06-28T08:29:28Z</time>
      </trkpt>
      <trkpt lat="45.942" lon="4.8182">
        <ele>266</ele>
        <time>2017-06-28T08:29:31Z</time>
      </trkpt>
      <trkpt lat="45.942" lon="4.81824">
        <ele>266</ele>
        <time>2017-06-28T08:29:32Z</time>
      </trkpt>
      <trkpt lat="45.94201" lon="4.81837">
        <ele>266</ele>
        <time>2017-06-28T08:29:35Z</time>
      </trkpt>
      <trkpt lat="45.94202" lon="4.81841">
        <ele>266</ele>
        <time>2017-06-28T08:29:36Z</time>
      </trkpt>
      <trkpt lat="45.94202" lon="4.81852">
        <ele>266</ele>
        <time>2017-06-28T08:29:38Z</time>
      </trkpt>
      <trkpt lat="45.94203" lon="4.81857">
        <ele>266</ele>
        <time>2017-06-28T08:29:39Z</time>
      </trkpt>
      <trkpt lat="45.94205" lon="4.81868">
        <ele>265</ele>
        <time>2017-06-28T08:29:41Z</time>
      </trkpt>
      <trkpt lat="45.94205" lon="4.81874">
        <ele>265</ele>
        <time>2017-06-28T08:29:42Z</time>
      </trkpt>
      <trkpt lat="45.94207" lon="4.81884">
        <ele>265</ele>
        <time>2017-06-28T08:29:44Z</time>
      </trkpt>
      <trkpt lat="45.94208" lon="4.81888">
        <ele>265</ele>
        <time>2017-06-28T08:29:45Z</time>
      </trkpt>
      <trkpt lat="45.9421" lon="4.81898">
        <ele>265</ele>
        <time>2017-06-28T08:29:47Z</time>
      </trkpt>
      <trkpt lat="45.94211" lon="4.81903">
        <ele>265</ele>
        <time>2017-06-28T08:29:48Z</time>
      </trkpt>
      <trkpt lat="45.94213" lon="4.81913">
        <ele>265</ele>
        <time>2017-06-28T08:29:50Z</time>
      </trkpt>
      <trkpt lat="45.94214" lon="4.81917">
        <ele>264</ele>
        <time>2017-06-28T08:29:51Z</time>
      </trkpt>
      <trkpt lat="45.94216" lon="4.81926">
        <ele>264</ele>
        <time>2017-06-28T08:29:53Z</time>
      </trkpt>
      <trkpt lat="45.94217" lon="4.81931">
        <ele>264</ele>
        <time>2017-06-28T08:29:54Z</time>
      </trkpt>
      <trkpt lat="45.9422" lon="4.81943">
        <ele>264</ele>
        <time>2017-06-28T08:29:56Z</time>
      </trkpt>
      <trkpt lat="45.94221" lon="4.8195">
        <ele>264</ele>
        <time>2017-06-28T08:29:57Z</time>
      </trkpt>
      <trkpt lat="45.94223" lon="4.81956">
        <ele>264</ele>
        <time>2017-06-28T08:29:58Z</time>
      </trkpt>
      <trkpt lat="45.94224" lon="4.81963">
        <ele>264</ele>
        <time>2017-06-28T08:29:59Z</time>
      </trkpt>
      <trkpt lat="45.94226" lon="4.81969">
        <ele>264</ele>
        <time>2017-06-28T08:30:00Z</time>
      </trkpt>
      <trkpt lat="45.94227" lon="4.81975">
        <ele>264</ele>
        <time>2017-06-28T08:30:01Z</time>
      </trkpt>
      <trkpt lat="45.94229" lon="4.81987">
        <ele>263</ele>
        <time>2017-06-28T08:30:03Z</time>
      </trkpt>
      <trkpt lat="45.94231" lon="4.81993">
        <ele>263</ele>
        <time>2017-06-28T08:30:04Z</time>
      </trkpt>
      <trkpt lat="45.94233" lon="4.82004">
        <ele>263</ele>
        <time>2017-06-28T08:30:06Z</time>
      </trkpt>
      <trkpt lat="45.94235" lon="4.82009">
        <ele>263</ele>
        <time>2017-06-28T08:30:07Z</time>
      </trkpt>
      <trkpt lat="45.94238" lon="4.8202">
        <ele>263</ele>
        <time>2017-06-28T08:30:09Z</time>
      </trkpt>
      <trkpt lat="45.94239" lon="4.82025">
        <ele>263</ele>
        <time>2017-06-28T08:30:10Z</time>
      </trkpt>
      <trkpt lat="45.94241" lon="4.82034">
        <ele>263</ele>
        <time>2017-06-28T08:30:12Z</time>
      </trkpt>
      <trkpt lat="45.94242" lon="4.82038">
        <ele>263</ele>
        <time>2017-06-28T08:30:13Z</time>
      </trkpt>
      <trkpt lat="45.94244" lon="4.82047">
        <ele>263</ele>
        <time>2017-06-28T08:30:15Z</time>
      </trkpt>
      <trkpt lat="45.94245" lon="4.82051">
        <ele>263</ele>
        <time>2017-06-28T08:30:16Z</time>
      </trkpt>
      <trkpt lat="45.94247" lon="4.82061">
        <ele>263</ele>
        <time>2017-06-28T08:30:18Z</time>
      </trkpt>
      <trkpt lat="45.94249" lon="4.82067">
        <ele>263</ele>
        <time>2017-06-28T08:30:19Z</time>
      </trkpt>
      <trkpt lat="45.9425" lon="4.82073">
        <ele>262</ele>
        <time>2017-06-28T08:30:20Z</time>
      </trkpt>
      <trkpt lat="45.94252" lon="4.8208">
        <ele>262</ele>
        <time>2017-06-28T08:30:21Z</time>
      </trkpt>
      <trkpt lat="45.94253" lon="4.82087">
        <ele>262</ele>
        <time>2017-06-28T08:30:22Z</time>
      </trkpt>
      <trkpt lat="45.94254" lon="4.82094">
        <ele>262</ele>
        <time>2017-06-28T08:30:23Z</time>
      </trkpt>
      <trkpt lat="45.94256" lon="4.82101">
        <ele>262</ele>
        <time>2017-06-28T08:30:24Z</time>
      </trkpt>
      <trkpt lat="45.94257" lon="4.82108">
        <ele>262</ele>
        <time>2017-06-28T08:30:25Z</time>
      </trkpt>
      <trkpt lat="45.94258" lon="4.82114">
        <ele>263</ele>
        <time>2017-06-28T08:30:26Z</time>
      </trkpt>
      <trkpt lat="45.94259" lon="4.82121">
        <ele>263</ele>
        <time>2017-06-28T08:30:27Z</time>
      </trkpt>
      <trkpt lat="45.94261" lon="4.82132">
        <ele>263</ele>
        <time>2017-06-28T08:30:29Z</time>
      </trkpt>
      <trkpt lat="45.94262" lon="4.82139">
        <ele>263</ele>
        <time>2017-06-28T08:30:30Z</time>
      </trkpt>
      <trkpt lat="45.94263" lon="4.82145">
        <ele>263</ele>
        <time>2017-06-28T08:30:31Z</time>
      </trkpt>
      <trkpt lat="45.94265" lon="4.82151">
        <ele>263</ele>
        <time>2017-06-28T08:30:32Z</time>
      </trkpt>
      <trkpt lat="45.94267" lon="4.82163">
        <ele>263</ele>
        <time>2017-06-28T08:30:34Z</time>
      </trkpt>
      <trkpt lat="45.94268" lon="4.82169">
        <ele>263</ele>
        <time>2017-06-28T08:30:35Z</time>
      </trkpt>
      <trkpt lat="45.9427" lon="4.82181">
        <ele>264</ele>
        <time>2017-06-28T08:30:37Z</time>
      </trkpt>
      <trkpt lat="45.94271" lon="4.82188">
        <ele>264</ele>
        <time>2017-06-28T08:30:38Z</time>
      </trkpt>
      <trkpt lat="45.94273" lon="4.822">
        <ele>264</ele>
        <time>2017-06-28T08:30:40Z</time>
      </trkpt>
      <trkpt lat="45.94274" lon="4.82205">
        <ele>264</ele>
        <time>2017-06-28T08:30:41Z</time>
      </trkpt>
      <trkpt lat="45.94275" lon="4.82217">
        <ele>264</ele>
        <time>2017-06-28T08:30:43Z</time>
      </trkpt>
      <trkpt lat="45.94276" lon="4.82222">
        <ele>264</ele>
        <time>2017-06-28T08:30:44Z</time>
      </trkpt>
      <trkpt lat="45.94277" lon="4.82234">
        <ele>264</ele>
        <time>2017-06-28T08:30:46Z</time>
      </trkpt>
      <trkpt lat="45.94278" lon="4.82241">
        <ele>264</ele>
        <time>2017-06-28T08:30:47Z</time>
      </trkpt>
      <trkpt lat="45.94279" lon="4.82248">
        <ele>264</ele>
        <time>2017-06-28T08:30:48Z</time>
      </trkpt>
      <trkpt lat="45.94279" lon="4.82255">
        <ele>265</ele>
        <time>2017-06-28T08:30:49Z</time>
      </trkpt>
      <trkpt lat="45.94279" lon="4.82263">
        <ele>265</ele>
        <time>2017-06-28T08:30:50Z</time>
      </trkpt>
      <trkpt lat="45.9428" lon="4.8227">
        <ele>265</ele>
        <time>2017-06-28T08:30:51Z</time>
      </trkpt>
      <trkpt lat="45.9428" lon="4.82277">
        <ele>265</ele>
        <time>2017-06-28T08:30:52Z</time>
      </trkpt>
      <trkpt lat="45.94281" lon="4.82283">
        <ele>265</ele>
        <time>2017-06-28T08:30:53Z</time>
      </trkpt>
      <trkpt lat="45.94282" lon="4.82295">
        <ele>265</ele>
        <time>2017-06-28T08:30:55Z</time>
      </trkpt>
      <trkpt lat="45.94282" lon="4.82301">
        <ele>265</ele>
        <time>2017-06-28T08:30:56Z</time>
      </trkpt>
      <trkpt lat="45.94283" lon="4.82312">
        <ele>265</ele>
        <time>2017-06-28T08:30:58Z</time>
      </trkpt>
      <trkpt lat="45.94283" lon="4.82318">
        <ele>265</ele>
        <time>2017-06-28T08:30:59Z</time>
      </trkpt>
      <trkpt lat="45.94284" lon="4.82329">
        <ele>265</ele>
        <time>2017-06-28T08:31:01Z</time>
      </trkpt>
      <trkpt lat="45.94284" lon="4.82334">
        <ele>264</ele>
        <time>2017-06-28T08:31:02Z</time>
      </trkpt>
      <trkpt lat="45.94285" lon="4.82346">
        <ele>264</ele>
        <time>2017-06-28T08:31:04Z</time>
      </trkpt>
      <trkpt lat="45.94285" lon="4.82353">
        <ele>264</ele>
        <time>2017-06-28T08:31:05Z</time>
      </trkpt>
      <trkpt lat="45.94285" lon="4.82359">
        <ele>264</ele>
        <time>2017-06-28T08:31:06Z</time>
      </trkpt>
      <trkpt lat="45.94286" lon="4.82366">
        <ele>264</ele>
        <time>2017-06-28T08:31:07Z</time>
      </trkpt>
      <trkpt lat="45.94286" lon="4.82374">
        <ele>264</ele>
        <time>2017-06-28T08:31:08Z</time>
      </trkpt>
      <trkpt lat="45.94286" lon="4.82381">
        <ele>264</ele>
        <time>2017-06-28T08:31:09Z</time>
      </trkpt>
      <trkpt lat="45.94287" lon="4.82388">
        <ele>264</ele>
        <time>2017-06-28T08:31:10Z</time>
      </trkpt>
      <trkpt lat="45.94287" lon="4.82395">
        <ele>264</ele>
        <time>2017-06-28T08:31:11Z</time>
      </trkpt>
      <trkpt lat="45.94288" lon="4.82402">
        <ele>264</ele>
        <time>2017-06-28T08:31:12Z</time>
      </trkpt>
      <trkpt lat="45.94288" lon="4.82409">
        <ele>264</ele>
        <time>2017-06-28T08:31:13Z</time>
      </trkpt>
      <trkpt lat="45.94289" lon="4.82415">
        <ele>264</ele>
        <time>2017-06-28T08:31:14Z</time>
      </trkpt>
      <trkpt lat="45.94289" lon="4.82422">
        <ele>264</ele>
        <time>2017-06-28T08:31:15Z</time>
      </trkpt>
      <trkpt lat="45.94289" lon="4.82429">
        <ele>264</ele>
        <time>2017-06-28T08:31:16Z</time>
      </trkpt>
      <trkpt lat="45.9429" lon="4.82435">
        <ele>264</ele>
        <time>2017-06-28T08:31:17Z</time>
      </trkpt>
      <trkpt lat="45.94291" lon="4.82448">
        <ele>264</ele>
        <time>2017-06-28T08:31:19Z</time>
      </trkpt>
      <trkpt lat="45.94291" lon="4.82455">
        <ele>264</ele>
        <time>2017-06-28T08:31:20Z</time>
      </trkpt>
      <trkpt lat="45.94292" lon="4.82462">
        <ele>264</ele>
        <time>2017-06-28T08:31:21Z</time>
      </trkpt>
      <trkpt lat="45.94292" lon="4.82469">
        <ele>264</ele>
        <time>2017-06-28T08:31:22Z</time>
      </trkpt>
      <trkpt lat="45.94292" lon="4.82477">
        <ele>264</ele>
        <time>2017-06-28T08:31:23Z</time>
      </trkpt>
      <trkpt lat="45.94293" lon="4.82484">
        <ele>264</ele>
        <time>2017-06-28T08:31:24Z</time>
      </trkpt>
      <trkpt lat="45.94293" lon="4.82492">
        <ele>264</ele>
        <time>2017-06-28T08:31:25Z</time>
      </trkpt>
      <trkpt lat="45.94293" lon="4.825">
        <ele>264</ele>
        <time>2017-06-28T08:31:26Z</time>
      </trkpt>
      <trkpt lat="45.94293" lon="4.82507">
        <ele>264</ele>
        <time>2017-06-28T08:31:27Z</time>
      </trkpt>
      <trkpt lat="45.94293" lon="4.82513">
        <ele>264</ele>
        <time>2017-06-28T08:31:28Z</time>
      </trkpt>
      <trkpt lat="45.94294" lon="4.8252">
        <ele>264</ele>
        <time>2017-06-28T08:31:29Z</time>
      </trkpt>
      <trkpt lat="45.94293" lon="4.82526">
        <ele>264</ele>
        <time>2017-06-28T08:31:30Z</time>
      </trkpt>
      <trkpt lat="45.94293" lon="4.82538">
        <ele>264</ele>
        <time>2017-06-28T08:31:32Z</time>
      </trkpt>
      <trkpt lat="45.94293" lon="4.82544">
        <ele>264</ele>
        <time>2017-06-28T08:31:33Z</time>
      </trkpt>
      <trkpt lat="45.94293" lon="4.82556">
        <ele>264</ele>
        <time>2017-06-28T08:31:35Z</time>
      </trkpt>
      <trkpt lat="45.94293" lon="4.82562">
        <ele>264</ele>
        <time>2017-06-28T08:31:36Z</time>
      </trkpt>
      <trkpt lat="45.94293" lon="4.82569">
        <ele>264</ele>
        <time>2017-06-28T08:31:37Z</time>
      </trkpt>
      <trkpt lat="45.94293" lon="4.82576">
        <ele>264</ele>
        <time>2017-06-28T08:31:38Z</time>
      </trkpt>
      <trkpt lat="45.94293" lon="4.82583">
        <ele>265</ele>
        <time>2017-06-28T08:31:39Z</time>
      </trkpt>
      <trkpt lat="45.94293" lon="4.8259">
        <ele>265</ele>
        <time>2017-06-28T08:31:40Z</time>
      </trkpt>
      <trkpt lat="45.94292" lon="4.82596">
        <ele>265</ele>
        <time>2017-06-28T08:31:41Z</time>
      </trkpt>
      <trkpt lat="45.94292" lon="4.82604">
        <ele>265</ele>
        <time>2017-06-28T08:31:42Z</time>
      </trkpt>
      <trkpt lat="45.94292" lon="4.82616">
        <ele>265</ele>
        <time>2017-06-28T08:31:44Z</time>
      </trkpt>
      <trkpt lat="45.94292" lon="4.82622">
        <ele>265</ele>
        <time>2017-06-28T08:31:45Z</time>
      </trkpt>
      <trkpt lat="45.94292" lon="4.82628">
        <ele>265</ele>
        <time>2017-06-28T08:31:46Z</time>
      </trkpt>
      <trkpt lat="45.94292" lon="4.82635">
        <ele>265</ele>
        <time>2017-06-28T08:31:47Z</time>
      </trkpt>
      <trkpt lat="45.94292" lon="4.82642">
        <ele>265</ele>
        <time>2017-06-28T08:31:48Z</time>
      </trkpt>
      <trkpt lat="45.94292" lon="4.82649">
        <ele>265</ele>
        <time>2017-06-28T08:31:49Z</time>
      </trkpt>
      <trkpt lat="45.94292" lon="4.82656">
        <ele>265</ele>
        <time>2017-06-28T08:31:50Z</time>
      </trkpt>
      <trkpt lat="45.94292" lon="4.82663">
        <ele>265</ele>
        <time>2017-06-28T08:31:51Z</time>
      </trkpt>
      <trkpt lat="45.94292" lon="4.82676">
        <ele>265</ele>
        <time>2017-06-28T08:31:53Z</time>
      </trkpt>
      <trkpt lat="45.94292" lon="4.82682">
        <ele>265</ele>
        <time>2017-06-28T08:31:54Z</time>
      </trkpt>
      <trkpt lat="45.94292" lon="4.82693">
        <ele>265</ele>
        <time>2017-06-28T08:31:56Z</time>
      </trkpt>
      <trkpt lat="45.94292" lon="4.82699">
        <ele>265</ele>
        <time>2017-06-28T08:31:57Z</time>
      </trkpt>
      <trkpt lat="45.94291" lon="4.82712">
        <ele>265</ele>
        <time>2017-06-28T08:31:59Z</time>
      </trkpt>
      <trkpt lat="45.94291" lon="4.82718">
        <ele>265</ele>
        <time>2017-06-28T08:32:00Z</time>
      </trkpt>
      <trkpt lat="45.94291" lon="4.82724">
        <ele>265</ele>
        <time>2017-06-28T08:32:01Z</time>
      </trkpt>
      <trkpt lat="45.94291" lon="4.82731">
        <ele>265</ele>
        <time>2017-06-28T08:32:02Z</time>
      </trkpt>
      <trkpt lat="45.94291" lon="4.82737">
        <ele>265</ele>
        <time>2017-06-28T08:32:03Z</time>
      </trkpt>
      <trkpt lat="45.94291" lon="4.82744">
        <ele>265</ele>
        <time>2017-06-28T08:32:04Z</time>
      </trkpt>
      <trkpt lat="45.94291" lon="4.82751">
        <ele>265</ele>
        <time>2017-06-28T08:32:05Z</time>
      </trkpt>
      <trkpt lat="45.94291" lon="4.82758">
        <ele>265</ele>
        <time>2017-06-28T08:32:06Z</time>
      </trkpt>
      <trkpt lat="45.94291" lon="4.82765">
        <ele>265</ele>
        <time>2017-06-28T08:32:07Z</time>
      </trkpt>
      <trkpt lat="45.94291" lon="4.82772">
        <ele>265</ele>
        <time>2017-06-28T08:32:08Z</time>
      </trkpt>
      <trkpt lat="45.9429" lon="4.82784">
        <ele>265</ele>
        <time>2017-06-28T08:32:10Z</time>
      </trkpt>
      <trkpt lat="45.9429" lon="4.8279">
        <ele>265</ele>
        <time>2017-06-28T08:32:11Z</time>
      </trkpt>
      <trkpt lat="45.9429" lon="4.82801">
        <ele>265</ele>
        <time>2017-06-28T08:32:13Z</time>
      </trkpt>
      <trkpt lat="45.9429" lon="4.82806">
        <ele>265</ele>
        <time>2017-06-28T08:32:14Z</time>
      </trkpt>
      <trkpt lat="45.94289" lon="4.82818">
        <ele>265</ele>
        <time>2017-06-28T08:32:16Z</time>
      </trkpt>
      <trkpt lat="45.94289" lon="4.82825">
        <ele>265</ele>
        <time>2017-06-28T08:32:17Z</time>
      </trkpt>
      <trkpt lat="45.94289" lon="4.82832">
        <ele>265</ele>
        <time>2017-06-28T08:32:18Z</time>
      </trkpt>
      <trkpt lat="45.94289" lon="4.82839">
        <ele>265</ele>
        <time>2017-06-28T08:32:19Z</time>
      </trkpt>
      <trkpt lat="45.94288" lon="4.82847">
        <ele>265</ele>
        <time>2017-06-28T08:32:20Z</time>
      </trkpt>
      <trkpt lat="45.94288" lon="4.82854">
        <ele>265</ele>
        <time>2017-06-28T08:32:21Z</time>
      </trkpt>
      <trkpt lat="45.94288" lon="4.82861">
        <ele>265</ele>
        <time>2017-06-28T08:32:22Z</time>
      </trkpt>
      <trkpt lat="45.94288" lon="4.82868">
        <ele>265</ele>
        <time>2017-06-28T08:32:23Z</time>
      </trkpt>
      <trkpt lat="45.94287" lon="4.82875">
        <ele>265</ele>
        <time>2017-06-28T08:32:24Z</time>
      </trkpt>
      <trkpt lat="45.94287" lon="4.82882">
        <ele>265</ele>
        <time>2017-06-28T08:32:25Z</time>
      </trkpt>
      <trkpt lat="45.94285" lon="4.82894">
        <ele>265</ele>
        <time>2017-06-28T08:32:27Z</time>
      </trkpt>
      <trkpt lat="45.94285" lon="4.829">
        <ele>265</ele>
        <time>2017-06-28T08:32:28Z</time>
      </trkpt>
      <trkpt lat="45.94284" lon="4.82911">
        <ele>265</ele>
        <time>2017-06-28T08:32:30Z</time>
      </trkpt>
      <trkpt lat="45.94283" lon="4.82917">
        <ele>265</ele>
        <time>2017-06-28T08:32:31Z</time>
      </trkpt>
      <trkpt lat="45.94281" lon="4.82924">
        <ele>265</ele>
        <time>2017-06-28T08:32:32Z</time>
      </trkpt>
      <trkpt lat="45.9428" lon="4.82931">
        <ele>265</ele>
        <time>2017-06-28T08:32:33Z</time>
      </trkpt>
      <trkpt lat="45.94278" lon="4.82939">
        <ele>265</ele>
        <time>2017-06-28T08:32:34Z</time>
      </trkpt>
      <trkpt lat="45.94276" lon="4.82946">
        <ele>265</ele>
        <time>2017-06-28T08:32:35Z</time>
      </trkpt>
      <trkpt lat="45.94274" lon="4.82952">
        <ele>265</ele>
        <time>2017-06-28T08:32:36Z</time>
      </trkpt>
      <trkpt lat="45.94271" lon="4.82958">
        <ele>265</ele>
        <time>2017-06-28T08:32:37Z</time>
      </trkpt>
      <trkpt lat="45.94269" lon="4.82964">
        <ele>265</ele>
        <time>2017-06-28T08:32:38Z</time>
      </trkpt>
      <trkpt lat="45.94267" lon="4.8297">
        <ele>265</ele>
        <time>2017-06-28T08:32:39Z</time>
      </trkpt>
      <trkpt lat="45.94262" lon="4.82981">
        <ele>266</ele>
        <time>2017-06-28T08:32:41Z</time>
      </trkpt>
      <trkpt lat="45.9426" lon="4.82986">
        <ele>266</ele>
        <time>2017-06-28T08:32:42Z</time>
      </trkpt>
      <trkpt lat="45.94257" lon="4.82991">
        <ele>266</ele>
        <time>2017-06-28T08:32:43Z</time>
      </trkpt>
      <trkpt lat="45.94254" lon="4.82996">
        <ele>266</ele>
        <time>2017-06-28T08:32:44Z</time>
      </trkpt>
      <trkpt lat="45.9425" lon="4.83001">
        <ele>266</ele>
        <time>2017-06-28T08:32:45Z</time>
      </trkpt>
      <trkpt lat="45.94247" lon="4.83006">
        <ele>266</ele>
        <time>2017-06-28T08:32:46Z</time>
      </trkpt>
      <trkpt lat="45.94244" lon="4.83011">
        <ele>266</ele>
        <time>2017-06-28T08:32:47Z</time>
      </trkpt>
      <trkpt lat="45.9424" lon="4.83016">
        <ele>266</ele>
        <time>2017-06-28T08:32:48Z</time>
      </trkpt>
      <trkpt lat="45.94237" lon="4.83022">
        <ele>266</ele>
        <time>2017-06-28T08:32:49Z</time>
      </trkpt>
      <trkpt lat="45.94234" lon="4.83027">
        <ele>266</ele>
        <time>2017-06-28T08:32:50Z</time>
      </trkpt>
      <trkpt lat="45.9423" lon="4.83032">
        <ele>266</ele>
        <time>2017-06-28T08:32:51Z</time>
      </trkpt>
      <trkpt lat="45.94227" lon="4.83036">
        <ele>266</ele>
        <time>2017-06-28T08:32:52Z</time>
      </trkpt>
      <trkpt lat="45.94224" lon="4.83041">
        <ele>266</ele>
        <time>2017-06-28T08:32:53Z</time>
      </trkpt>
      <trkpt lat="45.94221" lon="4.83046">
        <ele>266</ele>
        <time>2017-06-28T08:32:54Z</time>
      </trkpt>
      <trkpt lat="45.94218" lon="4.83051">
        <ele>266</ele>
        <time>2017-06-28T08:32:55Z</time>
      </trkpt>
      <trkpt lat="45.94214" lon="4.83056">
        <ele>266</ele>
        <time>2017-06-28T08:32:56Z</time>
      </trkpt>
      <trkpt lat="45.9421" lon="4.83061">
        <ele>266</ele>
        <time>2017-06-28T08:32:57Z</time>
      </trkpt>
      <trkpt lat="45.94207" lon="4.83067">
        <ele>265</ele>
        <time>2017-06-28T08:32:58Z</time>
      </trkpt>
      <trkpt lat="45.94203" lon="4.83072">
        <ele>265</ele>
        <time>2017-06-28T08:32:59Z</time>
      </trkpt>
      <trkpt lat="45.94199" lon="4.83078">
        <ele>265</ele>
        <time>2017-06-28T08:33:00Z</time>
      </trkpt>
      <trkpt lat="45.94195" lon="4.83084">
        <ele>265</ele>
        <time>2017-06-28T08:33:01Z</time>
      </trkpt>
      <trkpt lat="45.94191" lon="4.8309">
        <ele>265</ele>
        <time>2017-06-28T08:33:02Z</time>
      </trkpt>
      <trkpt lat="45.94187" lon="4.83096">
        <ele>265</ele>
        <time>2017-06-28T08:33:03Z</time>
      </trkpt>
      <trkpt lat="45.94183" lon="4.83102">
        <ele>265</ele>
        <time>2017-06-28T08:33:04Z</time>
      </trkpt>
      <trkpt lat="45.94179" lon="4.83107">
        <ele>265</ele>
        <time>2017-06-28T08:33:05Z</time>
      </trkpt>
      <trkpt lat="45.94176" lon="4.83112">
        <ele>265</ele>
        <time>2017-06-28T08:33:06Z</time>
      </trkpt>
      <trkpt lat="45.94172" lon="4.83118">
        <ele>265</ele>
        <time>2017-06-28T08:33:07Z</time>
      </trkpt>
      <trkpt lat="45.94169" lon="4.83123">
        <ele>265</ele>
        <time>2017-06-28T08:33:08Z</time>
      </trkpt>
      <trkpt lat="45.94165" lon="4.83128">
        <ele>265</ele>
        <time>2017-06-28T08:33:09Z</time>
      </trkpt>
      <trkpt lat="45.94162" lon="4.83134">
        <ele>265</ele>
        <time>2017-06-28T08:33:10Z</time>
      </trkpt>
      <trkpt lat="45.94158" lon="4.8314">
        <ele>265</ele>
        <time>2017-06-28T08:33:11Z</time>
      </trkpt>
      <trkpt lat="45.94154" lon="4.83146">
        <ele>265</ele>
        <time>2017-06-28T08:33:12Z</time>
      </trkpt>
      <trkpt lat="45.9415" lon="4.83152">
        <ele>265</ele>
        <time>2017-06-28T08:33:13Z</time>
      </trkpt>
      <trkpt lat="45.94146" lon="4.83159">
        <ele>265</ele>
        <time>2017-06-28T08:33:14Z</time>
      </trkpt>
      <trkpt lat="45.94141" lon="4.83166">
        <ele>265</ele>
        <time>2017-06-28T08:33:15Z</time>
      </trkpt>
      <trkpt lat="45.94137" lon="4.83172">
        <ele>266</ele>
        <time>2017-06-28T08:33:16Z</time>
      </trkpt>
      <trkpt lat="45.94132" lon="4.83179">
        <ele>266</ele>
        <time>2017-06-28T08:33:17Z</time>
      </trkpt>
      <trkpt lat="45.94128" lon="4.83185">
        <ele>266</ele>
        <time>2017-06-28T08:33:18Z</time>
      </trkpt>
      <trkpt lat="45.94124" lon="4.8319">
        <ele>266</ele>
        <time>2017-06-28T08:33:19Z</time>
      </trkpt>
      <trkpt lat="45.9412" lon="4.83196">
        <ele>266</ele>
        <time>2017-06-28T08:33:20Z</time>
      </trkpt>
      <trkpt lat="45.94117" lon="4.83201">
        <ele>266</ele>
        <time>2017-06-28T08:33:21Z</time>
      </trkpt>
      <trkpt lat="45.94113" lon="4.83206">
        <ele>266</ele>
        <time>2017-06-28T08:33:22Z</time>
      </trkpt>
      <trkpt lat="45.94109" lon="4.83212">
        <ele>266</ele>
        <time>2017-06-28T08:33:23Z</time>
      </trkpt>
      <trkpt lat="45.94106" lon="4.83217">
        <ele>266</ele>
        <time>2017-06-28T08:33:24Z</time>
      </trkpt>
      <trkpt lat="45.94102" lon="4.83223">
        <ele>266</ele>
        <time>2017-06-28T08:33:25Z</time>
      </trkpt>
      <trkpt lat="45.94098" lon="4.83229">
        <ele>266</ele>
        <time>2017-06-28T08:33:26Z</time>
      </trkpt>
      <trkpt lat="45.94094" lon="4.83235">
        <ele>266</ele>
        <time>2017-06-28T08:33:27Z</time>
      </trkpt>
      <trkpt lat="45.94091" lon="4.8324">
        <ele>266</ele>
        <time>2017-06-28T08:33:28Z</time>
      </trkpt>
      <trkpt lat="45.94087" lon="4.83246">
        <ele>266</ele>
        <time>2017-06-28T08:33:29Z</time>
      </trkpt>
      <trkpt lat="45.94083" lon="4.83252">
        <ele>266</ele>
        <time>2017-06-28T08:33:30Z</time>
      </trkpt>
      <trkpt lat="45.94079" lon="4.83258">
        <ele>266</ele>
        <time>2017-06-28T08:33:31Z</time>
      </trkpt>
      <trkpt lat="45.94075" lon="4.83264">
        <ele>266</ele>
        <time>2017-06-28T08:33:32Z</time>
      </trkpt>
      <trkpt lat="45.94072" lon="4.83269">
        <ele>266</ele>
        <time>2017-06-28T08:33:33Z</time>
      </trkpt>
      <trkpt lat="45.94069" lon="4.83274">
        <ele>266</ele>
        <time>2017-06-28T08:33:34Z</time>
      </trkpt>
      <trkpt lat="45.94065" lon="4.83279">
        <ele>266</ele>
        <time>2017-06-28T08:33:35Z</time>
      </trkpt>
      <trkpt lat="45.94062" lon="4.83284">
        <ele>266</ele>
        <time>2017-06-28T08:33:36Z</time>
      </trkpt>
      <trkpt lat="45.94059" lon="4.83289">
        <ele>266</ele>
        <time>2017-06-28T08:33:37Z</time>
      </trkpt>
      <trkpt lat="45.94055" lon="4.83294">
        <ele>266</ele>
        <time>2017-06-28T08:33:38Z</time>
      </trkpt>
      <trkpt lat="45.94052" lon="4.833">
        <ele>266</ele>
        <time>2017-06-28T08:33:39Z</time>
      </trkpt>
      <trkpt lat="45.94048" lon="4.83305">
        <ele>266</ele>
        <time>2017-06-28T08:33:40Z</time>
      </trkpt>
      <trkpt lat="45.94045" lon="4.8331">
        <ele>266</ele>
        <time>2017-06-28T08:33:41Z</time>
      </trkpt>
      <trkpt lat="45.94041" lon="4.83315">
        <ele>266</ele>
        <time>2017-06-28T08:33:42Z</time>
      </trkpt>
      <trkpt lat="45.94037" lon="4.83321">
        <ele>266</ele>
        <time>2017-06-28T08:33:43Z</time>
      </trkpt>
      <trkpt lat="45.94034" lon="4.83326">
        <ele>266</ele>
        <time>2017-06-28T08:33:44Z</time>
      </trkpt>
      <trkpt lat="45.9403" lon="4.83331">
        <ele>266</ele>
        <time>2017-06-28T08:33:45Z</time>
      </trkpt>
      <trkpt lat="45.94027" lon="4.83336">
        <ele>266</ele>
        <time>2017-06-28T08:33:46Z</time>
      </trkpt>
      <trkpt lat="45.94024" lon="4.83341">
        <ele>266</ele>
        <time>2017-06-28T08:33:47Z</time>
      </trkpt>
      <trkpt lat="45.94021" lon="4.83346">
        <ele>266</ele>
        <time>2017-06-28T08:33:48Z</time>
      </trkpt>
      <trkpt lat="45.94017" lon="4.83352">
        <ele>266</ele>
        <time>2017-06-28T08:33:49Z</time>
      </trkpt>
      <trkpt lat="45.94014" lon="4.83357">
        <ele>266</ele>
        <time>2017-06-28T08:33:50Z</time>
      </trkpt>
      <trkpt lat="45.94011" lon="4.83362">
        <ele>266</ele>
        <time>2017-06-28T08:33:51Z</time>
      </trkpt>
      <trkpt lat="45.94007" lon="4.83367">
        <ele>266</ele>
        <time>2017-06-28T08:33:52Z</time>
      </trkpt>
      <trkpt lat="45.94003" lon="4.83373">
        <ele>266</ele>
        <time>2017-06-28T08:33:53Z</time>
      </trkpt>
      <trkpt lat="45.94" lon="4.83379">
        <ele>266</ele>
        <time>2017-06-28T08:33:54Z</time>
      </trkpt>
      <trkpt lat="45.93996" lon="4.83384">
        <ele>266</ele>
        <time>2017-06-28T08:33:55Z</time>
      </trkpt>
      <trkpt lat="45.93993" lon="4.8339">
        <ele>266</ele>
        <time>2017-06-28T08:33:56Z</time>
      </trkpt>
      <trkpt lat="45.93989" lon="4.83395">
        <ele>266</ele>
        <time>2017-06-28T08:33:57Z</time>
      </trkpt>
      <trkpt lat="45.93986" lon="4.834">
        <ele>266</ele>
        <time>2017-06-28T08:33:58Z</time>
      </trkpt>
      <trkpt lat="45.93982" lon="4.83405">
        <ele>266</ele>
        <time>2017-06-28T08:33:59Z</time>
      </trkpt>
      <trkpt lat="45.93979" lon="4.8341">
        <ele>266</ele>
        <time>2017-06-28T08:34:00Z</time>
      </trkpt>
      <trkpt lat="45.93975" lon="4.83415">
        <ele>266</ele>
        <time>2017-06-28T08:34:01Z</time>
      </trkpt>
      <trkpt lat="45.93972" lon="4.8342">
        <ele>265</ele>
        <time>2017-06-28T08:34:02Z</time>
      </trkpt>
      <trkpt lat="45.93968" lon="4.83425">
        <ele>265</ele>
        <time>2017-06-28T08:34:03Z</time>
      </trkpt>
      <trkpt lat="45.93965" lon="4.8343">
        <ele>265</ele>
        <time>2017-06-28T08:34:04Z</time>
      </trkpt>
      <trkpt lat="45.93961" lon="4.83436">
        <ele>265</ele>
        <time>2017-06-28T08:34:05Z</time>
      </trkpt>
      <trkpt lat="45.93958" lon="4.83441">
        <ele>265</ele>
        <time>2017-06-28T08:34:06Z</time>
      </trkpt>
      <trkpt lat="45.93954" lon="4.83446">
        <ele>265</ele>
        <time>2017-06-28T08:34:07Z</time>
      </trkpt>
      <trkpt lat="45.93951" lon="4.83452">
        <ele>265</ele>
        <time>2017-06-28T08:34:08Z</time>
      </trkpt>
      <trkpt lat="45.93947" lon="4.83456">
        <ele>265</ele>
        <time>2017-06-28T08:34:09Z</time>
      </trkpt>
      <trkpt lat="45.93944" lon="4.83461">
        <ele>265</ele>
        <time>2017-06-28T08:34:10Z</time>
      </trkpt>
      <trkpt lat="45.93941" lon="4.83466">
        <ele>265</ele>
        <time>2017-06-28T08:34:11Z</time>
      </trkpt>
      <trkpt lat="45.93938" lon="4.83471">
        <ele>265</ele>
        <time>2017-06-28T08:34:12Z</time>
      </trkpt>
      <trkpt lat="45.93934" lon="4.83476">
        <ele>265</ele>
        <time>2017-06-28T08:34:13Z</time>
      </trkpt>
      <trkpt lat="45.93931" lon="4.83481">
        <ele>265</ele>
        <time>2017-06-28T08:34:14Z</time>
      </trkpt>
      <trkpt lat="45.93927" lon="4.83486">
        <ele>265</ele>
        <time>2017-06-28T08:34:15Z</time>
      </trkpt>
      <trkpt lat="45.93924" lon="4.83491">
        <ele>265</ele>
        <time>2017-06-28T08:34:16Z</time>
      </trkpt>
      <trkpt lat="45.93921" lon="4.83496">
        <ele>265</ele>
        <time>2017-06-28T08:34:17Z</time>
      </trkpt>
      <trkpt lat="45.93917" lon="4.83501">
        <ele>265</ele>
        <time>2017-06-28T08:34:18Z</time>
      </trkpt>
      <trkpt lat="45.93913" lon="4.83507">
        <ele>265</ele>
        <time>2017-06-28T08:34:19Z</time>
      </trkpt>
      <trkpt lat="45.93909" lon="4.83512">
        <ele>265</ele>
        <time>2017-06-28T08:34:20Z</time>
      </trkpt>
      <trkpt lat="45.93906" lon="4.83518">
        <ele>265</ele>
        <time>2017-06-28T08:34:21Z</time>
      </trkpt>
      <trkpt lat="45.93902" lon="4.83523">
        <ele>265</ele>
        <time>2017-06-28T08:34:22Z</time>
      </trkpt>
      <trkpt lat="45.93899" lon="4.83529">
        <ele>265</ele>
        <time>2017-06-28T08:34:23Z</time>
      </trkpt>
      <trkpt lat="45.93896" lon="4.83534">
        <ele>265</ele>
        <time>2017-06-28T08:34:24Z</time>
      </trkpt>
      <trkpt lat="45.93893" lon="4.83539">
        <ele>265</ele>
        <time>2017-06-28T08:34:25Z</time>
      </trkpt>
      <trkpt lat="45.9389" lon="4.83544">
        <ele>265</ele>
        <time>2017-06-28T08:34:26Z</time>
      </trkpt>
      <trkpt lat="45.93887" lon="4.83549">
        <ele>265</ele>
        <time>2017-06-28T08:34:27Z</time>
      </trkpt>
      <trkpt lat="45.93884" lon="4.83555">
        <ele>265</ele>
        <time>2017-06-28T08:34:28Z</time>
      </trkpt>
      <trkpt lat="45.93881" lon="4.83561">
        <ele>265</ele>
        <time>2017-06-28T08:34:29Z</time>
      </trkpt>
      <trkpt lat="45.93877" lon="4.83568">
        <ele>265</ele>
        <time>2017-06-28T08:34:30Z</time>
      </trkpt>
      <trkpt lat="45.93874" lon="4.83575">
        <ele>265</ele>
        <time>2017-06-28T08:34:31Z</time>
      </trkpt>
      <trkpt lat="45.9387" lon="4.83581">
        <ele>265</ele>
        <time>2017-06-28T08:34:32Z</time>
      </trkpt>
      <trkpt lat="45.93867" lon="4.83587">
        <ele>265</ele>
        <time>2017-06-28T08:34:33Z</time>
      </trkpt>
      <trkpt lat="45.93864" lon="4.83593">
        <ele>265</ele>
        <time>2017-06-28T08:34:34Z</time>
      </trkpt>
      <trkpt lat="45.93861" lon="4.83599">
        <ele>265</ele>
        <time>2017-06-28T08:34:35Z</time>
      </trkpt>
      <trkpt lat="45.93858" lon="4.83605">
        <ele>265</ele>
        <time>2017-06-28T08:34:36Z</time>
      </trkpt>
      <trkpt lat="45.93856" lon="4.83611">
        <ele>265</ele>
        <time>2017-06-28T08:34:37Z</time>
      </trkpt>
      <trkpt lat="45.93853" lon="4.83616">
        <ele>265</ele>
        <time>2017-06-28T08:34:38Z</time>
      </trkpt>
      <trkpt lat="45.93851" lon="4.83622">
        <ele>265</ele>
        <time>2017-06-28T08:34:39Z</time>
      </trkpt>
      <trkpt lat="45.93849" lon="4.83628">
        <ele>265</ele>
        <time>2017-06-28T08:34:40Z</time>
      </trkpt>
      <trkpt lat="45.93846" lon="4.83634">
        <ele>265</ele>
        <time>2017-06-28T08:34:41Z</time>
      </trkpt>
      <trkpt lat="45.93844" lon="4.83641">
        <ele>265</ele>
        <time>2017-06-28T08:34:42Z</time>
      </trkpt>
      <trkpt lat="45.93841" lon="4.83648">
        <ele>265</ele>
        <time>2017-06-28T08:34:43Z</time>
      </trkpt>
      <trkpt lat="45.93839" lon="4.83654">
        <ele>265</ele>
        <time>2017-06-28T08:34:44Z</time>
      </trkpt>
      <trkpt lat="45.93836" lon="4.83661">
        <ele>265</ele>
        <time>2017-06-28T08:34:45Z</time>
      </trkpt>
      <trkpt lat="45.93833" lon="4.83668">
        <ele>265</ele>
        <time>2017-06-28T08:34:46Z</time>
      </trkpt>
      <trkpt lat="45.9383" lon="4.83676">
        <ele>265</ele>
        <time>2017-06-28T08:34:47Z</time>
      </trkpt>
      <trkpt lat="45.93828" lon="4.83684">
        <ele>265</ele>
        <time>2017-06-28T08:34:48Z</time>
      </trkpt>
      <trkpt lat="45.93826" lon="4.83692">
        <ele>266</ele>
        <time>2017-06-28T08:34:49Z</time>
      </trkpt>
      <trkpt lat="45.93824" lon="4.83699">
        <ele>266</ele>
        <time>2017-06-28T08:34:50Z</time>
      </trkpt>
      <trkpt lat="45.93822" lon="4.83707">
        <ele>266</ele>
        <time>2017-06-28T08:34:51Z</time>
      </trkpt>
      <trkpt lat="45.93819" lon="4.83714">
        <ele>266</ele>
        <time>2017-06-28T08:34:52Z</time>
      </trkpt>
      <trkpt lat="45.93817" lon="4.83721">
        <ele>266</ele>
        <time>2017-06-28T08:34:53Z</time>
      </trkpt>
      <trkpt lat="45.93815" lon="4.83728">
        <ele>266</ele>
        <time>2017-06-28T08:34:54Z</time>
      </trkpt>
      <trkpt lat="45.93813" lon="4.83734">
        <ele>266</ele>
        <time>2017-06-28T08:34:55Z</time>
      </trkpt>
      <trkpt lat="45.93811" lon="4.83741">
        <ele>266</ele>
        <time>2017-06-28T08:34:56Z</time>
      </trkpt>
      <trkpt lat="45.93809" lon="4.83747">
        <ele>266</ele>
        <time>2017-06-28T08:34:57Z</time>
      </trkpt>
      <trkpt lat="45.93807" lon="4.83754">
        <ele>266</ele>
        <time>2017-06-28T08:34:58Z</time>
      </trkpt>
      <trkpt lat="45.93805" lon="4.83761">
        <ele>266</ele>
        <time>2017-06-28T08:34:59Z</time>
      </trkpt>
      <trkpt lat="45.93802" lon="4.83768">
        <ele>266</ele>
        <time>2017-06-28T08:35:00Z</time>
      </trkpt>
      <trkpt lat="45.938" lon="4.83776">
        <ele>266</ele>
        <time>2017-06-28T08:35:01Z</time>
      </trkpt>
      <trkpt lat="45.93798" lon="4.83784">
        <ele>266</ele>
        <time>2017-06-28T08:35:02Z</time>
      </trkpt>
      <trkpt lat="45.93796" lon="4.83792">
        <ele>266</ele>
        <time>2017-06-28T08:35:03Z</time>
      </trkpt>
      <trkpt lat="45.93794" lon="4.838">
        <ele>266</ele>
        <time>2017-06-28T08:35:04Z</time>
      </trkpt>
      <trkpt lat="45.93792" lon="4.83808">
        <ele>266</ele>
        <time>2017-06-28T08:35:05Z</time>
      </trkpt>
      <trkpt lat="45.9379" lon="4.83815">
        <ele>266</ele>
        <time>2017-06-28T08:35:06Z</time>
      </trkpt>
      <trkpt lat="45.93788" lon="4.83822">
        <ele>266</ele>
        <time>2017-06-28T08:35:07Z</time>
      </trkpt>
      <trkpt lat="45.93787" lon="4.83829">
        <ele>266</ele>
        <time>2017-06-28T08:35:08Z</time>
      </trkpt>
      <trkpt lat="45.93785" lon="4.83836">
        <ele>266</ele>
        <time>2017-06-28T08:35:09Z</time>
      </trkpt>
      <trkpt lat="45.93783" lon="4.83842">
        <ele>266</ele>
        <time>2017-06-28T08:35:10Z</time>
      </trkpt>
      <trkpt lat="45.93781" lon="4.83848">
        <ele>266</ele>
        <time>2017-06-28T08:35:11Z</time>
      </trkpt>
      <trkpt lat="45.9378" lon="4.83855">
        <ele>266</ele>
        <time>2017-06-28T08:35:12Z</time>
      </trkpt>
      <trkpt lat="45.93778" lon="4.83863">
        <ele>266</ele>
        <time>2017-06-28T08:35:13Z</time>
      </trkpt>
      <trkpt lat="45.93777" lon="4.83869">
        <ele>266</ele>
        <time>2017-06-28T08:35:14Z</time>
      </trkpt>
      <trkpt lat="45.93776" lon="4.83876">
        <ele>266</ele>
        <time>2017-06-28T08:35:15Z</time>
      </trkpt>
      <trkpt lat="45.93775" lon="4.83882">
        <ele>266</ele>
        <time>2017-06-28T08:35:16Z</time>
      </trkpt>
      <trkpt lat="45.93773" lon="4.83888">
        <ele>266</ele>
        <time>2017-06-28T08:35:17Z</time>
      </trkpt>
      <trkpt lat="45.93772" lon="4.83895">
        <ele>266</ele>
        <time>2017-06-28T08:35:18Z</time>
      </trkpt>
      <trkpt lat="45.93771" lon="4.83902">
        <ele>266</ele>
        <time>2017-06-28T08:35:19Z</time>
      </trkpt>
      <trkpt lat="45.93769" lon="4.83909">
        <ele>266</ele>
        <time>2017-06-28T08:35:20Z</time>
      </trkpt>
      <trkpt lat="45.93768" lon="4.83917">
        <ele>267</ele>
        <time>2017-06-28T08:35:21Z</time>
      </trkpt>
      <trkpt lat="45.93767" lon="4.83925">
        <ele>267</ele>
        <time>2017-06-28T08:35:22Z</time>
      </trkpt>
      <trkpt lat="45.93766" lon="4.83934">
        <ele>267</ele>
        <time>2017-06-28T08:35:23Z</time>
      </trkpt>
      <trkpt lat="45.93764" lon="4.83943">
        <ele>267</ele>
        <time>2017-06-28T08:35:24Z</time>
      </trkpt>
      <trkpt lat="45.93763" lon="4.8395">
        <ele>267</ele>
        <time>2017-06-28T08:35:25Z</time>
      </trkpt>
      <trkpt lat="45.93762" lon="4.83958">
        <ele>268</ele>
        <time>2017-06-28T08:35:26Z</time>
      </trkpt>
      <trkpt lat="45.93761" lon="4.83965">
        <ele>268</ele>
        <time>2017-06-28T08:35:27Z</time>
      </trkpt>
      <trkpt lat="45.9376" lon="4.83972">
        <ele>268</ele>
        <time>2017-06-28T08:35:28Z</time>
      </trkpt>
      <trkpt lat="45.93759" lon="4.8398">
        <ele>268</ele>
        <time>2017-06-28T08:35:29Z</time>
      </trkpt>
      <trkpt lat="45.93758" lon="4.83987">
        <ele>268</ele>
        <time>2017-06-28T08:35:30Z</time>
      </trkpt>
      <trkpt lat="45.93757" lon="4.83994">
        <ele>269</ele>
        <time>2017-06-28T08:35:31Z</time>
      </trkpt>
      <trkpt lat="45.93756" lon="4.84002">
        <ele>269</ele>
        <time>2017-06-28T08:35:32Z</time>
      </trkpt>
      <trkpt lat="45.93756" lon="4.84009">
        <ele>269</ele>
        <time>2017-06-28T08:35:33Z</time>
      </trkpt>
      <trkpt lat="45.93755" lon="4.84016">
        <ele>269</ele>
        <time>2017-06-28T08:35:34Z</time>
      </trkpt>
      <trkpt lat="45.93754" lon="4.84023">
        <ele>269</ele>
        <time>2017-06-28T08:35:35Z</time>
      </trkpt>
      <trkpt lat="45.93753" lon="4.84029">
        <ele>269</ele>
        <time>2017-06-28T08:35:36Z</time>
      </trkpt>
      <trkpt lat="45.93752" lon="4.84035">
        <ele>269</ele>
        <time>2017-06-28T08:35:37Z</time>
      </trkpt>
      <trkpt lat="45.93751" lon="4.84042">
        <ele>270</ele>
        <time>2017-06-28T08:35:38Z</time>
      </trkpt>
      <trkpt lat="45.9375" lon="4.84049">
        <ele>270</ele>
        <time>2017-06-28T08:35:39Z</time>
      </trkpt>
      <trkpt lat="45.9375" lon="4.84057">
        <ele>270</ele>
        <time>2017-06-28T08:35:40Z</time>
      </trkpt>
      <trkpt lat="45.93749" lon="4.84064">
        <ele>270</ele>
        <time>2017-06-28T08:35:41Z</time>
      </trkpt>
      <trkpt lat="45.93748" lon="4.84073">
        <ele>270</ele>
        <time>2017-06-28T08:35:42Z</time>
      </trkpt>
      <trkpt lat="45.93748" lon="4.84081">
        <ele>270</ele>
        <time>2017-06-28T08:35:43Z</time>
      </trkpt>
      <trkpt lat="45.93747" lon="4.8409">
        <ele>270</ele>
        <time>2017-06-28T08:35:44Z</time>
      </trkpt>
      <trkpt lat="45.93747" lon="4.84099">
        <ele>270</ele>
        <time>2017-06-28T08:35:45Z</time>
      </trkpt>
      <trkpt lat="45.93746" lon="4.84107">
        <ele>270</ele>
        <time>2017-06-28T08:35:46Z</time>
      </trkpt>
      <trkpt lat="45.93746" lon="4.84116">
        <ele>270</ele>
        <time>2017-06-28T08:35:47Z</time>
      </trkpt>
      <trkpt lat="45.93745" lon="4.84124">
        <ele>270</ele>
        <time>2017-06-28T08:35:48Z</time>
      </trkpt>
      <trkpt lat="45.93745" lon="4.84133">
        <ele>270</ele>
        <time>2017-06-28T08:35:49Z</time>
      </trkpt>
      <trkpt lat="45.93745" lon="4.84141">
        <ele>270</ele>
        <time>2017-06-28T08:35:50Z</time>
      </trkpt>
      <trkpt lat="45.93744" lon="4.8415">
        <ele>270</ele>
        <time>2017-06-28T08:35:51Z</time>
      </trkpt>
      <trkpt lat="45.93744" lon="4.84158">
        <ele>270</ele>
        <time>2017-06-28T08:35:52Z</time>
      </trkpt>
      <trkpt lat="45.93744" lon="4.84166">
        <ele>270</ele>
        <time>2017-06-28T08:35:53Z</time>
      </trkpt>
      <trkpt lat="45.93745" lon="4.84174">
        <ele>270</ele>
        <time>2017-06-28T08:35:54Z</time>
      </trkpt>
      <trkpt lat="45.93745" lon="4.84182">
        <ele>270</ele>
        <time>2017-06-28T08:35:55Z</time>
      </trkpt>
      <trkpt lat="45.93746" lon="4.84191">
        <ele>270</ele>
        <time>2017-06-28T08:35:56Z</time>
      </trkpt>
      <trkpt lat="45.93746" lon="4.84199">
        <ele>270</ele>
        <time>2017-06-28T08:35:57Z</time>
      </trkpt>
      <trkpt lat="45.93746" lon="4.84207">
        <ele>270</ele>
        <time>2017-06-28T08:35:58Z</time>
      </trkpt>
      <trkpt lat="45.93747" lon="4.84215">
        <ele>270</ele>
        <time>2017-06-28T08:35:59Z</time>
      </trkpt>
      <trkpt lat="45.93747" lon="4.84223">
        <ele>270</ele>
        <time>2017-06-28T08:36:00Z</time>
      </trkpt>
      <trkpt lat="45.93748" lon="4.8423">
        <ele>269</ele>
        <time>2017-06-28T08:36:01Z</time>
      </trkpt>
      <trkpt lat="45.93748" lon="4.84238">
        <ele>269</ele>
        <time>2017-06-28T08:36:02Z</time>
      </trkpt>
      <trkpt lat="45.93749" lon="4.84245">
        <ele>269</ele>
        <time>2017-06-28T08:36:03Z</time>
      </trkpt>
      <trkpt lat="45.9375" lon="4.84252">
        <ele>269</ele>
        <time>2017-06-28T08:36:04Z</time>
      </trkpt>
      <trkpt lat="45.93751" lon="4.84259">
        <ele>269</ele>
        <time>2017-06-28T08:36:05Z</time>
      </trkpt>
      <trkpt lat="45.93752" lon="4.84267">
        <ele>269</ele>
        <time>2017-06-28T08:36:06Z</time>
      </trkpt>
      <trkpt lat="45.93754" lon="4.84275">
        <ele>268</ele>
        <time>2017-06-28T08:36:07Z</time>
      </trkpt>
      <trkpt lat="45.93755" lon="4.84283">
        <ele>268</ele>
        <time>2017-06-28T08:36:08Z</time>
      </trkpt>
      <trkpt lat="45.93757" lon="4.84291">
        <ele>268</ele>
        <time>2017-06-28T08:36:09Z</time>
      </trkpt>
      <trkpt lat="45.93758" lon="4.84299">
        <ele>268</ele>
        <time>2017-06-28T08:36:10Z</time>
      </trkpt>
      <trkpt lat="45.93759" lon="4.84307">
        <ele>268</ele>
        <time>2017-06-28T08:36:11Z</time>
      </trkpt>
      <trkpt lat="45.93761" lon="4.84314">
        <ele>268</ele>
        <time>2017-06-28T08:36:12Z</time>
      </trkpt>
      <trkpt lat="45.93761" lon="4.84321">
        <ele>269</ele>
        <time>2017-06-28T08:36:13Z</time>
      </trkpt>
      <trkpt lat="45.93762" lon="4.84328">
        <ele>269</ele>
        <time>2017-06-28T08:36:14Z</time>
      </trkpt>
      <trkpt lat="45.93763" lon="4.84335">
        <ele>269</ele>
        <time>2017-06-28T08:36:15Z</time>
      </trkpt>
      <trkpt lat="45.93765" lon="4.84341">
        <ele>269</ele>
        <time>2017-06-28T08:36:16Z</time>
      </trkpt>
      <trkpt lat="45.93766" lon="4.84347">
        <ele>269</ele>
        <time>2017-06-28T08:36:17Z</time>
      </trkpt>
      <trkpt lat="45.93767" lon="4.84354">
        <ele>268</ele>
        <time>2017-06-28T08:36:18Z</time>
      </trkpt>
      <trkpt lat="45.93768" lon="4.84361">
        <ele>268</ele>
        <time>2017-06-28T08:36:19Z</time>
      </trkpt>
      <trkpt lat="45.93769" lon="4.84368">
        <ele>268</ele>
        <time>2017-06-28T08:36:20Z</time>
      </trkpt>
      <trkpt lat="45.9377" lon="4.84376">
        <ele>268</ele>
        <time>2017-06-28T08:36:21Z</time>
      </trkpt>
      <trkpt lat="45.93771" lon="4.84384">
        <ele>268</ele>
        <time>2017-06-28T08:36:22Z</time>
      </trkpt>
      <trkpt lat="45.93772" lon="4.84393">
        <ele>268</ele>
        <time>2017-06-28T08:36:23Z</time>
      </trkpt>
      <trkpt lat="45.93774" lon="4.84401">
        <ele>268</ele>
        <time>2017-06-28T08:36:24Z</time>
      </trkpt>
      <trkpt lat="45.93776" lon="4.8441">
        <ele>269</ele>
        <time>2017-06-28T08:36:25Z</time>
      </trkpt>
      <trkpt lat="45.93777" lon="4.84418">
        <ele>269</ele>
        <time>2017-06-28T08:36:26Z</time>
      </trkpt>
      <trkpt lat="45.93779" lon="4.84426">
        <ele>269</ele>
        <time>2017-06-28T08:36:27Z</time>
      </trkpt>
      <trkpt lat="45.9378" lon="4.84433">
        <ele>269</ele>
        <time>2017-06-28T08:36:28Z</time>
      </trkpt>
      <trkpt lat="45.93781" lon="4.8444">
        <ele>269</ele>
        <time>2017-06-28T08:36:29Z</time>
      </trkpt>
      <trkpt lat="45.93782" lon="4.84447">
        <ele>269</ele>
        <time>2017-06-28T08:36:30Z</time>
      </trkpt>
      <trkpt lat="45.93783" lon="4.84454">
        <ele>269</ele>
        <time>2017-06-28T08:36:31Z</time>
      </trkpt>
      <trkpt lat="45.93785" lon="4.84462">
        <ele>269</ele>
        <time>2017-06-28T08:36:32Z</time>
      </trkpt>
      <trkpt lat="45.93786" lon="4.84469">
        <ele>269</ele>
        <time>2017-06-28T08:36:33Z</time>
      </trkpt>
      <trkpt lat="45.93787" lon="4.84477">
        <ele>269</ele>
        <time>2017-06-28T08:36:34Z</time>
      </trkpt>
      <trkpt lat="45.93788" lon="4.84484">
        <ele>269</ele>
        <time>2017-06-28T08:36:35Z</time>
      </trkpt>
      <trkpt lat="45.93789" lon="4.84492">
        <ele>269</ele>
        <time>2017-06-28T08:36:36Z</time>
      </trkpt>
      <trkpt lat="45.93791" lon="4.84499">
        <ele>269</ele>
        <time>2017-06-28T08:36:37Z</time>
      </trkpt>
      <trkpt lat="45.93792" lon="4.84505">
        <ele>270</ele>
        <time>2017-06-28T08:36:38Z</time>
      </trkpt>
      <trkpt lat="45.93793" lon="4.84512">
        <ele>270</ele>
        <time>2017-06-28T08:36:39Z</time>
      </trkpt>
      <trkpt lat="45.93794" lon="4.84519">
        <ele>270</ele>
        <time>2017-06-28T08:36:40Z</time>
      </trkpt>
      <trkpt lat="45.93795" lon="4.84526">
        <ele>270</ele>
        <time>2017-06-28T08:36:41Z</time>
      </trkpt>
      <trkpt lat="45.93796" lon="4.84533">
        <ele>270</ele>
        <time>2017-06-28T08:36:42Z</time>
      </trkpt>
      <trkpt lat="45.93797" lon="4.8454">
        <ele>270</ele>
        <time>2017-06-28T08:36:43Z</time>
      </trkpt>
      <trkpt lat="45.93799" lon="4.84547">
        <ele>270</ele>
        <time>2017-06-28T08:36:44Z</time>
      </trkpt>
      <trkpt lat="45.938" lon="4.84554">
        <ele>270</ele>
        <time>2017-06-28T08:36:45Z</time>
      </trkpt>
      <trkpt lat="45.93801" lon="4.84561">
        <ele>270</ele>
        <time>2017-06-28T08:36:46Z</time>
      </trkpt>
      <trkpt lat="45.93802" lon="4.84568">
        <ele>270</ele>
        <time>2017-06-28T08:36:47Z</time>
      </trkpt>
      <trkpt lat="45.93803" lon="4.84574">
        <ele>270</ele>
        <time>2017-06-28T08:36:48Z</time>
      </trkpt>
      <trkpt lat="45.93805" lon="4.84586">
        <ele>271</ele>
        <time>2017-06-28T08:36:50Z</time>
      </trkpt>
      <trkpt lat="45.93806" lon="4.84592">
        <ele>271</ele>
        <time>2017-06-28T08:36:51Z</time>
      </trkpt>
      <trkpt lat="45.93808" lon="4.84604">
        <ele>271</ele>
        <time>2017-06-28T08:36:53Z</time>
      </trkpt>
      <trkpt lat="45.93809" lon="4.8461">
        <ele>271</ele>
        <time>2017-06-28T08:36:54Z</time>
      </trkpt>
      <trkpt lat="45.9381" lon="4.84617">
        <ele>271</ele>
        <time>2017-06-28T08:36:55Z</time>
      </trkpt>
      <trkpt lat="45.93812" lon="4.84623">
        <ele>271</ele>
        <time>2017-06-28T08:36:56Z</time>
      </trkpt>
      <trkpt lat="45.93813" lon="4.8463">
        <ele>271</ele>
        <time>2017-06-28T08:36:57Z</time>
      </trkpt>
      <trkpt lat="45.93814" lon="4.84636">
        <ele>271</ele>
        <time>2017-06-28T08:36:58Z</time>
      </trkpt>
      <trkpt lat="45.93815" lon="4.84643">
        <ele>271</ele>
        <time>2017-06-28T08:36:59Z</time>
      </trkpt>
      <trkpt lat="45.93816" lon="4.8465">
        <ele>271</ele>
        <time>2017-06-28T08:37:00Z</time>
      </trkpt>
      <trkpt lat="45.93817" lon="4.84657">
        <ele>271</ele>
        <time>2017-06-28T08:37:01Z</time>
      </trkpt>
      <trkpt lat="45.93818" lon="4.84664">
        <ele>271</ele>
        <time>2017-06-28T08:37:02Z</time>
      </trkpt>
      <trkpt lat="45.9382" lon="4.84672">
        <ele>271</ele>
        <time>2017-06-28T08:37:03Z</time>
      </trkpt>
      <trkpt lat="45.93821" lon="4.84679">
        <ele>271</ele>
        <time>2017-06-28T08:37:04Z</time>
      </trkpt>
      <trkpt lat="45.93822" lon="4.84687">
        <ele>271</ele>
        <time>2017-06-28T08:37:05Z</time>
      </trkpt>
      <trkpt lat="45.93824" lon="4.84694">
        <ele>271</ele>
        <time>2017-06-28T08:37:06Z</time>
      </trkpt>
      <trkpt lat="45.93825" lon="4.84702">
        <ele>271</ele>
        <time>2017-06-28T08:37:07Z</time>
      </trkpt>
      <trkpt lat="45.93826" lon="4.8471">
        <ele>271</ele>
        <time>2017-06-28T08:37:08Z</time>
      </trkpt>
      <trkpt lat="45.93827" lon="4.84718">
        <ele>271</ele>
        <time>2017-06-28T08:37:09Z</time>
      </trkpt>
      <trkpt lat="45.93829" lon="4.84724">
        <ele>271</ele>
        <time>2017-06-28T08:37:10Z</time>
      </trkpt>
      <trkpt lat="45.9383" lon="4.84731">
        <ele>271</ele>
        <time>2017-06-28T08:37:11Z</time>
      </trkpt>
      <trkpt lat="45.93831" lon="4.84737">
        <ele>271</ele>
        <time>2017-06-28T08:37:12Z</time>
      </trkpt>
      <trkpt lat="45.93833" lon="4.84749">
        <ele>271</ele>
        <time>2017-06-28T08:37:14Z</time>
      </trkpt>
      <trkpt lat="45.93834" lon="4.84754">
        <ele>271</ele>
        <time>2017-06-28T08:37:15Z</time>
      </trkpt>
      <trkpt lat="45.93836" lon="4.8476">
        <ele>271</ele>
        <time>2017-06-28T08:37:16Z</time>
      </trkpt>
      <trkpt lat="45.93837" lon="4.84767">
        <ele>271</ele>
        <time>2017-06-28T08:37:17Z</time>
      </trkpt>
      <trkpt lat="45.93838" lon="4.84774">
        <ele>270</ele>
        <time>2017-06-28T08:37:18Z</time>
      </trkpt>
      <trkpt lat="45.93839" lon="4.84781">
        <ele>270</ele>
        <time>2017-06-28T08:37:19Z</time>
      </trkpt>
      <trkpt lat="45.93841" lon="4.84788">
        <ele>270</ele>
        <time>2017-06-28T08:37:20Z</time>
      </trkpt>
      <trkpt lat="45.93842" lon="4.84795">
        <ele>270</ele>
        <time>2017-06-28T08:37:21Z</time>
      </trkpt>
      <trkpt lat="45.93844" lon="4.84802">
        <ele>270</ele>
        <time>2017-06-28T08:37:22Z</time>
      </trkpt>
      <trkpt lat="45.93845" lon="4.84808">
        <ele>270</ele>
        <time>2017-06-28T08:37:23Z</time>
      </trkpt>
      <trkpt lat="45.93846" lon="4.84814">
        <ele>270</ele>
        <time>2017-06-28T08:37:24Z</time>
      </trkpt>
      <trkpt lat="45.93847" lon="4.84821">
        <ele>270</ele>
        <time>2017-06-28T08:37:25Z</time>
      </trkpt>
      <trkpt lat="45.93848" lon="4.84828">
        <ele>271</ele>
        <time>2017-06-28T08:37:26Z</time>
      </trkpt>
      <trkpt lat="45.93849" lon="4.84835">
        <ele>271</ele>
        <time>2017-06-28T08:37:27Z</time>
      </trkpt>
      <trkpt lat="45.9385" lon="4.84842">
        <ele>271</ele>
        <time>2017-06-28T08:37:28Z</time>
      </trkpt>
      <trkpt lat="45.93851" lon="4.84849">
        <ele>271</ele>
        <time>2017-06-28T08:37:29Z</time>
      </trkpt>
      <trkpt lat="45.93851" lon="4.84857">
        <ele>270</ele>
        <time>2017-06-28T08:37:30Z</time>
      </trkpt>
      <trkpt lat="45.93852" lon="4.84864">
        <ele>270</ele>
        <time>2017-06-28T08:37:31Z</time>
      </trkpt>
      <trkpt lat="45.93852" lon="4.84871">
        <ele>270</ele>
        <time>2017-06-28T08:37:32Z</time>
      </trkpt>
      <trkpt lat="45.93853" lon="4.84877">
        <ele>270</ele>
        <time>2017-06-28T08:37:33Z</time>
      </trkpt>
      <trkpt lat="45.93853" lon="4.8489">
        <ele>270</ele>
        <time>2017-06-28T08:37:35Z</time>
      </trkpt>
      <trkpt lat="45.93854" lon="4.84896">
        <ele>271</ele>
        <time>2017-06-28T08:37:36Z</time>
      </trkpt>
      <trkpt lat="45.93854" lon="4.84902">
        <ele>271</ele>
        <time>2017-06-28T08:37:37Z</time>
      </trkpt>
      <trkpt lat="45.93854" lon="4.84909">
        <ele>271</ele>
        <time>2017-06-28T08:37:38Z</time>
      </trkpt>
      <trkpt lat="45.93855" lon="4.84915">
        <ele>271</ele>
        <time>2017-06-28T08:37:39Z</time>
      </trkpt>
      <trkpt lat="45.93855" lon="4.84922">
        <ele>271</ele>
        <time>2017-06-28T08:37:40Z</time>
      </trkpt>
      <trkpt lat="45.93856" lon="4.84935">
        <ele>271</ele>
        <time>2017-06-28T08:37:42Z</time>
      </trkpt>
      <trkpt lat="45.93856" lon="4.84941">
        <ele>271</ele>
        <time>2017-06-28T08:37:43Z</time>
      </trkpt>
      <trkpt lat="45.93858" lon="4.84952">
        <ele>272</ele>
        <time>2017-06-28T08:37:45Z</time>
      </trkpt>
      <trkpt lat="45.93858" lon="4.84958">
        <ele>272</ele>
        <time>2017-06-28T08:37:46Z</time>
      </trkpt>
      <trkpt lat="45.93858" lon="4.8497">
        <ele>272</ele>
        <time>2017-06-28T08:37:48Z</time>
      </trkpt>
      <trkpt lat="45.93858" lon="4.84976">
        <ele>272</ele>
        <time>2017-06-28T08:37:49Z</time>
      </trkpt>
      <trkpt lat="45.93859" lon="4.84983">
        <ele>272</ele>
        <time>2017-06-28T08:37:50Z</time>
      </trkpt>
      <trkpt lat="45.93859" lon="4.8499">
        <ele>272</ele>
        <time>2017-06-28T08:37:51Z</time>
      </trkpt>
      <trkpt lat="45.9386" lon="4.84997">
        <ele>272</ele>
        <time>2017-06-28T08:37:52Z</time>
      </trkpt>
      <trkpt lat="45.93861" lon="4.85003">
        <ele>273</ele>
        <time>2017-06-28T08:37:53Z</time>
      </trkpt>
      <trkpt lat="45.9386" lon="4.85015">
        <ele>273</ele>
        <time>2017-06-28T08:37:55Z</time>
      </trkpt>
      <trkpt lat="45.93861" lon="4.8502">
        <ele>273</ele>
        <time>2017-06-28T08:37:56Z</time>
      </trkpt>
      <trkpt lat="45.93861" lon="4.85031">
        <ele>273</ele>
        <time>2017-06-28T08:37:58Z</time>
      </trkpt>
      <trkpt lat="45.93861" lon="4.85037">
        <ele>273</ele>
        <time>2017-06-28T08:37:59Z</time>
      </trkpt>
      <trkpt lat="45.93863" lon="4.85049">
        <ele>273</ele>
        <time>2017-06-28T08:38:01Z</time>
      </trkpt>
      <trkpt lat="45.93863" lon="4.85056">
        <ele>273</ele>
        <time>2017-06-28T08:38:02Z</time>
      </trkpt>
      <trkpt lat="45.93864" lon="4.85062">
        <ele>273</ele>
        <time>2017-06-28T08:38:03Z</time>
      </trkpt>
      <trkpt lat="45.93864" lon="4.85069">
        <ele>273</ele>
        <time>2017-06-28T08:38:04Z</time>
      </trkpt>
      <trkpt lat="45.93865" lon="4.85081">
        <ele>273</ele>
        <time>2017-06-28T08:38:06Z</time>
      </trkpt>
      <trkpt lat="45.93865" lon="4.85086">
        <ele>274</ele>
        <time>2017-06-28T08:38:07Z</time>
      </trkpt>
      <trkpt lat="45.93866" lon="4.85097">
        <ele>274</ele>
        <time>2017-06-28T08:38:09Z</time>
      </trkpt>
      <trkpt lat="45.93866" lon="4.85103">
        <ele>274</ele>
        <time>2017-06-28T08:38:10Z</time>
      </trkpt>
      <trkpt lat="45.93867" lon="4.85115">
        <ele>274</ele>
        <time>2017-06-28T08:38:12Z</time>
      </trkpt>
      <trkpt lat="45.93867" lon="4.85121">
        <ele>274</ele>
        <time>2017-06-28T08:38:13Z</time>
      </trkpt>
      <trkpt lat="45.93867" lon="4.85134">
        <ele>274</ele>
        <time>2017-06-28T08:38:15Z</time>
      </trkpt>
      <trkpt lat="45.93867" lon="4.8514">
        <ele>274</ele>
        <time>2017-06-28T08:38:16Z</time>
      </trkpt>
      <trkpt lat="45.93868" lon="4.85152">
        <ele>275</ele>
        <time>2017-06-28T08:38:18Z</time>
      </trkpt>
      <trkpt lat="45.93869" lon="4.85158">
        <ele>275</ele>
        <time>2017-06-28T08:38:19Z</time>
      </trkpt>
      <trkpt lat="45.9387" lon="4.85171">
        <ele>276</ele>
        <time>2017-06-28T08:38:21Z</time>
      </trkpt>
      <trkpt lat="45.93871" lon="4.85177">
        <ele>276</ele>
        <time>2017-06-28T08:38:22Z</time>
      </trkpt>
      <trkpt lat="45.93872" lon="4.85189">
        <ele>276</ele>
        <time>2017-06-28T08:38:24Z</time>
      </trkpt>
      <trkpt lat="45.93872" lon="4.85196">
        <ele>276</ele>
        <time>2017-06-28T08:38:25Z</time>
      </trkpt>
      <trkpt lat="45.93873" lon="4.85208">
        <ele>276</ele>
        <time>2017-06-28T08:38:27Z</time>
      </trkpt>
      <trkpt lat="45.93874" lon="4.85215">
        <ele>276</ele>
        <time>2017-06-28T08:38:28Z</time>
      </trkpt>
      <trkpt lat="45.93874" lon="4.85226">
        <ele>276</ele>
        <time>2017-06-28T08:38:30Z</time>
      </trkpt>
      <trkpt lat="45.93875" lon="4.85232">
        <ele>276</ele>
        <time>2017-06-28T08:38:31Z</time>
      </trkpt>
      <trkpt lat="45.93876" lon="4.85243">
        <ele>276</ele>
        <time>2017-06-28T08:38:33Z</time>
      </trkpt>
      <trkpt lat="45.93876" lon="4.85249">
        <ele>276</ele>
        <time>2017-06-28T08:38:34Z</time>
      </trkpt>
      <trkpt lat="45.93876" lon="4.85261">
        <ele>278</ele>
        <time>2017-06-28T08:38:36Z</time>
      </trkpt>
      <trkpt lat="45.93875" lon="4.85268">
        <ele>278</ele>
        <time>2017-06-28T08:38:37Z</time>
      </trkpt>
      <trkpt lat="45.93875" lon="4.85274">
        <ele>278</ele>
        <time>2017-06-28T08:38:38Z</time>
      </trkpt>
      <trkpt lat="45.93875" lon="4.85282">
        <ele>278</ele>
        <time>2017-06-28T08:38:39Z</time>
      </trkpt>
      <trkpt lat="45.93874" lon="4.85289">
        <ele>278</ele>
        <time>2017-06-28T08:38:40Z</time>
      </trkpt>
      <trkpt lat="45.93873" lon="4.85296">
        <ele>278</ele>
        <time>2017-06-28T08:38:41Z</time>
      </trkpt>
      <trkpt lat="45.93871" lon="4.85303">
        <ele>279</ele>
        <time>2017-06-28T08:38:42Z</time>
      </trkpt>
      <trkpt lat="45.9387" lon="4.8531">
        <ele>279</ele>
        <time>2017-06-28T08:38:43Z</time>
      </trkpt>
      <trkpt lat="45.93868" lon="4.85317">
        <ele>279</ele>
        <time>2017-06-28T08:38:44Z</time>
      </trkpt>
      <trkpt lat="45.93866" lon="4.85323">
        <ele>279</ele>
        <time>2017-06-28T08:38:45Z</time>
      </trkpt>
      <trkpt lat="45.93864" lon="4.8533">
        <ele>279</ele>
        <time>2017-06-28T08:38:46Z</time>
      </trkpt>
      <trkpt lat="45.93863" lon="4.85336">
        <ele>281</ele>
        <time>2017-06-28T08:38:47Z</time>
      </trkpt>
      <trkpt lat="45.9386" lon="4.85347">
        <ele>281</ele>
        <time>2017-06-28T08:38:49Z</time>
      </trkpt>
      <trkpt lat="45.93858" lon="4.85352">
        <ele>281</ele>
        <time>2017-06-28T08:38:50Z</time>
      </trkpt>
      <trkpt lat="45.93855" lon="4.85363">
        <ele>281</ele>
        <time>2017-06-28T08:38:52Z</time>
      </trkpt>
      <trkpt lat="45.93854" lon="4.85369">
        <ele>281</ele>
        <time>2017-06-28T08:38:53Z</time>
      </trkpt>
      <trkpt lat="45.93851" lon="4.8538">
        <ele>281</ele>
        <time>2017-06-28T08:38:55Z</time>
      </trkpt>
      <trkpt lat="45.9385" lon="4.85386">
        <ele>281</ele>
        <time>2017-06-28T08:38:56Z</time>
      </trkpt>
      <trkpt lat="45.93848" lon="4.85398">
        <ele>281</ele>
        <time>2017-06-28T08:38:58Z</time>
      </trkpt>
      <trkpt lat="45.93846" lon="4.85404">
        <ele>281</ele>
        <time>2017-06-28T08:38:59Z</time>
      </trkpt>
      <trkpt lat="45.93843" lon="4.85416">
        <ele>282</ele>
        <time>2017-06-28T08:39:01Z</time>
      </trkpt>
      <trkpt lat="45.93842" lon="4.85422">
        <ele>282</ele>
        <time>2017-06-28T08:39:02Z</time>
      </trkpt>
      <trkpt lat="45.9384" lon="4.85432">
        <ele>283</ele>
        <time>2017-06-28T08:39:04Z</time>
      </trkpt>
      <trkpt lat="45.93838" lon="4.85438">
        <ele>283</ele>
        <time>2017-06-28T08:39:05Z</time>
      </trkpt>
      <trkpt lat="45.93836" lon="4.85448">
        <ele>283</ele>
        <time>2017-06-28T08:39:07Z</time>
      </trkpt>
      <trkpt lat="45.93835" lon="4.85454">
        <ele>283</ele>
        <time>2017-06-28T08:39:08Z</time>
      </trkpt>
      <trkpt lat="45.93833" lon="4.85465">
        <ele>282</ele>
        <time>2017-06-28T08:39:10Z</time>
      </trkpt>
      <trkpt lat="45.93833" lon="4.8547">
        <ele>282</ele>
        <time>2017-06-28T08:39:11Z</time>
      </trkpt>
      <trkpt lat="45.93831" lon="4.85481">
        <ele>282</ele>
        <time>2017-06-28T08:39:13Z</time>
      </trkpt>
      <trkpt lat="45.9383" lon="4.85488">
        <ele>282</ele>
        <time>2017-06-28T08:39:14Z</time>
      </trkpt>
      <trkpt lat="45.93829" lon="4.85494">
        <ele>283</ele>
        <time>2017-06-28T08:39:15Z</time>
      </trkpt>
      <trkpt lat="45.93828" lon="4.85501">
        <ele>283</ele>
        <time>2017-06-28T08:39:16Z</time>
      </trkpt>
      <trkpt lat="45.93827" lon="4.85507">
        <ele>283</ele>
        <time>2017-06-28T08:39:17Z</time>
      </trkpt>
      <trkpt lat="45.93826" lon="4.85514">
        <ele>282</ele>
        <time>2017-06-28T08:39:18Z</time>
      </trkpt>
      <trkpt lat="45.93824" lon="4.85526">
        <ele>282</ele>
        <time>2017-06-28T08:39:20Z</time>
      </trkpt>
      <trkpt lat="45.93823" lon="4.85532">
        <ele>282</ele>
        <time>2017-06-28T08:39:21Z</time>
      </trkpt>
      <trkpt lat="45.93822" lon="4.85538">
        <ele>282</ele>
        <time>2017-06-28T08:39:22Z</time>
      </trkpt>
      <trkpt lat="45.93821" lon="4.85545">
        <ele>282</ele>
        <time>2017-06-28T08:39:23Z</time>
      </trkpt>
      <trkpt lat="45.9382" lon="4.85551">
        <ele>282</ele>
        <time>2017-06-28T08:39:24Z</time>
      </trkpt>
      <trkpt lat="45.9382" lon="4.85558">
        <ele>282</ele>
        <time>2017-06-28T08:39:25Z</time>
      </trkpt>
      <trkpt lat="45.93817" lon="4.8557">
        <ele>283</ele>
        <time>2017-06-28T08:39:27Z</time>
      </trkpt>
      <trkpt lat="45.93816" lon="4.85576">
        <ele>283</ele>
        <time>2017-06-28T08:39:28Z</time>
      </trkpt>
      <trkpt lat="45.93815" lon="4.85587">
        <ele>283</ele>
        <time>2017-06-28T08:39:30Z</time>
      </trkpt>
      <trkpt lat="45.93814" lon="4.85593">
        <ele>283</ele>
        <time>2017-06-28T08:39:31Z</time>
      </trkpt>
      <trkpt lat="45.93813" lon="4.856">
        <ele>283</ele>
        <time>2017-06-28T08:39:32Z</time>
      </trkpt>
      <trkpt lat="45.93813" lon="4.85607">
        <ele>283</ele>
        <time>2017-06-28T08:39:33Z</time>
      </trkpt>
      <trkpt lat="45.93812" lon="4.85614">
        <ele>283</ele>
        <time>2017-06-28T08:39:34Z</time>
      </trkpt>
      <trkpt lat="45.93812" lon="4.85621">
        <ele>283</ele>
        <time>2017-06-28T08:39:35Z</time>
      </trkpt>
      <trkpt lat="45.93813" lon="4.85629">
        <ele>283</ele>
        <time>2017-06-28T08:39:36Z</time>
      </trkpt>
      <trkpt lat="45.93813" lon="4.85636">
        <ele>283</ele>
        <time>2017-06-28T08:39:37Z</time>
      </trkpt>
      <trkpt lat="45.93814" lon="4.85644">
        <ele>283</ele>
        <time>2017-06-28T08:39:38Z</time>
      </trkpt>
      <trkpt lat="45.93815" lon="4.85651">
        <ele>283</ele>
        <time>2017-06-28T08:39:39Z</time>
      </trkpt>
      <trkpt lat="45.93815" lon="4.85659">
        <ele>283</ele>
        <time>2017-06-28T08:39:40Z</time>
      </trkpt>
      <trkpt lat="45.93816" lon="4.85666">
        <ele>283</ele>
        <time>2017-06-28T08:39:41Z</time>
      </trkpt>
      <trkpt lat="45.93817" lon="4.85673">
        <ele>283</ele>
        <time>2017-06-28T08:39:42Z</time>
      </trkpt>
      <trkpt lat="45.93818" lon="4.8568">
        <ele>283</ele>
        <time>2017-06-28T08:39:43Z</time>
      </trkpt>
      <trkpt lat="45.93819" lon="4.85686">
        <ele>283</ele>
        <time>2017-06-28T08:39:44Z</time>
      </trkpt>
      <trkpt lat="45.9382" lon="4.85693">
        <ele>283</ele>
        <time>2017-06-28T08:39:45Z</time>
      </trkpt>
      <trkpt lat="45.93821" lon="4.85705">
        <ele>283</ele>
        <time>2017-06-28T08:39:47Z</time>
      </trkpt>
      <trkpt lat="45.93822" lon="4.85711">
        <ele>283</ele>
        <time>2017-06-28T08:39:48Z</time>
      </trkpt>
      <trkpt lat="45.93825" lon="4.85722">
        <ele>283</ele>
        <time>2017-06-28T08:39:50Z</time>
      </trkpt>
      <trkpt lat="45.93826" lon="4.85728">
        <ele>283</ele>
        <time>2017-06-28T08:39:51Z</time>
      </trkpt>
      <trkpt lat="45.93828" lon="4.8574">
        <ele>283</ele>
        <time>2017-06-28T08:39:53Z</time>
      </trkpt>
      <trkpt lat="45.93829" lon="4.85747">
        <ele>283</ele>
        <time>2017-06-28T08:39:54Z</time>
      </trkpt>
      <trkpt lat="45.9383" lon="4.85754">
        <ele>283</ele>
        <time>2017-06-28T08:39:55Z</time>
      </trkpt>
      <trkpt lat="45.93831" lon="4.85761">
        <ele>283</ele>
        <time>2017-06-28T08:39:56Z</time>
      </trkpt>
      <trkpt lat="45.93832" lon="4.85769">
        <ele>283</ele>
        <time>2017-06-28T08:39:57Z</time>
      </trkpt>
      <trkpt lat="45.93833" lon="4.85776">
        <ele>283</ele>
        <time>2017-06-28T08:39:58Z</time>
      </trkpt>
      <trkpt lat="45.93834" lon="4.85783">
        <ele>284</ele>
        <time>2017-06-28T08:39:59Z</time>
      </trkpt>
      <trkpt lat="45.93835" lon="4.85789">
        <ele>284</ele>
        <time>2017-06-28T08:40:00Z</time>
      </trkpt>
      <trkpt lat="45.93836" lon="4.85795">
        <ele>284</ele>
        <time>2017-06-28T08:40:01Z</time>
      </trkpt>
      <trkpt lat="45.93837" lon="4.85802">
        <ele>284</ele>
        <time>2017-06-28T08:40:02Z</time>
      </trkpt>
      <trkpt lat="45.93838" lon="4.85814">
        <ele>284</ele>
        <time>2017-06-28T08:40:04Z</time>
      </trkpt>
      <trkpt lat="45.93839" lon="4.8582">
        <ele>284</ele>
        <time>2017-06-28T08:40:05Z</time>
      </trkpt>
      <trkpt lat="45.9384" lon="4.85826">
        <ele>283</ele>
        <time>2017-06-28T08:40:06Z</time>
      </trkpt>
      <trkpt lat="45.93841" lon="4.85832">
        <ele>283</ele>
        <time>2017-06-28T08:40:07Z</time>
      </trkpt>
      <trkpt lat="45.93841" lon="4.85839">
        <ele>283</ele>
        <time>2017-06-28T08:40:08Z</time>
      </trkpt>
      <trkpt lat="45.93842" lon="4.85846">
        <ele>284</ele>
        <time>2017-06-28T08:40:09Z</time>
      </trkpt>
      <trkpt lat="45.93843" lon="4.85853">
        <ele>284</ele>
        <time>2017-06-28T08:40:10Z</time>
      </trkpt>
      <trkpt lat="45.93844" lon="4.85859">
        <ele>284</ele>
        <time>2017-06-28T08:40:11Z</time>
      </trkpt>
      <trkpt lat="45.93845" lon="4.85866">
        <ele>284</ele>
        <time>2017-06-28T08:40:12Z</time>
      </trkpt>
      <trkpt lat="45.93846" lon="4.85872">
        <ele>284</ele>
        <time>2017-06-28T08:40:13Z</time>
      </trkpt>
      <trkpt lat="45.93847" lon="4.85879">
        <ele>284</ele>
        <time>2017-06-28T08:40:14Z</time>
      </trkpt>
      <trkpt lat="45.93848" lon="4.85886">
        <ele>284</ele>
        <time>2017-06-28T08:40:15Z</time>
      </trkpt>
      <trkpt lat="45.93849" lon="4.85893">
        <ele>284</ele>
        <time>2017-06-28T08:40:16Z</time>
      </trkpt>
      <trkpt lat="45.9385" lon="4.85899">
        <ele>284</ele>
        <time>2017-06-28T08:40:17Z</time>
      </trkpt>
      <trkpt lat="45.93851" lon="4.85907">
        <ele>285</ele>
        <time>2017-06-28T08:40:18Z</time>
      </trkpt>
      <trkpt lat="45.93852" lon="4.85914">
        <ele>285</ele>
        <time>2017-06-28T08:40:19Z</time>
      </trkpt>
      <trkpt lat="45.93853" lon="4.85921">
        <ele>285</ele>
        <time>2017-06-28T08:40:20Z</time>
      </trkpt>
      <trkpt lat="45.93854" lon="4.85927">
        <ele>285</ele>
        <time>2017-06-28T08:40:21Z</time>
      </trkpt>
      <trkpt lat="45.93855" lon="4.8594">
        <ele>284</ele>
        <time>2017-06-28T08:40:23Z</time>
      </trkpt>
      <trkpt lat="45.93856" lon="4.85946">
        <ele>284</ele>
        <time>2017-06-28T08:40:24Z</time>
      </trkpt>
      <trkpt lat="45.93856" lon="4.85953">
        <ele>284</ele>
        <time>2017-06-28T08:40:25Z</time>
      </trkpt>
      <trkpt lat="45.93856" lon="4.8596">
        <ele>284</ele>
        <time>2017-06-28T08:40:26Z</time>
      </trkpt>
      <trkpt lat="45.93857" lon="4.85967">
        <ele>284</ele>
        <time>2017-06-28T08:40:27Z</time>
      </trkpt>
      <trkpt lat="45.93857" lon="4.85975">
        <ele>284</ele>
        <time>2017-06-28T08:40:28Z</time>
      </trkpt>
      <trkpt lat="45.93858" lon="4.85984">
        <ele>284</ele>
        <time>2017-06-28T08:40:29Z</time>
      </trkpt>
      <trkpt lat="45.93858" lon="4.85991">
        <ele>284</ele>
        <time>2017-06-28T08:40:30Z</time>
      </trkpt>
      <trkpt lat="45.93858" lon="4.85999">
        <ele>284</ele>
        <time>2017-06-28T08:40:31Z</time>
      </trkpt>
      <trkpt lat="45.93859" lon="4.86007">
        <ele>284</ele>
        <time>2017-06-28T08:40:32Z</time>
      </trkpt>
      <trkpt lat="45.9386" lon="4.86015">
        <ele>284</ele>
        <time>2017-06-28T08:40:33Z</time>
      </trkpt>
      <trkpt lat="45.9386" lon="4.86022">
        <ele>284</ele>
        <time>2017-06-28T08:40:34Z</time>
      </trkpt>
      <trkpt lat="45.93861" lon="4.86029">
        <ele>284</ele>
        <time>2017-06-28T08:40:35Z</time>
      </trkpt>
      <trkpt lat="45.93862" lon="4.86037">
        <ele>284</ele>
        <time>2017-06-28T08:40:36Z</time>
      </trkpt>
      <trkpt lat="45.93863" lon="4.86045">
        <ele>284</ele>
        <time>2017-06-28T08:40:37Z</time>
      </trkpt>
      <trkpt lat="45.93863" lon="4.86053">
        <ele>284</ele>
        <time>2017-06-28T08:40:38Z</time>
      </trkpt>
      <trkpt lat="45.93864" lon="4.86061">
        <ele>285</ele>
        <time>2017-06-28T08:40:39Z</time>
      </trkpt>
      <trkpt lat="45.93865" lon="4.86069">
        <ele>285</ele>
        <time>2017-06-28T08:40:40Z</time>
      </trkpt>
      <trkpt lat="45.93865" lon="4.86076">
        <ele>285</ele>
        <time>2017-06-28T08:40:41Z</time>
      </trkpt>
      <trkpt lat="45.93866" lon="4.86083">
        <ele>285</ele>
        <time>2017-06-28T08:40:42Z</time>
      </trkpt>
      <trkpt lat="45.93866" lon="4.8609">
        <ele>286</ele>
        <time>2017-06-28T08:40:43Z</time>
      </trkpt>
      <trkpt lat="45.93866" lon="4.86097">
        <ele>286</ele>
        <time>2017-06-28T08:40:44Z</time>
      </trkpt>
      <trkpt lat="45.93867" lon="4.86104">
        <ele>286</ele>
        <time>2017-06-28T08:40:45Z</time>
      </trkpt>
      <trkpt lat="45.93867" lon="4.86112">
        <ele>286</ele>
        <time>2017-06-28T08:40:46Z</time>
      </trkpt>
      <trkpt lat="45.93868" lon="4.86119">
        <ele>286</ele>
        <time>2017-06-28T08:40:47Z</time>
      </trkpt>
      <trkpt lat="45.93869" lon="4.86127">
        <ele>286</ele>
        <time>2017-06-28T08:40:48Z</time>
      </trkpt>
      <trkpt lat="45.93869" lon="4.86136">
        <ele>286</ele>
        <time>2017-06-28T08:40:49Z</time>
      </trkpt>
      <trkpt lat="45.9387" lon="4.86144">
        <ele>286</ele>
        <time>2017-06-28T08:40:50Z</time>
      </trkpt>
      <trkpt lat="45.9387" lon="4.86153">
        <ele>286</ele>
        <time>2017-06-28T08:40:51Z</time>
      </trkpt>
      <trkpt lat="45.93871" lon="4.86161">
        <ele>286</ele>
        <time>2017-06-28T08:40:52Z</time>
      </trkpt>
      <trkpt lat="45.93872" lon="4.86168">
        <ele>287</ele>
        <time>2017-06-28T08:40:53Z</time>
      </trkpt>
      <trkpt lat="45.93872" lon="4.86174">
        <ele>287</ele>
        <time>2017-06-28T08:40:54Z</time>
      </trkpt>
      <trkpt lat="45.93873" lon="4.86181">
        <ele>287</ele>
        <time>2017-06-28T08:40:55Z</time>
      </trkpt>
      <trkpt lat="45.93873" lon="4.86188">
        <ele>287</ele>
        <time>2017-06-28T08:40:56Z</time>
      </trkpt>
      <trkpt lat="45.93874" lon="4.86194">
        <ele>287</ele>
        <time>2017-06-28T08:40:57Z</time>
      </trkpt>
      <trkpt lat="45.93874" lon="4.86201">
        <ele>287</ele>
        <time>2017-06-28T08:40:58Z</time>
      </trkpt>
      <trkpt lat="45.93874" lon="4.86208">
        <ele>288</ele>
        <time>2017-06-28T08:40:59Z</time>
      </trkpt>
      <trkpt lat="45.93875" lon="4.86215">
        <ele>288</ele>
        <time>2017-06-28T08:41:00Z</time>
      </trkpt>
      <trkpt lat="45.93875" lon="4.86221">
        <ele>288</ele>
        <time>2017-06-28T08:41:01Z</time>
      </trkpt>
      <trkpt lat="45.93875" lon="4.86228">
        <ele>288</ele>
        <time>2017-06-28T08:41:02Z</time>
      </trkpt>
      <trkpt lat="45.93875" lon="4.86235">
        <ele>288</ele>
        <time>2017-06-28T08:41:03Z</time>
      </trkpt>
      <trkpt lat="45.93875" lon="4.86241">
        <ele>288</ele>
        <time>2017-06-28T08:41:04Z</time>
      </trkpt>
      <trkpt lat="45.93875" lon="4.86248">
        <ele>288</ele>
        <time>2017-06-28T08:41:05Z</time>
      </trkpt>
      <trkpt lat="45.93875" lon="4.86255">
        <ele>288</ele>
        <time>2017-06-28T08:41:06Z</time>
      </trkpt>
      <trkpt lat="45.93874" lon="4.86262">
        <ele>288</ele>
        <time>2017-06-28T08:41:07Z</time>
      </trkpt>
      <trkpt lat="45.93874" lon="4.86269">
        <ele>288</ele>
        <time>2017-06-28T08:41:08Z</time>
      </trkpt>
      <trkpt lat="45.93873" lon="4.86275">
        <ele>288</ele>
        <time>2017-06-28T08:41:09Z</time>
      </trkpt>
      <trkpt lat="45.93872" lon="4.86282">
        <ele>288</ele>
        <time>2017-06-28T08:41:10Z</time>
      </trkpt>
      <trkpt lat="45.93869" lon="4.86294">
        <ele>288</ele>
        <time>2017-06-28T08:41:12Z</time>
      </trkpt>
      <trkpt lat="45.93869" lon="4.86299">
        <ele>288</ele>
        <time>2017-06-28T08:41:13Z</time>
      </trkpt>
      <trkpt lat="45.93867" lon="4.8631">
        <ele>288</ele>
        <time>2017-06-28T08:41:15Z</time>
      </trkpt>
      <trkpt lat="45.93866" lon="4.86316">
        <ele>288</ele>
        <time>2017-06-28T08:41:16Z</time>
      </trkpt>
      <trkpt lat="45.93865" lon="4.86323">
        <ele>288</ele>
        <time>2017-06-28T08:41:17Z</time>
      </trkpt>
      <trkpt lat="45.93864" lon="4.86331">
        <ele>288</ele>
        <time>2017-06-28T08:41:18Z</time>
      </trkpt>
      <trkpt lat="45.93863" lon="4.86338">
        <ele>288</ele>
        <time>2017-06-28T08:41:19Z</time>
      </trkpt>
      <trkpt lat="45.93862" lon="4.86346">
        <ele>288</ele>
        <time>2017-06-28T08:41:20Z</time>
      </trkpt>
      <trkpt lat="45.9386" lon="4.86354">
        <ele>288</ele>
        <time>2017-06-28T08:41:21Z</time>
      </trkpt>
      <trkpt lat="45.93859" lon="4.86361">
        <ele>288</ele>
        <time>2017-06-28T08:41:22Z</time>
      </trkpt>
      <trkpt lat="45.93858" lon="4.86369">
        <ele>288</ele>
        <time>2017-06-28T08:41:23Z</time>
      </trkpt>
      <trkpt lat="45.93857" lon="4.86376">
        <ele>288</ele>
        <time>2017-06-28T08:41:24Z</time>
      </trkpt>
      <trkpt lat="45.93856" lon="4.86383">
        <ele>288</ele>
        <time>2017-06-28T08:41:25Z</time>
      </trkpt>
      <trkpt lat="45.93855" lon="4.86391">
        <ele>288</ele>
        <time>2017-06-28T08:41:26Z</time>
      </trkpt>
      <trkpt lat="45.93854" lon="4.86398">
        <ele>288</ele>
        <time>2017-06-28T08:41:27Z</time>
      </trkpt>
      <trkpt lat="45.93853" lon="4.86406">
        <ele>288</ele>
        <time>2017-06-28T08:41:28Z</time>
      </trkpt>
      <trkpt lat="45.93852" lon="4.86413">
        <ele>288</ele>
        <time>2017-06-28T08:41:29Z</time>
      </trkpt>
      <trkpt lat="45.93851" lon="4.8642">
        <ele>288</ele>
        <time>2017-06-28T08:41:30Z</time>
      </trkpt>
      <trkpt lat="45.93849" lon="4.86427">
        <ele>288</ele>
        <time>2017-06-28T08:41:31Z</time>
      </trkpt>
      <trkpt lat="45.93848" lon="4.86434">
        <ele>288</ele>
        <time>2017-06-28T08:41:32Z</time>
      </trkpt>
      <trkpt lat="45.93846" lon="4.86441">
        <ele>288</ele>
        <time>2017-06-28T08:41:33Z</time>
      </trkpt>
      <trkpt lat="45.93846" lon="4.86448">
        <ele>288</ele>
        <time>2017-06-28T08:41:34Z</time>
      </trkpt>
      <trkpt lat="45.93844" lon="4.8646">
        <ele>288</ele>
        <time>2017-06-28T08:41:36Z</time>
      </trkpt>
      <trkpt lat="45.93843" lon="4.86467">
        <ele>288</ele>
        <time>2017-06-28T08:41:37Z</time>
      </trkpt>
      <trkpt lat="45.93842" lon="4.86474">
        <ele>288</ele>
        <time>2017-06-28T08:41:38Z</time>
      </trkpt>
      <trkpt lat="45.93842" lon="4.86481">
        <ele>288</ele>
        <time>2017-06-28T08:41:39Z</time>
      </trkpt>
      <trkpt lat="45.93841" lon="4.86487">
        <ele>288</ele>
        <time>2017-06-28T08:41:40Z</time>
      </trkpt>
      <trkpt lat="45.9384" lon="4.86494">
        <ele>288</ele>
        <time>2017-06-28T08:41:41Z</time>
      </trkpt>
      <trkpt lat="45.9384" lon="4.86502">
        <ele>288</ele>
        <time>2017-06-28T08:41:42Z</time>
      </trkpt>
      <trkpt lat="45.93839" lon="4.86509">
        <ele>288</ele>
        <time>2017-06-28T08:41:43Z</time>
      </trkpt>
      <trkpt lat="45.93838" lon="4.86516">
        <ele>288</ele>
        <time>2017-06-28T08:41:44Z</time>
      </trkpt>
      <trkpt lat="45.93837" lon="4.86522">
        <ele>288</ele>
        <time>2017-06-28T08:41:45Z</time>
      </trkpt>
      <trkpt lat="45.93836" lon="4.86529">
        <ele>288</ele>
        <time>2017-06-28T08:41:46Z</time>
      </trkpt>
      <trkpt lat="45.93835" lon="4.86535">
        <ele>288</ele>
        <time>2017-06-28T08:41:47Z</time>
      </trkpt>
      <trkpt lat="45.93834" lon="4.86542">
        <ele>288</ele>
        <time>2017-06-28T08:41:48Z</time>
      </trkpt>
      <trkpt lat="45.93833" lon="4.86549">
        <ele>290</ele>
        <time>2017-06-28T08:41:49Z</time>
      </trkpt>
      <trkpt lat="45.93832" lon="4.86556">
        <ele>290</ele>
        <time>2017-06-28T08:41:50Z</time>
      </trkpt>
      <trkpt lat="45.93832" lon="4.86563">
        <ele>289</ele>
        <time>2017-06-28T08:41:51Z</time>
      </trkpt>
      <trkpt lat="45.9383" lon="4.86571">
        <ele>289</ele>
        <time>2017-06-28T08:41:52Z</time>
      </trkpt>
      <trkpt lat="45.93829" lon="4.86578">
        <ele>289</ele>
        <time>2017-06-28T08:41:53Z</time>
      </trkpt>
      <trkpt lat="45.93828" lon="4.86585">
        <ele>288</ele>
        <time>2017-06-28T08:41:54Z</time>
      </trkpt>
      <trkpt lat="45.93827" lon="4.86593">
        <ele>288</ele>
        <time>2017-06-28T08:41:55Z</time>
      </trkpt>
      <trkpt lat="45.93826" lon="4.86601">
        <ele>288</ele>
        <time>2017-06-28T08:41:56Z</time>
      </trkpt>
      <trkpt lat="45.93825" lon="4.86609">
        <ele>288</ele>
        <time>2017-06-28T08:41:57Z</time>
      </trkpt>
      <trkpt lat="45.93824" lon="4.86617">
        <ele>288</ele>
        <time>2017-06-28T08:41:58Z</time>
      </trkpt>
      <trkpt lat="45.93822" lon="4.86625">
        <ele>288</ele>
        <time>2017-06-28T08:41:59Z</time>
      </trkpt>
      <trkpt lat="45.93821" lon="4.86632">
        <ele>288</ele>
        <time>2017-06-28T08:42:00Z</time>
      </trkpt>
      <trkpt lat="45.9382" lon="4.8664">
        <ele>288</ele>
        <time>2017-06-28T08:42:01Z</time>
      </trkpt>
      <trkpt lat="45.93818" lon="4.86649">
        <ele>288</ele>
        <time>2017-06-28T08:42:02Z</time>
      </trkpt>
      <trkpt lat="45.93817" lon="4.86657">
        <ele>288</ele>
        <time>2017-06-28T08:42:03Z</time>
      </trkpt>
      <trkpt lat="45.93815" lon="4.86665">
        <ele>288</ele>
        <time>2017-06-28T08:42:04Z</time>
      </trkpt>
      <trkpt lat="45.93813" lon="4.86673">
        <ele>287</ele>
        <time>2017-06-28T08:42:05Z</time>
      </trkpt>
      <trkpt lat="45.93812" lon="4.86681">
        <ele>287</ele>
        <time>2017-06-28T08:42:06Z</time>
      </trkpt>
      <trkpt lat="45.9381" lon="4.86688">
        <ele>287</ele>
        <time>2017-06-28T08:42:07Z</time>
      </trkpt>
      <trkpt lat="45.93809" lon="4.86695">
        <ele>287</ele>
        <time>2017-06-28T08:42:08Z</time>
      </trkpt>
      <trkpt lat="45.93808" lon="4.86703">
        <ele>287</ele>
        <time>2017-06-28T08:42:09Z</time>
      </trkpt>
      <trkpt lat="45.93807" lon="4.8671">
        <ele>287</ele>
        <time>2017-06-28T08:42:10Z</time>
      </trkpt>
      <trkpt lat="45.93807" lon="4.86719">
        <ele>287</ele>
        <time>2017-06-28T08:42:11Z</time>
      </trkpt>
      <trkpt lat="45.93806" lon="4.86727">
        <ele>287</ele>
        <time>2017-06-28T08:42:12Z</time>
      </trkpt>
      <trkpt lat="45.93805" lon="4.86736">
        <ele>286</ele>
        <time>2017-06-28T08:42:13Z</time>
      </trkpt>
      <trkpt lat="45.93804" lon="4.86744">
        <ele>286</ele>
        <time>2017-06-28T08:42:14Z</time>
      </trkpt>
      <trkpt lat="45.93802" lon="4.86751">
        <ele>286</ele>
        <time>2017-06-28T08:42:15Z</time>
      </trkpt>
      <trkpt lat="45.93801" lon="4.86759">
        <ele>286</ele>
        <time>2017-06-28T08:42:16Z</time>
      </trkpt>
      <trkpt lat="45.938" lon="4.86766">
        <ele>286</ele>
        <time>2017-06-28T08:42:17Z</time>
      </trkpt>
      <trkpt lat="45.93799" lon="4.86774">
        <ele>286</ele>
        <time>2017-06-28T08:42:18Z</time>
      </trkpt>
      <trkpt lat="45.93798" lon="4.86781">
        <ele>286</ele>
        <time>2017-06-28T08:42:19Z</time>
      </trkpt>
      <trkpt lat="45.93796" lon="4.86788">
        <ele>286</ele>
        <time>2017-06-28T08:42:20Z</time>
      </trkpt>
      <trkpt lat="45.93795" lon="4.86795">
        <ele>286</ele>
        <time>2017-06-28T08:42:21Z</time>
      </trkpt>
      <trkpt lat="45.93794" lon="4.86802">
        <ele>286</ele>
        <time>2017-06-28T08:42:22Z</time>
      </trkpt>
      <trkpt lat="45.93793" lon="4.86808">
        <ele>286</ele>
        <time>2017-06-28T08:42:23Z</time>
      </trkpt>
      <trkpt lat="45.93792" lon="4.86815">
        <ele>286</ele>
        <time>2017-06-28T08:42:24Z</time>
      </trkpt>
      <trkpt lat="45.9379" lon="4.86821">
        <ele>286</ele>
        <time>2017-06-28T08:42:25Z</time>
      </trkpt>
      <trkpt lat="45.93789" lon="4.86834">
        <ele>286</ele>
        <time>2017-06-28T08:42:27Z</time>
      </trkpt>
      <trkpt lat="45.93788" lon="4.8684">
        <ele>286</ele>
        <time>2017-06-28T08:42:28Z</time>
      </trkpt>
      <trkpt lat="45.93786" lon="4.86852">
        <ele>286</ele>
        <time>2017-06-28T08:42:30Z</time>
      </trkpt>
      <trkpt lat="45.93785" lon="4.86858">
        <ele>286</ele>
        <time>2017-06-28T08:42:31Z</time>
      </trkpt>
      <trkpt lat="45.93784" lon="4.86865">
        <ele>286</ele>
        <time>2017-06-28T08:42:32Z</time>
      </trkpt>
      <trkpt lat="45.93783" lon="4.86872">
        <ele>286</ele>
        <time>2017-06-28T08:42:33Z</time>
      </trkpt>
      <trkpt lat="45.93782" lon="4.86879">
        <ele>286</ele>
        <time>2017-06-28T08:42:34Z</time>
      </trkpt>
      <trkpt lat="45.93781" lon="4.86887">
        <ele>286</ele>
        <time>2017-06-28T08:42:35Z</time>
      </trkpt>
      <trkpt lat="45.93779" lon="4.86895">
        <ele>286</ele>
        <time>2017-06-28T08:42:36Z</time>
      </trkpt>
      <trkpt lat="45.93778" lon="4.86903">
        <ele>286</ele>
        <time>2017-06-28T08:42:37Z</time>
      </trkpt>
      <trkpt lat="45.93777" lon="4.86912">
        <ele>285</ele>
        <time>2017-06-28T08:42:38Z</time>
      </trkpt>
      <trkpt lat="45.93775" lon="4.8692">
        <ele>285</ele>
        <time>2017-06-28T08:42:39Z</time>
      </trkpt>
      <trkpt lat="45.93774" lon="4.86928">
        <ele>285</ele>
        <time>2017-06-28T08:42:40Z</time>
      </trkpt>
      <trkpt lat="45.93773" lon="4.86937">
        <ele>285</ele>
        <time>2017-06-28T08:42:41Z</time>
      </trkpt>
      <trkpt lat="45.93772" lon="4.86945">
        <ele>285</ele>
        <time>2017-06-28T08:42:42Z</time>
      </trkpt>
      <trkpt lat="45.93771" lon="4.86954">
        <ele>285</ele>
        <time>2017-06-28T08:42:43Z</time>
      </trkpt>
      <trkpt lat="45.93769" lon="4.86963">
        <ele>285</ele>
        <time>2017-06-28T08:42:44Z</time>
      </trkpt>
      <trkpt lat="45.93768" lon="4.86972">
        <ele>285</ele>
        <time>2017-06-28T08:42:45Z</time>
      </trkpt>
      <trkpt lat="45.93766" lon="4.86981">
        <ele>285</ele>
        <time>2017-06-28T08:42:46Z</time>
      </trkpt>
      <trkpt lat="45.93765" lon="4.86991">
        <ele>285</ele>
        <time>2017-06-28T08:42:47Z</time>
      </trkpt>
      <trkpt lat="45.93764" lon="4.87001">
        <ele>284</ele>
        <time>2017-06-28T08:42:48Z</time>
      </trkpt>
      <trkpt lat="45.93763" lon="4.8701">
        <ele>284</ele>
        <time>2017-06-28T08:42:49Z</time>
      </trkpt>
      <trkpt lat="45.93762" lon="4.87019">
        <ele>284</ele>
        <time>2017-06-28T08:42:50Z</time>
      </trkpt>
      <trkpt lat="45.9376" lon="4.87028">
        <ele>284</ele>
        <time>2017-06-28T08:42:51Z</time>
      </trkpt>
      <trkpt lat="45.93759" lon="4.87037">
        <ele>284</ele>
        <time>2017-06-28T08:42:52Z</time>
      </trkpt>
      <trkpt lat="45.93758" lon="4.87047">
        <ele>284</ele>
        <time>2017-06-28T08:42:53Z</time>
      </trkpt>
      <trkpt lat="45.93756" lon="4.87056">
        <ele>284</ele>
        <time>2017-06-28T08:42:54Z</time>
      </trkpt>
      <trkpt lat="45.93755" lon="4.87066">
        <ele>284</ele>
        <time>2017-06-28T08:42:55Z</time>
      </trkpt>
      <trkpt lat="45.93753" lon="4.87076">
        <ele>284</ele>
        <time>2017-06-28T08:42:56Z</time>
      </trkpt>
      <trkpt lat="45.93752" lon="4.87085">
        <ele>284</ele>
        <time>2017-06-28T08:42:57Z</time>
      </trkpt>
      <trkpt lat="45.93751" lon="4.87095">
        <ele>284</ele>
        <time>2017-06-28T08:42:58Z</time>
      </trkpt>
      <trkpt lat="45.93749" lon="4.87105">
        <ele>284</ele>
        <time>2017-06-28T08:42:59Z</time>
      </trkpt>
      <trkpt lat="45.93748" lon="4.87116">
        <ele>285</ele>
        <time>2017-06-28T08:43:00Z</time>
      </trkpt>
      <trkpt lat="45.93746" lon="4.87126">
        <ele>285</ele>
        <time>2017-06-28T08:43:01Z</time>
      </trkpt>
      <trkpt lat="45.93745" lon="4.87137">
        <ele>285</ele>
        <time>2017-06-28T08:43:02Z</time>
      </trkpt>
      <trkpt lat="45.93743" lon="4.87147">
        <ele>285</ele>
        <time>2017-06-28T08:43:03Z</time>
      </trkpt>
      <trkpt lat="45.93742" lon="4.87157">
        <ele>285</ele>
        <time>2017-06-28T08:43:04Z</time>
      </trkpt>
      <trkpt lat="45.9374" lon="4.87167">
        <ele>285</ele>
        <time>2017-06-28T08:43:05Z</time>
      </trkpt>
      <trkpt lat="45.93739" lon="4.87177">
        <ele>285</ele>
        <time>2017-06-28T08:43:06Z</time>
      </trkpt>
      <trkpt lat="45.93738" lon="4.87187">
        <ele>285</ele>
        <time>2017-06-28T08:43:07Z</time>
      </trkpt>
      <trkpt lat="45.93736" lon="4.87196">
        <ele>285</ele>
        <time>2017-06-28T08:43:08Z</time>
      </trkpt>
      <trkpt lat="45.93735" lon="4.87205">
        <ele>285</ele>
        <time>2017-06-28T08:43:09Z</time>
      </trkpt>
      <trkpt lat="45.93734" lon="4.87214">
        <ele>285</ele>
        <time>2017-06-28T08:43:10Z</time>
      </trkpt>
      <trkpt lat="45.93733" lon="4.87223">
        <ele>285</ele>
        <time>2017-06-28T08:43:11Z</time>
      </trkpt>
      <trkpt lat="45.93732" lon="4.87232">
        <ele>285</ele>
        <time>2017-06-28T08:43:12Z</time>
      </trkpt>
      <trkpt lat="45.93731" lon="4.87241">
        <ele>285</ele>
        <time>2017-06-28T08:43:13Z</time>
      </trkpt>
      <trkpt lat="45.9373" lon="4.87249">
        <ele>285</ele>
        <time>2017-06-28T08:43:14Z</time>
      </trkpt>
      <trkpt lat="45.93728" lon="4.87256">
        <ele>285</ele>
        <time>2017-06-28T08:43:15Z</time>
      </trkpt>
      <trkpt lat="45.93727" lon="4.87264">
        <ele>285</ele>
        <time>2017-06-28T08:43:16Z</time>
      </trkpt>
      <trkpt lat="45.93726" lon="4.87271">
        <ele>285</ele>
        <time>2017-06-28T08:43:17Z</time>
      </trkpt>
      <trkpt lat="45.93725" lon="4.87278">
        <ele>285</ele>
        <time>2017-06-28T08:43:18Z</time>
      </trkpt>
      <trkpt lat="45.93723" lon="4.87286">
        <ele>285</ele>
        <time>2017-06-28T08:43:19Z</time>
      </trkpt>
      <trkpt lat="45.93722" lon="4.87293">
        <ele>285</ele>
        <time>2017-06-28T08:43:20Z</time>
      </trkpt>
      <trkpt lat="45.93721" lon="4.87301">
        <ele>285</ele>
        <time>2017-06-28T08:43:21Z</time>
      </trkpt>
      <trkpt lat="45.93719" lon="4.87309">
        <ele>285</ele>
        <time>2017-06-28T08:43:22Z</time>
      </trkpt>
      <trkpt lat="45.93717" lon="4.87316">
        <ele>285</ele>
        <time>2017-06-28T08:43:23Z</time>
      </trkpt>
      <trkpt lat="45.93715" lon="4.87324">
        <ele>285</ele>
        <time>2017-06-28T08:43:24Z</time>
      </trkpt>
      <trkpt lat="45.93713" lon="4.87331">
        <ele>285</ele>
        <time>2017-06-28T08:43:25Z</time>
      </trkpt>
      <trkpt lat="45.93711" lon="4.87338">
        <ele>284</ele>
        <time>2017-06-28T08:43:26Z</time>
      </trkpt>
      <trkpt lat="45.93709" lon="4.87345">
        <ele>284</ele>
        <time>2017-06-28T08:43:27Z</time>
      </trkpt>
      <trkpt lat="45.93707" lon="4.87353">
        <ele>284</ele>
        <time>2017-06-28T08:43:28Z</time>
      </trkpt>
      <trkpt lat="45.93705" lon="4.8736">
        <ele>284</ele>
        <time>2017-06-28T08:43:29Z</time>
      </trkpt>
      <trkpt lat="45.93703" lon="4.87367">
        <ele>284</ele>
        <time>2017-06-28T08:43:30Z</time>
      </trkpt>
      <trkpt lat="45.93701" lon="4.87375">
        <ele>284</ele>
        <time>2017-06-28T08:43:31Z</time>
      </trkpt>
      <trkpt lat="45.93698" lon="4.87383">
        <ele>284</ele>
        <time>2017-06-28T08:43:32Z</time>
      </trkpt>
      <trkpt lat="45.93695" lon="4.87391">
        <ele>284</ele>
        <time>2017-06-28T08:43:33Z</time>
      </trkpt>
      <trkpt lat="45.93692" lon="4.87399">
        <ele>284</ele>
        <time>2017-06-28T08:43:34Z</time>
      </trkpt>
      <trkpt lat="45.93689" lon="4.87408">
        <ele>284</ele>
        <time>2017-06-28T08:43:35Z</time>
      </trkpt>
      <trkpt lat="45.93686" lon="4.87417">
        <ele>284</ele>
        <time>2017-06-28T08:43:36Z</time>
      </trkpt>
      <trkpt lat="45.93682" lon="4.87424">
        <ele>284</ele>
        <time>2017-06-28T08:43:37Z</time>
      </trkpt>
      <trkpt lat="45.93679" lon="4.8743">
        <ele>284</ele>
        <time>2017-06-28T08:43:38Z</time>
      </trkpt>
      <trkpt lat="45.93676" lon="4.87437">
        <ele>284</ele>
        <time>2017-06-28T08:43:39Z</time>
      </trkpt>
      <trkpt lat="45.93673" lon="4.87443">
        <ele>284</ele>
        <time>2017-06-28T08:43:40Z</time>
      </trkpt>
      <trkpt lat="45.9367" lon="4.87449">
        <ele>284</ele>
        <time>2017-06-28T08:43:41Z</time>
      </trkpt>
      <trkpt lat="45.93667" lon="4.87455">
        <ele>284</ele>
        <time>2017-06-28T08:43:42Z</time>
      </trkpt>
      <trkpt lat="45.93664" lon="4.87461">
        <ele>285</ele>
        <time>2017-06-28T08:43:43Z</time>
      </trkpt>
      <trkpt lat="45.93661" lon="4.87468">
        <ele>285</ele>
        <time>2017-06-28T08:43:44Z</time>
      </trkpt>
      <trkpt lat="45.93657" lon="4.87473">
        <ele>285</ele>
        <time>2017-06-28T08:43:45Z</time>
      </trkpt>
      <trkpt lat="45.93654" lon="4.87478">
        <ele>285</ele>
        <time>2017-06-28T08:43:46Z</time>
      </trkpt>
      <trkpt lat="45.93651" lon="4.87484">
        <ele>285</ele>
        <time>2017-06-28T08:43:47Z</time>
      </trkpt>
      <trkpt lat="45.93649" lon="4.87489">
        <ele>285</ele>
        <time>2017-06-28T08:43:48Z</time>
      </trkpt>
      <trkpt lat="45.93645" lon="4.87494">
        <ele>285</ele>
        <time>2017-06-28T08:43:49Z</time>
      </trkpt>
      <trkpt lat="45.93642" lon="4.875">
        <ele>285</ele>
        <time>2017-06-28T08:43:50Z</time>
      </trkpt>
      <trkpt lat="45.93638" lon="4.87506">
        <ele>285</ele>
        <time>2017-06-28T08:43:51Z</time>
      </trkpt>
      <trkpt lat="45.93635" lon="4.87512">
        <ele>285</ele>
        <time>2017-06-28T08:43:52Z</time>
      </trkpt>
      <trkpt lat="45.93632" lon="4.87519">
        <ele>285</ele>
        <time>2017-06-28T08:43:53Z</time>
      </trkpt>
      <trkpt lat="45.93628" lon="4.87525">
        <ele>285</ele>
        <time>2017-06-28T08:43:54Z</time>
      </trkpt>
      <trkpt lat="45.93624" lon="4.87532">
        <ele>286</ele>
        <time>2017-06-28T08:43:55Z</time>
      </trkpt>
      <trkpt lat="45.93621" lon="4.87539">
        <ele>286</ele>
        <time>2017-06-28T08:43:56Z</time>
      </trkpt>
      <trkpt lat="45.93617" lon="4.87545">
        <ele>286</ele>
        <time>2017-06-28T08:43:57Z</time>
      </trkpt>
      <trkpt lat="45.93614" lon="4.87551">
        <ele>286</ele>
        <time>2017-06-28T08:43:58Z</time>
      </trkpt>
      <trkpt lat="45.93611" lon="4.87557">
        <ele>286</ele>
        <time>2017-06-28T08:43:59Z</time>
      </trkpt>
      <trkpt lat="45.93608" lon="4.87562">
        <ele>286</ele>
        <time>2017-06-28T08:44:00Z</time>
      </trkpt>
      <trkpt lat="45.93605" lon="4.87568">
        <ele>286</ele>
        <time>2017-06-28T08:44:01Z</time>
      </trkpt>
      <trkpt lat="45.93602" lon="4.87574">
        <ele>286</ele>
        <time>2017-06-28T08:44:02Z</time>
      </trkpt>
      <trkpt lat="45.93598" lon="4.87581">
        <ele>286</ele>
        <time>2017-06-28T08:44:03Z</time>
      </trkpt>
      <trkpt lat="45.93595" lon="4.87587">
        <ele>286</ele>
        <time>2017-06-28T08:44:04Z</time>
      </trkpt>
      <trkpt lat="45.93591" lon="4.87593">
        <ele>285</ele>
        <time>2017-06-28T08:44:05Z</time>
      </trkpt>
      <trkpt lat="45.93587" lon="4.876">
        <ele>285</ele>
        <time>2017-06-28T08:44:06Z</time>
      </trkpt>
      <trkpt lat="45.93584" lon="4.87607">
        <ele>285</ele>
        <time>2017-06-28T08:44:07Z</time>
      </trkpt>
      <trkpt lat="45.93581" lon="4.87615">
        <ele>285</ele>
        <time>2017-06-28T08:44:08Z</time>
      </trkpt>
      <trkpt lat="45.93578" lon="4.87622">
        <ele>285</ele>
        <time>2017-06-28T08:44:09Z</time>
      </trkpt>
      <trkpt lat="45.93575" lon="4.8763">
        <ele>285</ele>
        <time>2017-06-28T08:44:10Z</time>
      </trkpt>
      <trkpt lat="45.93572" lon="4.87638">
        <ele>285</ele>
        <time>2017-06-28T08:44:11Z</time>
      </trkpt>
      <trkpt lat="45.9357" lon="4.87645">
        <ele>285</ele>
        <time>2017-06-28T08:44:12Z</time>
      </trkpt>
      <trkpt lat="45.93567" lon="4.87652">
        <ele>285</ele>
        <time>2017-06-28T08:44:13Z</time>
      </trkpt>
      <trkpt lat="45.93566" lon="4.87659">
        <ele>285</ele>
        <time>2017-06-28T08:44:14Z</time>
      </trkpt>
      <trkpt lat="45.93564" lon="4.87666">
        <ele>285</ele>
        <time>2017-06-28T08:44:15Z</time>
      </trkpt>
      <trkpt lat="45.93562" lon="4.87672">
        <ele>284</ele>
        <time>2017-06-28T08:44:16Z</time>
      </trkpt>
      <trkpt lat="45.9356" lon="4.87678">
        <ele>284</ele>
        <time>2017-06-28T08:44:17Z</time>
      </trkpt>
      <trkpt lat="45.93559" lon="4.87684">
        <ele>284</ele>
        <time>2017-06-28T08:44:18Z</time>
      </trkpt>
      <trkpt lat="45.93557" lon="4.87691">
        <ele>284</ele>
        <time>2017-06-28T08:44:19Z</time>
      </trkpt>
      <trkpt lat="45.93555" lon="4.87698">
        <ele>284</ele>
        <time>2017-06-28T08:44:20Z</time>
      </trkpt>
      <trkpt lat="45.93553" lon="4.87705">
        <ele>284</ele>
        <time>2017-06-28T08:44:21Z</time>
      </trkpt>
      <trkpt lat="45.93551" lon="4.87713">
        <ele>284</ele>
        <time>2017-06-28T08:44:22Z</time>
      </trkpt>
      <trkpt lat="45.93549" lon="4.87721">
        <ele>284</ele>
        <time>2017-06-28T08:44:23Z</time>
      </trkpt>
      <trkpt lat="45.93547" lon="4.87729">
        <ele>284</ele>
        <time>2017-06-28T08:44:24Z</time>
      </trkpt>
      <trkpt lat="45.93545" lon="4.87738">
        <ele>284</ele>
        <time>2017-06-28T08:44:25Z</time>
      </trkpt>
      <trkpt lat="45.93543" lon="4.87745">
        <ele>284</ele>
        <time>2017-06-28T08:44:26Z</time>
      </trkpt>
      <trkpt lat="45.93541" lon="4.87752">
        <ele>284</ele>
        <time>2017-06-28T08:44:27Z</time>
      </trkpt>
      <trkpt lat="45.93539" lon="4.87759">
        <ele>284</ele>
        <time>2017-06-28T08:44:28Z</time>
      </trkpt>
      <trkpt lat="45.93538" lon="4.87766">
        <ele>284</ele>
        <time>2017-06-28T08:44:29Z</time>
      </trkpt>
      <trkpt lat="45.93536" lon="4.87772">
        <ele>284</ele>
        <time>2017-06-28T08:44:30Z</time>
      </trkpt>
      <trkpt lat="45.93535" lon="4.87778">
        <ele>284</ele>
        <time>2017-06-28T08:44:31Z</time>
      </trkpt>
      <trkpt lat="45.93533" lon="4.87785">
        <ele>284</ele>
        <time>2017-06-28T08:44:32Z</time>
      </trkpt>
      <trkpt lat="45.93532" lon="4.87792">
        <ele>284</ele>
        <time>2017-06-28T08:44:33Z</time>
      </trkpt>
      <trkpt lat="45.93531" lon="4.87799">
        <ele>284</ele>
        <time>2017-06-28T08:44:34Z</time>
      </trkpt>
      <trkpt lat="45.9353" lon="4.87805">
        <ele>284</ele>
        <time>2017-06-28T08:44:35Z</time>
      </trkpt>
      <trkpt lat="45.93529" lon="4.87812">
        <ele>284</ele>
        <time>2017-06-28T08:44:36Z</time>
      </trkpt>
      <trkpt lat="45.93528" lon="4.87818">
        <ele>284</ele>
        <time>2017-06-28T08:44:37Z</time>
      </trkpt>
      <trkpt lat="45.93527" lon="4.87826">
        <ele>284</ele>
        <time>2017-06-28T08:44:38Z</time>
      </trkpt>
      <trkpt lat="45.93526" lon="4.87833">
        <ele>284</ele>
        <time>2017-06-28T08:44:39Z</time>
      </trkpt>
      <trkpt lat="45.93525" lon="4.8784">
        <ele>283</ele>
        <time>2017-06-28T08:44:40Z</time>
      </trkpt>
      <trkpt lat="45.93525" lon="4.87847">
        <ele>283</ele>
        <time>2017-06-28T08:44:41Z</time>
      </trkpt>
      <trkpt lat="45.93524" lon="4.87854">
        <ele>283</ele>
        <time>2017-06-28T08:44:42Z</time>
      </trkpt>
      <trkpt lat="45.93523" lon="4.8786">
        <ele>283</ele>
        <time>2017-06-28T08:44:43Z</time>
      </trkpt>
      <trkpt lat="45.93523" lon="4.87867">
        <ele>283</ele>
        <time>2017-06-28T08:44:44Z</time>
      </trkpt>
      <trkpt lat="45.93522" lon="4.87873">
        <ele>283</ele>
        <time>2017-06-28T08:44:45Z</time>
      </trkpt>
      <trkpt lat="45.93521" lon="4.8788">
        <ele>283</ele>
        <time>2017-06-28T08:44:46Z</time>
      </trkpt>
      <trkpt lat="45.9352" lon="4.87886">
        <ele>283</ele>
        <time>2017-06-28T08:44:47Z</time>
      </trkpt>
      <trkpt lat="45.9352" lon="4.87893">
        <ele>283</ele>
        <time>2017-06-28T08:44:48Z</time>
      </trkpt>
      <trkpt lat="45.93519" lon="4.87899">
        <ele>283</ele>
        <time>2017-06-28T08:44:49Z</time>
      </trkpt>
      <trkpt lat="45.93518" lon="4.87905">
        <ele>283</ele>
        <time>2017-06-28T08:44:50Z</time>
      </trkpt>
      <trkpt lat="45.93517" lon="4.87912">
        <ele>283</ele>
        <time>2017-06-28T08:44:51Z</time>
      </trkpt>
      <trkpt lat="45.93517" lon="4.87919">
        <ele>284</ele>
        <time>2017-06-28T08:44:52Z</time>
      </trkpt>
      <trkpt lat="45.93516" lon="4.87926">
        <ele>284</ele>
        <time>2017-06-28T08:44:53Z</time>
      </trkpt>
      <trkpt lat="45.93516" lon="4.87933">
        <ele>284</ele>
        <time>2017-06-28T08:44:54Z</time>
      </trkpt>
      <trkpt lat="45.93515" lon="4.87941">
        <ele>284</ele>
        <time>2017-06-28T08:44:55Z</time>
      </trkpt>
      <trkpt lat="45.93514" lon="4.87948">
        <ele>284</ele>
        <time>2017-06-28T08:44:56Z</time>
      </trkpt>
      <trkpt lat="45.93513" lon="4.87956">
        <ele>284</ele>
        <time>2017-06-28T08:44:57Z</time>
      </trkpt>
      <trkpt lat="45.93512" lon="4.87964">
        <ele>284</ele>
        <time>2017-06-28T08:44:58Z</time>
      </trkpt>
      <trkpt lat="45.93511" lon="4.87972">
        <ele>284</ele>
        <time>2017-06-28T08:44:59Z</time>
      </trkpt>
      <trkpt lat="45.9351" lon="4.87979">
        <ele>285</ele>
        <time>2017-06-28T08:45:00Z</time>
      </trkpt>
      <trkpt lat="45.9351" lon="4.87987">
        <ele>285</ele>
        <time>2017-06-28T08:45:01Z</time>
      </trkpt>
      <trkpt lat="45.93509" lon="4.87995">
        <ele>285</ele>
        <time>2017-06-28T08:45:02Z</time>
      </trkpt>
      <trkpt lat="45.93507" lon="4.88002">
        <ele>286</ele>
        <time>2017-06-28T08:45:03Z</time>
      </trkpt>
      <trkpt lat="45.93506" lon="4.88009">
        <ele>286</ele>
        <time>2017-06-28T08:45:04Z</time>
      </trkpt>
      <trkpt lat="45.93506" lon="4.88017">
        <ele>286</ele>
        <time>2017-06-28T08:45:05Z</time>
      </trkpt>
      <trkpt lat="45.93505" lon="4.88024">
        <ele>286</ele>
        <time>2017-06-28T08:45:06Z</time>
      </trkpt>
      <trkpt lat="45.93504" lon="4.88031">
        <ele>286</ele>
        <time>2017-06-28T08:45:07Z</time>
      </trkpt>
      <trkpt lat="45.93503" lon="4.88038">
        <ele>286</ele>
        <time>2017-06-28T08:45:08Z</time>
      </trkpt>
      <trkpt lat="45.93503" lon="4.88045">
        <ele>286</ele>
        <time>2017-06-28T08:45:09Z</time>
      </trkpt>
      <trkpt lat="45.93502" lon="4.88053">
        <ele>286</ele>
        <time>2017-06-28T08:45:10Z</time>
      </trkpt>
      <trkpt lat="45.93501" lon="4.8806">
        <ele>286</ele>
        <time>2017-06-28T08:45:11Z</time>
      </trkpt>
      <trkpt lat="45.935" lon="4.88068">
        <ele>286</ele>
        <time>2017-06-28T08:45:12Z</time>
      </trkpt>
      <trkpt lat="45.93499" lon="4.88074">
        <ele>287</ele>
        <time>2017-06-28T08:45:13Z</time>
      </trkpt>
      <trkpt lat="45.93499" lon="4.88081">
        <ele>287</ele>
        <time>2017-06-28T08:45:14Z</time>
      </trkpt>
      <trkpt lat="45.93498" lon="4.88087">
        <ele>287</ele>
        <time>2017-06-28T08:45:15Z</time>
      </trkpt>
      <trkpt lat="45.93496" lon="4.88093">
        <ele>287</ele>
        <time>2017-06-28T08:45:16Z</time>
      </trkpt>
      <trkpt lat="45.93495" lon="4.881">
        <ele>287</ele>
        <time>2017-06-28T08:45:17Z</time>
      </trkpt>
      <trkpt lat="45.93493" lon="4.88106">
        <ele>288</ele>
        <time>2017-06-28T08:45:18Z</time>
      </trkpt>
      <trkpt lat="45.93491" lon="4.88113">
        <ele>288</ele>
        <time>2017-06-28T08:45:19Z</time>
      </trkpt>
      <trkpt lat="45.93489" lon="4.88121">
        <ele>288</ele>
        <time>2017-06-28T08:45:20Z</time>
      </trkpt>
      <trkpt lat="45.93487" lon="4.88128">
        <ele>288</ele>
        <time>2017-06-28T08:45:21Z</time>
      </trkpt>
      <trkpt lat="45.93486" lon="4.88135">
        <ele>288</ele>
        <time>2017-06-28T08:45:22Z</time>
      </trkpt>
      <trkpt lat="45.93484" lon="4.88143">
        <ele>288</ele>
        <time>2017-06-28T08:45:23Z</time>
      </trkpt>
      <trkpt lat="45.93483" lon="4.88151">
        <ele>288</ele>
        <time>2017-06-28T08:45:24Z</time>
      </trkpt>
      <trkpt lat="45.93483" lon="4.88158">
        <ele>288</ele>
        <time>2017-06-28T08:45:25Z</time>
      </trkpt>
      <trkpt lat="45.93482" lon="4.88166">
        <ele>288</ele>
        <time>2017-06-28T08:45:26Z</time>
      </trkpt>
      <trkpt lat="45.93482" lon="4.88173">
        <ele>288</ele>
        <time>2017-06-28T08:45:27Z</time>
      </trkpt>
      <trkpt lat="45.93481" lon="4.8818">
        <ele>288</ele>
        <time>2017-06-28T08:45:28Z</time>
      </trkpt>
      <trkpt lat="45.93481" lon="4.88186">
        <ele>289</ele>
        <time>2017-06-28T08:45:29Z</time>
      </trkpt>
      <trkpt lat="45.93478" lon="4.88197">
        <ele>289</ele>
        <time>2017-06-28T08:45:31Z</time>
      </trkpt>
      <trkpt lat="45.93476" lon="4.88202">
        <ele>289</ele>
        <time>2017-06-28T08:45:32Z</time>
      </trkpt>
      <trkpt lat="45.93473" lon="4.88208">
        <ele>289</ele>
        <time>2017-06-28T08:45:33Z</time>
      </trkpt>
      <trkpt lat="45.93472" lon="4.88214">
        <ele>289</ele>
        <time>2017-06-28T08:45:34Z</time>
      </trkpt>
      <trkpt lat="45.93471" lon="4.8822">
        <ele>289</ele>
        <time>2017-06-28T08:45:35Z</time>
      </trkpt>
      <trkpt lat="45.93472" lon="4.88227">
        <ele>289</ele>
        <time>2017-06-28T08:45:36Z</time>
      </trkpt>
      <trkpt lat="45.93474" lon="4.88233">
        <ele>289</ele>
        <time>2017-06-28T08:45:37Z</time>
      </trkpt>
      <trkpt lat="45.93478" lon="4.88238">
        <ele>289</ele>
        <time>2017-06-28T08:45:38Z</time>
      </trkpt>
      <trkpt lat="45.93486" lon="4.88242">
        <ele>289</ele>
        <time>2017-06-28T08:45:40Z</time>
      </trkpt>
      <trkpt lat="45.93491" lon="4.88241">
        <ele>289</ele>
        <time>2017-06-28T08:45:41Z</time>
      </trkpt>
      <trkpt lat="45.93496" lon="4.88238">
        <ele>289</ele>
        <time>2017-06-28T08:45:42Z</time>
      </trkpt>
      <trkpt lat="45.93501" lon="4.88235">
        <ele>288</ele>
        <time>2017-06-28T08:45:43Z</time>
      </trkpt>
      <trkpt lat="45.93506" lon="4.88232">
        <ele>288</ele>
        <time>2017-06-28T08:45:44Z</time>
      </trkpt>
      <trkpt lat="45.93511" lon="4.88229">
        <ele>288</ele>
        <time>2017-06-28T08:45:45Z</time>
      </trkpt>
      <trkpt lat="45.93515" lon="4.88226">
        <ele>288</ele>
        <time>2017-06-28T08:45:46Z</time>
      </trkpt>
      <trkpt lat="45.93521" lon="4.88223">
        <ele>288</ele>
        <time>2017-06-28T08:45:47Z</time>
      </trkpt>
      <trkpt lat="45.93526" lon="4.88221">
        <ele>288</ele>
        <time>2017-06-28T08:45:48Z</time>
      </trkpt>
      <trkpt lat="45.93532" lon="4.8822">
        <ele>287</ele>
        <time>2017-06-28T08:45:49Z</time>
      </trkpt>
      <trkpt lat="45.93537" lon="4.88218">
        <ele>287</ele>
        <time>2017-06-28T08:45:50Z</time>
      </trkpt>
      <trkpt lat="45.93543" lon="4.88218">
        <ele>287</ele>
        <time>2017-06-28T08:45:51Z</time>
      </trkpt>
      <trkpt lat="45.9355" lon="4.88217">
        <ele>287</ele>
        <time>2017-06-28T08:45:52Z</time>
      </trkpt>
      <trkpt lat="45.93556" lon="4.88217">
        <ele>287</ele>
        <time>2017-06-28T08:45:53Z</time>
      </trkpt>
      <trkpt lat="45.93562" lon="4.88217">
        <ele>287</ele>
        <time>2017-06-28T08:45:54Z</time>
      </trkpt>
      <trkpt lat="45.93568" lon="4.88217">
        <ele>287</ele>
        <time>2017-06-28T08:45:55Z</time>
      </trkpt>
      <trkpt lat="45.93575" lon="4.88217">
        <ele>287</ele>
        <time>2017-06-28T08:45:56Z</time>
      </trkpt>
      <trkpt lat="45.93581" lon="4.88217">
        <ele>287</ele>
        <time>2017-06-28T08:45:57Z</time>
      </trkpt>
      <trkpt lat="45.93587" lon="4.88217">
        <ele>286</ele>
        <time>2017-06-28T08:45:58Z</time>
      </trkpt>
      <trkpt lat="45.93593" lon="4.88218">
        <ele>286</ele>
        <time>2017-06-28T08:45:59Z</time>
      </trkpt>
      <trkpt lat="45.93599" lon="4.88217">
        <ele>285</ele>
        <time>2017-06-28T08:46:00Z</time>
      </trkpt>
      <trkpt lat="45.93605" lon="4.88217">
        <ele>285</ele>
        <time>2017-06-28T08:46:01Z</time>
      </trkpt>
      <trkpt lat="45.93612" lon="4.88217">
        <ele>285</ele>
        <time>2017-06-28T08:46:02Z</time>
      </trkpt>
      <trkpt lat="45.93618" lon="4.88217">
        <ele>285</ele>
        <time>2017-06-28T08:46:03Z</time>
      </trkpt>
      <trkpt lat="45.93625" lon="4.88217">
        <ele>285</ele>
        <time>2017-06-28T08:46:04Z</time>
      </trkpt>
      <trkpt lat="45.93631" lon="4.88216">
        <ele>285</ele>
        <time>2017-06-28T08:46:05Z</time>
      </trkpt>
      <trkpt lat="45.93638" lon="4.88216">
        <ele>285</ele>
        <time>2017-06-28T08:46:06Z</time>
      </trkpt>
      <trkpt lat="45.93644" lon="4.88217">
        <ele>285</ele>
        <time>2017-06-28T08:46:07Z</time>
      </trkpt>
      <trkpt lat="45.9365" lon="4.88217">
        <ele>285</ele>
        <time>2017-06-28T08:46:08Z</time>
      </trkpt>
      <trkpt lat="45.93656" lon="4.88217">
        <ele>285</ele>
        <time>2017-06-28T08:46:09Z</time>
      </trkpt>
      <trkpt lat="45.93663" lon="4.88216">
        <ele>285</ele>
        <time>2017-06-28T08:46:10Z</time>
      </trkpt>
      <trkpt lat="45.93669" lon="4.88217">
        <ele>285</ele>
        <time>2017-06-28T08:46:11Z</time>
      </trkpt>
      <trkpt lat="45.93675" lon="4.88216">
        <ele>285</ele>
        <time>2017-06-28T08:46:12Z</time>
      </trkpt>
      <trkpt lat="45.93682" lon="4.88216">
        <ele>285</ele>
        <time>2017-06-28T08:46:13Z</time>
      </trkpt>
      <trkpt lat="45.93688" lon="4.88216">
        <ele>285</ele>
        <time>2017-06-28T08:46:14Z</time>
      </trkpt>
      <trkpt lat="45.93694" lon="4.88216">
        <ele>285</ele>
        <time>2017-06-28T08:46:15Z</time>
      </trkpt>
      <trkpt lat="45.937" lon="4.88216">
        <ele>285</ele>
        <time>2017-06-28T08:46:16Z</time>
      </trkpt>
      <trkpt lat="45.93705" lon="4.88216">
        <ele>285</ele>
        <time>2017-06-28T08:46:17Z</time>
      </trkpt>
      <trkpt lat="45.93711" lon="4.88217">
        <ele>285</ele>
        <time>2017-06-28T08:46:18Z</time>
      </trkpt>
      <trkpt lat="45.93717" lon="4.88217">
        <ele>285</ele>
        <time>2017-06-28T08:46:19Z</time>
      </trkpt>
      <trkpt lat="45.93724" lon="4.88217">
        <ele>286</ele>
        <time>2017-06-28T08:46:20Z</time>
      </trkpt>
      <trkpt lat="45.9373" lon="4.88217">
        <ele>286</ele>
        <time>2017-06-28T08:46:21Z</time>
      </trkpt>
      <trkpt lat="45.93736" lon="4.88217">
        <ele>286</ele>
        <time>2017-06-28T08:46:22Z</time>
      </trkpt>
      <trkpt lat="45.93743" lon="4.88217">
        <ele>286</ele>
        <time>2017-06-28T08:46:23Z</time>
      </trkpt>
      <trkpt lat="45.93749" lon="4.88217">
        <ele>286</ele>
        <time>2017-06-28T08:46:24Z</time>
      </trkpt>
      <trkpt lat="45.93755" lon="4.88217">
        <ele>287</ele>
        <time>2017-06-28T08:46:25Z</time>
      </trkpt>
      <trkpt lat="45.93762" lon="4.88217">
        <ele>287</ele>
        <time>2017-06-28T08:46:26Z</time>
      </trkpt>
      <trkpt lat="45.93768" lon="4.88217">
        <ele>287</ele>
        <time>2017-06-28T08:46:27Z</time>
      </trkpt>
      <trkpt lat="45.93775" lon="4.88217">
        <ele>287</ele>
        <time>2017-06-28T08:46:28Z</time>
      </trkpt>
      <trkpt lat="45.93781" lon="4.88217">
        <ele>287</ele>
        <time>2017-06-28T08:46:29Z</time>
      </trkpt>
      <trkpt lat="45.93788" lon="4.88217">
        <ele>287</ele>
        <time>2017-06-28T08:46:30Z</time>
      </trkpt>
      <trkpt lat="45.93795" lon="4.88217">
        <ele>288</ele>
        <time>2017-06-28T08:46:31Z</time>
      </trkpt>
      <trkpt lat="45.93802" lon="4.88217">
        <ele>288</ele>
        <time>2017-06-28T08:46:32Z</time>
      </trkpt>
      <trkpt lat="45.93809" lon="4.88217">
        <ele>288</ele>
        <time>2017-06-28T08:46:33Z</time>
      </trkpt>
      <trkpt lat="45.93816" lon="4.88217">
        <ele>288</ele>
        <time>2017-06-28T08:46:34Z</time>
      </trkpt>
      <trkpt lat="45.93823" lon="4.88218">
        <ele>288</ele>
        <time>2017-06-28T08:46:35Z</time>
      </trkpt>
      <trkpt lat="45.93829" lon="4.88218">
        <ele>288</ele>
        <time>2017-06-28T08:46:36Z</time>
      </trkpt>
      <trkpt lat="45.93836" lon="4.88218">
        <ele>289</ele>
        <time>2017-06-28T08:46:37Z</time>
      </trkpt>
      <trkpt lat="45.93843" lon="4.88219">
        <ele>289</ele>
        <time>2017-06-28T08:46:38Z</time>
      </trkpt>
      <trkpt lat="45.93849" lon="4.88219">
        <ele>289</ele>
        <time>2017-06-28T08:46:39Z</time>
      </trkpt>
      <trkpt lat="45.93856" lon="4.88219">
        <ele>289</ele>
        <time>2017-06-28T08:46:40Z</time>
      </trkpt>
      <trkpt lat="45.93862" lon="4.8822">
        <ele>289</ele>
        <time>2017-06-28T08:46:41Z</time>
      </trkpt>
      <trkpt lat="45.93869" lon="4.8822">
        <ele>289</ele>
        <time>2017-06-28T08:46:42Z</time>
      </trkpt>
      <trkpt lat="45.93876" lon="4.8822">
        <ele>289</ele>
        <time>2017-06-28T08:46:43Z</time>
      </trkpt>
      <trkpt lat="45.93883" lon="4.8822">
        <ele>289</ele>
        <time>2017-06-28T08:46:44Z</time>
      </trkpt>
      <trkpt lat="45.93889" lon="4.8822">
        <ele>289</ele>
        <time>2017-06-28T08:46:45Z</time>
      </trkpt>
      <trkpt lat="45.93896" lon="4.88221">
        <ele>289</ele>
        <time>2017-06-28T08:46:46Z</time>
      </trkpt>
      <trkpt lat="45.93903" lon="4.88221">
        <ele>289</ele>
        <time>2017-06-28T08:46:47Z</time>
      </trkpt>
      <trkpt lat="45.9391" lon="4.88221">
        <ele>289</ele>
        <time>2017-06-28T08:46:48Z</time>
      </trkpt>
      <trkpt lat="45.93917" lon="4.88221">
        <ele>289</ele>
        <time>2017-06-28T08:46:49Z</time>
      </trkpt>
      <trkpt lat="45.93923" lon="4.88221">
        <ele>288</ele>
        <time>2017-06-28T08:46:50Z</time>
      </trkpt>
      <trkpt lat="45.9393" lon="4.88222">
        <ele>288</ele>
        <time>2017-06-28T08:46:51Z</time>
      </trkpt>
      <trkpt lat="45.93938" lon="4.88221">
        <ele>287</ele>
        <time>2017-06-28T08:46:52Z</time>
      </trkpt>
      <trkpt lat="45.93945" lon="4.88221">
        <ele>287</ele>
        <time>2017-06-28T08:46:53Z</time>
      </trkpt>
      <trkpt lat="45.93952" lon="4.88222">
        <ele>287</ele>
        <time>2017-06-28T08:46:54Z</time>
      </trkpt>
      <trkpt lat="45.93959" lon="4.88222">
        <ele>287</ele>
        <time>2017-06-28T08:46:55Z</time>
      </trkpt>
      <trkpt lat="45.93965" lon="4.88223">
        <ele>286</ele>
        <time>2017-06-28T08:46:56Z</time>
      </trkpt>
      <trkpt lat="45.93971" lon="4.88221">
        <ele>286</ele>
        <time>2017-06-28T08:46:57Z</time>
      </trkpt>
      <trkpt lat="45.93978" lon="4.88221">
        <ele>286</ele>
        <time>2017-06-28T08:46:58Z</time>
      </trkpt>
      <trkpt lat="45.93984" lon="4.88222">
        <ele>286</ele>
        <time>2017-06-28T08:46:59Z</time>
      </trkpt>
      <trkpt lat="45.93991" lon="4.88222">
        <ele>286</ele>
        <time>2017-06-28T08:47:00Z</time>
      </trkpt>
      <trkpt lat="45.93997" lon="4.88223">
        <ele>286</ele>
        <time>2017-06-28T08:47:01Z</time>
      </trkpt>
      <trkpt lat="45.94004" lon="4.88223">
        <ele>284</ele>
        <time>2017-06-28T08:47:02Z</time>
      </trkpt>
      <trkpt lat="45.9401" lon="4.88224">
        <ele>284</ele>
        <time>2017-06-28T08:47:03Z</time>
      </trkpt>
      <trkpt lat="45.94016" lon="4.88225">
        <ele>284</ele>
        <time>2017-06-28T08:47:04Z</time>
      </trkpt>
      <trkpt lat="45.94023" lon="4.88226">
        <ele>284</ele>
        <time>2017-06-28T08:47:05Z</time>
      </trkpt>
      <trkpt lat="45.94029" lon="4.88227">
        <ele>283</ele>
        <time>2017-06-28T08:47:06Z</time>
      </trkpt>
      <trkpt lat="45.94035" lon="4.88228">
        <ele>283</ele>
        <time>2017-06-28T08:47:07Z</time>
      </trkpt>
      <trkpt lat="45.94041" lon="4.88229">
        <ele>283</ele>
        <time>2017-06-28T08:47:08Z</time>
      </trkpt>
      <trkpt lat="45.94048" lon="4.8823">
        <ele>283</ele>
        <time>2017-06-28T08:47:09Z</time>
      </trkpt>
      <trkpt lat="45.94055" lon="4.8823">
        <ele>283</ele>
        <time>2017-06-28T08:47:10Z</time>
      </trkpt>
      <trkpt lat="45.94062" lon="4.88231">
        <ele>282</ele>
        <time>2017-06-28T08:47:11Z</time>
      </trkpt>
      <trkpt lat="45.94069" lon="4.88232">
        <ele>282</ele>
        <time>2017-06-28T08:47:12Z</time>
      </trkpt>
      <trkpt lat="45.94077" lon="4.88234">
        <ele>282</ele>
        <time>2017-06-28T08:47:13Z</time>
      </trkpt>
      <trkpt lat="45.94084" lon="4.88235">
        <ele>281</ele>
        <time>2017-06-28T08:47:14Z</time>
      </trkpt>
      <trkpt lat="45.94091" lon="4.88237">
        <ele>281</ele>
        <time>2017-06-28T08:47:15Z</time>
      </trkpt>
      <trkpt lat="45.94099" lon="4.88238">
        <ele>281</ele>
        <time>2017-06-28T08:47:16Z</time>
      </trkpt>
      <trkpt lat="45.94106" lon="4.88239">
        <ele>281</ele>
        <time>2017-06-28T08:47:17Z</time>
      </trkpt>
      <trkpt lat="45.94113" lon="4.8824">
        <ele>280</ele>
        <time>2017-06-28T08:47:18Z</time>
      </trkpt>
      <trkpt lat="45.94121" lon="4.8824">
        <ele>280</ele>
        <time>2017-06-28T08:47:19Z</time>
      </trkpt>
      <trkpt lat="45.94128" lon="4.88241">
        <ele>280</ele>
        <time>2017-06-28T08:47:20Z</time>
      </trkpt>
      <trkpt lat="45.94135" lon="4.88242">
        <ele>280</ele>
        <time>2017-06-28T08:47:21Z</time>
      </trkpt>
      <trkpt lat="45.94143" lon="4.88242">
        <ele>280</ele>
        <time>2017-06-28T08:47:22Z</time>
      </trkpt>
      <trkpt lat="45.9415" lon="4.88243">
        <ele>279</ele>
        <time>2017-06-28T08:47:23Z</time>
      </trkpt>
      <trkpt lat="45.94157" lon="4.88244">
        <ele>279</ele>
        <time>2017-06-28T08:47:24Z</time>
      </trkpt>
      <trkpt lat="45.94165" lon="4.88245">
        <ele>279</ele>
        <time>2017-06-28T08:47:25Z</time>
      </trkpt>
      <trkpt lat="45.94172" lon="4.88247">
        <ele>279</ele>
        <time>2017-06-28T08:47:26Z</time>
      </trkpt>
      <trkpt lat="45.94179" lon="4.88248">
        <ele>279</ele>
        <time>2017-06-28T08:47:27Z</time>
      </trkpt>
      <trkpt lat="45.94187" lon="4.88249">
        <ele>278</ele>
        <time>2017-06-28T08:47:28Z</time>
      </trkpt>
      <trkpt lat="45.94194" lon="4.8825">
        <ele>279</ele>
        <time>2017-06-28T08:47:29Z</time>
      </trkpt>
      <trkpt lat="45.94202" lon="4.88251">
        <ele>279</ele>
        <time>2017-06-28T08:47:30Z</time>
      </trkpt>
      <trkpt lat="45.94209" lon="4.88253">
        <ele>279</ele>
        <time>2017-06-28T08:47:31Z</time>
      </trkpt>
      <trkpt lat="45.94217" lon="4.88254">
        <ele>279</ele>
        <time>2017-06-28T08:47:32Z</time>
      </trkpt>
      <trkpt lat="45.94224" lon="4.88255">
        <ele>279</ele>
        <time>2017-06-28T08:47:33Z</time>
      </trkpt>
      <trkpt lat="45.94231" lon="4.88256">
        <ele>279</ele>
        <time>2017-06-28T08:47:34Z</time>
      </trkpt>
      <trkpt lat="45.94239" lon="4.88257">
        <ele>278</ele>
        <time>2017-06-28T08:47:35Z</time>
      </trkpt>
      <trkpt lat="45.94246" lon="4.88258">
        <ele>278</ele>
        <time>2017-06-28T08:47:36Z</time>
      </trkpt>
      <trkpt lat="45.94253" lon="4.88259">
        <ele>278</ele>
        <time>2017-06-28T08:47:37Z</time>
      </trkpt>
      <trkpt lat="45.9426" lon="4.8826">
        <ele>278</ele>
        <time>2017-06-28T08:47:38Z</time>
      </trkpt>
      <trkpt lat="45.94267" lon="4.88261">
        <ele>278</ele>
        <time>2017-06-28T08:47:39Z</time>
      </trkpt>
      <trkpt lat="45.94274" lon="4.88262">
        <ele>278</ele>
        <time>2017-06-28T08:47:40Z</time>
      </trkpt>
      <trkpt lat="45.94281" lon="4.88263">
        <ele>278</ele>
        <time>2017-06-28T08:47:41Z</time>
      </trkpt>
      <trkpt lat="45.94288" lon="4.88264">
        <ele>277</ele>
        <time>2017-06-28T08:47:42Z</time>
      </trkpt>
      <trkpt lat="45.94295" lon="4.88265">
        <ele>277</ele>
        <time>2017-06-28T08:47:43Z</time>
      </trkpt>
      <trkpt lat="45.94301" lon="4.88266">
        <ele>277</ele>
        <time>2017-06-28T08:47:44Z</time>
      </trkpt>
      <trkpt lat="45.94308" lon="4.88267">
        <ele>277</ele>
        <time>2017-06-28T08:47:45Z</time>
      </trkpt>
      <trkpt lat="45.94314" lon="4.88268">
        <ele>277</ele>
        <time>2017-06-28T08:47:46Z</time>
      </trkpt>
      <trkpt lat="45.9432" lon="4.88269">
        <ele>277</ele>
        <time>2017-06-28T08:47:47Z</time>
      </trkpt>
      <trkpt lat="45.94327" lon="4.8827">
        <ele>277</ele>
        <time>2017-06-28T08:47:48Z</time>
      </trkpt>
      <trkpt lat="45.94333" lon="4.88271">
        <ele>277</ele>
        <time>2017-06-28T08:47:49Z</time>
      </trkpt>
      <trkpt lat="45.9434" lon="4.88272">
        <ele>276</ele>
        <time>2017-06-28T08:47:50Z</time>
      </trkpt>
      <trkpt lat="45.94347" lon="4.88273">
        <ele>276</ele>
        <time>2017-06-28T08:47:51Z</time>
      </trkpt>
      <trkpt lat="45.94354" lon="4.88274">
        <ele>276</ele>
        <time>2017-06-28T08:47:52Z</time>
      </trkpt>
      <trkpt lat="45.94361" lon="4.88275">
        <ele>276</ele>
        <time>2017-06-28T08:47:53Z</time>
      </trkpt>
      <trkpt lat="45.94368" lon="4.88275">
        <ele>276</ele>
        <time>2017-06-28T08:47:54Z</time>
      </trkpt>
      <trkpt lat="45.94375" lon="4.88277">
        <ele>276</ele>
        <time>2017-06-28T08:47:55Z</time>
      </trkpt>
      <trkpt lat="45.94382" lon="4.88278">
        <ele>276</ele>
        <time>2017-06-28T08:47:56Z</time>
      </trkpt>
      <trkpt lat="45.94389" lon="4.88279">
        <ele>276</ele>
        <time>2017-06-28T08:47:57Z</time>
      </trkpt>
      <trkpt lat="45.94396" lon="4.8828">
        <ele>276</ele>
        <time>2017-06-28T08:47:58Z</time>
      </trkpt>
      <trkpt lat="45.94402" lon="4.88281">
        <ele>276</ele>
        <time>2017-06-28T08:47:59Z</time>
      </trkpt>
      <trkpt lat="45.94408" lon="4.88282">
        <ele>276</ele>
        <time>2017-06-28T08:48:00Z</time>
      </trkpt>
      <trkpt lat="45.94414" lon="4.88283">
        <ele>276</ele>
        <time>2017-06-28T08:48:01Z</time>
      </trkpt>
      <trkpt lat="45.94421" lon="4.88284">
        <ele>276</ele>
        <time>2017-06-28T08:48:02Z</time>
      </trkpt>
      <trkpt lat="45.94427" lon="4.88284">
        <ele>276</ele>
        <time>2017-06-28T08:48:03Z</time>
      </trkpt>
      <trkpt lat="45.94433" lon="4.88285">
        <ele>276</ele>
        <time>2017-06-28T08:48:04Z</time>
      </trkpt>
      <trkpt lat="45.94438" lon="4.88286">
        <ele>276</ele>
        <time>2017-06-28T08:48:05Z</time>
      </trkpt>
      <trkpt lat="45.94445" lon="4.88286">
        <ele>276</ele>
        <time>2017-06-28T08:48:06Z</time>
      </trkpt>
      <trkpt lat="45.94451" lon="4.88287">
        <ele>276</ele>
        <time>2017-06-28T08:48:07Z</time>
      </trkpt>
      <trkpt lat="45.94458" lon="4.88288">
        <ele>276</ele>
        <time>2017-06-28T08:48:08Z</time>
      </trkpt>
      <trkpt lat="45.94465" lon="4.88289">
        <ele>276</ele>
        <time>2017-06-28T08:48:09Z</time>
      </trkpt>
      <trkpt lat="45.94473" lon="4.8829">
        <ele>276</ele>
        <time>2017-06-28T08:48:10Z</time>
      </trkpt>
      <trkpt lat="45.9448" lon="4.88291">
        <ele>276</ele>
        <time>2017-06-28T08:48:11Z</time>
      </trkpt>
      <trkpt lat="45.94487" lon="4.88292">
        <ele>276</ele>
        <time>2017-06-28T08:48:12Z</time>
      </trkpt>
      <trkpt lat="45.94494" lon="4.88293">
        <ele>276</ele>
        <time>2017-06-28T08:48:13Z</time>
      </trkpt>
      <trkpt lat="45.94502" lon="4.88294">
        <ele>275</ele>
        <time>2017-06-28T08:48:14Z</time>
      </trkpt>
      <trkpt lat="45.94509" lon="4.88295">
        <ele>275</ele>
        <time>2017-06-28T08:48:15Z</time>
      </trkpt>
      <trkpt lat="45.94515" lon="4.88296">
        <ele>275</ele>
        <time>2017-06-28T08:48:16Z</time>
      </trkpt>
      <trkpt lat="45.94522" lon="4.88297">
        <ele>275</ele>
        <time>2017-06-28T08:48:17Z</time>
      </trkpt>
      <trkpt lat="45.94529" lon="4.88298">
        <ele>275</ele>
        <time>2017-06-28T08:48:18Z</time>
      </trkpt>
      <trkpt lat="45.94535" lon="4.88299">
        <ele>275</ele>
        <time>2017-06-28T08:48:19Z</time>
      </trkpt>
      <trkpt lat="45.94542" lon="4.883">
        <ele>275</ele>
        <time>2017-06-28T08:48:20Z</time>
      </trkpt>
      <trkpt lat="45.94548" lon="4.88301">
        <ele>275</ele>
        <time>2017-06-28T08:48:21Z</time>
      </trkpt>
      <trkpt lat="45.94554" lon="4.88302">
        <ele>275</ele>
        <time>2017-06-28T08:48:22Z</time>
      </trkpt>
      <trkpt lat="45.9456" lon="4.88303">
        <ele>275</ele>
        <time>2017-06-28T08:48:23Z</time>
      </trkpt>
      <trkpt lat="45.94566" lon="4.88303">
        <ele>275</ele>
        <time>2017-06-28T08:48:24Z</time>
      </trkpt>
      <trkpt lat="45.94572" lon="4.88304">
        <ele>275</ele>
        <time>2017-06-28T08:48:25Z</time>
      </trkpt>
      <trkpt lat="45.94577" lon="4.88305">
        <ele>275</ele>
        <time>2017-06-28T08:48:26Z</time>
      </trkpt>
      <trkpt lat="45.94583" lon="4.88306">
        <ele>275</ele>
        <time>2017-06-28T08:48:27Z</time>
      </trkpt>
      <trkpt lat="45.94589" lon="4.88307">
        <ele>275</ele>
        <time>2017-06-28T08:48:28Z</time>
      </trkpt>
      <trkpt lat="45.94595" lon="4.88308">
        <ele>275</ele>
        <time>2017-06-28T08:48:29Z</time>
      </trkpt>
      <trkpt lat="45.94601" lon="4.88309">
        <ele>275</ele>
        <time>2017-06-28T08:48:30Z</time>
      </trkpt>
      <trkpt lat="45.94608" lon="4.8831">
        <ele>275</ele>
        <time>2017-06-28T08:48:31Z</time>
      </trkpt>
      <trkpt lat="45.94614" lon="4.88311">
        <ele>275</ele>
        <time>2017-06-28T08:48:32Z</time>
      </trkpt>
      <trkpt lat="45.94621" lon="4.88312">
        <ele>275</ele>
        <time>2017-06-28T08:48:33Z</time>
      </trkpt>
      <trkpt lat="45.94628" lon="4.88313">
        <ele>276</ele>
        <time>2017-06-28T08:48:34Z</time>
      </trkpt>
      <trkpt lat="45.94635" lon="4.88314">
        <ele>276</ele>
        <time>2017-06-28T08:48:35Z</time>
      </trkpt>
      <trkpt lat="45.94642" lon="4.88314">
        <ele>276</ele>
        <time>2017-06-28T08:48:36Z</time>
      </trkpt>
      <trkpt lat="45.94649" lon="4.88315">
        <ele>276</ele>
        <time>2017-06-28T08:48:37Z</time>
      </trkpt>
      <trkpt lat="45.94656" lon="4.88316">
        <ele>276</ele>
        <time>2017-06-28T08:48:38Z</time>
      </trkpt>
      <trkpt lat="45.94662" lon="4.88317">
        <ele>276</ele>
        <time>2017-06-28T08:48:39Z</time>
      </trkpt>
      <trkpt lat="45.94668" lon="4.88318">
        <ele>276</ele>
        <time>2017-06-28T08:48:40Z</time>
      </trkpt>
      <trkpt lat="45.94674" lon="4.88319">
        <ele>276</ele>
        <time>2017-06-28T08:48:41Z</time>
      </trkpt>
      <trkpt lat="45.9468" lon="4.8832">
        <ele>276</ele>
        <time>2017-06-28T08:48:42Z</time>
      </trkpt>
      <trkpt lat="45.94686" lon="4.88321">
        <ele>276</ele>
        <time>2017-06-28T08:48:43Z</time>
      </trkpt>
      <trkpt lat="45.94691" lon="4.88322">
        <ele>276</ele>
        <time>2017-06-28T08:48:44Z</time>
      </trkpt>
      <trkpt lat="45.94696" lon="4.88322">
        <ele>276</ele>
        <time>2017-06-28T08:48:45Z</time>
      </trkpt>
      <trkpt lat="45.94702" lon="4.88323">
        <ele>276</ele>
        <time>2017-06-28T08:48:46Z</time>
      </trkpt>
      <trkpt lat="45.94707" lon="4.88323">
        <ele>276</ele>
        <time>2017-06-28T08:48:47Z</time>
      </trkpt>
      <trkpt lat="45.94711" lon="4.88324">
        <ele>276</ele>
        <time>2017-06-28T08:48:48Z</time>
      </trkpt>
      <trkpt lat="45.94716" lon="4.88325">
        <ele>276</ele>
        <time>2017-06-28T08:48:49Z</time>
      </trkpt>
      <trkpt lat="45.94721" lon="4.88326">
        <ele>276</ele>
        <time>2017-06-28T08:48:50Z</time>
      </trkpt>
      <trkpt lat="45.94726" lon="4.88327">
        <ele>277</ele>
        <time>2017-06-28T08:48:51Z</time>
      </trkpt>
      <trkpt lat="45.94731" lon="4.88328">
        <ele>277</ele>
        <time>2017-06-28T08:48:52Z</time>
      </trkpt>
      <trkpt lat="45.94736" lon="4.88329">
        <ele>277</ele>
        <time>2017-06-28T08:48:53Z</time>
      </trkpt>
      <trkpt lat="45.94741" lon="4.8833">
        <ele>277</ele>
        <time>2017-06-28T08:48:54Z</time>
      </trkpt>
      <trkpt lat="45.94746" lon="4.88331">
        <ele>277</ele>
        <time>2017-06-28T08:48:55Z</time>
      </trkpt>
      <trkpt lat="45.94751" lon="4.88331">
        <ele>277</ele>
        <time>2017-06-28T08:48:56Z</time>
      </trkpt>
      <trkpt lat="45.94756" lon="4.88331">
        <ele>277</ele>
        <time>2017-06-28T08:48:57Z</time>
      </trkpt>
      <trkpt lat="45.94761" lon="4.88332">
        <ele>277</ele>
        <time>2017-06-28T08:48:58Z</time>
      </trkpt>
      <trkpt lat="45.94767" lon="4.88333">
        <ele>277</ele>
        <time>2017-06-28T08:48:59Z</time>
      </trkpt>
      <trkpt lat="45.94773" lon="4.88334">
        <ele>278</ele>
        <time>2017-06-28T08:49:00Z</time>
      </trkpt>
      <trkpt lat="45.94779" lon="4.88335">
        <ele>278</ele>
        <time>2017-06-28T08:49:01Z</time>
      </trkpt>
      <trkpt lat="45.94785" lon="4.88337">
        <ele>278</ele>
        <time>2017-06-28T08:49:02Z</time>
      </trkpt>
      <trkpt lat="45.94792" lon="4.88337">
        <ele>278</ele>
        <time>2017-06-28T08:49:03Z</time>
      </trkpt>
      <trkpt lat="45.94798" lon="4.88338">
        <ele>278</ele>
        <time>2017-06-28T08:49:04Z</time>
      </trkpt>
      <trkpt lat="45.94804" lon="4.88338">
        <ele>278</ele>
        <time>2017-06-28T08:49:05Z</time>
      </trkpt>
      <trkpt lat="45.94811" lon="4.88338">
        <ele>278</ele>
        <time>2017-06-28T08:49:06Z</time>
      </trkpt>
      <trkpt lat="45.94817" lon="4.88338">
        <ele>278</ele>
        <time>2017-06-28T08:49:07Z</time>
      </trkpt>
      <trkpt lat="45.94823" lon="4.88337">
        <ele>279</ele>
        <time>2017-06-28T08:49:08Z</time>
      </trkpt>
      <trkpt lat="45.9483" lon="4.88336">
        <ele>279</ele>
        <time>2017-06-28T08:49:09Z</time>
      </trkpt>
      <trkpt lat="45.94836" lon="4.88336">
        <ele>279</ele>
        <time>2017-06-28T08:49:10Z</time>
      </trkpt>
      <trkpt lat="45.94842" lon="4.88334">
        <ele>279</ele>
        <time>2017-06-28T08:49:11Z</time>
      </trkpt>
      <trkpt lat="45.94848" lon="4.88333">
        <ele>280</ele>
        <time>2017-06-28T08:49:12Z</time>
      </trkpt>
      <trkpt lat="45.94854" lon="4.88332">
        <ele>280</ele>
        <time>2017-06-28T08:49:13Z</time>
      </trkpt>
      <trkpt lat="45.9486" lon="4.88331">
        <ele>280</ele>
        <time>2017-06-28T08:49:14Z</time>
      </trkpt>
      <trkpt lat="45.94866" lon="4.8833">
        <ele>280</ele>
        <time>2017-06-28T08:49:15Z</time>
      </trkpt>
      <trkpt lat="45.94873" lon="4.88329">
        <ele>280</ele>
        <time>2017-06-28T08:49:16Z</time>
      </trkpt>
      <trkpt lat="45.94879" lon="4.88328">
        <ele>280</ele>
        <time>2017-06-28T08:49:17Z</time>
      </trkpt>
      <trkpt lat="45.94884" lon="4.88327">
        <ele>281</ele>
        <time>2017-06-28T08:49:18Z</time>
      </trkpt>
      <trkpt lat="45.9489" lon="4.88325">
        <ele>281</ele>
        <time>2017-06-28T08:49:19Z</time>
      </trkpt>
      <trkpt lat="45.94895" lon="4.88324">
        <ele>281</ele>
        <time>2017-06-28T08:49:20Z</time>
      </trkpt>
      <trkpt lat="45.94901" lon="4.88322">
        <ele>281</ele>
        <time>2017-06-28T08:49:21Z</time>
      </trkpt>
      <trkpt lat="45.94906" lon="4.88319">
        <ele>281</ele>
        <time>2017-06-28T08:49:22Z</time>
      </trkpt>
      <trkpt lat="45.94911" lon="4.88316">
        <ele>281</ele>
        <time>2017-06-28T08:49:23Z</time>
      </trkpt>
      <trkpt lat="45.94916" lon="4.88313">
        <ele>281</ele>
        <time>2017-06-28T08:49:24Z</time>
      </trkpt>
      <trkpt lat="45.94921" lon="4.88311">
        <ele>283</ele>
        <time>2017-06-28T08:49:25Z</time>
      </trkpt>
      <trkpt lat="45.94925" lon="4.88309">
        <ele>283</ele>
        <time>2017-06-28T08:49:26Z</time>
      </trkpt>
      <trkpt lat="45.9493" lon="4.88306">
        <ele>283</ele>
        <time>2017-06-28T08:49:27Z</time>
      </trkpt>
      <trkpt lat="45.94935" lon="4.88305">
        <ele>283</ele>
        <time>2017-06-28T08:49:28Z</time>
      </trkpt>
      <trkpt lat="45.94939" lon="4.88303">
        <ele>283</ele>
        <time>2017-06-28T08:49:29Z</time>
      </trkpt>
      <trkpt lat="45.94943" lon="4.88302">
        <ele>283</ele>
        <time>2017-06-28T08:49:30Z</time>
      </trkpt>
      <trkpt lat="45.94948" lon="4.883">
        <ele>283</ele>
        <time>2017-06-28T08:49:31Z</time>
      </trkpt>
      <trkpt lat="45.94952" lon="4.88298">
        <ele>283</ele>
        <time>2017-06-28T08:49:32Z</time>
      </trkpt>
      <trkpt lat="45.94957" lon="4.88297">
        <ele>283</ele>
        <time>2017-06-28T08:49:33Z</time>
      </trkpt>
      <trkpt lat="45.94961" lon="4.88296">
        <ele>283</ele>
        <time>2017-06-28T08:49:34Z</time>
      </trkpt>
      <trkpt lat="45.94966" lon="4.88293">
        <ele>283</ele>
        <time>2017-06-28T08:49:35Z</time>
      </trkpt>
      <trkpt lat="45.94971" lon="4.88292">
        <ele>283</ele>
        <time>2017-06-28T08:49:36Z</time>
      </trkpt>
      <trkpt lat="45.94976" lon="4.8829">
        <ele>283</ele>
        <time>2017-06-28T08:49:37Z</time>
      </trkpt>
      <trkpt lat="45.9498" lon="4.88288">
        <ele>283</ele>
        <time>2017-06-28T08:49:38Z</time>
      </trkpt>
      <trkpt lat="45.94985" lon="4.88286">
        <ele>283</ele>
        <time>2017-06-28T08:49:39Z</time>
      </trkpt>
      <trkpt lat="45.9499" lon="4.88285">
        <ele>283</ele>
        <time>2017-06-28T08:49:40Z</time>
      </trkpt>
      <trkpt lat="45.94995" lon="4.88283">
        <ele>283</ele>
        <time>2017-06-28T08:49:41Z</time>
      </trkpt>
      <trkpt lat="45.94999" lon="4.88282">
        <ele>283</ele>
        <time>2017-06-28T08:49:42Z</time>
      </trkpt>
      <trkpt lat="45.95003" lon="4.8828">
        <ele>285</ele>
        <time>2017-06-28T08:49:43Z</time>
      </trkpt>
      <trkpt lat="45.95008" lon="4.88279">
        <ele>285</ele>
        <time>2017-06-28T08:49:44Z</time>
      </trkpt>
      <trkpt lat="45.95012" lon="4.88277">
        <ele>285</ele>
        <time>2017-06-28T08:49:45Z</time>
      </trkpt>
      <trkpt lat="45.95017" lon="4.88275">
        <ele>285</ele>
        <time>2017-06-28T08:49:46Z</time>
      </trkpt>
      <trkpt lat="45.95021" lon="4.88273">
        <ele>285</ele>
        <time>2017-06-28T08:49:47Z</time>
      </trkpt>
      <trkpt lat="45.95026" lon="4.88272">
        <ele>285</ele>
        <time>2017-06-28T08:49:48Z</time>
      </trkpt>
      <trkpt lat="45.95031" lon="4.8827">
        <ele>285</ele>
        <time>2017-06-28T08:49:49Z</time>
      </trkpt>
      <trkpt lat="45.95039" lon="4.88267">
        <ele>285</ele>
        <time>2017-06-28T08:49:51Z</time>
      </trkpt>
      <trkpt lat="45.95043" lon="4.88265">
        <ele>286</ele>
        <time>2017-06-28T08:49:52Z</time>
      </trkpt>
      <trkpt lat="45.9505" lon="4.88263">
        <ele>286</ele>
        <time>2017-06-28T08:49:54Z</time>
      </trkpt>
      <trkpt lat="45.95053" lon="4.88262">
        <ele>286</ele>
        <time>2017-06-28T08:49:55Z</time>
      </trkpt>
      <trkpt lat="45.9506" lon="4.88259">
        <ele>286</ele>
        <time>2017-06-28T08:49:57Z</time>
      </trkpt>
      <trkpt lat="45.95064" lon="4.88258">
        <ele>286</ele>
        <time>2017-06-28T08:49:58Z</time>
      </trkpt>
      <trkpt lat="45.95071" lon="4.88255">
        <ele>286</ele>
        <time>2017-06-28T08:50:00Z</time>
      </trkpt>
      <trkpt lat="45.95075" lon="4.88253">
        <ele>287</ele>
        <time>2017-06-28T08:50:01Z</time>
      </trkpt>
      <trkpt lat="45.95081" lon="4.88251">
        <ele>287</ele>
        <time>2017-06-28T08:50:03Z</time>
      </trkpt>
      <trkpt lat="45.95084" lon="4.88249">
        <ele>287</ele>
        <time>2017-06-28T08:50:04Z</time>
      </trkpt>
      <trkpt lat="45.95092" lon="4.88246">
        <ele>287</ele>
        <time>2017-06-28T08:50:08Z</time>
      </trkpt>
      <trkpt lat="45.95093" lon="4.88245">
        <ele>287</ele>
        <time>2017-06-28T08:50:09Z</time>
      </trkpt>
      <trkpt lat="45.95102" lon="4.88243">
        <ele>287</ele>
        <time>2017-06-28T08:50:14Z</time>
      </trkpt>
      <trkpt lat="45.95104" lon="4.88242">
        <ele>287</ele>
        <time>2017-06-28T08:50:15Z</time>
      </trkpt>
      <trkpt lat="45.95112" lon="4.88238">
        <ele>287</ele>
        <time>2017-06-28T08:50:18Z</time>
      </trkpt>
      <trkpt lat="45.95116" lon="4.88236">
        <ele>287</ele>
        <time>2017-06-28T08:50:19Z</time>
      </trkpt>
      <trkpt lat="45.95121" lon="4.88228">
        <ele>287</ele>
        <time>2017-06-28T08:50:21Z</time>
      </trkpt>
      <trkpt lat="45.95123" lon="4.88223">
        <ele>287</ele>
        <time>2017-06-28T08:50:22Z</time>
      </trkpt>
      <trkpt lat="45.95125" lon="4.88217">
        <ele>287</ele>
        <time>2017-06-28T08:50:23Z</time>
      </trkpt>
      <trkpt lat="45.95127" lon="4.88211">
        <ele>287</ele>
        <time>2017-06-28T08:50:24Z</time>
      </trkpt>
      <trkpt lat="45.9513" lon="4.88204">
        <ele>287</ele>
        <time>2017-06-28T08:50:25Z</time>
      </trkpt>
      <trkpt lat="45.95132" lon="4.88198">
        <ele>287</ele>
        <time>2017-06-28T08:50:26Z</time>
      </trkpt>
      <trkpt lat="45.95136" lon="4.88192">
        <ele>286</ele>
        <time>2017-06-28T08:50:27Z</time>
      </trkpt>
      <trkpt lat="45.95139" lon="4.88187">
        <ele>286</ele>
        <time>2017-06-28T08:50:28Z</time>
      </trkpt>
      <trkpt lat="45.95144" lon="4.88184">
        <ele>286</ele>
        <time>2017-06-28T08:50:29Z</time>
      </trkpt>
      <trkpt lat="45.9515" lon="4.88181">
        <ele>286</ele>
        <time>2017-06-28T08:50:30Z</time>
      </trkpt>
      <trkpt lat="45.95156" lon="4.88179">
        <ele>286</ele>
        <time>2017-06-28T08:50:31Z</time>
      </trkpt>
      <trkpt lat="45.95163" lon="4.88177">
        <ele>286</ele>
        <time>2017-06-28T08:50:32Z</time>
      </trkpt>
      <trkpt lat="45.95169" lon="4.88175">
        <ele>285</ele>
        <time>2017-06-28T08:50:33Z</time>
      </trkpt>
      <trkpt lat="45.95175" lon="4.88173">
        <ele>285</ele>
        <time>2017-06-28T08:50:34Z</time>
      </trkpt>
      <trkpt lat="45.95182" lon="4.88172">
        <ele>285</ele>
        <time>2017-06-28T08:50:35Z</time>
      </trkpt>
      <trkpt lat="45.95189" lon="4.88171">
        <ele>285</ele>
        <time>2017-06-28T08:50:36Z</time>
      </trkpt>
      <trkpt lat="45.95196" lon="4.88171">
        <ele>285</ele>
        <time>2017-06-28T08:50:37Z</time>
      </trkpt>
      <trkpt lat="45.95203" lon="4.88171">
        <ele>285</ele>
        <time>2017-06-28T08:50:38Z</time>
      </trkpt>
      <trkpt lat="45.95211" lon="4.8817">
        <ele>284</ele>
        <time>2017-06-28T08:50:39Z</time>
      </trkpt>
      <trkpt lat="45.95219" lon="4.8817">
        <ele>284</ele>
        <time>2017-06-28T08:50:40Z</time>
      </trkpt>
      <trkpt lat="45.95227" lon="4.8817">
        <ele>284</ele>
        <time>2017-06-28T08:50:41Z</time>
      </trkpt>
      <trkpt lat="45.95235" lon="4.8817">
        <ele>283</ele>
        <time>2017-06-28T08:50:42Z</time>
      </trkpt>
      <trkpt lat="45.95244" lon="4.88169">
        <ele>282</ele>
        <time>2017-06-28T08:50:43Z</time>
      </trkpt>
      <trkpt lat="45.95252" lon="4.8817">
        <ele>281</ele>
        <time>2017-06-28T08:50:44Z</time>
      </trkpt>
      <trkpt lat="45.95261" lon="4.8817">
        <ele>281</ele>
        <time>2017-06-28T08:50:45Z</time>
      </trkpt>
      <trkpt lat="45.95269" lon="4.88171">
        <ele>281</ele>
        <time>2017-06-28T08:50:46Z</time>
      </trkpt>
      <trkpt lat="45.95278" lon="4.88172">
        <ele>281</ele>
        <time>2017-06-28T08:50:47Z</time>
      </trkpt>
      <trkpt lat="45.95287" lon="4.88172">
        <ele>281</ele>
        <time>2017-06-28T08:50:48Z</time>
      </trkpt>
      <trkpt lat="45.95296" lon="4.88173">
        <ele>281</ele>
        <time>2017-06-28T08:50:49Z</time>
      </trkpt>
      <trkpt lat="45.95305" lon="4.88174">
        <ele>281</ele>
        <time>2017-06-28T08:50:50Z</time>
      </trkpt>
      <trkpt lat="45.95314" lon="4.88175">
        <ele>280</ele>
        <time>2017-06-28T08:50:51Z</time>
      </trkpt>
      <trkpt lat="45.95324" lon="4.88175">
        <ele>279</ele>
        <time>2017-06-28T08:50:52Z</time>
      </trkpt>
      <trkpt lat="45.95333" lon="4.88175">
        <ele>279</ele>
        <time>2017-06-28T08:50:53Z</time>
      </trkpt>
      <trkpt lat="45.95342" lon="4.88174">
        <ele>278</ele>
        <time>2017-06-28T08:50:54Z</time>
      </trkpt>
      <trkpt lat="45.95351" lon="4.88173">
        <ele>278</ele>
        <time>2017-06-28T08:50:55Z</time>
      </trkpt>
      <trkpt lat="45.9536" lon="4.88172">
        <ele>278</ele>
        <time>2017-06-28T08:50:56Z</time>
      </trkpt>
      <trkpt lat="45.95369" lon="4.8817">
        <ele>278</ele>
        <time>2017-06-28T08:50:57Z</time>
      </trkpt>
      <trkpt lat="45.95378" lon="4.88168">
        <ele>278</ele>
        <time>2017-06-28T08:50:58Z</time>
      </trkpt>
      <trkpt lat="45.95386" lon="4.88165">
        <ele>276</ele>
        <time>2017-06-28T08:50:59Z</time>
      </trkpt>
      <trkpt lat="45.95395" lon="4.88163">
        <ele>276</ele>
        <time>2017-06-28T08:51:00Z</time>
      </trkpt>
      <trkpt lat="45.95403" lon="4.88161">
        <ele>276</ele>
        <time>2017-06-28T08:51:01Z</time>
      </trkpt>
      <trkpt lat="45.9541" lon="4.88158">
        <ele>276</ele>
        <time>2017-06-28T08:51:02Z</time>
      </trkpt>
      <trkpt lat="45.95417" lon="4.88155">
        <ele>276</ele>
        <time>2017-06-28T08:51:03Z</time>
      </trkpt>
      <trkpt lat="45.95425" lon="4.88152">
        <ele>276</ele>
        <time>2017-06-28T08:51:04Z</time>
      </trkpt>
      <trkpt lat="45.95432" lon="4.88149">
        <ele>276</ele>
        <time>2017-06-28T08:51:05Z</time>
      </trkpt>
      <trkpt lat="45.95438" lon="4.88146">
        <ele>276</ele>
        <time>2017-06-28T08:51:06Z</time>
      </trkpt>
      <trkpt lat="45.95444" lon="4.88142">
        <ele>276</ele>
        <time>2017-06-28T08:51:07Z</time>
      </trkpt>
      <trkpt lat="45.9545" lon="4.88139">
        <ele>276</ele>
        <time>2017-06-28T08:51:08Z</time>
      </trkpt>
      <trkpt lat="45.95456" lon="4.88136">
        <ele>276</ele>
        <time>2017-06-28T08:51:09Z</time>
      </trkpt>
      <trkpt lat="45.95462" lon="4.88134">
        <ele>276</ele>
        <time>2017-06-28T08:51:10Z</time>
      </trkpt>
      <trkpt lat="45.95468" lon="4.88132">
        <ele>276</ele>
        <time>2017-06-28T08:51:11Z</time>
      </trkpt>
      <trkpt lat="45.95473" lon="4.88129">
        <ele>276</ele>
        <time>2017-06-28T08:51:12Z</time>
      </trkpt>
      <trkpt lat="45.95478" lon="4.88126">
        <ele>276</ele>
        <time>2017-06-28T08:51:13Z</time>
      </trkpt>
      <trkpt lat="45.95483" lon="4.88124">
        <ele>276</ele>
        <time>2017-06-28T08:51:14Z</time>
      </trkpt>
      <trkpt lat="45.95488" lon="4.88121">
        <ele>276</ele>
        <time>2017-06-28T08:51:15Z</time>
      </trkpt>
      <trkpt lat="45.95493" lon="4.88119">
        <ele>276</ele>
        <time>2017-06-28T08:51:16Z</time>
      </trkpt>
      <trkpt lat="45.95498" lon="4.88117">
        <ele>276</ele>
        <time>2017-06-28T08:51:17Z</time>
      </trkpt>
      <trkpt lat="45.95504" lon="4.88114">
        <ele>276</ele>
        <time>2017-06-28T08:51:18Z</time>
      </trkpt>
      <trkpt lat="45.95509" lon="4.88111">
        <ele>276</ele>
        <time>2017-06-28T08:51:19Z</time>
      </trkpt>
      <trkpt lat="45.95514" lon="4.88109">
        <ele>276</ele>
        <time>2017-06-28T08:51:20Z</time>
      </trkpt>
      <trkpt lat="45.95519" lon="4.88107">
        <ele>276</ele>
        <time>2017-06-28T08:51:21Z</time>
      </trkpt>
      <trkpt lat="45.95524" lon="4.88105">
        <ele>277</ele>
        <time>2017-06-28T08:51:22Z</time>
      </trkpt>
      <trkpt lat="45.9553" lon="4.88103">
        <ele>277</ele>
        <time>2017-06-28T08:51:23Z</time>
      </trkpt>
      <trkpt lat="45.95535" lon="4.881">
        <ele>277</ele>
        <time>2017-06-28T08:51:24Z</time>
      </trkpt>
      <trkpt lat="45.9554" lon="4.88098">
        <ele>277</ele>
        <time>2017-06-28T08:51:25Z</time>
      </trkpt>
      <trkpt lat="45.95545" lon="4.88095">
        <ele>277</ele>
        <time>2017-06-28T08:51:26Z</time>
      </trkpt>
      <trkpt lat="45.9555" lon="4.88093">
        <ele>277</ele>
        <time>2017-06-28T08:51:27Z</time>
      </trkpt>
      <trkpt lat="45.95555" lon="4.88091">
        <ele>277</ele>
        <time>2017-06-28T08:51:28Z</time>
      </trkpt>
      <trkpt lat="45.9556" lon="4.88088">
        <ele>277</ele>
        <time>2017-06-28T08:51:29Z</time>
      </trkpt>
      <trkpt lat="45.95565" lon="4.88084">
        <ele>277</ele>
        <time>2017-06-28T08:51:30Z</time>
      </trkpt>
      <trkpt lat="45.9557" lon="4.88081">
        <ele>277</ele>
        <time>2017-06-28T08:51:31Z</time>
      </trkpt>
      <trkpt lat="45.95576" lon="4.88078">
        <ele>277</ele>
        <time>2017-06-28T08:51:32Z</time>
      </trkpt>
      <trkpt lat="45.95581" lon="4.88074">
        <ele>277</ele>
        <time>2017-06-28T08:51:33Z</time>
      </trkpt>
      <trkpt lat="45.95586" lon="4.8807">
        <ele>278</ele>
        <time>2017-06-28T08:51:34Z</time>
      </trkpt>
      <trkpt lat="45.95591" lon="4.88066">
        <ele>278</ele>
        <time>2017-06-28T08:51:35Z</time>
      </trkpt>
      <trkpt lat="45.95596" lon="4.88061">
        <ele>278</ele>
        <time>2017-06-28T08:51:36Z</time>
      </trkpt>
      <trkpt lat="45.95601" lon="4.88057">
        <ele>278</ele>
        <time>2017-06-28T08:51:37Z</time>
      </trkpt>
      <trkpt lat="45.95606" lon="4.88052">
        <ele>278</ele>
        <time>2017-06-28T08:51:38Z</time>
      </trkpt>
      <trkpt lat="45.95611" lon="4.88048">
        <ele>278</ele>
        <time>2017-06-28T08:51:39Z</time>
      </trkpt>
      <trkpt lat="45.95616" lon="4.88043">
        <ele>278</ele>
        <time>2017-06-28T08:51:40Z</time>
      </trkpt>
      <trkpt lat="45.95621" lon="4.88038">
        <ele>278</ele>
        <time>2017-06-28T08:51:41Z</time>
      </trkpt>
      <trkpt lat="45.95626" lon="4.88034">
        <ele>279</ele>
        <time>2017-06-28T08:51:42Z</time>
      </trkpt>
      <trkpt lat="45.95631" lon="4.88029">
        <ele>279</ele>
        <time>2017-06-28T08:51:43Z</time>
      </trkpt>
      <trkpt lat="45.95636" lon="4.88025">
        <ele>279</ele>
        <time>2017-06-28T08:51:44Z</time>
      </trkpt>
      <trkpt lat="45.95641" lon="4.8802">
        <ele>279</ele>
        <time>2017-06-28T08:51:45Z</time>
      </trkpt>
      <trkpt lat="45.95646" lon="4.88015">
        <ele>279</ele>
        <time>2017-06-28T08:51:46Z</time>
      </trkpt>
      <trkpt lat="45.95651" lon="4.8801">
        <ele>280</ele>
        <time>2017-06-28T08:51:47Z</time>
      </trkpt>
      <trkpt lat="45.95656" lon="4.88006">
        <ele>280</ele>
        <time>2017-06-28T08:51:48Z</time>
      </trkpt>
      <trkpt lat="45.95661" lon="4.88001">
        <ele>280</ele>
        <time>2017-06-28T08:51:49Z</time>
      </trkpt>
      <trkpt lat="45.95666" lon="4.87997">
        <ele>281</ele>
        <time>2017-06-28T08:51:50Z</time>
      </trkpt>
      <trkpt lat="45.95671" lon="4.87992">
        <ele>281</ele>
        <time>2017-06-28T08:51:51Z</time>
      </trkpt>
      <trkpt lat="45.95676" lon="4.87988">
        <ele>282</ele>
        <time>2017-06-28T08:51:52Z</time>
      </trkpt>
      <trkpt lat="45.95681" lon="4.87983">
        <ele>282</ele>
        <time>2017-06-28T08:51:53Z</time>
      </trkpt>
      <trkpt lat="45.95686" lon="4.87978">
        <ele>282</ele>
        <time>2017-06-28T08:51:54Z</time>
      </trkpt>
      <trkpt lat="45.95691" lon="4.87973">
        <ele>282</ele>
        <time>2017-06-28T08:51:55Z</time>
      </trkpt>
      <trkpt lat="45.95696" lon="4.87968">
        <ele>282</ele>
        <time>2017-06-28T08:51:56Z</time>
      </trkpt>
      <trkpt lat="45.957" lon="4.87964">
        <ele>283</ele>
        <time>2017-06-28T08:51:57Z</time>
      </trkpt>
      <trkpt lat="45.95705" lon="4.8796">
        <ele>283</ele>
        <time>2017-06-28T08:51:58Z</time>
      </trkpt>
      <trkpt lat="45.9571" lon="4.87956">
        <ele>283</ele>
        <time>2017-06-28T08:51:59Z</time>
      </trkpt>
      <trkpt lat="45.95715" lon="4.87952">
        <ele>283</ele>
        <time>2017-06-28T08:52:00Z</time>
      </trkpt>
      <trkpt lat="45.95719" lon="4.87948">
        <ele>283</ele>
        <time>2017-06-28T08:52:01Z</time>
      </trkpt>
      <trkpt lat="45.95724" lon="4.87944">
        <ele>283</ele>
        <time>2017-06-28T08:52:02Z</time>
      </trkpt>
      <trkpt lat="45.95728" lon="4.87941">
        <ele>283</ele>
        <time>2017-06-28T08:52:03Z</time>
      </trkpt>
      <trkpt lat="45.95732" lon="4.87937">
        <ele>284</ele>
        <time>2017-06-28T08:52:04Z</time>
      </trkpt>
      <trkpt lat="45.95738" lon="4.87933">
        <ele>284</ele>
        <time>2017-06-28T08:52:05Z</time>
      </trkpt>
      <trkpt lat="45.95742" lon="4.87929">
        <ele>284</ele>
        <time>2017-06-28T08:52:06Z</time>
      </trkpt>
      <trkpt lat="45.95747" lon="4.87925">
        <ele>284</ele>
        <time>2017-06-28T08:52:07Z</time>
      </trkpt>
      <trkpt lat="45.95753" lon="4.87921">
        <ele>285</ele>
        <time>2017-06-28T08:52:08Z</time>
      </trkpt>
      <trkpt lat="45.95759" lon="4.87917">
        <ele>286</ele>
        <time>2017-06-28T08:52:09Z</time>
      </trkpt>
      <trkpt lat="45.95763" lon="4.87914">
        <ele>286</ele>
        <time>2017-06-28T08:52:10Z</time>
      </trkpt>
      <trkpt lat="45.95767" lon="4.87911">
        <ele>286</ele>
        <time>2017-06-28T08:52:11Z</time>
      </trkpt>
      <trkpt lat="45.95772" lon="4.87908">
        <ele>286</ele>
        <time>2017-06-28T08:52:12Z</time>
      </trkpt>
      <trkpt lat="45.95776" lon="4.87905">
        <ele>286</ele>
        <time>2017-06-28T08:52:13Z</time>
      </trkpt>
      <trkpt lat="45.9578" lon="4.87903">
        <ele>286</ele>
        <time>2017-06-28T08:52:14Z</time>
      </trkpt>
      <trkpt lat="45.95788" lon="4.87898">
        <ele>286</ele>
        <time>2017-06-28T08:52:16Z</time>
      </trkpt>
      <trkpt lat="45.95791" lon="4.87896">
        <ele>286</ele>
        <time>2017-06-28T08:52:17Z</time>
      </trkpt>
      <trkpt lat="45.95798" lon="4.87892">
        <ele>287</ele>
        <time>2017-06-28T08:52:19Z</time>
      </trkpt>
      <trkpt lat="45.95801" lon="4.8789">
        <ele>287</ele>
        <time>2017-06-28T08:52:20Z</time>
      </trkpt>
      <trkpt lat="45.95808" lon="4.87887">
        <ele>287</ele>
        <time>2017-06-28T08:52:22Z</time>
      </trkpt>
      <trkpt lat="45.95812" lon="4.87886">
        <ele>287</ele>
        <time>2017-06-28T08:52:23Z</time>
      </trkpt>
      <trkpt lat="45.95818" lon="4.87884">
        <ele>287</ele>
        <time>2017-06-28T08:52:25Z</time>
      </trkpt>
      <trkpt lat="45.95821" lon="4.87883">
        <ele>287</ele>
        <time>2017-06-28T08:52:26Z</time>
      </trkpt>
      <trkpt lat="45.95829" lon="4.87879">
        <ele>287</ele>
        <time>2017-06-28T08:52:29Z</time>
      </trkpt>
      <trkpt lat="45.95831" lon="4.87877">
        <ele>287</ele>
        <time>2017-06-28T08:52:30Z</time>
      </trkpt>
      <trkpt lat="45.95837" lon="4.87873">
        <ele>289</ele>
        <time>2017-06-28T08:52:32Z</time>
      </trkpt>
      <trkpt lat="45.95839" lon="4.8787">
        <ele>289</ele>
        <time>2017-06-28T08:52:33Z</time>
      </trkpt>
      <trkpt lat="45.95844" lon="4.87865">
        <ele>289</ele>
        <time>2017-06-28T08:52:35Z</time>
      </trkpt>
      <trkpt lat="45.95847" lon="4.87863">
        <ele>289</ele>
        <time>2017-06-28T08:52:36Z</time>
      </trkpt>
      <trkpt lat="45.95852" lon="4.87857">
        <ele>289</ele>
        <time>2017-06-28T08:52:38Z</time>
      </trkpt>
      <trkpt lat="45.95855" lon="4.87855">
        <ele>289</ele>
        <time>2017-06-28T08:52:39Z</time>
      </trkpt>
      <trkpt lat="45.95861" lon="4.87849">
        <ele>289</ele>
        <time>2017-06-28T08:52:41Z</time>
      </trkpt>
      <trkpt lat="45.95865" lon="4.87846">
        <ele>289</ele>
        <time>2017-06-28T08:52:42Z</time>
      </trkpt>
      <trkpt lat="45.95868" lon="4.87842">
        <ele>289</ele>
        <time>2017-06-28T08:52:43Z</time>
      </trkpt>
      <trkpt lat="45.95872" lon="4.87838">
        <ele>289</ele>
        <time>2017-06-28T08:52:44Z</time>
      </trkpt>
      <trkpt lat="45.95876" lon="4.87834">
        <ele>289</ele>
        <time>2017-06-28T08:52:45Z</time>
      </trkpt>
      <trkpt lat="45.9588" lon="4.8783">
        <ele>288</ele>
        <time>2017-06-28T08:52:46Z</time>
      </trkpt>
      <trkpt lat="45.95883" lon="4.87826">
        <ele>288</ele>
        <time>2017-06-28T08:52:47Z</time>
      </trkpt>
      <trkpt lat="45.95887" lon="4.87822">
        <ele>288</ele>
        <time>2017-06-28T08:52:48Z</time>
      </trkpt>
      <trkpt lat="45.95891" lon="4.87817">
        <ele>288</ele>
        <time>2017-06-28T08:52:49Z</time>
      </trkpt>
      <trkpt lat="45.95894" lon="4.87813">
        <ele>288</ele>
        <time>2017-06-28T08:52:50Z</time>
      </trkpt>
      <trkpt lat="45.959" lon="4.87804">
        <ele>288</ele>
        <time>2017-06-28T08:52:52Z</time>
      </trkpt>
      <trkpt lat="45.95903" lon="4.87799">
        <ele>288</ele>
        <time>2017-06-28T08:52:53Z</time>
      </trkpt>
      <trkpt lat="45.95907" lon="4.87789">
        <ele>288</ele>
        <time>2017-06-28T08:52:55Z</time>
      </trkpt>
      <trkpt lat="45.9591" lon="4.87784">
        <ele>288</ele>
        <time>2017-06-28T08:52:56Z</time>
      </trkpt>
      <trkpt lat="45.95916" lon="4.87775">
        <ele>288</ele>
        <time>2017-06-28T08:52:58Z</time>
      </trkpt>
      <trkpt lat="45.9592" lon="4.87771">
        <ele>289</ele>
        <time>2017-06-28T08:52:59Z</time>
      </trkpt>
      <trkpt lat="45.95923" lon="4.87766">
        <ele>288</ele>
        <time>2017-06-28T08:53:00Z</time>
      </trkpt>
      <trkpt lat="45.95926" lon="4.87761">
        <ele>288</ele>
        <time>2017-06-28T08:53:01Z</time>
      </trkpt>
      <trkpt lat="45.95932" lon="4.87751">
        <ele>288</ele>
        <time>2017-06-28T08:53:03Z</time>
      </trkpt>
      <trkpt lat="45.95934" lon="4.87746">
        <ele>288</ele>
        <time>2017-06-28T08:53:04Z</time>
      </trkpt>
      <trkpt lat="45.9594" lon="4.87738">
        <ele>288</ele>
        <time>2017-06-28T08:53:06Z</time>
      </trkpt>
      <trkpt lat="45.95943" lon="4.87735">
        <ele>289</ele>
        <time>2017-06-28T08:53:07Z</time>
      </trkpt>
      <trkpt lat="45.95949" lon="4.87726">
        <ele>289</ele>
        <time>2017-06-28T08:53:09Z</time>
      </trkpt>
      <trkpt lat="45.95952" lon="4.87722">
        <ele>289</ele>
        <time>2017-06-28T08:53:10Z</time>
      </trkpt>
      <trkpt lat="45.95957" lon="4.87714">
        <ele>289</ele>
        <time>2017-06-28T08:53:12Z</time>
      </trkpt>
      <trkpt lat="45.9596" lon="4.8771">
        <ele>289</ele>
        <time>2017-06-28T08:53:13Z</time>
      </trkpt>
      <trkpt lat="45.95966" lon="4.87703">
        <ele>289</ele>
        <time>2017-06-28T08:53:15Z</time>
      </trkpt>
      <trkpt lat="45.95969" lon="4.87699">
        <ele>289</ele>
        <time>2017-06-28T08:53:16Z</time>
      </trkpt>
      <trkpt lat="45.95975" lon="4.87692">
        <ele>289</ele>
        <time>2017-06-28T08:53:18Z</time>
      </trkpt>
      <trkpt lat="45.95978" lon="4.87689">
        <ele>289</ele>
        <time>2017-06-28T08:53:19Z</time>
      </trkpt>
      <trkpt lat="45.95984" lon="4.87682">
        <ele>289</ele>
        <time>2017-06-28T08:53:21Z</time>
      </trkpt>
      <trkpt lat="45.95987" lon="4.87679">
        <ele>289</ele>
        <time>2017-06-28T08:53:22Z</time>
      </trkpt>
      <trkpt lat="45.95993" lon="4.87672">
        <ele>290</ele>
        <time>2017-06-28T08:53:24Z</time>
      </trkpt>
      <trkpt lat="45.95996" lon="4.87668">
        <ele>290</ele>
        <time>2017-06-28T08:53:25Z</time>
      </trkpt>
      <trkpt lat="45.96003" lon="4.87661">
        <ele>290</ele>
        <time>2017-06-28T08:53:27Z</time>
      </trkpt>
      <trkpt lat="45.96006" lon="4.87657">
        <ele>290</ele>
        <time>2017-06-28T08:53:28Z</time>
      </trkpt>
      <trkpt lat="45.9601" lon="4.87653">
        <ele>289</ele>
        <time>2017-06-28T08:53:29Z</time>
      </trkpt>
      <trkpt lat="45.96014" lon="4.87649">
        <ele>289</ele>
        <time>2017-06-28T08:53:30Z</time>
      </trkpt>
      <trkpt lat="45.96018" lon="4.87644">
        <ele>289</ele>
        <time>2017-06-28T08:53:31Z</time>
      </trkpt>
      <trkpt lat="45.96022" lon="4.87639">
        <ele>289</ele>
        <time>2017-06-28T08:53:32Z</time>
      </trkpt>
      <trkpt lat="45.96026" lon="4.87635">
        <ele>289</ele>
        <time>2017-06-28T08:53:33Z</time>
      </trkpt>
      <trkpt lat="45.9603" lon="4.87631">
        <ele>289</ele>
        <time>2017-06-28T08:53:34Z</time>
      </trkpt>
      <trkpt lat="45.96034" lon="4.87626">
        <ele>289</ele>
        <time>2017-06-28T08:53:35Z</time>
      </trkpt>
      <trkpt lat="45.96039" lon="4.87622">
        <ele>289</ele>
        <time>2017-06-28T08:53:36Z</time>
      </trkpt>
      <trkpt lat="45.96043" lon="4.87617">
        <ele>289</ele>
        <time>2017-06-28T08:53:37Z</time>
      </trkpt>
      <trkpt lat="45.96047" lon="4.87612">
        <ele>289</ele>
        <time>2017-06-28T08:53:38Z</time>
      </trkpt>
      <trkpt lat="45.96052" lon="4.87608">
        <ele>289</ele>
        <time>2017-06-28T08:53:39Z</time>
      </trkpt>
      <trkpt lat="45.96056" lon="4.87604">
        <ele>289</ele>
        <time>2017-06-28T08:53:40Z</time>
      </trkpt>
      <trkpt lat="45.96061" lon="4.87599">
        <ele>288</ele>
        <time>2017-06-28T08:53:41Z</time>
      </trkpt>
      <trkpt lat="45.96065" lon="4.87593">
        <ele>288</ele>
        <time>2017-06-28T08:53:42Z</time>
      </trkpt>
      <trkpt lat="45.9607" lon="4.87588">
        <ele>288</ele>
        <time>2017-06-28T08:53:43Z</time>
      </trkpt>
      <trkpt lat="45.96074" lon="4.87583">
        <ele>288</ele>
        <time>2017-06-28T08:53:44Z</time>
      </trkpt>
      <trkpt lat="45.96078" lon="4.87578">
        <ele>288</ele>
        <time>2017-06-28T08:53:45Z</time>
      </trkpt>
      <trkpt lat="45.96083" lon="4.87574">
        <ele>288</ele>
        <time>2017-06-28T08:53:46Z</time>
      </trkpt>
      <trkpt lat="45.96087" lon="4.87569">
        <ele>287</ele>
        <time>2017-06-28T08:53:47Z</time>
      </trkpt>
      <trkpt lat="45.96092" lon="4.87564">
        <ele>287</ele>
        <time>2017-06-28T08:53:48Z</time>
      </trkpt>
      <trkpt lat="45.96096" lon="4.87558">
        <ele>287</ele>
        <time>2017-06-28T08:53:49Z</time>
      </trkpt>
      <trkpt lat="45.961" lon="4.87553">
        <ele>287</ele>
        <time>2017-06-28T08:53:50Z</time>
      </trkpt>
      <trkpt lat="45.96104" lon="4.87547">
        <ele>287</ele>
        <time>2017-06-28T08:53:51Z</time>
      </trkpt>
      <trkpt lat="45.96109" lon="4.87542">
        <ele>287</ele>
        <time>2017-06-28T08:53:52Z</time>
      </trkpt>
      <trkpt lat="45.96114" lon="4.87537">
        <ele>287</ele>
        <time>2017-06-28T08:53:53Z</time>
      </trkpt>
      <trkpt lat="45.96118" lon="4.87531">
        <ele>287</ele>
        <time>2017-06-28T08:53:54Z</time>
      </trkpt>
      <trkpt lat="45.96123" lon="4.87526">
        <ele>286</ele>
        <time>2017-06-28T08:53:55Z</time>
      </trkpt>
      <trkpt lat="45.96128" lon="4.87521">
        <ele>286</ele>
        <time>2017-06-28T08:53:56Z</time>
      </trkpt>
      <trkpt lat="45.96133" lon="4.87515">
        <ele>286</ele>
        <time>2017-06-28T08:53:57Z</time>
      </trkpt>
      <trkpt lat="45.96138" lon="4.8751">
        <ele>286</ele>
        <time>2017-06-28T08:53:58Z</time>
      </trkpt>
      <trkpt lat="45.96143" lon="4.87504">
        <ele>286</ele>
        <time>2017-06-28T08:53:59Z</time>
      </trkpt>
      <trkpt lat="45.96148" lon="4.87498">
        <ele>285</ele>
        <time>2017-06-28T08:54:00Z</time>
      </trkpt>
      <trkpt lat="45.96153" lon="4.87492">
        <ele>285</ele>
        <time>2017-06-28T08:54:01Z</time>
      </trkpt>
      <trkpt lat="45.96158" lon="4.87486">
        <ele>285</ele>
        <time>2017-06-28T08:54:02Z</time>
      </trkpt>
      <trkpt lat="45.96163" lon="4.87479">
        <ele>285</ele>
        <time>2017-06-28T08:54:03Z</time>
      </trkpt>
      <trkpt lat="45.96169" lon="4.87473">
        <ele>284</ele>
        <time>2017-06-28T08:54:04Z</time>
      </trkpt>
      <trkpt lat="45.96174" lon="4.87467">
        <ele>284</ele>
        <time>2017-06-28T08:54:05Z</time>
      </trkpt>
      <trkpt lat="45.96179" lon="4.87461">
        <ele>284</ele>
        <time>2017-06-28T08:54:06Z</time>
      </trkpt>
      <trkpt lat="45.96185" lon="4.87455">
        <ele>284</ele>
        <time>2017-06-28T08:54:07Z</time>
      </trkpt>
      <trkpt lat="45.9619" lon="4.87448">
        <ele>284</ele>
        <time>2017-06-28T08:54:08Z</time>
      </trkpt>
      <trkpt lat="45.96196" lon="4.87442">
        <ele>284</ele>
        <time>2017-06-28T08:54:09Z</time>
      </trkpt>
      <trkpt lat="45.96202" lon="4.87436">
        <ele>284</ele>
        <time>2017-06-28T08:54:10Z</time>
      </trkpt>
      <trkpt lat="45.96207" lon="4.8743">
        <ele>284</ele>
        <time>2017-06-28T08:54:11Z</time>
      </trkpt>
      <trkpt lat="45.96212" lon="4.87424">
        <ele>284</ele>
        <time>2017-06-28T08:54:12Z</time>
      </trkpt>
      <trkpt lat="45.96217" lon="4.87418">
        <ele>284</ele>
        <time>2017-06-28T08:54:13Z</time>
      </trkpt>
      <trkpt lat="45.96223" lon="4.87412">
        <ele>283</ele>
        <time>2017-06-28T08:54:14Z</time>
      </trkpt>
      <trkpt lat="45.96227" lon="4.87406">
        <ele>283</ele>
        <time>2017-06-28T08:54:15Z</time>
      </trkpt>
      <trkpt lat="45.96232" lon="4.874">
        <ele>283</ele>
        <time>2017-06-28T08:54:16Z</time>
      </trkpt>
      <trkpt lat="45.96237" lon="4.87394">
        <ele>283</ele>
        <time>2017-06-28T08:54:17Z</time>
      </trkpt>
      <trkpt lat="45.96242" lon="4.87389">
        <ele>283</ele>
        <time>2017-06-28T08:54:18Z</time>
      </trkpt>
      <trkpt lat="45.96246" lon="4.87383">
        <ele>283</ele>
        <time>2017-06-28T08:54:19Z</time>
      </trkpt>
      <trkpt lat="45.96251" lon="4.87378">
        <ele>283</ele>
        <time>2017-06-28T08:54:20Z</time>
      </trkpt>
      <trkpt lat="45.96255" lon="4.87372">
        <ele>283</ele>
        <time>2017-06-28T08:54:21Z</time>
      </trkpt>
      <trkpt lat="45.9626" lon="4.87367">
        <ele>283</ele>
        <time>2017-06-28T08:54:22Z</time>
      </trkpt>
      <trkpt lat="45.96265" lon="4.87362">
        <ele>283</ele>
        <time>2017-06-28T08:54:23Z</time>
      </trkpt>
      <trkpt lat="45.96269" lon="4.87356">
        <ele>283</ele>
        <time>2017-06-28T08:54:24Z</time>
      </trkpt>
      <trkpt lat="45.96273" lon="4.8735">
        <ele>283</ele>
        <time>2017-06-28T08:54:25Z</time>
      </trkpt>
      <trkpt lat="45.96278" lon="4.87343">
        <ele>284</ele>
        <time>2017-06-28T08:54:26Z</time>
      </trkpt>
      <trkpt lat="45.96283" lon="4.87337">
        <ele>284</ele>
        <time>2017-06-28T08:54:27Z</time>
      </trkpt>
      <trkpt lat="45.96287" lon="4.87331">
        <ele>283</ele>
        <time>2017-06-28T08:54:28Z</time>
      </trkpt>
      <trkpt lat="45.96292" lon="4.87325">
        <ele>283</ele>
        <time>2017-06-28T08:54:29Z</time>
      </trkpt>
      <trkpt lat="45.96296" lon="4.87319">
        <ele>283</ele>
        <time>2017-06-28T08:54:30Z</time>
      </trkpt>
      <trkpt lat="45.96301" lon="4.87313">
        <ele>283</ele>
        <time>2017-06-28T08:54:31Z</time>
      </trkpt>
      <trkpt lat="45.96306" lon="4.87306">
        <ele>283</ele>
        <time>2017-06-28T08:54:32Z</time>
      </trkpt>
      <trkpt lat="45.9631" lon="4.873">
        <ele>283</ele>
        <time>2017-06-28T08:54:33Z</time>
      </trkpt>
      <trkpt lat="45.96315" lon="4.87295">
        <ele>283</ele>
        <time>2017-06-28T08:54:34Z</time>
      </trkpt>
      <trkpt lat="45.96319" lon="4.87289">
        <ele>283</ele>
        <time>2017-06-28T08:54:35Z</time>
      </trkpt>
      <trkpt lat="45.96324" lon="4.87283">
        <ele>283</ele>
        <time>2017-06-28T08:54:36Z</time>
      </trkpt>
      <trkpt lat="45.96329" lon="4.87278">
        <ele>283</ele>
        <time>2017-06-28T08:54:37Z</time>
      </trkpt>
      <trkpt lat="45.96333" lon="4.87272">
        <ele>283</ele>
        <time>2017-06-28T08:54:38Z</time>
      </trkpt>
      <trkpt lat="45.96337" lon="4.87266">
        <ele>283</ele>
        <time>2017-06-28T08:54:39Z</time>
      </trkpt>
      <trkpt lat="45.96342" lon="4.87259">
        <ele>283</ele>
        <time>2017-06-28T08:54:40Z</time>
      </trkpt>
      <trkpt lat="45.96346" lon="4.87253">
        <ele>283</ele>
        <time>2017-06-28T08:54:41Z</time>
      </trkpt>
      <trkpt lat="45.9635" lon="4.87248">
        <ele>283</ele>
        <time>2017-06-28T08:54:42Z</time>
      </trkpt>
      <trkpt lat="45.96354" lon="4.87242">
        <ele>282</ele>
        <time>2017-06-28T08:54:43Z</time>
      </trkpt>
      <trkpt lat="45.96359" lon="4.87237">
        <ele>282</ele>
        <time>2017-06-28T08:54:44Z</time>
      </trkpt>
      <trkpt lat="45.96364" lon="4.87231">
        <ele>282</ele>
        <time>2017-06-28T08:54:45Z</time>
      </trkpt>
      <trkpt lat="45.96368" lon="4.87225">
        <ele>282</ele>
        <time>2017-06-28T08:54:46Z</time>
      </trkpt>
      <trkpt lat="45.96372" lon="4.87219">
        <ele>282</ele>
        <time>2017-06-28T08:54:47Z</time>
      </trkpt>
      <trkpt lat="45.96377" lon="4.87213">
        <ele>282</ele>
        <time>2017-06-28T08:54:48Z</time>
      </trkpt>
      <trkpt lat="45.96382" lon="4.87207">
        <ele>282</ele>
        <time>2017-06-28T08:54:49Z</time>
      </trkpt>
      <trkpt lat="45.96386" lon="4.87201">
        <ele>282</ele>
        <time>2017-06-28T08:54:50Z</time>
      </trkpt>
      <trkpt lat="45.96391" lon="4.87195">
        <ele>282</ele>
        <time>2017-06-28T08:54:51Z</time>
      </trkpt>
      <trkpt lat="45.96396" lon="4.87189">
        <ele>282</ele>
        <time>2017-06-28T08:54:52Z</time>
      </trkpt>
      <trkpt lat="45.964" lon="4.87182">
        <ele>282</ele>
        <time>2017-06-28T08:54:53Z</time>
      </trkpt>
      <trkpt lat="45.96405" lon="4.87176">
        <ele>281</ele>
        <time>2017-06-28T08:54:54Z</time>
      </trkpt>
      <trkpt lat="45.9641" lon="4.8717">
        <ele>281</ele>
        <time>2017-06-28T08:54:55Z</time>
      </trkpt>
      <trkpt lat="45.96414" lon="4.87163">
        <ele>281</ele>
        <time>2017-06-28T08:54:56Z</time>
      </trkpt>
      <trkpt lat="45.96419" lon="4.87157">
        <ele>281</ele>
        <time>2017-06-28T08:54:57Z</time>
      </trkpt>
      <trkpt lat="45.96423" lon="4.87151">
        <ele>281</ele>
        <time>2017-06-28T08:54:58Z</time>
      </trkpt>
      <trkpt lat="45.96428" lon="4.87145">
        <ele>281</ele>
        <time>2017-06-28T08:54:59Z</time>
      </trkpt>
      <trkpt lat="45.96432" lon="4.87139">
        <ele>281</ele>
        <time>2017-06-28T08:55:00Z</time>
      </trkpt>
      <trkpt lat="45.96437" lon="4.87133">
        <ele>281</ele>
        <time>2017-06-28T08:55:01Z</time>
      </trkpt>
      <trkpt lat="45.96442" lon="4.87127">
        <ele>281</ele>
        <time>2017-06-28T08:55:02Z</time>
      </trkpt>
      <trkpt lat="45.96446" lon="4.8712">
        <ele>281</ele>
        <time>2017-06-28T08:55:03Z</time>
      </trkpt>
      <trkpt lat="45.96451" lon="4.87114">
        <ele>281</ele>
        <time>2017-06-28T08:55:04Z</time>
      </trkpt>
      <trkpt lat="45.96456" lon="4.87109">
        <ele>281</ele>
        <time>2017-06-28T08:55:05Z</time>
      </trkpt>
      <trkpt lat="45.9646" lon="4.87103">
        <ele>282</ele>
        <time>2017-06-28T08:55:06Z</time>
      </trkpt>
      <trkpt lat="45.96465" lon="4.87098">
        <ele>282</ele>
        <time>2017-06-28T08:55:07Z</time>
      </trkpt>
      <trkpt lat="45.96469" lon="4.87092">
        <ele>282</ele>
        <time>2017-06-28T08:55:08Z</time>
      </trkpt>
      <trkpt lat="45.96473" lon="4.87087">
        <ele>282</ele>
        <time>2017-06-28T08:55:09Z</time>
      </trkpt>
      <trkpt lat="45.96477" lon="4.87082">
        <ele>282</ele>
        <time>2017-06-28T08:55:10Z</time>
      </trkpt>
      <trkpt lat="45.96481" lon="4.87077">
        <ele>282</ele>
        <time>2017-06-28T08:55:11Z</time>
      </trkpt>
      <trkpt lat="45.96484" lon="4.87071">
        <ele>282</ele>
        <time>2017-06-28T08:55:12Z</time>
      </trkpt>
      <trkpt lat="45.96487" lon="4.87066">
        <ele>282</ele>
        <time>2017-06-28T08:55:13Z</time>
      </trkpt>
      <trkpt lat="45.9649" lon="4.8706">
        <ele>281</ele>
        <time>2017-06-28T08:55:14Z</time>
      </trkpt>
      <trkpt lat="45.96493" lon="4.87055">
        <ele>281</ele>
        <time>2017-06-28T08:55:15Z</time>
      </trkpt>
      <trkpt lat="45.96497" lon="4.87051">
        <ele>281</ele>
        <time>2017-06-28T08:55:16Z</time>
      </trkpt>
      <trkpt lat="45.96504" lon="4.87046">
        <ele>282</ele>
        <time>2017-06-28T08:55:18Z</time>
      </trkpt>
      <trkpt lat="45.96507" lon="4.87047">
        <ele>283</ele>
        <time>2017-06-28T08:55:19Z</time>
      </trkpt>
      <trkpt lat="45.96513" lon="4.87055">
        <ele>283</ele>
        <time>2017-06-28T08:55:22Z</time>
      </trkpt>
      <trkpt lat="45.96515" lon="4.87058">
        <ele>283</ele>
        <time>2017-06-28T08:55:23Z</time>
      </trkpt>
      <trkpt lat="45.96519" lon="4.87064">
        <ele>283</ele>
        <time>2017-06-28T08:55:25Z</time>
      </trkpt>
      <trkpt lat="45.96522" lon="4.87066">
        <ele>283</ele>
        <time>2017-06-28T08:55:26Z</time>
      </trkpt>
      <trkpt lat="45.96531" lon="4.87064">
        <ele>283</ele>
        <time>2017-06-28T08:55:29Z</time>
      </trkpt>
      <trkpt lat="45.96532" lon="4.87062">
        <ele>283</ele>
        <time>2017-06-28T08:55:30Z</time>
      </trkpt>
      <trkpt lat="45.96539" lon="4.8707">
        <ele>283</ele>
        <time>2017-06-28T08:55:37Z</time>
      </trkpt>
      <trkpt lat="45.96541" lon="4.87072">
        <ele>283</ele>
        <time>2017-06-28T08:55:38Z</time>
      </trkpt>
      <trkpt lat="45.96548" lon="4.87073">
        <ele>283</ele>
        <time>2017-06-28T08:55:42Z</time>
      </trkpt>
      <trkpt lat="45.9655" lon="4.87077">
        <ele>283</ele>
        <time>2017-06-28T08:55:43Z</time>
      </trkpt>
      <trkpt lat="45.96559" lon="4.87073">
        <ele>283</ele>
        <time>2017-06-28T08:55:46Z</time>
      </trkpt>
      <trkpt lat="45.9656" lon="4.87069">
        <ele>283</ele>
        <time>2017-06-28T08:55:47Z</time>
      </trkpt>
      <trkpt lat="45.96559" lon="4.87059">
        <ele>283</ele>
        <time>2017-06-28T08:55:49Z</time>
      </trkpt>
      <trkpt lat="45.96559" lon="4.87054">
        <ele>283</ele>
        <time>2017-06-28T08:55:50Z</time>
      </trkpt>
      <trkpt lat="45.96558" lon="4.87046">
        <ele>283</ele>
        <time>2017-06-28T08:55:52Z</time>
      </trkpt>
      <trkpt lat="45.96558" lon="4.87041">
        <ele>283</ele>
        <time>2017-06-28T08:55:53Z</time>
      </trkpt>
      <trkpt lat="45.96558" lon="4.87032">
        <ele>283</ele>
        <time>2017-06-28T08:55:55Z</time>
      </trkpt>
      <trkpt lat="45.96557" lon="4.87028">
        <ele>283</ele>
        <time>2017-06-28T08:55:56Z</time>
      </trkpt>
      <trkpt lat="45.96549" lon="4.87025">
        <ele>283</ele>
        <time>2017-06-28T08:56:00Z</time>
      </trkpt>
      <trkpt lat="45.96547" lon="4.87026">
        <ele>283</ele>
        <time>2017-06-28T08:56:01Z</time>
      </trkpt>
      <trkpt lat="45.96539" lon="4.87028">
        <ele>283</ele>
        <time>2017-06-28T09:02:47Z</time>
      </trkpt>
      <trkpt lat="45.96538" lon="4.87029">
        <ele>283</ele>
        <time>2017-06-28T09:02:48Z</time>
      </trkpt>
      <trkpt lat="45.96535" lon="4.87017">
        <ele>283</ele>
        <time>2017-06-28T09:03:06Z</time>
      </trkpt>
      <trkpt lat="45.96535" lon="4.87016">
        <ele>283</ele>
        <time>2017-06-28T09:03:07Z</time>
      </trkpt>
      <trkpt lat="45.96539" lon="4.87007">
        <ele>283</ele>
        <time>2017-06-28T09:03:11Z</time>
      </trkpt>
      <trkpt lat="45.9654" lon="4.87004">
        <ele>283</ele>
        <time>2017-06-28T09:03:12Z</time>
      </trkpt>
      <trkpt lat="45.96544" lon="4.86993">
        <ele>283</ele>
        <time>2017-06-28T09:03:16Z</time>
      </trkpt>
      <trkpt lat="45.96547" lon="4.8699">
        <ele>283</ele>
        <time>2017-06-28T09:03:17Z</time>
      </trkpt>
      <trkpt lat="45.96552" lon="4.86982">
        <ele>283</ele>
        <time>2017-06-28T09:03:19Z</time>
      </trkpt>
      <trkpt lat="45.96554" lon="4.86977">
        <ele>283</ele>
        <time>2017-06-28T09:03:20Z</time>
      </trkpt>
      <trkpt lat="45.9656" lon="4.86969">
        <ele>283</ele>
        <time>2017-06-28T09:03:22Z</time>
      </trkpt>
      <trkpt lat="45.96563" lon="4.86965">
        <ele>283</ele>
        <time>2017-06-28T09:03:23Z</time>
      </trkpt>
      <trkpt lat="45.96567" lon="4.86956">
        <ele>284</ele>
        <time>2017-06-28T09:03:25Z</time>
      </trkpt>
      <trkpt lat="45.9657" lon="4.86951">
        <ele>284</ele>
        <time>2017-06-28T09:03:26Z</time>
      </trkpt>
      <trkpt lat="45.96576" lon="4.86942">
        <ele>284</ele>
        <time>2017-06-28T09:03:28Z</time>
      </trkpt>
      <trkpt lat="45.96579" lon="4.86937">
        <ele>284</ele>
        <time>2017-06-28T09:03:29Z</time>
      </trkpt>
      <trkpt lat="45.96584" lon="4.86928">
        <ele>285</ele>
        <time>2017-06-28T09:03:31Z</time>
      </trkpt>
      <trkpt lat="45.96587" lon="4.86923">
        <ele>285</ele>
        <time>2017-06-28T09:03:32Z</time>
      </trkpt>
      <trkpt lat="45.96591" lon="4.86914">
        <ele>286</ele>
        <time>2017-06-28T09:03:34Z</time>
      </trkpt>
      <trkpt lat="45.96595" lon="4.86909">
        <ele>286</ele>
        <time>2017-06-28T09:03:35Z</time>
      </trkpt>
      <trkpt lat="45.96601" lon="4.86901">
        <ele>286</ele>
        <time>2017-06-28T09:03:37Z</time>
      </trkpt>
      <trkpt lat="45.96603" lon="4.86897">
        <ele>286</ele>
        <time>2017-06-28T09:03:38Z</time>
      </trkpt>
      <trkpt lat="45.96607" lon="4.8689">
        <ele>287</ele>
        <time>2017-06-28T09:03:40Z</time>
      </trkpt>
      <trkpt lat="45.96609" lon="4.86887">
        <ele>287</ele>
        <time>2017-06-28T09:03:41Z</time>
      </trkpt>
      <trkpt lat="45.96614" lon="4.86879">
        <ele>287</ele>
        <time>2017-06-28T09:03:43Z</time>
      </trkpt>
      <trkpt lat="45.96616" lon="4.86875">
        <ele>287</ele>
        <time>2017-06-28T09:03:44Z</time>
      </trkpt>
      <trkpt lat="45.96622" lon="4.86866">
        <ele>287</ele>
        <time>2017-06-28T09:03:46Z</time>
      </trkpt>
      <trkpt lat="45.96624" lon="4.86861">
        <ele>287</ele>
        <time>2017-06-28T09:03:47Z</time>
      </trkpt>
      <trkpt lat="45.9663" lon="4.86852">
        <ele>287</ele>
        <time>2017-06-28T09:03:49Z</time>
      </trkpt>
      <trkpt lat="45.96632" lon="4.86846">
        <ele>287</ele>
        <time>2017-06-28T09:03:50Z</time>
      </trkpt>
      <trkpt lat="45.96636" lon="4.8684">
        <ele>287</ele>
        <time>2017-06-28T09:03:51Z</time>
      </trkpt>
      <trkpt lat="45.9664" lon="4.86834">
        <ele>287</ele>
        <time>2017-06-28T09:03:52Z</time>
      </trkpt>
      <trkpt lat="45.96643" lon="4.86829">
        <ele>288</ele>
        <time>2017-06-28T09:03:53Z</time>
      </trkpt>
      <trkpt lat="45.96646" lon="4.86825">
        <ele>288</ele>
        <time>2017-06-28T09:03:54Z</time>
      </trkpt>
      <trkpt lat="45.96652" lon="4.86815">
        <ele>288</ele>
        <time>2017-06-28T09:03:56Z</time>
      </trkpt>
      <trkpt lat="45.96654" lon="4.8681">
        <ele>288</ele>
        <time>2017-06-28T09:03:57Z</time>
      </trkpt>
      <trkpt lat="45.96659" lon="4.86801">
        <ele>288</ele>
        <time>2017-06-28T09:03:59Z</time>
      </trkpt>
      <trkpt lat="45.96661" lon="4.86798">
        <ele>288</ele>
        <time>2017-06-28T09:04:00Z</time>
      </trkpt>
      <trkpt lat="45.96666" lon="4.8679">
        <ele>288</ele>
        <time>2017-06-28T09:04:02Z</time>
      </trkpt>
      <trkpt lat="45.96669" lon="4.86786">
        <ele>289</ele>
        <time>2017-06-28T09:04:03Z</time>
      </trkpt>
      <trkpt lat="45.96673" lon="4.86777">
        <ele>289</ele>
        <time>2017-06-28T09:04:05Z</time>
      </trkpt>
      <trkpt lat="45.96676" lon="4.86772">
        <ele>289</ele>
        <time>2017-06-28T09:04:06Z</time>
      </trkpt>
      <trkpt lat="45.9668" lon="4.86767">
        <ele>289</ele>
        <time>2017-06-28T09:04:07Z</time>
      </trkpt>
      <trkpt lat="45.96683" lon="4.86762">
        <ele>289</ele>
        <time>2017-06-28T09:04:08Z</time>
      </trkpt>
      <trkpt lat="45.96687" lon="4.86758">
        <ele>289</ele>
        <time>2017-06-28T09:04:09Z</time>
      </trkpt>
      <trkpt lat="45.9669" lon="4.86752">
        <ele>289</ele>
        <time>2017-06-28T09:04:10Z</time>
      </trkpt>
      <trkpt lat="45.96693" lon="4.86746">
        <ele>289</ele>
        <time>2017-06-28T09:04:11Z</time>
      </trkpt>
      <trkpt lat="45.96696" lon="4.86741">
        <ele>289</ele>
        <time>2017-06-28T09:04:12Z</time>
      </trkpt>
      <trkpt lat="45.96702" lon="4.86731">
        <ele>289</ele>
        <time>2017-06-28T09:04:14Z</time>
      </trkpt>
      <trkpt lat="45.96704" lon="4.86727">
        <ele>289</ele>
        <time>2017-06-28T09:04:15Z</time>
      </trkpt>
      <trkpt lat="45.96709" lon="4.86718">
        <ele>289</ele>
        <time>2017-06-28T09:04:17Z</time>
      </trkpt>
      <trkpt lat="45.96712" lon="4.86714">
        <ele>289</ele>
        <time>2017-06-28T09:04:18Z</time>
      </trkpt>
      <trkpt lat="45.96718" lon="4.86705">
        <ele>289</ele>
        <time>2017-06-28T09:04:20Z</time>
      </trkpt>
      <trkpt lat="45.96721" lon="4.867">
        <ele>289</ele>
        <time>2017-06-28T09:04:21Z</time>
      </trkpt>
      <trkpt lat="45.96726" lon="4.86691">
        <ele>289</ele>
        <time>2017-06-28T09:04:23Z</time>
      </trkpt>
      <trkpt lat="45.96729" lon="4.86687">
        <ele>289</ele>
        <time>2017-06-28T09:04:24Z</time>
      </trkpt>
      <trkpt lat="45.96733" lon="4.86682">
        <ele>290</ele>
        <time>2017-06-28T09:04:25Z</time>
      </trkpt>
      <trkpt lat="45.96736" lon="4.86677">
        <ele>290</ele>
        <time>2017-06-28T09:04:26Z</time>
      </trkpt>
      <trkpt lat="45.96741" lon="4.86667">
        <ele>290</ele>
        <time>2017-06-28T09:04:28Z</time>
      </trkpt>
      <trkpt lat="45.96744" lon="4.86663">
        <ele>290</ele>
        <time>2017-06-28T09:04:29Z</time>
      </trkpt>
      <trkpt lat="45.9675" lon="4.86654">
        <ele>290</ele>
        <time>2017-06-28T09:04:31Z</time>
      </trkpt>
      <trkpt lat="45.96753" lon="4.86649">
        <ele>290</ele>
        <time>2017-06-28T09:04:32Z</time>
      </trkpt>
      <trkpt lat="45.96756" lon="4.86644">
        <ele>290</ele>
        <time>2017-06-28T09:04:33Z</time>
      </trkpt>
      <trkpt lat="45.96759" lon="4.86639">
        <ele>290</ele>
        <time>2017-06-28T09:04:34Z</time>
      </trkpt>
      <trkpt lat="45.96762" lon="4.86634">
        <ele>289</ele>
        <time>2017-06-28T09:04:35Z</time>
      </trkpt>
      <trkpt lat="45.96765" lon="4.86629">
        <ele>289</ele>
        <time>2017-06-28T09:04:36Z</time>
      </trkpt>
      <trkpt lat="45.96769" lon="4.86623">
        <ele>289</ele>
        <time>2017-06-28T09:04:37Z</time>
      </trkpt>
      <trkpt lat="45.96772" lon="4.86618">
        <ele>289</ele>
        <time>2017-06-28T09:04:38Z</time>
      </trkpt>
      <trkpt lat="45.96775" lon="4.86613">
        <ele>289</ele>
        <time>2017-06-28T09:04:39Z</time>
      </trkpt>
      <trkpt lat="45.96778" lon="4.86607">
        <ele>289</ele>
        <time>2017-06-28T09:04:40Z</time>
      </trkpt>
      <trkpt lat="45.96781" lon="4.86603">
        <ele>289</ele>
        <time>2017-06-28T09:04:41Z</time>
      </trkpt>
      <trkpt lat="45.96784" lon="4.86598">
        <ele>289</ele>
        <time>2017-06-28T09:04:42Z</time>
      </trkpt>
      <trkpt lat="45.9679" lon="4.86589">
        <ele>289</ele>
        <time>2017-06-28T09:04:44Z</time>
      </trkpt>
      <trkpt lat="45.96792" lon="4.86584">
        <ele>289</ele>
        <time>2017-06-28T09:04:45Z</time>
      </trkpt>
      <trkpt lat="45.96795" lon="4.86579">
        <ele>290</ele>
        <time>2017-06-28T09:04:47Z</time>
      </trkpt>
      <trkpt lat="45.96795" lon="4.86578">
        <ele>290</ele>
        <time>2017-06-28T09:04:48Z</time>
      </trkpt>
      <trkpt lat="45.96795" lon="4.86578">
        <ele>290</ele>
        <time>2017-06-28T09:05:30Z</time>
      </trkpt>
      <trkpt lat="45.96795" lon="4.86578">
        <ele>290</ele>
        <time>2017-06-28T09:05:31Z</time>
      </trkpt>
      <trkpt lat="45.968" lon="4.86568">
        <ele>290</ele>
        <time>2017-06-28T09:05:36Z</time>
      </trkpt>
      <trkpt lat="45.96801" lon="4.86566">
        <ele>290</ele>
        <time>2017-06-28T09:05:37Z</time>
      </trkpt>
      <trkpt lat="45.96807" lon="4.86557">
        <ele>290</ele>
        <time>2017-06-28T09:05:40Z</time>
      </trkpt>
      <trkpt lat="45.9681" lon="4.86553">
        <ele>290</ele>
        <time>2017-06-28T09:05:41Z</time>
      </trkpt>
      <trkpt lat="45.96814" lon="4.86545">
        <ele>290</ele>
        <time>2017-06-28T09:05:43Z</time>
      </trkpt>
      <trkpt lat="45.96816" lon="4.86542">
        <ele>290</ele>
        <time>2017-06-28T09:05:44Z</time>
      </trkpt>
      <trkpt lat="45.96821" lon="4.86534">
        <ele>290</ele>
        <time>2017-06-28T09:05:46Z</time>
      </trkpt>
      <trkpt lat="45.96824" lon="4.8653">
        <ele>289</ele>
        <time>2017-06-28T09:05:47Z</time>
      </trkpt>
      <trkpt lat="45.96829" lon="4.8652">
        <ele>289</ele>
        <time>2017-06-28T09:05:49Z</time>
      </trkpt>
      <trkpt lat="45.96831" lon="4.86514">
        <ele>289</ele>
        <time>2017-06-28T09:05:50Z</time>
      </trkpt>
      <trkpt lat="45.96834" lon="4.86508">
        <ele>289</ele>
        <time>2017-06-28T09:05:51Z</time>
      </trkpt>
      <trkpt lat="45.96837" lon="4.86502">
        <ele>289</ele>
        <time>2017-06-28T09:05:52Z</time>
      </trkpt>
      <trkpt lat="45.9684" lon="4.86496">
        <ele>289</ele>
        <time>2017-06-28T09:05:53Z</time>
      </trkpt>
      <trkpt lat="45.96842" lon="4.86488">
        <ele>289</ele>
        <time>2017-06-28T09:05:54Z</time>
      </trkpt>
      <trkpt lat="45.96844" lon="4.86481">
        <ele>289</ele>
        <time>2017-06-28T09:05:55Z</time>
      </trkpt>
      <trkpt lat="45.96846" lon="4.86474">
        <ele>289</ele>
        <time>2017-06-28T09:05:56Z</time>
      </trkpt>
      <trkpt lat="45.96848" lon="4.86467">
        <ele>289</ele>
        <time>2017-06-28T09:05:57Z</time>
      </trkpt>
      <trkpt lat="45.9685" lon="4.8646">
        <ele>289</ele>
        <time>2017-06-28T09:05:58Z</time>
      </trkpt>
      <trkpt lat="45.96852" lon="4.86452">
        <ele>289</ele>
        <time>2017-06-28T09:05:59Z</time>
      </trkpt>
      <trkpt lat="45.96853" lon="4.86445">
        <ele>290</ele>
        <time>2017-06-28T09:06:00Z</time>
      </trkpt>
      <trkpt lat="45.96855" lon="4.86438">
        <ele>290</ele>
        <time>2017-06-28T09:06:01Z</time>
      </trkpt>
      <trkpt lat="45.96856" lon="4.86431">
        <ele>290</ele>
        <time>2017-06-28T09:06:02Z</time>
      </trkpt>
      <trkpt lat="45.96857" lon="4.86424">
        <ele>290</ele>
        <time>2017-06-28T09:06:03Z</time>
      </trkpt>
      <trkpt lat="45.96858" lon="4.86417">
        <ele>291</ele>
        <time>2017-06-28T09:06:04Z</time>
      </trkpt>
      <trkpt lat="45.96861" lon="4.86404">
        <ele>290</ele>
        <time>2017-06-28T09:06:06Z</time>
      </trkpt>
      <trkpt lat="45.96862" lon="4.86398">
        <ele>290</ele>
        <time>2017-06-28T09:06:07Z</time>
      </trkpt>
      <trkpt lat="45.96863" lon="4.86392">
        <ele>290</ele>
        <time>2017-06-28T09:06:08Z</time>
      </trkpt>
      <trkpt lat="45.96864" lon="4.86385">
        <ele>290</ele>
        <time>2017-06-28T09:06:09Z</time>
      </trkpt>
      <trkpt lat="45.96865" lon="4.86378">
        <ele>290</ele>
        <time>2017-06-28T09:06:10Z</time>
      </trkpt>
      <trkpt lat="45.96866" lon="4.86371">
        <ele>290</ele>
        <time>2017-06-28T09:06:11Z</time>
      </trkpt>
      <trkpt lat="45.96867" lon="4.86364">
        <ele>290</ele>
        <time>2017-06-28T09:06:12Z</time>
      </trkpt>
      <trkpt lat="45.96868" lon="4.86356">
        <ele>290</ele>
        <time>2017-06-28T09:06:13Z</time>
      </trkpt>
      <trkpt lat="45.96869" lon="4.86349">
        <ele>290</ele>
        <time>2017-06-28T09:06:14Z</time>
      </trkpt>
      <trkpt lat="45.96871" lon="4.86342">
        <ele>290</ele>
        <time>2017-06-28T09:06:15Z</time>
      </trkpt>
      <trkpt lat="45.96872" lon="4.86335">
        <ele>290</ele>
        <time>2017-06-28T09:06:16Z</time>
      </trkpt>
      <trkpt lat="45.96873" lon="4.86328">
        <ele>289</ele>
        <time>2017-06-28T09:06:17Z</time>
      </trkpt>
      <trkpt lat="45.96873" lon="4.86322">
        <ele>289</ele>
        <time>2017-06-28T09:06:18Z</time>
      </trkpt>
      <trkpt lat="45.96874" lon="4.86315">
        <ele>289</ele>
        <time>2017-06-28T09:06:19Z</time>
      </trkpt>
      <trkpt lat="45.96875" lon="4.86308">
        <ele>289</ele>
        <time>2017-06-28T09:06:20Z</time>
      </trkpt>
      <trkpt lat="45.96876" lon="4.863">
        <ele>289</ele>
        <time>2017-06-28T09:06:21Z</time>
      </trkpt>
      <trkpt lat="45.96877" lon="4.86293">
        <ele>289</ele>
        <time>2017-06-28T09:06:22Z</time>
      </trkpt>
      <trkpt lat="45.96878" lon="4.86286">
        <ele>289</ele>
        <time>2017-06-28T09:06:23Z</time>
      </trkpt>
      <trkpt lat="45.96879" lon="4.86279">
        <ele>289</ele>
        <time>2017-06-28T09:06:24Z</time>
      </trkpt>
      <trkpt lat="45.96879" lon="4.86273">
        <ele>289</ele>
        <time>2017-06-28T09:06:25Z</time>
      </trkpt>
      <trkpt lat="45.9688" lon="4.86267">
        <ele>288</ele>
        <time>2017-06-28T09:06:26Z</time>
      </trkpt>
      <trkpt lat="45.96881" lon="4.8626">
        <ele>288</ele>
        <time>2017-06-28T09:06:27Z</time>
      </trkpt>
      <trkpt lat="45.96882" lon="4.86254">
        <ele>288</ele>
        <time>2017-06-28T09:06:28Z</time>
      </trkpt>
      <trkpt lat="45.96883" lon="4.86247">
        <ele>288</ele>
        <time>2017-06-28T09:06:29Z</time>
      </trkpt>
      <trkpt lat="45.96884" lon="4.86239">
        <ele>288</ele>
        <time>2017-06-28T09:06:30Z</time>
      </trkpt>
      <trkpt lat="45.96885" lon="4.86231">
        <ele>289</ele>
        <time>2017-06-28T09:06:31Z</time>
      </trkpt>
      <trkpt lat="45.96886" lon="4.86224">
        <ele>289</ele>
        <time>2017-06-28T09:06:32Z</time>
      </trkpt>
      <trkpt lat="45.96887" lon="4.86216">
        <ele>289</ele>
        <time>2017-06-28T09:06:33Z</time>
      </trkpt>
      <trkpt lat="45.96888" lon="4.86207">
        <ele>289</ele>
        <time>2017-06-28T09:06:34Z</time>
      </trkpt>
      <trkpt lat="45.96889" lon="4.86199">
        <ele>289</ele>
        <time>2017-06-28T09:06:35Z</time>
      </trkpt>
      <trkpt lat="45.9689" lon="4.86191">
        <ele>289</ele>
        <time>2017-06-28T09:06:36Z</time>
      </trkpt>
      <trkpt lat="45.96891" lon="4.86182">
        <ele>289</ele>
        <time>2017-06-28T09:06:37Z</time>
      </trkpt>
      <trkpt lat="45.96892" lon="4.86174">
        <ele>289</ele>
        <time>2017-06-28T09:06:38Z</time>
      </trkpt>
      <trkpt lat="45.96893" lon="4.86166">
        <ele>289</ele>
        <time>2017-06-28T09:06:39Z</time>
      </trkpt>
      <trkpt lat="45.96894" lon="4.86157">
        <ele>289</ele>
        <time>2017-06-28T09:06:40Z</time>
      </trkpt>
      <trkpt lat="45.96895" lon="4.86149">
        <ele>289</ele>
        <time>2017-06-28T09:06:41Z</time>
      </trkpt>
      <trkpt lat="45.96897" lon="4.86141">
        <ele>289</ele>
        <time>2017-06-28T09:06:42Z</time>
      </trkpt>
      <trkpt lat="45.96898" lon="4.86132">
        <ele>289</ele>
        <time>2017-06-28T09:06:43Z</time>
      </trkpt>
      <trkpt lat="45.96899" lon="4.86123">
        <ele>289</ele>
        <time>2017-06-28T09:06:44Z</time>
      </trkpt>
      <trkpt lat="45.969" lon="4.86115">
        <ele>289</ele>
        <time>2017-06-28T09:06:45Z</time>
      </trkpt>
      <trkpt lat="45.96901" lon="4.86106">
        <ele>289</ele>
        <time>2017-06-28T09:06:46Z</time>
      </trkpt>
      <trkpt lat="45.96902" lon="4.86098">
        <ele>288</ele>
        <time>2017-06-28T09:06:47Z</time>
      </trkpt>
      <trkpt lat="45.96903" lon="4.8609">
        <ele>288</ele>
        <time>2017-06-28T09:06:48Z</time>
      </trkpt>
      <trkpt lat="45.96903" lon="4.86081">
        <ele>288</ele>
        <time>2017-06-28T09:06:49Z</time>
      </trkpt>
      <trkpt lat="45.96903" lon="4.86072">
        <ele>288</ele>
        <time>2017-06-28T09:06:50Z</time>
      </trkpt>
      <trkpt lat="45.96904" lon="4.86063">
        <ele>288</ele>
        <time>2017-06-28T09:06:51Z</time>
      </trkpt>
      <trkpt lat="45.96904" lon="4.86055">
        <ele>289</ele>
        <time>2017-06-28T09:06:52Z</time>
      </trkpt>
      <trkpt lat="45.96904" lon="4.86046">
        <ele>289</ele>
        <time>2017-06-28T09:06:53Z</time>
      </trkpt>
      <trkpt lat="45.96905" lon="4.86037">
        <ele>289</ele>
        <time>2017-06-28T09:06:54Z</time>
      </trkpt>
      <trkpt lat="45.96907" lon="4.86029">
        <ele>289</ele>
        <time>2017-06-28T09:06:55Z</time>
      </trkpt>
      <trkpt lat="45.96908" lon="4.8602">
        <ele>289</ele>
        <time>2017-06-28T09:06:56Z</time>
      </trkpt>
      <trkpt lat="45.96909" lon="4.86012">
        <ele>289</ele>
        <time>2017-06-28T09:06:57Z</time>
      </trkpt>
      <trkpt lat="45.96911" lon="4.86004">
        <ele>288</ele>
        <time>2017-06-28T09:06:58Z</time>
      </trkpt>
      <trkpt lat="45.96912" lon="4.85995">
        <ele>288</ele>
        <time>2017-06-28T09:06:59Z</time>
      </trkpt>
      <trkpt lat="45.96914" lon="4.85986">
        <ele>288</ele>
        <time>2017-06-28T09:07:00Z</time>
      </trkpt>
      <trkpt lat="45.96916" lon="4.85978">
        <ele>288</ele>
        <time>2017-06-28T09:07:01Z</time>
      </trkpt>
      <trkpt lat="45.96918" lon="4.85969">
        <ele>287</ele>
        <time>2017-06-28T09:07:02Z</time>
      </trkpt>
      <trkpt lat="45.96921" lon="4.85961">
        <ele>287</ele>
        <time>2017-06-28T09:07:03Z</time>
      </trkpt>
      <trkpt lat="45.96923" lon="4.85953">
        <ele>287</ele>
        <time>2017-06-28T09:07:04Z</time>
      </trkpt>
      <trkpt lat="45.96925" lon="4.85944">
        <ele>286</ele>
        <time>2017-06-28T09:07:05Z</time>
      </trkpt>
      <trkpt lat="45.96928" lon="4.85935">
        <ele>286</ele>
        <time>2017-06-28T09:07:06Z</time>
      </trkpt>
      <trkpt lat="45.9693" lon="4.85926">
        <ele>286</ele>
        <time>2017-06-28T09:07:07Z</time>
      </trkpt>
      <trkpt lat="45.96933" lon="4.85917">
        <ele>286</ele>
        <time>2017-06-28T09:07:08Z</time>
      </trkpt>
      <trkpt lat="45.96935" lon="4.85907">
        <ele>286</ele>
        <time>2017-06-28T09:07:09Z</time>
      </trkpt>
      <trkpt lat="45.96938" lon="4.85898">
        <ele>285</ele>
        <time>2017-06-28T09:07:10Z</time>
      </trkpt>
      <trkpt lat="45.96941" lon="4.85889">
        <ele>285</ele>
        <time>2017-06-28T09:07:11Z</time>
      </trkpt>
      <trkpt lat="45.96943" lon="4.85879">
        <ele>285</ele>
        <time>2017-06-28T09:07:12Z</time>
      </trkpt>
      <trkpt lat="45.96946" lon="4.8587">
        <ele>285</ele>
        <time>2017-06-28T09:07:13Z</time>
      </trkpt>
      <trkpt lat="45.96948" lon="4.85862">
        <ele>285</ele>
        <time>2017-06-28T09:07:14Z</time>
      </trkpt>
      <trkpt lat="45.9695" lon="4.85853">
        <ele>285</ele>
        <time>2017-06-28T09:07:15Z</time>
      </trkpt>
      <trkpt lat="45.96952" lon="4.85845">
        <ele>285</ele>
        <time>2017-06-28T09:07:16Z</time>
      </trkpt>
      <trkpt lat="45.96954" lon="4.85836">
        <ele>285</ele>
        <time>2017-06-28T09:07:17Z</time>
      </trkpt>
      <trkpt lat="45.96956" lon="4.85828">
        <ele>285</ele>
        <time>2017-06-28T09:07:18Z</time>
      </trkpt>
      <trkpt lat="45.96958" lon="4.8582">
        <ele>285</ele>
        <time>2017-06-28T09:07:19Z</time>
      </trkpt>
      <trkpt lat="45.96961" lon="4.85812">
        <ele>285</ele>
        <time>2017-06-28T09:07:20Z</time>
      </trkpt>
      <trkpt lat="45.96963" lon="4.85805">
        <ele>285</ele>
        <time>2017-06-28T09:07:21Z</time>
      </trkpt>
      <trkpt lat="45.96965" lon="4.85798">
        <ele>285</ele>
        <time>2017-06-28T09:07:22Z</time>
      </trkpt>
      <trkpt lat="45.96967" lon="4.8579">
        <ele>285</ele>
        <time>2017-06-28T09:07:23Z</time>
      </trkpt>
      <trkpt lat="45.96969" lon="4.85782">
        <ele>285</ele>
        <time>2017-06-28T09:07:24Z</time>
      </trkpt>
      <trkpt lat="45.96972" lon="4.85774">
        <ele>285</ele>
        <time>2017-06-28T09:07:25Z</time>
      </trkpt>
      <trkpt lat="45.96974" lon="4.85765">
        <ele>285</ele>
        <time>2017-06-28T09:07:26Z</time>
      </trkpt>
      <trkpt lat="45.96977" lon="4.85757">
        <ele>285</ele>
        <time>2017-06-28T09:07:27Z</time>
      </trkpt>
      <trkpt lat="45.9698" lon="4.85748">
        <ele>285</ele>
        <time>2017-06-28T09:07:28Z</time>
      </trkpt>
      <trkpt lat="45.96982" lon="4.85739">
        <ele>285</ele>
        <time>2017-06-28T09:07:29Z</time>
      </trkpt>
      <trkpt lat="45.96984" lon="4.85732">
        <ele>285</ele>
        <time>2017-06-28T09:07:30Z</time>
      </trkpt>
      <trkpt lat="45.96986" lon="4.85724">
        <ele>285</ele>
        <time>2017-06-28T09:07:31Z</time>
      </trkpt>
      <trkpt lat="45.96988" lon="4.85716">
        <ele>285</ele>
        <time>2017-06-28T09:07:32Z</time>
      </trkpt>
      <trkpt lat="45.96991" lon="4.85709">
        <ele>285</ele>
        <time>2017-06-28T09:07:33Z</time>
      </trkpt>
      <trkpt lat="45.96992" lon="4.85701">
        <ele>285</ele>
        <time>2017-06-28T09:07:34Z</time>
      </trkpt>
      <trkpt lat="45.96994" lon="4.85694">
        <ele>285</ele>
        <time>2017-06-28T09:07:35Z</time>
      </trkpt>
      <trkpt lat="45.96996" lon="4.85687">
        <ele>285</ele>
        <time>2017-06-28T09:07:36Z</time>
      </trkpt>
      <trkpt lat="45.96998" lon="4.85681">
        <ele>286</ele>
        <time>2017-06-28T09:07:37Z</time>
      </trkpt>
      <trkpt lat="45.97" lon="4.85674">
        <ele>285</ele>
        <time>2017-06-28T09:07:38Z</time>
      </trkpt>
      <trkpt lat="45.97002" lon="4.85666">
        <ele>286</ele>
        <time>2017-06-28T09:07:39Z</time>
      </trkpt>
      <trkpt lat="45.97003" lon="4.85659">
        <ele>285</ele>
        <time>2017-06-28T09:07:40Z</time>
      </trkpt>
      <trkpt lat="45.97005" lon="4.85652">
        <ele>285</ele>
        <time>2017-06-28T09:07:41Z</time>
      </trkpt>
      <trkpt lat="45.97007" lon="4.85645">
        <ele>284</ele>
        <time>2017-06-28T09:07:42Z</time>
      </trkpt>
      <trkpt lat="45.97008" lon="4.85637">
        <ele>284</ele>
        <time>2017-06-28T09:07:43Z</time>
      </trkpt>
      <trkpt lat="45.97009" lon="4.85629">
        <ele>284</ele>
        <time>2017-06-28T09:07:44Z</time>
      </trkpt>
      <trkpt lat="45.97011" lon="4.85621">
        <ele>284</ele>
        <time>2017-06-28T09:07:45Z</time>
      </trkpt>
      <trkpt lat="45.97013" lon="4.85613">
        <ele>284</ele>
        <time>2017-06-28T09:07:46Z</time>
      </trkpt>
      <trkpt lat="45.97016" lon="4.85604">
        <ele>284</ele>
        <time>2017-06-28T09:07:47Z</time>
      </trkpt>
      <trkpt lat="45.97019" lon="4.85596">
        <ele>284</ele>
        <time>2017-06-28T09:07:48Z</time>
      </trkpt>
      <trkpt lat="45.97022" lon="4.85587">
        <ele>284</ele>
        <time>2017-06-28T09:07:49Z</time>
      </trkpt>
      <trkpt lat="45.97025" lon="4.85577">
        <ele>283</ele>
        <time>2017-06-28T09:07:50Z</time>
      </trkpt>
      <trkpt lat="45.97028" lon="4.85568">
        <ele>283</ele>
        <time>2017-06-28T09:07:51Z</time>
      </trkpt>
      <trkpt lat="45.97031" lon="4.85558">
        <ele>283</ele>
        <time>2017-06-28T09:07:52Z</time>
      </trkpt>
      <trkpt lat="45.97034" lon="4.85549">
        <ele>283</ele>
        <time>2017-06-28T09:07:53Z</time>
      </trkpt>
      <trkpt lat="45.97037" lon="4.85539">
        <ele>282</ele>
        <time>2017-06-28T09:07:54Z</time>
      </trkpt>
      <trkpt lat="45.9704" lon="4.8553">
        <ele>282</ele>
        <time>2017-06-28T09:07:55Z</time>
      </trkpt>
      <trkpt lat="45.97043" lon="4.8552">
        <ele>282</ele>
        <time>2017-06-28T09:07:56Z</time>
      </trkpt>
      <trkpt lat="45.97046" lon="4.8551">
        <ele>282</ele>
        <time>2017-06-28T09:07:57Z</time>
      </trkpt>
      <trkpt lat="45.97049" lon="4.85501">
        <ele>282</ele>
        <time>2017-06-28T09:07:58Z</time>
      </trkpt>
      <trkpt lat="45.97051" lon="4.85491">
        <ele>281</ele>
        <time>2017-06-28T09:07:59Z</time>
      </trkpt>
      <trkpt lat="45.97055" lon="4.85482">
        <ele>281</ele>
        <time>2017-06-28T09:08:00Z</time>
      </trkpt>
      <trkpt lat="45.97058" lon="4.85472">
        <ele>281</ele>
        <time>2017-06-28T09:08:01Z</time>
      </trkpt>
      <trkpt lat="45.97061" lon="4.85463">
        <ele>281</ele>
        <time>2017-06-28T09:08:02Z</time>
      </trkpt>
      <trkpt lat="45.97064" lon="4.85454">
        <ele>281</ele>
        <time>2017-06-28T09:08:03Z</time>
      </trkpt>
      <trkpt lat="45.97067" lon="4.85445">
        <ele>281</ele>
        <time>2017-06-28T09:08:04Z</time>
      </trkpt>
      <trkpt lat="45.97069" lon="4.85436">
        <ele>281</ele>
        <time>2017-06-28T09:08:05Z</time>
      </trkpt>
      <trkpt lat="45.97072" lon="4.85427">
        <ele>281</ele>
        <time>2017-06-28T09:08:06Z</time>
      </trkpt>
      <trkpt lat="45.97075" lon="4.85418">
        <ele>280</ele>
        <time>2017-06-28T09:08:07Z</time>
      </trkpt>
      <trkpt lat="45.97077" lon="4.85408">
        <ele>281</ele>
        <time>2017-06-28T09:08:08Z</time>
      </trkpt>
      <trkpt lat="45.97079" lon="4.85399">
        <ele>281</ele>
        <time>2017-06-28T09:08:09Z</time>
      </trkpt>
      <trkpt lat="45.97083" lon="4.85391">
        <ele>281</ele>
        <time>2017-06-28T09:08:10Z</time>
      </trkpt>
      <trkpt lat="45.97086" lon="4.85382">
        <ele>280</ele>
        <time>2017-06-28T09:08:11Z</time>
      </trkpt>
      <trkpt lat="45.97089" lon="4.85373">
        <ele>280</ele>
        <time>2017-06-28T09:08:12Z</time>
      </trkpt>
      <trkpt lat="45.97092" lon="4.85364">
        <ele>280</ele>
        <time>2017-06-28T09:08:13Z</time>
      </trkpt>
      <trkpt lat="45.97095" lon="4.85355">
        <ele>280</ele>
        <time>2017-06-28T09:08:14Z</time>
      </trkpt>
      <trkpt lat="45.97099" lon="4.85346">
        <ele>280</ele>
        <time>2017-06-28T09:08:15Z</time>
      </trkpt>
      <trkpt lat="45.97102" lon="4.85338">
        <ele>280</ele>
        <time>2017-06-28T09:08:16Z</time>
      </trkpt>
      <trkpt lat="45.97105" lon="4.85329">
        <ele>280</ele>
        <time>2017-06-28T09:08:17Z</time>
      </trkpt>
      <trkpt lat="45.97108" lon="4.8532">
        <ele>280</ele>
        <time>2017-06-28T09:08:18Z</time>
      </trkpt>
      <trkpt lat="45.97112" lon="4.85311">
        <ele>280</ele>
        <time>2017-06-28T09:08:19Z</time>
      </trkpt>
      <trkpt lat="45.97115" lon="4.85303">
        <ele>280</ele>
        <time>2017-06-28T09:08:20Z</time>
      </trkpt>
      <trkpt lat="45.97119" lon="4.85296">
        <ele>280</ele>
        <time>2017-06-28T09:08:21Z</time>
      </trkpt>
      <trkpt lat="45.97122" lon="4.85288">
        <ele>280</ele>
        <time>2017-06-28T09:08:22Z</time>
      </trkpt>
      <trkpt lat="45.97126" lon="4.85281">
        <ele>279</ele>
        <time>2017-06-28T09:08:23Z</time>
      </trkpt>
      <trkpt lat="45.9713" lon="4.85274">
        <ele>279</ele>
        <time>2017-06-28T09:08:24Z</time>
      </trkpt>
      <trkpt lat="45.97133" lon="4.85266">
        <ele>279</ele>
        <time>2017-06-28T09:08:25Z</time>
      </trkpt>
      <trkpt lat="45.97137" lon="4.85259">
        <ele>279</ele>
        <time>2017-06-28T09:08:26Z</time>
      </trkpt>
      <trkpt lat="45.9714" lon="4.85251">
        <ele>279</ele>
        <time>2017-06-28T09:08:27Z</time>
      </trkpt>
      <trkpt lat="45.97144" lon="4.85243">
        <ele>279</ele>
        <time>2017-06-28T09:08:28Z</time>
      </trkpt>
      <trkpt lat="45.97148" lon="4.85235">
        <ele>279</ele>
        <time>2017-06-28T09:08:29Z</time>
      </trkpt>
      <trkpt lat="45.97152" lon="4.85226">
        <ele>279</ele>
        <time>2017-06-28T09:08:30Z</time>
      </trkpt>
      <trkpt lat="45.97156" lon="4.85218">
        <ele>279</ele>
        <time>2017-06-28T09:08:31Z</time>
      </trkpt>
      <trkpt lat="45.9716" lon="4.8521">
        <ele>279</ele>
        <time>2017-06-28T09:08:32Z</time>
      </trkpt>
      <trkpt lat="45.97164" lon="4.85202">
        <ele>279</ele>
        <time>2017-06-28T09:08:33Z</time>
      </trkpt>
      <trkpt lat="45.97168" lon="4.85194">
        <ele>278</ele>
        <time>2017-06-28T09:08:34Z</time>
      </trkpt>
      <trkpt lat="45.97171" lon="4.85187">
        <ele>278</ele>
        <time>2017-06-28T09:08:35Z</time>
      </trkpt>
      <trkpt lat="45.97175" lon="4.8518">
        <ele>278</ele>
        <time>2017-06-28T09:08:36Z</time>
      </trkpt>
      <trkpt lat="45.97179" lon="4.85173">
        <ele>278</ele>
        <time>2017-06-28T09:08:37Z</time>
      </trkpt>
      <trkpt lat="45.97182" lon="4.85165">
        <ele>278</ele>
        <time>2017-06-28T09:08:38Z</time>
      </trkpt>
      <trkpt lat="45.97185" lon="4.85158">
        <ele>278</ele>
        <time>2017-06-28T09:08:39Z</time>
      </trkpt>
      <trkpt lat="45.97188" lon="4.8515">
        <ele>278</ele>
        <time>2017-06-28T09:08:40Z</time>
      </trkpt>
      <trkpt lat="45.97191" lon="4.85143">
        <ele>278</ele>
        <time>2017-06-28T09:08:41Z</time>
      </trkpt>
      <trkpt lat="45.97195" lon="4.85136">
        <ele>278</ele>
        <time>2017-06-28T09:08:42Z</time>
      </trkpt>
      <trkpt lat="45.97198" lon="4.85129">
        <ele>278</ele>
        <time>2017-06-28T09:08:43Z</time>
      </trkpt>
      <trkpt lat="45.97202" lon="4.85122">
        <ele>278</ele>
        <time>2017-06-28T09:08:44Z</time>
      </trkpt>
      <trkpt lat="45.97206" lon="4.85114">
        <ele>278</ele>
        <time>2017-06-28T09:08:45Z</time>
      </trkpt>
      <trkpt lat="45.97209" lon="4.85106">
        <ele>278</ele>
        <time>2017-06-28T09:08:46Z</time>
      </trkpt>
      <trkpt lat="45.97213" lon="4.85099">
        <ele>278</ele>
        <time>2017-06-28T09:08:47Z</time>
      </trkpt>
      <trkpt lat="45.97217" lon="4.85091">
        <ele>278</ele>
        <time>2017-06-28T09:08:48Z</time>
      </trkpt>
      <trkpt lat="45.97221" lon="4.85084">
        <ele>278</ele>
        <time>2017-06-28T09:08:49Z</time>
      </trkpt>
      <trkpt lat="45.97224" lon="4.85076">
        <ele>278</ele>
        <time>2017-06-28T09:08:50Z</time>
      </trkpt>
      <trkpt lat="45.97227" lon="4.85069">
        <ele>278</ele>
        <time>2017-06-28T09:08:51Z</time>
      </trkpt>
      <trkpt lat="45.9723" lon="4.85061">
        <ele>279</ele>
        <time>2017-06-28T09:08:52Z</time>
      </trkpt>
      <trkpt lat="45.97233" lon="4.85054">
        <ele>279</ele>
        <time>2017-06-28T09:08:53Z</time>
      </trkpt>
      <trkpt lat="45.97237" lon="4.85048">
        <ele>279</ele>
        <time>2017-06-28T09:08:54Z</time>
      </trkpt>
      <trkpt lat="45.9724" lon="4.85041">
        <ele>279</ele>
        <time>2017-06-28T09:08:55Z</time>
      </trkpt>
      <trkpt lat="45.97243" lon="4.85034">
        <ele>279</ele>
        <time>2017-06-28T09:08:56Z</time>
      </trkpt>
      <trkpt lat="45.97247" lon="4.85027">
        <ele>279</ele>
        <time>2017-06-28T09:08:57Z</time>
      </trkpt>
      <trkpt lat="45.9725" lon="4.8502">
        <ele>279</ele>
        <time>2017-06-28T09:08:58Z</time>
      </trkpt>
      <trkpt lat="45.97254" lon="4.85013">
        <ele>279</ele>
        <time>2017-06-28T09:08:59Z</time>
      </trkpt>
      <trkpt lat="45.97257" lon="4.85006">
        <ele>279</ele>
        <time>2017-06-28T09:09:00Z</time>
      </trkpt>
      <trkpt lat="45.97261" lon="4.84998">
        <ele>279</ele>
        <time>2017-06-28T09:09:01Z</time>
      </trkpt>
      <trkpt lat="45.97264" lon="4.8499">
        <ele>279</ele>
        <time>2017-06-28T09:09:02Z</time>
      </trkpt>
      <trkpt lat="45.97268" lon="4.84982">
        <ele>279</ele>
        <time>2017-06-28T09:09:03Z</time>
      </trkpt>
      <trkpt lat="45.97271" lon="4.84974">
        <ele>278</ele>
        <time>2017-06-28T09:09:04Z</time>
      </trkpt>
      <trkpt lat="45.97275" lon="4.84967">
        <ele>278</ele>
        <time>2017-06-28T09:09:05Z</time>
      </trkpt>
      <trkpt lat="45.97278" lon="4.8496">
        <ele>278</ele>
        <time>2017-06-28T09:09:06Z</time>
      </trkpt>
      <trkpt lat="45.97282" lon="4.84952">
        <ele>278</ele>
        <time>2017-06-28T09:09:07Z</time>
      </trkpt>
      <trkpt lat="45.97286" lon="4.84945">
        <ele>278</ele>
        <time>2017-06-28T09:09:08Z</time>
      </trkpt>
      <trkpt lat="45.9729" lon="4.84939">
        <ele>278</ele>
        <time>2017-06-28T09:09:09Z</time>
      </trkpt>
      <trkpt lat="45.97294" lon="4.84932">
        <ele>278</ele>
        <time>2017-06-28T09:09:10Z</time>
      </trkpt>
      <trkpt lat="45.97298" lon="4.84925">
        <ele>278</ele>
        <time>2017-06-28T09:09:11Z</time>
      </trkpt>
      <trkpt lat="45.97302" lon="4.84919">
        <ele>278</ele>
        <time>2017-06-28T09:09:12Z</time>
      </trkpt>
      <trkpt lat="45.97306" lon="4.84914">
        <ele>278</ele>
        <time>2017-06-28T09:09:13Z</time>
      </trkpt>
      <trkpt lat="45.97309" lon="4.84908">
        <ele>278</ele>
        <time>2017-06-28T09:09:14Z</time>
      </trkpt>
      <trkpt lat="45.97312" lon="4.84902">
        <ele>278</ele>
        <time>2017-06-28T09:09:15Z</time>
      </trkpt>
      <trkpt lat="45.97316" lon="4.84896">
        <ele>278</ele>
        <time>2017-06-28T09:09:16Z</time>
      </trkpt>
      <trkpt lat="45.97319" lon="4.8489">
        <ele>278</ele>
        <time>2017-06-28T09:09:17Z</time>
      </trkpt>
      <trkpt lat="45.97323" lon="4.84884">
        <ele>278</ele>
        <time>2017-06-28T09:09:18Z</time>
      </trkpt>
      <trkpt lat="45.97327" lon="4.84877">
        <ele>278</ele>
        <time>2017-06-28T09:09:19Z</time>
      </trkpt>
      <trkpt lat="45.9733" lon="4.8487">
        <ele>278</ele>
        <time>2017-06-28T09:09:20Z</time>
      </trkpt>
      <trkpt lat="45.97334" lon="4.84862">
        <ele>277</ele>
        <time>2017-06-28T09:09:21Z</time>
      </trkpt>
      <trkpt lat="45.97338" lon="4.84855">
        <ele>277</ele>
        <time>2017-06-28T09:09:22Z</time>
      </trkpt>
      <trkpt lat="45.97341" lon="4.84848">
        <ele>277</ele>
        <time>2017-06-28T09:09:23Z</time>
      </trkpt>
      <trkpt lat="45.97345" lon="4.8484">
        <ele>277</ele>
        <time>2017-06-28T09:09:24Z</time>
      </trkpt>
      <trkpt lat="45.97348" lon="4.84833">
        <ele>278</ele>
        <time>2017-06-28T09:09:25Z</time>
      </trkpt>
      <trkpt lat="45.97351" lon="4.84826">
        <ele>278</ele>
        <time>2017-06-28T09:09:26Z</time>
      </trkpt>
      <trkpt lat="45.97354" lon="4.84818">
        <ele>278</ele>
        <time>2017-06-28T09:09:27Z</time>
      </trkpt>
      <trkpt lat="45.97357" lon="4.84811">
        <ele>278</ele>
        <time>2017-06-28T09:09:28Z</time>
      </trkpt>
      <trkpt lat="45.9736" lon="4.84804">
        <ele>278</ele>
        <time>2017-06-28T09:09:29Z</time>
      </trkpt>
      <trkpt lat="45.97362" lon="4.84797">
        <ele>278</ele>
        <time>2017-06-28T09:09:30Z</time>
      </trkpt>
      <trkpt lat="45.97365" lon="4.8479">
        <ele>278</ele>
        <time>2017-06-28T09:09:31Z</time>
      </trkpt>
      <trkpt lat="45.97368" lon="4.84783">
        <ele>278</ele>
        <time>2017-06-28T09:09:32Z</time>
      </trkpt>
      <trkpt lat="45.97371" lon="4.84776">
        <ele>278</ele>
        <time>2017-06-28T09:09:33Z</time>
      </trkpt>
      <trkpt lat="45.97373" lon="4.84769">
        <ele>278</ele>
        <time>2017-06-28T09:09:34Z</time>
      </trkpt>
      <trkpt lat="45.97376" lon="4.84762">
        <ele>278</ele>
        <time>2017-06-28T09:09:35Z</time>
      </trkpt>
      <trkpt lat="45.97379" lon="4.84754">
        <ele>278</ele>
        <time>2017-06-28T09:09:36Z</time>
      </trkpt>
      <trkpt lat="45.97382" lon="4.84747">
        <ele>278</ele>
        <time>2017-06-28T09:09:37Z</time>
      </trkpt>
      <trkpt lat="45.97386" lon="4.8474">
        <ele>278</ele>
        <time>2017-06-28T09:09:38Z</time>
      </trkpt>
      <trkpt lat="45.97391" lon="4.84733">
        <ele>278</ele>
        <time>2017-06-28T09:09:39Z</time>
      </trkpt>
      <trkpt lat="45.97396" lon="4.84727">
        <ele>278</ele>
        <time>2017-06-28T09:09:40Z</time>
      </trkpt>
      <trkpt lat="45.97401" lon="4.84722">
        <ele>278</ele>
        <time>2017-06-28T09:09:41Z</time>
      </trkpt>
      <trkpt lat="45.97407" lon="4.84718">
        <ele>278</ele>
        <time>2017-06-28T09:09:42Z</time>
      </trkpt>
      <trkpt lat="45.97413" lon="4.84714">
        <ele>278</ele>
        <time>2017-06-28T09:09:43Z</time>
      </trkpt>
      <trkpt lat="45.97419" lon="4.84711">
        <ele>276</ele>
        <time>2017-06-28T09:09:44Z</time>
      </trkpt>
      <trkpt lat="45.97424" lon="4.84708">
        <ele>276</ele>
        <time>2017-06-28T09:09:45Z</time>
      </trkpt>
      <trkpt lat="45.9743" lon="4.84704">
        <ele>276</ele>
        <time>2017-06-28T09:09:46Z</time>
      </trkpt>
      <trkpt lat="45.97436" lon="4.84701">
        <ele>276</ele>
        <time>2017-06-28T09:09:47Z</time>
      </trkpt>
      <trkpt lat="45.97441" lon="4.84697">
        <ele>276</ele>
        <time>2017-06-28T09:09:48Z</time>
      </trkpt>
      <trkpt lat="45.97446" lon="4.84693">
        <ele>276</ele>
        <time>2017-06-28T09:09:49Z</time>
      </trkpt>
      <trkpt lat="45.97451" lon="4.84689">
        <ele>276</ele>
        <time>2017-06-28T09:09:50Z</time>
      </trkpt>
      <trkpt lat="45.97456" lon="4.84685">
        <ele>276</ele>
        <time>2017-06-28T09:09:51Z</time>
      </trkpt>
      <trkpt lat="45.97461" lon="4.84682">
        <ele>276</ele>
        <time>2017-06-28T09:09:52Z</time>
      </trkpt>
      <trkpt lat="45.97466" lon="4.84678">
        <ele>276</ele>
        <time>2017-06-28T09:09:53Z</time>
      </trkpt>
      <trkpt lat="45.97472" lon="4.84675">
        <ele>276</ele>
        <time>2017-06-28T09:09:54Z</time>
      </trkpt>
      <trkpt lat="45.97476" lon="4.84672">
        <ele>276</ele>
        <time>2017-06-28T09:09:55Z</time>
      </trkpt>
      <trkpt lat="45.97481" lon="4.84668">
        <ele>276</ele>
        <time>2017-06-28T09:09:56Z</time>
      </trkpt>
      <trkpt lat="45.97486" lon="4.84665">
        <ele>275</ele>
        <time>2017-06-28T09:09:57Z</time>
      </trkpt>
      <trkpt lat="45.97491" lon="4.84661">
        <ele>275</ele>
        <time>2017-06-28T09:09:58Z</time>
      </trkpt>
      <trkpt lat="45.97496" lon="4.84658">
        <ele>275</ele>
        <time>2017-06-28T09:09:59Z</time>
      </trkpt>
      <trkpt lat="45.97502" lon="4.84654">
        <ele>275</ele>
        <time>2017-06-28T09:10:00Z</time>
      </trkpt>
      <trkpt lat="45.97508" lon="4.8465">
        <ele>275</ele>
        <time>2017-06-28T09:10:01Z</time>
      </trkpt>
      <trkpt lat="45.97514" lon="4.84645">
        <ele>275</ele>
        <time>2017-06-28T09:10:02Z</time>
      </trkpt>
      <trkpt lat="45.9752" lon="4.84641">
        <ele>275</ele>
        <time>2017-06-28T09:10:03Z</time>
      </trkpt>
      <trkpt lat="45.97526" lon="4.84636">
        <ele>275</ele>
        <time>2017-06-28T09:10:04Z</time>
      </trkpt>
      <trkpt lat="45.97531" lon="4.84632">
        <ele>275</ele>
        <time>2017-06-28T09:10:05Z</time>
      </trkpt>
      <trkpt lat="45.97537" lon="4.84627">
        <ele>275</ele>
        <time>2017-06-28T09:10:06Z</time>
      </trkpt>
      <trkpt lat="45.97542" lon="4.84622">
        <ele>274</ele>
        <time>2017-06-28T09:10:07Z</time>
      </trkpt>
      <trkpt lat="45.97548" lon="4.84617">
        <ele>274</ele>
        <time>2017-06-28T09:10:08Z</time>
      </trkpt>
      <trkpt lat="45.97553" lon="4.84612">
        <ele>274</ele>
        <time>2017-06-28T09:10:09Z</time>
      </trkpt>
      <trkpt lat="45.97558" lon="4.84607">
        <ele>274</ele>
        <time>2017-06-28T09:10:10Z</time>
      </trkpt>
      <trkpt lat="45.97563" lon="4.84602">
        <ele>274</ele>
        <time>2017-06-28T09:10:11Z</time>
      </trkpt>
      <trkpt lat="45.97568" lon="4.84596">
        <ele>274</ele>
        <time>2017-06-28T09:10:12Z</time>
      </trkpt>
      <trkpt lat="45.97572" lon="4.84591">
        <ele>274</ele>
        <time>2017-06-28T09:10:13Z</time>
      </trkpt>
      <trkpt lat="45.97577" lon="4.84585">
        <ele>274</ele>
        <time>2017-06-28T09:10:14Z</time>
      </trkpt>
      <trkpt lat="45.97581" lon="4.8458">
        <ele>274</ele>
        <time>2017-06-28T09:10:15Z</time>
      </trkpt>
      <trkpt lat="45.97586" lon="4.84575">
        <ele>274</ele>
        <time>2017-06-28T09:10:16Z</time>
      </trkpt>
      <trkpt lat="45.9759" lon="4.84569">
        <ele>274</ele>
        <time>2017-06-28T09:10:17Z</time>
      </trkpt>
      <trkpt lat="45.97595" lon="4.84563">
        <ele>274</ele>
        <time>2017-06-28T09:10:18Z</time>
      </trkpt>
      <trkpt lat="45.976" lon="4.84557">
        <ele>275</ele>
        <time>2017-06-28T09:10:19Z</time>
      </trkpt>
      <trkpt lat="45.97604" lon="4.84551">
        <ele>275</ele>
        <time>2017-06-28T09:10:20Z</time>
      </trkpt>
      <trkpt lat="45.97609" lon="4.84545">
        <ele>275</ele>
        <time>2017-06-28T09:10:21Z</time>
      </trkpt>
      <trkpt lat="45.97614" lon="4.84538">
        <ele>275</ele>
        <time>2017-06-28T09:10:22Z</time>
      </trkpt>
      <trkpt lat="45.97619" lon="4.84532">
        <ele>275</ele>
        <time>2017-06-28T09:10:23Z</time>
      </trkpt>
      <trkpt lat="45.97625" lon="4.84525">
        <ele>275</ele>
        <time>2017-06-28T09:10:24Z</time>
      </trkpt>
      <trkpt lat="45.9763" lon="4.84519">
        <ele>275</ele>
        <time>2017-06-28T09:10:25Z</time>
      </trkpt>
      <trkpt lat="45.97635" lon="4.84513">
        <ele>275</ele>
        <time>2017-06-28T09:10:26Z</time>
      </trkpt>
      <trkpt lat="45.97641" lon="4.84506">
        <ele>275</ele>
        <time>2017-06-28T09:10:27Z</time>
      </trkpt>
      <trkpt lat="45.97646" lon="4.845">
        <ele>275</ele>
        <time>2017-06-28T09:10:28Z</time>
      </trkpt>
      <trkpt lat="45.97652" lon="4.84495">
        <ele>275</ele>
        <time>2017-06-28T09:10:29Z</time>
      </trkpt>
      <trkpt lat="45.97657" lon="4.84489">
        <ele>275</ele>
        <time>2017-06-28T09:10:30Z</time>
      </trkpt>
      <trkpt lat="45.97663" lon="4.84484">
        <ele>275</ele>
        <time>2017-06-28T09:10:31Z</time>
      </trkpt>
      <trkpt lat="45.97668" lon="4.8448">
        <ele>276</ele>
        <time>2017-06-28T09:10:32Z</time>
      </trkpt>
      <trkpt lat="45.97674" lon="4.84475">
        <ele>276</ele>
        <time>2017-06-28T09:10:33Z</time>
      </trkpt>
      <trkpt lat="45.97679" lon="4.84472">
        <ele>277</ele>
        <time>2017-06-28T09:10:34Z</time>
      </trkpt>
      <trkpt lat="45.97685" lon="4.84468">
        <ele>277</ele>
        <time>2017-06-28T09:10:35Z</time>
      </trkpt>
      <trkpt lat="45.97691" lon="4.84464">
        <ele>277</ele>
        <time>2017-06-28T09:10:36Z</time>
      </trkpt>
      <trkpt lat="45.97697" lon="4.84461">
        <ele>277</ele>
        <time>2017-06-28T09:10:37Z</time>
      </trkpt>
      <trkpt lat="45.97703" lon="4.84458">
        <ele>277</ele>
        <time>2017-06-28T09:10:38Z</time>
      </trkpt>
      <trkpt lat="45.97709" lon="4.84455">
        <ele>277</ele>
        <time>2017-06-28T09:10:39Z</time>
      </trkpt>
      <trkpt lat="45.97716" lon="4.84452">
        <ele>277</ele>
        <time>2017-06-28T09:10:40Z</time>
      </trkpt>
      <trkpt lat="45.97722" lon="4.8445">
        <ele>277</ele>
        <time>2017-06-28T09:10:41Z</time>
      </trkpt>
      <trkpt lat="45.97728" lon="4.84448">
        <ele>277</ele>
        <time>2017-06-28T09:10:42Z</time>
      </trkpt>
      <trkpt lat="45.97735" lon="4.84447">
        <ele>277</ele>
        <time>2017-06-28T09:10:43Z</time>
      </trkpt>
      <trkpt lat="45.97741" lon="4.84445">
        <ele>277</ele>
        <time>2017-06-28T09:10:44Z</time>
      </trkpt>
      <trkpt lat="45.97747" lon="4.84443">
        <ele>277</ele>
        <time>2017-06-28T09:10:45Z</time>
      </trkpt>
      <trkpt lat="45.97753" lon="4.84441">
        <ele>277</ele>
        <time>2017-06-28T09:10:46Z</time>
      </trkpt>
      <trkpt lat="45.97758" lon="4.84439">
        <ele>277</ele>
        <time>2017-06-28T09:10:47Z</time>
      </trkpt>
      <trkpt lat="45.97764" lon="4.84437">
        <ele>277</ele>
        <time>2017-06-28T09:10:48Z</time>
      </trkpt>
      <trkpt lat="45.9777" lon="4.84436">
        <ele>277</ele>
        <time>2017-06-28T09:10:49Z</time>
      </trkpt>
      <trkpt lat="45.97776" lon="4.84434">
        <ele>277</ele>
        <time>2017-06-28T09:10:50Z</time>
      </trkpt>
      <trkpt lat="45.97782" lon="4.84431">
        <ele>277</ele>
        <time>2017-06-28T09:10:51Z</time>
      </trkpt>
      <trkpt lat="45.97788" lon="4.84429">
        <ele>277</ele>
        <time>2017-06-28T09:10:52Z</time>
      </trkpt>
      <trkpt lat="45.97794" lon="4.84426">
        <ele>277</ele>
        <time>2017-06-28T09:10:53Z</time>
      </trkpt>
      <trkpt lat="45.97801" lon="4.84423">
        <ele>277</ele>
        <time>2017-06-28T09:10:54Z</time>
      </trkpt>
      <trkpt lat="45.97807" lon="4.8442">
        <ele>277</ele>
        <time>2017-06-28T09:10:55Z</time>
      </trkpt>
      <trkpt lat="45.97813" lon="4.84416">
        <ele>276</ele>
        <time>2017-06-28T09:10:56Z</time>
      </trkpt>
      <trkpt lat="45.97819" lon="4.84412">
        <ele>276</ele>
        <time>2017-06-28T09:10:57Z</time>
      </trkpt>
      <trkpt lat="45.97825" lon="4.84407">
        <ele>276</ele>
        <time>2017-06-28T09:10:58Z</time>
      </trkpt>
      <trkpt lat="45.97831" lon="4.84402">
        <ele>276</ele>
        <time>2017-06-28T09:10:59Z</time>
      </trkpt>
      <trkpt lat="45.97837" lon="4.84397">
        <ele>276</ele>
        <time>2017-06-28T09:11:00Z</time>
      </trkpt>
      <trkpt lat="45.97842" lon="4.84392">
        <ele>276</ele>
        <time>2017-06-28T09:11:01Z</time>
      </trkpt>
      <trkpt lat="45.97848" lon="4.84386">
        <ele>276</ele>
        <time>2017-06-28T09:11:02Z</time>
      </trkpt>
      <trkpt lat="45.97853" lon="4.8438">
        <ele>276</ele>
        <time>2017-06-28T09:11:03Z</time>
      </trkpt>
      <trkpt lat="45.97858" lon="4.84374">
        <ele>276</ele>
        <time>2017-06-28T09:11:04Z</time>
      </trkpt>
      <trkpt lat="45.97863" lon="4.84368">
        <ele>276</ele>
        <time>2017-06-28T09:11:05Z</time>
      </trkpt>
      <trkpt lat="45.97867" lon="4.84362">
        <ele>276</ele>
        <time>2017-06-28T09:11:06Z</time>
      </trkpt>
      <trkpt lat="45.97871" lon="4.84355">
        <ele>276</ele>
        <time>2017-06-28T09:11:07Z</time>
      </trkpt>
      <trkpt lat="45.97875" lon="4.84349">
        <ele>276</ele>
        <time>2017-06-28T09:11:08Z</time>
      </trkpt>
      <trkpt lat="45.97878" lon="4.84342">
        <ele>275</ele>
        <time>2017-06-28T09:11:09Z</time>
      </trkpt>
      <trkpt lat="45.97882" lon="4.84336">
        <ele>275</ele>
        <time>2017-06-28T09:11:10Z</time>
      </trkpt>
      <trkpt lat="45.97886" lon="4.84329">
        <ele>275</ele>
        <time>2017-06-28T09:11:11Z</time>
      </trkpt>
      <trkpt lat="45.9789" lon="4.84323">
        <ele>275</ele>
        <time>2017-06-28T09:11:12Z</time>
      </trkpt>
      <trkpt lat="45.97894" lon="4.84317">
        <ele>275</ele>
        <time>2017-06-28T09:11:13Z</time>
      </trkpt>
      <trkpt lat="45.97898" lon="4.84311">
        <ele>275</ele>
        <time>2017-06-28T09:11:14Z</time>
      </trkpt>
      <trkpt lat="45.97901" lon="4.84305">
        <ele>275</ele>
        <time>2017-06-28T09:11:15Z</time>
      </trkpt>
      <trkpt lat="45.97906" lon="4.84299">
        <ele>275</ele>
        <time>2017-06-28T09:11:16Z</time>
      </trkpt>
      <trkpt lat="45.9791" lon="4.84293">
        <ele>275</ele>
        <time>2017-06-28T09:11:17Z</time>
      </trkpt>
      <trkpt lat="45.97914" lon="4.84286">
        <ele>275</ele>
        <time>2017-06-28T09:11:18Z</time>
      </trkpt>
      <trkpt lat="45.97919" lon="4.8428">
        <ele>275</ele>
        <time>2017-06-28T09:11:19Z</time>
      </trkpt>
      <trkpt lat="45.97924" lon="4.84274">
        <ele>275</ele>
        <time>2017-06-28T09:11:20Z</time>
      </trkpt>
      <trkpt lat="45.97929" lon="4.84268">
        <ele>275</ele>
        <time>2017-06-28T09:11:21Z</time>
      </trkpt>
      <trkpt lat="45.97935" lon="4.84263">
        <ele>275</ele>
        <time>2017-06-28T09:11:22Z</time>
      </trkpt>
      <trkpt lat="45.9794" lon="4.84257">
        <ele>275</ele>
        <time>2017-06-28T09:11:23Z</time>
      </trkpt>
      <trkpt lat="45.97946" lon="4.84252">
        <ele>275</ele>
        <time>2017-06-28T09:11:24Z</time>
      </trkpt>
      <trkpt lat="45.97951" lon="4.84247">
        <ele>275</ele>
        <time>2017-06-28T09:11:25Z</time>
      </trkpt>
      <trkpt lat="45.97957" lon="4.84242">
        <ele>275</ele>
        <time>2017-06-28T09:11:26Z</time>
      </trkpt>
      <trkpt lat="45.97962" lon="4.84237">
        <ele>274</ele>
        <time>2017-06-28T09:11:27Z</time>
      </trkpt>
      <trkpt lat="45.97967" lon="4.84232">
        <ele>274</ele>
        <time>2017-06-28T09:11:28Z</time>
      </trkpt>
      <trkpt lat="45.97972" lon="4.84227">
        <ele>274</ele>
        <time>2017-06-28T09:11:29Z</time>
      </trkpt>
      <trkpt lat="45.97977" lon="4.84222">
        <ele>274</ele>
        <time>2017-06-28T09:11:30Z</time>
      </trkpt>
      <trkpt lat="45.97982" lon="4.84217">
        <ele>274</ele>
        <time>2017-06-28T09:11:31Z</time>
      </trkpt>
      <trkpt lat="45.97987" lon="4.84213">
        <ele>274</ele>
        <time>2017-06-28T09:11:32Z</time>
      </trkpt>
      <trkpt lat="45.97992" lon="4.84208">
        <ele>274</ele>
        <time>2017-06-28T09:11:33Z</time>
      </trkpt>
      <trkpt lat="45.97997" lon="4.84203">
        <ele>274</ele>
        <time>2017-06-28T09:11:34Z</time>
      </trkpt>
      <trkpt lat="45.98002" lon="4.84199">
        <ele>274</ele>
        <time>2017-06-28T09:11:35Z</time>
      </trkpt>
      <trkpt lat="45.98007" lon="4.84194">
        <ele>274</ele>
        <time>2017-06-28T09:11:36Z</time>
      </trkpt>
      <trkpt lat="45.98012" lon="4.84189">
        <ele>274</ele>
        <time>2017-06-28T09:11:37Z</time>
      </trkpt>
      <trkpt lat="45.98016" lon="4.84185">
        <ele>274</ele>
        <time>2017-06-28T09:11:38Z</time>
      </trkpt>
      <trkpt lat="45.98021" lon="4.84181">
        <ele>274</ele>
        <time>2017-06-28T09:11:39Z</time>
      </trkpt>
      <trkpt lat="45.98025" lon="4.84176">
        <ele>274</ele>
        <time>2017-06-28T09:11:40Z</time>
      </trkpt>
      <trkpt lat="45.9803" lon="4.84172">
        <ele>274</ele>
        <time>2017-06-28T09:11:41Z</time>
      </trkpt>
      <trkpt lat="45.98034" lon="4.84168">
        <ele>273</ele>
        <time>2017-06-28T09:11:42Z</time>
      </trkpt>
      <trkpt lat="45.98038" lon="4.84163">
        <ele>273</ele>
        <time>2017-06-28T09:11:43Z</time>
      </trkpt>
      <trkpt lat="45.98043" lon="4.84159">
        <ele>273</ele>
        <time>2017-06-28T09:11:44Z</time>
      </trkpt>
      <trkpt lat="45.98048" lon="4.84154">
        <ele>273</ele>
        <time>2017-06-28T09:11:45Z</time>
      </trkpt>
      <trkpt lat="45.98053" lon="4.84149">
        <ele>273</ele>
        <time>2017-06-28T09:11:46Z</time>
      </trkpt>
      <trkpt lat="45.98058" lon="4.84145">
        <ele>273</ele>
        <time>2017-06-28T09:11:47Z</time>
      </trkpt>
      <trkpt lat="45.98064" lon="4.84139">
        <ele>273</ele>
        <time>2017-06-28T09:11:48Z</time>
      </trkpt>
      <trkpt lat="45.98069" lon="4.84135">
        <ele>273</ele>
        <time>2017-06-28T09:11:49Z</time>
      </trkpt>
      <trkpt lat="45.98075" lon="4.8413">
        <ele>273</ele>
        <time>2017-06-28T09:11:50Z</time>
      </trkpt>
      <trkpt lat="45.9808" lon="4.84125">
        <ele>273</ele>
        <time>2017-06-28T09:11:51Z</time>
      </trkpt>
      <trkpt lat="45.98085" lon="4.84121">
        <ele>273</ele>
        <time>2017-06-28T09:11:52Z</time>
      </trkpt>
      <trkpt lat="45.9809" lon="4.84116">
        <ele>273</ele>
        <time>2017-06-28T09:11:53Z</time>
      </trkpt>
      <trkpt lat="45.98095" lon="4.84111">
        <ele>273</ele>
        <time>2017-06-28T09:11:54Z</time>
      </trkpt>
      <trkpt lat="45.981" lon="4.84106">
        <ele>273</ele>
        <time>2017-06-28T09:11:55Z</time>
      </trkpt>
      <trkpt lat="45.98105" lon="4.84101">
        <ele>273</ele>
        <time>2017-06-28T09:11:56Z</time>
      </trkpt>
      <trkpt lat="45.9811" lon="4.84096">
        <ele>273</ele>
        <time>2017-06-28T09:11:57Z</time>
      </trkpt>
      <trkpt lat="45.98115" lon="4.84091">
        <ele>273</ele>
        <time>2017-06-28T09:11:58Z</time>
      </trkpt>
      <trkpt lat="45.98121" lon="4.84085">
        <ele>273</ele>
        <time>2017-06-28T09:11:59Z</time>
      </trkpt>
      <trkpt lat="45.98126" lon="4.8408">
        <ele>273</ele>
        <time>2017-06-28T09:12:00Z</time>
      </trkpt>
      <trkpt lat="45.98132" lon="4.84073">
        <ele>273</ele>
        <time>2017-06-28T09:12:01Z</time>
      </trkpt>
      <trkpt lat="45.98137" lon="4.84067">
        <ele>273</ele>
        <time>2017-06-28T09:12:02Z</time>
      </trkpt>
      <trkpt lat="45.98143" lon="4.8406">
        <ele>273</ele>
        <time>2017-06-28T09:12:03Z</time>
      </trkpt>
      <trkpt lat="45.98148" lon="4.84053">
        <ele>273</ele>
        <time>2017-06-28T09:12:04Z</time>
      </trkpt>
      <trkpt lat="45.98153" lon="4.84046">
        <ele>273</ele>
        <time>2017-06-28T09:12:05Z</time>
      </trkpt>
      <trkpt lat="45.98158" lon="4.84038">
        <ele>273</ele>
        <time>2017-06-28T09:12:06Z</time>
      </trkpt>
      <trkpt lat="45.98162" lon="4.84031">
        <ele>273</ele>
        <time>2017-06-28T09:12:07Z</time>
      </trkpt>
      <trkpt lat="45.98166" lon="4.84023">
        <ele>273</ele>
        <time>2017-06-28T09:12:08Z</time>
      </trkpt>
      <trkpt lat="45.9817" lon="4.84015">
        <ele>273</ele>
        <time>2017-06-28T09:12:09Z</time>
      </trkpt>
      <trkpt lat="45.98174" lon="4.84008">
        <ele>273</ele>
        <time>2017-06-28T09:12:10Z</time>
      </trkpt>
      <trkpt lat="45.98178" lon="4.84">
        <ele>273</ele>
        <time>2017-06-28T09:12:11Z</time>
      </trkpt>
      <trkpt lat="45.98181" lon="4.83992">
        <ele>273</ele>
        <time>2017-06-28T09:12:12Z</time>
      </trkpt>
      <trkpt lat="45.98184" lon="4.83984">
        <ele>273</ele>
        <time>2017-06-28T09:12:13Z</time>
      </trkpt>
      <trkpt lat="45.98188" lon="4.83976">
        <ele>273</ele>
        <time>2017-06-28T09:12:14Z</time>
      </trkpt>
      <trkpt lat="45.9819" lon="4.83968">
        <ele>273</ele>
        <time>2017-06-28T09:12:15Z</time>
      </trkpt>
      <trkpt lat="45.98193" lon="4.8396">
        <ele>273</ele>
        <time>2017-06-28T09:12:16Z</time>
      </trkpt>
      <trkpt lat="45.98195" lon="4.83952">
        <ele>273</ele>
        <time>2017-06-28T09:12:17Z</time>
      </trkpt>
      <trkpt lat="45.98198" lon="4.83945">
        <ele>273</ele>
        <time>2017-06-28T09:12:18Z</time>
      </trkpt>
      <trkpt lat="45.982" lon="4.83938">
        <ele>273</ele>
        <time>2017-06-28T09:12:19Z</time>
      </trkpt>
      <trkpt lat="45.98203" lon="4.8393">
        <ele>273</ele>
        <time>2017-06-28T09:12:20Z</time>
      </trkpt>
      <trkpt lat="45.98205" lon="4.83922">
        <ele>273</ele>
        <time>2017-06-28T09:12:21Z</time>
      </trkpt>
      <trkpt lat="45.98207" lon="4.83915">
        <ele>273</ele>
        <time>2017-06-28T09:12:22Z</time>
      </trkpt>
      <trkpt lat="45.9821" lon="4.83907">
        <ele>273</ele>
        <time>2017-06-28T09:12:23Z</time>
      </trkpt>
      <trkpt lat="45.98213" lon="4.83899">
        <ele>273</ele>
        <time>2017-06-28T09:12:24Z</time>
      </trkpt>
      <trkpt lat="45.98215" lon="4.8389">
        <ele>273</ele>
        <time>2017-06-28T09:12:25Z</time>
      </trkpt>
      <trkpt lat="45.98218" lon="4.83883">
        <ele>272</ele>
        <time>2017-06-28T09:12:26Z</time>
      </trkpt>
      <trkpt lat="45.9822" lon="4.83876">
        <ele>272</ele>
        <time>2017-06-28T09:12:27Z</time>
      </trkpt>
      <trkpt lat="45.98223" lon="4.83868">
        <ele>272</ele>
        <time>2017-06-28T09:12:28Z</time>
      </trkpt>
      <trkpt lat="45.98225" lon="4.83861">
        <ele>272</ele>
        <time>2017-06-28T09:12:29Z</time>
      </trkpt>
      <trkpt lat="45.98227" lon="4.83854">
        <ele>272</ele>
        <time>2017-06-28T09:12:30Z</time>
      </trkpt>
      <trkpt lat="45.9823" lon="4.83847">
        <ele>272</ele>
        <time>2017-06-28T09:12:31Z</time>
      </trkpt>
      <trkpt lat="45.98233" lon="4.8384">
        <ele>272</ele>
        <time>2017-06-28T09:12:32Z</time>
      </trkpt>
      <trkpt lat="45.98235" lon="4.83833">
        <ele>272</ele>
        <time>2017-06-28T09:12:33Z</time>
      </trkpt>
      <trkpt lat="45.98238" lon="4.83825">
        <ele>272</ele>
        <time>2017-06-28T09:12:34Z</time>
      </trkpt>
      <trkpt lat="45.9824" lon="4.83817">
        <ele>272</ele>
        <time>2017-06-28T09:12:35Z</time>
      </trkpt>
      <trkpt lat="45.98244" lon="4.83808">
        <ele>272</ele>
        <time>2017-06-28T09:12:36Z</time>
      </trkpt>
      <trkpt lat="45.98247" lon="4.83799">
        <ele>272</ele>
        <time>2017-06-28T09:12:37Z</time>
      </trkpt>
      <trkpt lat="45.9825" lon="4.8379">
        <ele>272</ele>
        <time>2017-06-28T09:12:38Z</time>
      </trkpt>
      <trkpt lat="45.98253" lon="4.83781">
        <ele>272</ele>
        <time>2017-06-28T09:12:39Z</time>
      </trkpt>
      <trkpt lat="45.98257" lon="4.83772">
        <ele>272</ele>
        <time>2017-06-28T09:12:40Z</time>
      </trkpt>
      <trkpt lat="45.9826" lon="4.83764">
        <ele>272</ele>
        <time>2017-06-28T09:12:41Z</time>
      </trkpt>
      <trkpt lat="45.98262" lon="4.83755">
        <ele>272</ele>
        <time>2017-06-28T09:12:42Z</time>
      </trkpt>
      <trkpt lat="45.98265" lon="4.83747">
        <ele>272</ele>
        <time>2017-06-28T09:12:43Z</time>
      </trkpt>
      <trkpt lat="45.98268" lon="4.83739">
        <ele>272</ele>
        <time>2017-06-28T09:12:44Z</time>
      </trkpt>
      <trkpt lat="45.98271" lon="4.8373">
        <ele>272</ele>
        <time>2017-06-28T09:12:45Z</time>
      </trkpt>
      <trkpt lat="45.98274" lon="4.83722">
        <ele>272</ele>
        <time>2017-06-28T09:12:46Z</time>
      </trkpt>
      <trkpt lat="45.98277" lon="4.83715">
        <ele>272</ele>
        <time>2017-06-28T09:12:47Z</time>
      </trkpt>
      <trkpt lat="45.9828" lon="4.83707">
        <ele>272</ele>
        <time>2017-06-28T09:12:48Z</time>
      </trkpt>
      <trkpt lat="45.98283" lon="4.837">
        <ele>272</ele>
        <time>2017-06-28T09:12:49Z</time>
      </trkpt>
      <trkpt lat="45.98286" lon="4.83692">
        <ele>272</ele>
        <time>2017-06-28T09:12:50Z</time>
      </trkpt>
      <trkpt lat="45.98289" lon="4.83684">
        <ele>272</ele>
        <time>2017-06-28T09:12:51Z</time>
      </trkpt>
      <trkpt lat="45.98291" lon="4.83677">
        <ele>272</ele>
        <time>2017-06-28T09:12:52Z</time>
      </trkpt>
      <trkpt lat="45.98294" lon="4.83669">
        <ele>272</ele>
        <time>2017-06-28T09:12:53Z</time>
      </trkpt>
      <trkpt lat="45.98297" lon="4.83661">
        <ele>271</ele>
        <time>2017-06-28T09:12:54Z</time>
      </trkpt>
      <trkpt lat="45.983" lon="4.83653">
        <ele>271</ele>
        <time>2017-06-28T09:12:55Z</time>
      </trkpt>
      <trkpt lat="45.98304" lon="4.83646">
        <ele>271</ele>
        <time>2017-06-28T09:12:56Z</time>
      </trkpt>
      <trkpt lat="45.98307" lon="4.83638">
        <ele>271</ele>
        <time>2017-06-28T09:12:57Z</time>
      </trkpt>
      <trkpt lat="45.98311" lon="4.83631">
        <ele>271</ele>
        <time>2017-06-28T09:12:58Z</time>
      </trkpt>
      <trkpt lat="45.98315" lon="4.83624">
        <ele>271</ele>
        <time>2017-06-28T09:12:59Z</time>
      </trkpt>
      <trkpt lat="45.98319" lon="4.83617">
        <ele>271</ele>
        <time>2017-06-28T09:13:00Z</time>
      </trkpt>
      <trkpt lat="45.98323" lon="4.8361">
        <ele>271</ele>
        <time>2017-06-28T09:13:01Z</time>
      </trkpt>
      <trkpt lat="45.98327" lon="4.83604">
        <ele>271</ele>
        <time>2017-06-28T09:13:02Z</time>
      </trkpt>
      <trkpt lat="45.98331" lon="4.83598">
        <ele>271</ele>
        <time>2017-06-28T09:13:03Z</time>
      </trkpt>
      <trkpt lat="45.98335" lon="4.83592">
        <ele>270</ele>
        <time>2017-06-28T09:13:04Z</time>
      </trkpt>
      <trkpt lat="45.98339" lon="4.83586">
        <ele>270</ele>
        <time>2017-06-28T09:13:05Z</time>
      </trkpt>
      <trkpt lat="45.98344" lon="4.8358">
        <ele>270</ele>
        <time>2017-06-28T09:13:06Z</time>
      </trkpt>
      <trkpt lat="45.98348" lon="4.83574">
        <ele>269</ele>
        <time>2017-06-28T09:13:07Z</time>
      </trkpt>
      <trkpt lat="45.98352" lon="4.83568">
        <ele>269</ele>
        <time>2017-06-28T09:13:08Z</time>
      </trkpt>
      <trkpt lat="45.98357" lon="4.83562">
        <ele>269</ele>
        <time>2017-06-28T09:13:09Z</time>
      </trkpt>
      <trkpt lat="45.98361" lon="4.83557">
        <ele>269</ele>
        <time>2017-06-28T09:13:10Z</time>
      </trkpt>
      <trkpt lat="45.98366" lon="4.8355">
        <ele>269</ele>
        <time>2017-06-28T09:13:11Z</time>
      </trkpt>
      <trkpt lat="45.9837" lon="4.83544">
        <ele>269</ele>
        <time>2017-06-28T09:13:12Z</time>
      </trkpt>
      <trkpt lat="45.98375" lon="4.83538">
        <ele>269</ele>
        <time>2017-06-28T09:13:13Z</time>
      </trkpt>
      <trkpt lat="45.98379" lon="4.83532">
        <ele>269</ele>
        <time>2017-06-28T09:13:14Z</time>
      </trkpt>
      <trkpt lat="45.98384" lon="4.83526">
        <ele>269</ele>
        <time>2017-06-28T09:13:15Z</time>
      </trkpt>
      <trkpt lat="45.98388" lon="4.8352">
        <ele>269</ele>
        <time>2017-06-28T09:13:16Z</time>
      </trkpt>
      <trkpt lat="45.98393" lon="4.83513">
        <ele>269</ele>
        <time>2017-06-28T09:13:17Z</time>
      </trkpt>
      <trkpt lat="45.98398" lon="4.83507">
        <ele>269</ele>
        <time>2017-06-28T09:13:18Z</time>
      </trkpt>
      <trkpt lat="45.98404" lon="4.835">
        <ele>269</ele>
        <time>2017-06-28T09:13:19Z</time>
      </trkpt>
      <trkpt lat="45.98409" lon="4.83493">
        <ele>268</ele>
        <time>2017-06-28T09:13:20Z</time>
      </trkpt>
      <trkpt lat="45.98414" lon="4.83486">
        <ele>269</ele>
        <time>2017-06-28T09:13:21Z</time>
      </trkpt>
      <trkpt lat="45.9842" lon="4.83479">
        <ele>268</ele>
        <time>2017-06-28T09:13:22Z</time>
      </trkpt>
      <trkpt lat="45.98425" lon="4.83473">
        <ele>268</ele>
        <time>2017-06-28T09:13:23Z</time>
      </trkpt>
      <trkpt lat="45.9843" lon="4.83466">
        <ele>268</ele>
        <time>2017-06-28T09:13:24Z</time>
      </trkpt>
      <trkpt lat="45.98435" lon="4.83459">
        <ele>268</ele>
        <time>2017-06-28T09:13:25Z</time>
      </trkpt>
      <trkpt lat="45.98439" lon="4.83453">
        <ele>268</ele>
        <time>2017-06-28T09:13:26Z</time>
      </trkpt>
      <trkpt lat="45.98444" lon="4.83447">
        <ele>268</ele>
        <time>2017-06-28T09:13:27Z</time>
      </trkpt>
      <trkpt lat="45.98448" lon="4.83441">
        <ele>268</ele>
        <time>2017-06-28T09:13:28Z</time>
      </trkpt>
      <trkpt lat="45.98453" lon="4.83435">
        <ele>268</ele>
        <time>2017-06-28T09:13:29Z</time>
      </trkpt>
      <trkpt lat="45.98457" lon="4.8343">
        <ele>268</ele>
        <time>2017-06-28T09:13:30Z</time>
      </trkpt>
      <trkpt lat="45.98462" lon="4.83424">
        <ele>269</ele>
        <time>2017-06-28T09:13:31Z</time>
      </trkpt>
      <trkpt lat="45.98466" lon="4.83418">
        <ele>269</ele>
        <time>2017-06-28T09:13:32Z</time>
      </trkpt>
      <trkpt lat="45.9847" lon="4.83412">
        <ele>269</ele>
        <time>2017-06-28T09:13:33Z</time>
      </trkpt>
      <trkpt lat="45.98475" lon="4.83406">
        <ele>269</ele>
        <time>2017-06-28T09:13:34Z</time>
      </trkpt>
      <trkpt lat="45.98479" lon="4.83399">
        <ele>269</ele>
        <time>2017-06-28T09:13:35Z</time>
      </trkpt>
      <trkpt lat="45.98484" lon="4.83393">
        <ele>269</ele>
        <time>2017-06-28T09:13:36Z</time>
      </trkpt>
      <trkpt lat="45.98489" lon="4.83386">
        <ele>269</ele>
        <time>2017-06-28T09:13:37Z</time>
      </trkpt>
      <trkpt lat="45.98493" lon="4.83381">
        <ele>269</ele>
        <time>2017-06-28T09:13:38Z</time>
      </trkpt>
      <trkpt lat="45.98498" lon="4.83375">
        <ele>270</ele>
        <time>2017-06-28T09:13:39Z</time>
      </trkpt>
      <trkpt lat="45.98502" lon="4.8337">
        <ele>269</ele>
        <time>2017-06-28T09:13:40Z</time>
      </trkpt>
      <trkpt lat="45.98505" lon="4.83364">
        <ele>269</ele>
        <time>2017-06-28T09:13:41Z</time>
      </trkpt>
      <trkpt lat="45.98509" lon="4.83359">
        <ele>269</ele>
        <time>2017-06-28T09:13:42Z</time>
      </trkpt>
      <trkpt lat="45.98513" lon="4.83354">
        <ele>270</ele>
        <time>2017-06-28T09:13:43Z</time>
      </trkpt>
      <trkpt lat="45.98516" lon="4.83349">
        <ele>270</ele>
        <time>2017-06-28T09:13:44Z</time>
      </trkpt>
      <trkpt lat="45.9852" lon="4.83344">
        <ele>270</ele>
        <time>2017-06-28T09:13:45Z</time>
      </trkpt>
      <trkpt lat="45.98524" lon="4.83338">
        <ele>270</ele>
        <time>2017-06-28T09:13:46Z</time>
      </trkpt>
      <trkpt lat="45.98529" lon="4.83333">
        <ele>269</ele>
        <time>2017-06-28T09:13:47Z</time>
      </trkpt>
      <trkpt lat="45.98533" lon="4.83327">
        <ele>269</ele>
        <time>2017-06-28T09:13:48Z</time>
      </trkpt>
      <trkpt lat="45.98537" lon="4.83321">
        <ele>269</ele>
        <time>2017-06-28T09:13:49Z</time>
      </trkpt>
      <trkpt lat="45.98542" lon="4.83315">
        <ele>269</ele>
        <time>2017-06-28T09:13:50Z</time>
      </trkpt>
      <trkpt lat="45.98546" lon="4.83309">
        <ele>269</ele>
        <time>2017-06-28T09:13:51Z</time>
      </trkpt>
      <trkpt lat="45.9855" lon="4.83303">
        <ele>269</ele>
        <time>2017-06-28T09:13:52Z</time>
      </trkpt>
      <trkpt lat="45.98554" lon="4.83297">
        <ele>269</ele>
        <time>2017-06-28T09:13:53Z</time>
      </trkpt>
      <trkpt lat="45.98559" lon="4.83292">
        <ele>269</ele>
        <time>2017-06-28T09:13:54Z</time>
      </trkpt>
      <trkpt lat="45.98562" lon="4.83286">
        <ele>269</ele>
        <time>2017-06-28T09:13:55Z</time>
      </trkpt>
      <trkpt lat="45.98567" lon="4.8328">
        <ele>269</ele>
        <time>2017-06-28T09:13:56Z</time>
      </trkpt>
      <trkpt lat="45.98571" lon="4.83274">
        <ele>269</ele>
        <time>2017-06-28T09:13:57Z</time>
      </trkpt>
      <trkpt lat="45.98575" lon="4.83269">
        <ele>269</ele>
        <time>2017-06-28T09:13:58Z</time>
      </trkpt>
      <trkpt lat="45.98579" lon="4.83263">
        <ele>269</ele>
        <time>2017-06-28T09:13:59Z</time>
      </trkpt>
      <trkpt lat="45.98583" lon="4.83258">
        <ele>268</ele>
        <time>2017-06-28T09:14:00Z</time>
      </trkpt>
      <trkpt lat="45.98587" lon="4.83253">
        <ele>268</ele>
        <time>2017-06-28T09:14:01Z</time>
      </trkpt>
      <trkpt lat="45.98591" lon="4.83248">
        <ele>268</ele>
        <time>2017-06-28T09:14:02Z</time>
      </trkpt>
      <trkpt lat="45.98595" lon="4.83242">
        <ele>268</ele>
        <time>2017-06-28T09:14:03Z</time>
      </trkpt>
      <trkpt lat="45.98599" lon="4.83237">
        <ele>268</ele>
        <time>2017-06-28T09:14:04Z</time>
      </trkpt>
      <trkpt lat="45.98603" lon="4.83231">
        <ele>268</ele>
        <time>2017-06-28T09:14:05Z</time>
      </trkpt>
      <trkpt lat="45.98607" lon="4.83226">
        <ele>267</ele>
        <time>2017-06-28T09:14:06Z</time>
      </trkpt>
      <trkpt lat="45.98611" lon="4.83221">
        <ele>267</ele>
        <time>2017-06-28T09:14:07Z</time>
      </trkpt>
      <trkpt lat="45.98615" lon="4.83215">
        <ele>267</ele>
        <time>2017-06-28T09:14:08Z</time>
      </trkpt>
      <trkpt lat="45.9862" lon="4.8321">
        <ele>267</ele>
        <time>2017-06-28T09:14:09Z</time>
      </trkpt>
      <trkpt lat="45.98624" lon="4.83205">
        <ele>267</ele>
        <time>2017-06-28T09:14:10Z</time>
      </trkpt>
      <trkpt lat="45.98629" lon="4.832">
        <ele>267</ele>
        <time>2017-06-28T09:14:11Z</time>
      </trkpt>
      <trkpt lat="45.98633" lon="4.83195">
        <ele>267</ele>
        <time>2017-06-28T09:14:12Z</time>
      </trkpt>
      <trkpt lat="45.98638" lon="4.83189">
        <ele>267</ele>
        <time>2017-06-28T09:14:13Z</time>
      </trkpt>
      <trkpt lat="45.98643" lon="4.83184">
        <ele>267</ele>
        <time>2017-06-28T09:14:14Z</time>
      </trkpt>
      <trkpt lat="45.98648" lon="4.8318">
        <ele>267</ele>
        <time>2017-06-28T09:14:15Z</time>
      </trkpt>
      <trkpt lat="45.98653" lon="4.83175">
        <ele>267</ele>
        <time>2017-06-28T09:14:16Z</time>
      </trkpt>
      <trkpt lat="45.98659" lon="4.8317">
        <ele>266</ele>
        <time>2017-06-28T09:14:17Z</time>
      </trkpt>
      <trkpt lat="45.98664" lon="4.83166">
        <ele>266</ele>
        <time>2017-06-28T09:14:18Z</time>
      </trkpt>
      <trkpt lat="45.9867" lon="4.83162">
        <ele>266</ele>
        <time>2017-06-28T09:14:19Z</time>
      </trkpt>
      <trkpt lat="45.98676" lon="4.83157">
        <ele>266</ele>
        <time>2017-06-28T09:14:20Z</time>
      </trkpt>
      <trkpt lat="45.98681" lon="4.83152">
        <ele>266</ele>
        <time>2017-06-28T09:14:21Z</time>
      </trkpt>
      <trkpt lat="45.98687" lon="4.83148">
        <ele>266</ele>
        <time>2017-06-28T09:14:22Z</time>
      </trkpt>
      <trkpt lat="45.98692" lon="4.83144">
        <ele>266</ele>
        <time>2017-06-28T09:14:23Z</time>
      </trkpt>
      <trkpt lat="45.98697" lon="4.8314">
        <ele>266</ele>
        <time>2017-06-28T09:14:24Z</time>
      </trkpt>
      <trkpt lat="45.98702" lon="4.83136">
        <ele>266</ele>
        <time>2017-06-28T09:14:25Z</time>
      </trkpt>
      <trkpt lat="45.98708" lon="4.83132">
        <ele>266</ele>
        <time>2017-06-28T09:14:26Z</time>
      </trkpt>
      <trkpt lat="45.98713" lon="4.83128">
        <ele>266</ele>
        <time>2017-06-28T09:14:27Z</time>
      </trkpt>
      <trkpt lat="45.98718" lon="4.83123">
        <ele>266</ele>
        <time>2017-06-28T09:14:28Z</time>
      </trkpt>
      <trkpt lat="45.98723" lon="4.83119">
        <ele>266</ele>
        <time>2017-06-28T09:14:29Z</time>
      </trkpt>
      <trkpt lat="45.98729" lon="4.83114">
        <ele>267</ele>
        <time>2017-06-28T09:14:30Z</time>
      </trkpt>
      <trkpt lat="45.98734" lon="4.83109">
        <ele>267</ele>
        <time>2017-06-28T09:14:31Z</time>
      </trkpt>
      <trkpt lat="45.9874" lon="4.83105">
        <ele>267</ele>
        <time>2017-06-28T09:14:32Z</time>
      </trkpt>
      <trkpt lat="45.98745" lon="4.831">
        <ele>267</ele>
        <time>2017-06-28T09:14:33Z</time>
      </trkpt>
      <trkpt lat="45.9875" lon="4.83096">
        <ele>267</ele>
        <time>2017-06-28T09:14:34Z</time>
      </trkpt>
      <trkpt lat="45.98756" lon="4.83091">
        <ele>266</ele>
        <time>2017-06-28T09:14:35Z</time>
      </trkpt>
      <trkpt lat="45.98761" lon="4.83087">
        <ele>266</ele>
        <time>2017-06-28T09:14:36Z</time>
      </trkpt>
      <trkpt lat="45.98767" lon="4.83082">
        <ele>266</ele>
        <time>2017-06-28T09:14:37Z</time>
      </trkpt>
      <trkpt lat="45.98773" lon="4.83077">
        <ele>265</ele>
        <time>2017-06-28T09:14:38Z</time>
      </trkpt>
      <trkpt lat="45.98778" lon="4.83072">
        <ele>265</ele>
        <time>2017-06-28T09:14:39Z</time>
      </trkpt>
      <trkpt lat="45.98785" lon="4.83067">
        <ele>265</ele>
        <time>2017-06-28T09:14:40Z</time>
      </trkpt>
      <trkpt lat="45.98791" lon="4.83062">
        <ele>265</ele>
        <time>2017-06-28T09:14:41Z</time>
      </trkpt>
      <trkpt lat="45.98797" lon="4.83056">
        <ele>264</ele>
        <time>2017-06-28T09:14:42Z</time>
      </trkpt>
      <trkpt lat="45.98803" lon="4.8305">
        <ele>264</ele>
        <time>2017-06-28T09:14:43Z</time>
      </trkpt>
      <trkpt lat="45.98809" lon="4.83045">
        <ele>264</ele>
        <time>2017-06-28T09:14:44Z</time>
      </trkpt>
      <trkpt lat="45.98816" lon="4.8304">
        <ele>264</ele>
        <time>2017-06-28T09:14:45Z</time>
      </trkpt>
      <trkpt lat="45.98822" lon="4.83034">
        <ele>264</ele>
        <time>2017-06-28T09:14:46Z</time>
      </trkpt>
      <trkpt lat="45.98828" lon="4.83029">
        <ele>264</ele>
        <time>2017-06-28T09:14:47Z</time>
      </trkpt>
      <trkpt lat="45.98835" lon="4.83024">
        <ele>261</ele>
        <time>2017-06-28T09:14:48Z</time>
      </trkpt>
      <trkpt lat="45.98842" lon="4.83019">
        <ele>261</ele>
        <time>2017-06-28T09:14:49Z</time>
      </trkpt>
      <trkpt lat="45.98849" lon="4.83014">
        <ele>261</ele>
        <time>2017-06-28T09:14:50Z</time>
      </trkpt>
      <trkpt lat="45.98857" lon="4.83009">
        <ele>261</ele>
        <time>2017-06-28T09:14:51Z</time>
      </trkpt>
      <trkpt lat="45.98864" lon="4.83004">
        <ele>260</ele>
        <time>2017-06-28T09:14:52Z</time>
      </trkpt>
      <trkpt lat="45.98871" lon="4.82999">
        <ele>260</ele>
        <time>2017-06-28T09:14:53Z</time>
      </trkpt>
      <trkpt lat="45.9888" lon="4.82993">
        <ele>260</ele>
        <time>2017-06-28T09:14:54Z</time>
      </trkpt>
      <trkpt lat="45.98888" lon="4.82987">
        <ele>259</ele>
        <time>2017-06-28T09:14:55Z</time>
      </trkpt>
      <trkpt lat="45.98896" lon="4.8298">
        <ele>259</ele>
        <time>2017-06-28T09:14:56Z</time>
      </trkpt>
      <trkpt lat="45.98904" lon="4.82973">
        <ele>259</ele>
        <time>2017-06-28T09:14:57Z</time>
      </trkpt>
      <trkpt lat="45.98912" lon="4.82963">
        <ele>258</ele>
        <time>2017-06-28T09:14:58Z</time>
      </trkpt>
      <trkpt lat="45.98918" lon="4.82952">
        <ele>255</ele>
        <time>2017-06-28T09:14:59Z</time>
      </trkpt>
      <trkpt lat="45.98924" lon="4.82939">
        <ele>255</ele>
        <time>2017-06-28T09:15:00Z</time>
      </trkpt>
      <trkpt lat="45.9893" lon="4.82926">
        <ele>255</ele>
        <time>2017-06-28T09:15:01Z</time>
      </trkpt>
      <trkpt lat="45.98936" lon="4.82912">
        <ele>254</ele>
        <time>2017-06-28T09:15:02Z</time>
      </trkpt>
      <trkpt lat="45.98942" lon="4.82899">
        <ele>253</ele>
        <time>2017-06-28T09:15:03Z</time>
      </trkpt>
      <trkpt lat="45.98948" lon="4.82886">
        <ele>253</ele>
        <time>2017-06-28T09:15:04Z</time>
      </trkpt>
      <trkpt lat="45.98954" lon="4.82872">
        <ele>253</ele>
        <time>2017-06-28T09:15:05Z</time>
      </trkpt>
      <trkpt lat="45.9896" lon="4.82857">
        <ele>252</ele>
        <time>2017-06-28T09:15:06Z</time>
      </trkpt>
      <trkpt lat="45.98967" lon="4.82842">
        <ele>252</ele>
        <time>2017-06-28T09:15:07Z</time>
      </trkpt>
      <trkpt lat="45.98973" lon="4.82827">
        <ele>249</ele>
        <time>2017-06-28T09:15:08Z</time>
      </trkpt>
      <trkpt lat="45.9898" lon="4.82811">
        <ele>248</ele>
        <time>2017-06-28T09:15:09Z</time>
      </trkpt>
      <trkpt lat="45.98987" lon="4.82794">
        <ele>247</ele>
        <time>2017-06-28T09:15:10Z</time>
      </trkpt>
      <trkpt lat="45.98994" lon="4.82777">
        <ele>246</ele>
        <time>2017-06-28T09:15:11Z</time>
      </trkpt>
      <trkpt lat="45.99002" lon="4.8276">
        <ele>241</ele>
        <time>2017-06-28T09:15:12Z</time>
      </trkpt>
      <trkpt lat="45.99009" lon="4.82743">
        <ele>240</ele>
        <time>2017-06-28T09:15:13Z</time>
      </trkpt>
      <trkpt lat="45.99017" lon="4.82725">
        <ele>239</ele>
        <time>2017-06-28T09:15:14Z</time>
      </trkpt>
      <trkpt lat="45.99024" lon="4.82708">
        <ele>238</ele>
        <time>2017-06-28T09:15:15Z</time>
      </trkpt>
      <trkpt lat="45.99032" lon="4.82691">
        <ele>238</ele>
        <time>2017-06-28T09:15:16Z</time>
      </trkpt>
      <trkpt lat="45.99039" lon="4.82674">
        <ele>238</ele>
        <time>2017-06-28T09:15:17Z</time>
      </trkpt>
      <trkpt lat="45.99046" lon="4.82657">
        <ele>236</ele>
        <time>2017-06-28T09:15:18Z</time>
      </trkpt>
      <trkpt lat="45.99052" lon="4.82642">
        <ele>236</ele>
        <time>2017-06-28T09:15:19Z</time>
      </trkpt>
      <trkpt lat="45.99058" lon="4.82628">
        <ele>236</ele>
        <time>2017-06-28T09:15:20Z</time>
      </trkpt>
      <trkpt lat="45.99063" lon="4.82616">
        <ele>236</ele>
        <time>2017-06-28T09:15:21Z</time>
      </trkpt>
      <trkpt lat="45.99067" lon="4.82606">
        <ele>236</ele>
        <time>2017-06-28T09:15:22Z</time>
      </trkpt>
      <trkpt lat="45.99071" lon="4.82598">
        <ele>235</ele>
        <time>2017-06-28T09:15:23Z</time>
      </trkpt>
      <trkpt lat="45.99075" lon="4.82586">
        <ele>235</ele>
        <time>2017-06-28T09:15:25Z</time>
      </trkpt>
      <trkpt lat="45.99074" lon="4.8258">
        <ele>235</ele>
        <time>2017-06-28T09:15:26Z</time>
      </trkpt>
      <trkpt lat="45.99071" lon="4.82573">
        <ele>235</ele>
        <time>2017-06-28T09:15:27Z</time>
      </trkpt>
      <trkpt lat="45.99068" lon="4.82568">
        <ele>235</ele>
        <time>2017-06-28T09:15:28Z</time>
      </trkpt>
      <trkpt lat="45.99062" lon="4.82566">
        <ele>235</ele>
        <time>2017-06-28T09:15:29Z</time>
      </trkpt>
      <trkpt lat="45.99057" lon="4.82565">
        <ele>235</ele>
        <time>2017-06-28T09:15:30Z</time>
      </trkpt>
      <trkpt lat="45.99052" lon="4.82563">
        <ele>235</ele>
        <time>2017-06-28T09:15:31Z</time>
      </trkpt>
      <trkpt lat="45.99047" lon="4.82561">
        <ele>235</ele>
        <time>2017-06-28T09:15:32Z</time>
      </trkpt>
      <trkpt lat="45.9904" lon="4.82557">
        <ele>235</ele>
        <time>2017-06-28T09:15:34Z</time>
      </trkpt>
      <trkpt lat="45.99036" lon="4.82554">
        <ele>235</ele>
        <time>2017-06-28T09:15:35Z</time>
      </trkpt>
      <trkpt lat="45.99028" lon="4.82549">
        <ele>235</ele>
        <time>2017-06-28T09:15:37Z</time>
      </trkpt>
      <trkpt lat="45.99025" lon="4.82545">
        <ele>235</ele>
        <time>2017-06-28T09:15:38Z</time>
      </trkpt>
      <trkpt lat="45.99021" lon="4.82541">
        <ele>235</ele>
        <time>2017-06-28T09:15:39Z</time>
      </trkpt>
      <trkpt lat="45.99017" lon="4.82536">
        <ele>235</ele>
        <time>2017-06-28T09:15:40Z</time>
      </trkpt>
      <trkpt lat="45.99013" lon="4.82531">
        <ele>235</ele>
        <time>2017-06-28T09:15:41Z</time>
      </trkpt>
      <trkpt lat="45.99009" lon="4.82524">
        <ele>235</ele>
        <time>2017-06-28T09:15:42Z</time>
      </trkpt>
      <trkpt lat="45.99006" lon="4.82517">
        <ele>235</ele>
        <time>2017-06-28T09:15:43Z</time>
      </trkpt>
      <trkpt lat="45.99003" lon="4.82511">
        <ele>235</ele>
        <time>2017-06-28T09:15:44Z</time>
      </trkpt>
      <trkpt lat="45.99" lon="4.82504">
        <ele>235</ele>
        <time>2017-06-28T09:15:45Z</time>
      </trkpt>
      <trkpt lat="45.98997" lon="4.82498">
        <ele>235</ele>
        <time>2017-06-28T09:15:46Z</time>
      </trkpt>
      <trkpt lat="45.98994" lon="4.82491">
        <ele>236</ele>
        <time>2017-06-28T09:15:47Z</time>
      </trkpt>
      <trkpt lat="45.98991" lon="4.82485">
        <ele>236</ele>
        <time>2017-06-28T09:15:48Z</time>
      </trkpt>
      <trkpt lat="45.98989" lon="4.82478">
        <ele>236</ele>
        <time>2017-06-28T09:15:49Z</time>
      </trkpt>
      <trkpt lat="45.98987" lon="4.82471">
        <ele>236</ele>
        <time>2017-06-28T09:15:50Z</time>
      </trkpt>
      <trkpt lat="45.98985" lon="4.82463">
        <ele>236</ele>
        <time>2017-06-28T09:15:51Z</time>
      </trkpt>
      <trkpt lat="45.98982" lon="4.82455">
        <ele>236</ele>
        <time>2017-06-28T09:15:52Z</time>
      </trkpt>
      <trkpt lat="45.98981" lon="4.82448">
        <ele>236</ele>
        <time>2017-06-28T09:15:53Z</time>
      </trkpt>
      <trkpt lat="45.98979" lon="4.8244">
        <ele>236</ele>
        <time>2017-06-28T09:15:54Z</time>
      </trkpt>
      <trkpt lat="45.98978" lon="4.8243">
        <ele>236</ele>
        <time>2017-06-28T09:15:55Z</time>
      </trkpt>
      <trkpt lat="45.98975" lon="4.82422">
        <ele>236</ele>
        <time>2017-06-28T09:15:56Z</time>
      </trkpt>
      <trkpt lat="45.98974" lon="4.82413">
        <ele>235</ele>
        <time>2017-06-28T09:15:57Z</time>
      </trkpt>
      <trkpt lat="45.98971" lon="4.82404">
        <ele>235</ele>
        <time>2017-06-28T09:15:58Z</time>
      </trkpt>
      <trkpt lat="45.98969" lon="4.82396">
        <ele>235</ele>
        <time>2017-06-28T09:15:59Z</time>
      </trkpt>
      <trkpt lat="45.98967" lon="4.82388">
        <ele>235</ele>
        <time>2017-06-28T09:16:00Z</time>
      </trkpt>
      <trkpt lat="45.98965" lon="4.8238">
        <ele>235</ele>
        <time>2017-06-28T09:16:01Z</time>
      </trkpt>
      <trkpt lat="45.98963" lon="4.82372">
        <ele>235</ele>
        <time>2017-06-28T09:16:02Z</time>
      </trkpt>
      <trkpt lat="45.9896" lon="4.82365">
        <ele>235</ele>
        <time>2017-06-28T09:16:03Z</time>
      </trkpt>
      <trkpt lat="45.98958" lon="4.82359">
        <ele>235</ele>
        <time>2017-06-28T09:16:04Z</time>
      </trkpt>
      <trkpt lat="45.98956" lon="4.82352">
        <ele>235</ele>
        <time>2017-06-28T09:16:05Z</time>
      </trkpt>
      <trkpt lat="45.98953" lon="4.82346">
        <ele>235</ele>
        <time>2017-06-28T09:16:06Z</time>
      </trkpt>
      <trkpt lat="45.9895" lon="4.8234">
        <ele>235</ele>
        <time>2017-06-28T09:16:07Z</time>
      </trkpt>
      <trkpt lat="45.98947" lon="4.82333">
        <ele>234</ele>
        <time>2017-06-28T09:16:08Z</time>
      </trkpt>
      <trkpt lat="45.98943" lon="4.82327">
        <ele>234</ele>
        <time>2017-06-28T09:16:09Z</time>
      </trkpt>
      <trkpt lat="45.98939" lon="4.82321">
        <ele>234</ele>
        <time>2017-06-28T09:16:10Z</time>
      </trkpt>
      <trkpt lat="45.98935" lon="4.82316">
        <ele>234</ele>
        <time>2017-06-28T09:16:11Z</time>
      </trkpt>
      <trkpt lat="45.9893" lon="4.8231">
        <ele>234</ele>
        <time>2017-06-28T09:16:12Z</time>
      </trkpt>
      <trkpt lat="45.98925" lon="4.82305">
        <ele>234</ele>
        <time>2017-06-28T09:16:13Z</time>
      </trkpt>
      <trkpt lat="45.98921" lon="4.823">
        <ele>234</ele>
        <time>2017-06-28T09:16:14Z</time>
      </trkpt>
      <trkpt lat="45.98916" lon="4.82294">
        <ele>236</ele>
        <time>2017-06-28T09:16:15Z</time>
      </trkpt>
      <trkpt lat="45.98912" lon="4.82289">
        <ele>236</ele>
        <time>2017-06-28T09:16:16Z</time>
      </trkpt>
      <trkpt lat="45.98907" lon="4.82284">
        <ele>236</ele>
        <time>2017-06-28T09:16:17Z</time>
      </trkpt>
      <trkpt lat="45.98904" lon="4.82279">
        <ele>236</ele>
        <time>2017-06-28T09:16:18Z</time>
      </trkpt>
      <trkpt lat="45.989" lon="4.82274">
        <ele>236</ele>
        <time>2017-06-28T09:16:19Z</time>
      </trkpt>
      <trkpt lat="45.98896" lon="4.82269">
        <ele>236</ele>
        <time>2017-06-28T09:16:20Z</time>
      </trkpt>
      <trkpt lat="45.98893" lon="4.82263">
        <ele>236</ele>
        <time>2017-06-28T09:16:21Z</time>
      </trkpt>
      <trkpt lat="45.98889" lon="4.82257">
        <ele>236</ele>
        <time>2017-06-28T09:16:22Z</time>
      </trkpt>
      <trkpt lat="45.98886" lon="4.82252">
        <ele>236</ele>
        <time>2017-06-28T09:16:23Z</time>
      </trkpt>
      <trkpt lat="45.98883" lon="4.82246">
        <ele>236</ele>
        <time>2017-06-28T09:16:24Z</time>
      </trkpt>
      <trkpt lat="45.9888" lon="4.8224">
        <ele>236</ele>
        <time>2017-06-28T09:16:25Z</time>
      </trkpt>
      <trkpt lat="45.98876" lon="4.82234">
        <ele>236</ele>
        <time>2017-06-28T09:16:26Z</time>
      </trkpt>
      <trkpt lat="45.98872" lon="4.82227">
        <ele>236</ele>
        <time>2017-06-28T09:16:27Z</time>
      </trkpt>
      <trkpt lat="45.9887" lon="4.82221">
        <ele>236</ele>
        <time>2017-06-28T09:16:28Z</time>
      </trkpt>
      <trkpt lat="45.98867" lon="4.82214">
        <ele>236</ele>
        <time>2017-06-28T09:16:29Z</time>
      </trkpt>
      <trkpt lat="45.98864" lon="4.82206">
        <ele>236</ele>
        <time>2017-06-28T09:16:30Z</time>
      </trkpt>
      <trkpt lat="45.98861" lon="4.82199">
        <ele>236</ele>
        <time>2017-06-28T09:16:31Z</time>
      </trkpt>
      <trkpt lat="45.98858" lon="4.82191">
        <ele>236</ele>
        <time>2017-06-28T09:16:32Z</time>
      </trkpt>
      <trkpt lat="45.98855" lon="4.82183">
        <ele>236</ele>
        <time>2017-06-28T09:16:33Z</time>
      </trkpt>
      <trkpt lat="45.98852" lon="4.82175">
        <ele>236</ele>
        <time>2017-06-28T09:16:34Z</time>
      </trkpt>
      <trkpt lat="45.9885" lon="4.82167">
        <ele>236</ele>
        <time>2017-06-28T09:16:35Z</time>
      </trkpt>
      <trkpt lat="45.98848" lon="4.82159">
        <ele>236</ele>
        <time>2017-06-28T09:16:36Z</time>
      </trkpt>
      <trkpt lat="45.98846" lon="4.82152">
        <ele>236</ele>
        <time>2017-06-28T09:16:37Z</time>
      </trkpt>
      <trkpt lat="45.98844" lon="4.82145">
        <ele>236</ele>
        <time>2017-06-28T09:16:38Z</time>
      </trkpt>
      <trkpt lat="45.98842" lon="4.82137">
        <ele>236</ele>
        <time>2017-06-28T09:16:39Z</time>
      </trkpt>
      <trkpt lat="45.9884" lon="4.8213">
        <ele>236</ele>
        <time>2017-06-28T09:16:40Z</time>
      </trkpt>
      <trkpt lat="45.98838" lon="4.82123">
        <ele>236</ele>
        <time>2017-06-28T09:16:41Z</time>
      </trkpt>
      <trkpt lat="45.98837" lon="4.82116">
        <ele>235</ele>
        <time>2017-06-28T09:16:42Z</time>
      </trkpt>
      <trkpt lat="45.98836" lon="4.82108">
        <ele>236</ele>
        <time>2017-06-28T09:16:43Z</time>
      </trkpt>
      <trkpt lat="45.98834" lon="4.821">
        <ele>236</ele>
        <time>2017-06-28T09:16:44Z</time>
      </trkpt>
      <trkpt lat="45.98833" lon="4.82093">
        <ele>237</ele>
        <time>2017-06-28T09:16:45Z</time>
      </trkpt>
      <trkpt lat="45.98832" lon="4.82085">
        <ele>236</ele>
        <time>2017-06-28T09:16:46Z</time>
      </trkpt>
      <trkpt lat="45.98831" lon="4.82077">
        <ele>236</ele>
        <time>2017-06-28T09:16:47Z</time>
      </trkpt>
      <trkpt lat="45.9883" lon="4.8207">
        <ele>237</ele>
        <time>2017-06-28T09:16:48Z</time>
      </trkpt>
      <trkpt lat="45.98828" lon="4.82062">
        <ele>237</ele>
        <time>2017-06-28T09:16:49Z</time>
      </trkpt>
      <trkpt lat="45.98827" lon="4.82054">
        <ele>237</ele>
        <time>2017-06-28T09:16:50Z</time>
      </trkpt>
      <trkpt lat="45.98826" lon="4.82046">
        <ele>238</ele>
        <time>2017-06-28T09:16:51Z</time>
      </trkpt>
      <trkpt lat="45.98825" lon="4.82038">
        <ele>238</ele>
        <time>2017-06-28T09:16:52Z</time>
      </trkpt>
      <trkpt lat="45.98824" lon="4.82031">
        <ele>238</ele>
        <time>2017-06-28T09:16:53Z</time>
      </trkpt>
      <trkpt lat="45.98823" lon="4.82024">
        <ele>238</ele>
        <time>2017-06-28T09:16:54Z</time>
      </trkpt>
      <trkpt lat="45.98822" lon="4.82017">
        <ele>238</ele>
        <time>2017-06-28T09:16:55Z</time>
      </trkpt>
      <trkpt lat="45.98821" lon="4.8201">
        <ele>238</ele>
        <time>2017-06-28T09:16:56Z</time>
      </trkpt>
      <trkpt lat="45.9882" lon="4.82003">
        <ele>238</ele>
        <time>2017-06-28T09:16:57Z</time>
      </trkpt>
      <trkpt lat="45.98819" lon="4.81996">
        <ele>238</ele>
        <time>2017-06-28T09:16:58Z</time>
      </trkpt>
      <trkpt lat="45.98818" lon="4.81984">
        <ele>238</ele>
        <time>2017-06-28T09:17:00Z</time>
      </trkpt>
      <trkpt lat="45.98818" lon="4.81978">
        <ele>239</ele>
        <time>2017-06-28T09:17:01Z</time>
      </trkpt>
      <trkpt lat="45.98817" lon="4.81971">
        <ele>239</ele>
        <time>2017-06-28T09:17:02Z</time>
      </trkpt>
      <trkpt lat="45.98817" lon="4.81964">
        <ele>239</ele>
        <time>2017-06-28T09:17:03Z</time>
      </trkpt>
      <trkpt lat="45.98815" lon="4.81956">
        <ele>239</ele>
        <time>2017-06-28T09:17:04Z</time>
      </trkpt>
      <trkpt lat="45.98814" lon="4.81948">
        <ele>239</ele>
        <time>2017-06-28T09:17:05Z</time>
      </trkpt>
      <trkpt lat="45.98812" lon="4.8194">
        <ele>239</ele>
        <time>2017-06-28T09:17:06Z</time>
      </trkpt>
      <trkpt lat="45.98811" lon="4.81932">
        <ele>239</ele>
        <time>2017-06-28T09:17:07Z</time>
      </trkpt>
      <trkpt lat="45.98811" lon="4.81924">
        <ele>239</ele>
        <time>2017-06-28T09:17:08Z</time>
      </trkpt>
      <trkpt lat="45.9881" lon="4.81918">
        <ele>239</ele>
        <time>2017-06-28T09:17:09Z</time>
      </trkpt>
      <trkpt lat="45.98809" lon="4.81911">
        <ele>239</ele>
        <time>2017-06-28T09:17:10Z</time>
      </trkpt>
      <trkpt lat="45.98808" lon="4.81904">
        <ele>239</ele>
        <time>2017-06-28T09:17:11Z</time>
      </trkpt>
      <trkpt lat="45.98806" lon="4.81897">
        <ele>239</ele>
        <time>2017-06-28T09:17:12Z</time>
      </trkpt>
      <trkpt lat="45.98804" lon="4.81891">
        <ele>239</ele>
        <time>2017-06-28T09:17:13Z</time>
      </trkpt>
      <trkpt lat="45.98802" lon="4.81884">
        <ele>239</ele>
        <time>2017-06-28T09:17:14Z</time>
      </trkpt>
      <trkpt lat="45.988" lon="4.81878">
        <ele>239</ele>
        <time>2017-06-28T09:17:15Z</time>
      </trkpt>
      <trkpt lat="45.98798" lon="4.81871">
        <ele>239</ele>
        <time>2017-06-28T09:17:16Z</time>
      </trkpt>
      <trkpt lat="45.98795" lon="4.81865">
        <ele>239</ele>
        <time>2017-06-28T09:17:17Z</time>
      </trkpt>
      <trkpt lat="45.98793" lon="4.81859">
        <ele>239</ele>
        <time>2017-06-28T09:17:18Z</time>
      </trkpt>
      <trkpt lat="45.9879" lon="4.81854">
        <ele>239</ele>
        <time>2017-06-28T09:17:19Z</time>
      </trkpt>
      <trkpt lat="45.98788" lon="4.81847">
        <ele>239</ele>
        <time>2017-06-28T09:17:20Z</time>
      </trkpt>
      <trkpt lat="45.98785" lon="4.81841">
        <ele>239</ele>
        <time>2017-06-28T09:17:21Z</time>
      </trkpt>
      <trkpt lat="45.98782" lon="4.81835">
        <ele>239</ele>
        <time>2017-06-28T09:17:22Z</time>
      </trkpt>
      <trkpt lat="45.98779" lon="4.81828">
        <ele>240</ele>
        <time>2017-06-28T09:17:23Z</time>
      </trkpt>
      <trkpt lat="45.98777" lon="4.81822">
        <ele>240</ele>
        <time>2017-06-28T09:17:24Z</time>
      </trkpt>
      <trkpt lat="45.98774" lon="4.81817">
        <ele>240</ele>
        <time>2017-06-28T09:17:25Z</time>
      </trkpt>
      <trkpt lat="45.98769" lon="4.81807">
        <ele>240</ele>
        <time>2017-06-28T09:17:27Z</time>
      </trkpt>
      <trkpt lat="45.98765" lon="4.81802">
        <ele>240</ele>
        <time>2017-06-28T09:17:28Z</time>
      </trkpt>
      <trkpt lat="45.9876" lon="4.81792">
        <ele>241</ele>
        <time>2017-06-28T09:17:30Z</time>
      </trkpt>
      <trkpt lat="45.98757" lon="4.81787">
        <ele>241</ele>
        <time>2017-06-28T09:17:31Z</time>
      </trkpt>
      <trkpt lat="45.98753" lon="4.8178">
        <ele>241</ele>
        <time>2017-06-28T09:17:33Z</time>
      </trkpt>
      <trkpt lat="45.98751" lon="4.81775">
        <ele>241</ele>
        <time>2017-06-28T09:17:34Z</time>
      </trkpt>
      <trkpt lat="45.98748" lon="4.81764">
        <ele>240</ele>
        <time>2017-06-28T09:17:36Z</time>
      </trkpt>
      <trkpt lat="45.98746" lon="4.8176">
        <ele>240</ele>
        <time>2017-06-28T09:17:37Z</time>
      </trkpt>
      <trkpt lat="45.98741" lon="4.81751">
        <ele>240</ele>
        <time>2017-06-28T09:17:39Z</time>
      </trkpt>
      <trkpt lat="45.98738" lon="4.81746">
        <ele>240</ele>
        <time>2017-06-28T09:17:40Z</time>
      </trkpt>
      <trkpt lat="45.98731" lon="4.81738">
        <ele>240</ele>
        <time>2017-06-28T09:17:42Z</time>
      </trkpt>
      <trkpt lat="45.98727" lon="4.81736">
        <ele>239</ele>
        <time>2017-06-28T09:17:43Z</time>
      </trkpt>
      <trkpt lat="45.98719" lon="4.81735">
        <ele>239</ele>
        <time>2017-06-28T09:17:45Z</time>
      </trkpt>
      <trkpt lat="45.98714" lon="4.81735">
        <ele>239</ele>
        <time>2017-06-28T09:17:46Z</time>
      </trkpt>
      <trkpt lat="45.98705" lon="4.81736">
        <ele>239</ele>
        <time>2017-06-28T09:17:48Z</time>
      </trkpt>
      <trkpt lat="45.98701" lon="4.81737">
        <ele>239</ele>
        <time>2017-06-28T09:17:49Z</time>
      </trkpt>
      <trkpt lat="45.98692" lon="4.81738">
        <ele>238</ele>
        <time>2017-06-28T09:17:51Z</time>
      </trkpt>
      <trkpt lat="45.98687" lon="4.81739">
        <ele>238</ele>
        <time>2017-06-28T09:17:52Z</time>
      </trkpt>
      <trkpt lat="45.98683" lon="4.8174">
        <ele>238</ele>
        <time>2017-06-28T09:17:53Z</time>
      </trkpt>
      <trkpt lat="45.98677" lon="4.81741">
        <ele>238</ele>
        <time>2017-06-28T09:17:54Z</time>
      </trkpt>
      <trkpt lat="45.98671" lon="4.81743">
        <ele>238</ele>
        <time>2017-06-28T09:17:55Z</time>
      </trkpt>
      <trkpt lat="45.98666" lon="4.81744">
        <ele>238</ele>
        <time>2017-06-28T09:17:56Z</time>
      </trkpt>
      <trkpt lat="45.98661" lon="4.81746">
        <ele>238</ele>
        <time>2017-06-28T09:17:57Z</time>
      </trkpt>
      <trkpt lat="45.98655" lon="4.81747">
        <ele>237</ele>
        <time>2017-06-28T09:17:58Z</time>
      </trkpt>
      <trkpt lat="45.98648" lon="4.81747">
        <ele>237</ele>
        <time>2017-06-28T09:17:59Z</time>
      </trkpt>
      <trkpt lat="45.98642" lon="4.81748">
        <ele>237</ele>
        <time>2017-06-28T09:18:00Z</time>
      </trkpt>
      <trkpt lat="45.98636" lon="4.81749">
        <ele>237</ele>
        <time>2017-06-28T09:18:01Z</time>
      </trkpt>
      <trkpt lat="45.9863" lon="4.81751">
        <ele>238</ele>
        <time>2017-06-28T09:18:02Z</time>
      </trkpt>
      <trkpt lat="45.98624" lon="4.81752">
        <ele>238</ele>
        <time>2017-06-28T09:18:03Z</time>
      </trkpt>
      <trkpt lat="45.98619" lon="4.81754">
        <ele>238</ele>
        <time>2017-06-28T09:18:04Z</time>
      </trkpt>
      <trkpt lat="45.98613" lon="4.81756">
        <ele>238</ele>
        <time>2017-06-28T09:18:05Z</time>
      </trkpt>
      <trkpt lat="45.98608" lon="4.81758">
        <ele>238</ele>
        <time>2017-06-28T09:18:06Z</time>
      </trkpt>
      <trkpt lat="45.98603" lon="4.81759">
        <ele>238</ele>
        <time>2017-06-28T09:18:07Z</time>
      </trkpt>
      <trkpt lat="45.98598" lon="4.81762">
        <ele>238</ele>
        <time>2017-06-28T09:18:08Z</time>
      </trkpt>
      <trkpt lat="45.98593" lon="4.81765">
        <ele>238</ele>
        <time>2017-06-28T09:18:09Z</time>
      </trkpt>
      <trkpt lat="45.98588" lon="4.81769">
        <ele>238</ele>
        <time>2017-06-28T09:18:10Z</time>
      </trkpt>
      <trkpt lat="45.98583" lon="4.81773">
        <ele>237</ele>
        <time>2017-06-28T09:18:11Z</time>
      </trkpt>
      <trkpt lat="45.98579" lon="4.81778">
        <ele>238</ele>
        <time>2017-06-28T09:18:12Z</time>
      </trkpt>
      <trkpt lat="45.98575" lon="4.81783">
        <ele>238</ele>
        <time>2017-06-28T09:18:13Z</time>
      </trkpt>
      <trkpt lat="45.98571" lon="4.81788">
        <ele>238</ele>
        <time>2017-06-28T09:18:14Z</time>
      </trkpt>
      <trkpt lat="45.98567" lon="4.81793">
        <ele>238</ele>
        <time>2017-06-28T09:18:15Z</time>
      </trkpt>
      <trkpt lat="45.98563" lon="4.81798">
        <ele>238</ele>
        <time>2017-06-28T09:18:16Z</time>
      </trkpt>
      <trkpt lat="45.98558" lon="4.81801">
        <ele>238</ele>
        <time>2017-06-28T09:18:17Z</time>
      </trkpt>
      <trkpt lat="45.98553" lon="4.81803">
        <ele>238</ele>
        <time>2017-06-28T09:18:18Z</time>
      </trkpt>
      <trkpt lat="45.98548" lon="4.81803">
        <ele>238</ele>
        <time>2017-06-28T09:18:19Z</time>
      </trkpt>
      <trkpt lat="45.98544" lon="4.81802">
        <ele>238</ele>
        <time>2017-06-28T09:18:20Z</time>
      </trkpt>
      <trkpt lat="45.98539" lon="4.818">
        <ele>238</ele>
        <time>2017-06-28T09:18:21Z</time>
      </trkpt>
      <trkpt lat="45.98534" lon="4.81796">
        <ele>238</ele>
        <time>2017-06-28T09:18:22Z</time>
      </trkpt>
      <trkpt lat="45.9853" lon="4.81792">
        <ele>238</ele>
        <time>2017-06-28T09:18:23Z</time>
      </trkpt>
      <trkpt lat="45.98526" lon="4.81786">
        <ele>238</ele>
        <time>2017-06-28T09:18:24Z</time>
      </trkpt>
      <trkpt lat="45.98522" lon="4.81781">
        <ele>238</ele>
        <time>2017-06-28T09:18:25Z</time>
      </trkpt>
      <trkpt lat="45.98518" lon="4.81776">
        <ele>238</ele>
        <time>2017-06-28T09:18:26Z</time>
      </trkpt>
      <trkpt lat="45.98514" lon="4.8177">
        <ele>238</ele>
        <time>2017-06-28T09:18:27Z</time>
      </trkpt>
      <trkpt lat="45.9851" lon="4.81764">
        <ele>237</ele>
        <time>2017-06-28T09:18:28Z</time>
      </trkpt>
      <trkpt lat="45.98507" lon="4.81758">
        <ele>237</ele>
        <time>2017-06-28T09:18:29Z</time>
      </trkpt>
      <trkpt lat="45.98502" lon="4.81753">
        <ele>237</ele>
        <time>2017-06-28T09:18:30Z</time>
      </trkpt>
      <trkpt lat="45.98497" lon="4.81749">
        <ele>237</ele>
        <time>2017-06-28T09:18:31Z</time>
      </trkpt>
      <trkpt lat="45.98493" lon="4.81745">
        <ele>238</ele>
        <time>2017-06-28T09:18:32Z</time>
      </trkpt>
      <trkpt lat="45.98488" lon="4.81741">
        <ele>238</ele>
        <time>2017-06-28T09:18:33Z</time>
      </trkpt>
      <trkpt lat="45.98483" lon="4.81737">
        <ele>238</ele>
        <time>2017-06-28T09:18:34Z</time>
      </trkpt>
      <trkpt lat="45.98479" lon="4.81732">
        <ele>238</ele>
        <time>2017-06-28T09:18:35Z</time>
      </trkpt>
      <trkpt lat="45.98474" lon="4.81727">
        <ele>239</ele>
        <time>2017-06-28T09:18:36Z</time>
      </trkpt>
      <trkpt lat="45.9847" lon="4.81722">
        <ele>239</ele>
        <time>2017-06-28T09:18:37Z</time>
      </trkpt>
      <trkpt lat="45.98466" lon="4.81717">
        <ele>239</ele>
        <time>2017-06-28T09:18:38Z</time>
      </trkpt>
      <trkpt lat="45.98462" lon="4.81711">
        <ele>239</ele>
        <time>2017-06-28T09:18:39Z</time>
      </trkpt>
      <trkpt lat="45.98458" lon="4.81706">
        <ele>239</ele>
        <time>2017-06-28T09:18:40Z</time>
      </trkpt>
      <trkpt lat="45.98455" lon="4.81701">
        <ele>239</ele>
        <time>2017-06-28T09:18:41Z</time>
      </trkpt>
      <trkpt lat="45.98452" lon="4.81695">
        <ele>239</ele>
        <time>2017-06-28T09:18:42Z</time>
      </trkpt>
      <trkpt lat="45.98449" lon="4.8169">
        <ele>239</ele>
        <time>2017-06-28T09:18:43Z</time>
      </trkpt>
      <trkpt lat="45.98446" lon="4.81685">
        <ele>239</ele>
        <time>2017-06-28T09:18:44Z</time>
      </trkpt>
      <trkpt lat="45.98443" lon="4.8168">
        <ele>239</ele>
        <time>2017-06-28T09:18:45Z</time>
      </trkpt>
      <trkpt lat="45.9844" lon="4.81675">
        <ele>240</ele>
        <time>2017-06-28T09:18:46Z</time>
      </trkpt>
      <trkpt lat="45.98434" lon="4.81669">
        <ele>240</ele>
        <time>2017-06-28T09:18:48Z</time>
      </trkpt>
      <trkpt lat="45.98431" lon="4.81666">
        <ele>239</ele>
        <time>2017-06-28T09:18:49Z</time>
      </trkpt>
      <trkpt lat="45.98423" lon="4.81663">
        <ele>240</ele>
        <time>2017-06-28T09:18:51Z</time>
      </trkpt>
      <trkpt lat="45.98418" lon="4.81662">
        <ele>240</ele>
        <time>2017-06-28T09:18:52Z</time>
      </trkpt>
      <trkpt lat="45.98413" lon="4.81663">
        <ele>241</ele>
        <time>2017-06-28T09:18:53Z</time>
      </trkpt>
      <trkpt lat="45.98409" lon="4.81663">
        <ele>241</ele>
        <time>2017-06-28T09:18:54Z</time>
      </trkpt>
      <trkpt lat="45.98404" lon="4.81663">
        <ele>241</ele>
        <time>2017-06-28T09:18:55Z</time>
      </trkpt>
      <trkpt lat="45.984" lon="4.81663">
        <ele>242</ele>
        <time>2017-06-28T09:18:56Z</time>
      </trkpt>
      <trkpt lat="45.98391" lon="4.81665">
        <ele>242</ele>
        <time>2017-06-28T09:18:58Z</time>
      </trkpt>
      <trkpt lat="45.98387" lon="4.81666">
        <ele>242</ele>
        <time>2017-06-28T09:18:59Z</time>
      </trkpt>
      <trkpt lat="45.9838" lon="4.81668">
        <ele>244</ele>
        <time>2017-06-28T09:19:01Z</time>
      </trkpt>
      <trkpt lat="45.98375" lon="4.81669">
        <ele>244</ele>
        <time>2017-06-28T09:19:02Z</time>
      </trkpt>
      <trkpt lat="45.98367" lon="4.81672">
        <ele>244</ele>
        <time>2017-06-28T09:19:04Z</time>
      </trkpt>
      <trkpt lat="45.98363" lon="4.81673">
        <ele>244</ele>
        <time>2017-06-28T09:19:05Z</time>
      </trkpt>
      <trkpt lat="45.98354" lon="4.81674">
        <ele>245</ele>
        <time>2017-06-28T09:19:07Z</time>
      </trkpt>
      <trkpt lat="45.9835" lon="4.81673">
        <ele>245</ele>
        <time>2017-06-28T09:19:08Z</time>
      </trkpt>
      <trkpt lat="45.98342" lon="4.81671">
        <ele>245</ele>
        <time>2017-06-28T09:19:10Z</time>
      </trkpt>
      <trkpt lat="45.98338" lon="4.81669">
        <ele>246</ele>
        <time>2017-06-28T09:19:11Z</time>
      </trkpt>
      <trkpt lat="45.98331" lon="4.81666">
        <ele>246</ele>
        <time>2017-06-28T09:19:13Z</time>
      </trkpt>
      <trkpt lat="45.98328" lon="4.81663">
        <ele>246</ele>
        <time>2017-06-28T09:19:14Z</time>
      </trkpt>
      <trkpt lat="45.98321" lon="4.81661">
        <ele>246</ele>
        <time>2017-06-28T09:19:16Z</time>
      </trkpt>
      <trkpt lat="45.98318" lon="4.81659">
        <ele>246</ele>
        <time>2017-06-28T09:19:17Z</time>
      </trkpt>
      <trkpt lat="45.98311" lon="4.81653">
        <ele>246</ele>
        <time>2017-06-28T09:19:19Z</time>
      </trkpt>
      <trkpt lat="45.98308" lon="4.81649">
        <ele>246</ele>
        <time>2017-06-28T09:19:20Z</time>
      </trkpt>
      <trkpt lat="45.98304" lon="4.81645">
        <ele>246</ele>
        <time>2017-06-28T09:19:21Z</time>
      </trkpt>
      <trkpt lat="45.98301" lon="4.81641">
        <ele>246</ele>
        <time>2017-06-28T09:19:22Z</time>
      </trkpt>
      <trkpt lat="45.98297" lon="4.81637">
        <ele>247</ele>
        <time>2017-06-28T09:19:23Z</time>
      </trkpt>
      <trkpt lat="45.98293" lon="4.81633">
        <ele>247</ele>
        <time>2017-06-28T09:19:24Z</time>
      </trkpt>
      <trkpt lat="45.98289" lon="4.81629">
        <ele>247</ele>
        <time>2017-06-28T09:19:25Z</time>
      </trkpt>
      <trkpt lat="45.98285" lon="4.81624">
        <ele>247</ele>
        <time>2017-06-28T09:19:26Z</time>
      </trkpt>
      <trkpt lat="45.98282" lon="4.81619">
        <ele>247</ele>
        <time>2017-06-28T09:19:27Z</time>
      </trkpt>
      <trkpt lat="45.9828" lon="4.81613">
        <ele>247</ele>
        <time>2017-06-28T09:19:28Z</time>
      </trkpt>
      <trkpt lat="45.98277" lon="4.81607">
        <ele>247</ele>
        <time>2017-06-28T09:19:29Z</time>
      </trkpt>
      <trkpt lat="45.98275" lon="4.816">
        <ele>247</ele>
        <time>2017-06-28T09:19:30Z</time>
      </trkpt>
      <trkpt lat="45.98272" lon="4.81594">
        <ele>247</ele>
        <time>2017-06-28T09:19:31Z</time>
      </trkpt>
      <trkpt lat="45.9827" lon="4.81588">
        <ele>247</ele>
        <time>2017-06-28T09:19:32Z</time>
      </trkpt>
      <trkpt lat="45.98268" lon="4.81578">
        <ele>247</ele>
        <time>2017-06-28T09:19:34Z</time>
      </trkpt>
      <trkpt lat="45.98266" lon="4.81572">
        <ele>247</ele>
        <time>2017-06-28T09:19:35Z</time>
      </trkpt>
      <trkpt lat="45.98263" lon="4.81561">
        <ele>247</ele>
        <time>2017-06-28T09:19:37Z</time>
      </trkpt>
      <trkpt lat="45.98261" lon="4.81556">
        <ele>247</ele>
        <time>2017-06-28T09:19:38Z</time>
      </trkpt>
      <trkpt lat="45.98259" lon="4.8155">
        <ele>247</ele>
        <time>2017-06-28T09:19:39Z</time>
      </trkpt>
      <trkpt lat="45.98257" lon="4.81544">
        <ele>247</ele>
        <time>2017-06-28T09:19:40Z</time>
      </trkpt>
      <trkpt lat="45.98255" lon="4.81537">
        <ele>247</ele>
        <time>2017-06-28T09:19:41Z</time>
      </trkpt>
      <trkpt lat="45.98254" lon="4.81531">
        <ele>247</ele>
        <time>2017-06-28T09:19:42Z</time>
      </trkpt>
      <trkpt lat="45.98252" lon="4.81525">
        <ele>247</ele>
        <time>2017-06-28T09:19:43Z</time>
      </trkpt>
      <trkpt lat="45.9825" lon="4.81519">
        <ele>249</ele>
        <time>2017-06-28T09:19:44Z</time>
      </trkpt>
      <trkpt lat="45.98248" lon="4.81513">
        <ele>249</ele>
        <time>2017-06-28T09:19:45Z</time>
      </trkpt>
      <trkpt lat="45.98246" lon="4.81507">
        <ele>249</ele>
        <time>2017-06-28T09:19:46Z</time>
      </trkpt>
      <trkpt lat="45.98244" lon="4.81501">
        <ele>249</ele>
        <time>2017-06-28T09:19:47Z</time>
      </trkpt>
      <trkpt lat="45.98242" lon="4.81494">
        <ele>249</ele>
        <time>2017-06-28T09:19:48Z</time>
      </trkpt>
      <trkpt lat="45.9824" lon="4.81488">
        <ele>249</ele>
        <time>2017-06-28T09:19:49Z</time>
      </trkpt>
      <trkpt lat="45.98238" lon="4.81482">
        <ele>249</ele>
        <time>2017-06-28T09:19:50Z</time>
      </trkpt>
      <trkpt lat="45.98236" lon="4.81476">
        <ele>249</ele>
        <time>2017-06-28T09:19:51Z</time>
      </trkpt>
      <trkpt lat="45.98234" lon="4.8147">
        <ele>249</ele>
        <time>2017-06-28T09:19:52Z</time>
      </trkpt>
      <trkpt lat="45.98231" lon="4.81459">
        <ele>249</ele>
        <time>2017-06-28T09:19:54Z</time>
      </trkpt>
      <trkpt lat="45.98229" lon="4.81454">
        <ele>249</ele>
        <time>2017-06-28T09:19:55Z</time>
      </trkpt>
      <trkpt lat="45.98226" lon="4.81443">
        <ele>249</ele>
        <time>2017-06-28T09:19:57Z</time>
      </trkpt>
      <trkpt lat="45.98224" lon="4.81437">
        <ele>249</ele>
        <time>2017-06-28T09:19:58Z</time>
      </trkpt>
      <trkpt lat="45.98221" lon="4.81426">
        <ele>249</ele>
        <time>2017-06-28T09:20:00Z</time>
      </trkpt>
      <trkpt lat="45.98219" lon="4.81421">
        <ele>249</ele>
        <time>2017-06-28T09:20:01Z</time>
      </trkpt>
      <trkpt lat="45.98215" lon="4.81412">
        <ele>248</ele>
        <time>2017-06-28T09:20:03Z</time>
      </trkpt>
      <trkpt lat="45.98213" lon="4.81407">
        <ele>248</ele>
        <time>2017-06-28T09:20:04Z</time>
      </trkpt>
      <trkpt lat="45.9821" lon="4.81397">
        <ele>248</ele>
        <time>2017-06-28T09:20:06Z</time>
      </trkpt>
      <trkpt lat="45.98208" lon="4.81391">
        <ele>248</ele>
        <time>2017-06-28T09:20:07Z</time>
      </trkpt>
      <trkpt lat="45.98206" lon="4.81385">
        <ele>248</ele>
        <time>2017-06-28T09:20:08Z</time>
      </trkpt>
      <trkpt lat="45.98205" lon="4.81379">
        <ele>248</ele>
        <time>2017-06-28T09:20:09Z</time>
      </trkpt>
      <trkpt lat="45.98203" lon="4.81373">
        <ele>248</ele>
        <time>2017-06-28T09:20:10Z</time>
      </trkpt>
      <trkpt lat="45.982" lon="4.81366">
        <ele>248</ele>
        <time>2017-06-28T09:20:11Z</time>
      </trkpt>
      <trkpt lat="45.98199" lon="4.81359">
        <ele>248</ele>
        <time>2017-06-28T09:20:12Z</time>
      </trkpt>
      <trkpt lat="45.98196" lon="4.81352">
        <ele>248</ele>
        <time>2017-06-28T09:20:13Z</time>
      </trkpt>
      <trkpt lat="45.98194" lon="4.81344">
        <ele>248</ele>
        <time>2017-06-28T09:20:14Z</time>
      </trkpt>
      <trkpt lat="45.98193" lon="4.81337">
        <ele>248</ele>
        <time>2017-06-28T09:20:15Z</time>
      </trkpt>
      <trkpt lat="45.98191" lon="4.81329">
        <ele>247</ele>
        <time>2017-06-28T09:20:16Z</time>
      </trkpt>
      <trkpt lat="45.98189" lon="4.81321">
        <ele>247</ele>
        <time>2017-06-28T09:20:17Z</time>
      </trkpt>
      <trkpt lat="45.98188" lon="4.81313">
        <ele>247</ele>
        <time>2017-06-28T09:20:18Z</time>
      </trkpt>
      <trkpt lat="45.98187" lon="4.81305">
        <ele>247</ele>
        <time>2017-06-28T09:20:19Z</time>
      </trkpt>
      <trkpt lat="45.98185" lon="4.81298">
        <ele>247</ele>
        <time>2017-06-28T09:20:20Z</time>
      </trkpt>
      <trkpt lat="45.98183" lon="4.8129">
        <ele>247</ele>
        <time>2017-06-28T09:20:21Z</time>
      </trkpt>
      <trkpt lat="45.98182" lon="4.81282">
        <ele>247</ele>
        <time>2017-06-28T09:20:22Z</time>
      </trkpt>
      <trkpt lat="45.98181" lon="4.81274">
        <ele>247</ele>
        <time>2017-06-28T09:20:23Z</time>
      </trkpt>
      <trkpt lat="45.9818" lon="4.81266">
        <ele>247</ele>
        <time>2017-06-28T09:20:24Z</time>
      </trkpt>
      <trkpt lat="45.98178" lon="4.81258">
        <ele>247</ele>
        <time>2017-06-28T09:20:25Z</time>
      </trkpt>
      <trkpt lat="45.98178" lon="4.8125">
        <ele>247</ele>
        <time>2017-06-28T09:20:26Z</time>
      </trkpt>
      <trkpt lat="45.98176" lon="4.81241">
        <ele>247</ele>
        <time>2017-06-28T09:20:27Z</time>
      </trkpt>
      <trkpt lat="45.98175" lon="4.81233">
        <ele>246</ele>
        <time>2017-06-28T09:20:28Z</time>
      </trkpt>
      <trkpt lat="45.98175" lon="4.81226">
        <ele>246</ele>
        <time>2017-06-28T09:20:29Z</time>
      </trkpt>
      <trkpt lat="45.98174" lon="4.81217">
        <ele>246</ele>
        <time>2017-06-28T09:20:30Z</time>
      </trkpt>
      <trkpt lat="45.98173" lon="4.81209">
        <ele>246</ele>
        <time>2017-06-28T09:20:31Z</time>
      </trkpt>
      <trkpt lat="45.98171" lon="4.81201">
        <ele>245</ele>
        <time>2017-06-28T09:20:32Z</time>
      </trkpt>
      <trkpt lat="45.9817" lon="4.81192">
        <ele>245</ele>
        <time>2017-06-28T09:20:33Z</time>
      </trkpt>
      <trkpt lat="45.98168" lon="4.81184">
        <ele>245</ele>
        <time>2017-06-28T09:20:34Z</time>
      </trkpt>
      <trkpt lat="45.98165" lon="4.81175">
        <ele>246</ele>
        <time>2017-06-28T09:20:35Z</time>
      </trkpt>
      <trkpt lat="45.98163" lon="4.81166">
        <ele>245</ele>
        <time>2017-06-28T09:20:36Z</time>
      </trkpt>
      <trkpt lat="45.9816" lon="4.81159">
        <ele>245</ele>
        <time>2017-06-28T09:20:37Z</time>
      </trkpt>
      <trkpt lat="45.98157" lon="4.81151">
        <ele>245</ele>
        <time>2017-06-28T09:20:38Z</time>
      </trkpt>
      <trkpt lat="45.98154" lon="4.81144">
        <ele>245</ele>
        <time>2017-06-28T09:20:39Z</time>
      </trkpt>
      <trkpt lat="45.98152" lon="4.81136">
        <ele>245</ele>
        <time>2017-06-28T09:20:40Z</time>
      </trkpt>
      <trkpt lat="45.98149" lon="4.81129">
        <ele>245</ele>
        <time>2017-06-28T09:20:41Z</time>
      </trkpt>
      <trkpt lat="45.98146" lon="4.81122">
        <ele>245</ele>
        <time>2017-06-28T09:20:42Z</time>
      </trkpt>
      <trkpt lat="45.98144" lon="4.81114">
        <ele>245</ele>
        <time>2017-06-28T09:20:43Z</time>
      </trkpt>
      <trkpt lat="45.98141" lon="4.81107">
        <ele>245</ele>
        <time>2017-06-28T09:20:44Z</time>
      </trkpt>
      <trkpt lat="45.98137" lon="4.81098">
        <ele>245</ele>
        <time>2017-06-28T09:20:45Z</time>
      </trkpt>
      <trkpt lat="45.98134" lon="4.81091">
        <ele>245</ele>
        <time>2017-06-28T09:20:46Z</time>
      </trkpt>
      <trkpt lat="45.9813" lon="4.81083">
        <ele>243</ele>
        <time>2017-06-28T09:20:47Z</time>
      </trkpt>
      <trkpt lat="45.98127" lon="4.81075">
        <ele>243</ele>
        <time>2017-06-28T09:20:48Z</time>
      </trkpt>
      <trkpt lat="45.98125" lon="4.81068">
        <ele>243</ele>
        <time>2017-06-28T09:20:49Z</time>
      </trkpt>
      <trkpt lat="45.98123" lon="4.8106">
        <ele>243</ele>
        <time>2017-06-28T09:20:50Z</time>
      </trkpt>
      <trkpt lat="45.9812" lon="4.81053">
        <ele>243</ele>
        <time>2017-06-28T09:20:51Z</time>
      </trkpt>
      <trkpt lat="45.98118" lon="4.81045">
        <ele>242</ele>
        <time>2017-06-28T09:20:52Z</time>
      </trkpt>
      <trkpt lat="45.98115" lon="4.81038">
        <ele>242</ele>
        <time>2017-06-28T09:20:53Z</time>
      </trkpt>
      <trkpt lat="45.98113" lon="4.8103">
        <ele>242</ele>
        <time>2017-06-28T09:20:54Z</time>
      </trkpt>
      <trkpt lat="45.98111" lon="4.81023">
        <ele>242</ele>
        <time>2017-06-28T09:20:55Z</time>
      </trkpt>
      <trkpt lat="45.98109" lon="4.81017">
        <ele>242</ele>
        <time>2017-06-28T09:20:56Z</time>
      </trkpt>
      <trkpt lat="45.98107" lon="4.81011">
        <ele>242</ele>
        <time>2017-06-28T09:20:57Z</time>
      </trkpt>
      <trkpt lat="45.98105" lon="4.81004">
        <ele>242</ele>
        <time>2017-06-28T09:20:58Z</time>
      </trkpt>
      <trkpt lat="45.98103" lon="4.80998">
        <ele>240</ele>
        <time>2017-06-28T09:20:59Z</time>
      </trkpt>
      <trkpt lat="45.981" lon="4.80987">
        <ele>240</ele>
        <time>2017-06-28T09:21:01Z</time>
      </trkpt>
      <trkpt lat="45.98097" lon="4.80981">
        <ele>239</ele>
        <time>2017-06-28T09:21:02Z</time>
      </trkpt>
      <trkpt lat="45.98095" lon="4.80975">
        <ele>239</ele>
        <time>2017-06-28T09:21:03Z</time>
      </trkpt>
      <trkpt lat="45.98094" lon="4.80968">
        <ele>239</ele>
        <time>2017-06-28T09:21:04Z</time>
      </trkpt>
      <trkpt lat="45.98092" lon="4.8096">
        <ele>239</ele>
        <time>2017-06-28T09:21:05Z</time>
      </trkpt>
      <trkpt lat="45.98089" lon="4.80951">
        <ele>238</ele>
        <time>2017-06-28T09:21:06Z</time>
      </trkpt>
      <trkpt lat="45.98086" lon="4.80942">
        <ele>238</ele>
        <time>2017-06-28T09:21:07Z</time>
      </trkpt>
      <trkpt lat="45.98083" lon="4.80932">
        <ele>240</ele>
        <time>2017-06-28T09:21:08Z</time>
      </trkpt>
      <trkpt lat="45.9808" lon="4.80922">
        <ele>239</ele>
        <time>2017-06-28T09:21:09Z</time>
      </trkpt>
      <trkpt lat="45.98078" lon="4.80911">
        <ele>239</ele>
        <time>2017-06-28T09:21:10Z</time>
      </trkpt>
      <trkpt lat="45.98075" lon="4.809">
        <ele>238</ele>
        <time>2017-06-28T09:21:11Z</time>
      </trkpt>
      <trkpt lat="45.98073" lon="4.80889">
        <ele>238</ele>
        <time>2017-06-28T09:21:12Z</time>
      </trkpt>
      <trkpt lat="45.9807" lon="4.80877">
        <ele>237</ele>
        <time>2017-06-28T09:21:13Z</time>
      </trkpt>
      <trkpt lat="45.98067" lon="4.80865">
        <ele>237</ele>
        <time>2017-06-28T09:21:14Z</time>
      </trkpt>
      <trkpt lat="45.98065" lon="4.80853">
        <ele>236</ele>
        <time>2017-06-28T09:21:15Z</time>
      </trkpt>
      <trkpt lat="45.98062" lon="4.80841">
        <ele>236</ele>
        <time>2017-06-28T09:21:16Z</time>
      </trkpt>
      <trkpt lat="45.98059" lon="4.80828">
        <ele>234</ele>
        <time>2017-06-28T09:21:17Z</time>
      </trkpt>
      <trkpt lat="45.98056" lon="4.80816">
        <ele>234</ele>
        <time>2017-06-28T09:21:18Z</time>
      </trkpt>
      <trkpt lat="45.98053" lon="4.80804">
        <ele>234</ele>
        <time>2017-06-28T09:21:19Z</time>
      </trkpt>
      <trkpt lat="45.9805" lon="4.80793">
        <ele>233</ele>
        <time>2017-06-28T09:21:20Z</time>
      </trkpt>
      <trkpt lat="45.98048" lon="4.80782">
        <ele>233</ele>
        <time>2017-06-28T09:21:21Z</time>
      </trkpt>
      <trkpt lat="45.98046" lon="4.80771">
        <ele>233</ele>
        <time>2017-06-28T09:21:22Z</time>
      </trkpt>
      <trkpt lat="45.98044" lon="4.80761">
        <ele>233</ele>
        <time>2017-06-28T09:21:23Z</time>
      </trkpt>
      <trkpt lat="45.98041" lon="4.80751">
        <ele>233</ele>
        <time>2017-06-28T09:21:24Z</time>
      </trkpt>
      <trkpt lat="45.98039" lon="4.80742">
        <ele>231</ele>
        <time>2017-06-28T09:21:25Z</time>
      </trkpt>
      <trkpt lat="45.98037" lon="4.80734">
        <ele>231</ele>
        <time>2017-06-28T09:21:26Z</time>
      </trkpt>
      <trkpt lat="45.98035" lon="4.80727">
        <ele>231</ele>
        <time>2017-06-28T09:21:27Z</time>
      </trkpt>
      <trkpt lat="45.98033" lon="4.80714">
        <ele>231</ele>
        <time>2017-06-28T09:21:29Z</time>
      </trkpt>
      <trkpt lat="45.98033" lon="4.80709">
        <ele>231</ele>
        <time>2017-06-28T09:21:30Z</time>
      </trkpt>
      <trkpt lat="45.98036" lon="4.80701">
        <ele>230</ele>
        <time>2017-06-28T09:21:32Z</time>
      </trkpt>
      <trkpt lat="45.9804" lon="4.80698">
        <ele>230</ele>
        <time>2017-06-28T09:21:33Z</time>
      </trkpt>
      <trkpt lat="45.98046" lon="4.80697">
        <ele>230</ele>
        <time>2017-06-28T09:21:34Z</time>
      </trkpt>
      <trkpt lat="45.98051" lon="4.80696">
        <ele>230</ele>
        <time>2017-06-28T09:21:35Z</time>
      </trkpt>
      <trkpt lat="45.98057" lon="4.80696">
        <ele>230</ele>
        <time>2017-06-28T09:21:36Z</time>
      </trkpt>
      <trkpt lat="45.98064" lon="4.80696">
        <ele>230</ele>
        <time>2017-06-28T09:21:37Z</time>
      </trkpt>
      <trkpt lat="45.9807" lon="4.80696">
        <ele>230</ele>
        <time>2017-06-28T09:21:38Z</time>
      </trkpt>
      <trkpt lat="45.98077" lon="4.80696">
        <ele>230</ele>
        <time>2017-06-28T09:21:39Z</time>
      </trkpt>
      <trkpt lat="45.98082" lon="4.80695">
        <ele>230</ele>
        <time>2017-06-28T09:21:40Z</time>
      </trkpt>
      <trkpt lat="45.98089" lon="4.80695">
        <ele>228</ele>
        <time>2017-06-28T09:21:41Z</time>
      </trkpt>
      <trkpt lat="45.98097" lon="4.80695">
        <ele>228</ele>
        <time>2017-06-28T09:21:42Z</time>
      </trkpt>
      <trkpt lat="45.98105" lon="4.80695">
        <ele>228</ele>
        <time>2017-06-28T09:21:43Z</time>
      </trkpt>
      <trkpt lat="45.98112" lon="4.80695">
        <ele>228</ele>
        <time>2017-06-28T09:21:44Z</time>
      </trkpt>
      <trkpt lat="45.98119" lon="4.80694">
        <ele>228</ele>
        <time>2017-06-28T09:21:45Z</time>
      </trkpt>
      <trkpt lat="45.98126" lon="4.80694">
        <ele>228</ele>
        <time>2017-06-28T09:21:46Z</time>
      </trkpt>
      <trkpt lat="45.98134" lon="4.80694">
        <ele>228</ele>
        <time>2017-06-28T09:21:47Z</time>
      </trkpt>
      <trkpt lat="45.98142" lon="4.80693">
        <ele>228</ele>
        <time>2017-06-28T09:21:48Z</time>
      </trkpt>
      <trkpt lat="45.9815" lon="4.80693">
        <ele>228</ele>
        <time>2017-06-28T09:21:49Z</time>
      </trkpt>
      <trkpt lat="45.98158" lon="4.80692">
        <ele>227</ele>
        <time>2017-06-28T09:21:50Z</time>
      </trkpt>
      <trkpt lat="45.98166" lon="4.80691">
        <ele>227</ele>
        <time>2017-06-28T09:21:51Z</time>
      </trkpt>
      <trkpt lat="45.98174" lon="4.8069">
        <ele>225</ele>
        <time>2017-06-28T09:21:52Z</time>
      </trkpt>
      <trkpt lat="45.98182" lon="4.80688">
        <ele>225</ele>
        <time>2017-06-28T09:21:53Z</time>
      </trkpt>
      <trkpt lat="45.9819" lon="4.80686">
        <ele>225</ele>
        <time>2017-06-28T09:21:54Z</time>
      </trkpt>
      <trkpt lat="45.98198" lon="4.80684">
        <ele>225</ele>
        <time>2017-06-28T09:21:55Z</time>
      </trkpt>
      <trkpt lat="45.98206" lon="4.8068">
        <ele>224</ele>
        <time>2017-06-28T09:21:56Z</time>
      </trkpt>
      <trkpt lat="45.98213" lon="4.80676">
        <ele>224</ele>
        <time>2017-06-28T09:21:57Z</time>
      </trkpt>
      <trkpt lat="45.9822" lon="4.8067">
        <ele>224</ele>
        <time>2017-06-28T09:21:58Z</time>
      </trkpt>
      <trkpt lat="45.98226" lon="4.80662">
        <ele>223</ele>
        <time>2017-06-28T09:21:59Z</time>
      </trkpt>
      <trkpt lat="45.98231" lon="4.80652">
        <ele>223</ele>
        <time>2017-06-28T09:22:00Z</time>
      </trkpt>
      <trkpt lat="45.98235" lon="4.80641">
        <ele>223</ele>
        <time>2017-06-28T09:22:01Z</time>
      </trkpt>
      <trkpt lat="45.98238" lon="4.8063">
        <ele>224</ele>
        <time>2017-06-28T09:22:02Z</time>
      </trkpt>
      <trkpt lat="45.98241" lon="4.80619">
        <ele>224</ele>
        <time>2017-06-28T09:22:03Z</time>
      </trkpt>
      <trkpt lat="45.98244" lon="4.80608">
        <ele>224</ele>
        <time>2017-06-28T09:22:04Z</time>
      </trkpt>
      <trkpt lat="45.98247" lon="4.80598">
        <ele>224</ele>
        <time>2017-06-28T09:22:05Z</time>
      </trkpt>
      <trkpt lat="45.98249" lon="4.80587">
        <ele>224</ele>
        <time>2017-06-28T09:22:06Z</time>
      </trkpt>
      <trkpt lat="45.98252" lon="4.80577">
        <ele>224</ele>
        <time>2017-06-28T09:22:07Z</time>
      </trkpt>
      <trkpt lat="45.98254" lon="4.80567">
        <ele>224</ele>
        <time>2017-06-28T09:22:08Z</time>
      </trkpt>
      <trkpt lat="45.98257" lon="4.80557">
        <ele>224</ele>
        <time>2017-06-28T09:22:09Z</time>
      </trkpt>
      <trkpt lat="45.9826" lon="4.80547">
        <ele>224</ele>
        <time>2017-06-28T09:22:10Z</time>
      </trkpt>
      <trkpt lat="45.98263" lon="4.80539">
        <ele>224</ele>
        <time>2017-06-28T09:22:11Z</time>
      </trkpt>
      <trkpt lat="45.98266" lon="4.8053">
        <ele>224</ele>
        <time>2017-06-28T09:22:12Z</time>
      </trkpt>
      <trkpt lat="45.98269" lon="4.80521">
        <ele>224</ele>
        <time>2017-06-28T09:22:13Z</time>
      </trkpt>
      <trkpt lat="45.98271" lon="4.80513">
        <ele>223</ele>
        <time>2017-06-28T09:22:14Z</time>
      </trkpt>
      <trkpt lat="45.98273" lon="4.80504">
        <ele>223</ele>
        <time>2017-06-28T09:22:15Z</time>
      </trkpt>
      <trkpt lat="45.98276" lon="4.80496">
        <ele>223</ele>
        <time>2017-06-28T09:22:16Z</time>
      </trkpt>
      <trkpt lat="45.98278" lon="4.80489">
        <ele>223</ele>
        <time>2017-06-28T09:22:17Z</time>
      </trkpt>
      <trkpt lat="45.98279" lon="4.80481">
        <ele>223</ele>
        <time>2017-06-28T09:22:18Z</time>
      </trkpt>
      <trkpt lat="45.98281" lon="4.80473">
        <ele>223</ele>
        <time>2017-06-28T09:22:19Z</time>
      </trkpt>
      <trkpt lat="45.98282" lon="4.80466">
        <ele>223</ele>
        <time>2017-06-28T09:22:20Z</time>
      </trkpt>
      <trkpt lat="45.98284" lon="4.80459">
        <ele>224</ele>
        <time>2017-06-28T09:22:21Z</time>
      </trkpt>
      <trkpt lat="45.98286" lon="4.80452">
        <ele>224</ele>
        <time>2017-06-28T09:22:22Z</time>
      </trkpt>
      <trkpt lat="45.98287" lon="4.80445">
        <ele>224</ele>
        <time>2017-06-28T09:22:23Z</time>
      </trkpt>
      <trkpt lat="45.98288" lon="4.80437">
        <ele>224</ele>
        <time>2017-06-28T09:22:24Z</time>
      </trkpt>
      <trkpt lat="45.98291" lon="4.8043">
        <ele>224</ele>
        <time>2017-06-28T09:22:25Z</time>
      </trkpt>
      <trkpt lat="45.98293" lon="4.80423">
        <ele>224</ele>
        <time>2017-06-28T09:22:26Z</time>
      </trkpt>
      <trkpt lat="45.98294" lon="4.80416">
        <ele>224</ele>
        <time>2017-06-28T09:22:27Z</time>
      </trkpt>
      <trkpt lat="45.98296" lon="4.80409">
        <ele>224</ele>
        <time>2017-06-28T09:22:28Z</time>
      </trkpt>
      <trkpt lat="45.98297" lon="4.80402">
        <ele>225</ele>
        <time>2017-06-28T09:22:29Z</time>
      </trkpt>
      <trkpt lat="45.98299" lon="4.80395">
        <ele>225</ele>
        <time>2017-06-28T09:22:30Z</time>
      </trkpt>
      <trkpt lat="45.983" lon="4.80387">
        <ele>225</ele>
        <time>2017-06-28T09:22:31Z</time>
      </trkpt>
      <trkpt lat="45.98301" lon="4.80381">
        <ele>225</ele>
        <time>2017-06-28T09:22:32Z</time>
      </trkpt>
      <trkpt lat="45.98303" lon="4.80374">
        <ele>225</ele>
        <time>2017-06-28T09:22:33Z</time>
      </trkpt>
      <trkpt lat="45.98305" lon="4.80367">
        <ele>225</ele>
        <time>2017-06-28T09:22:34Z</time>
      </trkpt>
      <trkpt lat="45.98306" lon="4.8036">
        <ele>225</ele>
        <time>2017-06-28T09:22:35Z</time>
      </trkpt>
      <trkpt lat="45.98307" lon="4.80351">
        <ele>226</ele>
        <time>2017-06-28T09:22:36Z</time>
      </trkpt>
      <trkpt lat="45.98308" lon="4.80344">
        <ele>226</ele>
        <time>2017-06-28T09:22:37Z</time>
      </trkpt>
      <trkpt lat="45.98308" lon="4.80335">
        <ele>226</ele>
        <time>2017-06-28T09:22:38Z</time>
      </trkpt>
      <trkpt lat="45.98309" lon="4.80328">
        <ele>227</ele>
        <time>2017-06-28T09:22:39Z</time>
      </trkpt>
      <trkpt lat="45.98311" lon="4.80321">
        <ele>227</ele>
        <time>2017-06-28T09:22:40Z</time>
      </trkpt>
      <trkpt lat="45.98312" lon="4.80313">
        <ele>226</ele>
        <time>2017-06-28T09:22:41Z</time>
      </trkpt>
      <trkpt lat="45.98314" lon="4.80306">
        <ele>226</ele>
        <time>2017-06-28T09:22:42Z</time>
      </trkpt>
      <trkpt lat="45.98316" lon="4.80299">
        <ele>226</ele>
        <time>2017-06-28T09:22:43Z</time>
      </trkpt>
      <trkpt lat="45.98318" lon="4.80292">
        <ele>226</ele>
        <time>2017-06-28T09:22:44Z</time>
      </trkpt>
      <trkpt lat="45.98319" lon="4.80286">
        <ele>227</ele>
        <time>2017-06-28T09:22:45Z</time>
      </trkpt>
      <trkpt lat="45.98321" lon="4.80279">
        <ele>227</ele>
        <time>2017-06-28T09:22:46Z</time>
      </trkpt>
      <trkpt lat="45.98323" lon="4.80273">
        <ele>227</ele>
        <time>2017-06-28T09:22:47Z</time>
      </trkpt>
      <trkpt lat="45.98324" lon="4.80267">
        <ele>227</ele>
        <time>2017-06-28T09:22:48Z</time>
      </trkpt>
      <trkpt lat="45.98327" lon="4.80259">
        <ele>228</ele>
        <time>2017-06-28T09:22:49Z</time>
      </trkpt>
      <trkpt lat="45.98329" lon="4.80252">
        <ele>229</ele>
        <time>2017-06-28T09:22:50Z</time>
      </trkpt>
      <trkpt lat="45.98331" lon="4.80245">
        <ele>229</ele>
        <time>2017-06-28T09:22:51Z</time>
      </trkpt>
      <trkpt lat="45.98333" lon="4.80239">
        <ele>229</ele>
        <time>2017-06-28T09:22:52Z</time>
      </trkpt>
      <trkpt lat="45.98334" lon="4.80232">
        <ele>230</ele>
        <time>2017-06-28T09:22:53Z</time>
      </trkpt>
      <trkpt lat="45.98334" lon="4.80221">
        <ele>230</ele>
        <time>2017-06-28T09:22:55Z</time>
      </trkpt>
      <trkpt lat="45.98333" lon="4.80216">
        <ele>227</ele>
        <time>2017-06-28T09:22:56Z</time>
      </trkpt>
      <trkpt lat="45.9833" lon="4.80205">
        <ele>227</ele>
        <time>2017-06-28T09:22:58Z</time>
      </trkpt>
      <trkpt lat="45.98328" lon="4.802">
        <ele>227</ele>
        <time>2017-06-28T09:22:59Z</time>
      </trkpt>
      <trkpt lat="45.98325" lon="4.80188">
        <ele>227</ele>
        <time>2017-06-28T09:23:01Z</time>
      </trkpt>
      <trkpt lat="45.98323" lon="4.80182">
        <ele>227</ele>
        <time>2017-06-28T09:23:02Z</time>
      </trkpt>
      <trkpt lat="45.98321" lon="4.80175">
        <ele>227</ele>
        <time>2017-06-28T09:23:03Z</time>
      </trkpt>
      <trkpt lat="45.98319" lon="4.80169">
        <ele>227</ele>
        <time>2017-06-28T09:23:04Z</time>
      </trkpt>
      <trkpt lat="45.98316" lon="4.80162">
        <ele>228</ele>
        <time>2017-06-28T09:23:05Z</time>
      </trkpt>
      <trkpt lat="45.98314" lon="4.80155">
        <ele>228</ele>
        <time>2017-06-28T09:23:06Z</time>
      </trkpt>
      <trkpt lat="45.98312" lon="4.80149">
        <ele>228</ele>
        <time>2017-06-28T09:23:07Z</time>
      </trkpt>
      <trkpt lat="45.98309" lon="4.80142">
        <ele>228</ele>
        <time>2017-06-28T09:23:08Z</time>
      </trkpt>
      <trkpt lat="45.98305" lon="4.80135">
        <ele>228</ele>
        <time>2017-06-28T09:23:09Z</time>
      </trkpt>
      <trkpt lat="45.98301" lon="4.80128">
        <ele>228</ele>
        <time>2017-06-28T09:23:10Z</time>
      </trkpt>
      <trkpt lat="45.98299" lon="4.80121">
        <ele>228</ele>
        <time>2017-06-28T09:23:11Z</time>
      </trkpt>
      <trkpt lat="45.98296" lon="4.80115">
        <ele>228</ele>
        <time>2017-06-28T09:23:12Z</time>
      </trkpt>
      <trkpt lat="45.98294" lon="4.80109">
        <ele>228</ele>
        <time>2017-06-28T09:23:13Z</time>
      </trkpt>
      <trkpt lat="45.98291" lon="4.80103">
        <ele>228</ele>
        <time>2017-06-28T09:23:14Z</time>
      </trkpt>
      <trkpt lat="45.9829" lon="4.80097">
        <ele>228</ele>
        <time>2017-06-28T09:23:15Z</time>
      </trkpt>
      <trkpt lat="45.98288" lon="4.80091">
        <ele>228</ele>
        <time>2017-06-28T09:23:16Z</time>
      </trkpt>
      <trkpt lat="45.98286" lon="4.80085">
        <ele>228</ele>
        <time>2017-06-28T09:23:17Z</time>
      </trkpt>
      <trkpt lat="45.98284" lon="4.80078">
        <ele>229</ele>
        <time>2017-06-28T09:23:18Z</time>
      </trkpt>
      <trkpt lat="45.98281" lon="4.80072">
        <ele>229</ele>
        <time>2017-06-28T09:23:19Z</time>
      </trkpt>
      <trkpt lat="45.98279" lon="4.80065">
        <ele>229</ele>
        <time>2017-06-28T09:23:20Z</time>
      </trkpt>
      <trkpt lat="45.98276" lon="4.80058">
        <ele>229</ele>
        <time>2017-06-28T09:23:21Z</time>
      </trkpt>
      <trkpt lat="45.98274" lon="4.80052">
        <ele>229</ele>
        <time>2017-06-28T09:23:22Z</time>
      </trkpt>
      <trkpt lat="45.98271" lon="4.80044">
        <ele>229</ele>
        <time>2017-06-28T09:23:23Z</time>
      </trkpt>
      <trkpt lat="45.98268" lon="4.80037">
        <ele>229</ele>
        <time>2017-06-28T09:23:24Z</time>
      </trkpt>
      <trkpt lat="45.98266" lon="4.8003">
        <ele>228</ele>
        <time>2017-06-28T09:23:25Z</time>
      </trkpt>
      <trkpt lat="45.98264" lon="4.80024">
        <ele>228</ele>
        <time>2017-06-28T09:23:26Z</time>
      </trkpt>
      <trkpt lat="45.98262" lon="4.80017">
        <ele>228</ele>
        <time>2017-06-28T09:23:27Z</time>
      </trkpt>
      <trkpt lat="45.9826" lon="4.8001">
        <ele>228</ele>
        <time>2017-06-28T09:23:28Z</time>
      </trkpt>
      <trkpt lat="45.98258" lon="4.80004">
        <ele>227</ele>
        <time>2017-06-28T09:23:29Z</time>
      </trkpt>
      <trkpt lat="45.98256" lon="4.79998">
        <ele>227</ele>
        <time>2017-06-28T09:23:30Z</time>
      </trkpt>
      <trkpt lat="45.98254" lon="4.79992">
        <ele>227</ele>
        <time>2017-06-28T09:23:31Z</time>
      </trkpt>
      <trkpt lat="45.98252" lon="4.79986">
        <ele>228</ele>
        <time>2017-06-28T09:23:32Z</time>
      </trkpt>
      <trkpt lat="45.9825" lon="4.7998">
        <ele>225</ele>
        <time>2017-06-28T09:23:33Z</time>
      </trkpt>
      <trkpt lat="45.98247" lon="4.79973">
        <ele>225</ele>
        <time>2017-06-28T09:23:34Z</time>
      </trkpt>
      <trkpt lat="45.98245" lon="4.79967">
        <ele>225</ele>
        <time>2017-06-28T09:23:35Z</time>
      </trkpt>
      <trkpt lat="45.98242" lon="4.7996">
        <ele>225</ele>
        <time>2017-06-28T09:23:36Z</time>
      </trkpt>
      <trkpt lat="45.9824" lon="4.79954">
        <ele>225</ele>
        <time>2017-06-28T09:23:37Z</time>
      </trkpt>
      <trkpt lat="45.98238" lon="4.79947">
        <ele>225</ele>
        <time>2017-06-28T09:23:38Z</time>
      </trkpt>
      <trkpt lat="45.98237" lon="4.79939">
        <ele>225</ele>
        <time>2017-06-28T09:23:39Z</time>
      </trkpt>
      <trkpt lat="45.98235" lon="4.79931">
        <ele>225</ele>
        <time>2017-06-28T09:23:40Z</time>
      </trkpt>
      <trkpt lat="45.98232" lon="4.79924">
        <ele>225</ele>
        <time>2017-06-28T09:23:41Z</time>
      </trkpt>
      <trkpt lat="45.98229" lon="4.79916">
        <ele>225</ele>
        <time>2017-06-28T09:23:42Z</time>
      </trkpt>
      <trkpt lat="45.98227" lon="4.79908">
        <ele>225</ele>
        <time>2017-06-28T09:23:43Z</time>
      </trkpt>
      <trkpt lat="45.98225" lon="4.799">
        <ele>225</ele>
        <time>2017-06-28T09:23:44Z</time>
      </trkpt>
      <trkpt lat="45.98223" lon="4.79893">
        <ele>225</ele>
        <time>2017-06-28T09:23:45Z</time>
      </trkpt>
      <trkpt lat="45.9822" lon="4.79886">
        <ele>225</ele>
        <time>2017-06-28T09:23:46Z</time>
      </trkpt>
      <trkpt lat="45.98219" lon="4.7988">
        <ele>225</ele>
        <time>2017-06-28T09:23:47Z</time>
      </trkpt>
      <trkpt lat="45.98218" lon="4.79873">
        <ele>225</ele>
        <time>2017-06-28T09:23:48Z</time>
      </trkpt>
      <trkpt lat="45.98215" lon="4.79862">
        <ele>225</ele>
        <time>2017-06-28T09:23:50Z</time>
      </trkpt>
      <trkpt lat="45.98213" lon="4.79855">
        <ele>225</ele>
        <time>2017-06-28T09:23:51Z</time>
      </trkpt>
      <trkpt lat="45.98212" lon="4.79849">
        <ele>225</ele>
        <time>2017-06-28T09:23:52Z</time>
      </trkpt>
      <trkpt lat="45.9821" lon="4.79843">
        <ele>225</ele>
        <time>2017-06-28T09:23:53Z</time>
      </trkpt>
      <trkpt lat="45.98206" lon="4.79837">
        <ele>225</ele>
        <time>2017-06-28T09:23:54Z</time>
      </trkpt>
      <trkpt lat="45.98203" lon="4.7983">
        <ele>226</ele>
        <time>2017-06-28T09:23:55Z</time>
      </trkpt>
      <trkpt lat="45.98201" lon="4.79823">
        <ele>226</ele>
        <time>2017-06-28T09:23:56Z</time>
      </trkpt>
      <trkpt lat="45.98198" lon="4.79816">
        <ele>226</ele>
        <time>2017-06-28T09:23:57Z</time>
      </trkpt>
      <trkpt lat="45.98196" lon="4.79809">
        <ele>226</ele>
        <time>2017-06-28T09:23:58Z</time>
      </trkpt>
      <trkpt lat="45.98194" lon="4.79803">
        <ele>226</ele>
        <time>2017-06-28T09:23:59Z</time>
      </trkpt>
      <trkpt lat="45.98191" lon="4.79796">
        <ele>226</ele>
        <time>2017-06-28T09:24:00Z</time>
      </trkpt>
      <trkpt lat="45.98189" lon="4.79789">
        <ele>226</ele>
        <time>2017-06-28T09:24:01Z</time>
      </trkpt>
      <trkpt lat="45.98187" lon="4.79782">
        <ele>226</ele>
        <time>2017-06-28T09:24:02Z</time>
      </trkpt>
      <trkpt lat="45.98186" lon="4.79775">
        <ele>226</ele>
        <time>2017-06-28T09:24:03Z</time>
      </trkpt>
      <trkpt lat="45.98187" lon="4.79762">
        <ele>226</ele>
        <time>2017-06-28T09:24:05Z</time>
      </trkpt>
      <trkpt lat="45.98187" lon="4.79756">
        <ele>226</ele>
        <time>2017-06-28T09:24:06Z</time>
      </trkpt>
      <trkpt lat="45.98185" lon="4.79745">
        <ele>227</ele>
        <time>2017-06-28T09:24:08Z</time>
      </trkpt>
      <trkpt lat="45.98182" lon="4.79741">
        <ele>227</ele>
        <time>2017-06-28T09:24:09Z</time>
      </trkpt>
      <trkpt lat="45.98178" lon="4.79738">
        <ele>227</ele>
        <time>2017-06-28T09:24:10Z</time>
      </trkpt>
      <trkpt lat="45.98173" lon="4.79736">
        <ele>227</ele>
        <time>2017-06-28T09:24:11Z</time>
      </trkpt>
      <trkpt lat="45.98168" lon="4.79737">
        <ele>227</ele>
        <time>2017-06-28T09:24:12Z</time>
      </trkpt>
      <trkpt lat="45.98163" lon="4.7974">
        <ele>226</ele>
        <time>2017-06-28T09:24:13Z</time>
      </trkpt>
      <trkpt lat="45.98159" lon="4.79744">
        <ele>226</ele>
        <time>2017-06-28T09:24:14Z</time>
      </trkpt>
      <trkpt lat="45.98154" lon="4.79748">
        <ele>226</ele>
        <time>2017-06-28T09:24:15Z</time>
      </trkpt>
      <trkpt lat="45.98149" lon="4.79751">
        <ele>225</ele>
        <time>2017-06-28T09:24:16Z</time>
      </trkpt>
      <trkpt lat="45.98144" lon="4.79753">
        <ele>225</ele>
        <time>2017-06-28T09:24:17Z</time>
      </trkpt>
      <trkpt lat="45.98138" lon="4.79754">
        <ele>224</ele>
        <time>2017-06-28T09:24:18Z</time>
      </trkpt>
      <trkpt lat="45.98132" lon="4.79756">
        <ele>224</ele>
        <time>2017-06-28T09:24:19Z</time>
      </trkpt>
      <trkpt lat="45.98125" lon="4.79757">
        <ele>224</ele>
        <time>2017-06-28T09:24:20Z</time>
      </trkpt>
      <trkpt lat="45.98119" lon="4.79758">
        <ele>224</ele>
        <time>2017-06-28T09:24:21Z</time>
      </trkpt>
      <trkpt lat="45.98112" lon="4.79759">
        <ele>224</ele>
        <time>2017-06-28T09:24:22Z</time>
      </trkpt>
      <trkpt lat="45.98106" lon="4.7976">
        <ele>224</ele>
        <time>2017-06-28T09:24:23Z</time>
      </trkpt>
      <trkpt lat="45.98099" lon="4.79761">
        <ele>223</ele>
        <time>2017-06-28T09:24:24Z</time>
      </trkpt>
      <trkpt lat="45.98092" lon="4.79762">
        <ele>223</ele>
        <time>2017-06-28T09:24:25Z</time>
      </trkpt>
      <trkpt lat="45.98085" lon="4.79764">
        <ele>223</ele>
        <time>2017-06-28T09:24:26Z</time>
      </trkpt>
      <trkpt lat="45.98078" lon="4.79765">
        <ele>223</ele>
        <time>2017-06-28T09:24:27Z</time>
      </trkpt>
      <trkpt lat="45.98071" lon="4.79766">
        <ele>223</ele>
        <time>2017-06-28T09:24:28Z</time>
      </trkpt>
      <trkpt lat="45.98065" lon="4.79767">
        <ele>223</ele>
        <time>2017-06-28T09:24:29Z</time>
      </trkpt>
      <trkpt lat="45.98058" lon="4.79768">
        <ele>223</ele>
        <time>2017-06-28T09:24:30Z</time>
      </trkpt>
      <trkpt lat="45.98052" lon="4.79769">
        <ele>223</ele>
        <time>2017-06-28T09:24:31Z</time>
      </trkpt>
      <trkpt lat="45.98045" lon="4.7977">
        <ele>223</ele>
        <time>2017-06-28T09:24:32Z</time>
      </trkpt>
      <trkpt lat="45.98038" lon="4.79771">
        <ele>223</ele>
        <time>2017-06-28T09:24:33Z</time>
      </trkpt>
      <trkpt lat="45.98032" lon="4.79772">
        <ele>223</ele>
        <time>2017-06-28T09:24:34Z</time>
      </trkpt>
      <trkpt lat="45.98025" lon="4.79773">
        <ele>223</ele>
        <time>2017-06-28T09:24:35Z</time>
      </trkpt>
      <trkpt lat="45.98018" lon="4.79774">
        <ele>223</ele>
        <time>2017-06-28T09:24:36Z</time>
      </trkpt>
      <trkpt lat="45.98012" lon="4.79775">
        <ele>223</ele>
        <time>2017-06-28T09:24:37Z</time>
      </trkpt>
      <trkpt lat="45.98005" lon="4.79775">
        <ele>223</ele>
        <time>2017-06-28T09:24:38Z</time>
      </trkpt>
      <trkpt lat="45.97999" lon="4.79775">
        <ele>224</ele>
        <time>2017-06-28T09:24:39Z</time>
      </trkpt>
      <trkpt lat="45.97992" lon="4.79776">
        <ele>224</ele>
        <time>2017-06-28T09:24:40Z</time>
      </trkpt>
      <trkpt lat="45.97986" lon="4.79776">
        <ele>224</ele>
        <time>2017-06-28T09:24:41Z</time>
      </trkpt>
      <trkpt lat="45.9798" lon="4.79777">
        <ele>224</ele>
        <time>2017-06-28T09:24:42Z</time>
      </trkpt>
      <trkpt lat="45.97974" lon="4.79778">
        <ele>224</ele>
        <time>2017-06-28T09:24:43Z</time>
      </trkpt>
      <trkpt lat="45.97968" lon="4.79779">
        <ele>224</ele>
        <time>2017-06-28T09:24:44Z</time>
      </trkpt>
      <trkpt lat="45.97964" lon="4.7978">
        <ele>224</ele>
        <time>2017-06-28T09:24:45Z</time>
      </trkpt>
      <trkpt lat="45.97958" lon="4.79781">
        <ele>224</ele>
        <time>2017-06-28T09:24:46Z</time>
      </trkpt>
      <trkpt lat="45.97952" lon="4.79782">
        <ele>224</ele>
        <time>2017-06-28T09:24:47Z</time>
      </trkpt>
      <trkpt lat="45.97946" lon="4.79783">
        <ele>224</ele>
        <time>2017-06-28T09:24:48Z</time>
      </trkpt>
      <trkpt lat="45.97941" lon="4.79785">
        <ele>224</ele>
        <time>2017-06-28T09:24:49Z</time>
      </trkpt>
      <trkpt lat="45.97934" lon="4.79786">
        <ele>224</ele>
        <time>2017-06-28T09:24:50Z</time>
      </trkpt>
      <trkpt lat="45.97928" lon="4.79786">
        <ele>225</ele>
        <time>2017-06-28T09:24:51Z</time>
      </trkpt>
      <trkpt lat="45.97922" lon="4.79787">
        <ele>225</ele>
        <time>2017-06-28T09:24:52Z</time>
      </trkpt>
      <trkpt lat="45.97915" lon="4.79788">
        <ele>225</ele>
        <time>2017-06-28T09:24:53Z</time>
      </trkpt>
      <trkpt lat="45.97909" lon="4.79789">
        <ele>225</ele>
        <time>2017-06-28T09:24:54Z</time>
      </trkpt>
      <trkpt lat="45.97902" lon="4.79789">
        <ele>225</ele>
        <time>2017-06-28T09:24:55Z</time>
      </trkpt>
      <trkpt lat="45.97896" lon="4.7979">
        <ele>224</ele>
        <time>2017-06-28T09:24:56Z</time>
      </trkpt>
      <trkpt lat="45.9789" lon="4.79791">
        <ele>224</ele>
        <time>2017-06-28T09:24:57Z</time>
      </trkpt>
      <trkpt lat="45.97885" lon="4.79792">
        <ele>224</ele>
        <time>2017-06-28T09:24:58Z</time>
      </trkpt>
      <trkpt lat="45.97879" lon="4.79793">
        <ele>224</ele>
        <time>2017-06-28T09:24:59Z</time>
      </trkpt>
      <trkpt lat="45.97873" lon="4.79794">
        <ele>224</ele>
        <time>2017-06-28T09:25:00Z</time>
      </trkpt>
      <trkpt lat="45.97867" lon="4.79795">
        <ele>224</ele>
        <time>2017-06-28T09:25:01Z</time>
      </trkpt>
      <trkpt lat="45.97861" lon="4.79796">
        <ele>224</ele>
        <time>2017-06-28T09:25:02Z</time>
      </trkpt>
      <trkpt lat="45.97855" lon="4.79797">
        <ele>224</ele>
        <time>2017-06-28T09:25:03Z</time>
      </trkpt>
      <trkpt lat="45.97848" lon="4.79798">
        <ele>224</ele>
        <time>2017-06-28T09:25:04Z</time>
      </trkpt>
      <trkpt lat="45.97842" lon="4.79799">
        <ele>224</ele>
        <time>2017-06-28T09:25:05Z</time>
      </trkpt>
      <trkpt lat="45.97835" lon="4.798">
        <ele>224</ele>
        <time>2017-06-28T09:25:06Z</time>
      </trkpt>
      <trkpt lat="45.97828" lon="4.79801">
        <ele>223</ele>
        <time>2017-06-28T09:25:07Z</time>
      </trkpt>
      <trkpt lat="45.97821" lon="4.79802">
        <ele>223</ele>
        <time>2017-06-28T09:25:08Z</time>
      </trkpt>
      <trkpt lat="45.97814" lon="4.79804">
        <ele>223</ele>
        <time>2017-06-28T09:25:09Z</time>
      </trkpt>
      <trkpt lat="45.97807" lon="4.79805">
        <ele>223</ele>
        <time>2017-06-28T09:25:10Z</time>
      </trkpt>
      <trkpt lat="45.978" lon="4.79807">
        <ele>223</ele>
        <time>2017-06-28T09:25:11Z</time>
      </trkpt>
      <trkpt lat="45.97792" lon="4.79808">
        <ele>223</ele>
        <time>2017-06-28T09:25:12Z</time>
      </trkpt>
      <trkpt lat="45.97785" lon="4.79811">
        <ele>223</ele>
        <time>2017-06-28T09:25:13Z</time>
      </trkpt>
      <trkpt lat="45.97778" lon="4.79812">
        <ele>223</ele>
        <time>2017-06-28T09:25:14Z</time>
      </trkpt>
      <trkpt lat="45.97771" lon="4.79813">
        <ele>223</ele>
        <time>2017-06-28T09:25:15Z</time>
      </trkpt>
      <trkpt lat="45.97765" lon="4.79814">
        <ele>223</ele>
        <time>2017-06-28T09:25:16Z</time>
      </trkpt>
      <trkpt lat="45.97759" lon="4.79815">
        <ele>223</ele>
        <time>2017-06-28T09:25:17Z</time>
      </trkpt>
      <trkpt lat="45.97753" lon="4.79816">
        <ele>223</ele>
        <time>2017-06-28T09:25:18Z</time>
      </trkpt>
      <trkpt lat="45.97748" lon="4.79817">
        <ele>223</ele>
        <time>2017-06-28T09:25:19Z</time>
      </trkpt>
      <trkpt lat="45.97742" lon="4.79818">
        <ele>223</ele>
        <time>2017-06-28T09:25:20Z</time>
      </trkpt>
      <trkpt lat="45.97736" lon="4.79819">
        <ele>223</ele>
        <time>2017-06-28T09:25:21Z</time>
      </trkpt>
      <trkpt lat="45.9773" lon="4.7982">
        <ele>223</ele>
        <time>2017-06-28T09:25:22Z</time>
      </trkpt>
      <trkpt lat="45.97724" lon="4.79821">
        <ele>223</ele>
        <time>2017-06-28T09:25:23Z</time>
      </trkpt>
      <trkpt lat="45.97718" lon="4.79822">
        <ele>223</ele>
        <time>2017-06-28T09:25:24Z</time>
      </trkpt>
      <trkpt lat="45.97712" lon="4.79824">
        <ele>223</ele>
        <time>2017-06-28T09:25:25Z</time>
      </trkpt>
      <trkpt lat="45.97707" lon="4.79825">
        <ele>223</ele>
        <time>2017-06-28T09:25:26Z</time>
      </trkpt>
      <trkpt lat="45.97702" lon="4.79826">
        <ele>223</ele>
        <time>2017-06-28T09:25:27Z</time>
      </trkpt>
      <trkpt lat="45.97696" lon="4.79827">
        <ele>223</ele>
        <time>2017-06-28T09:25:28Z</time>
      </trkpt>
      <trkpt lat="45.97691" lon="4.79828">
        <ele>223</ele>
        <time>2017-06-28T09:25:29Z</time>
      </trkpt>
      <trkpt lat="45.97685" lon="4.79829">
        <ele>223</ele>
        <time>2017-06-28T09:25:30Z</time>
      </trkpt>
      <trkpt lat="45.97679" lon="4.79831">
        <ele>223</ele>
        <time>2017-06-28T09:25:31Z</time>
      </trkpt>
      <trkpt lat="45.97673" lon="4.79832">
        <ele>222</ele>
        <time>2017-06-28T09:25:32Z</time>
      </trkpt>
      <trkpt lat="45.97667" lon="4.79834">
        <ele>222</ele>
        <time>2017-06-28T09:25:33Z</time>
      </trkpt>
      <trkpt lat="45.97662" lon="4.79836">
        <ele>222</ele>
        <time>2017-06-28T09:25:34Z</time>
      </trkpt>
      <trkpt lat="45.97656" lon="4.79837">
        <ele>221</ele>
        <time>2017-06-28T09:25:35Z</time>
      </trkpt>
      <trkpt lat="45.97651" lon="4.7984">
        <ele>221</ele>
        <time>2017-06-28T09:25:36Z</time>
      </trkpt>
      <trkpt lat="45.97646" lon="4.79842">
        <ele>221</ele>
        <time>2017-06-28T09:25:37Z</time>
      </trkpt>
      <trkpt lat="45.97641" lon="4.79844">
        <ele>221</ele>
        <time>2017-06-28T09:25:38Z</time>
      </trkpt>
      <trkpt lat="45.97636" lon="4.79846">
        <ele>221</ele>
        <time>2017-06-28T09:25:39Z</time>
      </trkpt>
      <trkpt lat="45.97631" lon="4.79848">
        <ele>221</ele>
        <time>2017-06-28T09:25:40Z</time>
      </trkpt>
      <trkpt lat="45.97627" lon="4.79849">
        <ele>221</ele>
        <time>2017-06-28T09:25:41Z</time>
      </trkpt>
      <trkpt lat="45.97622" lon="4.79851">
        <ele>221</ele>
        <time>2017-06-28T09:25:42Z</time>
      </trkpt>
      <trkpt lat="45.97617" lon="4.79853">
        <ele>221</ele>
        <time>2017-06-28T09:25:43Z</time>
      </trkpt>
      <trkpt lat="45.97612" lon="4.79855">
        <ele>221</ele>
        <time>2017-06-28T09:25:44Z</time>
      </trkpt>
      <trkpt lat="45.97607" lon="4.79856">
        <ele>221</ele>
        <time>2017-06-28T09:25:45Z</time>
      </trkpt>
      <trkpt lat="45.97603" lon="4.79858">
        <ele>221</ele>
        <time>2017-06-28T09:25:46Z</time>
      </trkpt>
      <trkpt lat="45.97597" lon="4.79861">
        <ele>221</ele>
        <time>2017-06-28T09:25:47Z</time>
      </trkpt>
      <trkpt lat="45.97592" lon="4.79863">
        <ele>221</ele>
        <time>2017-06-28T09:25:48Z</time>
      </trkpt>
      <trkpt lat="45.97586" lon="4.79865">
        <ele>221</ele>
        <time>2017-06-28T09:25:49Z</time>
      </trkpt>
      <trkpt lat="45.97579" lon="4.79867">
        <ele>222</ele>
        <time>2017-06-28T09:25:50Z</time>
      </trkpt>
      <trkpt lat="45.97573" lon="4.79868">
        <ele>222</ele>
        <time>2017-06-28T09:25:51Z</time>
      </trkpt>
      <trkpt lat="45.97567" lon="4.7987">
        <ele>222</ele>
        <time>2017-06-28T09:25:52Z</time>
      </trkpt>
      <trkpt lat="45.97561" lon="4.79872">
        <ele>222</ele>
        <time>2017-06-28T09:25:53Z</time>
      </trkpt>
      <trkpt lat="45.97554" lon="4.79874">
        <ele>222</ele>
        <time>2017-06-28T09:25:54Z</time>
      </trkpt>
      <trkpt lat="45.97548" lon="4.79875">
        <ele>222</ele>
        <time>2017-06-28T09:25:55Z</time>
      </trkpt>
      <trkpt lat="45.97541" lon="4.79877">
        <ele>222</ele>
        <time>2017-06-28T09:25:56Z</time>
      </trkpt>
      <trkpt lat="45.97535" lon="4.79879">
        <ele>222</ele>
        <time>2017-06-28T09:25:57Z</time>
      </trkpt>
      <trkpt lat="45.97528" lon="4.7988">
        <ele>222</ele>
        <time>2017-06-28T09:25:58Z</time>
      </trkpt>
      <trkpt lat="45.9752" lon="4.7988">
        <ele>222</ele>
        <time>2017-06-28T09:25:59Z</time>
      </trkpt>
      <trkpt lat="45.97513" lon="4.79881">
        <ele>222</ele>
        <time>2017-06-28T09:26:00Z</time>
      </trkpt>
      <trkpt lat="45.97505" lon="4.79882">
        <ele>222</ele>
        <time>2017-06-28T09:26:01Z</time>
      </trkpt>
      <trkpt lat="45.97497" lon="4.79883">
        <ele>221</ele>
        <time>2017-06-28T09:26:02Z</time>
      </trkpt>
      <trkpt lat="45.97488" lon="4.79884">
        <ele>221</ele>
        <time>2017-06-28T09:26:03Z</time>
      </trkpt>
      <trkpt lat="45.9748" lon="4.79884">
        <ele>221</ele>
        <time>2017-06-28T09:26:04Z</time>
      </trkpt>
      <trkpt lat="45.97471" lon="4.79884">
        <ele>221</ele>
        <time>2017-06-28T09:26:05Z</time>
      </trkpt>
      <trkpt lat="45.97463" lon="4.79883">
        <ele>221</ele>
        <time>2017-06-28T09:26:06Z</time>
      </trkpt>
      <trkpt lat="45.97454" lon="4.79883">
        <ele>221</ele>
        <time>2017-06-28T09:26:07Z</time>
      </trkpt>
      <trkpt lat="45.97445" lon="4.79884">
        <ele>221</ele>
        <time>2017-06-28T09:26:08Z</time>
      </trkpt>
      <trkpt lat="45.97436" lon="4.79884">
        <ele>220</ele>
        <time>2017-06-28T09:26:09Z</time>
      </trkpt>
      <trkpt lat="45.97428" lon="4.79885">
        <ele>220</ele>
        <time>2017-06-28T09:26:10Z</time>
      </trkpt>
      <trkpt lat="45.97419" lon="4.79886">
        <ele>220</ele>
        <time>2017-06-28T09:26:11Z</time>
      </trkpt>
      <trkpt lat="45.97411" lon="4.79887">
        <ele>218</ele>
        <time>2017-06-28T09:26:12Z</time>
      </trkpt>
      <trkpt lat="45.97402" lon="4.79888">
        <ele>218</ele>
        <time>2017-06-28T09:26:13Z</time>
      </trkpt>
      <trkpt lat="45.97394" lon="4.7989">
        <ele>218</ele>
        <time>2017-06-28T09:26:14Z</time>
      </trkpt>
      <trkpt lat="45.97386" lon="4.79891">
        <ele>217</ele>
        <time>2017-06-28T09:26:15Z</time>
      </trkpt>
      <trkpt lat="45.97377" lon="4.79893">
        <ele>217</ele>
        <time>2017-06-28T09:26:16Z</time>
      </trkpt>
      <trkpt lat="45.97369" lon="4.79895">
        <ele>217</ele>
        <time>2017-06-28T09:26:17Z</time>
      </trkpt>
      <trkpt lat="45.9736" lon="4.79896">
        <ele>216</ele>
        <time>2017-06-28T09:26:18Z</time>
      </trkpt>
      <trkpt lat="45.97352" lon="4.79898">
        <ele>216</ele>
        <time>2017-06-28T09:26:19Z</time>
      </trkpt>
      <trkpt lat="45.97343" lon="4.79899">
        <ele>216</ele>
        <time>2017-06-28T09:26:20Z</time>
      </trkpt>
      <trkpt lat="45.97334" lon="4.79901">
        <ele>215</ele>
        <time>2017-06-28T09:26:21Z</time>
      </trkpt>
      <trkpt lat="45.97325" lon="4.79902">
        <ele>214</ele>
        <time>2017-06-28T09:26:22Z</time>
      </trkpt>
      <trkpt lat="45.97315" lon="4.79903">
        <ele>214</ele>
        <time>2017-06-28T09:26:23Z</time>
      </trkpt>
      <trkpt lat="45.97307" lon="4.79904">
        <ele>214</ele>
        <time>2017-06-28T09:26:24Z</time>
      </trkpt>
      <trkpt lat="45.97299" lon="4.79906">
        <ele>213</ele>
        <time>2017-06-28T09:26:25Z</time>
      </trkpt>
      <trkpt lat="45.97292" lon="4.79907">
        <ele>213</ele>
        <time>2017-06-28T09:26:26Z</time>
      </trkpt>
      <trkpt lat="45.97284" lon="4.79909">
        <ele>213</ele>
        <time>2017-06-28T09:26:27Z</time>
      </trkpt>
      <trkpt lat="45.97277" lon="4.79909">
        <ele>213</ele>
        <time>2017-06-28T09:26:28Z</time>
      </trkpt>
      <trkpt lat="45.9727" lon="4.7991">
        <ele>213</ele>
        <time>2017-06-28T09:26:29Z</time>
      </trkpt>
      <trkpt lat="45.97264" lon="4.79911">
        <ele>213</ele>
        <time>2017-06-28T09:26:30Z</time>
      </trkpt>
      <trkpt lat="45.97259" lon="4.79911">
        <ele>213</ele>
        <time>2017-06-28T09:26:31Z</time>
      </trkpt>
      <trkpt lat="45.97251" lon="4.79908">
        <ele>212</ele>
        <time>2017-06-28T09:26:33Z</time>
      </trkpt>
      <trkpt lat="45.97249" lon="4.79902">
        <ele>211</ele>
        <time>2017-06-28T09:26:34Z</time>
      </trkpt>
      <trkpt lat="45.97247" lon="4.79896">
        <ele>211</ele>
        <time>2017-06-28T09:26:35Z</time>
      </trkpt>
      <trkpt lat="45.97245" lon="4.7989">
        <ele>211</ele>
        <time>2017-06-28T09:26:36Z</time>
      </trkpt>
      <trkpt lat="45.97243" lon="4.79883">
        <ele>211</ele>
        <time>2017-06-28T09:26:37Z</time>
      </trkpt>
      <trkpt lat="45.9724" lon="4.79876">
        <ele>211</ele>
        <time>2017-06-28T09:26:38Z</time>
      </trkpt>
      <trkpt lat="45.97238" lon="4.79868">
        <ele>211</ele>
        <time>2017-06-28T09:26:39Z</time>
      </trkpt>
      <trkpt lat="45.97236" lon="4.79861">
        <ele>211</ele>
        <time>2017-06-28T09:26:40Z</time>
      </trkpt>
      <trkpt lat="45.97235" lon="4.79853">
        <ele>211</ele>
        <time>2017-06-28T09:26:41Z</time>
      </trkpt>
      <trkpt lat="45.97235" lon="4.79845">
        <ele>211</ele>
        <time>2017-06-28T09:26:42Z</time>
      </trkpt>
      <trkpt lat="45.97235" lon="4.79837">
        <ele>211</ele>
        <time>2017-06-28T09:26:43Z</time>
      </trkpt>
      <trkpt lat="45.97236" lon="4.79829">
        <ele>211</ele>
        <time>2017-06-28T09:26:44Z</time>
      </trkpt>
      <trkpt lat="45.97236" lon="4.79821">
        <ele>211</ele>
        <time>2017-06-28T09:26:45Z</time>
      </trkpt>
      <trkpt lat="45.97237" lon="4.79812">
        <ele>210</ele>
        <time>2017-06-28T09:26:46Z</time>
      </trkpt>
      <trkpt lat="45.97237" lon="4.79804">
        <ele>210</ele>
        <time>2017-06-28T09:26:47Z</time>
      </trkpt>
      <trkpt lat="45.97237" lon="4.79796">
        <ele>210</ele>
        <time>2017-06-28T09:26:48Z</time>
      </trkpt>
      <trkpt lat="45.97237" lon="4.79787">
        <ele>210</ele>
        <time>2017-06-28T09:26:49Z</time>
      </trkpt>
      <trkpt lat="45.97238" lon="4.79779">
        <ele>210</ele>
        <time>2017-06-28T09:26:50Z</time>
      </trkpt>
      <trkpt lat="45.97238" lon="4.7977">
        <ele>210</ele>
        <time>2017-06-28T09:26:51Z</time>
      </trkpt>
      <trkpt lat="45.97239" lon="4.79762">
        <ele>209</ele>
        <time>2017-06-28T09:26:52Z</time>
      </trkpt>
      <trkpt lat="45.9724" lon="4.79754">
        <ele>209</ele>
        <time>2017-06-28T09:26:53Z</time>
      </trkpt>
      <trkpt lat="45.97241" lon="4.79746">
        <ele>209</ele>
        <time>2017-06-28T09:26:54Z</time>
      </trkpt>
      <trkpt lat="45.97242" lon="4.79738">
        <ele>209</ele>
        <time>2017-06-28T09:26:55Z</time>
      </trkpt>
      <trkpt lat="45.97243" lon="4.79731">
        <ele>209</ele>
        <time>2017-06-28T09:26:56Z</time>
      </trkpt>
      <trkpt lat="45.97245" lon="4.79723">
        <ele>209</ele>
        <time>2017-06-28T09:26:57Z</time>
      </trkpt>
      <trkpt lat="45.97246" lon="4.79715">
        <ele>209</ele>
        <time>2017-06-28T09:26:58Z</time>
      </trkpt>
      <trkpt lat="45.97247" lon="4.79708">
        <ele>208</ele>
        <time>2017-06-28T09:26:59Z</time>
      </trkpt>
      <trkpt lat="45.97248" lon="4.79699">
        <ele>208</ele>
        <time>2017-06-28T09:27:00Z</time>
      </trkpt>
      <trkpt lat="45.97249" lon="4.79691">
        <ele>208</ele>
        <time>2017-06-28T09:27:01Z</time>
      </trkpt>
      <trkpt lat="45.97251" lon="4.79682">
        <ele>211</ele>
        <time>2017-06-28T09:27:02Z</time>
      </trkpt>
      <trkpt lat="45.97252" lon="4.79673">
        <ele>209</ele>
        <time>2017-06-28T09:27:03Z</time>
      </trkpt>
      <trkpt lat="45.97253" lon="4.79663">
        <ele>209</ele>
        <time>2017-06-28T09:27:04Z</time>
      </trkpt>
      <trkpt lat="45.97254" lon="4.79654">
        <ele>211</ele>
        <time>2017-06-28T09:27:05Z</time>
      </trkpt>
      <trkpt lat="45.97254" lon="4.79644">
        <ele>212</ele>
        <time>2017-06-28T09:27:06Z</time>
      </trkpt>
      <trkpt lat="45.97254" lon="4.79634">
        <ele>213</ele>
        <time>2017-06-28T09:27:07Z</time>
      </trkpt>
      <trkpt lat="45.97254" lon="4.79624">
        <ele>213</ele>
        <time>2017-06-28T09:27:08Z</time>
      </trkpt>
      <trkpt lat="45.97254" lon="4.79614">
        <ele>213</ele>
        <time>2017-06-28T09:27:09Z</time>
      </trkpt>
      <trkpt lat="45.97255" lon="4.79604">
        <ele>212</ele>
        <time>2017-06-28T09:27:10Z</time>
      </trkpt>
      <trkpt lat="45.97255" lon="4.79595">
        <ele>212</ele>
        <time>2017-06-28T09:27:11Z</time>
      </trkpt>
      <trkpt lat="45.97255" lon="4.79586">
        <ele>211</ele>
        <time>2017-06-28T09:27:12Z</time>
      </trkpt>
      <trkpt lat="45.97255" lon="4.79578">
        <ele>212</ele>
        <time>2017-06-28T09:27:13Z</time>
      </trkpt>
      <trkpt lat="45.97254" lon="4.79569">
        <ele>212</ele>
        <time>2017-06-28T09:27:14Z</time>
      </trkpt>
      <trkpt lat="45.97253" lon="4.79561">
        <ele>213</ele>
        <time>2017-06-28T09:27:15Z</time>
      </trkpt>
      <trkpt lat="45.97253" lon="4.79553">
        <ele>214</ele>
        <time>2017-06-28T09:27:16Z</time>
      </trkpt>
      <trkpt lat="45.97251" lon="4.79543">
        <ele>214</ele>
        <time>2017-06-28T09:27:17Z</time>
      </trkpt>
      <trkpt lat="45.9725" lon="4.79535">
        <ele>210</ele>
        <time>2017-06-28T09:27:18Z</time>
      </trkpt>
      <trkpt lat="45.97248" lon="4.79527">
        <ele>210</ele>
        <time>2017-06-28T09:27:19Z</time>
      </trkpt>
      <trkpt lat="45.97247" lon="4.79518">
        <ele>210</ele>
        <time>2017-06-28T09:27:20Z</time>
      </trkpt>
      <trkpt lat="45.97246" lon="4.7951">
        <ele>210</ele>
        <time>2017-06-28T09:27:21Z</time>
      </trkpt>
      <trkpt lat="45.97245" lon="4.79502">
        <ele>211</ele>
        <time>2017-06-28T09:27:22Z</time>
      </trkpt>
      <trkpt lat="45.97243" lon="4.79494">
        <ele>210</ele>
        <time>2017-06-28T09:27:23Z</time>
      </trkpt>
      <trkpt lat="45.97242" lon="4.79486">
        <ele>210</ele>
        <time>2017-06-28T09:27:24Z</time>
      </trkpt>
      <trkpt lat="45.9724" lon="4.79478">
        <ele>209</ele>
        <time>2017-06-28T09:27:25Z</time>
      </trkpt>
      <trkpt lat="45.97238" lon="4.7947">
        <ele>209</ele>
        <time>2017-06-28T09:27:26Z</time>
      </trkpt>
      <trkpt lat="45.97235" lon="4.79462">
        <ele>209</ele>
        <time>2017-06-28T09:27:27Z</time>
      </trkpt>
      <trkpt lat="45.97233" lon="4.79455">
        <ele>209</ele>
        <time>2017-06-28T09:27:28Z</time>
      </trkpt>
      <trkpt lat="45.9723" lon="4.79448">
        <ele>209</ele>
        <time>2017-06-28T09:27:29Z</time>
      </trkpt>
      <trkpt lat="45.97227" lon="4.7944">
        <ele>209</ele>
        <time>2017-06-28T09:27:30Z</time>
      </trkpt>
      <trkpt lat="45.97225" lon="4.79432">
        <ele>209</ele>
        <time>2017-06-28T09:27:31Z</time>
      </trkpt>
      <trkpt lat="45.97222" lon="4.79425">
        <ele>209</ele>
        <time>2017-06-28T09:27:32Z</time>
      </trkpt>
      <trkpt lat="45.97219" lon="4.79418">
        <ele>208</ele>
        <time>2017-06-28T09:27:33Z</time>
      </trkpt>
      <trkpt lat="45.97217" lon="4.79412">
        <ele>208</ele>
        <time>2017-06-28T09:27:34Z</time>
      </trkpt>
      <trkpt lat="45.97213" lon="4.79405">
        <ele>208</ele>
        <time>2017-06-28T09:27:35Z</time>
      </trkpt>
      <trkpt lat="45.9721" lon="4.79398">
        <ele>208</ele>
        <time>2017-06-28T09:27:36Z</time>
      </trkpt>
      <trkpt lat="45.97207" lon="4.79391">
        <ele>208</ele>
        <time>2017-06-28T09:27:37Z</time>
      </trkpt>
      <trkpt lat="45.97204" lon="4.79383">
        <ele>208</ele>
        <time>2017-06-28T09:27:38Z</time>
      </trkpt>
      <trkpt lat="45.97201" lon="4.79375">
        <ele>207</ele>
        <time>2017-06-28T09:27:39Z</time>
      </trkpt>
      <trkpt lat="45.97198" lon="4.79368">
        <ele>207</ele>
        <time>2017-06-28T09:27:40Z</time>
      </trkpt>
      <trkpt lat="45.97194" lon="4.7936">
        <ele>207</ele>
        <time>2017-06-28T09:27:41Z</time>
      </trkpt>
      <trkpt lat="45.97191" lon="4.79353">
        <ele>207</ele>
        <time>2017-06-28T09:27:42Z</time>
      </trkpt>
      <trkpt lat="45.97188" lon="4.79346">
        <ele>207</ele>
        <time>2017-06-28T09:27:43Z</time>
      </trkpt>
      <trkpt lat="45.97185" lon="4.79338">
        <ele>207</ele>
        <time>2017-06-28T09:27:44Z</time>
      </trkpt>
      <trkpt lat="45.97183" lon="4.79331">
        <ele>207</ele>
        <time>2017-06-28T09:27:45Z</time>
      </trkpt>
      <trkpt lat="45.9718" lon="4.79324">
        <ele>207</ele>
        <time>2017-06-28T09:27:46Z</time>
      </trkpt>
      <trkpt lat="45.97177" lon="4.79316">
        <ele>207</ele>
        <time>2017-06-28T09:27:47Z</time>
      </trkpt>
      <trkpt lat="45.97173" lon="4.79308">
        <ele>207</ele>
        <time>2017-06-28T09:27:48Z</time>
      </trkpt>
      <trkpt lat="45.9717" lon="4.793">
        <ele>207</ele>
        <time>2017-06-28T09:27:49Z</time>
      </trkpt>
      <trkpt lat="45.97167" lon="4.79292">
        <ele>204</ele>
        <time>2017-06-28T09:27:50Z</time>
      </trkpt>
      <trkpt lat="45.97164" lon="4.79284">
        <ele>204</ele>
        <time>2017-06-28T09:27:51Z</time>
      </trkpt>
      <trkpt lat="45.97161" lon="4.79276">
        <ele>204</ele>
        <time>2017-06-28T09:27:52Z</time>
      </trkpt>
      <trkpt lat="45.97158" lon="4.79267">
        <ele>204</ele>
        <time>2017-06-28T09:27:53Z</time>
      </trkpt>
      <trkpt lat="45.97154" lon="4.79258">
        <ele>205</ele>
        <time>2017-06-28T09:27:54Z</time>
      </trkpt>
      <trkpt lat="45.97151" lon="4.79249">
        <ele>205</ele>
        <time>2017-06-28T09:27:55Z</time>
      </trkpt>
      <trkpt lat="45.97147" lon="4.79241">
        <ele>205</ele>
        <time>2017-06-28T09:27:56Z</time>
      </trkpt>
      <trkpt lat="45.97143" lon="4.79232">
        <ele>205</ele>
        <time>2017-06-28T09:27:57Z</time>
      </trkpt>
      <trkpt lat="45.97139" lon="4.79224">
        <ele>205</ele>
        <time>2017-06-28T09:27:58Z</time>
      </trkpt>
      <trkpt lat="45.97136" lon="4.79216">
        <ele>206</ele>
        <time>2017-06-28T09:27:59Z</time>
      </trkpt>
      <trkpt lat="45.97133" lon="4.79207">
        <ele>206</ele>
        <time>2017-06-28T09:28:00Z</time>
      </trkpt>
      <trkpt lat="45.9713" lon="4.792">
        <ele>206</ele>
        <time>2017-06-28T09:28:01Z</time>
      </trkpt>
      <trkpt lat="45.97126" lon="4.79192">
        <ele>206</ele>
        <time>2017-06-28T09:28:02Z</time>
      </trkpt>
      <trkpt lat="45.97123" lon="4.79184">
        <ele>206</ele>
        <time>2017-06-28T09:28:03Z</time>
      </trkpt>
      <trkpt lat="45.9712" lon="4.79176">
        <ele>206</ele>
        <time>2017-06-28T09:28:04Z</time>
      </trkpt>
      <trkpt lat="45.97117" lon="4.79169">
        <ele>206</ele>
        <time>2017-06-28T09:28:05Z</time>
      </trkpt>
      <trkpt lat="45.97114" lon="4.79162">
        <ele>207</ele>
        <time>2017-06-28T09:28:06Z</time>
      </trkpt>
      <trkpt lat="45.9711" lon="4.79155">
        <ele>206</ele>
        <time>2017-06-28T09:28:07Z</time>
      </trkpt>
      <trkpt lat="45.97106" lon="4.79148">
        <ele>206</ele>
        <time>2017-06-28T09:28:08Z</time>
      </trkpt>
      <trkpt lat="45.97102" lon="4.79141">
        <ele>206</ele>
        <time>2017-06-28T09:28:09Z</time>
      </trkpt>
      <trkpt lat="45.97098" lon="4.79134">
        <ele>206</ele>
        <time>2017-06-28T09:28:10Z</time>
      </trkpt>
      <trkpt lat="45.97094" lon="4.79127">
        <ele>206</ele>
        <time>2017-06-28T09:28:11Z</time>
      </trkpt>
      <trkpt lat="45.9709" lon="4.79119">
        <ele>206</ele>
        <time>2017-06-28T09:28:12Z</time>
      </trkpt>
      <trkpt lat="45.97087" lon="4.79111">
        <ele>206</ele>
        <time>2017-06-28T09:28:13Z</time>
      </trkpt>
      <trkpt lat="45.97084" lon="4.79103">
        <ele>206</ele>
        <time>2017-06-28T09:28:14Z</time>
      </trkpt>
      <trkpt lat="45.97081" lon="4.79093">
        <ele>204</ele>
        <time>2017-06-28T09:28:15Z</time>
      </trkpt>
      <trkpt lat="45.97079" lon="4.79084">
        <ele>204</ele>
        <time>2017-06-28T09:28:16Z</time>
      </trkpt>
      <trkpt lat="45.97077" lon="4.79075">
        <ele>204</ele>
        <time>2017-06-28T09:28:17Z</time>
      </trkpt>
      <trkpt lat="45.97075" lon="4.79067">
        <ele>204</ele>
        <time>2017-06-28T09:28:18Z</time>
      </trkpt>
      <trkpt lat="45.97072" lon="4.79059">
        <ele>203</ele>
        <time>2017-06-28T09:28:19Z</time>
      </trkpt>
      <trkpt lat="45.97069" lon="4.79051">
        <ele>203</ele>
        <time>2017-06-28T09:28:20Z</time>
      </trkpt>
      <trkpt lat="45.97067" lon="4.79043">
        <ele>203</ele>
        <time>2017-06-28T09:28:21Z</time>
      </trkpt>
      <trkpt lat="45.97065" lon="4.79034">
        <ele>203</ele>
        <time>2017-06-28T09:28:22Z</time>
      </trkpt>
      <trkpt lat="45.97062" lon="4.79026">
        <ele>203</ele>
        <time>2017-06-28T09:28:23Z</time>
      </trkpt>
      <trkpt lat="45.9706" lon="4.79017">
        <ele>204</ele>
        <time>2017-06-28T09:28:24Z</time>
      </trkpt>
      <trkpt lat="45.97058" lon="4.79009">
        <ele>204</ele>
        <time>2017-06-28T09:28:25Z</time>
      </trkpt>
      <trkpt lat="45.97055" lon="4.79001">
        <ele>203</ele>
        <time>2017-06-28T09:28:26Z</time>
      </trkpt>
      <trkpt lat="45.97053" lon="4.78993">
        <ele>205</ele>
        <time>2017-06-28T09:28:27Z</time>
      </trkpt>
      <trkpt lat="45.97051" lon="4.78986">
        <ele>205</ele>
        <time>2017-06-28T09:28:28Z</time>
      </trkpt>
      <trkpt lat="45.97049" lon="4.78979">
        <ele>205</ele>
        <time>2017-06-28T09:28:29Z</time>
      </trkpt>
      <trkpt lat="45.97046" lon="4.78972">
        <ele>205</ele>
        <time>2017-06-28T09:28:30Z</time>
      </trkpt>
      <trkpt lat="45.97043" lon="4.78965">
        <ele>205</ele>
        <time>2017-06-28T09:28:31Z</time>
      </trkpt>
      <trkpt lat="45.97039" lon="4.78959">
        <ele>205</ele>
        <time>2017-06-28T09:28:32Z</time>
      </trkpt>
      <trkpt lat="45.97036" lon="4.78952">
        <ele>205</ele>
        <time>2017-06-28T09:28:33Z</time>
      </trkpt>
      <trkpt lat="45.97032" lon="4.78946">
        <ele>205</ele>
        <time>2017-06-28T09:28:34Z</time>
      </trkpt>
      <trkpt lat="45.97029" lon="4.7894">
        <ele>205</ele>
        <time>2017-06-28T09:28:35Z</time>
      </trkpt>
      <trkpt lat="45.97025" lon="4.78933">
        <ele>205</ele>
        <time>2017-06-28T09:28:36Z</time>
      </trkpt>
      <trkpt lat="45.97021" lon="4.78927">
        <ele>205</ele>
        <time>2017-06-28T09:28:37Z</time>
      </trkpt>
      <trkpt lat="45.97017" lon="4.78921">
        <ele>205</ele>
        <time>2017-06-28T09:28:38Z</time>
      </trkpt>
      <trkpt lat="45.97012" lon="4.78915">
        <ele>206</ele>
        <time>2017-06-28T09:28:39Z</time>
      </trkpt>
      <trkpt lat="45.97008" lon="4.78909">
        <ele>206</ele>
        <time>2017-06-28T09:28:40Z</time>
      </trkpt>
      <trkpt lat="45.97003" lon="4.78904">
        <ele>206</ele>
        <time>2017-06-28T09:28:41Z</time>
      </trkpt>
      <trkpt lat="45.96999" lon="4.78898">
        <ele>204</ele>
        <time>2017-06-28T09:28:42Z</time>
      </trkpt>
      <trkpt lat="45.96995" lon="4.78891">
        <ele>203</ele>
        <time>2017-06-28T09:28:43Z</time>
      </trkpt>
      <trkpt lat="45.9699" lon="4.78886">
        <ele>203</ele>
        <time>2017-06-28T09:28:44Z</time>
      </trkpt>
      <trkpt lat="45.96985" lon="4.7888">
        <ele>203</ele>
        <time>2017-06-28T09:28:45Z</time>
      </trkpt>
      <trkpt lat="45.9698" lon="4.78875">
        <ele>203</ele>
        <time>2017-06-28T09:28:46Z</time>
      </trkpt>
      <trkpt lat="45.96975" lon="4.78869">
        <ele>203</ele>
        <time>2017-06-28T09:28:47Z</time>
      </trkpt>
      <trkpt lat="45.9697" lon="4.78863">
        <ele>203</ele>
        <time>2017-06-28T09:28:48Z</time>
      </trkpt>
      <trkpt lat="45.96965" lon="4.78858">
        <ele>203</ele>
        <time>2017-06-28T09:28:49Z</time>
      </trkpt>
      <trkpt lat="45.96961" lon="4.78851">
        <ele>203</ele>
        <time>2017-06-28T09:28:50Z</time>
      </trkpt>
      <trkpt lat="45.96956" lon="4.78845">
        <ele>203</ele>
        <time>2017-06-28T09:28:51Z</time>
      </trkpt>
      <trkpt lat="45.96951" lon="4.78839">
        <ele>202</ele>
        <time>2017-06-28T09:28:52Z</time>
      </trkpt>
      <trkpt lat="45.96945" lon="4.78832">
        <ele>203</ele>
        <time>2017-06-28T09:28:53Z</time>
      </trkpt>
      <trkpt lat="45.9694" lon="4.78825">
        <ele>203</ele>
        <time>2017-06-28T09:28:54Z</time>
      </trkpt>
      <trkpt lat="45.96934" lon="4.78818">
        <ele>203</ele>
        <time>2017-06-28T09:28:55Z</time>
      </trkpt>
      <trkpt lat="45.96929" lon="4.7881">
        <ele>203</ele>
        <time>2017-06-28T09:28:56Z</time>
      </trkpt>
      <trkpt lat="45.96924" lon="4.78803">
        <ele>203</ele>
        <time>2017-06-28T09:28:57Z</time>
      </trkpt>
      <trkpt lat="45.9692" lon="4.78795">
        <ele>203</ele>
        <time>2017-06-28T09:28:58Z</time>
      </trkpt>
      <trkpt lat="45.96916" lon="4.78788">
        <ele>201</ele>
        <time>2017-06-28T09:28:59Z</time>
      </trkpt>
      <trkpt lat="45.96912" lon="4.7878">
        <ele>201</ele>
        <time>2017-06-28T09:29:00Z</time>
      </trkpt>
      <trkpt lat="45.96908" lon="4.78773">
        <ele>201</ele>
        <time>2017-06-28T09:29:01Z</time>
      </trkpt>
      <trkpt lat="45.96905" lon="4.78766">
        <ele>201</ele>
        <time>2017-06-28T09:29:02Z</time>
      </trkpt>
      <trkpt lat="45.96902" lon="4.78759">
        <ele>202</ele>
        <time>2017-06-28T09:29:03Z</time>
      </trkpt>
      <trkpt lat="45.96898" lon="4.78751">
        <ele>202</ele>
        <time>2017-06-28T09:29:04Z</time>
      </trkpt>
      <trkpt lat="45.96895" lon="4.78744">
        <ele>202</ele>
        <time>2017-06-28T09:29:05Z</time>
      </trkpt>
      <trkpt lat="45.96891" lon="4.78737">
        <ele>202</ele>
        <time>2017-06-28T09:29:06Z</time>
      </trkpt>
      <trkpt lat="45.96888" lon="4.7873">
        <ele>202</ele>
        <time>2017-06-28T09:29:07Z</time>
      </trkpt>
      <trkpt lat="45.96884" lon="4.78722">
        <ele>202</ele>
        <time>2017-06-28T09:29:08Z</time>
      </trkpt>
      <trkpt lat="45.96881" lon="4.78715">
        <ele>202</ele>
        <time>2017-06-28T09:29:09Z</time>
      </trkpt>
      <trkpt lat="45.96878" lon="4.78708">
        <ele>202</ele>
        <time>2017-06-28T09:29:10Z</time>
      </trkpt>
      <trkpt lat="45.96875" lon="4.78702">
        <ele>202</ele>
        <time>2017-06-28T09:29:11Z</time>
      </trkpt>
      <trkpt lat="45.96872" lon="4.78695">
        <ele>202</ele>
        <time>2017-06-28T09:29:12Z</time>
      </trkpt>
      <trkpt lat="45.96867" lon="4.78685">
        <ele>202</ele>
        <time>2017-06-28T09:29:14Z</time>
      </trkpt>
      <trkpt lat="45.96865" lon="4.78681">
        <ele>202</ele>
        <time>2017-06-28T09:29:15Z</time>
      </trkpt>
      <trkpt lat="45.9686" lon="4.78672">
        <ele>202</ele>
        <time>2017-06-28T09:29:17Z</time>
      </trkpt>
      <trkpt lat="45.96857" lon="4.78667">
        <ele>202</ele>
        <time>2017-06-28T09:29:18Z</time>
      </trkpt>
      <trkpt lat="45.96854" lon="4.78661">
        <ele>203</ele>
        <time>2017-06-28T09:29:19Z</time>
      </trkpt>
      <trkpt lat="45.9685" lon="4.78654">
        <ele>203</ele>
        <time>2017-06-28T09:29:20Z</time>
      </trkpt>
      <trkpt lat="45.96847" lon="4.78646">
        <ele>203</ele>
        <time>2017-06-28T09:29:21Z</time>
      </trkpt>
      <trkpt lat="45.96843" lon="4.78638">
        <ele>203</ele>
        <time>2017-06-28T09:29:22Z</time>
      </trkpt>
      <trkpt lat="45.96839" lon="4.78631">
        <ele>203</ele>
        <time>2017-06-28T09:29:23Z</time>
      </trkpt>
      <trkpt lat="45.96836" lon="4.78623">
        <ele>203</ele>
        <time>2017-06-28T09:29:24Z</time>
      </trkpt>
      <trkpt lat="45.96832" lon="4.78616">
        <ele>202</ele>
        <time>2017-06-28T09:29:25Z</time>
      </trkpt>
      <trkpt lat="45.9683" lon="4.78608">
        <ele>202</ele>
        <time>2017-06-28T09:29:26Z</time>
      </trkpt>
      <trkpt lat="45.96828" lon="4.786">
        <ele>202</ele>
        <time>2017-06-28T09:29:27Z</time>
      </trkpt>
      <trkpt lat="45.96826" lon="4.78592">
        <ele>202</ele>
        <time>2017-06-28T09:29:28Z</time>
      </trkpt>
      <trkpt lat="45.96824" lon="4.78585">
        <ele>202</ele>
        <time>2017-06-28T09:29:29Z</time>
      </trkpt>
      <trkpt lat="45.9682" lon="4.78578">
        <ele>203</ele>
        <time>2017-06-28T09:29:30Z</time>
      </trkpt>
      <trkpt lat="45.96816" lon="4.7857">
        <ele>203</ele>
        <time>2017-06-28T09:29:31Z</time>
      </trkpt>
      <trkpt lat="45.96811" lon="4.78563">
        <ele>203</ele>
        <time>2017-06-28T09:29:32Z</time>
      </trkpt>
      <trkpt lat="45.96807" lon="4.78556">
        <ele>203</ele>
        <time>2017-06-28T09:29:33Z</time>
      </trkpt>
      <trkpt lat="45.96802" lon="4.78549">
        <ele>203</ele>
        <time>2017-06-28T09:29:34Z</time>
      </trkpt>
      <trkpt lat="45.96797" lon="4.78541">
        <ele>203</ele>
        <time>2017-06-28T09:29:35Z</time>
      </trkpt>
      <trkpt lat="45.96792" lon="4.78533">
        <ele>203</ele>
        <time>2017-06-28T09:29:36Z</time>
      </trkpt>
      <trkpt lat="45.96788" lon="4.78525">
        <ele>203</ele>
        <time>2017-06-28T09:29:37Z</time>
      </trkpt>
      <trkpt lat="45.96782" lon="4.78518">
        <ele>203</ele>
        <time>2017-06-28T09:29:38Z</time>
      </trkpt>
      <trkpt lat="45.96778" lon="4.78511">
        <ele>203</ele>
        <time>2017-06-28T09:29:39Z</time>
      </trkpt>
      <trkpt lat="45.96773" lon="4.78503">
        <ele>203</ele>
        <time>2017-06-28T09:29:40Z</time>
      </trkpt>
      <trkpt lat="45.96768" lon="4.78497">
        <ele>205</ele>
        <time>2017-06-28T09:29:41Z</time>
      </trkpt>
      <trkpt lat="45.96763" lon="4.78491">
        <ele>205</ele>
        <time>2017-06-28T09:29:42Z</time>
      </trkpt>
      <trkpt lat="45.96758" lon="4.78486">
        <ele>205</ele>
        <time>2017-06-28T09:29:43Z</time>
      </trkpt>
      <trkpt lat="45.96753" lon="4.7848">
        <ele>205</ele>
        <time>2017-06-28T09:29:44Z</time>
      </trkpt>
      <trkpt lat="45.96748" lon="4.78474">
        <ele>203</ele>
        <time>2017-06-28T09:29:45Z</time>
      </trkpt>
      <trkpt lat="45.96742" lon="4.78468">
        <ele>203</ele>
        <time>2017-06-28T09:29:46Z</time>
      </trkpt>
      <trkpt lat="45.96736" lon="4.78463">
        <ele>203</ele>
        <time>2017-06-28T09:29:47Z</time>
      </trkpt>
      <trkpt lat="45.96731" lon="4.78458">
        <ele>203</ele>
        <time>2017-06-28T09:29:48Z</time>
      </trkpt>
      <trkpt lat="45.96725" lon="4.78453">
        <ele>203</ele>
        <time>2017-06-28T09:29:49Z</time>
      </trkpt>
      <trkpt lat="45.96719" lon="4.78447">
        <ele>203</ele>
        <time>2017-06-28T09:29:50Z</time>
      </trkpt>
      <trkpt lat="45.96713" lon="4.78442">
        <ele>203</ele>
        <time>2017-06-28T09:29:51Z</time>
      </trkpt>
      <trkpt lat="45.96708" lon="4.78436">
        <ele>203</ele>
        <time>2017-06-28T09:29:52Z</time>
      </trkpt>
      <trkpt lat="45.96702" lon="4.7843">
        <ele>203</ele>
        <time>2017-06-28T09:29:53Z</time>
      </trkpt>
      <trkpt lat="45.96697" lon="4.78425">
        <ele>203</ele>
        <time>2017-06-28T09:29:54Z</time>
      </trkpt>
      <trkpt lat="45.96693" lon="4.78419">
        <ele>202</ele>
        <time>2017-06-28T09:29:55Z</time>
      </trkpt>
      <trkpt lat="45.96689" lon="4.78415">
        <ele>204</ele>
        <time>2017-06-28T09:29:56Z</time>
      </trkpt>
      <trkpt lat="45.96684" lon="4.78411">
        <ele>204</ele>
        <time>2017-06-28T09:29:57Z</time>
      </trkpt>
      <trkpt lat="45.9668" lon="4.78406">
        <ele>204</ele>
        <time>2017-06-28T09:29:58Z</time>
      </trkpt>
      <trkpt lat="45.96675" lon="4.78401">
        <ele>204</ele>
        <time>2017-06-28T09:29:59Z</time>
      </trkpt>
      <trkpt lat="45.96669" lon="4.78396">
        <ele>204</ele>
        <time>2017-06-28T09:30:00Z</time>
      </trkpt>
      <trkpt lat="45.96663" lon="4.78391">
        <ele>201</ele>
        <time>2017-06-28T09:30:01Z</time>
      </trkpt>
      <trkpt lat="45.96658" lon="4.78386">
        <ele>201</ele>
        <time>2017-06-28T09:30:02Z</time>
      </trkpt>
      <trkpt lat="45.96652" lon="4.7838">
        <ele>201</ele>
        <time>2017-06-28T09:30:03Z</time>
      </trkpt>
      <trkpt lat="45.96645" lon="4.78375">
        <ele>201</ele>
        <time>2017-06-28T09:30:04Z</time>
      </trkpt>
      <trkpt lat="45.96639" lon="4.78369">
        <ele>201</ele>
        <time>2017-06-28T09:30:05Z</time>
      </trkpt>
      <trkpt lat="45.96634" lon="4.78364">
        <ele>201</ele>
        <time>2017-06-28T09:30:06Z</time>
      </trkpt>
      <trkpt lat="45.96628" lon="4.78358">
        <ele>201</ele>
        <time>2017-06-28T09:30:07Z</time>
      </trkpt>
      <trkpt lat="45.96622" lon="4.78353">
        <ele>201</ele>
        <time>2017-06-28T09:30:08Z</time>
      </trkpt>
      <trkpt lat="45.96617" lon="4.78348">
        <ele>201</ele>
        <time>2017-06-28T09:30:09Z</time>
      </trkpt>
      <trkpt lat="45.96611" lon="4.78343">
        <ele>200</ele>
        <time>2017-06-28T09:30:10Z</time>
      </trkpt>
      <trkpt lat="45.96606" lon="4.78338">
        <ele>200</ele>
        <time>2017-06-28T09:30:11Z</time>
      </trkpt>
      <trkpt lat="45.96601" lon="4.78332">
        <ele>202</ele>
        <time>2017-06-28T09:30:12Z</time>
      </trkpt>
      <trkpt lat="45.96595" lon="4.78327">
        <ele>202</ele>
        <time>2017-06-28T09:30:13Z</time>
      </trkpt>
      <trkpt lat="45.9659" lon="4.78322">
        <ele>202</ele>
        <time>2017-06-28T09:30:14Z</time>
      </trkpt>
      <trkpt lat="45.96585" lon="4.78316">
        <ele>202</ele>
        <time>2017-06-28T09:30:15Z</time>
      </trkpt>
      <trkpt lat="45.96579" lon="4.78311">
        <ele>199</ele>
        <time>2017-06-28T09:30:16Z</time>
      </trkpt>
      <trkpt lat="45.96574" lon="4.78306">
        <ele>200</ele>
        <time>2017-06-28T09:30:17Z</time>
      </trkpt>
      <trkpt lat="45.96568" lon="4.78302">
        <ele>200</ele>
        <time>2017-06-28T09:30:18Z</time>
      </trkpt>
      <trkpt lat="45.96563" lon="4.78296">
        <ele>200</ele>
        <time>2017-06-28T09:30:19Z</time>
      </trkpt>
      <trkpt lat="45.96559" lon="4.78291">
        <ele>200</ele>
        <time>2017-06-28T09:30:20Z</time>
      </trkpt>
      <trkpt lat="45.96554" lon="4.78285">
        <ele>200</ele>
        <time>2017-06-28T09:30:21Z</time>
      </trkpt>
      <trkpt lat="45.9655" lon="4.7828">
        <ele>200</ele>
        <time>2017-06-28T09:30:22Z</time>
      </trkpt>
      <trkpt lat="45.96545" lon="4.78275">
        <ele>200</ele>
        <time>2017-06-28T09:30:23Z</time>
      </trkpt>
      <trkpt lat="45.96542" lon="4.78269">
        <ele>200</ele>
        <time>2017-06-28T09:30:24Z</time>
      </trkpt>
      <trkpt lat="45.96537" lon="4.78263">
        <ele>200</ele>
        <time>2017-06-28T09:30:25Z</time>
      </trkpt>
      <trkpt lat="45.96533" lon="4.78256">
        <ele>200</ele>
        <time>2017-06-28T09:30:26Z</time>
      </trkpt>
      <trkpt lat="45.96528" lon="4.78249">
        <ele>204</ele>
        <time>2017-06-28T09:30:27Z</time>
      </trkpt>
      <trkpt lat="45.96524" lon="4.78242">
        <ele>203</ele>
        <time>2017-06-28T09:30:28Z</time>
      </trkpt>
      <trkpt lat="45.9652" lon="4.78235">
        <ele>204</ele>
        <time>2017-06-28T09:30:29Z</time>
      </trkpt>
      <trkpt lat="45.96517" lon="4.78228">
        <ele>204</ele>
        <time>2017-06-28T09:30:30Z</time>
      </trkpt>
      <trkpt lat="45.96513" lon="4.78222">
        <ele>204</ele>
        <time>2017-06-28T09:30:31Z</time>
      </trkpt>
      <trkpt lat="45.9651" lon="4.78214">
        <ele>205</ele>
        <time>2017-06-28T09:30:32Z</time>
      </trkpt>
      <trkpt lat="45.96506" lon="4.78208">
        <ele>205</ele>
        <time>2017-06-28T09:30:33Z</time>
      </trkpt>
      <trkpt lat="45.96501" lon="4.78202">
        <ele>205</ele>
        <time>2017-06-28T09:30:34Z</time>
      </trkpt>
      <trkpt lat="45.96496" lon="4.78198">
        <ele>201</ele>
        <time>2017-06-28T09:30:35Z</time>
      </trkpt>
      <trkpt lat="45.9649" lon="4.78193">
        <ele>201</ele>
        <time>2017-06-28T09:30:36Z</time>
      </trkpt>
      <trkpt lat="45.96483" lon="4.7819">
        <ele>201</ele>
        <time>2017-06-28T09:30:37Z</time>
      </trkpt>
      <trkpt lat="45.96476" lon="4.78186">
        <ele>201</ele>
        <time>2017-06-28T09:30:38Z</time>
      </trkpt>
      <trkpt lat="45.96469" lon="4.78182">
        <ele>200</ele>
        <time>2017-06-28T09:30:39Z</time>
      </trkpt>
      <trkpt lat="45.96462" lon="4.78177">
        <ele>200</ele>
        <time>2017-06-28T09:30:40Z</time>
      </trkpt>
      <trkpt lat="45.96457" lon="4.78173">
        <ele>200</ele>
        <time>2017-06-28T09:30:41Z</time>
      </trkpt>
      <trkpt lat="45.96451" lon="4.78168">
        <ele>200</ele>
        <time>2017-06-28T09:30:42Z</time>
      </trkpt>
      <trkpt lat="45.96446" lon="4.78163">
        <ele>203</ele>
        <time>2017-06-28T09:30:43Z</time>
      </trkpt>
      <trkpt lat="45.96441" lon="4.78158">
        <ele>203</ele>
        <time>2017-06-28T09:30:44Z</time>
      </trkpt>
      <trkpt lat="45.96436" lon="4.78154">
        <ele>203</ele>
        <time>2017-06-28T09:30:45Z</time>
      </trkpt>
      <trkpt lat="45.96431" lon="4.7815">
        <ele>202</ele>
        <time>2017-06-28T09:30:46Z</time>
      </trkpt>
      <trkpt lat="45.96427" lon="4.78146">
        <ele>202</ele>
        <time>2017-06-28T09:30:47Z</time>
      </trkpt>
      <trkpt lat="45.96422" lon="4.78143">
        <ele>203</ele>
        <time>2017-06-28T09:30:48Z</time>
      </trkpt>
      <trkpt lat="45.96417" lon="4.78139">
        <ele>203</ele>
        <time>2017-06-28T09:30:49Z</time>
      </trkpt>
      <trkpt lat="45.96412" lon="4.78135">
        <ele>199</ele>
        <time>2017-06-28T09:30:50Z</time>
      </trkpt>
      <trkpt lat="45.96408" lon="4.7813">
        <ele>199</ele>
        <time>2017-06-28T09:30:51Z</time>
      </trkpt>
      <trkpt lat="45.96403" lon="4.78126">
        <ele>200</ele>
        <time>2017-06-28T09:30:52Z</time>
      </trkpt>
      <trkpt lat="45.96398" lon="4.78121">
        <ele>200</ele>
        <time>2017-06-28T09:30:53Z</time>
      </trkpt>
      <trkpt lat="45.96393" lon="4.78115">
        <ele>200</ele>
        <time>2017-06-28T09:30:54Z</time>
      </trkpt>
      <trkpt lat="45.96388" lon="4.7811">
        <ele>200</ele>
        <time>2017-06-28T09:30:55Z</time>
      </trkpt>
      <trkpt lat="45.96383" lon="4.78104">
        <ele>200</ele>
        <time>2017-06-28T09:30:56Z</time>
      </trkpt>
      <trkpt lat="45.96378" lon="4.78099">
        <ele>200</ele>
        <time>2017-06-28T09:30:57Z</time>
      </trkpt>
      <trkpt lat="45.96372" lon="4.78095">
        <ele>200</ele>
        <time>2017-06-28T09:30:58Z</time>
      </trkpt>
      <trkpt lat="45.96367" lon="4.7809">
        <ele>199</ele>
        <time>2017-06-28T09:30:59Z</time>
      </trkpt>
      <trkpt lat="45.96361" lon="4.78084">
        <ele>199</ele>
        <time>2017-06-28T09:31:00Z</time>
      </trkpt>
      <trkpt lat="45.96355" lon="4.78079">
        <ele>202</ele>
        <time>2017-06-28T09:31:01Z</time>
      </trkpt>
      <trkpt lat="45.9635" lon="4.78073">
        <ele>201</ele>
        <time>2017-06-28T09:31:02Z</time>
      </trkpt>
      <trkpt lat="45.96344" lon="4.78067">
        <ele>201</ele>
        <time>2017-06-28T09:31:03Z</time>
      </trkpt>
      <trkpt lat="45.96339" lon="4.78061">
        <ele>202</ele>
        <time>2017-06-28T09:31:04Z</time>
      </trkpt>
      <trkpt lat="45.96334" lon="4.78054">
        <ele>202</ele>
        <time>2017-06-28T09:31:05Z</time>
      </trkpt>
      <trkpt lat="45.96328" lon="4.78048">
        <ele>199</ele>
        <time>2017-06-28T09:31:06Z</time>
      </trkpt>
      <trkpt lat="45.96323" lon="4.78041">
        <ele>199</ele>
        <time>2017-06-28T09:31:07Z</time>
      </trkpt>
      <trkpt lat="45.96318" lon="4.78034">
        <ele>200</ele>
        <time>2017-06-28T09:31:08Z</time>
      </trkpt>
      <trkpt lat="45.96313" lon="4.78029">
        <ele>200</ele>
        <time>2017-06-28T09:31:09Z</time>
      </trkpt>
      <trkpt lat="45.96308" lon="4.78022">
        <ele>200</ele>
        <time>2017-06-28T09:31:10Z</time>
      </trkpt>
      <trkpt lat="45.96303" lon="4.78016">
        <ele>200</ele>
        <time>2017-06-28T09:31:11Z</time>
      </trkpt>
      <trkpt lat="45.96297" lon="4.78011">
        <ele>199</ele>
        <time>2017-06-28T09:31:12Z</time>
      </trkpt>
      <trkpt lat="45.96292" lon="4.78005">
        <ele>199</ele>
        <time>2017-06-28T09:31:13Z</time>
      </trkpt>
      <trkpt lat="45.96287" lon="4.78001">
        <ele>199</ele>
        <time>2017-06-28T09:31:14Z</time>
      </trkpt>
      <trkpt lat="45.96282" lon="4.77996">
        <ele>203</ele>
        <time>2017-06-28T09:31:15Z</time>
      </trkpt>
      <trkpt lat="45.96278" lon="4.77992">
        <ele>203</ele>
        <time>2017-06-28T09:31:16Z</time>
      </trkpt>
      <trkpt lat="45.96273" lon="4.77988">
        <ele>203</ele>
        <time>2017-06-28T09:31:17Z</time>
      </trkpt>
      <trkpt lat="45.96269" lon="4.77984">
        <ele>202</ele>
        <time>2017-06-28T09:31:18Z</time>
      </trkpt>
      <trkpt lat="45.96264" lon="4.77979">
        <ele>203</ele>
        <time>2017-06-28T09:31:19Z</time>
      </trkpt>
      <trkpt lat="45.96259" lon="4.77975">
        <ele>203</ele>
        <time>2017-06-28T09:31:20Z</time>
      </trkpt>
      <trkpt lat="45.96254" lon="4.77971">
        <ele>203</ele>
        <time>2017-06-28T09:31:21Z</time>
      </trkpt>
      <trkpt lat="45.96249" lon="4.77967">
        <ele>199</ele>
        <time>2017-06-28T09:31:22Z</time>
      </trkpt>
      <trkpt lat="45.96244" lon="4.77962">
        <ele>199</ele>
        <time>2017-06-28T09:31:23Z</time>
      </trkpt>
      <trkpt lat="45.96239" lon="4.77958">
        <ele>199</ele>
        <time>2017-06-28T09:31:24Z</time>
      </trkpt>
      <trkpt lat="45.96235" lon="4.77954">
        <ele>199</ele>
        <time>2017-06-28T09:31:25Z</time>
      </trkpt>
      <trkpt lat="45.96231" lon="4.77949">
        <ele>200</ele>
        <time>2017-06-28T09:31:26Z</time>
      </trkpt>
      <trkpt lat="45.96227" lon="4.77944">
        <ele>200</ele>
        <time>2017-06-28T09:31:27Z</time>
      </trkpt>
      <trkpt lat="45.96222" lon="4.77937">
        <ele>200</ele>
        <time>2017-06-28T09:31:28Z</time>
      </trkpt>
      <trkpt lat="45.96218" lon="4.77931">
        <ele>200</ele>
        <time>2017-06-28T09:31:29Z</time>
      </trkpt>
      <trkpt lat="45.96216" lon="4.77924">
        <ele>200</ele>
        <time>2017-06-28T09:31:30Z</time>
      </trkpt>
      <trkpt lat="45.96212" lon="4.77919">
        <ele>199</ele>
        <time>2017-06-28T09:31:31Z</time>
      </trkpt>
      <trkpt lat="45.96208" lon="4.77913">
        <ele>202</ele>
        <time>2017-06-28T09:31:32Z</time>
      </trkpt>
      <trkpt lat="45.96204" lon="4.77907">
        <ele>202</ele>
        <time>2017-06-28T09:31:33Z</time>
      </trkpt>
      <trkpt lat="45.962" lon="4.779">
        <ele>202</ele>
        <time>2017-06-28T09:31:34Z</time>
      </trkpt>
      <trkpt lat="45.96196" lon="4.77893">
        <ele>201</ele>
        <time>2017-06-28T09:31:35Z</time>
      </trkpt>
      <trkpt lat="45.96192" lon="4.77885">
        <ele>201</ele>
        <time>2017-06-28T09:31:36Z</time>
      </trkpt>
      <trkpt lat="45.96188" lon="4.77877">
        <ele>201</ele>
        <time>2017-06-28T09:31:37Z</time>
      </trkpt>
      <trkpt lat="45.96183" lon="4.77869">
        <ele>201</ele>
        <time>2017-06-28T09:31:38Z</time>
      </trkpt>
      <trkpt lat="45.96179" lon="4.77862">
        <ele>201</ele>
        <time>2017-06-28T09:31:39Z</time>
      </trkpt>
      <trkpt lat="45.96175" lon="4.77855">
        <ele>201</ele>
        <time>2017-06-28T09:31:40Z</time>
      </trkpt>
      <trkpt lat="45.9617" lon="4.77848">
        <ele>201</ele>
        <time>2017-06-28T09:31:41Z</time>
      </trkpt>
      <trkpt lat="45.96166" lon="4.77841">
        <ele>198</ele>
        <time>2017-06-28T09:31:42Z</time>
      </trkpt>
      <trkpt lat="45.96162" lon="4.77834">
        <ele>198</ele>
        <time>2017-06-28T09:31:43Z</time>
      </trkpt>
      <trkpt lat="45.96157" lon="4.77827">
        <ele>198</ele>
        <time>2017-06-28T09:31:44Z</time>
      </trkpt>
      <trkpt lat="45.96153" lon="4.77821">
        <ele>198</ele>
        <time>2017-06-28T09:31:45Z</time>
      </trkpt>
      <trkpt lat="45.9615" lon="4.77814">
        <ele>198</ele>
        <time>2017-06-28T09:31:46Z</time>
      </trkpt>
      <trkpt lat="45.96146" lon="4.77807">
        <ele>198</ele>
        <time>2017-06-28T09:31:47Z</time>
      </trkpt>
      <trkpt lat="45.96142" lon="4.77801">
        <ele>198</ele>
        <time>2017-06-28T09:31:48Z</time>
      </trkpt>
      <trkpt lat="45.96138" lon="4.77795">
        <ele>198</ele>
        <time>2017-06-28T09:31:49Z</time>
      </trkpt>
      <trkpt lat="45.96134" lon="4.77788">
        <ele>198</ele>
        <time>2017-06-28T09:31:50Z</time>
      </trkpt>
      <trkpt lat="45.9613" lon="4.77781">
        <ele>198</ele>
        <time>2017-06-28T09:31:51Z</time>
      </trkpt>
      <trkpt lat="45.96127" lon="4.77775">
        <ele>198</ele>
        <time>2017-06-28T09:31:52Z</time>
      </trkpt>
      <trkpt lat="45.96123" lon="4.77769">
        <ele>197</ele>
        <time>2017-06-28T09:31:53Z</time>
      </trkpt>
      <trkpt lat="45.9612" lon="4.77762">
        <ele>197</ele>
        <time>2017-06-28T09:31:54Z</time>
      </trkpt>
      <trkpt lat="45.96116" lon="4.77756">
        <ele>197</ele>
        <time>2017-06-28T09:31:55Z</time>
      </trkpt>
      <trkpt lat="45.96112" lon="4.77749">
        <ele>199</ele>
        <time>2017-06-28T09:31:56Z</time>
      </trkpt>
      <trkpt lat="45.96108" lon="4.77743">
        <ele>199</ele>
        <time>2017-06-28T09:31:57Z</time>
      </trkpt>
      <trkpt lat="45.96104" lon="4.77736">
        <ele>199</ele>
        <time>2017-06-28T09:31:58Z</time>
      </trkpt>
      <trkpt lat="45.96101" lon="4.7773">
        <ele>199</ele>
        <time>2017-06-28T09:31:59Z</time>
      </trkpt>
      <trkpt lat="45.96097" lon="4.77724">
        <ele>199</ele>
        <time>2017-06-28T09:32:00Z</time>
      </trkpt>
      <trkpt lat="45.96093" lon="4.77717">
        <ele>199</ele>
        <time>2017-06-28T09:32:01Z</time>
      </trkpt>
      <trkpt lat="45.96089" lon="4.7771">
        <ele>200</ele>
        <time>2017-06-28T09:32:02Z</time>
      </trkpt>
      <trkpt lat="45.96085" lon="4.77704">
        <ele>200</ele>
        <time>2017-06-28T09:32:03Z</time>
      </trkpt>
      <trkpt lat="45.9608" lon="4.77697">
        <ele>197</ele>
        <time>2017-06-28T09:32:04Z</time>
      </trkpt>
      <trkpt lat="45.96075" lon="4.7769">
        <ele>198</ele>
        <time>2017-06-28T09:32:05Z</time>
      </trkpt>
      <trkpt lat="45.9607" lon="4.77684">
        <ele>198</ele>
        <time>2017-06-28T09:32:06Z</time>
      </trkpt>
      <trkpt lat="45.96065" lon="4.77677">
        <ele>198</ele>
        <time>2017-06-28T09:32:07Z</time>
      </trkpt>
      <trkpt lat="45.9606" lon="4.7767">
        <ele>198</ele>
        <time>2017-06-28T09:32:08Z</time>
      </trkpt>
      <trkpt lat="45.96055" lon="4.77663">
        <ele>200</ele>
        <time>2017-06-28T09:32:09Z</time>
      </trkpt>
      <trkpt lat="45.9605" lon="4.77656">
        <ele>200</ele>
        <time>2017-06-28T09:32:10Z</time>
      </trkpt>
      <trkpt lat="45.96045" lon="4.7765">
        <ele>199</ele>
        <time>2017-06-28T09:32:11Z</time>
      </trkpt>
      <trkpt lat="45.96039" lon="4.77644">
        <ele>199</ele>
        <time>2017-06-28T09:32:12Z</time>
      </trkpt>
      <trkpt lat="45.96034" lon="4.77638">
        <ele>199</ele>
        <time>2017-06-28T09:32:13Z</time>
      </trkpt>
      <trkpt lat="45.96029" lon="4.77632">
        <ele>199</ele>
        <time>2017-06-28T09:32:14Z</time>
      </trkpt>
      <trkpt lat="45.96024" lon="4.77626">
        <ele>199</ele>
        <time>2017-06-28T09:32:15Z</time>
      </trkpt>
      <trkpt lat="45.96019" lon="4.77619">
        <ele>199</ele>
        <time>2017-06-28T09:32:16Z</time>
      </trkpt>
      <trkpt lat="45.96014" lon="4.77613">
        <ele>199</ele>
        <time>2017-06-28T09:32:17Z</time>
      </trkpt>
      <trkpt lat="45.96009" lon="4.77607">
        <ele>199</ele>
        <time>2017-06-28T09:32:18Z</time>
      </trkpt>
      <trkpt lat="45.96004" lon="4.77601">
        <ele>198</ele>
        <time>2017-06-28T09:32:19Z</time>
      </trkpt>
      <trkpt lat="45.95999" lon="4.77595">
        <ele>196</ele>
        <time>2017-06-28T09:32:20Z</time>
      </trkpt>
      <trkpt lat="45.95995" lon="4.77589">
        <ele>196</ele>
        <time>2017-06-28T09:32:21Z</time>
      </trkpt>
      <trkpt lat="45.95992" lon="4.77582">
        <ele>196</ele>
        <time>2017-06-28T09:32:22Z</time>
      </trkpt>
      <trkpt lat="45.95988" lon="4.77576">
        <ele>196</ele>
        <time>2017-06-28T09:32:23Z</time>
      </trkpt>
      <trkpt lat="45.95984" lon="4.77569">
        <ele>196</ele>
        <time>2017-06-28T09:32:24Z</time>
      </trkpt>
      <trkpt lat="45.95981" lon="4.77562">
        <ele>196</ele>
        <time>2017-06-28T09:32:25Z</time>
      </trkpt>
      <trkpt lat="45.95978" lon="4.77555">
        <ele>195</ele>
        <time>2017-06-28T09:32:26Z</time>
      </trkpt>
      <trkpt lat="45.95976" lon="4.77547">
        <ele>195</ele>
        <time>2017-06-28T09:32:27Z</time>
      </trkpt>
      <trkpt lat="45.95973" lon="4.7754">
        <ele>195</ele>
        <time>2017-06-28T09:32:28Z</time>
      </trkpt>
      <trkpt lat="45.95969" lon="4.77534">
        <ele>195</ele>
        <time>2017-06-28T09:32:29Z</time>
      </trkpt>
      <trkpt lat="45.95967" lon="4.77527">
        <ele>195</ele>
        <time>2017-06-28T09:32:30Z</time>
      </trkpt>
      <trkpt lat="45.95964" lon="4.77519">
        <ele>195</ele>
        <time>2017-06-28T09:32:31Z</time>
      </trkpt>
      <trkpt lat="45.95961" lon="4.77511">
        <ele>195</ele>
        <time>2017-06-28T09:32:32Z</time>
      </trkpt>
      <trkpt lat="45.95958" lon="4.77504">
        <ele>195</ele>
        <time>2017-06-28T09:32:33Z</time>
      </trkpt>
      <trkpt lat="45.95955" lon="4.77496">
        <ele>196</ele>
        <time>2017-06-28T09:32:34Z</time>
      </trkpt>
      <trkpt lat="45.95953" lon="4.77489">
        <ele>196</ele>
        <time>2017-06-28T09:32:35Z</time>
      </trkpt>
      <trkpt lat="45.9595" lon="4.77481">
        <ele>196</ele>
        <time>2017-06-28T09:32:36Z</time>
      </trkpt>
      <trkpt lat="45.95948" lon="4.77474">
        <ele>196</ele>
        <time>2017-06-28T09:32:37Z</time>
      </trkpt>
      <trkpt lat="45.95945" lon="4.77466">
        <ele>196</ele>
        <time>2017-06-28T09:32:38Z</time>
      </trkpt>
      <trkpt lat="45.95942" lon="4.77457">
        <ele>196</ele>
        <time>2017-06-28T09:32:39Z</time>
      </trkpt>
      <trkpt lat="45.9594" lon="4.7745">
        <ele>196</ele>
        <time>2017-06-28T09:32:40Z</time>
      </trkpt>
      <trkpt lat="45.95937" lon="4.77442">
        <ele>195</ele>
        <time>2017-06-28T09:32:41Z</time>
      </trkpt>
      <trkpt lat="45.95935" lon="4.77434">
        <ele>195</ele>
        <time>2017-06-28T09:32:42Z</time>
      </trkpt>
      <trkpt lat="45.95932" lon="4.77426">
        <ele>195</ele>
        <time>2017-06-28T09:32:43Z</time>
      </trkpt>
      <trkpt lat="45.95929" lon="4.77419">
        <ele>195</ele>
        <time>2017-06-28T09:32:44Z</time>
      </trkpt>
      <trkpt lat="45.95927" lon="4.77412">
        <ele>195</ele>
        <time>2017-06-28T09:32:45Z</time>
      </trkpt>
      <trkpt lat="45.95924" lon="4.77404">
        <ele>195</ele>
        <time>2017-06-28T09:32:46Z</time>
      </trkpt>
      <trkpt lat="45.95922" lon="4.77396">
        <ele>196</ele>
        <time>2017-06-28T09:32:47Z</time>
      </trkpt>
      <trkpt lat="45.95919" lon="4.77388">
        <ele>196</ele>
        <time>2017-06-28T09:32:48Z</time>
      </trkpt>
      <trkpt lat="45.95916" lon="4.77379">
        <ele>193</ele>
        <time>2017-06-28T09:32:49Z</time>
      </trkpt>
      <trkpt lat="45.95913" lon="4.77371">
        <ele>193</ele>
        <time>2017-06-28T09:32:50Z</time>
      </trkpt>
      <trkpt lat="45.9591" lon="4.77363">
        <ele>193</ele>
        <time>2017-06-28T09:32:51Z</time>
      </trkpt>
      <trkpt lat="45.95906" lon="4.77354">
        <ele>193</ele>
        <time>2017-06-28T09:32:52Z</time>
      </trkpt>
      <trkpt lat="45.95903" lon="4.77346">
        <ele>193</ele>
        <time>2017-06-28T09:32:53Z</time>
      </trkpt>
      <trkpt lat="45.959" lon="4.77336">
        <ele>193</ele>
        <time>2017-06-28T09:32:54Z</time>
      </trkpt>
      <trkpt lat="45.95897" lon="4.77327">
        <ele>194</ele>
        <time>2017-06-28T09:32:55Z</time>
      </trkpt>
      <trkpt lat="45.95894" lon="4.77318">
        <ele>193</ele>
        <time>2017-06-28T09:32:56Z</time>
      </trkpt>
      <trkpt lat="45.95892" lon="4.77308">
        <ele>193</ele>
        <time>2017-06-28T09:32:57Z</time>
      </trkpt>
      <trkpt lat="45.9589" lon="4.77299">
        <ele>193</ele>
        <time>2017-06-28T09:32:58Z</time>
      </trkpt>
      <trkpt lat="45.95887" lon="4.77288">
        <ele>193</ele>
        <time>2017-06-28T09:32:59Z</time>
      </trkpt>
      <trkpt lat="45.95885" lon="4.77279">
        <ele>193</ele>
        <time>2017-06-28T09:33:00Z</time>
      </trkpt>
      <trkpt lat="45.95882" lon="4.77269">
        <ele>193</ele>
        <time>2017-06-28T09:33:01Z</time>
      </trkpt>
      <trkpt lat="45.9588" lon="4.77258">
        <ele>193</ele>
        <time>2017-06-28T09:33:02Z</time>
      </trkpt>
      <trkpt lat="45.95879" lon="4.77248">
        <ele>193</ele>
        <time>2017-06-28T09:33:03Z</time>
      </trkpt>
      <trkpt lat="45.95877" lon="4.77238">
        <ele>193</ele>
        <time>2017-06-28T09:33:04Z</time>
      </trkpt>
      <trkpt lat="45.95875" lon="4.77229">
        <ele>193</ele>
        <time>2017-06-28T09:33:05Z</time>
      </trkpt>
      <trkpt lat="45.95873" lon="4.7722">
        <ele>193</ele>
        <time>2017-06-28T09:33:06Z</time>
      </trkpt>
      <trkpt lat="45.9587" lon="4.77211">
        <ele>193</ele>
        <time>2017-06-28T09:33:07Z</time>
      </trkpt>
      <trkpt lat="45.95868" lon="4.77202">
        <ele>193</ele>
        <time>2017-06-28T09:33:08Z</time>
      </trkpt>
      <trkpt lat="45.95866" lon="4.77194">
        <ele>193</ele>
        <time>2017-06-28T09:33:09Z</time>
      </trkpt>
      <trkpt lat="45.95864" lon="4.77186">
        <ele>192</ele>
        <time>2017-06-28T09:33:10Z</time>
      </trkpt>
      <trkpt lat="45.95862" lon="4.77177">
        <ele>192</ele>
        <time>2017-06-28T09:33:11Z</time>
      </trkpt>
      <trkpt lat="45.9586" lon="4.77169">
        <ele>192</ele>
        <time>2017-06-28T09:33:12Z</time>
      </trkpt>
      <trkpt lat="45.95857" lon="4.7716">
        <ele>192</ele>
        <time>2017-06-28T09:33:13Z</time>
      </trkpt>
      <trkpt lat="45.95855" lon="4.77151">
        <ele>193</ele>
        <time>2017-06-28T09:33:14Z</time>
      </trkpt>
      <trkpt lat="45.95852" lon="4.77142">
        <ele>193</ele>
        <time>2017-06-28T09:33:15Z</time>
      </trkpt>
      <trkpt lat="45.9585" lon="4.77134">
        <ele>193</ele>
        <time>2017-06-28T09:33:16Z</time>
      </trkpt>
      <trkpt lat="45.95848" lon="4.77125">
        <ele>193</ele>
        <time>2017-06-28T09:33:17Z</time>
      </trkpt>
      <trkpt lat="45.95846" lon="4.77116">
        <ele>193</ele>
        <time>2017-06-28T09:33:18Z</time>
      </trkpt>
      <trkpt lat="45.95844" lon="4.77107">
        <ele>193</ele>
        <time>2017-06-28T09:33:19Z</time>
      </trkpt>
      <trkpt lat="45.95841" lon="4.77099">
        <ele>193</ele>
        <time>2017-06-28T09:33:20Z</time>
      </trkpt>
      <trkpt lat="45.95839" lon="4.77091">
        <ele>193</ele>
        <time>2017-06-28T09:33:21Z</time>
      </trkpt>
      <trkpt lat="45.95836" lon="4.77083">
        <ele>192</ele>
        <time>2017-06-28T09:33:22Z</time>
      </trkpt>
      <trkpt lat="45.95833" lon="4.77075">
        <ele>191</ele>
        <time>2017-06-28T09:33:23Z</time>
      </trkpt>
      <trkpt lat="45.95829" lon="4.77067">
        <ele>191</ele>
        <time>2017-06-28T09:33:24Z</time>
      </trkpt>
      <trkpt lat="45.95825" lon="4.77059">
        <ele>190</ele>
        <time>2017-06-28T09:33:25Z</time>
      </trkpt>
      <trkpt lat="45.95822" lon="4.77051">
        <ele>190</ele>
        <time>2017-06-28T09:33:26Z</time>
      </trkpt>
      <trkpt lat="45.95817" lon="4.77042">
        <ele>190</ele>
        <time>2017-06-28T09:33:27Z</time>
      </trkpt>
      <trkpt lat="45.95814" lon="4.77033">
        <ele>190</ele>
        <time>2017-06-28T09:33:28Z</time>
      </trkpt>
      <trkpt lat="45.9581" lon="4.77023">
        <ele>190</ele>
        <time>2017-06-28T09:33:29Z</time>
      </trkpt>
      <trkpt lat="45.95808" lon="4.77013">
        <ele>190</ele>
        <time>2017-06-28T09:33:30Z</time>
      </trkpt>
      <trkpt lat="45.95806" lon="4.77003">
        <ele>190</ele>
        <time>2017-06-28T09:33:31Z</time>
      </trkpt>
      <trkpt lat="45.95804" lon="4.76992">
        <ele>190</ele>
        <time>2017-06-28T09:33:32Z</time>
      </trkpt>
      <trkpt lat="45.95803" lon="4.76981">
        <ele>189</ele>
        <time>2017-06-28T09:33:33Z</time>
      </trkpt>
      <trkpt lat="45.95803" lon="4.7697">
        <ele>189</ele>
        <time>2017-06-28T09:33:34Z</time>
      </trkpt>
      <trkpt lat="45.95804" lon="4.76959">
        <ele>189</ele>
        <time>2017-06-28T09:33:35Z</time>
      </trkpt>
      <trkpt lat="45.95805" lon="4.76949">
        <ele>189</ele>
        <time>2017-06-28T09:33:36Z</time>
      </trkpt>
      <trkpt lat="45.95807" lon="4.7694">
        <ele>189</ele>
        <time>2017-06-28T09:33:37Z</time>
      </trkpt>
      <trkpt lat="45.95809" lon="4.76931">
        <ele>189</ele>
        <time>2017-06-28T09:33:38Z</time>
      </trkpt>
      <trkpt lat="45.9581" lon="4.76922">
        <ele>189</ele>
        <time>2017-06-28T09:33:39Z</time>
      </trkpt>
      <trkpt lat="45.95812" lon="4.76913">
        <ele>189</ele>
        <time>2017-06-28T09:33:40Z</time>
      </trkpt>
      <trkpt lat="45.95814" lon="4.76904">
        <ele>189</ele>
        <time>2017-06-28T09:33:41Z</time>
      </trkpt>
      <trkpt lat="45.95816" lon="4.76895">
        <ele>189</ele>
        <time>2017-06-28T09:33:42Z</time>
      </trkpt>
      <trkpt lat="45.95818" lon="4.76887">
        <ele>189</ele>
        <time>2017-06-28T09:33:43Z</time>
      </trkpt>
      <trkpt lat="45.9582" lon="4.76878">
        <ele>189</ele>
        <time>2017-06-28T09:33:44Z</time>
      </trkpt>
      <trkpt lat="45.95821" lon="4.7687">
        <ele>189</ele>
        <time>2017-06-28T09:33:45Z</time>
      </trkpt>
      <trkpt lat="45.95823" lon="4.76862">
        <ele>189</ele>
        <time>2017-06-28T09:33:46Z</time>
      </trkpt>
      <trkpt lat="45.95824" lon="4.76854">
        <ele>189</ele>
        <time>2017-06-28T09:33:47Z</time>
      </trkpt>
      <trkpt lat="45.95825" lon="4.76846">
        <ele>190</ele>
        <time>2017-06-28T09:33:48Z</time>
      </trkpt>
      <trkpt lat="45.95826" lon="4.76838">
        <ele>190</ele>
        <time>2017-06-28T09:33:49Z</time>
      </trkpt>
      <trkpt lat="45.95828" lon="4.7683">
        <ele>190</ele>
        <time>2017-06-28T09:33:50Z</time>
      </trkpt>
      <trkpt lat="45.95829" lon="4.76822">
        <ele>190</ele>
        <time>2017-06-28T09:33:51Z</time>
      </trkpt>
      <trkpt lat="45.95831" lon="4.76813">
        <ele>190</ele>
        <time>2017-06-28T09:33:52Z</time>
      </trkpt>
      <trkpt lat="45.95831" lon="4.76805">
        <ele>190</ele>
        <time>2017-06-28T09:33:53Z</time>
      </trkpt>
      <trkpt lat="45.95831" lon="4.76796">
        <ele>190</ele>
        <time>2017-06-28T09:33:54Z</time>
      </trkpt>
      <trkpt lat="45.9583" lon="4.76787">
        <ele>190</ele>
        <time>2017-06-28T09:33:55Z</time>
      </trkpt>
      <trkpt lat="45.95829" lon="4.76778">
        <ele>190</ele>
        <time>2017-06-28T09:33:56Z</time>
      </trkpt>
      <trkpt lat="45.95827" lon="4.76769">
        <ele>190</ele>
        <time>2017-06-28T09:33:57Z</time>
      </trkpt>
      <trkpt lat="45.95826" lon="4.7676">
        <ele>190</ele>
        <time>2017-06-28T09:33:58Z</time>
      </trkpt>
      <trkpt lat="45.95825" lon="4.76751">
        <ele>191</ele>
        <time>2017-06-28T09:33:59Z</time>
      </trkpt>
      <trkpt lat="45.95824" lon="4.76742">
        <ele>190</ele>
        <time>2017-06-28T09:34:00Z</time>
      </trkpt>
      <trkpt lat="45.95822" lon="4.76733">
        <ele>190</ele>
        <time>2017-06-28T09:34:01Z</time>
      </trkpt>
      <trkpt lat="45.95822" lon="4.76724">
        <ele>190</ele>
        <time>2017-06-28T09:34:02Z</time>
      </trkpt>
      <trkpt lat="45.9582" lon="4.76715">
        <ele>189</ele>
        <time>2017-06-28T09:34:03Z</time>
      </trkpt>
      <trkpt lat="45.9582" lon="4.76708">
        <ele>189</ele>
        <time>2017-06-28T09:34:04Z</time>
      </trkpt>
      <trkpt lat="45.9582" lon="4.767">
        <ele>189</ele>
        <time>2017-06-28T09:34:05Z</time>
      </trkpt>
      <trkpt lat="45.95819" lon="4.76692">
        <ele>189</ele>
        <time>2017-06-28T09:34:06Z</time>
      </trkpt>
      <trkpt lat="45.95818" lon="4.76685">
        <ele>189</ele>
        <time>2017-06-28T09:34:07Z</time>
      </trkpt>
      <trkpt lat="45.95817" lon="4.76677">
        <ele>189</ele>
        <time>2017-06-28T09:34:08Z</time>
      </trkpt>
      <trkpt lat="45.95816" lon="4.76669">
        <ele>188</ele>
        <time>2017-06-28T09:34:09Z</time>
      </trkpt>
      <trkpt lat="45.95815" lon="4.76662">
        <ele>188</ele>
        <time>2017-06-28T09:34:10Z</time>
      </trkpt>
      <trkpt lat="45.95814" lon="4.76653">
        <ele>188</ele>
        <time>2017-06-28T09:34:11Z</time>
      </trkpt>
      <trkpt lat="45.95812" lon="4.76645">
        <ele>188</ele>
        <time>2017-06-28T09:34:12Z</time>
      </trkpt>
      <trkpt lat="45.95811" lon="4.76636">
        <ele>188</ele>
        <time>2017-06-28T09:34:13Z</time>
      </trkpt>
      <trkpt lat="45.95809" lon="4.76627">
        <ele>188</ele>
        <time>2017-06-28T09:34:14Z</time>
      </trkpt>
      <trkpt lat="45.95808" lon="4.76619">
        <ele>188</ele>
        <time>2017-06-28T09:34:15Z</time>
      </trkpt>
      <trkpt lat="45.95807" lon="4.7661">
        <ele>188</ele>
        <time>2017-06-28T09:34:16Z</time>
      </trkpt>
      <trkpt lat="45.95806" lon="4.76602">
        <ele>188</ele>
        <time>2017-06-28T09:34:17Z</time>
      </trkpt>
      <trkpt lat="45.95804" lon="4.76593">
        <ele>188</ele>
        <time>2017-06-28T09:34:18Z</time>
      </trkpt>
      <trkpt lat="45.95803" lon="4.76585">
        <ele>187</ele>
        <time>2017-06-28T09:34:19Z</time>
      </trkpt>
      <trkpt lat="45.95802" lon="4.76577">
        <ele>187</ele>
        <time>2017-06-28T09:34:20Z</time>
      </trkpt>
      <trkpt lat="45.958" lon="4.7657">
        <ele>187</ele>
        <time>2017-06-28T09:34:21Z</time>
      </trkpt>
      <trkpt lat="45.95799" lon="4.76562">
        <ele>187</ele>
        <time>2017-06-28T09:34:22Z</time>
      </trkpt>
      <trkpt lat="45.95798" lon="4.76554">
        <ele>187</ele>
        <time>2017-06-28T09:34:23Z</time>
      </trkpt>
      <trkpt lat="45.95797" lon="4.76546">
        <ele>187</ele>
        <time>2017-06-28T09:34:24Z</time>
      </trkpt>
      <trkpt lat="45.95797" lon="4.76538">
        <ele>187</ele>
        <time>2017-06-28T09:34:25Z</time>
      </trkpt>
      <trkpt lat="45.95795" lon="4.76529">
        <ele>187</ele>
        <time>2017-06-28T09:34:26Z</time>
      </trkpt>
      <trkpt lat="45.95794" lon="4.7652">
        <ele>187</ele>
        <time>2017-06-28T09:34:27Z</time>
      </trkpt>
      <trkpt lat="45.95792" lon="4.76512">
        <ele>187</ele>
        <time>2017-06-28T09:34:28Z</time>
      </trkpt>
      <trkpt lat="45.95791" lon="4.76503">
        <ele>187</ele>
        <time>2017-06-28T09:34:29Z</time>
      </trkpt>
      <trkpt lat="45.9579" lon="4.76493">
        <ele>186</ele>
        <time>2017-06-28T09:34:30Z</time>
      </trkpt>
      <trkpt lat="45.95788" lon="4.76484">
        <ele>186</ele>
        <time>2017-06-28T09:34:31Z</time>
      </trkpt>
      <trkpt lat="45.95786" lon="4.76475">
        <ele>186</ele>
        <time>2017-06-28T09:34:32Z</time>
      </trkpt>
      <trkpt lat="45.95785" lon="4.76466">
        <ele>186</ele>
        <time>2017-06-28T09:34:33Z</time>
      </trkpt>
      <trkpt lat="45.95784" lon="4.76458">
        <ele>186</ele>
        <time>2017-06-28T09:34:34Z</time>
      </trkpt>
      <trkpt lat="45.95784" lon="4.76449">
        <ele>186</ele>
        <time>2017-06-28T09:34:35Z</time>
      </trkpt>
      <trkpt lat="45.95783" lon="4.76441">
        <ele>186</ele>
        <time>2017-06-28T09:34:36Z</time>
      </trkpt>
      <trkpt lat="45.95781" lon="4.76433">
        <ele>186</ele>
        <time>2017-06-28T09:34:37Z</time>
      </trkpt>
      <trkpt lat="45.9578" lon="4.76426">
        <ele>186</ele>
        <time>2017-06-28T09:34:38Z</time>
      </trkpt>
      <trkpt lat="45.95779" lon="4.76418">
        <ele>186</ele>
        <time>2017-06-28T09:34:39Z</time>
      </trkpt>
      <trkpt lat="45.95779" lon="4.7641">
        <ele>186</ele>
        <time>2017-06-28T09:34:40Z</time>
      </trkpt>
      <trkpt lat="45.95778" lon="4.76402">
        <ele>186</ele>
        <time>2017-06-28T09:34:41Z</time>
      </trkpt>
      <trkpt lat="45.95778" lon="4.76394">
        <ele>186</ele>
        <time>2017-06-28T09:34:42Z</time>
      </trkpt>
      <trkpt lat="45.95777" lon="4.76386">
        <ele>186</ele>
        <time>2017-06-28T09:34:43Z</time>
      </trkpt>
      <trkpt lat="45.95777" lon="4.76378">
        <ele>186</ele>
        <time>2017-06-28T09:34:44Z</time>
      </trkpt>
      <trkpt lat="45.95776" lon="4.7637">
        <ele>186</ele>
        <time>2017-06-28T09:34:45Z</time>
      </trkpt>
      <trkpt lat="45.95775" lon="4.76361">
        <ele>186</ele>
        <time>2017-06-28T09:34:46Z</time>
      </trkpt>
      <trkpt lat="45.95774" lon="4.76353">
        <ele>186</ele>
        <time>2017-06-28T09:34:47Z</time>
      </trkpt>
      <trkpt lat="45.95773" lon="4.76344">
        <ele>186</ele>
        <time>2017-06-28T09:34:48Z</time>
      </trkpt>
      <trkpt lat="45.95772" lon="4.76335">
        <ele>186</ele>
        <time>2017-06-28T09:34:49Z</time>
      </trkpt>
      <trkpt lat="45.95772" lon="4.76327">
        <ele>185</ele>
        <time>2017-06-28T09:34:50Z</time>
      </trkpt>
      <trkpt lat="45.95771" lon="4.76319">
        <ele>185</ele>
        <time>2017-06-28T09:34:51Z</time>
      </trkpt>
      <trkpt lat="45.95771" lon="4.76311">
        <ele>186</ele>
        <time>2017-06-28T09:34:52Z</time>
      </trkpt>
      <trkpt lat="45.95771" lon="4.76303">
        <ele>186</ele>
        <time>2017-06-28T09:34:53Z</time>
      </trkpt>
      <trkpt lat="45.9577" lon="4.76296">
        <ele>186</ele>
        <time>2017-06-28T09:34:54Z</time>
      </trkpt>
      <trkpt lat="45.9577" lon="4.76288">
        <ele>186</ele>
        <time>2017-06-28T09:34:55Z</time>
      </trkpt>
      <trkpt lat="45.9577" lon="4.76279">
        <ele>186</ele>
        <time>2017-06-28T09:34:56Z</time>
      </trkpt>
      <trkpt lat="45.95769" lon="4.76271">
        <ele>186</ele>
        <time>2017-06-28T09:34:57Z</time>
      </trkpt>
      <trkpt lat="45.95769" lon="4.76262">
        <ele>185</ele>
        <time>2017-06-28T09:34:58Z</time>
      </trkpt>
      <trkpt lat="45.95768" lon="4.76254">
        <ele>185</ele>
        <time>2017-06-28T09:34:59Z</time>
      </trkpt>
      <trkpt lat="45.95768" lon="4.76245">
        <ele>186</ele>
        <time>2017-06-28T09:35:00Z</time>
      </trkpt>
      <trkpt lat="45.95767" lon="4.76235">
        <ele>186</ele>
        <time>2017-06-28T09:35:01Z</time>
      </trkpt>
      <trkpt lat="45.95767" lon="4.76226">
        <ele>186</ele>
        <time>2017-06-28T09:35:02Z</time>
      </trkpt>
      <trkpt lat="45.95767" lon="4.76217">
        <ele>186</ele>
        <time>2017-06-28T09:35:03Z</time>
      </trkpt>
      <trkpt lat="45.95766" lon="4.76207">
        <ele>186</ele>
        <time>2017-06-28T09:35:04Z</time>
      </trkpt>
      <trkpt lat="45.95765" lon="4.76197">
        <ele>186</ele>
        <time>2017-06-28T09:35:05Z</time>
      </trkpt>
      <trkpt lat="45.95764" lon="4.76187">
        <ele>186</ele>
        <time>2017-06-28T09:35:06Z</time>
      </trkpt>
      <trkpt lat="45.95764" lon="4.76176">
        <ele>185</ele>
        <time>2017-06-28T09:35:07Z</time>
      </trkpt>
      <trkpt lat="45.95763" lon="4.76165">
        <ele>186</ele>
        <time>2017-06-28T09:35:08Z</time>
      </trkpt>
      <trkpt lat="45.95762" lon="4.76154">
        <ele>186</ele>
        <time>2017-06-28T09:35:09Z</time>
      </trkpt>
      <trkpt lat="45.95761" lon="4.76144">
        <ele>186</ele>
        <time>2017-06-28T09:35:10Z</time>
      </trkpt>
      <trkpt lat="45.9576" lon="4.76134">
        <ele>186</ele>
        <time>2017-06-28T09:35:11Z</time>
      </trkpt>
      <trkpt lat="45.95759" lon="4.76124">
        <ele>186</ele>
        <time>2017-06-28T09:35:12Z</time>
      </trkpt>
      <trkpt lat="45.95758" lon="4.76115">
        <ele>186</ele>
        <time>2017-06-28T09:35:13Z</time>
      </trkpt>
      <trkpt lat="45.95756" lon="4.76106">
        <ele>186</ele>
        <time>2017-06-28T09:35:14Z</time>
      </trkpt>
      <trkpt lat="45.95754" lon="4.76097">
        <ele>186</ele>
        <time>2017-06-28T09:35:15Z</time>
      </trkpt>
      <trkpt lat="45.95752" lon="4.76089">
        <ele>185</ele>
        <time>2017-06-28T09:35:16Z</time>
      </trkpt>
      <trkpt lat="45.95749" lon="4.76081">
        <ele>185</ele>
        <time>2017-06-28T09:35:17Z</time>
      </trkpt>
      <trkpt lat="45.95746" lon="4.76073">
        <ele>185</ele>
        <time>2017-06-28T09:35:18Z</time>
      </trkpt>
      <trkpt lat="45.95743" lon="4.76065">
        <ele>185</ele>
        <time>2017-06-28T09:35:19Z</time>
      </trkpt>
      <trkpt lat="45.9574" lon="4.76056">
        <ele>184</ele>
        <time>2017-06-28T09:35:20Z</time>
      </trkpt>
      <trkpt lat="45.95737" lon="4.76048">
        <ele>184</ele>
        <time>2017-06-28T09:35:21Z</time>
      </trkpt>
      <trkpt lat="45.95733" lon="4.76039">
        <ele>184</ele>
        <time>2017-06-28T09:35:22Z</time>
      </trkpt>
      <trkpt lat="45.95729" lon="4.7603">
        <ele>184</ele>
        <time>2017-06-28T09:35:23Z</time>
      </trkpt>
      <trkpt lat="45.95725" lon="4.76022">
        <ele>184</ele>
        <time>2017-06-28T09:35:24Z</time>
      </trkpt>
      <trkpt lat="45.95722" lon="4.76014">
        <ele>185</ele>
        <time>2017-06-28T09:35:25Z</time>
      </trkpt>
      <trkpt lat="45.95718" lon="4.76006">
        <ele>184</ele>
        <time>2017-06-28T09:35:26Z</time>
      </trkpt>
      <trkpt lat="45.95715" lon="4.75998">
        <ele>185</ele>
        <time>2017-06-28T09:35:27Z</time>
      </trkpt>
      <trkpt lat="45.95712" lon="4.7599">
        <ele>185</ele>
        <time>2017-06-28T09:35:28Z</time>
      </trkpt>
      <trkpt lat="45.95708" lon="4.75983">
        <ele>185</ele>
        <time>2017-06-28T09:35:29Z</time>
      </trkpt>
      <trkpt lat="45.95705" lon="4.75976">
        <ele>185</ele>
        <time>2017-06-28T09:35:30Z</time>
      </trkpt>
      <trkpt lat="45.95701" lon="4.75969">
        <ele>185</ele>
        <time>2017-06-28T09:35:31Z</time>
      </trkpt>
      <trkpt lat="45.95698" lon="4.75962">
        <ele>185</ele>
        <time>2017-06-28T09:35:32Z</time>
      </trkpt>
      <trkpt lat="45.95696" lon="4.75955">
        <ele>185</ele>
        <time>2017-06-28T09:35:33Z</time>
      </trkpt>
      <trkpt lat="45.95693" lon="4.75948">
        <ele>185</ele>
        <time>2017-06-28T09:35:34Z</time>
      </trkpt>
      <trkpt lat="45.95689" lon="4.75941">
        <ele>185</ele>
        <time>2017-06-28T09:35:35Z</time>
      </trkpt>
      <trkpt lat="45.95685" lon="4.75934">
        <ele>185</ele>
        <time>2017-06-28T09:35:36Z</time>
      </trkpt>
      <trkpt lat="45.95682" lon="4.75926">
        <ele>185</ele>
        <time>2017-06-28T09:35:37Z</time>
      </trkpt>
      <trkpt lat="45.95679" lon="4.75918">
        <ele>185</ele>
        <time>2017-06-28T09:35:38Z</time>
      </trkpt>
      <trkpt lat="45.95676" lon="4.7591">
        <ele>185</ele>
        <time>2017-06-28T09:35:39Z</time>
      </trkpt>
      <trkpt lat="45.95673" lon="4.75901">
        <ele>185</ele>
        <time>2017-06-28T09:35:40Z</time>
      </trkpt>
      <trkpt lat="45.9567" lon="4.75893">
        <ele>186</ele>
        <time>2017-06-28T09:35:41Z</time>
      </trkpt>
      <trkpt lat="45.95667" lon="4.75885">
        <ele>184</ele>
        <time>2017-06-28T09:35:42Z</time>
      </trkpt>
      <trkpt lat="45.95664" lon="4.75876">
        <ele>184</ele>
        <time>2017-06-28T09:35:43Z</time>
      </trkpt>
      <trkpt lat="45.95662" lon="4.75868">
        <ele>184</ele>
        <time>2017-06-28T09:35:44Z</time>
      </trkpt>
      <trkpt lat="45.95659" lon="4.7586">
        <ele>184</ele>
        <time>2017-06-28T09:35:45Z</time>
      </trkpt>
      <trkpt lat="45.95657" lon="4.75852">
        <ele>185</ele>
        <time>2017-06-28T09:35:46Z</time>
      </trkpt>
      <trkpt lat="45.95655" lon="4.75845">
        <ele>185</ele>
        <time>2017-06-28T09:35:47Z</time>
      </trkpt>
      <trkpt lat="45.95653" lon="4.75838">
        <ele>185</ele>
        <time>2017-06-28T09:35:48Z</time>
      </trkpt>
      <trkpt lat="45.95652" lon="4.75831">
        <ele>185</ele>
        <time>2017-06-28T09:35:49Z</time>
      </trkpt>
      <trkpt lat="45.95651" lon="4.75824">
        <ele>185</ele>
        <time>2017-06-28T09:35:50Z</time>
      </trkpt>
      <trkpt lat="45.95649" lon="4.75818">
        <ele>185</ele>
        <time>2017-06-28T09:35:51Z</time>
      </trkpt>
      <trkpt lat="45.95648" lon="4.75811">
        <ele>185</ele>
        <time>2017-06-28T09:35:52Z</time>
      </trkpt>
      <trkpt lat="45.95647" lon="4.75804">
        <ele>185</ele>
        <time>2017-06-28T09:35:53Z</time>
      </trkpt>
      <trkpt lat="45.95646" lon="4.75796">
        <ele>185</ele>
        <time>2017-06-28T09:35:54Z</time>
      </trkpt>
      <trkpt lat="45.95645" lon="4.75789">
        <ele>185</ele>
        <time>2017-06-28T09:35:55Z</time>
      </trkpt>
      <trkpt lat="45.95643" lon="4.75781">
        <ele>186</ele>
        <time>2017-06-28T09:35:56Z</time>
      </trkpt>
      <trkpt lat="45.95642" lon="4.75773">
        <ele>186</ele>
        <time>2017-06-28T09:35:57Z</time>
      </trkpt>
      <trkpt lat="45.9564" lon="4.75764">
        <ele>186</ele>
        <time>2017-06-28T09:35:58Z</time>
      </trkpt>
      <trkpt lat="45.95639" lon="4.75756">
        <ele>186</ele>
        <time>2017-06-28T09:35:59Z</time>
      </trkpt>
      <trkpt lat="45.95638" lon="4.75748">
        <ele>187</ele>
        <time>2017-06-28T09:36:00Z</time>
      </trkpt>
      <trkpt lat="45.95637" lon="4.75741">
        <ele>187</ele>
        <time>2017-06-28T09:36:01Z</time>
      </trkpt>
      <trkpt lat="45.95636" lon="4.75733">
        <ele>187</ele>
        <time>2017-06-28T09:36:02Z</time>
      </trkpt>
      <trkpt lat="45.95635" lon="4.75726">
        <ele>187</ele>
        <time>2017-06-28T09:36:03Z</time>
      </trkpt>
      <trkpt lat="45.95633" lon="4.7572">
        <ele>187</ele>
        <time>2017-06-28T09:36:04Z</time>
      </trkpt>
      <trkpt lat="45.95632" lon="4.75713">
        <ele>187</ele>
        <time>2017-06-28T09:36:05Z</time>
      </trkpt>
      <trkpt lat="45.95631" lon="4.75706">
        <ele>187</ele>
        <time>2017-06-28T09:36:06Z</time>
      </trkpt>
      <trkpt lat="45.9563" lon="4.757">
        <ele>187</ele>
        <time>2017-06-28T09:36:07Z</time>
      </trkpt>
      <trkpt lat="45.95629" lon="4.75693">
        <ele>187</ele>
        <time>2017-06-28T09:36:08Z</time>
      </trkpt>
      <trkpt lat="45.95628" lon="4.75686">
        <ele>187</ele>
        <time>2017-06-28T09:36:09Z</time>
      </trkpt>
      <trkpt lat="45.95627" lon="4.75678">
        <ele>187</ele>
        <time>2017-06-28T09:36:10Z</time>
      </trkpt>
      <trkpt lat="45.95625" lon="4.75671">
        <ele>187</ele>
        <time>2017-06-28T09:36:11Z</time>
      </trkpt>
      <trkpt lat="45.95624" lon="4.75663">
        <ele>188</ele>
        <time>2017-06-28T09:36:12Z</time>
      </trkpt>
      <trkpt lat="45.95622" lon="4.75655">
        <ele>188</ele>
        <time>2017-06-28T09:36:13Z</time>
      </trkpt>
      <trkpt lat="45.9562" lon="4.75648">
        <ele>188</ele>
        <time>2017-06-28T09:36:14Z</time>
      </trkpt>
      <trkpt lat="45.95619" lon="4.75641">
        <ele>188</ele>
        <time>2017-06-28T09:36:15Z</time>
      </trkpt>
      <trkpt lat="45.95616" lon="4.75633">
        <ele>188</ele>
        <time>2017-06-28T09:36:16Z</time>
      </trkpt>
      <trkpt lat="45.95614" lon="4.75626">
        <ele>188</ele>
        <time>2017-06-28T09:36:17Z</time>
      </trkpt>
      <trkpt lat="45.95612" lon="4.75618">
        <ele>188</ele>
        <time>2017-06-28T09:36:18Z</time>
      </trkpt>
      <trkpt lat="45.9561" lon="4.75611">
        <ele>188</ele>
        <time>2017-06-28T09:36:19Z</time>
      </trkpt>
      <trkpt lat="45.95607" lon="4.75604">
        <ele>187</ele>
        <time>2017-06-28T09:36:20Z</time>
      </trkpt>
      <trkpt lat="45.95604" lon="4.75598">
        <ele>187</ele>
        <time>2017-06-28T09:36:21Z</time>
      </trkpt>
      <trkpt lat="45.95602" lon="4.75591">
        <ele>187</ele>
        <time>2017-06-28T09:36:22Z</time>
      </trkpt>
      <trkpt lat="45.95599" lon="4.75585">
        <ele>187</ele>
        <time>2017-06-28T09:36:23Z</time>
      </trkpt>
      <trkpt lat="45.95597" lon="4.75579">
        <ele>187</ele>
        <time>2017-06-28T09:36:24Z</time>
      </trkpt>
      <trkpt lat="45.95594" lon="4.75573">
        <ele>188</ele>
        <time>2017-06-28T09:36:25Z</time>
      </trkpt>
      <trkpt lat="45.95591" lon="4.75567">
        <ele>188</ele>
        <time>2017-06-28T09:36:26Z</time>
      </trkpt>
      <trkpt lat="45.95588" lon="4.75562">
        <ele>188</ele>
        <time>2017-06-28T09:36:27Z</time>
      </trkpt>
      <trkpt lat="45.95584" lon="4.75556">
        <ele>188</ele>
        <time>2017-06-28T09:36:28Z</time>
      </trkpt>
      <trkpt lat="45.95581" lon="4.75551">
        <ele>186</ele>
        <time>2017-06-28T09:36:29Z</time>
      </trkpt>
      <trkpt lat="45.95577" lon="4.75546">
        <ele>186</ele>
        <time>2017-06-28T09:36:30Z</time>
      </trkpt>
      <trkpt lat="45.95573" lon="4.75541">
        <ele>186</ele>
        <time>2017-06-28T09:36:31Z</time>
      </trkpt>
      <trkpt lat="45.95569" lon="4.75536">
        <ele>186</ele>
        <time>2017-06-28T09:36:32Z</time>
      </trkpt>
      <trkpt lat="45.95565" lon="4.75532">
        <ele>186</ele>
        <time>2017-06-28T09:36:33Z</time>
      </trkpt>
      <trkpt lat="45.95561" lon="4.75527">
        <ele>186</ele>
        <time>2017-06-28T09:36:34Z</time>
      </trkpt>
      <trkpt lat="45.95557" lon="4.75522">
        <ele>186</ele>
        <time>2017-06-28T09:36:35Z</time>
      </trkpt>
      <trkpt lat="45.95553" lon="4.75518">
        <ele>186</ele>
        <time>2017-06-28T09:36:36Z</time>
      </trkpt>
      <trkpt lat="45.95549" lon="4.75513">
        <ele>186</ele>
        <time>2017-06-28T09:36:37Z</time>
      </trkpt>
      <trkpt lat="45.95546" lon="4.75508">
        <ele>186</ele>
        <time>2017-06-28T09:36:38Z</time>
      </trkpt>
      <trkpt lat="45.95543" lon="4.75504">
        <ele>186</ele>
        <time>2017-06-28T09:36:39Z</time>
      </trkpt>
      <trkpt lat="45.95541" lon="4.75498">
        <ele>187</ele>
        <time>2017-06-28T09:36:40Z</time>
      </trkpt>
      <trkpt lat="45.95539" lon="4.75491">
        <ele>187</ele>
        <time>2017-06-28T09:36:41Z</time>
      </trkpt>
      <trkpt lat="45.95538" lon="4.75484">
        <ele>187</ele>
        <time>2017-06-28T09:36:42Z</time>
      </trkpt>
      <trkpt lat="45.95537" lon="4.75477">
        <ele>187</ele>
        <time>2017-06-28T09:36:43Z</time>
      </trkpt>
      <trkpt lat="45.95536" lon="4.7547">
        <ele>187</ele>
        <time>2017-06-28T09:36:44Z</time>
      </trkpt>
      <trkpt lat="45.95535" lon="4.75463">
        <ele>187</ele>
        <time>2017-06-28T09:36:45Z</time>
      </trkpt>
      <trkpt lat="45.95533" lon="4.75456">
        <ele>187</ele>
        <time>2017-06-28T09:36:46Z</time>
      </trkpt>
      <trkpt lat="45.95529" lon="4.7545">
        <ele>187</ele>
        <time>2017-06-28T09:36:47Z</time>
      </trkpt>
      <trkpt lat="45.95525" lon="4.75444">
        <ele>187</ele>
        <time>2017-06-28T09:36:48Z</time>
      </trkpt>
      <trkpt lat="45.9552" lon="4.75437">
        <ele>187</ele>
        <time>2017-06-28T09:36:49Z</time>
      </trkpt>
      <trkpt lat="45.95516" lon="4.7543">
        <ele>186</ele>
        <time>2017-06-28T09:36:50Z</time>
      </trkpt>
      <trkpt lat="45.95513" lon="4.75422">
        <ele>186</ele>
        <time>2017-06-28T09:36:51Z</time>
      </trkpt>
      <trkpt lat="45.9551" lon="4.75415">
        <ele>187</ele>
        <time>2017-06-28T09:36:52Z</time>
      </trkpt>
      <trkpt lat="45.95508" lon="4.75407">
        <ele>187</ele>
        <time>2017-06-28T09:36:53Z</time>
      </trkpt>
      <trkpt lat="45.95505" lon="4.754">
        <ele>187</ele>
        <time>2017-06-28T09:36:54Z</time>
      </trkpt>
      <trkpt lat="45.95503" lon="4.75393">
        <ele>188</ele>
        <time>2017-06-28T09:36:55Z</time>
      </trkpt>
      <trkpt lat="45.955" lon="4.75387">
        <ele>188</ele>
        <time>2017-06-28T09:36:56Z</time>
      </trkpt>
      <trkpt lat="45.95498" lon="4.7538">
        <ele>185</ele>
        <time>2017-06-28T09:36:57Z</time>
      </trkpt>
      <trkpt lat="45.95495" lon="4.75374">
        <ele>185</ele>
        <time>2017-06-28T09:36:58Z</time>
      </trkpt>
      <trkpt lat="45.95492" lon="4.75367">
        <ele>186</ele>
        <time>2017-06-28T09:36:59Z</time>
      </trkpt>
      <trkpt lat="45.9549" lon="4.75361">
        <ele>186</ele>
        <time>2017-06-28T09:37:00Z</time>
      </trkpt>
      <trkpt lat="45.95487" lon="4.75355">
        <ele>186</ele>
        <time>2017-06-28T09:37:01Z</time>
      </trkpt>
      <trkpt lat="45.95484" lon="4.75349">
        <ele>186</ele>
        <time>2017-06-28T09:37:02Z</time>
      </trkpt>
      <trkpt lat="45.95481" lon="4.75343">
        <ele>186</ele>
        <time>2017-06-28T09:37:03Z</time>
      </trkpt>
      <trkpt lat="45.95478" lon="4.75337">
        <ele>186</ele>
        <time>2017-06-28T09:37:04Z</time>
      </trkpt>
      <trkpt lat="45.95475" lon="4.75332">
        <ele>188</ele>
        <time>2017-06-28T09:37:05Z</time>
      </trkpt>
      <trkpt lat="45.95472" lon="4.75326">
        <ele>188</ele>
        <time>2017-06-28T09:37:06Z</time>
      </trkpt>
      <trkpt lat="45.95469" lon="4.7532">
        <ele>188</ele>
        <time>2017-06-28T09:37:07Z</time>
      </trkpt>
      <trkpt lat="45.95465" lon="4.75315">
        <ele>188</ele>
        <time>2017-06-28T09:37:08Z</time>
      </trkpt>
      <trkpt lat="45.95462" lon="4.7531">
        <ele>188</ele>
        <time>2017-06-28T09:37:09Z</time>
      </trkpt>
      <trkpt lat="45.95459" lon="4.75305">
        <ele>188</ele>
        <time>2017-06-28T09:37:10Z</time>
      </trkpt>
      <trkpt lat="45.95454" lon="4.75295">
        <ele>188</ele>
        <time>2017-06-28T09:37:12Z</time>
      </trkpt>
      <trkpt lat="45.95452" lon="4.7529">
        <ele>188</ele>
        <time>2017-06-28T09:37:13Z</time>
      </trkpt>
      <trkpt lat="45.95446" lon="4.75281">
        <ele>188</ele>
        <time>2017-06-28T09:37:15Z</time>
      </trkpt>
      <trkpt lat="45.95443" lon="4.75276">
        <ele>189</ele>
        <time>2017-06-28T09:37:16Z</time>
      </trkpt>
      <trkpt lat="45.95438" lon="4.75265">
        <ele>189</ele>
        <time>2017-06-28T09:37:18Z</time>
      </trkpt>
      <trkpt lat="45.95435" lon="4.7526">
        <ele>189</ele>
        <time>2017-06-28T09:37:19Z</time>
      </trkpt>
      <trkpt lat="45.9543" lon="4.75251">
        <ele>189</ele>
        <time>2017-06-28T09:37:21Z</time>
      </trkpt>
      <trkpt lat="45.95427" lon="4.75245">
        <ele>190</ele>
        <time>2017-06-28T09:37:22Z</time>
      </trkpt>
      <trkpt lat="45.95425" lon="4.7524">
        <ele>190</ele>
        <time>2017-06-28T09:37:23Z</time>
      </trkpt>
      <trkpt lat="45.95422" lon="4.75234">
        <ele>190</ele>
        <time>2017-06-28T09:37:24Z</time>
      </trkpt>
      <trkpt lat="45.9542" lon="4.75229">
        <ele>191</ele>
        <time>2017-06-28T09:37:25Z</time>
      </trkpt>
      <trkpt lat="45.95417" lon="4.75223">
        <ele>189</ele>
        <time>2017-06-28T09:37:26Z</time>
      </trkpt>
      <trkpt lat="45.95414" lon="4.75218">
        <ele>189</ele>
        <time>2017-06-28T09:37:27Z</time>
      </trkpt>
      <trkpt lat="45.95411" lon="4.75212">
        <ele>189</ele>
        <time>2017-06-28T09:37:28Z</time>
      </trkpt>
      <trkpt lat="45.95408" lon="4.75206">
        <ele>189</ele>
        <time>2017-06-28T09:37:29Z</time>
      </trkpt>
      <trkpt lat="45.95405" lon="4.75201">
        <ele>189</ele>
        <time>2017-06-28T09:37:30Z</time>
      </trkpt>
      <trkpt lat="45.95402" lon="4.75196">
        <ele>189</ele>
        <time>2017-06-28T09:37:31Z</time>
      </trkpt>
      <trkpt lat="45.954" lon="4.7519">
        <ele>189</ele>
        <time>2017-06-28T09:37:32Z</time>
      </trkpt>
      <trkpt lat="45.95397" lon="4.75185">
        <ele>189</ele>
        <time>2017-06-28T09:37:33Z</time>
      </trkpt>
      <trkpt lat="45.95393" lon="4.75179">
        <ele>189</ele>
        <time>2017-06-28T09:37:34Z</time>
      </trkpt>
      <trkpt lat="45.9539" lon="4.75173">
        <ele>189</ele>
        <time>2017-06-28T09:37:35Z</time>
      </trkpt>
      <trkpt lat="45.95386" lon="4.75168">
        <ele>189</ele>
        <time>2017-06-28T09:37:36Z</time>
      </trkpt>
      <trkpt lat="45.95382" lon="4.75162">
        <ele>191</ele>
        <time>2017-06-28T09:37:37Z</time>
      </trkpt>
      <trkpt lat="45.95378" lon="4.75156">
        <ele>191</ele>
        <time>2017-06-28T09:37:38Z</time>
      </trkpt>
      <trkpt lat="45.95374" lon="4.7515">
        <ele>191</ele>
        <time>2017-06-28T09:37:39Z</time>
      </trkpt>
      <trkpt lat="45.95371" lon="4.75144">
        <ele>191</ele>
        <time>2017-06-28T09:37:40Z</time>
      </trkpt>
      <trkpt lat="45.95368" lon="4.75139">
        <ele>191</ele>
        <time>2017-06-28T09:37:41Z</time>
      </trkpt>
      <trkpt lat="45.95364" lon="4.75133">
        <ele>191</ele>
        <time>2017-06-28T09:37:42Z</time>
      </trkpt>
      <trkpt lat="45.95361" lon="4.75128">
        <ele>191</ele>
        <time>2017-06-28T09:37:43Z</time>
      </trkpt>
      <trkpt lat="45.95357" lon="4.75123">
        <ele>191</ele>
        <time>2017-06-28T09:37:44Z</time>
      </trkpt>
      <trkpt lat="45.95354" lon="4.75118">
        <ele>192</ele>
        <time>2017-06-28T09:37:45Z</time>
      </trkpt>
      <trkpt lat="45.95351" lon="4.75112">
        <ele>192</ele>
        <time>2017-06-28T09:37:46Z</time>
      </trkpt>
      <trkpt lat="45.95347" lon="4.75107">
        <ele>192</ele>
        <time>2017-06-28T09:37:47Z</time>
      </trkpt>
      <trkpt lat="45.95344" lon="4.75102">
        <ele>192</ele>
        <time>2017-06-28T09:37:48Z</time>
      </trkpt>
      <trkpt lat="45.95341" lon="4.75097">
        <ele>192</ele>
        <time>2017-06-28T09:37:49Z</time>
      </trkpt>
      <trkpt lat="45.95338" lon="4.75091">
        <ele>193</ele>
        <time>2017-06-28T09:37:50Z</time>
      </trkpt>
      <trkpt lat="45.95334" lon="4.75086">
        <ele>193</ele>
        <time>2017-06-28T09:37:51Z</time>
      </trkpt>
      <trkpt lat="45.95331" lon="4.75082">
        <ele>193</ele>
        <time>2017-06-28T09:37:52Z</time>
      </trkpt>
      <trkpt lat="45.95328" lon="4.75077">
        <ele>192</ele>
        <time>2017-06-28T09:37:53Z</time>
      </trkpt>
      <trkpt lat="45.95324" lon="4.75072">
        <ele>192</ele>
        <time>2017-06-28T09:37:54Z</time>
      </trkpt>
      <trkpt lat="45.95319" lon="4.75062">
        <ele>192</ele>
        <time>2017-06-28T09:37:56Z</time>
      </trkpt>
      <trkpt lat="45.95315" lon="4.75058">
        <ele>192</ele>
        <time>2017-06-28T09:37:57Z</time>
      </trkpt>
      <trkpt lat="45.9531" lon="4.75049">
        <ele>192</ele>
        <time>2017-06-28T09:37:59Z</time>
      </trkpt>
      <trkpt lat="45.95307" lon="4.75044">
        <ele>192</ele>
        <time>2017-06-28T09:38:00Z</time>
      </trkpt>
      <trkpt lat="45.95302" lon="4.75034">
        <ele>192</ele>
        <time>2017-06-28T09:38:02Z</time>
      </trkpt>
      <trkpt lat="45.95299" lon="4.75029">
        <ele>191</ele>
        <time>2017-06-28T09:38:03Z</time>
      </trkpt>
      <trkpt lat="45.95295" lon="4.75024">
        <ele>191</ele>
        <time>2017-06-28T09:38:04Z</time>
      </trkpt>
      <trkpt lat="45.95292" lon="4.75019">
        <ele>191</ele>
        <time>2017-06-28T09:38:05Z</time>
      </trkpt>
      <trkpt lat="45.95289" lon="4.75014">
        <ele>191</ele>
        <time>2017-06-28T09:38:06Z</time>
      </trkpt>
      <trkpt lat="45.95286" lon="4.75009">
        <ele>191</ele>
        <time>2017-06-28T09:38:07Z</time>
      </trkpt>
      <trkpt lat="45.9528" lon="4.75">
        <ele>191</ele>
        <time>2017-06-28T09:38:09Z</time>
      </trkpt>
      <trkpt lat="45.95278" lon="4.74996">
        <ele>192</ele>
        <time>2017-06-28T09:38:10Z</time>
      </trkpt>
      <trkpt lat="45.95271" lon="4.74987">
        <ele>192</ele>
        <time>2017-06-28T09:38:12Z</time>
      </trkpt>
      <trkpt lat="45.95268" lon="4.74982">
        <ele>192</ele>
        <time>2017-06-28T09:38:13Z</time>
      </trkpt>
      <trkpt lat="45.95265" lon="4.74978">
        <ele>192</ele>
        <time>2017-06-28T09:38:14Z</time>
      </trkpt>
      <trkpt lat="45.95262" lon="4.74973">
        <ele>192</ele>
        <time>2017-06-28T09:38:15Z</time>
      </trkpt>
      <trkpt lat="45.95258" lon="4.74967">
        <ele>192</ele>
        <time>2017-06-28T09:38:16Z</time>
      </trkpt>
      <trkpt lat="45.95255" lon="4.74962">
        <ele>192</ele>
        <time>2017-06-28T09:38:17Z</time>
      </trkpt>
      <trkpt lat="45.95252" lon="4.74957">
        <ele>192</ele>
        <time>2017-06-28T09:38:18Z</time>
      </trkpt>
      <trkpt lat="45.95249" lon="4.74952">
        <ele>192</ele>
        <time>2017-06-28T09:38:19Z</time>
      </trkpt>
      <trkpt lat="45.95246" lon="4.74946">
        <ele>192</ele>
        <time>2017-06-28T09:38:20Z</time>
      </trkpt>
      <trkpt lat="45.95243" lon="4.74941">
        <ele>192</ele>
        <time>2017-06-28T09:38:21Z</time>
      </trkpt>
      <trkpt lat="45.95236" lon="4.74932">
        <ele>192</ele>
        <time>2017-06-28T09:38:23Z</time>
      </trkpt>
      <trkpt lat="45.95233" lon="4.74928">
        <ele>192</ele>
        <time>2017-06-28T09:38:24Z</time>
      </trkpt>
      <trkpt lat="45.95227" lon="4.74919">
        <ele>192</ele>
        <time>2017-06-28T09:38:26Z</time>
      </trkpt>
      <trkpt lat="45.95225" lon="4.74915">
        <ele>193</ele>
        <time>2017-06-28T09:38:27Z</time>
      </trkpt>
      <trkpt lat="45.95221" lon="4.7491">
        <ele>193</ele>
        <time>2017-06-28T09:38:28Z</time>
      </trkpt>
      <trkpt lat="45.95218" lon="4.74905">
        <ele>193</ele>
        <time>2017-06-28T09:38:29Z</time>
      </trkpt>
      <trkpt lat="45.95215" lon="4.749">
        <ele>193</ele>
        <time>2017-06-28T09:38:30Z</time>
      </trkpt>
      <trkpt lat="45.95211" lon="4.74895">
        <ele>193</ele>
        <time>2017-06-28T09:38:31Z</time>
      </trkpt>
      <trkpt lat="45.95207" lon="4.7489">
        <ele>194</ele>
        <time>2017-06-28T09:38:32Z</time>
      </trkpt>
      <trkpt lat="45.95204" lon="4.74885">
        <ele>194</ele>
        <time>2017-06-28T09:38:33Z</time>
      </trkpt>
      <trkpt lat="45.95201" lon="4.74879">
        <ele>194</ele>
        <time>2017-06-28T09:38:34Z</time>
      </trkpt>
      <trkpt lat="45.95197" lon="4.74874">
        <ele>194</ele>
        <time>2017-06-28T09:38:35Z</time>
      </trkpt>
      <trkpt lat="45.95194" lon="4.74869">
        <ele>194</ele>
        <time>2017-06-28T09:38:36Z</time>
      </trkpt>
      <trkpt lat="45.9519" lon="4.74864">
        <ele>194</ele>
        <time>2017-06-28T09:38:37Z</time>
      </trkpt>
      <trkpt lat="45.95186" lon="4.74859">
        <ele>194</ele>
        <time>2017-06-28T09:38:38Z</time>
      </trkpt>
      <trkpt lat="45.95184" lon="4.74853">
        <ele>194</ele>
        <time>2017-06-28T09:38:39Z</time>
      </trkpt>
      <trkpt lat="45.95181" lon="4.74847">
        <ele>194</ele>
        <time>2017-06-28T09:38:40Z</time>
      </trkpt>
      <trkpt lat="45.95177" lon="4.74842">
        <ele>194</ele>
        <time>2017-06-28T09:38:41Z</time>
      </trkpt>
      <trkpt lat="45.95173" lon="4.74836">
        <ele>194</ele>
        <time>2017-06-28T09:38:42Z</time>
      </trkpt>
      <trkpt lat="45.9517" lon="4.7483">
        <ele>194</ele>
        <time>2017-06-28T09:38:43Z</time>
      </trkpt>
      <trkpt lat="45.95166" lon="4.74824">
        <ele>194</ele>
        <time>2017-06-28T09:38:44Z</time>
      </trkpt>
      <trkpt lat="45.95163" lon="4.74819">
        <ele>194</ele>
        <time>2017-06-28T09:38:45Z</time>
      </trkpt>
      <trkpt lat="45.9516" lon="4.74814">
        <ele>194</ele>
        <time>2017-06-28T09:38:46Z</time>
      </trkpt>
      <trkpt lat="45.95157" lon="4.74809">
        <ele>194</ele>
        <time>2017-06-28T09:38:47Z</time>
      </trkpt>
      <trkpt lat="45.95153" lon="4.74804">
        <ele>194</ele>
        <time>2017-06-28T09:38:48Z</time>
      </trkpt>
      <trkpt lat="45.9515" lon="4.74799">
        <ele>194</ele>
        <time>2017-06-28T09:38:49Z</time>
      </trkpt>
      <trkpt lat="45.95147" lon="4.74794">
        <ele>194</ele>
        <time>2017-06-28T09:38:50Z</time>
      </trkpt>
      <trkpt lat="45.95144" lon="4.74789">
        <ele>194</ele>
        <time>2017-06-28T09:38:51Z</time>
      </trkpt>
      <trkpt lat="45.95141" lon="4.74784">
        <ele>194</ele>
        <time>2017-06-28T09:38:52Z</time>
      </trkpt>
      <trkpt lat="45.95138" lon="4.74779">
        <ele>194</ele>
        <time>2017-06-28T09:38:53Z</time>
      </trkpt>
      <trkpt lat="45.95135" lon="4.74773">
        <ele>194</ele>
        <time>2017-06-28T09:38:54Z</time>
      </trkpt>
      <trkpt lat="45.95132" lon="4.74768">
        <ele>194</ele>
        <time>2017-06-28T09:38:55Z</time>
      </trkpt>
      <trkpt lat="45.95128" lon="4.74762">
        <ele>194</ele>
        <time>2017-06-28T09:38:56Z</time>
      </trkpt>
      <trkpt lat="45.95125" lon="4.74756">
        <ele>194</ele>
        <time>2017-06-28T09:38:57Z</time>
      </trkpt>
      <trkpt lat="45.95121" lon="4.7475">
        <ele>194</ele>
        <time>2017-06-28T09:38:58Z</time>
      </trkpt>
      <trkpt lat="45.95117" lon="4.74743">
        <ele>194</ele>
        <time>2017-06-28T09:38:59Z</time>
      </trkpt>
      <trkpt lat="45.95114" lon="4.74737">
        <ele>194</ele>
        <time>2017-06-28T09:39:00Z</time>
      </trkpt>
      <trkpt lat="45.95111" lon="4.7473">
        <ele>194</ele>
        <time>2017-06-28T09:39:01Z</time>
      </trkpt>
      <trkpt lat="45.95108" lon="4.74724">
        <ele>194</ele>
        <time>2017-06-28T09:39:02Z</time>
      </trkpt>
      <trkpt lat="45.95105" lon="4.74718">
        <ele>194</ele>
        <time>2017-06-28T09:39:03Z</time>
      </trkpt>
      <trkpt lat="45.95101" lon="4.74711">
        <ele>194</ele>
        <time>2017-06-28T09:39:04Z</time>
      </trkpt>
      <trkpt lat="45.95097" lon="4.74705">
        <ele>194</ele>
        <time>2017-06-28T09:39:05Z</time>
      </trkpt>
      <trkpt lat="45.95094" lon="4.74699">
        <ele>194</ele>
        <time>2017-06-28T09:39:06Z</time>
      </trkpt>
      <trkpt lat="45.9509" lon="4.74693">
        <ele>194</ele>
        <time>2017-06-28T09:39:07Z</time>
      </trkpt>
      <trkpt lat="45.95086" lon="4.74687">
        <ele>195</ele>
        <time>2017-06-28T09:39:08Z</time>
      </trkpt>
      <trkpt lat="45.95082" lon="4.74682">
        <ele>194</ele>
        <time>2017-06-28T09:39:09Z</time>
      </trkpt>
      <trkpt lat="45.95079" lon="4.74676">
        <ele>195</ele>
        <time>2017-06-28T09:39:10Z</time>
      </trkpt>
      <trkpt lat="45.95076" lon="4.74669">
        <ele>195</ele>
        <time>2017-06-28T09:39:11Z</time>
      </trkpt>
      <trkpt lat="45.95073" lon="4.74663">
        <ele>195</ele>
        <time>2017-06-28T09:39:12Z</time>
      </trkpt>
      <trkpt lat="45.9507" lon="4.74657">
        <ele>195</ele>
        <time>2017-06-28T09:39:13Z</time>
      </trkpt>
      <trkpt lat="45.95067" lon="4.74652">
        <ele>195</ele>
        <time>2017-06-28T09:39:14Z</time>
      </trkpt>
      <trkpt lat="45.95063" lon="4.74646">
        <ele>195</ele>
        <time>2017-06-28T09:39:15Z</time>
      </trkpt>
      <trkpt lat="45.9506" lon="4.74641">
        <ele>194</ele>
        <time>2017-06-28T09:39:16Z</time>
      </trkpt>
      <trkpt lat="45.95057" lon="4.74635">
        <ele>194</ele>
        <time>2017-06-28T09:39:17Z</time>
      </trkpt>
      <trkpt lat="45.95054" lon="4.7463">
        <ele>194</ele>
        <time>2017-06-28T09:39:18Z</time>
      </trkpt>
      <trkpt lat="45.9505" lon="4.74624">
        <ele>194</ele>
        <time>2017-06-28T09:39:19Z</time>
      </trkpt>
      <trkpt lat="45.95047" lon="4.74618">
        <ele>194</ele>
        <time>2017-06-28T09:39:20Z</time>
      </trkpt>
      <trkpt lat="45.95043" lon="4.74612">
        <ele>194</ele>
        <time>2017-06-28T09:39:21Z</time>
      </trkpt>
      <trkpt lat="45.9504" lon="4.74606">
        <ele>194</ele>
        <time>2017-06-28T09:39:22Z</time>
      </trkpt>
      <trkpt lat="45.95036" lon="4.746">
        <ele>194</ele>
        <time>2017-06-28T09:39:23Z</time>
      </trkpt>
      <trkpt lat="45.95032" lon="4.74593">
        <ele>194</ele>
        <time>2017-06-28T09:39:24Z</time>
      </trkpt>
      <trkpt lat="45.95029" lon="4.74586">
        <ele>194</ele>
        <time>2017-06-28T09:39:25Z</time>
      </trkpt>
      <trkpt lat="45.95025" lon="4.74579">
        <ele>194</ele>
        <time>2017-06-28T09:39:26Z</time>
      </trkpt>
      <trkpt lat="45.95022" lon="4.74573">
        <ele>194</ele>
        <time>2017-06-28T09:39:27Z</time>
      </trkpt>
      <trkpt lat="45.95018" lon="4.74566">
        <ele>194</ele>
        <time>2017-06-28T09:39:28Z</time>
      </trkpt>
      <trkpt lat="45.95015" lon="4.74559">
        <ele>194</ele>
        <time>2017-06-28T09:39:29Z</time>
      </trkpt>
      <trkpt lat="45.95011" lon="4.74552">
        <ele>194</ele>
        <time>2017-06-28T09:39:30Z</time>
      </trkpt>
      <trkpt lat="45.95008" lon="4.74545">
        <ele>194</ele>
        <time>2017-06-28T09:39:31Z</time>
      </trkpt>
      <trkpt lat="45.95005" lon="4.74539">
        <ele>194</ele>
        <time>2017-06-28T09:39:32Z</time>
      </trkpt>
      <trkpt lat="45.95002" lon="4.74533">
        <ele>194</ele>
        <time>2017-06-28T09:39:33Z</time>
      </trkpt>
      <trkpt lat="45.94999" lon="4.74526">
        <ele>193</ele>
        <time>2017-06-28T09:39:34Z</time>
      </trkpt>
      <trkpt lat="45.94995" lon="4.7452">
        <ele>193</ele>
        <time>2017-06-28T09:39:35Z</time>
      </trkpt>
      <trkpt lat="45.94992" lon="4.74513">
        <ele>193</ele>
        <time>2017-06-28T09:39:36Z</time>
      </trkpt>
      <trkpt lat="45.94988" lon="4.74506">
        <ele>193</ele>
        <time>2017-06-28T09:39:37Z</time>
      </trkpt>
      <trkpt lat="45.94984" lon="4.74499">
        <ele>193</ele>
        <time>2017-06-28T09:39:38Z</time>
      </trkpt>
      <trkpt lat="45.94981" lon="4.74492">
        <ele>193</ele>
        <time>2017-06-28T09:39:39Z</time>
      </trkpt>
      <trkpt lat="45.94977" lon="4.74484">
        <ele>193</ele>
        <time>2017-06-28T09:39:40Z</time>
      </trkpt>
      <trkpt lat="45.94973" lon="4.74477">
        <ele>193</ele>
        <time>2017-06-28T09:39:41Z</time>
      </trkpt>
      <trkpt lat="45.94969" lon="4.7447">
        <ele>193</ele>
        <time>2017-06-28T09:39:42Z</time>
      </trkpt>
      <trkpt lat="45.94965" lon="4.74462">
        <ele>193</ele>
        <time>2017-06-28T09:39:43Z</time>
      </trkpt>
      <trkpt lat="45.94961" lon="4.74455">
        <ele>192</ele>
        <time>2017-06-28T09:39:44Z</time>
      </trkpt>
      <trkpt lat="45.94957" lon="4.74447">
        <ele>192</ele>
        <time>2017-06-28T09:39:45Z</time>
      </trkpt>
      <trkpt lat="45.94953" lon="4.74439">
        <ele>192</ele>
        <time>2017-06-28T09:39:46Z</time>
      </trkpt>
      <trkpt lat="45.94949" lon="4.74431">
        <ele>192</ele>
        <time>2017-06-28T09:39:47Z</time>
      </trkpt>
      <trkpt lat="45.94945" lon="4.74423">
        <ele>192</ele>
        <time>2017-06-28T09:39:48Z</time>
      </trkpt>
      <trkpt lat="45.9494" lon="4.74415">
        <ele>192</ele>
        <time>2017-06-28T09:39:49Z</time>
      </trkpt>
      <trkpt lat="45.94936" lon="4.74407">
        <ele>192</ele>
        <time>2017-06-28T09:39:50Z</time>
      </trkpt>
      <trkpt lat="45.94931" lon="4.74398">
        <ele>192</ele>
        <time>2017-06-28T09:39:51Z</time>
      </trkpt>
      <trkpt lat="45.94927" lon="4.7439">
        <ele>192</ele>
        <time>2017-06-28T09:39:52Z</time>
      </trkpt>
      <trkpt lat="45.94923" lon="4.74383">
        <ele>192</ele>
        <time>2017-06-28T09:39:53Z</time>
      </trkpt>
      <trkpt lat="45.94919" lon="4.74375">
        <ele>192</ele>
        <time>2017-06-28T09:39:54Z</time>
      </trkpt>
      <trkpt lat="45.94915" lon="4.74367">
        <ele>191</ele>
        <time>2017-06-28T09:39:55Z</time>
      </trkpt>
      <trkpt lat="45.94911" lon="4.74359">
        <ele>191</ele>
        <time>2017-06-28T09:39:56Z</time>
      </trkpt>
      <trkpt lat="45.94907" lon="4.74352">
        <ele>191</ele>
        <time>2017-06-28T09:39:57Z</time>
      </trkpt>
      <trkpt lat="45.94904" lon="4.74345">
        <ele>191</ele>
        <time>2017-06-28T09:39:58Z</time>
      </trkpt>
      <trkpt lat="45.949" lon="4.74337">
        <ele>191</ele>
        <time>2017-06-28T09:39:59Z</time>
      </trkpt>
      <trkpt lat="45.94896" lon="4.7433">
        <ele>191</ele>
        <time>2017-06-28T09:40:00Z</time>
      </trkpt>
      <trkpt lat="45.94892" lon="4.74323">
        <ele>191</ele>
        <time>2017-06-28T09:40:01Z</time>
      </trkpt>
      <trkpt lat="45.94889" lon="4.74316">
        <ele>191</ele>
        <time>2017-06-28T09:40:02Z</time>
      </trkpt>
      <trkpt lat="45.94885" lon="4.7431">
        <ele>191</ele>
        <time>2017-06-28T09:40:03Z</time>
      </trkpt>
      <trkpt lat="45.94882" lon="4.74303">
        <ele>191</ele>
        <time>2017-06-28T09:40:04Z</time>
      </trkpt>
      <trkpt lat="45.94879" lon="4.74296">
        <ele>191</ele>
        <time>2017-06-28T09:40:05Z</time>
      </trkpt>
      <trkpt lat="45.94875" lon="4.74289">
        <ele>191</ele>
        <time>2017-06-28T09:40:06Z</time>
      </trkpt>
      <trkpt lat="45.94871" lon="4.74282">
        <ele>191</ele>
        <time>2017-06-28T09:40:07Z</time>
      </trkpt>
      <trkpt lat="45.94866" lon="4.74275">
        <ele>191</ele>
        <time>2017-06-28T09:40:08Z</time>
      </trkpt>
      <trkpt lat="45.94862" lon="4.74267">
        <ele>190</ele>
        <time>2017-06-28T09:40:09Z</time>
      </trkpt>
      <trkpt lat="45.94858" lon="4.74258">
        <ele>190</ele>
        <time>2017-06-28T09:40:10Z</time>
      </trkpt>
      <trkpt lat="45.94855" lon="4.7425">
        <ele>190</ele>
        <time>2017-06-28T09:40:11Z</time>
      </trkpt>
      <trkpt lat="45.94851" lon="4.74242">
        <ele>190</ele>
        <time>2017-06-28T09:40:12Z</time>
      </trkpt>
      <trkpt lat="45.94848" lon="4.74234">
        <ele>190</ele>
        <time>2017-06-28T09:40:13Z</time>
      </trkpt>
      <trkpt lat="45.94844" lon="4.74227">
        <ele>190</ele>
        <time>2017-06-28T09:40:14Z</time>
      </trkpt>
      <trkpt lat="45.9484" lon="4.7422">
        <ele>190</ele>
        <time>2017-06-28T09:40:15Z</time>
      </trkpt>
      <trkpt lat="45.94836" lon="4.74213">
        <ele>190</ele>
        <time>2017-06-28T09:40:16Z</time>
      </trkpt>
      <trkpt lat="45.94832" lon="4.74207">
        <ele>189</ele>
        <time>2017-06-28T09:40:17Z</time>
      </trkpt>
      <trkpt lat="45.94828" lon="4.742">
        <ele>189</ele>
        <time>2017-06-28T09:40:18Z</time>
      </trkpt>
      <trkpt lat="45.94824" lon="4.74194">
        <ele>189</ele>
        <time>2017-06-28T09:40:19Z</time>
      </trkpt>
      <trkpt lat="45.9482" lon="4.74188">
        <ele>189</ele>
        <time>2017-06-28T09:40:20Z</time>
      </trkpt>
      <trkpt lat="45.94816" lon="4.74181">
        <ele>189</ele>
        <time>2017-06-28T09:40:21Z</time>
      </trkpt>
      <trkpt lat="45.94812" lon="4.74174">
        <ele>189</ele>
        <time>2017-06-28T09:40:22Z</time>
      </trkpt>
      <trkpt lat="45.94808" lon="4.74167">
        <ele>189</ele>
        <time>2017-06-28T09:40:23Z</time>
      </trkpt>
      <trkpt lat="45.94804" lon="4.7416">
        <ele>189</ele>
        <time>2017-06-28T09:40:24Z</time>
      </trkpt>
      <trkpt lat="45.94801" lon="4.74154">
        <ele>189</ele>
        <time>2017-06-28T09:40:25Z</time>
      </trkpt>
      <trkpt lat="45.94797" lon="4.74147">
        <ele>189</ele>
        <time>2017-06-28T09:40:26Z</time>
      </trkpt>
      <trkpt lat="45.94793" lon="4.74141">
        <ele>189</ele>
        <time>2017-06-28T09:40:27Z</time>
      </trkpt>
      <trkpt lat="45.94789" lon="4.74135">
        <ele>189</ele>
        <time>2017-06-28T09:40:28Z</time>
      </trkpt>
      <trkpt lat="45.94786" lon="4.74129">
        <ele>189</ele>
        <time>2017-06-28T09:40:29Z</time>
      </trkpt>
      <trkpt lat="45.94782" lon="4.74124">
        <ele>189</ele>
        <time>2017-06-28T09:40:30Z</time>
      </trkpt>
      <trkpt lat="45.94778" lon="4.74118">
        <ele>189</ele>
        <time>2017-06-28T09:40:31Z</time>
      </trkpt>
      <trkpt lat="45.94775" lon="4.74113">
        <ele>189</ele>
        <time>2017-06-28T09:40:32Z</time>
      </trkpt>
      <trkpt lat="45.94772" lon="4.74108">
        <ele>189</ele>
        <time>2017-06-28T09:40:33Z</time>
      </trkpt>
      <trkpt lat="45.94768" lon="4.74103">
        <ele>189</ele>
        <time>2017-06-28T09:40:34Z</time>
      </trkpt>
      <trkpt lat="45.94765" lon="4.74098">
        <ele>189</ele>
        <time>2017-06-28T09:40:35Z</time>
      </trkpt>
      <trkpt lat="45.94762" lon="4.74093">
        <ele>189</ele>
        <time>2017-06-28T09:40:36Z</time>
      </trkpt>
      <trkpt lat="45.94759" lon="4.74088">
        <ele>189</ele>
        <time>2017-06-28T09:40:37Z</time>
      </trkpt>
      <trkpt lat="45.94752" lon="4.7408">
        <ele>189</ele>
        <time>2017-06-28T09:40:39Z</time>
      </trkpt>
      <trkpt lat="45.94749" lon="4.74075">
        <ele>188</ele>
        <time>2017-06-28T09:40:40Z</time>
      </trkpt>
      <trkpt lat="45.94745" lon="4.7407">
        <ele>188</ele>
        <time>2017-06-28T09:40:41Z</time>
      </trkpt>
      <trkpt lat="45.94741" lon="4.74065">
        <ele>188</ele>
        <time>2017-06-28T09:40:42Z</time>
      </trkpt>
      <trkpt lat="45.94738" lon="4.74061">
        <ele>188</ele>
        <time>2017-06-28T09:40:43Z</time>
      </trkpt>
      <trkpt lat="45.94734" lon="4.74055">
        <ele>188</ele>
        <time>2017-06-28T09:40:44Z</time>
      </trkpt>
      <trkpt lat="45.94729" lon="4.7405">
        <ele>188</ele>
        <time>2017-06-28T09:40:45Z</time>
      </trkpt>
      <trkpt lat="45.94724" lon="4.74044">
        <ele>187</ele>
        <time>2017-06-28T09:40:46Z</time>
      </trkpt>
      <trkpt lat="45.9472" lon="4.74039">
        <ele>187</ele>
        <time>2017-06-28T09:40:47Z</time>
      </trkpt>
      <trkpt lat="45.94716" lon="4.74034">
        <ele>187</ele>
        <time>2017-06-28T09:40:48Z</time>
      </trkpt>
      <trkpt lat="45.94712" lon="4.74029">
        <ele>187</ele>
        <time>2017-06-28T09:40:49Z</time>
      </trkpt>
      <trkpt lat="45.94709" lon="4.74024">
        <ele>187</ele>
        <time>2017-06-28T09:40:50Z</time>
      </trkpt>
      <trkpt lat="45.94705" lon="4.74018">
        <ele>187</ele>
        <time>2017-06-28T09:40:51Z</time>
      </trkpt>
      <trkpt lat="45.94702" lon="4.74013">
        <ele>187</ele>
        <time>2017-06-28T09:40:52Z</time>
      </trkpt>
      <trkpt lat="45.94698" lon="4.74008">
        <ele>187</ele>
        <time>2017-06-28T09:40:53Z</time>
      </trkpt>
      <trkpt lat="45.94695" lon="4.74004">
        <ele>187</ele>
        <time>2017-06-28T09:40:54Z</time>
      </trkpt>
      <trkpt lat="45.94691" lon="4.73999">
        <ele>187</ele>
        <time>2017-06-28T09:40:55Z</time>
      </trkpt>
      <trkpt lat="45.94687" lon="4.73993">
        <ele>187</ele>
        <time>2017-06-28T09:40:56Z</time>
      </trkpt>
      <trkpt lat="45.94683" lon="4.73988">
        <ele>187</ele>
        <time>2017-06-28T09:40:57Z</time>
      </trkpt>
      <trkpt lat="45.94678" lon="4.73982">
        <ele>187</ele>
        <time>2017-06-28T09:40:58Z</time>
      </trkpt>
      <trkpt lat="45.94674" lon="4.73976">
        <ele>187</ele>
        <time>2017-06-28T09:40:59Z</time>
      </trkpt>
      <trkpt lat="45.94669" lon="4.7397">
        <ele>187</ele>
        <time>2017-06-28T09:41:00Z</time>
      </trkpt>
      <trkpt lat="45.94664" lon="4.73964">
        <ele>187</ele>
        <time>2017-06-28T09:41:01Z</time>
      </trkpt>
      <trkpt lat="45.94659" lon="4.73958">
        <ele>187</ele>
        <time>2017-06-28T09:41:02Z</time>
      </trkpt>
      <trkpt lat="45.94654" lon="4.73951">
        <ele>187</ele>
        <time>2017-06-28T09:41:03Z</time>
      </trkpt>
      <trkpt lat="45.94649" lon="4.73945">
        <ele>187</ele>
        <time>2017-06-28T09:41:04Z</time>
      </trkpt>
      <trkpt lat="45.94645" lon="4.73939">
        <ele>187</ele>
        <time>2017-06-28T09:41:05Z</time>
      </trkpt>
      <trkpt lat="45.9464" lon="4.73933">
        <ele>187</ele>
        <time>2017-06-28T09:41:06Z</time>
      </trkpt>
      <trkpt lat="45.94636" lon="4.73927">
        <ele>187</ele>
        <time>2017-06-28T09:41:07Z</time>
      </trkpt>
      <trkpt lat="45.94631" lon="4.73921">
        <ele>187</ele>
        <time>2017-06-28T09:41:08Z</time>
      </trkpt>
      <trkpt lat="45.94627" lon="4.73915">
        <ele>187</ele>
        <time>2017-06-28T09:41:09Z</time>
      </trkpt>
      <trkpt lat="45.94622" lon="4.73909">
        <ele>187</ele>
        <time>2017-06-28T09:41:10Z</time>
      </trkpt>
      <trkpt lat="45.94618" lon="4.73904">
        <ele>187</ele>
        <time>2017-06-28T09:41:11Z</time>
      </trkpt>
      <trkpt lat="45.94613" lon="4.73898">
        <ele>187</ele>
        <time>2017-06-28T09:41:12Z</time>
      </trkpt>
      <trkpt lat="45.94609" lon="4.73892">
        <ele>187</ele>
        <time>2017-06-28T09:41:13Z</time>
      </trkpt>
      <trkpt lat="45.94604" lon="4.73886">
        <ele>187</ele>
        <time>2017-06-28T09:41:14Z</time>
      </trkpt>
      <trkpt lat="45.946" lon="4.73881">
        <ele>187</ele>
        <time>2017-06-28T09:41:15Z</time>
      </trkpt>
      <trkpt lat="45.94595" lon="4.73876">
        <ele>187</ele>
        <time>2017-06-28T09:41:16Z</time>
      </trkpt>
      <trkpt lat="45.9459" lon="4.73871">
        <ele>187</ele>
        <time>2017-06-28T09:41:17Z</time>
      </trkpt>
      <trkpt lat="45.94585" lon="4.73866">
        <ele>187</ele>
        <time>2017-06-28T09:41:18Z</time>
      </trkpt>
      <trkpt lat="45.94581" lon="4.73861">
        <ele>186</ele>
        <time>2017-06-28T09:41:19Z</time>
      </trkpt>
      <trkpt lat="45.94577" lon="4.73855">
        <ele>186</ele>
        <time>2017-06-28T09:41:20Z</time>
      </trkpt>
      <trkpt lat="45.94573" lon="4.7385">
        <ele>186</ele>
        <time>2017-06-28T09:41:21Z</time>
      </trkpt>
      <trkpt lat="45.94569" lon="4.73845">
        <ele>186</ele>
        <time>2017-06-28T09:41:22Z</time>
      </trkpt>
      <trkpt lat="45.94564" lon="4.7384">
        <ele>186</ele>
        <time>2017-06-28T09:41:23Z</time>
      </trkpt>
      <trkpt lat="45.94559" lon="4.73836">
        <ele>186</ele>
        <time>2017-06-28T09:41:24Z</time>
      </trkpt>
      <trkpt lat="45.94554" lon="4.73831">
        <ele>186</ele>
        <time>2017-06-28T09:41:25Z</time>
      </trkpt>
      <trkpt lat="45.94549" lon="4.73825">
        <ele>186</ele>
        <time>2017-06-28T09:41:26Z</time>
      </trkpt>
      <trkpt lat="45.94544" lon="4.7382">
        <ele>186</ele>
        <time>2017-06-28T09:41:27Z</time>
      </trkpt>
      <trkpt lat="45.94539" lon="4.73815">
        <ele>186</ele>
        <time>2017-06-28T09:41:28Z</time>
      </trkpt>
      <trkpt lat="45.94534" lon="4.7381">
        <ele>186</ele>
        <time>2017-06-28T09:41:29Z</time>
      </trkpt>
      <trkpt lat="45.94528" lon="4.73805">
        <ele>186</ele>
        <time>2017-06-28T09:41:30Z</time>
      </trkpt>
      <trkpt lat="45.94523" lon="4.73799">
        <ele>186</ele>
        <time>2017-06-28T09:41:31Z</time>
      </trkpt>
      <trkpt lat="45.94517" lon="4.73794">
        <ele>186</ele>
        <time>2017-06-28T09:41:32Z</time>
      </trkpt>
      <trkpt lat="45.94513" lon="4.73787">
        <ele>186</ele>
        <time>2017-06-28T09:41:33Z</time>
      </trkpt>
      <trkpt lat="45.94508" lon="4.73782">
        <ele>186</ele>
        <time>2017-06-28T09:41:34Z</time>
      </trkpt>
      <trkpt lat="45.94503" lon="4.73776">
        <ele>186</ele>
        <time>2017-06-28T09:41:35Z</time>
      </trkpt>
      <trkpt lat="45.94498" lon="4.73771">
        <ele>186</ele>
        <time>2017-06-28T09:41:36Z</time>
      </trkpt>
      <trkpt lat="45.94493" lon="4.73763">
        <ele>186</ele>
        <time>2017-06-28T09:41:38Z</time>
      </trkpt>
      <trkpt lat="45.94491" lon="4.7376">
        <ele>186</ele>
        <time>2017-06-28T09:41:39Z</time>
      </trkpt>
      <trkpt lat="45.94488" lon="4.73751">
        <ele>186</ele>
        <time>2017-06-28T09:41:41Z</time>
      </trkpt>
      <trkpt lat="45.94486" lon="4.73746">
        <ele>186</ele>
        <time>2017-06-28T09:41:42Z</time>
      </trkpt>
      <trkpt lat="45.94486" lon="4.73739">
        <ele>186</ele>
        <time>2017-06-28T09:41:43Z</time>
      </trkpt>
      <trkpt lat="45.94486" lon="4.73731">
        <ele>186</ele>
        <time>2017-06-28T09:41:44Z</time>
      </trkpt>
      <trkpt lat="45.94486" lon="4.73724">
        <ele>186</ele>
        <time>2017-06-28T09:41:45Z</time>
      </trkpt>
      <trkpt lat="45.94488" lon="4.73716">
        <ele>186</ele>
        <time>2017-06-28T09:41:46Z</time>
      </trkpt>
      <trkpt lat="45.9449" lon="4.73708">
        <ele>186</ele>
        <time>2017-06-28T09:41:47Z</time>
      </trkpt>
      <trkpt lat="45.94491" lon="4.73699">
        <ele>186</ele>
        <time>2017-06-28T09:41:48Z</time>
      </trkpt>
      <trkpt lat="45.94492" lon="4.7369">
        <ele>186</ele>
        <time>2017-06-28T09:41:49Z</time>
      </trkpt>
      <trkpt lat="45.94493" lon="4.7368">
        <ele>185</ele>
        <time>2017-06-28T09:41:50Z</time>
      </trkpt>
      <trkpt lat="45.94495" lon="4.73671">
        <ele>185</ele>
        <time>2017-06-28T09:41:51Z</time>
      </trkpt>
      <trkpt lat="45.94497" lon="4.73661">
        <ele>185</ele>
        <time>2017-06-28T09:41:52Z</time>
      </trkpt>
      <trkpt lat="45.94498" lon="4.73651">
        <ele>185</ele>
        <time>2017-06-28T09:41:53Z</time>
      </trkpt>
      <trkpt lat="45.94499" lon="4.73641">
        <ele>186</ele>
        <time>2017-06-28T09:41:54Z</time>
      </trkpt>
      <trkpt lat="45.94501" lon="4.73631">
        <ele>184</ele>
        <time>2017-06-28T09:41:55Z</time>
      </trkpt>
      <trkpt lat="45.94502" lon="4.73621">
        <ele>184</ele>
        <time>2017-06-28T09:41:56Z</time>
      </trkpt>
      <trkpt lat="45.94503" lon="4.73612">
        <ele>184</ele>
        <time>2017-06-28T09:41:57Z</time>
      </trkpt>
      <trkpt lat="45.94504" lon="4.73602">
        <ele>184</ele>
        <time>2017-06-28T09:41:58Z</time>
      </trkpt>
      <trkpt lat="45.94504" lon="4.73592">
        <ele>185</ele>
        <time>2017-06-28T09:41:59Z</time>
      </trkpt>
      <trkpt lat="45.94504" lon="4.73582">
        <ele>185</ele>
        <time>2017-06-28T09:42:00Z</time>
      </trkpt>
      <trkpt lat="45.94505" lon="4.73571">
        <ele>184</ele>
        <time>2017-06-28T09:42:01Z</time>
      </trkpt>
      <trkpt lat="45.94505" lon="4.73561">
        <ele>184</ele>
        <time>2017-06-28T09:42:02Z</time>
      </trkpt>
      <trkpt lat="45.94506" lon="4.7355">
        <ele>183</ele>
        <time>2017-06-28T09:42:03Z</time>
      </trkpt>
      <trkpt lat="45.94507" lon="4.7354">
        <ele>183</ele>
        <time>2017-06-28T09:42:04Z</time>
      </trkpt>
      <trkpt lat="45.94507" lon="4.73529">
        <ele>183</ele>
        <time>2017-06-28T09:42:05Z</time>
      </trkpt>
      <trkpt lat="45.94507" lon="4.73517">
        <ele>183</ele>
        <time>2017-06-28T09:42:06Z</time>
      </trkpt>
      <trkpt lat="45.94507" lon="4.73506">
        <ele>183</ele>
        <time>2017-06-28T09:42:07Z</time>
      </trkpt>
      <trkpt lat="45.94507" lon="4.73495">
        <ele>182</ele>
        <time>2017-06-28T09:42:08Z</time>
      </trkpt>
      <trkpt lat="45.94508" lon="4.73484">
        <ele>182</ele>
        <time>2017-06-28T09:42:09Z</time>
      </trkpt>
      <trkpt lat="45.94508" lon="4.73473">
        <ele>182</ele>
        <time>2017-06-28T09:42:10Z</time>
      </trkpt>
      <trkpt lat="45.94508" lon="4.73461">
        <ele>181</ele>
        <time>2017-06-28T09:42:11Z</time>
      </trkpt>
      <trkpt lat="45.94508" lon="4.7345">
        <ele>181</ele>
        <time>2017-06-28T09:42:12Z</time>
      </trkpt>
      <trkpt lat="45.94507" lon="4.73438">
        <ele>181</ele>
        <time>2017-06-28T09:42:13Z</time>
      </trkpt>
      <trkpt lat="45.94507" lon="4.73426">
        <ele>180</ele>
        <time>2017-06-28T09:42:14Z</time>
      </trkpt>
      <trkpt lat="45.94506" lon="4.73414">
        <ele>180</ele>
        <time>2017-06-28T09:42:15Z</time>
      </trkpt>
      <trkpt lat="45.94505" lon="4.73402">
        <ele>179</ele>
        <time>2017-06-28T09:42:16Z</time>
      </trkpt>
      <trkpt lat="45.94504" lon="4.73389">
        <ele>179</ele>
        <time>2017-06-28T09:42:17Z</time>
      </trkpt>
      <trkpt lat="45.94503" lon="4.73377">
        <ele>178</ele>
        <time>2017-06-28T09:42:18Z</time>
      </trkpt>
      <trkpt lat="45.94502" lon="4.73365">
        <ele>178</ele>
        <time>2017-06-28T09:42:19Z</time>
      </trkpt>
      <trkpt lat="45.945" lon="4.73353">
        <ele>178</ele>
        <time>2017-06-28T09:42:20Z</time>
      </trkpt>
      <trkpt lat="45.94499" lon="4.73341">
        <ele>178</ele>
        <time>2017-06-28T09:42:21Z</time>
      </trkpt>
      <trkpt lat="45.94497" lon="4.73329">
        <ele>177</ele>
        <time>2017-06-28T09:42:22Z</time>
      </trkpt>
      <trkpt lat="45.94496" lon="4.73316">
        <ele>177</ele>
        <time>2017-06-28T09:42:23Z</time>
      </trkpt>
      <trkpt lat="45.94494" lon="4.73304">
        <ele>177</ele>
        <time>2017-06-28T09:42:24Z</time>
      </trkpt>
      <trkpt lat="45.94492" lon="4.73291">
        <ele>177</ele>
        <time>2017-06-28T09:42:25Z</time>
      </trkpt>
      <trkpt lat="45.9449" lon="4.73279">
        <ele>177</ele>
        <time>2017-06-28T09:42:26Z</time>
      </trkpt>
      <trkpt lat="45.94489" lon="4.73267">
        <ele>177</ele>
        <time>2017-06-28T09:42:27Z</time>
      </trkpt>
      <trkpt lat="45.94487" lon="4.73255">
        <ele>176</ele>
        <time>2017-06-28T09:42:28Z</time>
      </trkpt>
      <trkpt lat="45.94485" lon="4.73243">
        <ele>175</ele>
        <time>2017-06-28T09:42:29Z</time>
      </trkpt>
      <trkpt lat="45.94483" lon="4.7323">
        <ele>175</ele>
        <time>2017-06-28T09:42:30Z</time>
      </trkpt>
      <trkpt lat="45.94481" lon="4.73218">
        <ele>175</ele>
        <time>2017-06-28T09:42:31Z</time>
      </trkpt>
      <trkpt lat="45.94479" lon="4.73205">
        <ele>175</ele>
        <time>2017-06-28T09:42:32Z</time>
      </trkpt>
      <trkpt lat="45.94478" lon="4.73193">
        <ele>174</ele>
        <time>2017-06-28T09:42:33Z</time>
      </trkpt>
      <trkpt lat="45.94477" lon="4.7318">
        <ele>174</ele>
        <time>2017-06-28T09:42:34Z</time>
      </trkpt>
      <trkpt lat="45.94475" lon="4.73167">
        <ele>174</ele>
        <time>2017-06-28T09:42:35Z</time>
      </trkpt>
      <trkpt lat="45.94473" lon="4.73155">
        <ele>172</ele>
        <time>2017-06-28T09:42:36Z</time>
      </trkpt>
      <trkpt lat="45.94471" lon="4.73143">
        <ele>172</ele>
        <time>2017-06-28T09:42:37Z</time>
      </trkpt>
      <trkpt lat="45.9447" lon="4.73131">
        <ele>172</ele>
        <time>2017-06-28T09:42:38Z</time>
      </trkpt>
      <trkpt lat="45.94468" lon="4.7312">
        <ele>172</ele>
        <time>2017-06-28T09:42:39Z</time>
      </trkpt>
      <trkpt lat="45.94467" lon="4.73108">
        <ele>172</ele>
        <time>2017-06-28T09:42:40Z</time>
      </trkpt>
      <trkpt lat="45.94465" lon="4.73097">
        <ele>172</ele>
        <time>2017-06-28T09:42:41Z</time>
      </trkpt>
      <trkpt lat="45.94463" lon="4.73087">
        <ele>171</ele>
        <time>2017-06-28T09:42:42Z</time>
      </trkpt>
      <trkpt lat="45.94461" lon="4.73076">
        <ele>170</ele>
        <time>2017-06-28T09:42:43Z</time>
      </trkpt>
      <trkpt lat="45.94459" lon="4.73066">
        <ele>170</ele>
        <time>2017-06-28T09:42:44Z</time>
      </trkpt>
      <trkpt lat="45.94457" lon="4.73056">
        <ele>170</ele>
        <time>2017-06-28T09:42:45Z</time>
      </trkpt>
      <trkpt lat="45.94455" lon="4.73046">
        <ele>169</ele>
        <time>2017-06-28T09:42:46Z</time>
      </trkpt>
      <trkpt lat="45.94454" lon="4.73037">
        <ele>169</ele>
        <time>2017-06-28T09:42:47Z</time>
      </trkpt>
      <trkpt lat="45.94453" lon="4.73029">
        <ele>169</ele>
        <time>2017-06-28T09:42:48Z</time>
      </trkpt>
      <trkpt lat="45.94451" lon="4.7302">
        <ele>169</ele>
        <time>2017-06-28T09:42:49Z</time>
      </trkpt>
      <trkpt lat="45.9445" lon="4.73012">
        <ele>169</ele>
        <time>2017-06-28T09:42:50Z</time>
      </trkpt>
      <trkpt lat="45.94449" lon="4.73003">
        <ele>169</ele>
        <time>2017-06-28T09:42:51Z</time>
      </trkpt>
      <trkpt lat="45.94448" lon="4.72994">
        <ele>167</ele>
        <time>2017-06-28T09:42:52Z</time>
      </trkpt>
      <trkpt lat="45.94447" lon="4.72986">
        <ele>167</ele>
        <time>2017-06-28T09:42:53Z</time>
      </trkpt>
      <trkpt lat="45.94447" lon="4.72977">
        <ele>167</ele>
        <time>2017-06-28T09:42:54Z</time>
      </trkpt>
      <trkpt lat="45.94445" lon="4.72968">
        <ele>167</ele>
        <time>2017-06-28T09:42:55Z</time>
      </trkpt>
      <trkpt lat="45.94444" lon="4.72959">
        <ele>167</ele>
        <time>2017-06-28T09:42:56Z</time>
      </trkpt>
      <trkpt lat="45.94442" lon="4.72951">
        <ele>167</ele>
        <time>2017-06-28T09:42:57Z</time>
      </trkpt>
      <trkpt lat="45.94441" lon="4.72942">
        <ele>167</ele>
        <time>2017-06-28T09:42:58Z</time>
      </trkpt>
      <trkpt lat="45.9444" lon="4.72933">
        <ele>167</ele>
        <time>2017-06-28T09:42:59Z</time>
      </trkpt>
      <trkpt lat="45.94439" lon="4.72924">
        <ele>167</ele>
        <time>2017-06-28T09:43:00Z</time>
      </trkpt>
      <trkpt lat="45.94438" lon="4.72915">
        <ele>166</ele>
        <time>2017-06-28T09:43:01Z</time>
      </trkpt>
      <trkpt lat="45.94438" lon="4.72907">
        <ele>166</ele>
        <time>2017-06-28T09:43:02Z</time>
      </trkpt>
      <trkpt lat="45.94437" lon="4.72899">
        <ele>166</ele>
        <time>2017-06-28T09:43:03Z</time>
      </trkpt>
      <trkpt lat="45.94436" lon="4.7289">
        <ele>166</ele>
        <time>2017-06-28T09:43:04Z</time>
      </trkpt>
      <trkpt lat="45.94435" lon="4.72883">
        <ele>166</ele>
        <time>2017-06-28T09:43:05Z</time>
      </trkpt>
      <trkpt lat="45.94435" lon="4.72875">
        <ele>166</ele>
        <time>2017-06-28T09:43:06Z</time>
      </trkpt>
      <trkpt lat="45.94434" lon="4.72867">
        <ele>166</ele>
        <time>2017-06-28T09:43:07Z</time>
      </trkpt>
      <trkpt lat="45.94433" lon="4.72859">
        <ele>166</ele>
        <time>2017-06-28T09:43:08Z</time>
      </trkpt>
      <trkpt lat="45.94432" lon="4.7285">
        <ele>166</ele>
        <time>2017-06-28T09:43:09Z</time>
      </trkpt>
      <trkpt lat="45.94431" lon="4.72842">
        <ele>166</ele>
        <time>2017-06-28T09:43:10Z</time>
      </trkpt>
      <trkpt lat="45.9443" lon="4.72833">
        <ele>167</ele>
        <time>2017-06-28T09:43:11Z</time>
      </trkpt>
      <trkpt lat="45.94429" lon="4.72824">
        <ele>167</ele>
        <time>2017-06-28T09:43:12Z</time>
      </trkpt>
      <trkpt lat="45.94428" lon="4.72814">
        <ele>167</ele>
        <time>2017-06-28T09:43:13Z</time>
      </trkpt>
      <trkpt lat="45.94427" lon="4.72804">
        <ele>167</ele>
        <time>2017-06-28T09:43:14Z</time>
      </trkpt>
      <trkpt lat="45.94426" lon="4.72794">
        <ele>168</ele>
        <time>2017-06-28T09:43:15Z</time>
      </trkpt>
      <trkpt lat="45.94425" lon="4.72784">
        <ele>168</ele>
        <time>2017-06-28T09:43:16Z</time>
      </trkpt>
      <trkpt lat="45.94424" lon="4.72774">
        <ele>169</ele>
        <time>2017-06-28T09:43:17Z</time>
      </trkpt>
      <trkpt lat="45.94423" lon="4.72764">
        <ele>169</ele>
        <time>2017-06-28T09:43:18Z</time>
      </trkpt>
      <trkpt lat="45.94421" lon="4.72754">
        <ele>170</ele>
        <time>2017-06-28T09:43:19Z</time>
      </trkpt>
      <trkpt lat="45.9442" lon="4.72744">
        <ele>171</ele>
        <time>2017-06-28T09:43:20Z</time>
      </trkpt>
      <trkpt lat="45.94419" lon="4.72734">
        <ele>171</ele>
        <time>2017-06-28T09:43:21Z</time>
      </trkpt>
      <trkpt lat="45.94418" lon="4.72725">
        <ele>171</ele>
        <time>2017-06-28T09:43:22Z</time>
      </trkpt>
      <trkpt lat="45.94417" lon="4.72716">
        <ele>172</ele>
        <time>2017-06-28T09:43:23Z</time>
      </trkpt>
      <trkpt lat="45.94415" lon="4.72707">
        <ele>172</ele>
        <time>2017-06-28T09:43:24Z</time>
      </trkpt>
      <trkpt lat="45.94414" lon="4.72698">
        <ele>172</ele>
        <time>2017-06-28T09:43:25Z</time>
      </trkpt>
      <trkpt lat="45.94413" lon="4.72688">
        <ele>173</ele>
        <time>2017-06-28T09:43:26Z</time>
      </trkpt>
      <trkpt lat="45.94412" lon="4.7268">
        <ele>173</ele>
        <time>2017-06-28T09:43:27Z</time>
      </trkpt>
      <trkpt lat="45.9441" lon="4.72671">
        <ele>173</ele>
        <time>2017-06-28T09:43:28Z</time>
      </trkpt>
      <trkpt lat="45.94409" lon="4.72661">
        <ele>174</ele>
        <time>2017-06-28T09:43:29Z</time>
      </trkpt>
      <trkpt lat="45.94408" lon="4.72652">
        <ele>174</ele>
        <time>2017-06-28T09:43:30Z</time>
      </trkpt>
      <trkpt lat="45.94406" lon="4.72643">
        <ele>174</ele>
        <time>2017-06-28T09:43:31Z</time>
      </trkpt>
      <trkpt lat="45.94406" lon="4.72634">
        <ele>174</ele>
        <time>2017-06-28T09:43:32Z</time>
      </trkpt>
      <trkpt lat="45.94405" lon="4.72625">
        <ele>174</ele>
        <time>2017-06-28T09:43:33Z</time>
      </trkpt>
      <trkpt lat="45.94404" lon="4.72616">
        <ele>173</ele>
        <time>2017-06-28T09:43:34Z</time>
      </trkpt>
      <trkpt lat="45.94402" lon="4.72606">
        <ele>173</ele>
        <time>2017-06-28T09:43:35Z</time>
      </trkpt>
      <trkpt lat="45.94401" lon="4.72596">
        <ele>173</ele>
        <time>2017-06-28T09:43:36Z</time>
      </trkpt>
      <trkpt lat="45.94399" lon="4.72587">
        <ele>173</ele>
        <time>2017-06-28T09:43:37Z</time>
      </trkpt>
      <trkpt lat="45.94397" lon="4.72577">
        <ele>173</ele>
        <time>2017-06-28T09:43:38Z</time>
      </trkpt>
      <trkpt lat="45.94395" lon="4.72567">
        <ele>173</ele>
        <time>2017-06-28T09:43:39Z</time>
      </trkpt>
      <trkpt lat="45.94393" lon="4.72557">
        <ele>173</ele>
        <time>2017-06-28T09:43:40Z</time>
      </trkpt>
      <trkpt lat="45.94392" lon="4.72547">
        <ele>173</ele>
        <time>2017-06-28T09:43:41Z</time>
      </trkpt>
      <trkpt lat="45.9439" lon="4.72538">
        <ele>174</ele>
        <time>2017-06-28T09:43:42Z</time>
      </trkpt>
      <trkpt lat="45.94387" lon="4.72529">
        <ele>174</ele>
        <time>2017-06-28T09:43:43Z</time>
      </trkpt>
      <trkpt lat="45.94383" lon="4.72519">
        <ele>174</ele>
        <time>2017-06-28T09:43:44Z</time>
      </trkpt>
      <trkpt lat="45.9438" lon="4.72511">
        <ele>174</ele>
        <time>2017-06-28T09:43:45Z</time>
      </trkpt>
      <trkpt lat="45.94377" lon="4.72503">
        <ele>174</ele>
        <time>2017-06-28T09:43:46Z</time>
      </trkpt>
      <trkpt lat="45.94375" lon="4.72495">
        <ele>173</ele>
        <time>2017-06-28T09:43:47Z</time>
      </trkpt>
      <trkpt lat="45.94373" lon="4.72488">
        <ele>173</ele>
        <time>2017-06-28T09:43:48Z</time>
      </trkpt>
      <trkpt lat="45.9437" lon="4.72481">
        <ele>173</ele>
        <time>2017-06-28T09:43:49Z</time>
      </trkpt>
      <trkpt lat="45.94368" lon="4.72474">
        <ele>173</ele>
        <time>2017-06-28T09:43:50Z</time>
      </trkpt>
      <trkpt lat="45.94366" lon="4.72468">
        <ele>173</ele>
        <time>2017-06-28T09:43:51Z</time>
      </trkpt>
      <trkpt lat="45.94364" lon="4.72462">
        <ele>173</ele>
        <time>2017-06-28T09:43:52Z</time>
      </trkpt>
      <trkpt lat="45.94361" lon="4.72456">
        <ele>173</ele>
        <time>2017-06-28T09:43:53Z</time>
      </trkpt>
      <trkpt lat="45.94358" lon="4.7245">
        <ele>173</ele>
        <time>2017-06-28T09:43:54Z</time>
      </trkpt>
      <trkpt lat="45.94356" lon="4.72443">
        <ele>173</ele>
        <time>2017-06-28T09:43:55Z</time>
      </trkpt>
      <trkpt lat="45.94353" lon="4.72436">
        <ele>173</ele>
        <time>2017-06-28T09:43:56Z</time>
      </trkpt>
      <trkpt lat="45.9435" lon="4.72429">
        <ele>173</ele>
        <time>2017-06-28T09:43:57Z</time>
      </trkpt>
      <trkpt lat="45.94348" lon="4.72422">
        <ele>173</ele>
        <time>2017-06-28T09:43:58Z</time>
      </trkpt>
      <trkpt lat="45.94345" lon="4.72416">
        <ele>173</ele>
        <time>2017-06-28T09:43:59Z</time>
      </trkpt>
      <trkpt lat="45.94342" lon="4.7241">
        <ele>173</ele>
        <time>2017-06-28T09:44:00Z</time>
      </trkpt>
      <trkpt lat="45.94339" lon="4.72404">
        <ele>173</ele>
        <time>2017-06-28T09:44:01Z</time>
      </trkpt>
      <trkpt lat="45.94335" lon="4.72397">
        <ele>172</ele>
        <time>2017-06-28T09:44:02Z</time>
      </trkpt>
      <trkpt lat="45.94332" lon="4.7239">
        <ele>172</ele>
        <time>2017-06-28T09:44:03Z</time>
      </trkpt>
      <trkpt lat="45.94329" lon="4.72384">
        <ele>172</ele>
        <time>2017-06-28T09:44:04Z</time>
      </trkpt>
      <trkpt lat="45.94326" lon="4.72378">
        <ele>172</ele>
        <time>2017-06-28T09:44:05Z</time>
      </trkpt>
      <trkpt lat="45.94323" lon="4.72371">
        <ele>172</ele>
        <time>2017-06-28T09:44:06Z</time>
      </trkpt>
      <trkpt lat="45.94321" lon="4.72365">
        <ele>172</ele>
        <time>2017-06-28T09:44:07Z</time>
      </trkpt>
      <trkpt lat="45.94319" lon="4.72359">
        <ele>172</ele>
        <time>2017-06-28T09:44:08Z</time>
      </trkpt>
      <trkpt lat="45.94316" lon="4.72352">
        <ele>172</ele>
        <time>2017-06-28T09:44:09Z</time>
      </trkpt>
      <trkpt lat="45.94314" lon="4.72346">
        <ele>172</ele>
        <time>2017-06-28T09:44:10Z</time>
      </trkpt>
      <trkpt lat="45.94312" lon="4.72341">
        <ele>172</ele>
        <time>2017-06-28T09:44:11Z</time>
      </trkpt>
      <trkpt lat="45.94308" lon="4.72332">
        <ele>172</ele>
        <time>2017-06-28T09:44:13Z</time>
      </trkpt>
      <trkpt lat="45.94306" lon="4.72327">
        <ele>171</ele>
        <time>2017-06-28T09:44:14Z</time>
      </trkpt>
      <trkpt lat="45.94303" lon="4.72322">
        <ele>171</ele>
        <time>2017-06-28T09:44:15Z</time>
      </trkpt>
      <trkpt lat="45.943" lon="4.72317">
        <ele>171</ele>
        <time>2017-06-28T09:44:16Z</time>
      </trkpt>
      <trkpt lat="45.94297" lon="4.72311">
        <ele>171</ele>
        <time>2017-06-28T09:44:17Z</time>
      </trkpt>
      <trkpt lat="45.94293" lon="4.72305">
        <ele>171</ele>
        <time>2017-06-28T09:44:18Z</time>
      </trkpt>
      <trkpt lat="45.94291" lon="4.72299">
        <ele>171</ele>
        <time>2017-06-28T09:44:19Z</time>
      </trkpt>
      <trkpt lat="45.94287" lon="4.72292">
        <ele>171</ele>
        <time>2017-06-28T09:44:20Z</time>
      </trkpt>
      <trkpt lat="45.94284" lon="4.72285">
        <ele>171</ele>
        <time>2017-06-28T09:44:21Z</time>
      </trkpt>
      <trkpt lat="45.94281" lon="4.7228">
        <ele>171</ele>
        <time>2017-06-28T09:44:22Z</time>
      </trkpt>
      <trkpt lat="45.94277" lon="4.72275">
        <ele>171</ele>
        <time>2017-06-28T09:44:23Z</time>
      </trkpt>
      <trkpt lat="45.94271" lon="4.72274">
        <ele>171</ele>
        <time>2017-06-28T09:44:24Z</time>
      </trkpt>
      <trkpt lat="45.94266" lon="4.72275">
        <ele>171</ele>
        <time>2017-06-28T09:44:25Z</time>
      </trkpt>
      <trkpt lat="45.94261" lon="4.72275">
        <ele>171</ele>
        <time>2017-06-28T09:44:26Z</time>
      </trkpt>
      <trkpt lat="45.94255" lon="4.72276">
        <ele>171</ele>
        <time>2017-06-28T09:44:27Z</time>
      </trkpt>
      <trkpt lat="45.9425" lon="4.72277">
        <ele>171</ele>
        <time>2017-06-28T09:44:28Z</time>
      </trkpt>
      <trkpt lat="45.94244" lon="4.7228">
        <ele>171</ele>
        <time>2017-06-28T09:44:29Z</time>
      </trkpt>
      <trkpt lat="45.94238" lon="4.72282">
        <ele>171</ele>
        <time>2017-06-28T09:44:30Z</time>
      </trkpt>
      <trkpt lat="45.94232" lon="4.72284">
        <ele>171</ele>
        <time>2017-06-28T09:44:31Z</time>
      </trkpt>
      <trkpt lat="45.94225" lon="4.72286">
        <ele>171</ele>
        <time>2017-06-28T09:44:32Z</time>
      </trkpt>
      <trkpt lat="45.94219" lon="4.72288">
        <ele>171</ele>
        <time>2017-06-28T09:44:33Z</time>
      </trkpt>
      <trkpt lat="45.94212" lon="4.72288">
        <ele>171</ele>
        <time>2017-06-28T09:44:34Z</time>
      </trkpt>
      <trkpt lat="45.94206" lon="4.72288">
        <ele>171</ele>
        <time>2017-06-28T09:44:35Z</time>
      </trkpt>
      <trkpt lat="45.942" lon="4.72288">
        <ele>171</ele>
        <time>2017-06-28T09:44:36Z</time>
      </trkpt>
      <trkpt lat="45.94194" lon="4.72288">
        <ele>171</ele>
        <time>2017-06-28T09:44:37Z</time>
      </trkpt>
      <trkpt lat="45.94188" lon="4.72288">
        <ele>171</ele>
        <time>2017-06-28T09:44:38Z</time>
      </trkpt>
      <trkpt lat="45.94183" lon="4.72288">
        <ele>171</ele>
        <time>2017-06-28T09:44:39Z</time>
      </trkpt>
      <trkpt lat="45.94177" lon="4.72287">
        <ele>171</ele>
        <time>2017-06-28T09:44:40Z</time>
      </trkpt>
      <trkpt lat="45.94172" lon="4.72287">
        <ele>171</ele>
        <time>2017-06-28T09:44:41Z</time>
      </trkpt>
      <trkpt lat="45.94167" lon="4.72286">
        <ele>171</ele>
        <time>2017-06-28T09:44:42Z</time>
      </trkpt>
      <trkpt lat="45.94162" lon="4.72287">
        <ele>171</ele>
        <time>2017-06-28T09:44:43Z</time>
      </trkpt>
      <trkpt lat="45.94157" lon="4.72286">
        <ele>171</ele>
        <time>2017-06-28T09:44:44Z</time>
      </trkpt>
      <trkpt lat="45.94152" lon="4.72286">
        <ele>171</ele>
        <time>2017-06-28T09:44:45Z</time>
      </trkpt>
      <trkpt lat="45.94148" lon="4.72284">
        <ele>171</ele>
        <time>2017-06-28T09:44:46Z</time>
      </trkpt>
      <trkpt lat="45.94139" lon="4.7228">
        <ele>171</ele>
        <time>2017-06-28T09:44:48Z</time>
      </trkpt>
      <trkpt lat="45.94136" lon="4.72278">
        <ele>171</ele>
        <time>2017-06-28T09:44:49Z</time>
      </trkpt>
      <trkpt lat="45.94132" lon="4.72275">
        <ele>171</ele>
        <time>2017-06-28T09:44:50Z</time>
      </trkpt>
      <trkpt lat="45.94128" lon="4.72272">
        <ele>171</ele>
        <time>2017-06-28T09:44:51Z</time>
      </trkpt>
      <trkpt lat="45.94119" lon="4.72267">
        <ele>171</ele>
        <time>2017-06-28T09:44:53Z</time>
      </trkpt>
      <trkpt lat="45.94115" lon="4.72265">
        <ele>171</ele>
        <time>2017-06-28T09:44:54Z</time>
      </trkpt>
      <trkpt lat="45.94111" lon="4.72264">
        <ele>171</ele>
        <time>2017-06-28T09:44:55Z</time>
      </trkpt>
      <trkpt lat="45.94106" lon="4.72263">
        <ele>171</ele>
        <time>2017-06-28T09:44:56Z</time>
      </trkpt>
      <trkpt lat="45.94101" lon="4.72263">
        <ele>171</ele>
        <time>2017-06-28T09:44:57Z</time>
      </trkpt>
      <trkpt lat="45.94097" lon="4.72264">
        <ele>171</ele>
        <time>2017-06-28T09:44:58Z</time>
      </trkpt>
      <trkpt lat="45.94092" lon="4.72264">
        <ele>171</ele>
        <time>2017-06-28T09:44:59Z</time>
      </trkpt>
      <trkpt lat="45.94087" lon="4.72264">
        <ele>171</ele>
        <time>2017-06-28T09:45:00Z</time>
      </trkpt>
      <trkpt lat="45.94082" lon="4.72266">
        <ele>171</ele>
        <time>2017-06-28T09:45:01Z</time>
      </trkpt>
      <trkpt lat="45.94077" lon="4.72269">
        <ele>171</ele>
        <time>2017-06-28T09:45:02Z</time>
      </trkpt>
      <trkpt lat="45.94073" lon="4.72273">
        <ele>171</ele>
        <time>2017-06-28T09:45:03Z</time>
      </trkpt>
      <trkpt lat="45.94068" lon="4.72277">
        <ele>171</ele>
        <time>2017-06-28T09:45:04Z</time>
      </trkpt>
      <trkpt lat="45.94063" lon="4.72282">
        <ele>171</ele>
        <time>2017-06-28T09:45:05Z</time>
      </trkpt>
      <trkpt lat="45.94058" lon="4.72287">
        <ele>171</ele>
        <time>2017-06-28T09:45:06Z</time>
      </trkpt>
      <trkpt lat="45.94054" lon="4.72292">
        <ele>171</ele>
        <time>2017-06-28T09:45:07Z</time>
      </trkpt>
      <trkpt lat="45.9405" lon="4.72297">
        <ele>171</ele>
        <time>2017-06-28T09:45:08Z</time>
      </trkpt>
      <trkpt lat="45.94045" lon="4.72302">
        <ele>171</ele>
        <time>2017-06-28T09:45:09Z</time>
      </trkpt>
      <trkpt lat="45.94041" lon="4.72307">
        <ele>171</ele>
        <time>2017-06-28T09:45:10Z</time>
      </trkpt>
      <trkpt lat="45.94037" lon="4.72312">
        <ele>171</ele>
        <time>2017-06-28T09:45:11Z</time>
      </trkpt>
      <trkpt lat="45.94032" lon="4.72317">
        <ele>171</ele>
        <time>2017-06-28T09:45:12Z</time>
      </trkpt>
      <trkpt lat="45.94028" lon="4.72322">
        <ele>171</ele>
        <time>2017-06-28T09:45:13Z</time>
      </trkpt>
      <trkpt lat="45.94023" lon="4.72328">
        <ele>171</ele>
        <time>2017-06-28T09:45:14Z</time>
      </trkpt>
      <trkpt lat="45.94019" lon="4.72335">
        <ele>171</ele>
        <time>2017-06-28T09:45:15Z</time>
      </trkpt>
      <trkpt lat="45.94014" lon="4.72341">
        <ele>171</ele>
        <time>2017-06-28T09:45:16Z</time>
      </trkpt>
      <trkpt lat="45.94009" lon="4.72347">
        <ele>171</ele>
        <time>2017-06-28T09:45:17Z</time>
      </trkpt>
      <trkpt lat="45.94005" lon="4.72352">
        <ele>171</ele>
        <time>2017-06-28T09:45:18Z</time>
      </trkpt>
      <trkpt lat="45.94" lon="4.72358">
        <ele>171</ele>
        <time>2017-06-28T09:45:19Z</time>
      </trkpt>
      <trkpt lat="45.93995" lon="4.72363">
        <ele>171</ele>
        <time>2017-06-28T09:45:20Z</time>
      </trkpt>
      <trkpt lat="45.9399" lon="4.72369">
        <ele>171</ele>
        <time>2017-06-28T09:45:21Z</time>
      </trkpt>
      <trkpt lat="45.93985" lon="4.72376">
        <ele>171</ele>
        <time>2017-06-28T09:45:22Z</time>
      </trkpt>
      <trkpt lat="45.93981" lon="4.72382">
        <ele>171</ele>
        <time>2017-06-28T09:45:23Z</time>
      </trkpt>
      <trkpt lat="45.93976" lon="4.72387">
        <ele>171</ele>
        <time>2017-06-28T09:45:24Z</time>
      </trkpt>
      <trkpt lat="45.93972" lon="4.72392">
        <ele>171</ele>
        <time>2017-06-28T09:45:25Z</time>
      </trkpt>
      <trkpt lat="45.93968" lon="4.72397">
        <ele>171</ele>
        <time>2017-06-28T09:45:26Z</time>
      </trkpt>
      <trkpt lat="45.93964" lon="4.72402">
        <ele>171</ele>
        <time>2017-06-28T09:45:27Z</time>
      </trkpt>
      <trkpt lat="45.9396" lon="4.72406">
        <ele>171</ele>
        <time>2017-06-28T09:45:28Z</time>
      </trkpt>
      <trkpt lat="45.93955" lon="4.72412">
        <ele>171</ele>
        <time>2017-06-28T09:45:29Z</time>
      </trkpt>
      <trkpt lat="45.93951" lon="4.72417">
        <ele>171</ele>
        <time>2017-06-28T09:45:30Z</time>
      </trkpt>
      <trkpt lat="45.93946" lon="4.72423">
        <ele>171</ele>
        <time>2017-06-28T09:45:31Z</time>
      </trkpt>
      <trkpt lat="45.93941" lon="4.72429">
        <ele>171</ele>
        <time>2017-06-28T09:45:32Z</time>
      </trkpt>
      <trkpt lat="45.93937" lon="4.72435">
        <ele>171</ele>
        <time>2017-06-28T09:45:33Z</time>
      </trkpt>
      <trkpt lat="45.93932" lon="4.72441">
        <ele>171</ele>
        <time>2017-06-28T09:45:34Z</time>
      </trkpt>
      <trkpt lat="45.93927" lon="4.72447">
        <ele>171</ele>
        <time>2017-06-28T09:45:35Z</time>
      </trkpt>
      <trkpt lat="45.93922" lon="4.72453">
        <ele>171</ele>
        <time>2017-06-28T09:45:36Z</time>
      </trkpt>
      <trkpt lat="45.93917" lon="4.72459">
        <ele>171</ele>
        <time>2017-06-28T09:45:37Z</time>
      </trkpt>
      <trkpt lat="45.93913" lon="4.72465">
        <ele>172</ele>
        <time>2017-06-28T09:45:38Z</time>
      </trkpt>
      <trkpt lat="45.93909" lon="4.7247">
        <ele>172</ele>
        <time>2017-06-28T09:45:39Z</time>
      </trkpt>
      <trkpt lat="45.93906" lon="4.72475">
        <ele>172</ele>
        <time>2017-06-28T09:45:40Z</time>
      </trkpt>
      <trkpt lat="45.93903" lon="4.72479">
        <ele>172</ele>
        <time>2017-06-28T09:45:41Z</time>
      </trkpt>
      <trkpt lat="45.93899" lon="4.72484">
        <ele>172</ele>
        <time>2017-06-28T09:45:42Z</time>
      </trkpt>
      <trkpt lat="45.93895" lon="4.72489">
        <ele>172</ele>
        <time>2017-06-28T09:45:43Z</time>
      </trkpt>
      <trkpt lat="45.93892" lon="4.72493">
        <ele>172</ele>
        <time>2017-06-28T09:45:44Z</time>
      </trkpt>
      <trkpt lat="45.93888" lon="4.72498">
        <ele>172</ele>
        <time>2017-06-28T09:45:45Z</time>
      </trkpt>
      <trkpt lat="45.93884" lon="4.72502">
        <ele>173</ele>
        <time>2017-06-28T09:45:46Z</time>
      </trkpt>
      <trkpt lat="45.9388" lon="4.72506">
        <ele>173</ele>
        <time>2017-06-28T09:45:47Z</time>
      </trkpt>
      <trkpt lat="45.93876" lon="4.7251">
        <ele>173</ele>
        <time>2017-06-28T09:45:48Z</time>
      </trkpt>
      <trkpt lat="45.93867" lon="4.72512">
        <ele>173</ele>
        <time>2017-06-28T09:45:50Z</time>
      </trkpt>
      <trkpt lat="45.93863" lon="4.7251">
        <ele>173</ele>
        <time>2017-06-28T09:45:51Z</time>
      </trkpt>
      <trkpt lat="45.93856" lon="4.72504">
        <ele>173</ele>
        <time>2017-06-28T09:45:53Z</time>
      </trkpt>
      <trkpt lat="45.93852" lon="4.72501">
        <ele>173</ele>
        <time>2017-06-28T09:45:54Z</time>
      </trkpt>
      <trkpt lat="45.93845" lon="4.72494">
        <ele>173</ele>
        <time>2017-06-28T09:45:56Z</time>
      </trkpt>
      <trkpt lat="45.93842" lon="4.7249">
        <ele>173</ele>
        <time>2017-06-28T09:45:57Z</time>
      </trkpt>
      <trkpt lat="45.93838" lon="4.72486">
        <ele>173</ele>
        <time>2017-06-28T09:45:58Z</time>
      </trkpt>
      <trkpt lat="45.93833" lon="4.7248">
        <ele>173</ele>
        <time>2017-06-28T09:45:59Z</time>
      </trkpt>
      <trkpt lat="45.93827" lon="4.72475">
        <ele>173</ele>
        <time>2017-06-28T09:46:00Z</time>
      </trkpt>
      <trkpt lat="45.93822" lon="4.7247">
        <ele>172</ele>
        <time>2017-06-28T09:46:01Z</time>
      </trkpt>
      <trkpt lat="45.93817" lon="4.72467">
        <ele>172</ele>
        <time>2017-06-28T09:46:02Z</time>
      </trkpt>
      <trkpt lat="45.93813" lon="4.72463">
        <ele>172</ele>
        <time>2017-06-28T09:46:03Z</time>
      </trkpt>
      <trkpt lat="45.9381" lon="4.72459">
        <ele>172</ele>
        <time>2017-06-28T09:46:04Z</time>
      </trkpt>
      <trkpt lat="45.93805" lon="4.72453">
        <ele>172</ele>
        <time>2017-06-28T09:46:05Z</time>
      </trkpt>
      <trkpt lat="45.93801" lon="4.7245">
        <ele>172</ele>
        <time>2017-06-28T09:46:06Z</time>
      </trkpt>
      <trkpt lat="45.93797" lon="4.72446">
        <ele>172</ele>
        <time>2017-06-28T09:46:07Z</time>
      </trkpt>
      <trkpt lat="45.93792" lon="4.72443">
        <ele>172</ele>
        <time>2017-06-28T09:46:08Z</time>
      </trkpt>
      <trkpt lat="45.93788" lon="4.72439">
        <ele>172</ele>
        <time>2017-06-28T09:46:09Z</time>
      </trkpt>
      <trkpt lat="45.93784" lon="4.72436">
        <ele>172</ele>
        <time>2017-06-28T09:46:10Z</time>
      </trkpt>
      <trkpt lat="45.9378" lon="4.72433">
        <ele>172</ele>
        <time>2017-06-28T09:46:11Z</time>
      </trkpt>
      <trkpt lat="45.93775" lon="4.7243">
        <ele>171</ele>
        <time>2017-06-28T09:46:12Z</time>
      </trkpt>
      <trkpt lat="45.9377" lon="4.72426">
        <ele>171</ele>
        <time>2017-06-28T09:46:13Z</time>
      </trkpt>
      <trkpt lat="45.93766" lon="4.72421">
        <ele>171</ele>
        <time>2017-06-28T09:46:14Z</time>
      </trkpt>
      <trkpt lat="45.93762" lon="4.72417">
        <ele>171</ele>
        <time>2017-06-28T09:46:15Z</time>
      </trkpt>
      <trkpt lat="45.93758" lon="4.72412">
        <ele>171</ele>
        <time>2017-06-28T09:46:16Z</time>
      </trkpt>
      <trkpt lat="45.93753" lon="4.72408">
        <ele>171</ele>
        <time>2017-06-28T09:46:17Z</time>
      </trkpt>
      <trkpt lat="45.93749" lon="4.72402">
        <ele>171</ele>
        <time>2017-06-28T09:46:18Z</time>
      </trkpt>
      <trkpt lat="45.93744" lon="4.72395">
        <ele>171</ele>
        <time>2017-06-28T09:46:19Z</time>
      </trkpt>
      <trkpt lat="45.93739" lon="4.7239">
        <ele>171</ele>
        <time>2017-06-28T09:46:20Z</time>
      </trkpt>
      <trkpt lat="45.93735" lon="4.72386">
        <ele>171</ele>
        <time>2017-06-28T09:46:21Z</time>
      </trkpt>
      <trkpt lat="45.9373" lon="4.72382">
        <ele>171</ele>
        <time>2017-06-28T09:46:22Z</time>
      </trkpt>
      <trkpt lat="45.93726" lon="4.72378">
        <ele>171</ele>
        <time>2017-06-28T09:46:23Z</time>
      </trkpt>
      <trkpt lat="45.93722" lon="4.72373">
        <ele>172</ele>
        <time>2017-06-28T09:46:24Z</time>
      </trkpt>
      <trkpt lat="45.93718" lon="4.72369">
        <ele>172</ele>
        <time>2017-06-28T09:46:25Z</time>
      </trkpt>
      <trkpt lat="45.93713" lon="4.72365">
        <ele>172</ele>
        <time>2017-06-28T09:46:26Z</time>
      </trkpt>
      <trkpt lat="45.93709" lon="4.72361">
        <ele>172</ele>
        <time>2017-06-28T09:46:27Z</time>
      </trkpt>
      <trkpt lat="45.93705" lon="4.72358">
        <ele>171</ele>
        <time>2017-06-28T09:46:28Z</time>
      </trkpt>
      <trkpt lat="45.93701" lon="4.72354">
        <ele>171</ele>
        <time>2017-06-28T09:46:29Z</time>
      </trkpt>
      <trkpt lat="45.93694" lon="4.72346">
        <ele>171</ele>
        <time>2017-06-28T09:46:31Z</time>
      </trkpt>
      <trkpt lat="45.93693" lon="4.72342">
        <ele>171</ele>
        <time>2017-06-28T09:46:32Z</time>
      </trkpt>
      <trkpt lat="45.9369" lon="4.72338">
        <ele>171</ele>
        <time>2017-06-28T09:46:33Z</time>
      </trkpt>
      <trkpt lat="45.93685" lon="4.72335">
        <ele>171</ele>
        <time>2017-06-28T09:46:34Z</time>
      </trkpt>
      <trkpt lat="45.93681" lon="4.72331">
        <ele>171</ele>
        <time>2017-06-28T09:46:35Z</time>
      </trkpt>
      <trkpt lat="45.93677" lon="4.72328">
        <ele>171</ele>
        <time>2017-06-28T09:46:36Z</time>
      </trkpt>
      <trkpt lat="45.93673" lon="4.72323">
        <ele>171</ele>
        <time>2017-06-28T09:46:37Z</time>
      </trkpt>
      <trkpt lat="45.93667" lon="4.72319">
        <ele>171</ele>
        <time>2017-06-28T09:46:38Z</time>
      </trkpt>
      <trkpt lat="45.93662" lon="4.72315">
        <ele>172</ele>
        <time>2017-06-28T09:46:39Z</time>
      </trkpt>
      <trkpt lat="45.93658" lon="4.72311">
        <ele>172</ele>
        <time>2017-06-28T09:46:40Z</time>
      </trkpt>
      <trkpt lat="45.93653" lon="4.72307">
        <ele>172</ele>
        <time>2017-06-28T09:46:41Z</time>
      </trkpt>
      <trkpt lat="45.93648" lon="4.72302">
        <ele>172</ele>
        <time>2017-06-28T09:46:42Z</time>
      </trkpt>
      <trkpt lat="45.93643" lon="4.72297">
        <ele>172</ele>
        <time>2017-06-28T09:46:43Z</time>
      </trkpt>
      <trkpt lat="45.93639" lon="4.72293">
        <ele>172</ele>
        <time>2017-06-28T09:46:44Z</time>
      </trkpt>
      <trkpt lat="45.93634" lon="4.72289">
        <ele>172</ele>
        <time>2017-06-28T09:46:45Z</time>
      </trkpt>
      <trkpt lat="45.9363" lon="4.72285">
        <ele>172</ele>
        <time>2017-06-28T09:46:46Z</time>
      </trkpt>
      <trkpt lat="45.93625" lon="4.72282">
        <ele>172</ele>
        <time>2017-06-28T09:46:47Z</time>
      </trkpt>
      <trkpt lat="45.93621" lon="4.72278">
        <ele>172</ele>
        <time>2017-06-28T09:46:48Z</time>
      </trkpt>
      <trkpt lat="45.93616" lon="4.72274">
        <ele>172</ele>
        <time>2017-06-28T09:46:49Z</time>
      </trkpt>
      <trkpt lat="45.93612" lon="4.72272">
        <ele>172</ele>
        <time>2017-06-28T09:46:50Z</time>
      </trkpt>
      <trkpt lat="45.93607" lon="4.72269">
        <ele>172</ele>
        <time>2017-06-28T09:46:51Z</time>
      </trkpt>
      <trkpt lat="45.93603" lon="4.72265">
        <ele>173</ele>
        <time>2017-06-28T09:46:52Z</time>
      </trkpt>
      <trkpt lat="45.93598" lon="4.72262">
        <ele>173</ele>
        <time>2017-06-28T09:46:53Z</time>
      </trkpt>
      <trkpt lat="45.93594" lon="4.7226">
        <ele>173</ele>
        <time>2017-06-28T09:46:54Z</time>
      </trkpt>
      <trkpt lat="45.93589" lon="4.72251">
        <ele>173</ele>
        <time>2017-06-28T09:46:56Z</time>
      </trkpt>
      <trkpt lat="45.93585" lon="4.72248">
        <ele>173</ele>
        <time>2017-06-28T09:46:57Z</time>
      </trkpt>
      <trkpt lat="45.9358" lon="4.72245">
        <ele>173</ele>
        <time>2017-06-28T09:46:58Z</time>
      </trkpt>
      <trkpt lat="45.93577" lon="4.72241">
        <ele>173</ele>
        <time>2017-06-28T09:46:59Z</time>
      </trkpt>
      <trkpt lat="45.9357" lon="4.72233">
        <ele>173</ele>
        <time>2017-06-28T09:47:01Z</time>
      </trkpt>
      <trkpt lat="45.93568" lon="4.7223">
        <ele>173</ele>
        <time>2017-06-28T09:47:02Z</time>
      </trkpt>
      <trkpt lat="45.93562" lon="4.72221">
        <ele>173</ele>
        <time>2017-06-28T09:47:05Z</time>
      </trkpt>
      <trkpt lat="45.9356" lon="4.7222">
        <ele>173</ele>
        <time>2017-06-28T09:47:06Z</time>
      </trkpt>
      <trkpt lat="45.93555" lon="4.72212">
        <ele>173</ele>
        <time>2017-06-28T09:47:15Z</time>
      </trkpt>
      <trkpt lat="45.93554" lon="4.72211">
        <ele>173</ele>
        <time>2017-06-28T09:47:16Z</time>
      </trkpt>
      <trkpt lat="45.93552" lon="4.72214">
        <ele>173</ele>
        <time>2017-06-28T09:47:18Z</time>
      </trkpt>
      <trkpt lat="45.93551" lon="4.72216">
        <ele>173</ele>
        <time>2017-06-28T09:47:19Z</time>
      </trkpt>
      <trkpt lat="45.93546" lon="4.72225">
        <ele>172</ele>
        <time>2017-06-28T09:47:22Z</time>
      </trkpt>
      <trkpt lat="45.93544" lon="4.72228">
        <ele>172</ele>
        <time>2017-06-28T09:47:23Z</time>
      </trkpt>
      <trkpt lat="45.9354" lon="4.72236">
        <ele>172</ele>
        <time>2017-06-28T09:47:25Z</time>
      </trkpt>
      <trkpt lat="45.93538" lon="4.7224">
        <ele>172</ele>
        <time>2017-06-28T09:47:26Z</time>
      </trkpt>
      <trkpt lat="45.93534" lon="4.72251">
        <ele>172</ele>
        <time>2017-06-28T09:47:28Z</time>
      </trkpt>
      <trkpt lat="45.93532" lon="4.72257">
        <ele>172</ele>
        <time>2017-06-28T09:47:29Z</time>
      </trkpt>
      <trkpt lat="45.93529" lon="4.72263">
        <ele>172</ele>
        <time>2017-06-28T09:47:30Z</time>
      </trkpt>
      <trkpt lat="45.93527" lon="4.72269">
        <ele>172</ele>
        <time>2017-06-28T09:47:31Z</time>
      </trkpt>
      <trkpt lat="45.93524" lon="4.72276">
        <ele>172</ele>
        <time>2017-06-28T09:47:32Z</time>
      </trkpt>
      <trkpt lat="45.93522" lon="4.72282">
        <ele>172</ele>
        <time>2017-06-28T09:47:33Z</time>
      </trkpt>
      <trkpt lat="45.93519" lon="4.72288">
        <ele>172</ele>
        <time>2017-06-28T09:47:34Z</time>
      </trkpt>
      <trkpt lat="45.93516" lon="4.72295">
        <ele>172</ele>
        <time>2017-06-28T09:47:35Z</time>
      </trkpt>
      <trkpt lat="45.93512" lon="4.72301">
        <ele>172</ele>
        <time>2017-06-28T09:47:36Z</time>
      </trkpt>
      <trkpt lat="45.93507" lon="4.72306">
        <ele>173</ele>
        <time>2017-06-28T09:47:37Z</time>
      </trkpt>
      <trkpt lat="45.93503" lon="4.72312">
        <ele>173</ele>
        <time>2017-06-28T09:47:38Z</time>
      </trkpt>
      <trkpt lat="45.93499" lon="4.72318">
        <ele>173</ele>
        <time>2017-06-28T09:47:39Z</time>
      </trkpt>
      <trkpt lat="45.93495" lon="4.72324">
        <ele>173</ele>
        <time>2017-06-28T09:47:40Z</time>
      </trkpt>
      <trkpt lat="45.9349" lon="4.72331">
        <ele>173</ele>
        <time>2017-06-28T09:47:41Z</time>
      </trkpt>
      <trkpt lat="45.93486" lon="4.72337">
        <ele>173</ele>
        <time>2017-06-28T09:47:42Z</time>
      </trkpt>
      <trkpt lat="45.93482" lon="4.72343">
        <ele>173</ele>
        <time>2017-06-28T09:47:43Z</time>
      </trkpt>
      <trkpt lat="45.93477" lon="4.72349">
        <ele>173</ele>
        <time>2017-06-28T09:47:44Z</time>
      </trkpt>
      <trkpt lat="45.93473" lon="4.72354">
        <ele>173</ele>
        <time>2017-06-28T09:47:45Z</time>
      </trkpt>
      <trkpt lat="45.93469" lon="4.7236">
        <ele>173</ele>
        <time>2017-06-28T09:47:46Z</time>
      </trkpt>
      <trkpt lat="45.93464" lon="4.72366">
        <ele>173</ele>
        <time>2017-06-28T09:47:47Z</time>
      </trkpt>
      <trkpt lat="45.9346" lon="4.72372">
        <ele>173</ele>
        <time>2017-06-28T09:47:48Z</time>
      </trkpt>
      <trkpt lat="45.93456" lon="4.72377">
        <ele>173</ele>
        <time>2017-06-28T09:47:49Z</time>
      </trkpt>
      <trkpt lat="45.93451" lon="4.72381">
        <ele>173</ele>
        <time>2017-06-28T09:47:50Z</time>
      </trkpt>
      <trkpt lat="45.93446" lon="4.72386">
        <ele>173</ele>
        <time>2017-06-28T09:47:51Z</time>
      </trkpt>
      <trkpt lat="45.93441" lon="4.72389">
        <ele>173</ele>
        <time>2017-06-28T09:47:52Z</time>
      </trkpt>
      <trkpt lat="45.93437" lon="4.72393">
        <ele>173</ele>
        <time>2017-06-28T09:47:53Z</time>
      </trkpt>
      <trkpt lat="45.93432" lon="4.72396">
        <ele>173</ele>
        <time>2017-06-28T09:47:54Z</time>
      </trkpt>
      <trkpt lat="45.93427" lon="4.72399">
        <ele>174</ele>
        <time>2017-06-28T09:47:55Z</time>
      </trkpt>
      <trkpt lat="45.93423" lon="4.724">
        <ele>174</ele>
        <time>2017-06-28T09:47:56Z</time>
      </trkpt>
      <trkpt lat="45.93418" lon="4.72402">
        <ele>174</ele>
        <time>2017-06-28T09:47:57Z</time>
      </trkpt>
      <trkpt lat="45.93413" lon="4.72405">
        <ele>174</ele>
        <time>2017-06-28T09:47:58Z</time>
      </trkpt>
      <trkpt lat="45.93408" lon="4.72406">
        <ele>174</ele>
        <time>2017-06-28T09:47:59Z</time>
      </trkpt>
      <trkpt lat="45.93403" lon="4.72406">
        <ele>174</ele>
        <time>2017-06-28T09:48:00Z</time>
      </trkpt>
      <trkpt lat="45.93398" lon="4.72405">
        <ele>174</ele>
        <time>2017-06-28T09:48:01Z</time>
      </trkpt>
      <trkpt lat="45.93394" lon="4.72404">
        <ele>174</ele>
        <time>2017-06-28T09:48:02Z</time>
      </trkpt>
      <trkpt lat="45.93389" lon="4.72407">
        <ele>174</ele>
        <time>2017-06-28T09:48:03Z</time>
      </trkpt>
      <trkpt lat="45.93386" lon="4.72412">
        <ele>174</ele>
        <time>2017-06-28T09:48:04Z</time>
      </trkpt>
      <trkpt lat="45.93385" lon="4.72418">
        <ele>173</ele>
        <time>2017-06-28T09:48:05Z</time>
      </trkpt>
      <trkpt lat="45.93385" lon="4.72426">
        <ele>173</ele>
        <time>2017-06-28T09:48:06Z</time>
      </trkpt>
      <trkpt lat="45.93387" lon="4.72433">
        <ele>173</ele>
        <time>2017-06-28T09:48:07Z</time>
      </trkpt>
      <trkpt lat="45.9339" lon="4.7244">
        <ele>173</ele>
        <time>2017-06-28T09:48:08Z</time>
      </trkpt>
      <trkpt lat="45.93391" lon="4.72448">
        <ele>173</ele>
        <time>2017-06-28T09:48:09Z</time>
      </trkpt>
      <trkpt lat="45.93391" lon="4.72456">
        <ele>173</ele>
        <time>2017-06-28T09:48:10Z</time>
      </trkpt>
      <trkpt lat="45.93389" lon="4.72465">
        <ele>173</ele>
        <time>2017-06-28T09:48:11Z</time>
      </trkpt>
      <trkpt lat="45.93385" lon="4.7247">
        <ele>173</ele>
        <time>2017-06-28T09:48:12Z</time>
      </trkpt>
      <trkpt lat="45.93381" lon="4.72476">
        <ele>173</ele>
        <time>2017-06-28T09:48:13Z</time>
      </trkpt>
      <trkpt lat="45.93377" lon="4.72481">
        <ele>173</ele>
        <time>2017-06-28T09:48:14Z</time>
      </trkpt>
      <trkpt lat="45.93372" lon="4.72486">
        <ele>173</ele>
        <time>2017-06-28T09:48:15Z</time>
      </trkpt>
      <trkpt lat="45.93368" lon="4.72491">
        <ele>173</ele>
        <time>2017-06-28T09:48:16Z</time>
      </trkpt>
      <trkpt lat="45.93363" lon="4.72496">
        <ele>173</ele>
        <time>2017-06-28T09:48:17Z</time>
      </trkpt>
      <trkpt lat="45.93359" lon="4.72501">
        <ele>172</ele>
        <time>2017-06-28T09:48:18Z</time>
      </trkpt>
      <trkpt lat="45.93354" lon="4.72506">
        <ele>172</ele>
        <time>2017-06-28T09:48:19Z</time>
      </trkpt>
      <trkpt lat="45.9335" lon="4.72511">
        <ele>172</ele>
        <time>2017-06-28T09:48:20Z</time>
      </trkpt>
      <trkpt lat="45.93345" lon="4.72517">
        <ele>172</ele>
        <time>2017-06-28T09:48:21Z</time>
      </trkpt>
      <trkpt lat="45.9334" lon="4.72522">
        <ele>172</ele>
        <time>2017-06-28T09:48:22Z</time>
      </trkpt>
      <trkpt lat="45.93335" lon="4.72528">
        <ele>172</ele>
        <time>2017-06-28T09:48:23Z</time>
      </trkpt>
      <trkpt lat="45.93331" lon="4.72534">
        <ele>172</ele>
        <time>2017-06-28T09:48:24Z</time>
      </trkpt>
      <trkpt lat="45.93326" lon="4.72539">
        <ele>172</ele>
        <time>2017-06-28T09:48:25Z</time>
      </trkpt>
      <trkpt lat="45.93321" lon="4.72545">
        <ele>172</ele>
        <time>2017-06-28T09:48:26Z</time>
      </trkpt>
      <trkpt lat="45.93316" lon="4.72551">
        <ele>172</ele>
        <time>2017-06-28T09:48:27Z</time>
      </trkpt>
      <trkpt lat="45.9331" lon="4.72557">
        <ele>172</ele>
        <time>2017-06-28T09:48:28Z</time>
      </trkpt>
      <trkpt lat="45.93304" lon="4.72562">
        <ele>172</ele>
        <time>2017-06-28T09:48:29Z</time>
      </trkpt>
      <trkpt lat="45.93299" lon="4.72568">
        <ele>172</ele>
        <time>2017-06-28T09:48:30Z</time>
      </trkpt>
      <trkpt lat="45.93294" lon="4.72574">
        <ele>171</ele>
        <time>2017-06-28T09:48:31Z</time>
      </trkpt>
      <trkpt lat="45.93289" lon="4.72579">
        <ele>171</ele>
        <time>2017-06-28T09:48:32Z</time>
      </trkpt>
      <trkpt lat="45.93284" lon="4.72584">
        <ele>170</ele>
        <time>2017-06-28T09:48:33Z</time>
      </trkpt>
      <trkpt lat="45.93279" lon="4.72589">
        <ele>170</ele>
        <time>2017-06-28T09:48:34Z</time>
      </trkpt>
      <trkpt lat="45.93274" lon="4.72594">
        <ele>170</ele>
        <time>2017-06-28T09:48:35Z</time>
      </trkpt>
      <trkpt lat="45.9327" lon="4.726">
        <ele>170</ele>
        <time>2017-06-28T09:48:36Z</time>
      </trkpt>
      <trkpt lat="45.93265" lon="4.72605">
        <ele>170</ele>
        <time>2017-06-28T09:48:37Z</time>
      </trkpt>
      <trkpt lat="45.93261" lon="4.7261">
        <ele>170</ele>
        <time>2017-06-28T09:48:38Z</time>
      </trkpt>
      <trkpt lat="45.93257" lon="4.72615">
        <ele>170</ele>
        <time>2017-06-28T09:48:39Z</time>
      </trkpt>
      <trkpt lat="45.93253" lon="4.7262">
        <ele>170</ele>
        <time>2017-06-28T09:48:40Z</time>
      </trkpt>
      <trkpt lat="45.93249" lon="4.72625">
        <ele>170</ele>
        <time>2017-06-28T09:48:41Z</time>
      </trkpt>
      <trkpt lat="45.93244" lon="4.7263">
        <ele>170</ele>
        <time>2017-06-28T09:48:42Z</time>
      </trkpt>
      <trkpt lat="45.9324" lon="4.72635">
        <ele>170</ele>
        <time>2017-06-28T09:48:43Z</time>
      </trkpt>
      <trkpt lat="45.93236" lon="4.7264">
        <ele>170</ele>
        <time>2017-06-28T09:48:44Z</time>
      </trkpt>
      <trkpt lat="45.93231" lon="4.72645">
        <ele>170</ele>
        <time>2017-06-28T09:48:45Z</time>
      </trkpt>
      <trkpt lat="45.93226" lon="4.72651">
        <ele>170</ele>
        <time>2017-06-28T09:48:46Z</time>
      </trkpt>
      <trkpt lat="45.93221" lon="4.72656">
        <ele>170</ele>
        <time>2017-06-28T09:48:47Z</time>
      </trkpt>
      <trkpt lat="45.93217" lon="4.72661">
        <ele>170</ele>
        <time>2017-06-28T09:48:48Z</time>
      </trkpt>
      <trkpt lat="45.93213" lon="4.72665">
        <ele>170</ele>
        <time>2017-06-28T09:48:49Z</time>
      </trkpt>
      <trkpt lat="45.93209" lon="4.7267">
        <ele>169</ele>
        <time>2017-06-28T09:48:50Z</time>
      </trkpt>
      <trkpt lat="45.93205" lon="4.72674">
        <ele>169</ele>
        <time>2017-06-28T09:48:51Z</time>
      </trkpt>
      <trkpt lat="45.93201" lon="4.72678">
        <ele>169</ele>
        <time>2017-06-28T09:48:52Z</time>
      </trkpt>
      <trkpt lat="45.93197" lon="4.72683">
        <ele>169</ele>
        <time>2017-06-28T09:48:53Z</time>
      </trkpt>
      <trkpt lat="45.93193" lon="4.72688">
        <ele>169</ele>
        <time>2017-06-28T09:48:54Z</time>
      </trkpt>
      <trkpt lat="45.9319" lon="4.72693">
        <ele>169</ele>
        <time>2017-06-28T09:48:55Z</time>
      </trkpt>
      <trkpt lat="45.93186" lon="4.72699">
        <ele>169</ele>
        <time>2017-06-28T09:48:56Z</time>
      </trkpt>
      <trkpt lat="45.93182" lon="4.72704">
        <ele>169</ele>
        <time>2017-06-28T09:48:57Z</time>
      </trkpt>
      <trkpt lat="45.93177" lon="4.72709">
        <ele>169</ele>
        <time>2017-06-28T09:48:58Z</time>
      </trkpt>
      <trkpt lat="45.93173" lon="4.72714">
        <ele>170</ele>
        <time>2017-06-28T09:48:59Z</time>
      </trkpt>
      <trkpt lat="45.93169" lon="4.7272">
        <ele>170</ele>
        <time>2017-06-28T09:49:00Z</time>
      </trkpt>
      <trkpt lat="45.93164" lon="4.72724">
        <ele>170</ele>
        <time>2017-06-28T09:49:01Z</time>
      </trkpt>
      <trkpt lat="45.9316" lon="4.72729">
        <ele>170</ele>
        <time>2017-06-28T09:49:02Z</time>
      </trkpt>
      <trkpt lat="45.93155" lon="4.72734">
        <ele>170</ele>
        <time>2017-06-28T09:49:03Z</time>
      </trkpt>
      <trkpt lat="45.93151" lon="4.72739">
        <ele>170</ele>
        <time>2017-06-28T09:49:04Z</time>
      </trkpt>
      <trkpt lat="45.93146" lon="4.72745">
        <ele>170</ele>
        <time>2017-06-28T09:49:05Z</time>
      </trkpt>
      <trkpt lat="45.93142" lon="4.7275">
        <ele>170</ele>
        <time>2017-06-28T09:49:06Z</time>
      </trkpt>
      <trkpt lat="45.93137" lon="4.72755">
        <ele>171</ele>
        <time>2017-06-28T09:49:07Z</time>
      </trkpt>
      <trkpt lat="45.93133" lon="4.72761">
        <ele>171</ele>
        <time>2017-06-28T09:49:08Z</time>
      </trkpt>
      <trkpt lat="45.93128" lon="4.72766">
        <ele>171</ele>
        <time>2017-06-28T09:49:09Z</time>
      </trkpt>
      <trkpt lat="45.93123" lon="4.72772">
        <ele>171</ele>
        <time>2017-06-28T09:49:10Z</time>
      </trkpt>
      <trkpt lat="45.93118" lon="4.72777">
        <ele>171</ele>
        <time>2017-06-28T09:49:11Z</time>
      </trkpt>
      <trkpt lat="45.93114" lon="4.72782">
        <ele>171</ele>
        <time>2017-06-28T09:49:12Z</time>
      </trkpt>
      <trkpt lat="45.9311" lon="4.72788">
        <ele>171</ele>
        <time>2017-06-28T09:49:13Z</time>
      </trkpt>
      <trkpt lat="45.93105" lon="4.72794">
        <ele>171</ele>
        <time>2017-06-28T09:49:14Z</time>
      </trkpt>
      <trkpt lat="45.931" lon="4.72799">
        <ele>171</ele>
        <time>2017-06-28T09:49:15Z</time>
      </trkpt>
      <trkpt lat="45.93096" lon="4.72804">
        <ele>171</ele>
        <time>2017-06-28T09:49:16Z</time>
      </trkpt>
      <trkpt lat="45.93091" lon="4.72809">
        <ele>172</ele>
        <time>2017-06-28T09:49:17Z</time>
      </trkpt>
      <trkpt lat="45.93087" lon="4.72813">
        <ele>172</ele>
        <time>2017-06-28T09:49:18Z</time>
      </trkpt>
      <trkpt lat="45.93083" lon="4.72818">
        <ele>172</ele>
        <time>2017-06-28T09:49:19Z</time>
      </trkpt>
      <trkpt lat="45.93079" lon="4.72821">
        <ele>173</ele>
        <time>2017-06-28T09:49:20Z</time>
      </trkpt>
      <trkpt lat="45.93074" lon="4.72824">
        <ele>173</ele>
        <time>2017-06-28T09:49:21Z</time>
      </trkpt>
      <trkpt lat="45.9307" lon="4.72827">
        <ele>173</ele>
        <time>2017-06-28T09:49:22Z</time>
      </trkpt>
      <trkpt lat="45.93066" lon="4.72831">
        <ele>173</ele>
        <time>2017-06-28T09:49:23Z</time>
      </trkpt>
      <trkpt lat="45.9306" lon="4.72833">
        <ele>173</ele>
        <time>2017-06-28T09:49:24Z</time>
      </trkpt>
      <trkpt lat="45.93055" lon="4.72838">
        <ele>172</ele>
        <time>2017-06-28T09:49:25Z</time>
      </trkpt>
      <trkpt lat="45.9305" lon="4.72849">
        <ele>172</ele>
        <time>2017-06-28T09:49:27Z</time>
      </trkpt>
      <trkpt lat="45.93047" lon="4.72853">
        <ele>172</ele>
        <time>2017-06-28T09:49:28Z</time>
      </trkpt>
      <trkpt lat="45.93042" lon="4.72862">
        <ele>172</ele>
        <time>2017-06-28T09:49:29Z</time>
      </trkpt>
      <trkpt lat="45.93037" lon="4.72868">
        <ele>172</ele>
        <time>2017-06-28T09:49:30Z</time>
      </trkpt>
      <trkpt lat="45.93032" lon="4.72873">
        <ele>172</ele>
        <time>2017-06-28T09:49:31Z</time>
      </trkpt>
      <trkpt lat="45.93028" lon="4.72879">
        <ele>172</ele>
        <time>2017-06-28T09:49:32Z</time>
      </trkpt>
      <trkpt lat="45.93024" lon="4.72884">
        <ele>172</ele>
        <time>2017-06-28T09:49:33Z</time>
      </trkpt>
      <trkpt lat="45.9302" lon="4.72889">
        <ele>172</ele>
        <time>2017-06-28T09:49:34Z</time>
      </trkpt>
      <trkpt lat="45.93016" lon="4.72895">
        <ele>172</ele>
        <time>2017-06-28T09:49:35Z</time>
      </trkpt>
      <trkpt lat="45.93012" lon="4.729">
        <ele>172</ele>
        <time>2017-06-28T09:49:36Z</time>
      </trkpt>
      <trkpt lat="45.93008" lon="4.72905">
        <ele>171</ele>
        <time>2017-06-28T09:49:37Z</time>
      </trkpt>
      <trkpt lat="45.93004" lon="4.72911">
        <ele>171</ele>
        <time>2017-06-28T09:49:38Z</time>
      </trkpt>
      <trkpt lat="45.93" lon="4.72916">
        <ele>171</ele>
        <time>2017-06-28T09:49:39Z</time>
      </trkpt>
      <trkpt lat="45.92995" lon="4.72922">
        <ele>171</ele>
        <time>2017-06-28T09:49:40Z</time>
      </trkpt>
      <trkpt lat="45.92991" lon="4.72927">
        <ele>171</ele>
        <time>2017-06-28T09:49:41Z</time>
      </trkpt>
      <trkpt lat="45.92986" lon="4.72932">
        <ele>171</ele>
        <time>2017-06-28T09:49:42Z</time>
      </trkpt>
      <trkpt lat="45.92981" lon="4.72937">
        <ele>171</ele>
        <time>2017-06-28T09:49:43Z</time>
      </trkpt>
      <trkpt lat="45.92977" lon="4.72942">
        <ele>171</ele>
        <time>2017-06-28T09:49:44Z</time>
      </trkpt>
      <trkpt lat="45.92973" lon="4.72947">
        <ele>171</ele>
        <time>2017-06-28T09:49:45Z</time>
      </trkpt>
      <trkpt lat="45.92969" lon="4.72952">
        <ele>171</ele>
        <time>2017-06-28T09:49:46Z</time>
      </trkpt>
      <trkpt lat="45.92965" lon="4.72957">
        <ele>171</ele>
        <time>2017-06-28T09:49:47Z</time>
      </trkpt>
      <trkpt lat="45.92961" lon="4.72961">
        <ele>171</ele>
        <time>2017-06-28T09:49:48Z</time>
      </trkpt>
      <trkpt lat="45.92958" lon="4.72965">
        <ele>171</ele>
        <time>2017-06-28T09:49:49Z</time>
      </trkpt>
      <trkpt lat="45.92954" lon="4.72969">
        <ele>171</ele>
        <time>2017-06-28T09:49:50Z</time>
      </trkpt>
      <trkpt lat="45.9295" lon="4.72973">
        <ele>171</ele>
        <time>2017-06-28T09:49:51Z</time>
      </trkpt>
      <trkpt lat="45.92947" lon="4.72978">
        <ele>171</ele>
        <time>2017-06-28T09:49:52Z</time>
      </trkpt>
      <trkpt lat="45.92943" lon="4.72983">
        <ele>171</ele>
        <time>2017-06-28T09:49:53Z</time>
      </trkpt>
      <trkpt lat="45.9294" lon="4.72988">
        <ele>171</ele>
        <time>2017-06-28T09:49:54Z</time>
      </trkpt>
      <trkpt lat="45.92936" lon="4.72992">
        <ele>171</ele>
        <time>2017-06-28T09:49:55Z</time>
      </trkpt>
      <trkpt lat="45.92932" lon="4.72997">
        <ele>172</ele>
        <time>2017-06-28T09:49:56Z</time>
      </trkpt>
      <trkpt lat="45.92928" lon="4.73001">
        <ele>172</ele>
        <time>2017-06-28T09:49:57Z</time>
      </trkpt>
      <trkpt lat="45.92923" lon="4.73006">
        <ele>172</ele>
        <time>2017-06-28T09:49:58Z</time>
      </trkpt>
      <trkpt lat="45.92919" lon="4.7301">
        <ele>172</ele>
        <time>2017-06-28T09:49:59Z</time>
      </trkpt>
      <trkpt lat="45.92916" lon="4.73014">
        <ele>172</ele>
        <time>2017-06-28T09:50:00Z</time>
      </trkpt>
      <trkpt lat="45.92909" lon="4.73023">
        <ele>172</ele>
        <time>2017-06-28T09:50:02Z</time>
      </trkpt>
      <trkpt lat="45.92906" lon="4.73028">
        <ele>172</ele>
        <time>2017-06-28T09:50:03Z</time>
      </trkpt>
      <trkpt lat="45.92903" lon="4.73033">
        <ele>172</ele>
        <time>2017-06-28T09:50:04Z</time>
      </trkpt>
      <trkpt lat="45.92899" lon="4.73038">
        <ele>172</ele>
        <time>2017-06-28T09:50:05Z</time>
      </trkpt>
      <trkpt lat="45.92896" lon="4.73044">
        <ele>172</ele>
        <time>2017-06-28T09:50:06Z</time>
      </trkpt>
      <trkpt lat="45.92892" lon="4.73049">
        <ele>172</ele>
        <time>2017-06-28T09:50:07Z</time>
      </trkpt>
      <trkpt lat="45.92889" lon="4.73054">
        <ele>172</ele>
        <time>2017-06-28T09:50:08Z</time>
      </trkpt>
      <trkpt lat="45.92885" lon="4.73059">
        <ele>172</ele>
        <time>2017-06-28T09:50:09Z</time>
      </trkpt>
      <trkpt lat="45.92882" lon="4.73064">
        <ele>172</ele>
        <time>2017-06-28T09:50:10Z</time>
      </trkpt>
      <trkpt lat="45.92878" lon="4.73069">
        <ele>172</ele>
        <time>2017-06-28T09:50:11Z</time>
      </trkpt>
      <trkpt lat="45.92874" lon="4.73074">
        <ele>172</ele>
        <time>2017-06-28T09:50:12Z</time>
      </trkpt>
      <trkpt lat="45.92871" lon="4.73078">
        <ele>172</ele>
        <time>2017-06-28T09:50:13Z</time>
      </trkpt>
      <trkpt lat="45.92867" lon="4.73083">
        <ele>172</ele>
        <time>2017-06-28T09:50:14Z</time>
      </trkpt>
      <trkpt lat="45.92864" lon="4.73088">
        <ele>171</ele>
        <time>2017-06-28T09:50:15Z</time>
      </trkpt>
      <trkpt lat="45.9286" lon="4.73093">
        <ele>171</ele>
        <time>2017-06-28T09:50:16Z</time>
      </trkpt>
      <trkpt lat="45.92857" lon="4.73098">
        <ele>171</ele>
        <time>2017-06-28T09:50:17Z</time>
      </trkpt>
      <trkpt lat="45.9285" lon="4.73099">
        <ele>171</ele>
        <time>2017-06-28T09:50:19Z</time>
      </trkpt>
      <trkpt lat="45.92848" lon="4.73096">
        <ele>171</ele>
        <time>2017-06-28T09:50:20Z</time>
      </trkpt>
      <trkpt lat="45.92845" lon="4.73085">
        <ele>171</ele>
        <time>2017-06-28T09:50:22Z</time>
      </trkpt>
      <trkpt lat="45.92844" lon="4.73077">
        <ele>171</ele>
        <time>2017-06-28T09:50:23Z</time>
      </trkpt>
      <trkpt lat="45.92843" lon="4.7307">
        <ele>171</ele>
        <time>2017-06-28T09:50:24Z</time>
      </trkpt>
      <trkpt lat="45.92842" lon="4.73061">
        <ele>171</ele>
        <time>2017-06-28T09:50:25Z</time>
      </trkpt>
      <trkpt lat="45.92841" lon="4.73053">
        <ele>171</ele>
        <time>2017-06-28T09:50:26Z</time>
      </trkpt>
      <trkpt lat="45.9284" lon="4.73045">
        <ele>171</ele>
        <time>2017-06-28T09:50:27Z</time>
      </trkpt>
      <trkpt lat="45.92839" lon="4.73037">
        <ele>171</ele>
        <time>2017-06-28T09:50:28Z</time>
      </trkpt>
      <trkpt lat="45.92838" lon="4.7303">
        <ele>171</ele>
        <time>2017-06-28T09:50:29Z</time>
      </trkpt>
      <trkpt lat="45.92836" lon="4.73022">
        <ele>171</ele>
        <time>2017-06-28T09:50:30Z</time>
      </trkpt>
      <trkpt lat="45.92835" lon="4.73015">
        <ele>171</ele>
        <time>2017-06-28T09:50:31Z</time>
      </trkpt>
      <trkpt lat="45.92833" lon="4.73008">
        <ele>170</ele>
        <time>2017-06-28T09:50:32Z</time>
      </trkpt>
      <trkpt lat="45.92832" lon="4.73001">
        <ele>170</ele>
        <time>2017-06-28T09:50:33Z</time>
      </trkpt>
      <trkpt lat="45.92831" lon="4.72994">
        <ele>170</ele>
        <time>2017-06-28T09:50:34Z</time>
      </trkpt>
      <trkpt lat="45.9283" lon="4.72985">
        <ele>170</ele>
        <time>2017-06-28T09:50:35Z</time>
      </trkpt>
      <trkpt lat="45.92829" lon="4.72978">
        <ele>170</ele>
        <time>2017-06-28T09:50:36Z</time>
      </trkpt>
      <trkpt lat="45.92828" lon="4.7297">
        <ele>170</ele>
        <time>2017-06-28T09:50:37Z</time>
      </trkpt>
      <trkpt lat="45.92827" lon="4.72962">
        <ele>170</ele>
        <time>2017-06-28T09:50:38Z</time>
      </trkpt>
      <trkpt lat="45.92827" lon="4.72954">
        <ele>170</ele>
        <time>2017-06-28T09:50:39Z</time>
      </trkpt>
      <trkpt lat="45.92826" lon="4.72946">
        <ele>170</ele>
        <time>2017-06-28T09:50:40Z</time>
      </trkpt>
      <trkpt lat="45.92826" lon="4.72938">
        <ele>170</ele>
        <time>2017-06-28T09:50:41Z</time>
      </trkpt>
      <trkpt lat="45.92826" lon="4.72931">
        <ele>170</ele>
        <time>2017-06-28T09:50:42Z</time>
      </trkpt>
      <trkpt lat="45.92825" lon="4.72924">
        <ele>170</ele>
        <time>2017-06-28T09:50:43Z</time>
      </trkpt>
      <trkpt lat="45.92824" lon="4.72917">
        <ele>170</ele>
        <time>2017-06-28T09:50:44Z</time>
      </trkpt>
      <trkpt lat="45.92824" lon="4.7291">
        <ele>170</ele>
        <time>2017-06-28T09:50:45Z</time>
      </trkpt>
      <trkpt lat="45.92823" lon="4.72903">
        <ele>170</ele>
        <time>2017-06-28T09:50:46Z</time>
      </trkpt>
      <trkpt lat="45.92822" lon="4.72896">
        <ele>170</ele>
        <time>2017-06-28T09:50:47Z</time>
      </trkpt>
      <trkpt lat="45.92821" lon="4.72889">
        <ele>170</ele>
        <time>2017-06-28T09:50:48Z</time>
      </trkpt>
      <trkpt lat="45.92819" lon="4.72883">
        <ele>170</ele>
        <time>2017-06-28T09:50:49Z</time>
      </trkpt>
      <trkpt lat="45.92818" lon="4.72876">
        <ele>170</ele>
        <time>2017-06-28T09:50:50Z</time>
      </trkpt>
      <trkpt lat="45.92816" lon="4.72869">
        <ele>170</ele>
        <time>2017-06-28T09:50:51Z</time>
      </trkpt>
      <trkpt lat="45.92815" lon="4.72862">
        <ele>170</ele>
        <time>2017-06-28T09:50:52Z</time>
      </trkpt>
      <trkpt lat="45.92813" lon="4.72854">
        <ele>170</ele>
        <time>2017-06-28T09:50:53Z</time>
      </trkpt>
      <trkpt lat="45.92811" lon="4.72847">
        <ele>170</ele>
        <time>2017-06-28T09:50:54Z</time>
      </trkpt>
      <trkpt lat="45.92809" lon="4.7284">
        <ele>170</ele>
        <time>2017-06-28T09:50:55Z</time>
      </trkpt>
      <trkpt lat="45.92808" lon="4.72833">
        <ele>171</ele>
        <time>2017-06-28T09:50:56Z</time>
      </trkpt>
      <trkpt lat="45.92807" lon="4.72826">
        <ele>171</ele>
        <time>2017-06-28T09:50:57Z</time>
      </trkpt>
      <trkpt lat="45.92806" lon="4.72819">
        <ele>171</ele>
        <time>2017-06-28T09:50:58Z</time>
      </trkpt>
      <trkpt lat="45.92804" lon="4.72812">
        <ele>171</ele>
        <time>2017-06-28T09:50:59Z</time>
      </trkpt>
      <trkpt lat="45.92803" lon="4.72805">
        <ele>171</ele>
        <time>2017-06-28T09:51:00Z</time>
      </trkpt>
      <trkpt lat="45.92803" lon="4.72798">
        <ele>171</ele>
        <time>2017-06-28T09:51:01Z</time>
      </trkpt>
      <trkpt lat="45.928" lon="4.72787">
        <ele>171</ele>
        <time>2017-06-28T09:51:03Z</time>
      </trkpt>
      <trkpt lat="45.92796" lon="4.72785">
        <ele>171</ele>
        <time>2017-06-28T09:51:04Z</time>
      </trkpt>
      <trkpt lat="45.92789" lon="4.72787">
        <ele>171</ele>
        <time>2017-06-28T09:51:06Z</time>
      </trkpt>
      <trkpt lat="45.92785" lon="4.7279">
        <ele>170</ele>
        <time>2017-06-28T09:51:07Z</time>
      </trkpt>
      <trkpt lat="45.92778" lon="4.72797">
        <ele>170</ele>
        <time>2017-06-28T09:51:09Z</time>
      </trkpt>
      <trkpt lat="45.92773" lon="4.728">
        <ele>170</ele>
        <time>2017-06-28T09:51:10Z</time>
      </trkpt>
      <trkpt lat="45.92769" lon="4.72803">
        <ele>170</ele>
        <time>2017-06-28T09:51:11Z</time>
      </trkpt>
      <trkpt lat="45.92765" lon="4.72807">
        <ele>170</ele>
        <time>2017-06-28T09:51:12Z</time>
      </trkpt>
      <trkpt lat="45.9276" lon="4.7281">
        <ele>170</ele>
        <time>2017-06-28T09:51:13Z</time>
      </trkpt>
      <trkpt lat="45.92756" lon="4.72814">
        <ele>170</ele>
        <time>2017-06-28T09:51:14Z</time>
      </trkpt>
      <trkpt lat="45.92751" lon="4.72818">
        <ele>170</ele>
        <time>2017-06-28T09:51:15Z</time>
      </trkpt>
      <trkpt lat="45.92746" lon="4.72822">
        <ele>169</ele>
        <time>2017-06-28T09:51:16Z</time>
      </trkpt>
      <trkpt lat="45.9274" lon="4.72826">
        <ele>169</ele>
        <time>2017-06-28T09:51:17Z</time>
      </trkpt>
      <trkpt lat="45.92735" lon="4.7283">
        <ele>169</ele>
        <time>2017-06-28T09:51:18Z</time>
      </trkpt>
      <trkpt lat="45.9273" lon="4.72834">
        <ele>169</ele>
        <time>2017-06-28T09:51:19Z</time>
      </trkpt>
      <trkpt lat="45.92725" lon="4.72838">
        <ele>169</ele>
        <time>2017-06-28T09:51:20Z</time>
      </trkpt>
      <trkpt lat="45.9272" lon="4.72842">
        <ele>169</ele>
        <time>2017-06-28T09:51:21Z</time>
      </trkpt>
      <trkpt lat="45.92715" lon="4.72846">
        <ele>169</ele>
        <time>2017-06-28T09:51:22Z</time>
      </trkpt>
      <trkpt lat="45.9271" lon="4.72849">
        <ele>169</ele>
        <time>2017-06-28T09:51:23Z</time>
      </trkpt>
      <trkpt lat="45.92705" lon="4.72853">
        <ele>169</ele>
        <time>2017-06-28T09:51:24Z</time>
      </trkpt>
      <trkpt lat="45.92701" lon="4.72857">
        <ele>169</ele>
        <time>2017-06-28T09:51:25Z</time>
      </trkpt>
      <trkpt lat="45.92696" lon="4.72861">
        <ele>169</ele>
        <time>2017-06-28T09:51:26Z</time>
      </trkpt>
      <trkpt lat="45.92692" lon="4.72865">
        <ele>169</ele>
        <time>2017-06-28T09:51:27Z</time>
      </trkpt>
      <trkpt lat="45.92687" lon="4.72868">
        <ele>169</ele>
        <time>2017-06-28T09:51:28Z</time>
      </trkpt>
      <trkpt lat="45.92682" lon="4.72872">
        <ele>169</ele>
        <time>2017-06-28T09:51:29Z</time>
      </trkpt>
      <trkpt lat="45.92677" lon="4.72876">
        <ele>170</ele>
        <time>2017-06-28T09:51:30Z</time>
      </trkpt>
      <trkpt lat="45.92672" lon="4.7288">
        <ele>170</ele>
        <time>2017-06-28T09:51:31Z</time>
      </trkpt>
      <trkpt lat="45.92667" lon="4.72885">
        <ele>169</ele>
        <time>2017-06-28T09:51:32Z</time>
      </trkpt>
      <trkpt lat="45.92661" lon="4.72889">
        <ele>169</ele>
        <time>2017-06-28T09:51:33Z</time>
      </trkpt>
      <trkpt lat="45.92656" lon="4.72893">
        <ele>169</ele>
        <time>2017-06-28T09:51:34Z</time>
      </trkpt>
      <trkpt lat="45.9265" lon="4.72898">
        <ele>169</ele>
        <time>2017-06-28T09:51:35Z</time>
      </trkpt>
      <trkpt lat="45.92645" lon="4.72902">
        <ele>169</ele>
        <time>2017-06-28T09:51:36Z</time>
      </trkpt>
      <trkpt lat="45.92639" lon="4.72906">
        <ele>169</ele>
        <time>2017-06-28T09:51:37Z</time>
      </trkpt>
      <trkpt lat="45.92634" lon="4.72911">
        <ele>169</ele>
        <time>2017-06-28T09:51:38Z</time>
      </trkpt>
      <trkpt lat="45.92628" lon="4.72916">
        <ele>169</ele>
        <time>2017-06-28T09:51:39Z</time>
      </trkpt>
      <trkpt lat="45.92623" lon="4.72921">
        <ele>169</ele>
        <time>2017-06-28T09:51:40Z</time>
      </trkpt>
      <trkpt lat="45.92617" lon="4.72926">
        <ele>169</ele>
        <time>2017-06-28T09:51:41Z</time>
      </trkpt>
      <trkpt lat="45.92612" lon="4.72931">
        <ele>169</ele>
        <time>2017-06-28T09:51:42Z</time>
      </trkpt>
      <trkpt lat="45.92606" lon="4.72936">
        <ele>169</ele>
        <time>2017-06-28T09:51:43Z</time>
      </trkpt>
      <trkpt lat="45.92601" lon="4.72943">
        <ele>169</ele>
        <time>2017-06-28T09:51:44Z</time>
      </trkpt>
      <trkpt lat="45.92597" lon="4.72948">
        <ele>169</ele>
        <time>2017-06-28T09:51:45Z</time>
      </trkpt>
      <trkpt lat="45.92592" lon="4.72954">
        <ele>169</ele>
        <time>2017-06-28T09:51:46Z</time>
      </trkpt>
      <trkpt lat="45.92588" lon="4.72959">
        <ele>169</ele>
        <time>2017-06-28T09:51:47Z</time>
      </trkpt>
      <trkpt lat="45.92584" lon="4.72964">
        <ele>169</ele>
        <time>2017-06-28T09:51:48Z</time>
      </trkpt>
      <trkpt lat="45.92579" lon="4.72968">
        <ele>169</ele>
        <time>2017-06-28T09:51:49Z</time>
      </trkpt>
      <trkpt lat="45.92575" lon="4.72973">
        <ele>169</ele>
        <time>2017-06-28T09:51:50Z</time>
      </trkpt>
      <trkpt lat="45.9257" lon="4.72978">
        <ele>169</ele>
        <time>2017-06-28T09:51:51Z</time>
      </trkpt>
      <trkpt lat="45.92566" lon="4.72983">
        <ele>169</ele>
        <time>2017-06-28T09:51:52Z</time>
      </trkpt>
      <trkpt lat="45.92561" lon="4.72988">
        <ele>169</ele>
        <time>2017-06-28T09:51:53Z</time>
      </trkpt>
      <trkpt lat="45.92557" lon="4.72992">
        <ele>169</ele>
        <time>2017-06-28T09:51:54Z</time>
      </trkpt>
      <trkpt lat="45.92552" lon="4.72997">
        <ele>169</ele>
        <time>2017-06-28T09:51:55Z</time>
      </trkpt>
      <trkpt lat="45.92547" lon="4.73002">
        <ele>169</ele>
        <time>2017-06-28T09:51:56Z</time>
      </trkpt>
      <trkpt lat="45.92541" lon="4.73006">
        <ele>169</ele>
        <time>2017-06-28T09:51:57Z</time>
      </trkpt>
      <trkpt lat="45.92536" lon="4.73011">
        <ele>169</ele>
        <time>2017-06-28T09:51:58Z</time>
      </trkpt>
      <trkpt lat="45.92531" lon="4.73015">
        <ele>169</ele>
        <time>2017-06-28T09:51:59Z</time>
      </trkpt>
      <trkpt lat="45.92526" lon="4.7302">
        <ele>169</ele>
        <time>2017-06-28T09:52:00Z</time>
      </trkpt>
      <trkpt lat="45.92521" lon="4.73025">
        <ele>169</ele>
        <time>2017-06-28T09:52:01Z</time>
      </trkpt>
      <trkpt lat="45.92517" lon="4.73029">
        <ele>169</ele>
        <time>2017-06-28T09:52:02Z</time>
      </trkpt>
      <trkpt lat="45.92512" lon="4.73032">
        <ele>169</ele>
        <time>2017-06-28T09:52:03Z</time>
      </trkpt>
      <trkpt lat="45.92507" lon="4.73036">
        <ele>169</ele>
        <time>2017-06-28T09:52:04Z</time>
      </trkpt>
      <trkpt lat="45.92503" lon="4.7304">
        <ele>169</ele>
        <time>2017-06-28T09:52:05Z</time>
      </trkpt>
      <trkpt lat="45.92498" lon="4.73043">
        <ele>170</ele>
        <time>2017-06-28T09:52:06Z</time>
      </trkpt>
      <trkpt lat="45.92493" lon="4.73048">
        <ele>170</ele>
        <time>2017-06-28T09:52:07Z</time>
      </trkpt>
      <trkpt lat="45.92488" lon="4.73053">
        <ele>170</ele>
        <time>2017-06-28T09:52:08Z</time>
      </trkpt>
      <trkpt lat="45.92484" lon="4.73057">
        <ele>170</ele>
        <time>2017-06-28T09:52:09Z</time>
      </trkpt>
      <trkpt lat="45.92478" lon="4.73062">
        <ele>170</ele>
        <time>2017-06-28T09:52:10Z</time>
      </trkpt>
      <trkpt lat="45.92473" lon="4.73066">
        <ele>170</ele>
        <time>2017-06-28T09:52:11Z</time>
      </trkpt>
      <trkpt lat="45.92468" lon="4.73071">
        <ele>170</ele>
        <time>2017-06-28T09:52:12Z</time>
      </trkpt>
      <trkpt lat="45.92463" lon="4.73074">
        <ele>170</ele>
        <time>2017-06-28T09:52:13Z</time>
      </trkpt>
      <trkpt lat="45.92458" lon="4.73077">
        <ele>170</ele>
        <time>2017-06-28T09:52:14Z</time>
      </trkpt>
      <trkpt lat="45.92453" lon="4.73081">
        <ele>170</ele>
        <time>2017-06-28T09:52:15Z</time>
      </trkpt>
      <trkpt lat="45.92449" lon="4.73086">
        <ele>170</ele>
        <time>2017-06-28T09:52:16Z</time>
      </trkpt>
      <trkpt lat="45.92444" lon="4.73089">
        <ele>170</ele>
        <time>2017-06-28T09:52:17Z</time>
      </trkpt>
      <trkpt lat="45.9244" lon="4.73092">
        <ele>171</ele>
        <time>2017-06-28T09:52:18Z</time>
      </trkpt>
      <trkpt lat="45.92435" lon="4.73096">
        <ele>171</ele>
        <time>2017-06-28T09:52:19Z</time>
      </trkpt>
      <trkpt lat="45.92431" lon="4.73099">
        <ele>171</ele>
        <time>2017-06-28T09:52:20Z</time>
      </trkpt>
      <trkpt lat="45.92427" lon="4.73103">
        <ele>171</ele>
        <time>2017-06-28T09:52:21Z</time>
      </trkpt>
      <trkpt lat="45.92423" lon="4.73106">
        <ele>171</ele>
        <time>2017-06-28T09:52:22Z</time>
      </trkpt>
      <trkpt lat="45.92416" lon="4.73114">
        <ele>171</ele>
        <time>2017-06-28T09:52:24Z</time>
      </trkpt>
      <trkpt lat="45.92414" lon="4.73119">
        <ele>171</ele>
        <time>2017-06-28T09:52:25Z</time>
      </trkpt>
      <trkpt lat="45.92412" lon="4.73125">
        <ele>171</ele>
        <time>2017-06-28T09:52:26Z</time>
      </trkpt>
      <trkpt lat="45.9241" lon="4.73133">
        <ele>171</ele>
        <time>2017-06-28T09:52:27Z</time>
      </trkpt>
      <trkpt lat="45.92409" lon="4.73142">
        <ele>171</ele>
        <time>2017-06-28T09:52:28Z</time>
      </trkpt>
      <trkpt lat="45.92409" lon="4.73151">
        <ele>171</ele>
        <time>2017-06-28T09:52:29Z</time>
      </trkpt>
      <trkpt lat="45.92409" lon="4.7316">
        <ele>170</ele>
        <time>2017-06-28T09:52:30Z</time>
      </trkpt>
      <trkpt lat="45.92408" lon="4.73168">
        <ele>170</ele>
        <time>2017-06-28T09:52:31Z</time>
      </trkpt>
      <trkpt lat="45.92408" lon="4.73176">
        <ele>171</ele>
        <time>2017-06-28T09:52:32Z</time>
      </trkpt>
      <trkpt lat="45.92409" lon="4.73185">
        <ele>171</ele>
        <time>2017-06-28T09:52:33Z</time>
      </trkpt>
      <trkpt lat="45.92409" lon="4.73193">
        <ele>171</ele>
        <time>2017-06-28T09:52:34Z</time>
      </trkpt>
      <trkpt lat="45.92409" lon="4.732">
        <ele>171</ele>
        <time>2017-06-28T09:52:35Z</time>
      </trkpt>
      <trkpt lat="45.92409" lon="4.73208">
        <ele>171</ele>
        <time>2017-06-28T09:52:36Z</time>
      </trkpt>
      <trkpt lat="45.92409" lon="4.73217">
        <ele>171</ele>
        <time>2017-06-28T09:52:37Z</time>
      </trkpt>
      <trkpt lat="45.92409" lon="4.73225">
        <ele>171</ele>
        <time>2017-06-28T09:52:38Z</time>
      </trkpt>
      <trkpt lat="45.92409" lon="4.73233">
        <ele>171</ele>
        <time>2017-06-28T09:52:39Z</time>
      </trkpt>
      <trkpt lat="45.9241" lon="4.73242">
        <ele>171</ele>
        <time>2017-06-28T09:52:40Z</time>
      </trkpt>
      <trkpt lat="45.9241" lon="4.73251">
        <ele>171</ele>
        <time>2017-06-28T09:52:41Z</time>
      </trkpt>
      <trkpt lat="45.92411" lon="4.7326">
        <ele>171</ele>
        <time>2017-06-28T09:52:42Z</time>
      </trkpt>
      <trkpt lat="45.92411" lon="4.73269">
        <ele>171</ele>
        <time>2017-06-28T09:52:43Z</time>
      </trkpt>
      <trkpt lat="45.92412" lon="4.73278">
        <ele>171</ele>
        <time>2017-06-28T09:52:44Z</time>
      </trkpt>
      <trkpt lat="45.92413" lon="4.73288">
        <ele>171</ele>
        <time>2017-06-28T09:52:45Z</time>
      </trkpt>
      <trkpt lat="45.92414" lon="4.73297">
        <ele>171</ele>
        <time>2017-06-28T09:52:46Z</time>
      </trkpt>
      <trkpt lat="45.92414" lon="4.73306">
        <ele>171</ele>
        <time>2017-06-28T09:52:47Z</time>
      </trkpt>
      <trkpt lat="45.92415" lon="4.73315">
        <ele>171</ele>
        <time>2017-06-28T09:52:48Z</time>
      </trkpt>
      <trkpt lat="45.92416" lon="4.73324">
        <ele>171</ele>
        <time>2017-06-28T09:52:49Z</time>
      </trkpt>
      <trkpt lat="45.92416" lon="4.73332">
        <ele>171</ele>
        <time>2017-06-28T09:52:50Z</time>
      </trkpt>
      <trkpt lat="45.92417" lon="4.7334">
        <ele>171</ele>
        <time>2017-06-28T09:52:51Z</time>
      </trkpt>
      <trkpt lat="45.92419" lon="4.73348">
        <ele>171</ele>
        <time>2017-06-28T09:52:52Z</time>
      </trkpt>
      <trkpt lat="45.9242" lon="4.73355">
        <ele>171</ele>
        <time>2017-06-28T09:52:53Z</time>
      </trkpt>
      <trkpt lat="45.92422" lon="4.73363">
        <ele>172</ele>
        <time>2017-06-28T09:52:54Z</time>
      </trkpt>
      <trkpt lat="45.92423" lon="4.73369">
        <ele>172</ele>
        <time>2017-06-28T09:52:55Z</time>
      </trkpt>
      <trkpt lat="45.92424" lon="4.73376">
        <ele>172</ele>
        <time>2017-06-28T09:52:56Z</time>
      </trkpt>
      <trkpt lat="45.92425" lon="4.73383">
        <ele>172</ele>
        <time>2017-06-28T09:52:57Z</time>
      </trkpt>
      <trkpt lat="45.92427" lon="4.73391">
        <ele>172</ele>
        <time>2017-06-28T09:52:58Z</time>
      </trkpt>
      <trkpt lat="45.92429" lon="4.73398">
        <ele>172</ele>
        <time>2017-06-28T09:52:59Z</time>
      </trkpt>
      <trkpt lat="45.92432" lon="4.73405">
        <ele>172</ele>
        <time>2017-06-28T09:53:00Z</time>
      </trkpt>
      <trkpt lat="45.92436" lon="4.73411">
        <ele>172</ele>
        <time>2017-06-28T09:53:01Z</time>
      </trkpt>
      <trkpt lat="45.92441" lon="4.73415">
        <ele>172</ele>
        <time>2017-06-28T09:53:02Z</time>
      </trkpt>
      <trkpt lat="45.92447" lon="4.73418">
        <ele>173</ele>
        <time>2017-06-28T09:53:03Z</time>
      </trkpt>
      <trkpt lat="45.92452" lon="4.7342">
        <ele>173</ele>
        <time>2017-06-28T09:53:04Z</time>
      </trkpt>
      <trkpt lat="45.92458" lon="4.73423">
        <ele>173</ele>
        <time>2017-06-28T09:53:05Z</time>
      </trkpt>
      <trkpt lat="45.92462" lon="4.73428">
        <ele>173</ele>
        <time>2017-06-28T09:53:06Z</time>
      </trkpt>
      <trkpt lat="45.92466" lon="4.73433">
        <ele>173</ele>
        <time>2017-06-28T09:53:07Z</time>
      </trkpt>
      <trkpt lat="45.92469" lon="4.7344">
        <ele>173</ele>
        <time>2017-06-28T09:53:08Z</time>
      </trkpt>
      <trkpt lat="45.9247" lon="4.73448">
        <ele>173</ele>
        <time>2017-06-28T09:53:09Z</time>
      </trkpt>
      <trkpt lat="45.92471" lon="4.73455">
        <ele>173</ele>
        <time>2017-06-28T09:53:10Z</time>
      </trkpt>
      <trkpt lat="45.92472" lon="4.73462">
        <ele>173</ele>
        <time>2017-06-28T09:53:11Z</time>
      </trkpt>
      <trkpt lat="45.92472" lon="4.73469">
        <ele>173</ele>
        <time>2017-06-28T09:53:12Z</time>
      </trkpt>
      <trkpt lat="45.92472" lon="4.73476">
        <ele>173</ele>
        <time>2017-06-28T09:53:13Z</time>
      </trkpt>
      <trkpt lat="45.92472" lon="4.73483">
        <ele>173</ele>
        <time>2017-06-28T09:53:14Z</time>
      </trkpt>
      <trkpt lat="45.92472" lon="4.7349">
        <ele>173</ele>
        <time>2017-06-28T09:53:15Z</time>
      </trkpt>
      <trkpt lat="45.92472" lon="4.73498">
        <ele>173</ele>
        <time>2017-06-28T09:53:16Z</time>
      </trkpt>
      <trkpt lat="45.92472" lon="4.73505">
        <ele>174</ele>
        <time>2017-06-28T09:53:17Z</time>
      </trkpt>
      <trkpt lat="45.92471" lon="4.73512">
        <ele>174</ele>
        <time>2017-06-28T09:53:18Z</time>
      </trkpt>
      <trkpt lat="45.92471" lon="4.73519">
        <ele>174</ele>
        <time>2017-06-28T09:53:19Z</time>
      </trkpt>
      <trkpt lat="45.92469" lon="4.73531">
        <ele>174</ele>
        <time>2017-06-28T09:53:21Z</time>
      </trkpt>
      <trkpt lat="45.92469" lon="4.73536">
        <ele>174</ele>
        <time>2017-06-28T09:53:22Z</time>
      </trkpt>
      <trkpt lat="45.92468" lon="4.73547">
        <ele>173</ele>
        <time>2017-06-28T09:53:24Z</time>
      </trkpt>
      <trkpt lat="45.92468" lon="4.73553">
        <ele>173</ele>
        <time>2017-06-28T09:53:25Z</time>
      </trkpt>
      <trkpt lat="45.92469" lon="4.73565">
        <ele>173</ele>
        <time>2017-06-28T09:53:27Z</time>
      </trkpt>
      <trkpt lat="45.9247" lon="4.73572">
        <ele>173</ele>
        <time>2017-06-28T09:53:28Z</time>
      </trkpt>
      <trkpt lat="45.9247" lon="4.73579">
        <ele>173</ele>
        <time>2017-06-28T09:53:29Z</time>
      </trkpt>
      <trkpt lat="45.9247" lon="4.73586">
        <ele>174</ele>
        <time>2017-06-28T09:53:30Z</time>
      </trkpt>
      <trkpt lat="45.9247" lon="4.73593">
        <ele>174</ele>
        <time>2017-06-28T09:53:31Z</time>
      </trkpt>
      <trkpt lat="45.9247" lon="4.73601">
        <ele>174</ele>
        <time>2017-06-28T09:53:32Z</time>
      </trkpt>
      <trkpt lat="45.9247" lon="4.73608">
        <ele>174</ele>
        <time>2017-06-28T09:53:33Z</time>
      </trkpt>
      <trkpt lat="45.9247" lon="4.73616">
        <ele>174</ele>
        <time>2017-06-28T09:53:34Z</time>
      </trkpt>
      <trkpt lat="45.92471" lon="4.73623">
        <ele>174</ele>
        <time>2017-06-28T09:53:35Z</time>
      </trkpt>
      <trkpt lat="45.92471" lon="4.7363">
        <ele>174</ele>
        <time>2017-06-28T09:53:36Z</time>
      </trkpt>
      <trkpt lat="45.92472" lon="4.73638">
        <ele>174</ele>
        <time>2017-06-28T09:53:37Z</time>
      </trkpt>
      <trkpt lat="45.92471" lon="4.73646">
        <ele>174</ele>
        <time>2017-06-28T09:53:38Z</time>
      </trkpt>
      <trkpt lat="45.92471" lon="4.73654">
        <ele>174</ele>
        <time>2017-06-28T09:53:39Z</time>
      </trkpt>
      <trkpt lat="45.92471" lon="4.73661">
        <ele>174</ele>
        <time>2017-06-28T09:53:40Z</time>
      </trkpt>
      <trkpt lat="45.92471" lon="4.73669">
        <ele>174</ele>
        <time>2017-06-28T09:53:41Z</time>
      </trkpt>
      <trkpt lat="45.92471" lon="4.73677">
        <ele>174</ele>
        <time>2017-06-28T09:53:42Z</time>
      </trkpt>
      <trkpt lat="45.92471" lon="4.73685">
        <ele>174</ele>
        <time>2017-06-28T09:53:43Z</time>
      </trkpt>
      <trkpt lat="45.9247" lon="4.73691">
        <ele>174</ele>
        <time>2017-06-28T09:53:44Z</time>
      </trkpt>
      <trkpt lat="45.92468" lon="4.73702">
        <ele>174</ele>
        <time>2017-06-28T09:53:46Z</time>
      </trkpt>
      <trkpt lat="45.92467" lon="4.73704">
        <ele>174</ele>
        <time>2017-06-28T09:53:47Z</time>
      </trkpt>
      <trkpt lat="45.92467" lon="4.73706">
        <ele>174</ele>
        <time>2017-06-28T09:53:48Z</time>
      </trkpt>
      <trkpt lat="45.92466" lon="4.73709">
        <ele>174</ele>
        <time>2017-06-28T09:53:57Z</time>
      </trkpt>
      <trkpt lat="45.92465" lon="4.73709">
        <ele>174</ele>
        <time>2017-06-28T09:53:58Z</time>
      </trkpt>
      <trkpt lat="45.92462" lon="4.7371">
        <ele>174</ele>
        <time>2017-06-28T09:54:11.567Z</time>
      </trkpt>
    </trkseg>
  </trk>
</gpx>